<?xml version="1.0" encoding="UTF-8" standalone="no" ?>
<gpx xmlns="http://www.topografix.com/GPX/1/1" xmlns:xsi="http://www.w3.org/2001/XMLSchema-instance" xsi:schemaLocation="http://www.topografix.com/GPX/1/1 http://www.topografix.com/GPX/1/1/gpx.xsd" version="1.1" creator="VisuGPX - https://www.visugpx.com">
  <metadata>
    <name>Jeudi 20 Septembre 2018 - Île d'Yeu - Le Vieux Château</name>
  </metadata>
  <trk>
    <name><![CDATA[Jeudi 20 Septembre 2018 - Île d'Yeu - Le Vieux Château_1]]></name>
    <trkseg>
      <trkpt lat="46.70353" lon="-2.37456">
        <ele>9.5</ele>
        <time>2018-09-20T09:45:42.000Z</time>
      </trkpt>
      <trkpt lat="46.70353" lon="-2.37456">
        <ele>9.5</ele>
        <time>2018-09-20T09:45:42.000Z</time>
      </trkpt>
      <trkpt lat="46.70352" lon="-2.37457">
        <ele>9.5</ele>
        <time>2018-09-20T09:45:43.000Z</time>
      </trkpt>
      <trkpt lat="46.70351" lon="-2.37457">
        <ele>9.5</ele>
        <time>2018-09-20T09:45:44.000Z</time>
      </trkpt>
      <trkpt lat="46.7035" lon="-2.37457">
        <ele>9.4</ele>
        <time>2018-09-20T09:45:45.000Z</time>
      </trkpt>
      <trkpt lat="46.70349" lon="-2.37458">
        <ele>9.4</ele>
        <time>2018-09-20T09:45:46.000Z</time>
      </trkpt>
      <trkpt lat="46.70349" lon="-2.37458">
        <ele>9.4</ele>
        <time>2018-09-20T09:45:47.000Z</time>
      </trkpt>
      <trkpt lat="46.70348" lon="-2.37459">
        <ele>9.3</ele>
        <time>2018-09-20T09:45:48.000Z</time>
      </trkpt>
      <trkpt lat="46.70347" lon="-2.3746">
        <ele>9.3</ele>
        <time>2018-09-20T09:45:49.000Z</time>
      </trkpt>
      <trkpt lat="46.70347" lon="-2.3746">
        <ele>9.3</ele>
        <time>2018-09-20T09:45:50.000Z</time>
      </trkpt>
      <trkpt lat="46.70346" lon="-2.37461">
        <ele>9.3</ele>
        <time>2018-09-20T09:45:51.000Z</time>
      </trkpt>
      <trkpt lat="46.70346" lon="-2.37462">
        <ele>9.2</ele>
        <time>2018-09-20T09:45:52.000Z</time>
      </trkpt>
      <trkpt lat="46.70345" lon="-2.37462">
        <ele>9.2</ele>
        <time>2018-09-20T09:45:53.000Z</time>
      </trkpt>
      <trkpt lat="46.70345" lon="-2.37463">
        <ele>9.2</ele>
        <time>2018-09-20T09:45:54.000Z</time>
      </trkpt>
      <trkpt lat="46.70344" lon="-2.37463">
        <ele>9.2</ele>
        <time>2018-09-20T09:45:55.000Z</time>
      </trkpt>
      <trkpt lat="46.70344" lon="-2.37463">
        <ele>9.1</ele>
        <time>2018-09-20T09:45:56.000Z</time>
      </trkpt>
      <trkpt lat="46.70343" lon="-2.37463">
        <ele>9.1</ele>
        <time>2018-09-20T09:45:57.000Z</time>
      </trkpt>
      <trkpt lat="46.70342" lon="-2.37463">
        <ele>9.1</ele>
        <time>2018-09-20T09:45:58.000Z</time>
      </trkpt>
      <trkpt lat="46.70342" lon="-2.37463">
        <ele>9.1</ele>
        <time>2018-09-20T09:45:59.000Z</time>
      </trkpt>
      <trkpt lat="46.70341" lon="-2.37463">
        <ele>9.1</ele>
        <time>2018-09-20T09:46:00.000Z</time>
      </trkpt>
      <trkpt lat="46.7034" lon="-2.37462">
        <ele>9.1</ele>
        <time>2018-09-20T09:46:01.000Z</time>
      </trkpt>
      <trkpt lat="46.70339" lon="-2.37461">
        <ele>9.1</ele>
        <time>2018-09-20T09:46:02.000Z</time>
      </trkpt>
      <trkpt lat="46.70337" lon="-2.37461">
        <ele>9</ele>
        <time>2018-09-20T09:46:03.000Z</time>
      </trkpt>
      <trkpt lat="46.70336" lon="-2.3746">
        <ele>9</ele>
        <time>2018-09-20T09:46:04.000Z</time>
      </trkpt>
      <trkpt lat="46.70335" lon="-2.3746">
        <ele>9</ele>
        <time>2018-09-20T09:46:05.000Z</time>
      </trkpt>
      <trkpt lat="46.70334" lon="-2.3746">
        <ele>9</ele>
        <time>2018-09-20T09:46:06.000Z</time>
      </trkpt>
      <trkpt lat="46.70333" lon="-2.37459">
        <ele>8.9</ele>
        <time>2018-09-20T09:46:07.000Z</time>
      </trkpt>
      <trkpt lat="46.70332" lon="-2.37459">
        <ele>8.9</ele>
        <time>2018-09-20T09:46:08.000Z</time>
      </trkpt>
      <trkpt lat="46.70331" lon="-2.37459">
        <ele>8.8</ele>
        <time>2018-09-20T09:46:09.000Z</time>
      </trkpt>
      <trkpt lat="46.7033" lon="-2.37459">
        <ele>8.7</ele>
        <time>2018-09-20T09:46:10.000Z</time>
      </trkpt>
      <trkpt lat="46.70329" lon="-2.37459">
        <ele>8.6</ele>
        <time>2018-09-20T09:46:11.000Z</time>
      </trkpt>
      <trkpt lat="46.70328" lon="-2.37459">
        <ele>8.5</ele>
        <time>2018-09-20T09:46:12.000Z</time>
      </trkpt>
      <trkpt lat="46.70327" lon="-2.37459">
        <ele>8.5</ele>
        <time>2018-09-20T09:46:13.000Z</time>
      </trkpt>
      <trkpt lat="46.70326" lon="-2.3746">
        <ele>8.4</ele>
        <time>2018-09-20T09:46:14.000Z</time>
      </trkpt>
      <trkpt lat="46.70325" lon="-2.3746">
        <ele>8.3</ele>
        <time>2018-09-20T09:46:15.000Z</time>
      </trkpt>
      <trkpt lat="46.70324" lon="-2.3746">
        <ele>8.2</ele>
        <time>2018-09-20T09:46:16.000Z</time>
      </trkpt>
      <trkpt lat="46.70324" lon="-2.3746">
        <ele>8.1</ele>
        <time>2018-09-20T09:46:17.000Z</time>
      </trkpt>
      <trkpt lat="46.70323" lon="-2.3746">
        <ele>8.1</ele>
        <time>2018-09-20T09:46:18.000Z</time>
      </trkpt>
      <trkpt lat="46.70322" lon="-2.3746">
        <ele>8</ele>
        <time>2018-09-20T09:46:19.000Z</time>
      </trkpt>
      <trkpt lat="46.70321" lon="-2.37459">
        <ele>7.9</ele>
        <time>2018-09-20T09:46:20.000Z</time>
      </trkpt>
      <trkpt lat="46.7032" lon="-2.37459">
        <ele>7.8</ele>
        <time>2018-09-20T09:46:21.000Z</time>
      </trkpt>
      <trkpt lat="46.70319" lon="-2.37459">
        <ele>7.8</ele>
        <time>2018-09-20T09:46:22.000Z</time>
      </trkpt>
      <trkpt lat="46.70318" lon="-2.37459">
        <ele>7.7</ele>
        <time>2018-09-20T09:46:23.000Z</time>
      </trkpt>
      <trkpt lat="46.70317" lon="-2.37459">
        <ele>7.6</ele>
        <time>2018-09-20T09:46:24.000Z</time>
      </trkpt>
      <trkpt lat="46.70316" lon="-2.37458">
        <ele>7.5</ele>
        <time>2018-09-20T09:46:25.000Z</time>
      </trkpt>
      <trkpt lat="46.70315" lon="-2.37458">
        <ele>7.4</ele>
        <time>2018-09-20T09:46:26.000Z</time>
      </trkpt>
      <trkpt lat="46.70314" lon="-2.37458">
        <ele>7.4</ele>
        <time>2018-09-20T09:46:27.000Z</time>
      </trkpt>
      <trkpt lat="46.70312" lon="-2.37457">
        <ele>7.3</ele>
        <time>2018-09-20T09:46:28.000Z</time>
      </trkpt>
      <trkpt lat="46.70311" lon="-2.37457">
        <ele>7.2</ele>
        <time>2018-09-20T09:46:29.000Z</time>
      </trkpt>
      <trkpt lat="46.7031" lon="-2.37456">
        <ele>7.1</ele>
        <time>2018-09-20T09:46:30.000Z</time>
      </trkpt>
      <trkpt lat="46.70309" lon="-2.37456">
        <ele>7</ele>
        <time>2018-09-20T09:46:31.000Z</time>
      </trkpt>
      <trkpt lat="46.70308" lon="-2.37455">
        <ele>6.9</ele>
        <time>2018-09-20T09:46:32.000Z</time>
      </trkpt>
      <trkpt lat="46.70307" lon="-2.37455">
        <ele>6.8</ele>
        <time>2018-09-20T09:46:33.000Z</time>
      </trkpt>
      <trkpt lat="46.70305" lon="-2.37455">
        <ele>6.7</ele>
        <time>2018-09-20T09:46:34.000Z</time>
      </trkpt>
      <trkpt lat="46.70304" lon="-2.37454">
        <ele>6.7</ele>
        <time>2018-09-20T09:46:35.000Z</time>
      </trkpt>
      <trkpt lat="46.70304" lon="-2.37454">
        <ele>6.6</ele>
        <time>2018-09-20T09:46:36.000Z</time>
      </trkpt>
      <trkpt lat="46.70303" lon="-2.37454">
        <ele>6.5</ele>
        <time>2018-09-20T09:46:37.000Z</time>
      </trkpt>
      <trkpt lat="46.70302" lon="-2.37454">
        <ele>6.5</ele>
        <time>2018-09-20T09:46:38.000Z</time>
      </trkpt>
      <trkpt lat="46.70301" lon="-2.37454">
        <ele>6.4</ele>
        <time>2018-09-20T09:46:39.000Z</time>
      </trkpt>
      <trkpt lat="46.70301" lon="-2.37454">
        <ele>6.4</ele>
        <time>2018-09-20T09:46:40.000Z</time>
      </trkpt>
      <trkpt lat="46.70301" lon="-2.37454">
        <ele>6.4</ele>
        <time>2018-09-20T09:46:41.000Z</time>
      </trkpt>
      <trkpt lat="46.703" lon="-2.37454">
        <ele>6.3</ele>
        <time>2018-09-20T09:46:42.000Z</time>
      </trkpt>
      <trkpt lat="46.703" lon="-2.37454">
        <ele>6.3</ele>
        <time>2018-09-20T09:46:43.000Z</time>
      </trkpt>
      <trkpt lat="46.703" lon="-2.37454">
        <ele>6.3</ele>
        <time>2018-09-20T09:46:44.000Z</time>
      </trkpt>
      <trkpt lat="46.70299" lon="-2.37454">
        <ele>6.3</ele>
        <time>2018-09-20T09:46:45.000Z</time>
      </trkpt>
      <trkpt lat="46.70299" lon="-2.37454">
        <ele>6.2</ele>
        <time>2018-09-20T09:46:46.000Z</time>
      </trkpt>
      <trkpt lat="46.70299" lon="-2.37453">
        <ele>6.2</ele>
        <time>2018-09-20T09:46:47.000Z</time>
      </trkpt>
      <trkpt lat="46.70298" lon="-2.37453">
        <ele>6.2</ele>
        <time>2018-09-20T09:46:48.000Z</time>
      </trkpt>
      <trkpt lat="46.70297" lon="-2.37453">
        <ele>6.1</ele>
        <time>2018-09-20T09:46:49.000Z</time>
      </trkpt>
      <trkpt lat="46.70297" lon="-2.37452">
        <ele>6</ele>
        <time>2018-09-20T09:46:50.000Z</time>
      </trkpt>
      <trkpt lat="46.70296" lon="-2.37452">
        <ele>6</ele>
        <time>2018-09-20T09:46:51.000Z</time>
      </trkpt>
      <trkpt lat="46.70295" lon="-2.37452">
        <ele>5.9</ele>
        <time>2018-09-20T09:46:52.000Z</time>
      </trkpt>
      <trkpt lat="46.70294" lon="-2.37451">
        <ele>5.8</ele>
        <time>2018-09-20T09:46:53.000Z</time>
      </trkpt>
      <trkpt lat="46.70293" lon="-2.37451">
        <ele>5.8</ele>
        <time>2018-09-20T09:46:54.000Z</time>
      </trkpt>
      <trkpt lat="46.70292" lon="-2.37451">
        <ele>5.7</ele>
        <time>2018-09-20T09:46:55.000Z</time>
      </trkpt>
      <trkpt lat="46.70291" lon="-2.37452">
        <ele>5.6</ele>
        <time>2018-09-20T09:46:56.000Z</time>
      </trkpt>
      <trkpt lat="46.70291" lon="-2.37452">
        <ele>5.6</ele>
        <time>2018-09-20T09:46:57.000Z</time>
      </trkpt>
      <trkpt lat="46.7029" lon="-2.37452">
        <ele>5.5</ele>
        <time>2018-09-20T09:46:58.000Z</time>
      </trkpt>
      <trkpt lat="46.7029" lon="-2.37453">
        <ele>5.5</ele>
        <time>2018-09-20T09:46:59.000Z</time>
      </trkpt>
      <trkpt lat="46.7029" lon="-2.37453">
        <ele>5.4</ele>
        <time>2018-09-20T09:47:00.000Z</time>
      </trkpt>
      <trkpt lat="46.70289" lon="-2.37453">
        <ele>5.4</ele>
        <time>2018-09-20T09:47:01.000Z</time>
      </trkpt>
      <trkpt lat="46.70289" lon="-2.37453">
        <ele>5.4</ele>
        <time>2018-09-20T09:47:02.000Z</time>
      </trkpt>
      <trkpt lat="46.70289" lon="-2.37453">
        <ele>5.4</ele>
        <time>2018-09-20T09:47:03.000Z</time>
      </trkpt>
      <trkpt lat="46.70288" lon="-2.37453">
        <ele>5.4</ele>
        <time>2018-09-20T09:47:04.000Z</time>
      </trkpt>
      <trkpt lat="46.70288" lon="-2.37453">
        <ele>5.3</ele>
        <time>2018-09-20T09:47:05.000Z</time>
      </trkpt>
      <trkpt lat="46.70288" lon="-2.37452">
        <ele>5.3</ele>
        <time>2018-09-20T09:47:06.000Z</time>
      </trkpt>
      <trkpt lat="46.70288" lon="-2.37452">
        <ele>5.3</ele>
        <time>2018-09-20T09:47:07.000Z</time>
      </trkpt>
      <trkpt lat="46.70288" lon="-2.37452">
        <ele>5.3</ele>
        <time>2018-09-20T09:47:08.000Z</time>
      </trkpt>
      <trkpt lat="46.70288" lon="-2.37452">
        <ele>5.3</ele>
        <time>2018-09-20T09:47:09.000Z</time>
      </trkpt>
      <trkpt lat="46.70288" lon="-2.37452">
        <ele>5.3</ele>
        <time>2018-09-20T09:47:10.000Z</time>
      </trkpt>
      <trkpt lat="46.70288" lon="-2.37452">
        <ele>5.3</ele>
        <time>2018-09-20T09:47:11.000Z</time>
      </trkpt>
      <trkpt lat="46.70288" lon="-2.37452">
        <ele>5.3</ele>
        <time>2018-09-20T09:47:12.000Z</time>
      </trkpt>
      <trkpt lat="46.70288" lon="-2.37452">
        <ele>5.3</ele>
        <time>2018-09-20T09:47:13.000Z</time>
      </trkpt>
      <trkpt lat="46.70288" lon="-2.37452">
        <ele>5.3</ele>
        <time>2018-09-20T09:47:14.000Z</time>
      </trkpt>
      <trkpt lat="46.70288" lon="-2.37452">
        <ele>5.3</ele>
        <time>2018-09-20T09:47:15.000Z</time>
      </trkpt>
      <trkpt lat="46.70288" lon="-2.37452">
        <ele>5.3</ele>
        <time>2018-09-20T09:47:16.000Z</time>
      </trkpt>
      <trkpt lat="46.70288" lon="-2.37452">
        <ele>5.3</ele>
        <time>2018-09-20T09:47:17.000Z</time>
      </trkpt>
      <trkpt lat="46.70288" lon="-2.37452">
        <ele>5.3</ele>
        <time>2018-09-20T09:47:18.000Z</time>
      </trkpt>
      <trkpt lat="46.70288" lon="-2.37451">
        <ele>5.4</ele>
        <time>2018-09-20T09:47:19.000Z</time>
      </trkpt>
      <trkpt lat="46.70288" lon="-2.37451">
        <ele>5.4</ele>
        <time>2018-09-20T09:47:20.000Z</time>
      </trkpt>
      <trkpt lat="46.70288" lon="-2.3745">
        <ele>5.4</ele>
        <time>2018-09-20T09:47:21.000Z</time>
      </trkpt>
      <trkpt lat="46.70289" lon="-2.3745">
        <ele>5.4</ele>
        <time>2018-09-20T09:47:22.000Z</time>
      </trkpt>
      <trkpt lat="46.70289" lon="-2.37449">
        <ele>5.5</ele>
        <time>2018-09-20T09:47:23.000Z</time>
      </trkpt>
      <trkpt lat="46.70289" lon="-2.37448">
        <ele>5.5</ele>
        <time>2018-09-20T09:47:24.000Z</time>
      </trkpt>
      <trkpt lat="46.70289" lon="-2.37447">
        <ele>5.6</ele>
        <time>2018-09-20T09:47:25.000Z</time>
      </trkpt>
      <trkpt lat="46.70289" lon="-2.37445">
        <ele>5.6</ele>
        <time>2018-09-20T09:47:26.000Z</time>
      </trkpt>
      <trkpt lat="46.70289" lon="-2.37444">
        <ele>5.7</ele>
        <time>2018-09-20T09:47:27.000Z</time>
      </trkpt>
      <trkpt lat="46.7029" lon="-2.37443">
        <ele>5.7</ele>
        <time>2018-09-20T09:47:28.000Z</time>
      </trkpt>
      <trkpt lat="46.7029" lon="-2.37441">
        <ele>5.7</ele>
        <time>2018-09-20T09:47:29.000Z</time>
      </trkpt>
      <trkpt lat="46.7029" lon="-2.3744">
        <ele>5.8</ele>
        <time>2018-09-20T09:47:30.000Z</time>
      </trkpt>
      <trkpt lat="46.7029" lon="-2.37438">
        <ele>5.8</ele>
        <time>2018-09-20T09:47:31.000Z</time>
      </trkpt>
      <trkpt lat="46.70289" lon="-2.37437">
        <ele>5.8</ele>
        <time>2018-09-20T09:47:32.000Z</time>
      </trkpt>
      <trkpt lat="46.70289" lon="-2.37435">
        <ele>5.9</ele>
        <time>2018-09-20T09:47:33.000Z</time>
      </trkpt>
      <trkpt lat="46.70289" lon="-2.37434">
        <ele>5.9</ele>
        <time>2018-09-20T09:47:34.000Z</time>
      </trkpt>
      <trkpt lat="46.70289" lon="-2.37432">
        <ele>5.9</ele>
        <time>2018-09-20T09:47:35.000Z</time>
      </trkpt>
      <trkpt lat="46.70289" lon="-2.37431">
        <ele>6</ele>
        <time>2018-09-20T09:47:36.000Z</time>
      </trkpt>
      <trkpt lat="46.7029" lon="-2.3743">
        <ele>6</ele>
        <time>2018-09-20T09:47:37.000Z</time>
      </trkpt>
      <trkpt lat="46.7029" lon="-2.37428">
        <ele>6.1</ele>
        <time>2018-09-20T09:47:38.000Z</time>
      </trkpt>
      <trkpt lat="46.7029" lon="-2.37427">
        <ele>6.1</ele>
        <time>2018-09-20T09:47:39.000Z</time>
      </trkpt>
      <trkpt lat="46.70291" lon="-2.37426">
        <ele>6.2</ele>
        <time>2018-09-20T09:47:40.000Z</time>
      </trkpt>
      <trkpt lat="46.70291" lon="-2.37426">
        <ele>6.3</ele>
        <time>2018-09-20T09:47:41.000Z</time>
      </trkpt>
      <trkpt lat="46.70292" lon="-2.37425">
        <ele>6.3</ele>
        <time>2018-09-20T09:47:42.000Z</time>
      </trkpt>
      <trkpt lat="46.70292" lon="-2.37425">
        <ele>6.3</ele>
        <time>2018-09-20T09:47:43.000Z</time>
      </trkpt>
      <trkpt lat="46.70292" lon="-2.37425">
        <ele>6.4</ele>
        <time>2018-09-20T09:47:44.000Z</time>
      </trkpt>
      <trkpt lat="46.70292" lon="-2.37425">
        <ele>6.4</ele>
        <time>2018-09-20T09:47:45.000Z</time>
      </trkpt>
      <trkpt lat="46.70293" lon="-2.37424">
        <ele>6.4</ele>
        <time>2018-09-20T09:47:46.000Z</time>
      </trkpt>
      <trkpt lat="46.70293" lon="-2.37424">
        <ele>6.4</ele>
        <time>2018-09-20T09:47:47.000Z</time>
      </trkpt>
      <trkpt lat="46.70294" lon="-2.37423">
        <ele>6.5</ele>
        <time>2018-09-20T09:47:48.000Z</time>
      </trkpt>
      <trkpt lat="46.70294" lon="-2.37421">
        <ele>6.6</ele>
        <time>2018-09-20T09:47:49.000Z</time>
      </trkpt>
      <trkpt lat="46.70295" lon="-2.37419">
        <ele>6.7</ele>
        <time>2018-09-20T09:47:50.000Z</time>
      </trkpt>
      <trkpt lat="46.70296" lon="-2.37417">
        <ele>6.9</ele>
        <time>2018-09-20T09:47:51.000Z</time>
      </trkpt>
      <trkpt lat="46.70297" lon="-2.37415">
        <ele>6.9</ele>
        <time>2018-09-20T09:47:52.000Z</time>
      </trkpt>
      <trkpt lat="46.70298" lon="-2.37413">
        <ele>7</ele>
        <time>2018-09-20T09:47:53.000Z</time>
      </trkpt>
      <trkpt lat="46.70298" lon="-2.37411">
        <ele>7.1</ele>
        <time>2018-09-20T09:47:54.000Z</time>
      </trkpt>
      <trkpt lat="46.70298" lon="-2.37409">
        <ele>7.1</ele>
        <time>2018-09-20T09:47:55.000Z</time>
      </trkpt>
      <trkpt lat="46.70298" lon="-2.37407">
        <ele>7.1</ele>
        <time>2018-09-20T09:47:56.000Z</time>
      </trkpt>
      <trkpt lat="46.70298" lon="-2.37406">
        <ele>7.1</ele>
        <time>2018-09-20T09:47:57.000Z</time>
      </trkpt>
      <trkpt lat="46.70298" lon="-2.37404">
        <ele>7.1</ele>
        <time>2018-09-20T09:47:58.000Z</time>
      </trkpt>
      <trkpt lat="46.70298" lon="-2.37402">
        <ele>7.1</ele>
        <time>2018-09-20T09:47:59.000Z</time>
      </trkpt>
      <trkpt lat="46.70298" lon="-2.374">
        <ele>7.1</ele>
        <time>2018-09-20T09:48:00.000Z</time>
      </trkpt>
      <trkpt lat="46.70298" lon="-2.37399">
        <ele>7.1</ele>
        <time>2018-09-20T09:48:01.000Z</time>
      </trkpt>
      <trkpt lat="46.70297" lon="-2.37397">
        <ele>7.1</ele>
        <time>2018-09-20T09:48:02.000Z</time>
      </trkpt>
      <trkpt lat="46.70297" lon="-2.37395">
        <ele>7.1</ele>
        <time>2018-09-20T09:48:03.000Z</time>
      </trkpt>
      <trkpt lat="46.70297" lon="-2.37394">
        <ele>7.1</ele>
        <time>2018-09-20T09:48:04.000Z</time>
      </trkpt>
      <trkpt lat="46.70297" lon="-2.37392">
        <ele>7.1</ele>
        <time>2018-09-20T09:48:05.000Z</time>
      </trkpt>
      <trkpt lat="46.70297" lon="-2.37391">
        <ele>7.1</ele>
        <time>2018-09-20T09:48:06.000Z</time>
      </trkpt>
      <trkpt lat="46.70297" lon="-2.37389">
        <ele>7.2</ele>
        <time>2018-09-20T09:48:07.000Z</time>
      </trkpt>
      <trkpt lat="46.70297" lon="-2.37388">
        <ele>7.2</ele>
        <time>2018-09-20T09:48:08.000Z</time>
      </trkpt>
      <trkpt lat="46.70298" lon="-2.37386">
        <ele>7.2</ele>
        <time>2018-09-20T09:48:09.000Z</time>
      </trkpt>
      <trkpt lat="46.70298" lon="-2.37385">
        <ele>7.2</ele>
        <time>2018-09-20T09:48:10.000Z</time>
      </trkpt>
      <trkpt lat="46.70298" lon="-2.37383">
        <ele>7.3</ele>
        <time>2018-09-20T09:48:11.000Z</time>
      </trkpt>
      <trkpt lat="46.70298" lon="-2.37382">
        <ele>7.3</ele>
        <time>2018-09-20T09:48:12.000Z</time>
      </trkpt>
      <trkpt lat="46.70298" lon="-2.37381">
        <ele>7.3</ele>
        <time>2018-09-20T09:48:13.000Z</time>
      </trkpt>
      <trkpt lat="46.70298" lon="-2.37379">
        <ele>7.3</ele>
        <time>2018-09-20T09:48:14.000Z</time>
      </trkpt>
      <trkpt lat="46.70298" lon="-2.37378">
        <ele>7.3</ele>
        <time>2018-09-20T09:48:15.000Z</time>
      </trkpt>
      <trkpt lat="46.70298" lon="-2.37377">
        <ele>7.3</ele>
        <time>2018-09-20T09:48:16.000Z</time>
      </trkpt>
      <trkpt lat="46.70298" lon="-2.37376">
        <ele>7.3</ele>
        <time>2018-09-20T09:48:17.000Z</time>
      </trkpt>
      <trkpt lat="46.70298" lon="-2.37374">
        <ele>7.3</ele>
        <time>2018-09-20T09:48:18.000Z</time>
      </trkpt>
      <trkpt lat="46.70298" lon="-2.37373">
        <ele>7.3</ele>
        <time>2018-09-20T09:48:19.000Z</time>
      </trkpt>
      <trkpt lat="46.70297" lon="-2.37372">
        <ele>7.3</ele>
        <time>2018-09-20T09:48:20.000Z</time>
      </trkpt>
      <trkpt lat="46.70297" lon="-2.37371">
        <ele>7.3</ele>
        <time>2018-09-20T09:48:21.000Z</time>
      </trkpt>
      <trkpt lat="46.70297" lon="-2.3737">
        <ele>7.2</ele>
        <time>2018-09-20T09:48:22.000Z</time>
      </trkpt>
      <trkpt lat="46.70296" lon="-2.37368">
        <ele>7.2</ele>
        <time>2018-09-20T09:48:23.000Z</time>
      </trkpt>
      <trkpt lat="46.70296" lon="-2.37367">
        <ele>7.2</ele>
        <time>2018-09-20T09:48:24.000Z</time>
      </trkpt>
      <trkpt lat="46.70296" lon="-2.37366">
        <ele>7.2</ele>
        <time>2018-09-20T09:48:25.000Z</time>
      </trkpt>
      <trkpt lat="46.70295" lon="-2.37365">
        <ele>7.1</ele>
        <time>2018-09-20T09:48:26.000Z</time>
      </trkpt>
      <trkpt lat="46.70295" lon="-2.37363">
        <ele>7.1</ele>
        <time>2018-09-20T09:48:27.000Z</time>
      </trkpt>
      <trkpt lat="46.70294" lon="-2.37362">
        <ele>7</ele>
        <time>2018-09-20T09:48:28.000Z</time>
      </trkpt>
      <trkpt lat="46.70293" lon="-2.3736">
        <ele>7</ele>
        <time>2018-09-20T09:48:29.000Z</time>
      </trkpt>
      <trkpt lat="46.70293" lon="-2.37359">
        <ele>7</ele>
        <time>2018-09-20T09:48:30.000Z</time>
      </trkpt>
      <trkpt lat="46.70292" lon="-2.37357">
        <ele>6.9</ele>
        <time>2018-09-20T09:48:31.000Z</time>
      </trkpt>
      <trkpt lat="46.70292" lon="-2.37356">
        <ele>6.9</ele>
        <time>2018-09-20T09:48:32.000Z</time>
      </trkpt>
      <trkpt lat="46.70291" lon="-2.37354">
        <ele>6.8</ele>
        <time>2018-09-20T09:48:33.000Z</time>
      </trkpt>
      <trkpt lat="46.70291" lon="-2.37353">
        <ele>6.8</ele>
        <time>2018-09-20T09:48:34.000Z</time>
      </trkpt>
      <trkpt lat="46.70291" lon="-2.37351">
        <ele>6.8</ele>
        <time>2018-09-20T09:48:35.000Z</time>
      </trkpt>
      <trkpt lat="46.7029" lon="-2.37349">
        <ele>6.8</ele>
        <time>2018-09-20T09:48:36.000Z</time>
      </trkpt>
      <trkpt lat="46.7029" lon="-2.37347">
        <ele>6.8</ele>
        <time>2018-09-20T09:48:37.000Z</time>
      </trkpt>
      <trkpt lat="46.7029" lon="-2.37346">
        <ele>6.8</ele>
        <time>2018-09-20T09:48:38.000Z</time>
      </trkpt>
      <trkpt lat="46.7029" lon="-2.37344">
        <ele>6.8</ele>
        <time>2018-09-20T09:48:39.000Z</time>
      </trkpt>
      <trkpt lat="46.7029" lon="-2.37342">
        <ele>6.8</ele>
        <time>2018-09-20T09:48:40.000Z</time>
      </trkpt>
      <trkpt lat="46.7029" lon="-2.3734">
        <ele>6.8</ele>
        <time>2018-09-20T09:48:41.000Z</time>
      </trkpt>
      <trkpt lat="46.70289" lon="-2.37339">
        <ele>6.8</ele>
        <time>2018-09-20T09:48:42.000Z</time>
      </trkpt>
      <trkpt lat="46.70289" lon="-2.37337">
        <ele>6.7</ele>
        <time>2018-09-20T09:48:43.000Z</time>
      </trkpt>
      <trkpt lat="46.70289" lon="-2.37335">
        <ele>6.7</ele>
        <time>2018-09-20T09:48:44.000Z</time>
      </trkpt>
      <trkpt lat="46.70289" lon="-2.37334">
        <ele>6.7</ele>
        <time>2018-09-20T09:48:45.000Z</time>
      </trkpt>
      <trkpt lat="46.70289" lon="-2.37333">
        <ele>6.7</ele>
        <time>2018-09-20T09:48:46.000Z</time>
      </trkpt>
      <trkpt lat="46.70288" lon="-2.37331">
        <ele>6.7</ele>
        <time>2018-09-20T09:48:47.000Z</time>
      </trkpt>
      <trkpt lat="46.70288" lon="-2.3733">
        <ele>6.7</ele>
        <time>2018-09-20T09:48:48.000Z</time>
      </trkpt>
      <trkpt lat="46.70287" lon="-2.37329">
        <ele>6.7</ele>
        <time>2018-09-20T09:48:49.000Z</time>
      </trkpt>
      <trkpt lat="46.70287" lon="-2.37328">
        <ele>6.7</ele>
        <time>2018-09-20T09:48:50.000Z</time>
      </trkpt>
      <trkpt lat="46.70286" lon="-2.37327">
        <ele>6.6</ele>
        <time>2018-09-20T09:48:51.000Z</time>
      </trkpt>
      <trkpt lat="46.70285" lon="-2.37326">
        <ele>6.6</ele>
        <time>2018-09-20T09:48:52.000Z</time>
      </trkpt>
      <trkpt lat="46.70285" lon="-2.37325">
        <ele>6.6</ele>
        <time>2018-09-20T09:48:53.000Z</time>
      </trkpt>
      <trkpt lat="46.70284" lon="-2.37324">
        <ele>6.6</ele>
        <time>2018-09-20T09:48:54.000Z</time>
      </trkpt>
      <trkpt lat="46.70284" lon="-2.37323">
        <ele>6.6</ele>
        <time>2018-09-20T09:48:55.000Z</time>
      </trkpt>
      <trkpt lat="46.70283" lon="-2.37322">
        <ele>6.5</ele>
        <time>2018-09-20T09:48:56.000Z</time>
      </trkpt>
      <trkpt lat="46.70283" lon="-2.37321">
        <ele>6.5</ele>
        <time>2018-09-20T09:48:57.000Z</time>
      </trkpt>
      <trkpt lat="46.70283" lon="-2.3732">
        <ele>6.6</ele>
        <time>2018-09-20T09:48:58.000Z</time>
      </trkpt>
      <trkpt lat="46.70283" lon="-2.37319">
        <ele>6.6</ele>
        <time>2018-09-20T09:48:59.000Z</time>
      </trkpt>
      <trkpt lat="46.70283" lon="-2.37318">
        <ele>6.6</ele>
        <time>2018-09-20T09:49:00.000Z</time>
      </trkpt>
      <trkpt lat="46.70282" lon="-2.37317">
        <ele>6.6</ele>
        <time>2018-09-20T09:49:01.000Z</time>
      </trkpt>
      <trkpt lat="46.70282" lon="-2.37315">
        <ele>6.7</ele>
        <time>2018-09-20T09:49:02.000Z</time>
      </trkpt>
      <trkpt lat="46.70282" lon="-2.37314">
        <ele>6.7</ele>
        <time>2018-09-20T09:49:03.000Z</time>
      </trkpt>
      <trkpt lat="46.70282" lon="-2.37312">
        <ele>6.8</ele>
        <time>2018-09-20T09:49:04.000Z</time>
      </trkpt>
      <trkpt lat="46.70282" lon="-2.3731">
        <ele>6.8</ele>
        <time>2018-09-20T09:49:05.000Z</time>
      </trkpt>
      <trkpt lat="46.70282" lon="-2.37308">
        <ele>6.9</ele>
        <time>2018-09-20T09:49:06.000Z</time>
      </trkpt>
      <trkpt lat="46.70282" lon="-2.37307">
        <ele>6.9</ele>
        <time>2018-09-20T09:49:07.000Z</time>
      </trkpt>
      <trkpt lat="46.70282" lon="-2.37306">
        <ele>7</ele>
        <time>2018-09-20T09:49:08.000Z</time>
      </trkpt>
      <trkpt lat="46.70282" lon="-2.37305">
        <ele>7</ele>
        <time>2018-09-20T09:49:09.000Z</time>
      </trkpt>
      <trkpt lat="46.70282" lon="-2.37304">
        <ele>7</ele>
        <time>2018-09-20T09:49:10.000Z</time>
      </trkpt>
      <trkpt lat="46.70282" lon="-2.37303">
        <ele>7</ele>
        <time>2018-09-20T09:49:11.000Z</time>
      </trkpt>
      <trkpt lat="46.70282" lon="-2.37303">
        <ele>7</ele>
        <time>2018-09-20T09:49:12.000Z</time>
      </trkpt>
      <trkpt lat="46.70282" lon="-2.37302">
        <ele>7</ele>
        <time>2018-09-20T09:49:13.000Z</time>
      </trkpt>
      <trkpt lat="46.70282" lon="-2.37302">
        <ele>7</ele>
        <time>2018-09-20T09:49:14.000Z</time>
      </trkpt>
      <trkpt lat="46.70282" lon="-2.37301">
        <ele>7</ele>
        <time>2018-09-20T09:49:15.000Z</time>
      </trkpt>
      <trkpt lat="46.70281" lon="-2.373">
        <ele>7.1</ele>
        <time>2018-09-20T09:49:16.000Z</time>
      </trkpt>
      <trkpt lat="46.70281" lon="-2.37299">
        <ele>7.1</ele>
        <time>2018-09-20T09:49:17.000Z</time>
      </trkpt>
      <trkpt lat="46.70281" lon="-2.37298">
        <ele>7.1</ele>
        <time>2018-09-20T09:49:18.000Z</time>
      </trkpt>
      <trkpt lat="46.70281" lon="-2.37297">
        <ele>7.2</ele>
        <time>2018-09-20T09:49:19.000Z</time>
      </trkpt>
      <trkpt lat="46.70281" lon="-2.37296">
        <ele>7.2</ele>
        <time>2018-09-20T09:49:20.000Z</time>
      </trkpt>
      <trkpt lat="46.70281" lon="-2.37294">
        <ele>7.2</ele>
        <time>2018-09-20T09:49:21.000Z</time>
      </trkpt>
      <trkpt lat="46.70281" lon="-2.37293">
        <ele>7.2</ele>
        <time>2018-09-20T09:49:22.000Z</time>
      </trkpt>
      <trkpt lat="46.70281" lon="-2.37291">
        <ele>7.3</ele>
        <time>2018-09-20T09:49:23.000Z</time>
      </trkpt>
      <trkpt lat="46.7028" lon="-2.3729">
        <ele>7.3</ele>
        <time>2018-09-20T09:49:24.000Z</time>
      </trkpt>
      <trkpt lat="46.7028" lon="-2.37288">
        <ele>7.3</ele>
        <time>2018-09-20T09:49:25.000Z</time>
      </trkpt>
      <trkpt lat="46.7028" lon="-2.37287">
        <ele>7.3</ele>
        <time>2018-09-20T09:49:26.000Z</time>
      </trkpt>
      <trkpt lat="46.70279" lon="-2.37285">
        <ele>7.4</ele>
        <time>2018-09-20T09:49:27.000Z</time>
      </trkpt>
      <trkpt lat="46.70279" lon="-2.37284">
        <ele>7.4</ele>
        <time>2018-09-20T09:49:28.000Z</time>
      </trkpt>
      <trkpt lat="46.70279" lon="-2.37282">
        <ele>7.4</ele>
        <time>2018-09-20T09:49:29.000Z</time>
      </trkpt>
      <trkpt lat="46.70278" lon="-2.37281">
        <ele>7.4</ele>
        <time>2018-09-20T09:49:30.000Z</time>
      </trkpt>
      <trkpt lat="46.70278" lon="-2.37279">
        <ele>7.4</ele>
        <time>2018-09-20T09:49:31.000Z</time>
      </trkpt>
      <trkpt lat="46.70278" lon="-2.37278">
        <ele>7.4</ele>
        <time>2018-09-20T09:49:32.000Z</time>
      </trkpt>
      <trkpt lat="46.70277" lon="-2.37277">
        <ele>7.4</ele>
        <time>2018-09-20T09:49:33.000Z</time>
      </trkpt>
      <trkpt lat="46.70277" lon="-2.37276">
        <ele>7.4</ele>
        <time>2018-09-20T09:49:34.000Z</time>
      </trkpt>
      <trkpt lat="46.70276" lon="-2.37275">
        <ele>7.4</ele>
        <time>2018-09-20T09:49:35.000Z</time>
      </trkpt>
      <trkpt lat="46.70276" lon="-2.37273">
        <ele>7.4</ele>
        <time>2018-09-20T09:49:36.000Z</time>
      </trkpt>
      <trkpt lat="46.70275" lon="-2.37272">
        <ele>7.4</ele>
        <time>2018-09-20T09:49:37.000Z</time>
      </trkpt>
      <trkpt lat="46.70275" lon="-2.3727">
        <ele>7.4</ele>
        <time>2018-09-20T09:49:38.000Z</time>
      </trkpt>
      <trkpt lat="46.70274" lon="-2.37268">
        <ele>7.4</ele>
        <time>2018-09-20T09:49:39.000Z</time>
      </trkpt>
      <trkpt lat="46.70273" lon="-2.37267">
        <ele>7.4</ele>
        <time>2018-09-20T09:49:40.000Z</time>
      </trkpt>
      <trkpt lat="46.70273" lon="-2.37265">
        <ele>7.4</ele>
        <time>2018-09-20T09:49:41.000Z</time>
      </trkpt>
      <trkpt lat="46.70272" lon="-2.37263">
        <ele>7.4</ele>
        <time>2018-09-20T09:49:42.000Z</time>
      </trkpt>
      <trkpt lat="46.70272" lon="-2.37261">
        <ele>7.5</ele>
        <time>2018-09-20T09:49:43.000Z</time>
      </trkpt>
      <trkpt lat="46.70272" lon="-2.3726">
        <ele>7.5</ele>
        <time>2018-09-20T09:49:44.000Z</time>
      </trkpt>
      <trkpt lat="46.70272" lon="-2.37258">
        <ele>7.6</ele>
        <time>2018-09-20T09:49:45.000Z</time>
      </trkpt>
      <trkpt lat="46.70272" lon="-2.37257">
        <ele>7.6</ele>
        <time>2018-09-20T09:49:46.000Z</time>
      </trkpt>
      <trkpt lat="46.70272" lon="-2.37255">
        <ele>7.7</ele>
        <time>2018-09-20T09:49:47.000Z</time>
      </trkpt>
      <trkpt lat="46.70272" lon="-2.37254">
        <ele>7.7</ele>
        <time>2018-09-20T09:49:48.000Z</time>
      </trkpt>
      <trkpt lat="46.70272" lon="-2.37252">
        <ele>7.8</ele>
        <time>2018-09-20T09:49:49.000Z</time>
      </trkpt>
      <trkpt lat="46.70272" lon="-2.37251">
        <ele>7.8</ele>
        <time>2018-09-20T09:49:50.000Z</time>
      </trkpt>
      <trkpt lat="46.70271" lon="-2.37249">
        <ele>7.8</ele>
        <time>2018-09-20T09:49:51.000Z</time>
      </trkpt>
      <trkpt lat="46.70271" lon="-2.37248">
        <ele>7.8</ele>
        <time>2018-09-20T09:49:52.000Z</time>
      </trkpt>
      <trkpt lat="46.7027" lon="-2.37247">
        <ele>7.8</ele>
        <time>2018-09-20T09:49:53.000Z</time>
      </trkpt>
      <trkpt lat="46.7027" lon="-2.37246">
        <ele>7.7</ele>
        <time>2018-09-20T09:49:54.000Z</time>
      </trkpt>
      <trkpt lat="46.70269" lon="-2.37245">
        <ele>7.7</ele>
        <time>2018-09-20T09:49:55.000Z</time>
      </trkpt>
      <trkpt lat="46.70268" lon="-2.37244">
        <ele>7.6</ele>
        <time>2018-09-20T09:49:56.000Z</time>
      </trkpt>
      <trkpt lat="46.70267" lon="-2.37242">
        <ele>7.6</ele>
        <time>2018-09-20T09:49:57.000Z</time>
      </trkpt>
      <trkpt lat="46.70267" lon="-2.37241">
        <ele>7.6</ele>
        <time>2018-09-20T09:49:58.000Z</time>
      </trkpt>
      <trkpt lat="46.70266" lon="-2.3724">
        <ele>7.5</ele>
        <time>2018-09-20T09:49:59.000Z</time>
      </trkpt>
      <trkpt lat="46.70266" lon="-2.37239">
        <ele>7.5</ele>
        <time>2018-09-20T09:50:00.000Z</time>
      </trkpt>
      <trkpt lat="46.70265" lon="-2.37237">
        <ele>7.5</ele>
        <time>2018-09-20T09:50:01.000Z</time>
      </trkpt>
      <trkpt lat="46.70264" lon="-2.37236">
        <ele>7.5</ele>
        <time>2018-09-20T09:50:02.000Z</time>
      </trkpt>
      <trkpt lat="46.70264" lon="-2.37235">
        <ele>7.4</ele>
        <time>2018-09-20T09:50:03.000Z</time>
      </trkpt>
      <trkpt lat="46.70263" lon="-2.37234">
        <ele>7.4</ele>
        <time>2018-09-20T09:50:04.000Z</time>
      </trkpt>
      <trkpt lat="46.70262" lon="-2.37233">
        <ele>7.4</ele>
        <time>2018-09-20T09:50:05.000Z</time>
      </trkpt>
      <trkpt lat="46.70261" lon="-2.37232">
        <ele>7.3</ele>
        <time>2018-09-20T09:50:06.000Z</time>
      </trkpt>
      <trkpt lat="46.7026" lon="-2.37231">
        <ele>7.3</ele>
        <time>2018-09-20T09:50:07.000Z</time>
      </trkpt>
      <trkpt lat="46.70259" lon="-2.3723">
        <ele>7.2</ele>
        <time>2018-09-20T09:50:08.000Z</time>
      </trkpt>
      <trkpt lat="46.70259" lon="-2.37229">
        <ele>7.2</ele>
        <time>2018-09-20T09:50:09.000Z</time>
      </trkpt>
      <trkpt lat="46.70258" lon="-2.37228">
        <ele>7.1</ele>
        <time>2018-09-20T09:50:10.000Z</time>
      </trkpt>
      <trkpt lat="46.70257" lon="-2.37227">
        <ele>7.1</ele>
        <time>2018-09-20T09:50:11.000Z</time>
      </trkpt>
      <trkpt lat="46.70256" lon="-2.37226">
        <ele>7</ele>
        <time>2018-09-20T09:50:12.000Z</time>
      </trkpt>
      <trkpt lat="46.70255" lon="-2.37225">
        <ele>7</ele>
        <time>2018-09-20T09:50:13.000Z</time>
      </trkpt>
      <trkpt lat="46.70254" lon="-2.37224">
        <ele>7</ele>
        <time>2018-09-20T09:50:14.000Z</time>
      </trkpt>
      <trkpt lat="46.70254" lon="-2.37223">
        <ele>6.9</ele>
        <time>2018-09-20T09:50:15.000Z</time>
      </trkpt>
      <trkpt lat="46.70253" lon="-2.37222">
        <ele>6.9</ele>
        <time>2018-09-20T09:50:16.000Z</time>
      </trkpt>
      <trkpt lat="46.70252" lon="-2.37222">
        <ele>6.8</ele>
        <time>2018-09-20T09:50:17.000Z</time>
      </trkpt>
      <trkpt lat="46.70251" lon="-2.37221">
        <ele>6.8</ele>
        <time>2018-09-20T09:50:18.000Z</time>
      </trkpt>
      <trkpt lat="46.7025" lon="-2.3722">
        <ele>6.7</ele>
        <time>2018-09-20T09:50:19.000Z</time>
      </trkpt>
      <trkpt lat="46.70249" lon="-2.37219">
        <ele>6.6</ele>
        <time>2018-09-20T09:50:20.000Z</time>
      </trkpt>
      <trkpt lat="46.70248" lon="-2.37219">
        <ele>6.6</ele>
        <time>2018-09-20T09:50:21.000Z</time>
      </trkpt>
      <trkpt lat="46.70247" lon="-2.37218">
        <ele>6.5</ele>
        <time>2018-09-20T09:50:22.000Z</time>
      </trkpt>
      <trkpt lat="46.70246" lon="-2.37217">
        <ele>6.5</ele>
        <time>2018-09-20T09:50:23.000Z</time>
      </trkpt>
      <trkpt lat="46.70245" lon="-2.37217">
        <ele>6.4</ele>
        <time>2018-09-20T09:50:24.000Z</time>
      </trkpt>
      <trkpt lat="46.70245" lon="-2.37216">
        <ele>6.4</ele>
        <time>2018-09-20T09:50:25.000Z</time>
      </trkpt>
      <trkpt lat="46.70244" lon="-2.37215">
        <ele>6.3</ele>
        <time>2018-09-20T09:50:26.000Z</time>
      </trkpt>
      <trkpt lat="46.70243" lon="-2.37215">
        <ele>6.3</ele>
        <time>2018-09-20T09:50:27.000Z</time>
      </trkpt>
      <trkpt lat="46.70243" lon="-2.37214">
        <ele>6.2</ele>
        <time>2018-09-20T09:50:28.000Z</time>
      </trkpt>
      <trkpt lat="46.70242" lon="-2.37213">
        <ele>6.2</ele>
        <time>2018-09-20T09:50:29.000Z</time>
      </trkpt>
      <trkpt lat="46.70242" lon="-2.37212">
        <ele>6.2</ele>
        <time>2018-09-20T09:50:30.000Z</time>
      </trkpt>
      <trkpt lat="46.70242" lon="-2.37211">
        <ele>6.2</ele>
        <time>2018-09-20T09:50:31.000Z</time>
      </trkpt>
      <trkpt lat="46.70241" lon="-2.3721">
        <ele>6.2</ele>
        <time>2018-09-20T09:50:32.000Z</time>
      </trkpt>
      <trkpt lat="46.70241" lon="-2.37208">
        <ele>6.3</ele>
        <time>2018-09-20T09:50:33.000Z</time>
      </trkpt>
      <trkpt lat="46.70241" lon="-2.37207">
        <ele>6.3</ele>
        <time>2018-09-20T09:50:34.000Z</time>
      </trkpt>
      <trkpt lat="46.70241" lon="-2.37205">
        <ele>6.3</ele>
        <time>2018-09-20T09:50:35.000Z</time>
      </trkpt>
      <trkpt lat="46.70241" lon="-2.37204">
        <ele>6.4</ele>
        <time>2018-09-20T09:50:36.000Z</time>
      </trkpt>
      <trkpt lat="46.70242" lon="-2.37202">
        <ele>6.4</ele>
        <time>2018-09-20T09:50:37.000Z</time>
      </trkpt>
      <trkpt lat="46.70242" lon="-2.37201">
        <ele>6.5</ele>
        <time>2018-09-20T09:50:38.000Z</time>
      </trkpt>
      <trkpt lat="46.70242" lon="-2.372">
        <ele>6.5</ele>
        <time>2018-09-20T09:50:39.000Z</time>
      </trkpt>
      <trkpt lat="46.70242" lon="-2.37198">
        <ele>6.6</ele>
        <time>2018-09-20T09:50:40.000Z</time>
      </trkpt>
      <trkpt lat="46.70242" lon="-2.37197">
        <ele>6.6</ele>
        <time>2018-09-20T09:50:41.000Z</time>
      </trkpt>
      <trkpt lat="46.70242" lon="-2.37195">
        <ele>6.7</ele>
        <time>2018-09-20T09:50:42.000Z</time>
      </trkpt>
      <trkpt lat="46.70243" lon="-2.37194">
        <ele>6.7</ele>
        <time>2018-09-20T09:50:43.000Z</time>
      </trkpt>
      <trkpt lat="46.70243" lon="-2.37192">
        <ele>6.8</ele>
        <time>2018-09-20T09:50:44.000Z</time>
      </trkpt>
      <trkpt lat="46.70243" lon="-2.37191">
        <ele>6.8</ele>
        <time>2018-09-20T09:50:45.000Z</time>
      </trkpt>
      <trkpt lat="46.70243" lon="-2.37189">
        <ele>6.9</ele>
        <time>2018-09-20T09:50:46.000Z</time>
      </trkpt>
      <trkpt lat="46.70243" lon="-2.37188">
        <ele>6.9</ele>
        <time>2018-09-20T09:50:47.000Z</time>
      </trkpt>
      <trkpt lat="46.70243" lon="-2.37186">
        <ele>7</ele>
        <time>2018-09-20T09:50:48.000Z</time>
      </trkpt>
      <trkpt lat="46.70243" lon="-2.37185">
        <ele>7</ele>
        <time>2018-09-20T09:50:49.000Z</time>
      </trkpt>
      <trkpt lat="46.70243" lon="-2.37183">
        <ele>7</ele>
        <time>2018-09-20T09:50:50.000Z</time>
      </trkpt>
      <trkpt lat="46.70243" lon="-2.37181">
        <ele>7.1</ele>
        <time>2018-09-20T09:50:51.000Z</time>
      </trkpt>
      <trkpt lat="46.70243" lon="-2.3718">
        <ele>7.1</ele>
        <time>2018-09-20T09:50:52.000Z</time>
      </trkpt>
      <trkpt lat="46.70243" lon="-2.37178">
        <ele>7.2</ele>
        <time>2018-09-20T09:50:53.000Z</time>
      </trkpt>
      <trkpt lat="46.70243" lon="-2.37176">
        <ele>7.2</ele>
        <time>2018-09-20T09:50:54.000Z</time>
      </trkpt>
      <trkpt lat="46.70243" lon="-2.37175">
        <ele>7.2</ele>
        <time>2018-09-20T09:50:55.000Z</time>
      </trkpt>
      <trkpt lat="46.70243" lon="-2.37173">
        <ele>7.2</ele>
        <time>2018-09-20T09:50:56.000Z</time>
      </trkpt>
      <trkpt lat="46.70243" lon="-2.37171">
        <ele>7.3</ele>
        <time>2018-09-20T09:50:57.000Z</time>
      </trkpt>
      <trkpt lat="46.70242" lon="-2.37169">
        <ele>7.3</ele>
        <time>2018-09-20T09:50:58.000Z</time>
      </trkpt>
      <trkpt lat="46.70242" lon="-2.37168">
        <ele>7.3</ele>
        <time>2018-09-20T09:50:59.000Z</time>
      </trkpt>
      <trkpt lat="46.70242" lon="-2.37166">
        <ele>7.3</ele>
        <time>2018-09-20T09:51:00.000Z</time>
      </trkpt>
      <trkpt lat="46.70242" lon="-2.37164">
        <ele>7.4</ele>
        <time>2018-09-20T09:51:01.000Z</time>
      </trkpt>
      <trkpt lat="46.70241" lon="-2.37162">
        <ele>7.4</ele>
        <time>2018-09-20T09:51:02.000Z</time>
      </trkpt>
      <trkpt lat="46.70241" lon="-2.37161">
        <ele>7.4</ele>
        <time>2018-09-20T09:51:03.000Z</time>
      </trkpt>
      <trkpt lat="46.70241" lon="-2.37159">
        <ele>7.5</ele>
        <time>2018-09-20T09:51:04.000Z</time>
      </trkpt>
      <trkpt lat="46.7024" lon="-2.37157">
        <ele>7.5</ele>
        <time>2018-09-20T09:51:05.000Z</time>
      </trkpt>
      <trkpt lat="46.7024" lon="-2.37156">
        <ele>7.5</ele>
        <time>2018-09-20T09:51:06.000Z</time>
      </trkpt>
      <trkpt lat="46.7024" lon="-2.37154">
        <ele>7.5</ele>
        <time>2018-09-20T09:51:07.000Z</time>
      </trkpt>
      <trkpt lat="46.70239" lon="-2.37152">
        <ele>7.6</ele>
        <time>2018-09-20T09:51:08.000Z</time>
      </trkpt>
      <trkpt lat="46.70239" lon="-2.3715">
        <ele>7.6</ele>
        <time>2018-09-20T09:51:09.000Z</time>
      </trkpt>
      <trkpt lat="46.70238" lon="-2.37149">
        <ele>7.6</ele>
        <time>2018-09-20T09:51:10.000Z</time>
      </trkpt>
      <trkpt lat="46.70238" lon="-2.37147">
        <ele>7.6</ele>
        <time>2018-09-20T09:51:11.000Z</time>
      </trkpt>
      <trkpt lat="46.70237" lon="-2.37146">
        <ele>7.6</ele>
        <time>2018-09-20T09:51:12.000Z</time>
      </trkpt>
      <trkpt lat="46.70237" lon="-2.37144">
        <ele>7.6</ele>
        <time>2018-09-20T09:51:13.000Z</time>
      </trkpt>
      <trkpt lat="46.70236" lon="-2.37143">
        <ele>7.6</ele>
        <time>2018-09-20T09:51:14.000Z</time>
      </trkpt>
      <trkpt lat="46.70235" lon="-2.37141">
        <ele>7.6</ele>
        <time>2018-09-20T09:51:15.000Z</time>
      </trkpt>
      <trkpt lat="46.70235" lon="-2.3714">
        <ele>7.6</ele>
        <time>2018-09-20T09:51:16.000Z</time>
      </trkpt>
      <trkpt lat="46.70234" lon="-2.37138">
        <ele>7.6</ele>
        <time>2018-09-20T09:51:17.000Z</time>
      </trkpt>
      <trkpt lat="46.70234" lon="-2.37137">
        <ele>7.6</ele>
        <time>2018-09-20T09:51:18.000Z</time>
      </trkpt>
      <trkpt lat="46.70233" lon="-2.37135">
        <ele>7.5</ele>
        <time>2018-09-20T09:51:19.000Z</time>
      </trkpt>
      <trkpt lat="46.70232" lon="-2.37134">
        <ele>7.5</ele>
        <time>2018-09-20T09:51:20.000Z</time>
      </trkpt>
      <trkpt lat="46.70232" lon="-2.37133">
        <ele>7.5</ele>
        <time>2018-09-20T09:51:21.000Z</time>
      </trkpt>
      <trkpt lat="46.70231" lon="-2.37132">
        <ele>7.5</ele>
        <time>2018-09-20T09:51:22.000Z</time>
      </trkpt>
      <trkpt lat="46.7023" lon="-2.3713">
        <ele>7.5</ele>
        <time>2018-09-20T09:51:23.000Z</time>
      </trkpt>
      <trkpt lat="46.7023" lon="-2.37129">
        <ele>7.4</ele>
        <time>2018-09-20T09:51:24.000Z</time>
      </trkpt>
      <trkpt lat="46.70229" lon="-2.37128">
        <ele>7.4</ele>
        <time>2018-09-20T09:51:25.000Z</time>
      </trkpt>
      <trkpt lat="46.70229" lon="-2.37126">
        <ele>7.4</ele>
        <time>2018-09-20T09:51:26.000Z</time>
      </trkpt>
      <trkpt lat="46.70228" lon="-2.37125">
        <ele>7.4</ele>
        <time>2018-09-20T09:51:27.000Z</time>
      </trkpt>
      <trkpt lat="46.70228" lon="-2.37123">
        <ele>7.4</ele>
        <time>2018-09-20T09:51:28.000Z</time>
      </trkpt>
      <trkpt lat="46.70227" lon="-2.37122">
        <ele>7.4</ele>
        <time>2018-09-20T09:51:29.000Z</time>
      </trkpt>
      <trkpt lat="46.70227" lon="-2.3712">
        <ele>7.5</ele>
        <time>2018-09-20T09:51:30.000Z</time>
      </trkpt>
      <trkpt lat="46.70227" lon="-2.37118">
        <ele>7.5</ele>
        <time>2018-09-20T09:51:31.000Z</time>
      </trkpt>
      <trkpt lat="46.70227" lon="-2.37117">
        <ele>7.5</ele>
        <time>2018-09-20T09:51:32.000Z</time>
      </trkpt>
      <trkpt lat="46.70227" lon="-2.37115">
        <ele>7.6</ele>
        <time>2018-09-20T09:51:33.000Z</time>
      </trkpt>
      <trkpt lat="46.70227" lon="-2.37113">
        <ele>7.6</ele>
        <time>2018-09-20T09:51:34.000Z</time>
      </trkpt>
      <trkpt lat="46.70227" lon="-2.37111">
        <ele>7.7</ele>
        <time>2018-09-20T09:51:35.000Z</time>
      </trkpt>
      <trkpt lat="46.70227" lon="-2.3711">
        <ele>7.8</ele>
        <time>2018-09-20T09:51:36.000Z</time>
      </trkpt>
      <trkpt lat="46.70227" lon="-2.37108">
        <ele>7.8</ele>
        <time>2018-09-20T09:51:37.000Z</time>
      </trkpt>
      <trkpt lat="46.70227" lon="-2.37106">
        <ele>7.9</ele>
        <time>2018-09-20T09:51:38.000Z</time>
      </trkpt>
      <trkpt lat="46.70228" lon="-2.37105">
        <ele>7.9</ele>
        <time>2018-09-20T09:51:39.000Z</time>
      </trkpt>
      <trkpt lat="46.70228" lon="-2.37103">
        <ele>8</ele>
        <time>2018-09-20T09:51:40.000Z</time>
      </trkpt>
      <trkpt lat="46.70228" lon="-2.37101">
        <ele>8</ele>
        <time>2018-09-20T09:51:41.000Z</time>
      </trkpt>
      <trkpt lat="46.70227" lon="-2.371">
        <ele>8.1</ele>
        <time>2018-09-20T09:51:42.000Z</time>
      </trkpt>
      <trkpt lat="46.70227" lon="-2.37098">
        <ele>8.1</ele>
        <time>2018-09-20T09:51:43.000Z</time>
      </trkpt>
      <trkpt lat="46.70227" lon="-2.37097">
        <ele>8.1</ele>
        <time>2018-09-20T09:51:44.000Z</time>
      </trkpt>
      <trkpt lat="46.70227" lon="-2.37095">
        <ele>8.2</ele>
        <time>2018-09-20T09:51:45.000Z</time>
      </trkpt>
      <trkpt lat="46.70227" lon="-2.37094">
        <ele>8.2</ele>
        <time>2018-09-20T09:51:46.000Z</time>
      </trkpt>
      <trkpt lat="46.70226" lon="-2.37092">
        <ele>8.2</ele>
        <time>2018-09-20T09:51:47.000Z</time>
      </trkpt>
      <trkpt lat="46.70226" lon="-2.37091">
        <ele>8.2</ele>
        <time>2018-09-20T09:51:48.000Z</time>
      </trkpt>
      <trkpt lat="46.70226" lon="-2.37089">
        <ele>8.2</ele>
        <time>2018-09-20T09:51:49.000Z</time>
      </trkpt>
      <trkpt lat="46.70225" lon="-2.37088">
        <ele>8.2</ele>
        <time>2018-09-20T09:51:50.000Z</time>
      </trkpt>
      <trkpt lat="46.70225" lon="-2.37086">
        <ele>8.2</ele>
        <time>2018-09-20T09:51:51.000Z</time>
      </trkpt>
      <trkpt lat="46.70224" lon="-2.37085">
        <ele>8.2</ele>
        <time>2018-09-20T09:51:52.000Z</time>
      </trkpt>
      <trkpt lat="46.70224" lon="-2.37083">
        <ele>8.2</ele>
        <time>2018-09-20T09:51:53.000Z</time>
      </trkpt>
      <trkpt lat="46.70223" lon="-2.37082">
        <ele>8.2</ele>
        <time>2018-09-20T09:51:54.000Z</time>
      </trkpt>
      <trkpt lat="46.70223" lon="-2.3708">
        <ele>8.2</ele>
        <time>2018-09-20T09:51:55.000Z</time>
      </trkpt>
      <trkpt lat="46.70222" lon="-2.37079">
        <ele>8.2</ele>
        <time>2018-09-20T09:51:56.000Z</time>
      </trkpt>
      <trkpt lat="46.70222" lon="-2.37077">
        <ele>8.1</ele>
        <time>2018-09-20T09:51:57.000Z</time>
      </trkpt>
      <trkpt lat="46.70221" lon="-2.37076">
        <ele>8.1</ele>
        <time>2018-09-20T09:51:58.000Z</time>
      </trkpt>
      <trkpt lat="46.70221" lon="-2.37074">
        <ele>8.1</ele>
        <time>2018-09-20T09:51:59.000Z</time>
      </trkpt>
      <trkpt lat="46.70221" lon="-2.37073">
        <ele>8.1</ele>
        <time>2018-09-20T09:52:00.000Z</time>
      </trkpt>
      <trkpt lat="46.7022" lon="-2.37071">
        <ele>8.1</ele>
        <time>2018-09-20T09:52:01.000Z</time>
      </trkpt>
      <trkpt lat="46.7022" lon="-2.3707">
        <ele>8.1</ele>
        <time>2018-09-20T09:52:02.000Z</time>
      </trkpt>
      <trkpt lat="46.70219" lon="-2.37068">
        <ele>8.2</ele>
        <time>2018-09-20T09:52:03.000Z</time>
      </trkpt>
      <trkpt lat="46.70219" lon="-2.37067">
        <ele>8.2</ele>
        <time>2018-09-20T09:52:04.000Z</time>
      </trkpt>
      <trkpt lat="46.70219" lon="-2.37065">
        <ele>8.2</ele>
        <time>2018-09-20T09:52:05.000Z</time>
      </trkpt>
      <trkpt lat="46.70219" lon="-2.37064">
        <ele>8.2</ele>
        <time>2018-09-20T09:52:06.000Z</time>
      </trkpt>
      <trkpt lat="46.70218" lon="-2.37062">
        <ele>8.2</ele>
        <time>2018-09-20T09:52:07.000Z</time>
      </trkpt>
      <trkpt lat="46.70218" lon="-2.37061">
        <ele>8.2</ele>
        <time>2018-09-20T09:52:08.000Z</time>
      </trkpt>
      <trkpt lat="46.70218" lon="-2.37059">
        <ele>8.3</ele>
        <time>2018-09-20T09:52:09.000Z</time>
      </trkpt>
      <trkpt lat="46.70218" lon="-2.37058">
        <ele>8.3</ele>
        <time>2018-09-20T09:52:10.000Z</time>
      </trkpt>
      <trkpt lat="46.70217" lon="-2.37056">
        <ele>8.3</ele>
        <time>2018-09-20T09:52:11.000Z</time>
      </trkpt>
      <trkpt lat="46.70217" lon="-2.37055">
        <ele>8.3</ele>
        <time>2018-09-20T09:52:12.000Z</time>
      </trkpt>
      <trkpt lat="46.70217" lon="-2.37054">
        <ele>8.3</ele>
        <time>2018-09-20T09:52:13.000Z</time>
      </trkpt>
      <trkpt lat="46.70217" lon="-2.37053">
        <ele>8.2</ele>
        <time>2018-09-20T09:52:14.000Z</time>
      </trkpt>
      <trkpt lat="46.70216" lon="-2.37052">
        <ele>8.2</ele>
        <time>2018-09-20T09:52:15.000Z</time>
      </trkpt>
      <trkpt lat="46.70216" lon="-2.37051">
        <ele>8.2</ele>
        <time>2018-09-20T09:52:16.000Z</time>
      </trkpt>
      <trkpt lat="46.70215" lon="-2.3705">
        <ele>8.2</ele>
        <time>2018-09-20T09:52:17.000Z</time>
      </trkpt>
      <trkpt lat="46.70215" lon="-2.37049">
        <ele>8.2</ele>
        <time>2018-09-20T09:52:18.000Z</time>
      </trkpt>
      <trkpt lat="46.70215" lon="-2.37048">
        <ele>8.2</ele>
        <time>2018-09-20T09:52:19.000Z</time>
      </trkpt>
      <trkpt lat="46.70214" lon="-2.37047">
        <ele>8.2</ele>
        <time>2018-09-20T09:52:20.000Z</time>
      </trkpt>
      <trkpt lat="46.70214" lon="-2.37045">
        <ele>8.1</ele>
        <time>2018-09-20T09:52:21.000Z</time>
      </trkpt>
      <trkpt lat="46.70214" lon="-2.37044">
        <ele>8.2</ele>
        <time>2018-09-20T09:52:22.000Z</time>
      </trkpt>
      <trkpt lat="46.70214" lon="-2.37043">
        <ele>8.2</ele>
        <time>2018-09-20T09:52:23.000Z</time>
      </trkpt>
      <trkpt lat="46.70214" lon="-2.37041">
        <ele>8.2</ele>
        <time>2018-09-20T09:52:24.000Z</time>
      </trkpt>
      <trkpt lat="46.70214" lon="-2.3704">
        <ele>8.3</ele>
        <time>2018-09-20T09:52:25.000Z</time>
      </trkpt>
      <trkpt lat="46.70215" lon="-2.37039">
        <ele>8.4</ele>
        <time>2018-09-20T09:52:26.000Z</time>
      </trkpt>
      <trkpt lat="46.70215" lon="-2.37038">
        <ele>8.5</ele>
        <time>2018-09-20T09:52:27.000Z</time>
      </trkpt>
      <trkpt lat="46.70215" lon="-2.37036">
        <ele>8.6</ele>
        <time>2018-09-20T09:52:28.000Z</time>
      </trkpt>
      <trkpt lat="46.70216" lon="-2.37035">
        <ele>8.6</ele>
        <time>2018-09-20T09:52:29.000Z</time>
      </trkpt>
      <trkpt lat="46.70216" lon="-2.37033">
        <ele>8.7</ele>
        <time>2018-09-20T09:52:30.000Z</time>
      </trkpt>
      <trkpt lat="46.70216" lon="-2.37032">
        <ele>8.7</ele>
        <time>2018-09-20T09:52:31.000Z</time>
      </trkpt>
      <trkpt lat="46.70216" lon="-2.37031">
        <ele>8.8</ele>
        <time>2018-09-20T09:52:32.000Z</time>
      </trkpt>
      <trkpt lat="46.70216" lon="-2.37029">
        <ele>8.8</ele>
        <time>2018-09-20T09:52:33.000Z</time>
      </trkpt>
      <trkpt lat="46.70216" lon="-2.37028">
        <ele>8.8</ele>
        <time>2018-09-20T09:52:34.000Z</time>
      </trkpt>
      <trkpt lat="46.70215" lon="-2.37027">
        <ele>8.9</ele>
        <time>2018-09-20T09:52:35.000Z</time>
      </trkpt>
      <trkpt lat="46.70215" lon="-2.37025">
        <ele>8.9</ele>
        <time>2018-09-20T09:52:36.000Z</time>
      </trkpt>
      <trkpt lat="46.70215" lon="-2.37024">
        <ele>8.9</ele>
        <time>2018-09-20T09:52:37.000Z</time>
      </trkpt>
      <trkpt lat="46.70215" lon="-2.37023">
        <ele>8.9</ele>
        <time>2018-09-20T09:52:38.000Z</time>
      </trkpt>
      <trkpt lat="46.70215" lon="-2.37021">
        <ele>8.9</ele>
        <time>2018-09-20T09:52:39.000Z</time>
      </trkpt>
      <trkpt lat="46.70214" lon="-2.3702">
        <ele>8.9</ele>
        <time>2018-09-20T09:52:40.000Z</time>
      </trkpt>
      <trkpt lat="46.70214" lon="-2.37019">
        <ele>8.9</ele>
        <time>2018-09-20T09:52:41.000Z</time>
      </trkpt>
      <trkpt lat="46.70214" lon="-2.37018">
        <ele>8.9</ele>
        <time>2018-09-20T09:52:42.000Z</time>
      </trkpt>
      <trkpt lat="46.70213" lon="-2.37016">
        <ele>8.9</ele>
        <time>2018-09-20T09:52:43.000Z</time>
      </trkpt>
      <trkpt lat="46.70213" lon="-2.37015">
        <ele>8.8</ele>
        <time>2018-09-20T09:52:44.000Z</time>
      </trkpt>
      <trkpt lat="46.70213" lon="-2.37014">
        <ele>8.8</ele>
        <time>2018-09-20T09:52:45.000Z</time>
      </trkpt>
      <trkpt lat="46.70212" lon="-2.37012">
        <ele>8.8</ele>
        <time>2018-09-20T09:52:46.000Z</time>
      </trkpt>
      <trkpt lat="46.70212" lon="-2.37011">
        <ele>8.8</ele>
        <time>2018-09-20T09:52:47.000Z</time>
      </trkpt>
      <trkpt lat="46.70211" lon="-2.37009">
        <ele>8.7</ele>
        <time>2018-09-20T09:52:48.000Z</time>
      </trkpt>
      <trkpt lat="46.70211" lon="-2.37008">
        <ele>8.7</ele>
        <time>2018-09-20T09:52:49.000Z</time>
      </trkpt>
      <trkpt lat="46.70211" lon="-2.37006">
        <ele>8.7</ele>
        <time>2018-09-20T09:52:50.000Z</time>
      </trkpt>
      <trkpt lat="46.7021" lon="-2.37005">
        <ele>8.7</ele>
        <time>2018-09-20T09:52:51.000Z</time>
      </trkpt>
      <trkpt lat="46.7021" lon="-2.37003">
        <ele>8.7</ele>
        <time>2018-09-20T09:52:52.000Z</time>
      </trkpt>
      <trkpt lat="46.7021" lon="-2.37001">
        <ele>8.7</ele>
        <time>2018-09-20T09:52:53.000Z</time>
      </trkpt>
      <trkpt lat="46.70209" lon="-2.37">
        <ele>8.7</ele>
        <time>2018-09-20T09:52:54.000Z</time>
      </trkpt>
      <trkpt lat="46.70209" lon="-2.36998">
        <ele>8.7</ele>
        <time>2018-09-20T09:52:55.000Z</time>
      </trkpt>
      <trkpt lat="46.70209" lon="-2.36997">
        <ele>8.7</ele>
        <time>2018-09-20T09:52:56.000Z</time>
      </trkpt>
      <trkpt lat="46.70209" lon="-2.36995">
        <ele>8.7</ele>
        <time>2018-09-20T09:52:57.000Z</time>
      </trkpt>
      <trkpt lat="46.70209" lon="-2.36994">
        <ele>8.7</ele>
        <time>2018-09-20T09:52:58.000Z</time>
      </trkpt>
      <trkpt lat="46.70209" lon="-2.36992">
        <ele>8.8</ele>
        <time>2018-09-20T09:52:59.000Z</time>
      </trkpt>
      <trkpt lat="46.7021" lon="-2.36991">
        <ele>8.8</ele>
        <time>2018-09-20T09:53:00.000Z</time>
      </trkpt>
      <trkpt lat="46.7021" lon="-2.36989">
        <ele>8.8</ele>
        <time>2018-09-20T09:53:01.000Z</time>
      </trkpt>
      <trkpt lat="46.7021" lon="-2.36988">
        <ele>8.9</ele>
        <time>2018-09-20T09:53:02.000Z</time>
      </trkpt>
      <trkpt lat="46.7021" lon="-2.36986">
        <ele>8.9</ele>
        <time>2018-09-20T09:53:03.000Z</time>
      </trkpt>
      <trkpt lat="46.7021" lon="-2.36985">
        <ele>8.9</ele>
        <time>2018-09-20T09:53:04.000Z</time>
      </trkpt>
      <trkpt lat="46.7021" lon="-2.36984">
        <ele>8.9</ele>
        <time>2018-09-20T09:53:05.000Z</time>
      </trkpt>
      <trkpt lat="46.7021" lon="-2.36982">
        <ele>9</ele>
        <time>2018-09-20T09:53:06.000Z</time>
      </trkpt>
      <trkpt lat="46.7021" lon="-2.36981">
        <ele>9</ele>
        <time>2018-09-20T09:53:07.000Z</time>
      </trkpt>
      <trkpt lat="46.7021" lon="-2.3698">
        <ele>9</ele>
        <time>2018-09-20T09:53:08.000Z</time>
      </trkpt>
      <trkpt lat="46.7021" lon="-2.36979">
        <ele>8.9</ele>
        <time>2018-09-20T09:53:09.000Z</time>
      </trkpt>
      <trkpt lat="46.70209" lon="-2.36978">
        <ele>8.9</ele>
        <time>2018-09-20T09:53:10.000Z</time>
      </trkpt>
      <trkpt lat="46.70209" lon="-2.36977">
        <ele>8.9</ele>
        <time>2018-09-20T09:53:11.000Z</time>
      </trkpt>
      <trkpt lat="46.70209" lon="-2.36976">
        <ele>8.9</ele>
        <time>2018-09-20T09:53:12.000Z</time>
      </trkpt>
      <trkpt lat="46.70208" lon="-2.36975">
        <ele>8.8</ele>
        <time>2018-09-20T09:53:13.000Z</time>
      </trkpt>
      <trkpt lat="46.70208" lon="-2.36974">
        <ele>8.8</ele>
        <time>2018-09-20T09:53:14.000Z</time>
      </trkpt>
      <trkpt lat="46.70208" lon="-2.36973">
        <ele>8.7</ele>
        <time>2018-09-20T09:53:15.000Z</time>
      </trkpt>
      <trkpt lat="46.70207" lon="-2.36972">
        <ele>8.7</ele>
        <time>2018-09-20T09:53:16.000Z</time>
      </trkpt>
      <trkpt lat="46.70207" lon="-2.36971">
        <ele>8.7</ele>
        <time>2018-09-20T09:53:17.000Z</time>
      </trkpt>
      <trkpt lat="46.70207" lon="-2.3697">
        <ele>8.7</ele>
        <time>2018-09-20T09:53:18.000Z</time>
      </trkpt>
      <trkpt lat="46.70207" lon="-2.36969">
        <ele>8.7</ele>
        <time>2018-09-20T09:53:19.000Z</time>
      </trkpt>
      <trkpt lat="46.70207" lon="-2.36969">
        <ele>8.6</ele>
        <time>2018-09-20T09:53:20.000Z</time>
      </trkpt>
      <trkpt lat="46.70207" lon="-2.36968">
        <ele>8.7</ele>
        <time>2018-09-20T09:53:21.000Z</time>
      </trkpt>
      <trkpt lat="46.70207" lon="-2.36967">
        <ele>8.7</ele>
        <time>2018-09-20T09:53:22.000Z</time>
      </trkpt>
      <trkpt lat="46.70207" lon="-2.36967">
        <ele>8.7</ele>
        <time>2018-09-20T09:53:23.000Z</time>
      </trkpt>
      <trkpt lat="46.70207" lon="-2.36967">
        <ele>8.7</ele>
        <time>2018-09-20T09:53:24.000Z</time>
      </trkpt>
      <trkpt lat="46.70207" lon="-2.36966">
        <ele>8.8</ele>
        <time>2018-09-20T09:53:25.000Z</time>
      </trkpt>
      <trkpt lat="46.70208" lon="-2.36966">
        <ele>8.8</ele>
        <time>2018-09-20T09:53:26.000Z</time>
      </trkpt>
      <trkpt lat="46.70208" lon="-2.36966">
        <ele>8.9</ele>
        <time>2018-09-20T09:53:27.000Z</time>
      </trkpt>
      <trkpt lat="46.70209" lon="-2.36965">
        <ele>8.9</ele>
        <time>2018-09-20T09:53:28.000Z</time>
      </trkpt>
      <trkpt lat="46.70209" lon="-2.36965">
        <ele>9</ele>
        <time>2018-09-20T09:53:29.000Z</time>
      </trkpt>
      <trkpt lat="46.70209" lon="-2.36964">
        <ele>9</ele>
        <time>2018-09-20T09:53:30.000Z</time>
      </trkpt>
      <trkpt lat="46.70209" lon="-2.36964">
        <ele>9</ele>
        <time>2018-09-20T09:53:31.000Z</time>
      </trkpt>
      <trkpt lat="46.70209" lon="-2.36963">
        <ele>9.1</ele>
        <time>2018-09-20T09:53:32.000Z</time>
      </trkpt>
      <trkpt lat="46.70209" lon="-2.36963">
        <ele>9.1</ele>
        <time>2018-09-20T09:53:33.000Z</time>
      </trkpt>
      <trkpt lat="46.70209" lon="-2.36962">
        <ele>9.1</ele>
        <time>2018-09-20T09:53:34.000Z</time>
      </trkpt>
      <trkpt lat="46.70209" lon="-2.36961">
        <ele>9.1</ele>
        <time>2018-09-20T09:53:35.000Z</time>
      </trkpt>
      <trkpt lat="46.70209" lon="-2.36961">
        <ele>9</ele>
        <time>2018-09-20T09:53:36.000Z</time>
      </trkpt>
      <trkpt lat="46.70209" lon="-2.36961">
        <ele>9</ele>
        <time>2018-09-20T09:53:37.000Z</time>
      </trkpt>
      <trkpt lat="46.70209" lon="-2.36961">
        <ele>9</ele>
        <time>2018-09-20T09:53:38.000Z</time>
      </trkpt>
      <trkpt lat="46.70209" lon="-2.36961">
        <ele>9</ele>
        <time>2018-09-20T09:53:39.000Z</time>
      </trkpt>
      <trkpt lat="46.70209" lon="-2.36961">
        <ele>9</ele>
        <time>2018-09-20T09:53:40.000Z</time>
      </trkpt>
      <trkpt lat="46.70209" lon="-2.36961">
        <ele>9</ele>
        <time>2018-09-20T09:53:41.000Z</time>
      </trkpt>
      <trkpt lat="46.70209" lon="-2.36961">
        <ele>9</ele>
        <time>2018-09-20T09:53:42.000Z</time>
      </trkpt>
      <trkpt lat="46.70209" lon="-2.3696">
        <ele>9</ele>
        <time>2018-09-20T09:53:43.000Z</time>
      </trkpt>
      <trkpt lat="46.70209" lon="-2.3696">
        <ele>9.1</ele>
        <time>2018-09-20T09:53:44.000Z</time>
      </trkpt>
      <trkpt lat="46.7021" lon="-2.36959">
        <ele>9.1</ele>
        <time>2018-09-20T09:53:45.000Z</time>
      </trkpt>
      <trkpt lat="46.7021" lon="-2.36958">
        <ele>9.2</ele>
        <time>2018-09-20T09:53:46.000Z</time>
      </trkpt>
      <trkpt lat="46.70211" lon="-2.36956">
        <ele>9.3</ele>
        <time>2018-09-20T09:53:47.000Z</time>
      </trkpt>
      <trkpt lat="46.70211" lon="-2.36955">
        <ele>9.4</ele>
        <time>2018-09-20T09:53:48.000Z</time>
      </trkpt>
      <trkpt lat="46.70212" lon="-2.36954">
        <ele>9.4</ele>
        <time>2018-09-20T09:53:49.000Z</time>
      </trkpt>
      <trkpt lat="46.70212" lon="-2.36953">
        <ele>9.5</ele>
        <time>2018-09-20T09:53:50.000Z</time>
      </trkpt>
      <trkpt lat="46.70212" lon="-2.36952">
        <ele>9.5</ele>
        <time>2018-09-20T09:53:51.000Z</time>
      </trkpt>
      <trkpt lat="46.70213" lon="-2.36952">
        <ele>9.6</ele>
        <time>2018-09-20T09:53:52.000Z</time>
      </trkpt>
      <trkpt lat="46.70213" lon="-2.36952">
        <ele>9.6</ele>
        <time>2018-09-20T09:53:53.000Z</time>
      </trkpt>
      <trkpt lat="46.70213" lon="-2.36951">
        <ele>9.6</ele>
        <time>2018-09-20T09:53:54.000Z</time>
      </trkpt>
      <trkpt lat="46.70213" lon="-2.36951">
        <ele>9.6</ele>
        <time>2018-09-20T09:53:55.000Z</time>
      </trkpt>
      <trkpt lat="46.70213" lon="-2.3695">
        <ele>9.6</ele>
        <time>2018-09-20T09:53:56.000Z</time>
      </trkpt>
      <trkpt lat="46.70213" lon="-2.3695">
        <ele>9.6</ele>
        <time>2018-09-20T09:53:57.000Z</time>
      </trkpt>
      <trkpt lat="46.70212" lon="-2.36949">
        <ele>9.6</ele>
        <time>2018-09-20T09:53:58.000Z</time>
      </trkpt>
      <trkpt lat="46.70212" lon="-2.36948">
        <ele>9.5</ele>
        <time>2018-09-20T09:53:59.000Z</time>
      </trkpt>
      <trkpt lat="46.70212" lon="-2.36947">
        <ele>9.5</ele>
        <time>2018-09-20T09:54:00.000Z</time>
      </trkpt>
      <trkpt lat="46.70212" lon="-2.36946">
        <ele>9.5</ele>
        <time>2018-09-20T09:54:01.000Z</time>
      </trkpt>
      <trkpt lat="46.70212" lon="-2.36946">
        <ele>9.5</ele>
        <time>2018-09-20T09:54:02.000Z</time>
      </trkpt>
      <trkpt lat="46.70212" lon="-2.36945">
        <ele>9.5</ele>
        <time>2018-09-20T09:54:03.000Z</time>
      </trkpt>
      <trkpt lat="46.70212" lon="-2.36944">
        <ele>9.5</ele>
        <time>2018-09-20T09:54:04.000Z</time>
      </trkpt>
      <trkpt lat="46.70212" lon="-2.36943">
        <ele>9.5</ele>
        <time>2018-09-20T09:54:05.000Z</time>
      </trkpt>
      <trkpt lat="46.70212" lon="-2.36942">
        <ele>9.6</ele>
        <time>2018-09-20T09:54:06.000Z</time>
      </trkpt>
      <trkpt lat="46.70212" lon="-2.36941">
        <ele>9.6</ele>
        <time>2018-09-20T09:54:07.000Z</time>
      </trkpt>
      <trkpt lat="46.70212" lon="-2.36941">
        <ele>9.6</ele>
        <time>2018-09-20T09:54:08.000Z</time>
      </trkpt>
      <trkpt lat="46.70212" lon="-2.3694">
        <ele>9.6</ele>
        <time>2018-09-20T09:54:09.000Z</time>
      </trkpt>
      <trkpt lat="46.70212" lon="-2.36939">
        <ele>9.6</ele>
        <time>2018-09-20T09:54:10.000Z</time>
      </trkpt>
      <trkpt lat="46.70213" lon="-2.36938">
        <ele>9.7</ele>
        <time>2018-09-20T09:54:11.000Z</time>
      </trkpt>
      <trkpt lat="46.70213" lon="-2.36938">
        <ele>9.7</ele>
        <time>2018-09-20T09:54:12.000Z</time>
      </trkpt>
      <trkpt lat="46.70213" lon="-2.36937">
        <ele>9.7</ele>
        <time>2018-09-20T09:54:13.000Z</time>
      </trkpt>
      <trkpt lat="46.70213" lon="-2.36936">
        <ele>9.8</ele>
        <time>2018-09-20T09:54:14.000Z</time>
      </trkpt>
      <trkpt lat="46.70214" lon="-2.36935">
        <ele>9.8</ele>
        <time>2018-09-20T09:54:15.000Z</time>
      </trkpt>
      <trkpt lat="46.70214" lon="-2.36935">
        <ele>9.8</ele>
        <time>2018-09-20T09:54:16.000Z</time>
      </trkpt>
      <trkpt lat="46.70214" lon="-2.36934">
        <ele>9.9</ele>
        <time>2018-09-20T09:54:17.000Z</time>
      </trkpt>
      <trkpt lat="46.70214" lon="-2.36933">
        <ele>9.9</ele>
        <time>2018-09-20T09:54:18.000Z</time>
      </trkpt>
      <trkpt lat="46.70215" lon="-2.36933">
        <ele>9.9</ele>
        <time>2018-09-20T09:54:19.000Z</time>
      </trkpt>
      <trkpt lat="46.70215" lon="-2.36932">
        <ele>9.9</ele>
        <time>2018-09-20T09:54:20.000Z</time>
      </trkpt>
      <trkpt lat="46.70215" lon="-2.36931">
        <ele>10</ele>
        <time>2018-09-20T09:54:21.000Z</time>
      </trkpt>
      <trkpt lat="46.70215" lon="-2.36931">
        <ele>10</ele>
        <time>2018-09-20T09:54:22.000Z</time>
      </trkpt>
      <trkpt lat="46.70215" lon="-2.3693">
        <ele>10</ele>
        <time>2018-09-20T09:54:23.000Z</time>
      </trkpt>
      <trkpt lat="46.70215" lon="-2.36929">
        <ele>10</ele>
        <time>2018-09-20T09:54:24.000Z</time>
      </trkpt>
      <trkpt lat="46.70216" lon="-2.36929">
        <ele>10</ele>
        <time>2018-09-20T09:54:25.000Z</time>
      </trkpt>
      <trkpt lat="46.70216" lon="-2.36929">
        <ele>10</ele>
        <time>2018-09-20T09:54:26.000Z</time>
      </trkpt>
      <trkpt lat="46.70216" lon="-2.36928">
        <ele>10.1</ele>
        <time>2018-09-20T09:54:27.000Z</time>
      </trkpt>
      <trkpt lat="46.70216" lon="-2.36928">
        <ele>10.1</ele>
        <time>2018-09-20T09:54:28.000Z</time>
      </trkpt>
      <trkpt lat="46.70216" lon="-2.36928">
        <ele>10.1</ele>
        <time>2018-09-20T09:54:29.000Z</time>
      </trkpt>
      <trkpt lat="46.70216" lon="-2.36928">
        <ele>10.1</ele>
        <time>2018-09-20T09:54:30.000Z</time>
      </trkpt>
      <trkpt lat="46.70216" lon="-2.36929">
        <ele>10.1</ele>
        <time>2018-09-20T09:54:31.000Z</time>
      </trkpt>
      <trkpt lat="46.70216" lon="-2.36929">
        <ele>10.1</ele>
        <time>2018-09-20T09:54:32.000Z</time>
      </trkpt>
      <trkpt lat="46.70217" lon="-2.36929">
        <ele>10.1</ele>
        <time>2018-09-20T09:54:33.000Z</time>
      </trkpt>
      <trkpt lat="46.70217" lon="-2.36929">
        <ele>10.1</ele>
        <time>2018-09-20T09:54:34.000Z</time>
      </trkpt>
      <trkpt lat="46.70217" lon="-2.36929">
        <ele>10.2</ele>
        <time>2018-09-20T09:54:35.000Z</time>
      </trkpt>
      <trkpt lat="46.70217" lon="-2.36929">
        <ele>10.2</ele>
        <time>2018-09-20T09:54:36.000Z</time>
      </trkpt>
      <trkpt lat="46.70217" lon="-2.36929">
        <ele>10.2</ele>
        <time>2018-09-20T09:54:37.000Z</time>
      </trkpt>
      <trkpt lat="46.70217" lon="-2.36929">
        <ele>10.2</ele>
        <time>2018-09-20T09:54:38.000Z</time>
      </trkpt>
      <trkpt lat="46.70218" lon="-2.36929">
        <ele>10.2</ele>
        <time>2018-09-20T09:54:39.000Z</time>
      </trkpt>
      <trkpt lat="46.70218" lon="-2.36929">
        <ele>10.2</ele>
        <time>2018-09-20T09:54:40.000Z</time>
      </trkpt>
      <trkpt lat="46.70218" lon="-2.36929">
        <ele>10.2</ele>
        <time>2018-09-20T09:54:41.000Z</time>
      </trkpt>
      <trkpt lat="46.70218" lon="-2.36929">
        <ele>10.3</ele>
        <time>2018-09-20T09:54:42.000Z</time>
      </trkpt>
      <trkpt lat="46.70218" lon="-2.36929">
        <ele>10.3</ele>
        <time>2018-09-20T09:54:43.000Z</time>
      </trkpt>
      <trkpt lat="46.70218" lon="-2.36929">
        <ele>10.3</ele>
        <time>2018-09-20T09:54:44.000Z</time>
      </trkpt>
      <trkpt lat="46.70218" lon="-2.36929">
        <ele>10.3</ele>
        <time>2018-09-20T09:54:45.000Z</time>
      </trkpt>
      <trkpt lat="46.70218" lon="-2.36929">
        <ele>10.3</ele>
        <time>2018-09-20T09:54:46.000Z</time>
      </trkpt>
      <trkpt lat="46.70218" lon="-2.36929">
        <ele>10.3</ele>
        <time>2018-09-20T09:54:47.000Z</time>
      </trkpt>
      <trkpt lat="46.70218" lon="-2.36929">
        <ele>10.2</ele>
        <time>2018-09-20T09:54:48.000Z</time>
      </trkpt>
      <trkpt lat="46.70218" lon="-2.36929">
        <ele>10.2</ele>
        <time>2018-09-20T09:54:49.000Z</time>
      </trkpt>
      <trkpt lat="46.70218" lon="-2.36929">
        <ele>10.2</ele>
        <time>2018-09-20T09:54:50.000Z</time>
      </trkpt>
      <trkpt lat="46.70218" lon="-2.36929">
        <ele>10.2</ele>
        <time>2018-09-20T09:54:51.000Z</time>
      </trkpt>
      <trkpt lat="46.70217" lon="-2.36929">
        <ele>10.2</ele>
        <time>2018-09-20T09:54:52.000Z</time>
      </trkpt>
      <trkpt lat="46.70217" lon="-2.36929">
        <ele>10.2</ele>
        <time>2018-09-20T09:54:53.000Z</time>
      </trkpt>
      <trkpt lat="46.70217" lon="-2.36929">
        <ele>10.2</ele>
        <time>2018-09-20T09:54:54.000Z</time>
      </trkpt>
      <trkpt lat="46.70217" lon="-2.36929">
        <ele>10.2</ele>
        <time>2018-09-20T09:54:55.000Z</time>
      </trkpt>
      <trkpt lat="46.70217" lon="-2.36929">
        <ele>10.2</ele>
        <time>2018-09-20T09:54:56.000Z</time>
      </trkpt>
      <trkpt lat="46.70217" lon="-2.36929">
        <ele>10.2</ele>
        <time>2018-09-20T09:54:57.000Z</time>
      </trkpt>
      <trkpt lat="46.70217" lon="-2.36929">
        <ele>10.2</ele>
        <time>2018-09-20T09:54:58.000Z</time>
      </trkpt>
      <trkpt lat="46.70217" lon="-2.36929">
        <ele>10.2</ele>
        <time>2018-09-20T09:54:59.000Z</time>
      </trkpt>
      <trkpt lat="46.70217" lon="-2.36929">
        <ele>10.2</ele>
        <time>2018-09-20T09:55:00.000Z</time>
      </trkpt>
      <trkpt lat="46.70217" lon="-2.36929">
        <ele>10.2</ele>
        <time>2018-09-20T09:55:01.000Z</time>
      </trkpt>
      <trkpt lat="46.70217" lon="-2.36929">
        <ele>10.2</ele>
        <time>2018-09-20T09:55:02.000Z</time>
      </trkpt>
      <trkpt lat="46.70217" lon="-2.36929">
        <ele>10.2</ele>
        <time>2018-09-20T09:55:03.000Z</time>
      </trkpt>
      <trkpt lat="46.70217" lon="-2.36929">
        <ele>10.2</ele>
        <time>2018-09-20T09:55:04.000Z</time>
      </trkpt>
      <trkpt lat="46.70217" lon="-2.36929">
        <ele>10.2</ele>
        <time>2018-09-20T09:55:05.000Z</time>
      </trkpt>
      <trkpt lat="46.70217" lon="-2.36929">
        <ele>10.2</ele>
        <time>2018-09-20T09:55:06.000Z</time>
      </trkpt>
      <trkpt lat="46.70217" lon="-2.36929">
        <ele>10.2</ele>
        <time>2018-09-20T09:55:07.000Z</time>
      </trkpt>
      <trkpt lat="46.70217" lon="-2.36929">
        <ele>10.2</ele>
        <time>2018-09-20T09:55:08.000Z</time>
      </trkpt>
      <trkpt lat="46.70217" lon="-2.36929">
        <ele>10.2</ele>
        <time>2018-09-20T09:55:09.000Z</time>
      </trkpt>
      <trkpt lat="46.70217" lon="-2.36928">
        <ele>10.2</ele>
        <time>2018-09-20T09:55:10.000Z</time>
      </trkpt>
      <trkpt lat="46.70217" lon="-2.36928">
        <ele>10.2</ele>
        <time>2018-09-20T09:55:11.000Z</time>
      </trkpt>
      <trkpt lat="46.70217" lon="-2.36928">
        <ele>10.2</ele>
        <time>2018-09-20T09:55:12.000Z</time>
      </trkpt>
      <trkpt lat="46.70217" lon="-2.36928">
        <ele>10.2</ele>
        <time>2018-09-20T09:55:13.000Z</time>
      </trkpt>
      <trkpt lat="46.70217" lon="-2.36928">
        <ele>10.2</ele>
        <time>2018-09-20T09:55:14.000Z</time>
      </trkpt>
      <trkpt lat="46.70217" lon="-2.36928">
        <ele>10.2</ele>
        <time>2018-09-20T09:55:15.000Z</time>
      </trkpt>
      <trkpt lat="46.70217" lon="-2.36928">
        <ele>10.2</ele>
        <time>2018-09-20T09:55:16.000Z</time>
      </trkpt>
      <trkpt lat="46.70217" lon="-2.36928">
        <ele>10.2</ele>
        <time>2018-09-20T09:55:17.000Z</time>
      </trkpt>
      <trkpt lat="46.70217" lon="-2.36928">
        <ele>10.2</ele>
        <time>2018-09-20T09:55:18.000Z</time>
      </trkpt>
      <trkpt lat="46.70217" lon="-2.36927">
        <ele>10.2</ele>
        <time>2018-09-20T09:55:19.000Z</time>
      </trkpt>
      <trkpt lat="46.70217" lon="-2.36926">
        <ele>10.2</ele>
        <time>2018-09-20T09:55:20.000Z</time>
      </trkpt>
      <trkpt lat="46.70217" lon="-2.36925">
        <ele>10.2</ele>
        <time>2018-09-20T09:55:21.000Z</time>
      </trkpt>
      <trkpt lat="46.70216" lon="-2.36925">
        <ele>10.1</ele>
        <time>2018-09-20T09:55:22.000Z</time>
      </trkpt>
      <trkpt lat="46.70216" lon="-2.36924">
        <ele>10.1</ele>
        <time>2018-09-20T09:55:23.000Z</time>
      </trkpt>
      <trkpt lat="46.70216" lon="-2.36923">
        <ele>10.1</ele>
        <time>2018-09-20T09:55:24.000Z</time>
      </trkpt>
      <trkpt lat="46.70216" lon="-2.36922">
        <ele>10.1</ele>
        <time>2018-09-20T09:55:25.000Z</time>
      </trkpt>
      <trkpt lat="46.70216" lon="-2.36921">
        <ele>10.1</ele>
        <time>2018-09-20T09:55:26.000Z</time>
      </trkpt>
      <trkpt lat="46.70216" lon="-2.3692">
        <ele>10.1</ele>
        <time>2018-09-20T09:55:27.000Z</time>
      </trkpt>
      <trkpt lat="46.70216" lon="-2.36919">
        <ele>10.1</ele>
        <time>2018-09-20T09:55:28.000Z</time>
      </trkpt>
      <trkpt lat="46.70216" lon="-2.36918">
        <ele>10.2</ele>
        <time>2018-09-20T09:55:29.000Z</time>
      </trkpt>
      <trkpt lat="46.70216" lon="-2.36917">
        <ele>10.2</ele>
        <time>2018-09-20T09:55:30.000Z</time>
      </trkpt>
      <trkpt lat="46.70217" lon="-2.36916">
        <ele>10.3</ele>
        <time>2018-09-20T09:55:31.000Z</time>
      </trkpt>
      <trkpt lat="46.70217" lon="-2.36914">
        <ele>10.3</ele>
        <time>2018-09-20T09:55:32.000Z</time>
      </trkpt>
      <trkpt lat="46.70217" lon="-2.36913">
        <ele>10.4</ele>
        <time>2018-09-20T09:55:33.000Z</time>
      </trkpt>
      <trkpt lat="46.70217" lon="-2.36912">
        <ele>10.5</ele>
        <time>2018-09-20T09:55:34.000Z</time>
      </trkpt>
      <trkpt lat="46.70217" lon="-2.36911">
        <ele>10.6</ele>
        <time>2018-09-20T09:55:35.000Z</time>
      </trkpt>
      <trkpt lat="46.70217" lon="-2.36909">
        <ele>10.7</ele>
        <time>2018-09-20T09:55:36.000Z</time>
      </trkpt>
      <trkpt lat="46.70217" lon="-2.36908">
        <ele>10.7</ele>
        <time>2018-09-20T09:55:37.000Z</time>
      </trkpt>
      <trkpt lat="46.70217" lon="-2.36907">
        <ele>10.8</ele>
        <time>2018-09-20T09:55:38.000Z</time>
      </trkpt>
      <trkpt lat="46.70217" lon="-2.36906">
        <ele>10.9</ele>
        <time>2018-09-20T09:55:39.000Z</time>
      </trkpt>
      <trkpt lat="46.70217" lon="-2.36904">
        <ele>10.9</ele>
        <time>2018-09-20T09:55:40.000Z</time>
      </trkpt>
      <trkpt lat="46.70216" lon="-2.36903">
        <ele>11</ele>
        <time>2018-09-20T09:55:41.000Z</time>
      </trkpt>
      <trkpt lat="46.70216" lon="-2.36902">
        <ele>11.1</ele>
        <time>2018-09-20T09:55:42.000Z</time>
      </trkpt>
      <trkpt lat="46.70216" lon="-2.369">
        <ele>11.1</ele>
        <time>2018-09-20T09:55:43.000Z</time>
      </trkpt>
      <trkpt lat="46.70215" lon="-2.36899">
        <ele>11.2</ele>
        <time>2018-09-20T09:55:44.000Z</time>
      </trkpt>
      <trkpt lat="46.70215" lon="-2.36898">
        <ele>11.2</ele>
        <time>2018-09-20T09:55:45.000Z</time>
      </trkpt>
      <trkpt lat="46.70214" lon="-2.36896">
        <ele>11.3</ele>
        <time>2018-09-20T09:55:46.000Z</time>
      </trkpt>
      <trkpt lat="46.70214" lon="-2.36895">
        <ele>11.4</ele>
        <time>2018-09-20T09:55:47.000Z</time>
      </trkpt>
      <trkpt lat="46.70213" lon="-2.36894">
        <ele>11.4</ele>
        <time>2018-09-20T09:55:48.000Z</time>
      </trkpt>
      <trkpt lat="46.70213" lon="-2.36892">
        <ele>11.5</ele>
        <time>2018-09-20T09:55:49.000Z</time>
      </trkpt>
      <trkpt lat="46.70213" lon="-2.36891">
        <ele>11.6</ele>
        <time>2018-09-20T09:55:50.000Z</time>
      </trkpt>
      <trkpt lat="46.70212" lon="-2.3689">
        <ele>11.6</ele>
        <time>2018-09-20T09:55:51.000Z</time>
      </trkpt>
      <trkpt lat="46.70212" lon="-2.36888">
        <ele>11.7</ele>
        <time>2018-09-20T09:55:52.000Z</time>
      </trkpt>
      <trkpt lat="46.70212" lon="-2.36887">
        <ele>11.8</ele>
        <time>2018-09-20T09:55:53.000Z</time>
      </trkpt>
      <trkpt lat="46.70212" lon="-2.36886">
        <ele>11.9</ele>
        <time>2018-09-20T09:55:54.000Z</time>
      </trkpt>
      <trkpt lat="46.70212" lon="-2.36884">
        <ele>12</ele>
        <time>2018-09-20T09:55:55.000Z</time>
      </trkpt>
      <trkpt lat="46.70213" lon="-2.36883">
        <ele>12.1</ele>
        <time>2018-09-20T09:55:56.000Z</time>
      </trkpt>
      <trkpt lat="46.70213" lon="-2.36881">
        <ele>12.2</ele>
        <time>2018-09-20T09:55:57.000Z</time>
      </trkpt>
      <trkpt lat="46.70213" lon="-2.3688">
        <ele>12.3</ele>
        <time>2018-09-20T09:55:58.000Z</time>
      </trkpt>
      <trkpt lat="46.70214" lon="-2.36879">
        <ele>12.4</ele>
        <time>2018-09-20T09:55:59.000Z</time>
      </trkpt>
      <trkpt lat="46.70214" lon="-2.36877">
        <ele>12.5</ele>
        <time>2018-09-20T09:56:00.000Z</time>
      </trkpt>
      <trkpt lat="46.70214" lon="-2.36876">
        <ele>12.6</ele>
        <time>2018-09-20T09:56:01.000Z</time>
      </trkpt>
      <trkpt lat="46.70215" lon="-2.36874">
        <ele>12.7</ele>
        <time>2018-09-20T09:56:02.000Z</time>
      </trkpt>
      <trkpt lat="46.70215" lon="-2.36873">
        <ele>12.8</ele>
        <time>2018-09-20T09:56:03.000Z</time>
      </trkpt>
      <trkpt lat="46.70216" lon="-2.36871">
        <ele>12.9</ele>
        <time>2018-09-20T09:56:04.000Z</time>
      </trkpt>
      <trkpt lat="46.70216" lon="-2.3687">
        <ele>13</ele>
        <time>2018-09-20T09:56:05.000Z</time>
      </trkpt>
      <trkpt lat="46.70216" lon="-2.36869">
        <ele>13.1</ele>
        <time>2018-09-20T09:56:06.000Z</time>
      </trkpt>
      <trkpt lat="46.70216" lon="-2.36867">
        <ele>13.2</ele>
        <time>2018-09-20T09:56:07.000Z</time>
      </trkpt>
      <trkpt lat="46.70216" lon="-2.36866">
        <ele>13.2</ele>
        <time>2018-09-20T09:56:08.000Z</time>
      </trkpt>
      <trkpt lat="46.70215" lon="-2.36865">
        <ele>13.3</ele>
        <time>2018-09-20T09:56:09.000Z</time>
      </trkpt>
      <trkpt lat="46.70215" lon="-2.36863">
        <ele>13.4</ele>
        <time>2018-09-20T09:56:10.000Z</time>
      </trkpt>
      <trkpt lat="46.70215" lon="-2.36862">
        <ele>13.5</ele>
        <time>2018-09-20T09:56:11.000Z</time>
      </trkpt>
      <trkpt lat="46.70215" lon="-2.36861">
        <ele>13.5</ele>
        <time>2018-09-20T09:56:12.000Z</time>
      </trkpt>
      <trkpt lat="46.70215" lon="-2.3686">
        <ele>13.6</ele>
        <time>2018-09-20T09:56:13.000Z</time>
      </trkpt>
      <trkpt lat="46.70215" lon="-2.36858">
        <ele>13.7</ele>
        <time>2018-09-20T09:56:14.000Z</time>
      </trkpt>
      <trkpt lat="46.70215" lon="-2.36857">
        <ele>13.8</ele>
        <time>2018-09-20T09:56:15.000Z</time>
      </trkpt>
      <trkpt lat="46.70215" lon="-2.36856">
        <ele>13.8</ele>
        <time>2018-09-20T09:56:16.000Z</time>
      </trkpt>
      <trkpt lat="46.70216" lon="-2.36855">
        <ele>13.9</ele>
        <time>2018-09-20T09:56:17.000Z</time>
      </trkpt>
      <trkpt lat="46.70216" lon="-2.36854">
        <ele>14</ele>
        <time>2018-09-20T09:56:18.000Z</time>
      </trkpt>
      <trkpt lat="46.70216" lon="-2.36852">
        <ele>14.1</ele>
        <time>2018-09-20T09:56:19.000Z</time>
      </trkpt>
      <trkpt lat="46.70217" lon="-2.36851">
        <ele>14.1</ele>
        <time>2018-09-20T09:56:20.000Z</time>
      </trkpt>
      <trkpt lat="46.70217" lon="-2.3685">
        <ele>14.2</ele>
        <time>2018-09-20T09:56:21.000Z</time>
      </trkpt>
      <trkpt lat="46.70218" lon="-2.36849">
        <ele>14.3</ele>
        <time>2018-09-20T09:56:22.000Z</time>
      </trkpt>
      <trkpt lat="46.70219" lon="-2.36848">
        <ele>14.3</ele>
        <time>2018-09-20T09:56:23.000Z</time>
      </trkpt>
      <trkpt lat="46.70219" lon="-2.36846">
        <ele>14.4</ele>
        <time>2018-09-20T09:56:24.000Z</time>
      </trkpt>
      <trkpt lat="46.7022" lon="-2.36845">
        <ele>14.4</ele>
        <time>2018-09-20T09:56:25.000Z</time>
      </trkpt>
      <trkpt lat="46.70221" lon="-2.36844">
        <ele>14.5</ele>
        <time>2018-09-20T09:56:26.000Z</time>
      </trkpt>
      <trkpt lat="46.70221" lon="-2.36843">
        <ele>14.5</ele>
        <time>2018-09-20T09:56:27.000Z</time>
      </trkpt>
      <trkpt lat="46.70222" lon="-2.36841">
        <ele>14.6</ele>
        <time>2018-09-20T09:56:28.000Z</time>
      </trkpt>
      <trkpt lat="46.70222" lon="-2.3684">
        <ele>14.7</ele>
        <time>2018-09-20T09:56:29.000Z</time>
      </trkpt>
      <trkpt lat="46.70223" lon="-2.36839">
        <ele>14.7</ele>
        <time>2018-09-20T09:56:30.000Z</time>
      </trkpt>
      <trkpt lat="46.70223" lon="-2.36838">
        <ele>14.8</ele>
        <time>2018-09-20T09:56:31.000Z</time>
      </trkpt>
      <trkpt lat="46.70223" lon="-2.36837">
        <ele>14.8</ele>
        <time>2018-09-20T09:56:32.000Z</time>
      </trkpt>
      <trkpt lat="46.70222" lon="-2.36836">
        <ele>14.9</ele>
        <time>2018-09-20T09:56:33.000Z</time>
      </trkpt>
      <trkpt lat="46.70222" lon="-2.36835">
        <ele>14.9</ele>
        <time>2018-09-20T09:56:34.000Z</time>
      </trkpt>
      <trkpt lat="46.70221" lon="-2.36835">
        <ele>15</ele>
        <time>2018-09-20T09:56:35.000Z</time>
      </trkpt>
      <trkpt lat="46.70221" lon="-2.36834">
        <ele>15</ele>
        <time>2018-09-20T09:56:36.000Z</time>
      </trkpt>
      <trkpt lat="46.7022" lon="-2.36834">
        <ele>15.1</ele>
        <time>2018-09-20T09:56:37.000Z</time>
      </trkpt>
      <trkpt lat="46.7022" lon="-2.36833">
        <ele>15.1</ele>
        <time>2018-09-20T09:56:38.000Z</time>
      </trkpt>
      <trkpt lat="46.70219" lon="-2.36833">
        <ele>15.1</ele>
        <time>2018-09-20T09:56:39.000Z</time>
      </trkpt>
      <trkpt lat="46.70219" lon="-2.36832">
        <ele>15.1</ele>
        <time>2018-09-20T09:56:40.000Z</time>
      </trkpt>
      <trkpt lat="46.70219" lon="-2.36831">
        <ele>15.2</ele>
        <time>2018-09-20T09:56:41.000Z</time>
      </trkpt>
      <trkpt lat="46.70219" lon="-2.36831">
        <ele>15.2</ele>
        <time>2018-09-20T09:56:42.000Z</time>
      </trkpt>
      <trkpt lat="46.70218" lon="-2.3683">
        <ele>15.2</ele>
        <time>2018-09-20T09:56:43.000Z</time>
      </trkpt>
      <trkpt lat="46.70218" lon="-2.3683">
        <ele>15.2</ele>
        <time>2018-09-20T09:56:44.000Z</time>
      </trkpt>
      <trkpt lat="46.70218" lon="-2.3683">
        <ele>15.2</ele>
        <time>2018-09-20T09:56:45.000Z</time>
      </trkpt>
      <trkpt lat="46.70218" lon="-2.36829">
        <ele>15.2</ele>
        <time>2018-09-20T09:56:46.000Z</time>
      </trkpt>
      <trkpt lat="46.70218" lon="-2.36829">
        <ele>15.2</ele>
        <time>2018-09-20T09:56:47.000Z</time>
      </trkpt>
      <trkpt lat="46.70218" lon="-2.36829">
        <ele>15.3</ele>
        <time>2018-09-20T09:56:48.000Z</time>
      </trkpt>
      <trkpt lat="46.70218" lon="-2.36829">
        <ele>15.3</ele>
        <time>2018-09-20T09:56:49.000Z</time>
      </trkpt>
      <trkpt lat="46.70218" lon="-2.36829">
        <ele>15.3</ele>
        <time>2018-09-20T09:56:50.000Z</time>
      </trkpt>
      <trkpt lat="46.70218" lon="-2.36828">
        <ele>15.3</ele>
        <time>2018-09-20T09:56:51.000Z</time>
      </trkpt>
      <trkpt lat="46.70218" lon="-2.36828">
        <ele>15.3</ele>
        <time>2018-09-20T09:56:52.000Z</time>
      </trkpt>
      <trkpt lat="46.70218" lon="-2.36828">
        <ele>15.3</ele>
        <time>2018-09-20T09:56:53.000Z</time>
      </trkpt>
      <trkpt lat="46.70218" lon="-2.36828">
        <ele>15.3</ele>
        <time>2018-09-20T09:56:54.000Z</time>
      </trkpt>
      <trkpt lat="46.70218" lon="-2.36827">
        <ele>15.3</ele>
        <time>2018-09-20T09:56:55.000Z</time>
      </trkpt>
      <trkpt lat="46.70218" lon="-2.36827">
        <ele>15.3</ele>
        <time>2018-09-20T09:56:56.000Z</time>
      </trkpt>
      <trkpt lat="46.70218" lon="-2.36827">
        <ele>15.3</ele>
        <time>2018-09-20T09:56:57.000Z</time>
      </trkpt>
      <trkpt lat="46.70219" lon="-2.36826">
        <ele>15.3</ele>
        <time>2018-09-20T09:56:58.000Z</time>
      </trkpt>
      <trkpt lat="46.70219" lon="-2.36826">
        <ele>15.3</ele>
        <time>2018-09-20T09:56:59.000Z</time>
      </trkpt>
      <trkpt lat="46.70219" lon="-2.36826">
        <ele>15.3</ele>
        <time>2018-09-20T09:57:00.000Z</time>
      </trkpt>
      <trkpt lat="46.70219" lon="-2.36825">
        <ele>15.3</ele>
        <time>2018-09-20T09:57:01.000Z</time>
      </trkpt>
      <trkpt lat="46.7022" lon="-2.36825">
        <ele>15.3</ele>
        <time>2018-09-20T09:57:02.000Z</time>
      </trkpt>
      <trkpt lat="46.7022" lon="-2.36825">
        <ele>15.3</ele>
        <time>2018-09-20T09:57:03.000Z</time>
      </trkpt>
      <trkpt lat="46.7022" lon="-2.36825">
        <ele>15.3</ele>
        <time>2018-09-20T09:57:04.000Z</time>
      </trkpt>
      <trkpt lat="46.7022" lon="-2.36824">
        <ele>15.3</ele>
        <time>2018-09-20T09:57:05.000Z</time>
      </trkpt>
      <trkpt lat="46.7022" lon="-2.36824">
        <ele>15.3</ele>
        <time>2018-09-20T09:57:06.000Z</time>
      </trkpt>
      <trkpt lat="46.7022" lon="-2.36824">
        <ele>15.3</ele>
        <time>2018-09-20T09:57:07.000Z</time>
      </trkpt>
      <trkpt lat="46.7022" lon="-2.36824">
        <ele>15.3</ele>
        <time>2018-09-20T09:57:08.000Z</time>
      </trkpt>
      <trkpt lat="46.7022" lon="-2.36824">
        <ele>15.3</ele>
        <time>2018-09-20T09:57:09.000Z</time>
      </trkpt>
      <trkpt lat="46.7022" lon="-2.36824">
        <ele>15.3</ele>
        <time>2018-09-20T09:57:10.000Z</time>
      </trkpt>
      <trkpt lat="46.7022" lon="-2.36824">
        <ele>15.3</ele>
        <time>2018-09-20T09:57:11.000Z</time>
      </trkpt>
      <trkpt lat="46.7022" lon="-2.36824">
        <ele>15.3</ele>
        <time>2018-09-20T09:57:12.000Z</time>
      </trkpt>
      <trkpt lat="46.7022" lon="-2.36824">
        <ele>15.3</ele>
        <time>2018-09-20T09:57:13.000Z</time>
      </trkpt>
      <trkpt lat="46.7022" lon="-2.36824">
        <ele>15.3</ele>
        <time>2018-09-20T09:57:14.000Z</time>
      </trkpt>
      <trkpt lat="46.7022" lon="-2.36824">
        <ele>15.3</ele>
        <time>2018-09-20T09:57:15.000Z</time>
      </trkpt>
      <trkpt lat="46.7022" lon="-2.36824">
        <ele>15.3</ele>
        <time>2018-09-20T09:57:16.000Z</time>
      </trkpt>
      <trkpt lat="46.7022" lon="-2.36824">
        <ele>15.3</ele>
        <time>2018-09-20T09:57:17.000Z</time>
      </trkpt>
      <trkpt lat="46.7022" lon="-2.36824">
        <ele>15.3</ele>
        <time>2018-09-20T09:57:18.000Z</time>
      </trkpt>
      <trkpt lat="46.7022" lon="-2.36824">
        <ele>15.3</ele>
        <time>2018-09-20T09:57:19.000Z</time>
      </trkpt>
      <trkpt lat="46.7022" lon="-2.36824">
        <ele>15.3</ele>
        <time>2018-09-20T09:57:20.000Z</time>
      </trkpt>
      <trkpt lat="46.7022" lon="-2.36824">
        <ele>15.3</ele>
        <time>2018-09-20T09:57:21.000Z</time>
      </trkpt>
      <trkpt lat="46.7022" lon="-2.36824">
        <ele>15.3</ele>
        <time>2018-09-20T09:57:22.000Z</time>
      </trkpt>
      <trkpt lat="46.7022" lon="-2.36824">
        <ele>15.3</ele>
        <time>2018-09-20T09:57:23.000Z</time>
      </trkpt>
      <trkpt lat="46.7022" lon="-2.36824">
        <ele>15.3</ele>
        <time>2018-09-20T09:57:24.000Z</time>
      </trkpt>
      <trkpt lat="46.7022" lon="-2.36824">
        <ele>15.3</ele>
        <time>2018-09-20T09:57:25.000Z</time>
      </trkpt>
      <trkpt lat="46.7022" lon="-2.36824">
        <ele>15.3</ele>
        <time>2018-09-20T09:57:26.000Z</time>
      </trkpt>
      <trkpt lat="46.7022" lon="-2.36824">
        <ele>15.3</ele>
        <time>2018-09-20T09:57:27.000Z</time>
      </trkpt>
      <trkpt lat="46.7022" lon="-2.36823">
        <ele>15.3</ele>
        <time>2018-09-20T09:57:28.000Z</time>
      </trkpt>
      <trkpt lat="46.7022" lon="-2.36823">
        <ele>15.3</ele>
        <time>2018-09-20T09:57:29.000Z</time>
      </trkpt>
      <trkpt lat="46.70221" lon="-2.36821">
        <ele>15.3</ele>
        <time>2018-09-20T09:57:30.000Z</time>
      </trkpt>
      <trkpt lat="46.70221" lon="-2.3682">
        <ele>15.3</ele>
        <time>2018-09-20T09:57:31.000Z</time>
      </trkpt>
      <trkpt lat="46.70222" lon="-2.36819">
        <ele>15.3</ele>
        <time>2018-09-20T09:57:32.000Z</time>
      </trkpt>
      <trkpt lat="46.70222" lon="-2.36818">
        <ele>15.3</ele>
        <time>2018-09-20T09:57:33.000Z</time>
      </trkpt>
      <trkpt lat="46.70223" lon="-2.36817">
        <ele>15.3</ele>
        <time>2018-09-20T09:57:34.000Z</time>
      </trkpt>
      <trkpt lat="46.70223" lon="-2.36816">
        <ele>15.3</ele>
        <time>2018-09-20T09:57:35.000Z</time>
      </trkpt>
      <trkpt lat="46.70224" lon="-2.36815">
        <ele>15.3</ele>
        <time>2018-09-20T09:57:36.000Z</time>
      </trkpt>
      <trkpt lat="46.70224" lon="-2.36814">
        <ele>15.3</ele>
        <time>2018-09-20T09:57:37.000Z</time>
      </trkpt>
      <trkpt lat="46.70225" lon="-2.36813">
        <ele>15.3</ele>
        <time>2018-09-20T09:57:38.000Z</time>
      </trkpt>
      <trkpt lat="46.70225" lon="-2.36812">
        <ele>15.3</ele>
        <time>2018-09-20T09:57:39.000Z</time>
      </trkpt>
      <trkpt lat="46.70226" lon="-2.36811">
        <ele>15.3</ele>
        <time>2018-09-20T09:57:40.000Z</time>
      </trkpt>
      <trkpt lat="46.70226" lon="-2.3681">
        <ele>15.3</ele>
        <time>2018-09-20T09:57:41.000Z</time>
      </trkpt>
      <trkpt lat="46.70227" lon="-2.36809">
        <ele>15.3</ele>
        <time>2018-09-20T09:57:42.000Z</time>
      </trkpt>
      <trkpt lat="46.70227" lon="-2.36808">
        <ele>15.3</ele>
        <time>2018-09-20T09:57:43.000Z</time>
      </trkpt>
      <trkpt lat="46.70227" lon="-2.36807">
        <ele>15.3</ele>
        <time>2018-09-20T09:57:44.000Z</time>
      </trkpt>
      <trkpt lat="46.70227" lon="-2.36806">
        <ele>15.3</ele>
        <time>2018-09-20T09:57:45.000Z</time>
      </trkpt>
      <trkpt lat="46.70228" lon="-2.36805">
        <ele>15.3</ele>
        <time>2018-09-20T09:57:46.000Z</time>
      </trkpt>
      <trkpt lat="46.70228" lon="-2.36805">
        <ele>15.3</ele>
        <time>2018-09-20T09:57:47.000Z</time>
      </trkpt>
      <trkpt lat="46.70228" lon="-2.36804">
        <ele>15.3</ele>
        <time>2018-09-20T09:57:48.000Z</time>
      </trkpt>
      <trkpt lat="46.70228" lon="-2.36803">
        <ele>15.3</ele>
        <time>2018-09-20T09:57:49.000Z</time>
      </trkpt>
      <trkpt lat="46.70228" lon="-2.36803">
        <ele>15.4</ele>
        <time>2018-09-20T09:57:50.000Z</time>
      </trkpt>
      <trkpt lat="46.70228" lon="-2.36802">
        <ele>15.4</ele>
        <time>2018-09-20T09:57:51.000Z</time>
      </trkpt>
      <trkpt lat="46.70228" lon="-2.36802">
        <ele>15.4</ele>
        <time>2018-09-20T09:57:52.000Z</time>
      </trkpt>
      <trkpt lat="46.70228" lon="-2.36802">
        <ele>15.4</ele>
        <time>2018-09-20T09:57:53.000Z</time>
      </trkpt>
      <trkpt lat="46.70228" lon="-2.36801">
        <ele>15.4</ele>
        <time>2018-09-20T09:57:54.000Z</time>
      </trkpt>
      <trkpt lat="46.70228" lon="-2.36801">
        <ele>15.4</ele>
        <time>2018-09-20T09:57:55.000Z</time>
      </trkpt>
      <trkpt lat="46.70228" lon="-2.36801">
        <ele>15.4</ele>
        <time>2018-09-20T09:57:56.000Z</time>
      </trkpt>
      <trkpt lat="46.70228" lon="-2.368">
        <ele>15.4</ele>
        <time>2018-09-20T09:57:57.000Z</time>
      </trkpt>
      <trkpt lat="46.70228" lon="-2.368">
        <ele>15.4</ele>
        <time>2018-09-20T09:57:58.000Z</time>
      </trkpt>
      <trkpt lat="46.70228" lon="-2.368">
        <ele>15.4</ele>
        <time>2018-09-20T09:57:59.000Z</time>
      </trkpt>
      <trkpt lat="46.70228" lon="-2.36799">
        <ele>15.4</ele>
        <time>2018-09-20T09:58:00.000Z</time>
      </trkpt>
      <trkpt lat="46.70228" lon="-2.36799">
        <ele>15.4</ele>
        <time>2018-09-20T09:58:01.000Z</time>
      </trkpt>
      <trkpt lat="46.70228" lon="-2.36798">
        <ele>15.4</ele>
        <time>2018-09-20T09:58:02.000Z</time>
      </trkpt>
      <trkpt lat="46.70228" lon="-2.36798">
        <ele>15.4</ele>
        <time>2018-09-20T09:58:03.000Z</time>
      </trkpt>
      <trkpt lat="46.70228" lon="-2.36798">
        <ele>15.4</ele>
        <time>2018-09-20T09:58:04.000Z</time>
      </trkpt>
      <trkpt lat="46.70228" lon="-2.36797">
        <ele>15.5</ele>
        <time>2018-09-20T09:58:05.000Z</time>
      </trkpt>
      <trkpt lat="46.70228" lon="-2.36797">
        <ele>15.5</ele>
        <time>2018-09-20T09:58:06.000Z</time>
      </trkpt>
      <trkpt lat="46.70228" lon="-2.36797">
        <ele>15.5</ele>
        <time>2018-09-20T09:58:07.000Z</time>
      </trkpt>
      <trkpt lat="46.70228" lon="-2.36796">
        <ele>15.5</ele>
        <time>2018-09-20T09:58:08.000Z</time>
      </trkpt>
      <trkpt lat="46.70228" lon="-2.36796">
        <ele>15.5</ele>
        <time>2018-09-20T09:58:09.000Z</time>
      </trkpt>
      <trkpt lat="46.70228" lon="-2.36796">
        <ele>15.5</ele>
        <time>2018-09-20T09:58:10.000Z</time>
      </trkpt>
      <trkpt lat="46.70228" lon="-2.36796">
        <ele>15.5</ele>
        <time>2018-09-20T09:58:11.000Z</time>
      </trkpt>
      <trkpt lat="46.70227" lon="-2.36795">
        <ele>15.5</ele>
        <time>2018-09-20T09:58:12.000Z</time>
      </trkpt>
      <trkpt lat="46.70227" lon="-2.36795">
        <ele>15.5</ele>
        <time>2018-09-20T09:58:13.000Z</time>
      </trkpt>
      <trkpt lat="46.70227" lon="-2.36795">
        <ele>15.5</ele>
        <time>2018-09-20T09:58:14.000Z</time>
      </trkpt>
      <trkpt lat="46.70227" lon="-2.36795">
        <ele>15.5</ele>
        <time>2018-09-20T09:58:15.000Z</time>
      </trkpt>
      <trkpt lat="46.70227" lon="-2.36795">
        <ele>15.6</ele>
        <time>2018-09-20T09:58:16.000Z</time>
      </trkpt>
      <trkpt lat="46.70226" lon="-2.36795">
        <ele>15.6</ele>
        <time>2018-09-20T09:58:17.000Z</time>
      </trkpt>
      <trkpt lat="46.70226" lon="-2.36795">
        <ele>15.6</ele>
        <time>2018-09-20T09:58:18.000Z</time>
      </trkpt>
      <trkpt lat="46.70226" lon="-2.36795">
        <ele>15.6</ele>
        <time>2018-09-20T09:58:19.000Z</time>
      </trkpt>
      <trkpt lat="46.70226" lon="-2.36795">
        <ele>15.6</ele>
        <time>2018-09-20T09:58:20.000Z</time>
      </trkpt>
      <trkpt lat="46.70226" lon="-2.36795">
        <ele>15.6</ele>
        <time>2018-09-20T09:58:21.000Z</time>
      </trkpt>
      <trkpt lat="46.70226" lon="-2.36796">
        <ele>15.6</ele>
        <time>2018-09-20T09:58:22.000Z</time>
      </trkpt>
      <trkpt lat="46.70226" lon="-2.36796">
        <ele>15.6</ele>
        <time>2018-09-20T09:58:23.000Z</time>
      </trkpt>
      <trkpt lat="46.70226" lon="-2.36796">
        <ele>15.6</ele>
        <time>2018-09-20T09:58:24.000Z</time>
      </trkpt>
      <trkpt lat="46.70226" lon="-2.36796">
        <ele>15.6</ele>
        <time>2018-09-20T09:58:25.000Z</time>
      </trkpt>
      <trkpt lat="46.70226" lon="-2.36795">
        <ele>15.6</ele>
        <time>2018-09-20T09:58:26.000Z</time>
      </trkpt>
      <trkpt lat="46.70226" lon="-2.36795">
        <ele>15.6</ele>
        <time>2018-09-20T09:58:27.000Z</time>
      </trkpt>
      <trkpt lat="46.70226" lon="-2.36794">
        <ele>15.6</ele>
        <time>2018-09-20T09:58:28.000Z</time>
      </trkpt>
      <trkpt lat="46.70226" lon="-2.36793">
        <ele>15.6</ele>
        <time>2018-09-20T09:58:29.000Z</time>
      </trkpt>
      <trkpt lat="46.70226" lon="-2.36793">
        <ele>15.6</ele>
        <time>2018-09-20T09:58:30.000Z</time>
      </trkpt>
      <trkpt lat="46.70226" lon="-2.36792">
        <ele>15.7</ele>
        <time>2018-09-20T09:58:31.000Z</time>
      </trkpt>
      <trkpt lat="46.70225" lon="-2.36791">
        <ele>15.7</ele>
        <time>2018-09-20T09:58:32.000Z</time>
      </trkpt>
      <trkpt lat="46.70224" lon="-2.36791">
        <ele>15.8</ele>
        <time>2018-09-20T09:58:33.000Z</time>
      </trkpt>
      <trkpt lat="46.70224" lon="-2.36791">
        <ele>15.8</ele>
        <time>2018-09-20T09:58:34.000Z</time>
      </trkpt>
      <trkpt lat="46.70223" lon="-2.3679">
        <ele>15.8</ele>
        <time>2018-09-20T09:58:35.000Z</time>
      </trkpt>
      <trkpt lat="46.70222" lon="-2.3679">
        <ele>15.9</ele>
        <time>2018-09-20T09:58:36.000Z</time>
      </trkpt>
      <trkpt lat="46.70221" lon="-2.36791">
        <ele>15.9</ele>
        <time>2018-09-20T09:58:37.000Z</time>
      </trkpt>
      <trkpt lat="46.70221" lon="-2.36791">
        <ele>15.9</ele>
        <time>2018-09-20T09:58:38.000Z</time>
      </trkpt>
      <trkpt lat="46.7022" lon="-2.36791">
        <ele>15.9</ele>
        <time>2018-09-20T09:58:39.000Z</time>
      </trkpt>
      <trkpt lat="46.7022" lon="-2.36791">
        <ele>16</ele>
        <time>2018-09-20T09:58:40.000Z</time>
      </trkpt>
      <trkpt lat="46.70219" lon="-2.36792">
        <ele>16</ele>
        <time>2018-09-20T09:58:41.000Z</time>
      </trkpt>
      <trkpt lat="46.70219" lon="-2.36792">
        <ele>16</ele>
        <time>2018-09-20T09:58:42.000Z</time>
      </trkpt>
      <trkpt lat="46.70218" lon="-2.36792">
        <ele>16</ele>
        <time>2018-09-20T09:58:43.000Z</time>
      </trkpt>
      <trkpt lat="46.70217" lon="-2.36792">
        <ele>16.1</ele>
        <time>2018-09-20T09:58:44.000Z</time>
      </trkpt>
      <trkpt lat="46.70217" lon="-2.36792">
        <ele>16.1</ele>
        <time>2018-09-20T09:58:45.000Z</time>
      </trkpt>
      <trkpt lat="46.70216" lon="-2.36792">
        <ele>16.1</ele>
        <time>2018-09-20T09:58:46.000Z</time>
      </trkpt>
      <trkpt lat="46.70215" lon="-2.36792">
        <ele>16.2</ele>
        <time>2018-09-20T09:58:47.000Z</time>
      </trkpt>
      <trkpt lat="46.70215" lon="-2.36792">
        <ele>16.2</ele>
        <time>2018-09-20T09:58:48.000Z</time>
      </trkpt>
      <trkpt lat="46.70214" lon="-2.36791">
        <ele>16.2</ele>
        <time>2018-09-20T09:58:49.000Z</time>
      </trkpt>
      <trkpt lat="46.70213" lon="-2.36791">
        <ele>16.3</ele>
        <time>2018-09-20T09:58:50.000Z</time>
      </trkpt>
      <trkpt lat="46.70212" lon="-2.36791">
        <ele>16.3</ele>
        <time>2018-09-20T09:58:51.000Z</time>
      </trkpt>
      <trkpt lat="46.70212" lon="-2.36791">
        <ele>16.4</ele>
        <time>2018-09-20T09:58:52.000Z</time>
      </trkpt>
      <trkpt lat="46.70211" lon="-2.36791">
        <ele>16.4</ele>
        <time>2018-09-20T09:58:53.000Z</time>
      </trkpt>
      <trkpt lat="46.7021" lon="-2.36791">
        <ele>16.4</ele>
        <time>2018-09-20T09:58:54.000Z</time>
      </trkpt>
      <trkpt lat="46.70209" lon="-2.3679">
        <ele>16.5</ele>
        <time>2018-09-20T09:58:55.000Z</time>
      </trkpt>
      <trkpt lat="46.70209" lon="-2.3679">
        <ele>16.5</ele>
        <time>2018-09-20T09:58:56.000Z</time>
      </trkpt>
      <trkpt lat="46.70208" lon="-2.36791">
        <ele>16.5</ele>
        <time>2018-09-20T09:58:57.000Z</time>
      </trkpt>
      <trkpt lat="46.70207" lon="-2.36791">
        <ele>16.6</ele>
        <time>2018-09-20T09:58:58.000Z</time>
      </trkpt>
      <trkpt lat="46.70207" lon="-2.36791">
        <ele>16.6</ele>
        <time>2018-09-20T09:58:59.000Z</time>
      </trkpt>
      <trkpt lat="46.70206" lon="-2.36791">
        <ele>16.6</ele>
        <time>2018-09-20T09:59:00.000Z</time>
      </trkpt>
      <trkpt lat="46.70205" lon="-2.36792">
        <ele>16.6</ele>
        <time>2018-09-20T09:59:01.000Z</time>
      </trkpt>
      <trkpt lat="46.70205" lon="-2.36792">
        <ele>16.7</ele>
        <time>2018-09-20T09:59:02.000Z</time>
      </trkpt>
      <trkpt lat="46.70204" lon="-2.36793">
        <ele>16.7</ele>
        <time>2018-09-20T09:59:03.000Z</time>
      </trkpt>
      <trkpt lat="46.70204" lon="-2.36793">
        <ele>16.7</ele>
        <time>2018-09-20T09:59:04.000Z</time>
      </trkpt>
      <trkpt lat="46.70204" lon="-2.36794">
        <ele>16.7</ele>
        <time>2018-09-20T09:59:05.000Z</time>
      </trkpt>
      <trkpt lat="46.70203" lon="-2.36795">
        <ele>16.7</ele>
        <time>2018-09-20T09:59:06.000Z</time>
      </trkpt>
      <trkpt lat="46.70203" lon="-2.36796">
        <ele>16.6</ele>
        <time>2018-09-20T09:59:07.000Z</time>
      </trkpt>
      <trkpt lat="46.70203" lon="-2.36797">
        <ele>16.6</ele>
        <time>2018-09-20T09:59:08.000Z</time>
      </trkpt>
      <trkpt lat="46.70202" lon="-2.36798">
        <ele>16.6</ele>
        <time>2018-09-20T09:59:09.000Z</time>
      </trkpt>
      <trkpt lat="46.70202" lon="-2.36799">
        <ele>16.6</ele>
        <time>2018-09-20T09:59:10.000Z</time>
      </trkpt>
      <trkpt lat="46.70201" lon="-2.368">
        <ele>16.6</ele>
        <time>2018-09-20T09:59:11.000Z</time>
      </trkpt>
      <trkpt lat="46.70201" lon="-2.36801">
        <ele>16.6</ele>
        <time>2018-09-20T09:59:12.000Z</time>
      </trkpt>
      <trkpt lat="46.702" lon="-2.36802">
        <ele>16.6</ele>
        <time>2018-09-20T09:59:13.000Z</time>
      </trkpt>
      <trkpt lat="46.702" lon="-2.36803">
        <ele>16.6</ele>
        <time>2018-09-20T09:59:14.000Z</time>
      </trkpt>
      <trkpt lat="46.70199" lon="-2.36804">
        <ele>16.6</ele>
        <time>2018-09-20T09:59:15.000Z</time>
      </trkpt>
      <trkpt lat="46.70198" lon="-2.36805">
        <ele>16.6</ele>
        <time>2018-09-20T09:59:16.000Z</time>
      </trkpt>
      <trkpt lat="46.70197" lon="-2.36805">
        <ele>16.7</ele>
        <time>2018-09-20T09:59:17.000Z</time>
      </trkpt>
      <trkpt lat="46.70196" lon="-2.36806">
        <ele>16.7</ele>
        <time>2018-09-20T09:59:18.000Z</time>
      </trkpt>
      <trkpt lat="46.70195" lon="-2.36806">
        <ele>16.7</ele>
        <time>2018-09-20T09:59:19.000Z</time>
      </trkpt>
      <trkpt lat="46.70194" lon="-2.36807">
        <ele>16.7</ele>
        <time>2018-09-20T09:59:20.000Z</time>
      </trkpt>
      <trkpt lat="46.70193" lon="-2.36808">
        <ele>16.8</ele>
        <time>2018-09-20T09:59:21.000Z</time>
      </trkpt>
      <trkpt lat="46.70192" lon="-2.36808">
        <ele>16.8</ele>
        <time>2018-09-20T09:59:22.000Z</time>
      </trkpt>
      <trkpt lat="46.70191" lon="-2.36809">
        <ele>16.8</ele>
        <time>2018-09-20T09:59:23.000Z</time>
      </trkpt>
      <trkpt lat="46.7019" lon="-2.3681">
        <ele>16.8</ele>
        <time>2018-09-20T09:59:24.000Z</time>
      </trkpt>
      <trkpt lat="46.70189" lon="-2.36811">
        <ele>16.8</ele>
        <time>2018-09-20T09:59:25.000Z</time>
      </trkpt>
      <trkpt lat="46.70188" lon="-2.36812">
        <ele>16.8</ele>
        <time>2018-09-20T09:59:26.000Z</time>
      </trkpt>
      <trkpt lat="46.70188" lon="-2.36813">
        <ele>16.8</ele>
        <time>2018-09-20T09:59:27.000Z</time>
      </trkpt>
      <trkpt lat="46.70187" lon="-2.36815">
        <ele>16.8</ele>
        <time>2018-09-20T09:59:28.000Z</time>
      </trkpt>
      <trkpt lat="46.70186" lon="-2.36816">
        <ele>16.8</ele>
        <time>2018-09-20T09:59:29.000Z</time>
      </trkpt>
      <trkpt lat="46.70185" lon="-2.36817">
        <ele>16.8</ele>
        <time>2018-09-20T09:59:30.000Z</time>
      </trkpt>
      <trkpt lat="46.70185" lon="-2.36819">
        <ele>16.8</ele>
        <time>2018-09-20T09:59:31.000Z</time>
      </trkpt>
      <trkpt lat="46.70184" lon="-2.3682">
        <ele>16.8</ele>
        <time>2018-09-20T09:59:32.000Z</time>
      </trkpt>
      <trkpt lat="46.70183" lon="-2.36821">
        <ele>16.8</ele>
        <time>2018-09-20T09:59:33.000Z</time>
      </trkpt>
      <trkpt lat="46.70182" lon="-2.36822">
        <ele>16.8</ele>
        <time>2018-09-20T09:59:34.000Z</time>
      </trkpt>
      <trkpt lat="46.70182" lon="-2.36822">
        <ele>16.8</ele>
        <time>2018-09-20T09:59:35.000Z</time>
      </trkpt>
      <trkpt lat="46.70181" lon="-2.36823">
        <ele>16.8</ele>
        <time>2018-09-20T09:59:36.000Z</time>
      </trkpt>
      <trkpt lat="46.7018" lon="-2.36823">
        <ele>16.8</ele>
        <time>2018-09-20T09:59:37.000Z</time>
      </trkpt>
      <trkpt lat="46.70179" lon="-2.36824">
        <ele>16.9</ele>
        <time>2018-09-20T09:59:38.000Z</time>
      </trkpt>
      <trkpt lat="46.70178" lon="-2.36824">
        <ele>16.9</ele>
        <time>2018-09-20T09:59:39.000Z</time>
      </trkpt>
      <trkpt lat="46.70178" lon="-2.36824">
        <ele>16.9</ele>
        <time>2018-09-20T09:59:40.000Z</time>
      </trkpt>
      <trkpt lat="46.70177" lon="-2.36824">
        <ele>17</ele>
        <time>2018-09-20T09:59:41.000Z</time>
      </trkpt>
      <trkpt lat="46.70176" lon="-2.36824">
        <ele>17</ele>
        <time>2018-09-20T09:59:42.000Z</time>
      </trkpt>
      <trkpt lat="46.70175" lon="-2.36824">
        <ele>17</ele>
        <time>2018-09-20T09:59:43.000Z</time>
      </trkpt>
      <trkpt lat="46.70174" lon="-2.36823">
        <ele>17.1</ele>
        <time>2018-09-20T09:59:44.000Z</time>
      </trkpt>
      <trkpt lat="46.70173" lon="-2.36823">
        <ele>17.1</ele>
        <time>2018-09-20T09:59:45.000Z</time>
      </trkpt>
      <trkpt lat="46.70172" lon="-2.36823">
        <ele>17.2</ele>
        <time>2018-09-20T09:59:46.000Z</time>
      </trkpt>
      <trkpt lat="46.70171" lon="-2.36823">
        <ele>17.2</ele>
        <time>2018-09-20T09:59:47.000Z</time>
      </trkpt>
      <trkpt lat="46.7017" lon="-2.36823">
        <ele>17.3</ele>
        <time>2018-09-20T09:59:48.000Z</time>
      </trkpt>
      <trkpt lat="46.70169" lon="-2.36823">
        <ele>17.3</ele>
        <time>2018-09-20T09:59:49.000Z</time>
      </trkpt>
      <trkpt lat="46.70167" lon="-2.36822">
        <ele>17.4</ele>
        <time>2018-09-20T09:59:50.000Z</time>
      </trkpt>
      <trkpt lat="46.70166" lon="-2.36822">
        <ele>17.4</ele>
        <time>2018-09-20T09:59:51.000Z</time>
      </trkpt>
      <trkpt lat="46.70165" lon="-2.36822">
        <ele>17.4</ele>
        <time>2018-09-20T09:59:52.000Z</time>
      </trkpt>
      <trkpt lat="46.70164" lon="-2.36822">
        <ele>17.3</ele>
        <time>2018-09-20T09:59:53.000Z</time>
      </trkpt>
      <trkpt lat="46.70163" lon="-2.36822">
        <ele>17.3</ele>
        <time>2018-09-20T09:59:54.000Z</time>
      </trkpt>
      <trkpt lat="46.70162" lon="-2.36821">
        <ele>17.3</ele>
        <time>2018-09-20T09:59:55.000Z</time>
      </trkpt>
      <trkpt lat="46.70161" lon="-2.36821">
        <ele>17.3</ele>
        <time>2018-09-20T09:59:56.000Z</time>
      </trkpt>
      <trkpt lat="46.7016" lon="-2.36821">
        <ele>17.3</ele>
        <time>2018-09-20T09:59:57.000Z</time>
      </trkpt>
      <trkpt lat="46.70159" lon="-2.3682">
        <ele>17.2</ele>
        <time>2018-09-20T09:59:58.000Z</time>
      </trkpt>
      <trkpt lat="46.70158" lon="-2.3682">
        <ele>17.2</ele>
        <time>2018-09-20T09:59:59.000Z</time>
      </trkpt>
      <trkpt lat="46.70157" lon="-2.36819">
        <ele>17.2</ele>
        <time>2018-09-20T10:00:00.000Z</time>
      </trkpt>
      <trkpt lat="46.70156" lon="-2.36819">
        <ele>17.2</ele>
        <time>2018-09-20T10:00:01.000Z</time>
      </trkpt>
      <trkpt lat="46.70156" lon="-2.36818">
        <ele>17.2</ele>
        <time>2018-09-20T10:00:02.000Z</time>
      </trkpt>
      <trkpt lat="46.70155" lon="-2.36818">
        <ele>17.2</ele>
        <time>2018-09-20T10:00:03.000Z</time>
      </trkpt>
      <trkpt lat="46.70154" lon="-2.36817">
        <ele>17.2</ele>
        <time>2018-09-20T10:00:04.000Z</time>
      </trkpt>
      <trkpt lat="46.70153" lon="-2.36817">
        <ele>17.2</ele>
        <time>2018-09-20T10:00:05.000Z</time>
      </trkpt>
      <trkpt lat="46.70152" lon="-2.36816">
        <ele>17.2</ele>
        <time>2018-09-20T10:00:06.000Z</time>
      </trkpt>
      <trkpt lat="46.70151" lon="-2.36816">
        <ele>17.2</ele>
        <time>2018-09-20T10:00:07.000Z</time>
      </trkpt>
      <trkpt lat="46.7015" lon="-2.36816">
        <ele>17.2</ele>
        <time>2018-09-20T10:00:08.000Z</time>
      </trkpt>
      <trkpt lat="46.70149" lon="-2.36815">
        <ele>17.1</ele>
        <time>2018-09-20T10:00:09.000Z</time>
      </trkpt>
      <trkpt lat="46.70148" lon="-2.36815">
        <ele>17.1</ele>
        <time>2018-09-20T10:00:10.000Z</time>
      </trkpt>
      <trkpt lat="46.70147" lon="-2.36815">
        <ele>17.1</ele>
        <time>2018-09-20T10:00:11.000Z</time>
      </trkpt>
      <trkpt lat="46.70145" lon="-2.36815">
        <ele>17.1</ele>
        <time>2018-09-20T10:00:12.000Z</time>
      </trkpt>
      <trkpt lat="46.70144" lon="-2.36815">
        <ele>17</ele>
        <time>2018-09-20T10:00:13.000Z</time>
      </trkpt>
      <trkpt lat="46.70143" lon="-2.36815">
        <ele>17</ele>
        <time>2018-09-20T10:00:14.000Z</time>
      </trkpt>
      <trkpt lat="46.70142" lon="-2.36815">
        <ele>17</ele>
        <time>2018-09-20T10:00:15.000Z</time>
      </trkpt>
      <trkpt lat="46.70141" lon="-2.36815">
        <ele>16.9</ele>
        <time>2018-09-20T10:00:16.000Z</time>
      </trkpt>
      <trkpt lat="46.70139" lon="-2.36815">
        <ele>16.9</ele>
        <time>2018-09-20T10:00:17.000Z</time>
      </trkpt>
      <trkpt lat="46.70138" lon="-2.36815">
        <ele>16.9</ele>
        <time>2018-09-20T10:00:18.000Z</time>
      </trkpt>
      <trkpt lat="46.70137" lon="-2.36814">
        <ele>16.9</ele>
        <time>2018-09-20T10:00:19.000Z</time>
      </trkpt>
      <trkpt lat="46.70136" lon="-2.36814">
        <ele>16.8</ele>
        <time>2018-09-20T10:00:20.000Z</time>
      </trkpt>
      <trkpt lat="46.70135" lon="-2.36814">
        <ele>16.8</ele>
        <time>2018-09-20T10:00:21.000Z</time>
      </trkpt>
      <trkpt lat="46.70134" lon="-2.36814">
        <ele>16.8</ele>
        <time>2018-09-20T10:00:22.000Z</time>
      </trkpt>
      <trkpt lat="46.70133" lon="-2.36813">
        <ele>16.8</ele>
        <time>2018-09-20T10:00:23.000Z</time>
      </trkpt>
      <trkpt lat="46.70132" lon="-2.36813">
        <ele>16.8</ele>
        <time>2018-09-20T10:00:24.000Z</time>
      </trkpt>
      <trkpt lat="46.70131" lon="-2.36813">
        <ele>16.8</ele>
        <time>2018-09-20T10:00:25.000Z</time>
      </trkpt>
      <trkpt lat="46.7013" lon="-2.36813">
        <ele>16.7</ele>
        <time>2018-09-20T10:00:26.000Z</time>
      </trkpt>
      <trkpt lat="46.70129" lon="-2.36813">
        <ele>16.7</ele>
        <time>2018-09-20T10:00:27.000Z</time>
      </trkpt>
      <trkpt lat="46.70128" lon="-2.36812">
        <ele>16.7</ele>
        <time>2018-09-20T10:00:28.000Z</time>
      </trkpt>
      <trkpt lat="46.70127" lon="-2.36812">
        <ele>16.7</ele>
        <time>2018-09-20T10:00:29.000Z</time>
      </trkpt>
      <trkpt lat="46.70126" lon="-2.36813">
        <ele>16.6</ele>
        <time>2018-09-20T10:00:30.000Z</time>
      </trkpt>
      <trkpt lat="46.70125" lon="-2.36813">
        <ele>16.6</ele>
        <time>2018-09-20T10:00:31.000Z</time>
      </trkpt>
      <trkpt lat="46.70124" lon="-2.36813">
        <ele>16.6</ele>
        <time>2018-09-20T10:00:32.000Z</time>
      </trkpt>
      <trkpt lat="46.70123" lon="-2.36813">
        <ele>16.5</ele>
        <time>2018-09-20T10:00:33.000Z</time>
      </trkpt>
      <trkpt lat="46.70122" lon="-2.36813">
        <ele>16.5</ele>
        <time>2018-09-20T10:00:34.000Z</time>
      </trkpt>
      <trkpt lat="46.7012" lon="-2.36813">
        <ele>16.5</ele>
        <time>2018-09-20T10:00:35.000Z</time>
      </trkpt>
      <trkpt lat="46.70119" lon="-2.36813">
        <ele>16.4</ele>
        <time>2018-09-20T10:00:36.000Z</time>
      </trkpt>
      <trkpt lat="46.70118" lon="-2.36813">
        <ele>16.4</ele>
        <time>2018-09-20T10:00:37.000Z</time>
      </trkpt>
      <trkpt lat="46.70117" lon="-2.36813">
        <ele>16.4</ele>
        <time>2018-09-20T10:00:38.000Z</time>
      </trkpt>
      <trkpt lat="46.70116" lon="-2.36813">
        <ele>16.4</ele>
        <time>2018-09-20T10:00:39.000Z</time>
      </trkpt>
      <trkpt lat="46.70115" lon="-2.36813">
        <ele>16.3</ele>
        <time>2018-09-20T10:00:40.000Z</time>
      </trkpt>
      <trkpt lat="46.70114" lon="-2.36812">
        <ele>16.3</ele>
        <time>2018-09-20T10:00:41.000Z</time>
      </trkpt>
      <trkpt lat="46.70113" lon="-2.36812">
        <ele>16.4</ele>
        <time>2018-09-20T10:00:42.000Z</time>
      </trkpt>
      <trkpt lat="46.70112" lon="-2.36811">
        <ele>16.4</ele>
        <time>2018-09-20T10:00:43.000Z</time>
      </trkpt>
      <trkpt lat="46.70111" lon="-2.3681">
        <ele>16.4</ele>
        <time>2018-09-20T10:00:44.000Z</time>
      </trkpt>
      <trkpt lat="46.7011" lon="-2.3681">
        <ele>16.4</ele>
        <time>2018-09-20T10:00:45.000Z</time>
      </trkpt>
      <trkpt lat="46.70109" lon="-2.36809">
        <ele>16.4</ele>
        <time>2018-09-20T10:00:46.000Z</time>
      </trkpt>
      <trkpt lat="46.70107" lon="-2.36809">
        <ele>16.4</ele>
        <time>2018-09-20T10:00:47.000Z</time>
      </trkpt>
      <trkpt lat="46.70106" lon="-2.36809">
        <ele>16.4</ele>
        <time>2018-09-20T10:00:48.000Z</time>
      </trkpt>
      <trkpt lat="46.70105" lon="-2.36809">
        <ele>16.3</ele>
        <time>2018-09-20T10:00:49.000Z</time>
      </trkpt>
      <trkpt lat="46.70104" lon="-2.36809">
        <ele>16.3</ele>
        <time>2018-09-20T10:00:50.000Z</time>
      </trkpt>
      <trkpt lat="46.70103" lon="-2.36809">
        <ele>16.3</ele>
        <time>2018-09-20T10:00:51.000Z</time>
      </trkpt>
      <trkpt lat="46.70102" lon="-2.36808">
        <ele>16.3</ele>
        <time>2018-09-20T10:00:52.000Z</time>
      </trkpt>
      <trkpt lat="46.70101" lon="-2.36808">
        <ele>16.3</ele>
        <time>2018-09-20T10:00:53.000Z</time>
      </trkpt>
      <trkpt lat="46.701" lon="-2.36808">
        <ele>16.3</ele>
        <time>2018-09-20T10:00:54.000Z</time>
      </trkpt>
      <trkpt lat="46.70099" lon="-2.36807">
        <ele>16.3</ele>
        <time>2018-09-20T10:00:55.000Z</time>
      </trkpt>
      <trkpt lat="46.70098" lon="-2.36807">
        <ele>16.3</ele>
        <time>2018-09-20T10:00:56.000Z</time>
      </trkpt>
      <trkpt lat="46.70097" lon="-2.36807">
        <ele>16.2</ele>
        <time>2018-09-20T10:00:57.000Z</time>
      </trkpt>
      <trkpt lat="46.70096" lon="-2.36807">
        <ele>16.2</ele>
        <time>2018-09-20T10:00:58.000Z</time>
      </trkpt>
      <trkpt lat="46.70095" lon="-2.36807">
        <ele>16.2</ele>
        <time>2018-09-20T10:00:59.000Z</time>
      </trkpt>
      <trkpt lat="46.70094" lon="-2.36807">
        <ele>16.2</ele>
        <time>2018-09-20T10:01:00.000Z</time>
      </trkpt>
      <trkpt lat="46.70093" lon="-2.36807">
        <ele>16.1</ele>
        <time>2018-09-20T10:01:01.000Z</time>
      </trkpt>
      <trkpt lat="46.70092" lon="-2.36807">
        <ele>16.1</ele>
        <time>2018-09-20T10:01:02.000Z</time>
      </trkpt>
      <trkpt lat="46.70091" lon="-2.36807">
        <ele>16.1</ele>
        <time>2018-09-20T10:01:03.000Z</time>
      </trkpt>
      <trkpt lat="46.7009" lon="-2.36808">
        <ele>16</ele>
        <time>2018-09-20T10:01:04.000Z</time>
      </trkpt>
      <trkpt lat="46.70089" lon="-2.36808">
        <ele>16</ele>
        <time>2018-09-20T10:01:05.000Z</time>
      </trkpt>
      <trkpt lat="46.70088" lon="-2.36808">
        <ele>16</ele>
        <time>2018-09-20T10:01:06.000Z</time>
      </trkpt>
      <trkpt lat="46.70087" lon="-2.36808">
        <ele>15.9</ele>
        <time>2018-09-20T10:01:07.000Z</time>
      </trkpt>
      <trkpt lat="46.70086" lon="-2.36808">
        <ele>15.9</ele>
        <time>2018-09-20T10:01:08.000Z</time>
      </trkpt>
      <trkpt lat="46.70085" lon="-2.36808">
        <ele>15.9</ele>
        <time>2018-09-20T10:01:09.000Z</time>
      </trkpt>
      <trkpt lat="46.70084" lon="-2.36808">
        <ele>15.8</ele>
        <time>2018-09-20T10:01:10.000Z</time>
      </trkpt>
      <trkpt lat="46.70084" lon="-2.36808">
        <ele>15.8</ele>
        <time>2018-09-20T10:01:11.000Z</time>
      </trkpt>
      <trkpt lat="46.70083" lon="-2.36808">
        <ele>15.8</ele>
        <time>2018-09-20T10:01:12.000Z</time>
      </trkpt>
      <trkpt lat="46.70082" lon="-2.36808">
        <ele>15.8</ele>
        <time>2018-09-20T10:01:13.000Z</time>
      </trkpt>
      <trkpt lat="46.70081" lon="-2.36808">
        <ele>15.7</ele>
        <time>2018-09-20T10:01:14.000Z</time>
      </trkpt>
      <trkpt lat="46.7008" lon="-2.36807">
        <ele>15.7</ele>
        <time>2018-09-20T10:01:15.000Z</time>
      </trkpt>
      <trkpt lat="46.70079" lon="-2.36806">
        <ele>15.7</ele>
        <time>2018-09-20T10:01:16.000Z</time>
      </trkpt>
      <trkpt lat="46.70078" lon="-2.36806">
        <ele>15.7</ele>
        <time>2018-09-20T10:01:17.000Z</time>
      </trkpt>
      <trkpt lat="46.70077" lon="-2.36805">
        <ele>15.7</ele>
        <time>2018-09-20T10:01:18.000Z</time>
      </trkpt>
      <trkpt lat="46.70076" lon="-2.36805">
        <ele>15.7</ele>
        <time>2018-09-20T10:01:19.000Z</time>
      </trkpt>
      <trkpt lat="46.70075" lon="-2.36804">
        <ele>15.7</ele>
        <time>2018-09-20T10:01:20.000Z</time>
      </trkpt>
      <trkpt lat="46.70074" lon="-2.36804">
        <ele>15.7</ele>
        <time>2018-09-20T10:01:21.000Z</time>
      </trkpt>
      <trkpt lat="46.70073" lon="-2.36804">
        <ele>15.6</ele>
        <time>2018-09-20T10:01:22.000Z</time>
      </trkpt>
      <trkpt lat="46.70072" lon="-2.36803">
        <ele>15.6</ele>
        <time>2018-09-20T10:01:23.000Z</time>
      </trkpt>
      <trkpt lat="46.70071" lon="-2.36803">
        <ele>15.6</ele>
        <time>2018-09-20T10:01:24.000Z</time>
      </trkpt>
      <trkpt lat="46.7007" lon="-2.36803">
        <ele>15.6</ele>
        <time>2018-09-20T10:01:25.000Z</time>
      </trkpt>
      <trkpt lat="46.70069" lon="-2.36803">
        <ele>15.5</ele>
        <time>2018-09-20T10:01:26.000Z</time>
      </trkpt>
      <trkpt lat="46.70068" lon="-2.36802">
        <ele>15.5</ele>
        <time>2018-09-20T10:01:27.000Z</time>
      </trkpt>
      <trkpt lat="46.70067" lon="-2.36802">
        <ele>15.5</ele>
        <time>2018-09-20T10:01:28.000Z</time>
      </trkpt>
      <trkpt lat="46.70067" lon="-2.36802">
        <ele>15.5</ele>
        <time>2018-09-20T10:01:29.000Z</time>
      </trkpt>
      <trkpt lat="46.70067" lon="-2.36802">
        <ele>15.5</ele>
        <time>2018-09-20T10:01:30.000Z</time>
      </trkpt>
      <trkpt lat="46.70066" lon="-2.36802">
        <ele>15.5</ele>
        <time>2018-09-20T10:01:31.000Z</time>
      </trkpt>
      <trkpt lat="46.70066" lon="-2.36802">
        <ele>15.5</ele>
        <time>2018-09-20T10:01:32.000Z</time>
      </trkpt>
      <trkpt lat="46.70066" lon="-2.36802">
        <ele>15.5</ele>
        <time>2018-09-20T10:01:33.000Z</time>
      </trkpt>
      <trkpt lat="46.70066" lon="-2.36802">
        <ele>15.5</ele>
        <time>2018-09-20T10:01:34.000Z</time>
      </trkpt>
      <trkpt lat="46.70066" lon="-2.36802">
        <ele>15.5</ele>
        <time>2018-09-20T10:01:35.000Z</time>
      </trkpt>
      <trkpt lat="46.70066" lon="-2.36802">
        <ele>15.5</ele>
        <time>2018-09-20T10:01:36.000Z</time>
      </trkpt>
      <trkpt lat="46.70066" lon="-2.36802">
        <ele>15.5</ele>
        <time>2018-09-20T10:01:37.000Z</time>
      </trkpt>
      <trkpt lat="46.70066" lon="-2.36802">
        <ele>15.5</ele>
        <time>2018-09-20T10:01:38.000Z</time>
      </trkpt>
      <trkpt lat="46.70066" lon="-2.36802">
        <ele>15.5</ele>
        <time>2018-09-20T10:01:39.000Z</time>
      </trkpt>
      <trkpt lat="46.70066" lon="-2.36802">
        <ele>15.5</ele>
        <time>2018-09-20T10:01:40.000Z</time>
      </trkpt>
      <trkpt lat="46.70066" lon="-2.36802">
        <ele>15.5</ele>
        <time>2018-09-20T10:01:41.000Z</time>
      </trkpt>
      <trkpt lat="46.70066" lon="-2.36802">
        <ele>15.5</ele>
        <time>2018-09-20T10:01:42.000Z</time>
      </trkpt>
      <trkpt lat="46.70066" lon="-2.36802">
        <ele>15.5</ele>
        <time>2018-09-20T10:01:43.000Z</time>
      </trkpt>
      <trkpt lat="46.70066" lon="-2.36802">
        <ele>15.5</ele>
        <time>2018-09-20T10:01:44.000Z</time>
      </trkpt>
      <trkpt lat="46.70066" lon="-2.36802">
        <ele>15.5</ele>
        <time>2018-09-20T10:01:45.000Z</time>
      </trkpt>
      <trkpt lat="46.70066" lon="-2.36802">
        <ele>15.5</ele>
        <time>2018-09-20T10:01:46.000Z</time>
      </trkpt>
      <trkpt lat="46.70066" lon="-2.36802">
        <ele>15.5</ele>
        <time>2018-09-20T10:01:47.000Z</time>
      </trkpt>
      <trkpt lat="46.70066" lon="-2.36802">
        <ele>15.5</ele>
        <time>2018-09-20T10:01:48.000Z</time>
      </trkpt>
      <trkpt lat="46.70066" lon="-2.36802">
        <ele>15.5</ele>
        <time>2018-09-20T10:01:49.000Z</time>
      </trkpt>
      <trkpt lat="46.70066" lon="-2.36802">
        <ele>15.5</ele>
        <time>2018-09-20T10:01:50.000Z</time>
      </trkpt>
      <trkpt lat="46.70066" lon="-2.36802">
        <ele>15.5</ele>
        <time>2018-09-20T10:01:51.000Z</time>
      </trkpt>
      <trkpt lat="46.70066" lon="-2.36802">
        <ele>15.5</ele>
        <time>2018-09-20T10:01:52.000Z</time>
      </trkpt>
      <trkpt lat="46.70066" lon="-2.36802">
        <ele>15.5</ele>
        <time>2018-09-20T10:01:53.000Z</time>
      </trkpt>
      <trkpt lat="46.70066" lon="-2.36802">
        <ele>15.5</ele>
        <time>2018-09-20T10:01:54.000Z</time>
      </trkpt>
      <trkpt lat="46.70066" lon="-2.36802">
        <ele>15.5</ele>
        <time>2018-09-20T10:01:55.000Z</time>
      </trkpt>
      <trkpt lat="46.70066" lon="-2.36802">
        <ele>15.5</ele>
        <time>2018-09-20T10:01:56.000Z</time>
      </trkpt>
      <trkpt lat="46.70066" lon="-2.36802">
        <ele>15.5</ele>
        <time>2018-09-20T10:01:57.000Z</time>
      </trkpt>
      <trkpt lat="46.70066" lon="-2.36802">
        <ele>15.5</ele>
        <time>2018-09-20T10:01:58.000Z</time>
      </trkpt>
      <trkpt lat="46.70066" lon="-2.36802">
        <ele>15.5</ele>
        <time>2018-09-20T10:01:59.000Z</time>
      </trkpt>
      <trkpt lat="46.70066" lon="-2.36802">
        <ele>15.5</ele>
        <time>2018-09-20T10:02:00.000Z</time>
      </trkpt>
      <trkpt lat="46.70066" lon="-2.36802">
        <ele>15.5</ele>
        <time>2018-09-20T10:02:01.000Z</time>
      </trkpt>
      <trkpt lat="46.70066" lon="-2.36802">
        <ele>15.5</ele>
        <time>2018-09-20T10:02:02.000Z</time>
      </trkpt>
      <trkpt lat="46.70066" lon="-2.36802">
        <ele>15.5</ele>
        <time>2018-09-20T10:02:03.000Z</time>
      </trkpt>
      <trkpt lat="46.70066" lon="-2.36802">
        <ele>15.5</ele>
        <time>2018-09-20T10:02:04.000Z</time>
      </trkpt>
      <trkpt lat="46.70066" lon="-2.36802">
        <ele>15.5</ele>
        <time>2018-09-20T10:02:05.000Z</time>
      </trkpt>
      <trkpt lat="46.70066" lon="-2.36802">
        <ele>15.5</ele>
        <time>2018-09-20T10:02:06.000Z</time>
      </trkpt>
      <trkpt lat="46.70066" lon="-2.36802">
        <ele>15.5</ele>
        <time>2018-09-20T10:02:07.000Z</time>
      </trkpt>
      <trkpt lat="46.70066" lon="-2.36802">
        <ele>15.5</ele>
        <time>2018-09-20T10:02:08.000Z</time>
      </trkpt>
      <trkpt lat="46.70066" lon="-2.36802">
        <ele>15.5</ele>
        <time>2018-09-20T10:02:09.000Z</time>
      </trkpt>
      <trkpt lat="46.70066" lon="-2.36802">
        <ele>15.5</ele>
        <time>2018-09-20T10:02:10.000Z</time>
      </trkpt>
      <trkpt lat="46.70066" lon="-2.36802">
        <ele>15.5</ele>
        <time>2018-09-20T10:02:11.000Z</time>
      </trkpt>
      <trkpt lat="46.70066" lon="-2.36802">
        <ele>15.5</ele>
        <time>2018-09-20T10:02:12.000Z</time>
      </trkpt>
      <trkpt lat="46.70066" lon="-2.36802">
        <ele>15.5</ele>
        <time>2018-09-20T10:02:13.000Z</time>
      </trkpt>
      <trkpt lat="46.70066" lon="-2.36802">
        <ele>15.5</ele>
        <time>2018-09-20T10:02:14.000Z</time>
      </trkpt>
      <trkpt lat="46.70066" lon="-2.36802">
        <ele>15.5</ele>
        <time>2018-09-20T10:02:15.000Z</time>
      </trkpt>
      <trkpt lat="46.70066" lon="-2.36802">
        <ele>15.5</ele>
        <time>2018-09-20T10:02:16.000Z</time>
      </trkpt>
      <trkpt lat="46.70066" lon="-2.36802">
        <ele>15.5</ele>
        <time>2018-09-20T10:02:17.000Z</time>
      </trkpt>
      <trkpt lat="46.70066" lon="-2.36802">
        <ele>15.5</ele>
        <time>2018-09-20T10:02:18.000Z</time>
      </trkpt>
      <trkpt lat="46.70066" lon="-2.36802">
        <ele>15.5</ele>
        <time>2018-09-20T10:02:19.000Z</time>
      </trkpt>
      <trkpt lat="46.70066" lon="-2.36802">
        <ele>15.5</ele>
        <time>2018-09-20T10:02:20.000Z</time>
      </trkpt>
      <trkpt lat="46.70066" lon="-2.36802">
        <ele>15.5</ele>
        <time>2018-09-20T10:02:21.000Z</time>
      </trkpt>
      <trkpt lat="46.70066" lon="-2.36802">
        <ele>15.5</ele>
        <time>2018-09-20T10:02:22.000Z</time>
      </trkpt>
      <trkpt lat="46.70066" lon="-2.36802">
        <ele>15.5</ele>
        <time>2018-09-20T10:02:23.000Z</time>
      </trkpt>
      <trkpt lat="46.70066" lon="-2.36802">
        <ele>15.5</ele>
        <time>2018-09-20T10:02:24.000Z</time>
      </trkpt>
      <trkpt lat="46.70066" lon="-2.36802">
        <ele>15.5</ele>
        <time>2018-09-20T10:02:25.000Z</time>
      </trkpt>
      <trkpt lat="46.70066" lon="-2.36802">
        <ele>15.5</ele>
        <time>2018-09-20T10:02:26.000Z</time>
      </trkpt>
      <trkpt lat="46.70066" lon="-2.36802">
        <ele>15.5</ele>
        <time>2018-09-20T10:02:27.000Z</time>
      </trkpt>
      <trkpt lat="46.70066" lon="-2.36802">
        <ele>15.5</ele>
        <time>2018-09-20T10:02:28.000Z</time>
      </trkpt>
      <trkpt lat="46.70066" lon="-2.36802">
        <ele>15.5</ele>
        <time>2018-09-20T10:02:29.000Z</time>
      </trkpt>
      <trkpt lat="46.70066" lon="-2.36802">
        <ele>15.5</ele>
        <time>2018-09-20T10:02:30.000Z</time>
      </trkpt>
      <trkpt lat="46.70066" lon="-2.36802">
        <ele>15.5</ele>
        <time>2018-09-20T10:02:31.000Z</time>
      </trkpt>
      <trkpt lat="46.70066" lon="-2.36802">
        <ele>15.5</ele>
        <time>2018-09-20T10:02:32.000Z</time>
      </trkpt>
      <trkpt lat="46.70066" lon="-2.36802">
        <ele>15.5</ele>
        <time>2018-09-20T10:02:33.000Z</time>
      </trkpt>
      <trkpt lat="46.70066" lon="-2.36802">
        <ele>15.5</ele>
        <time>2018-09-20T10:02:34.000Z</time>
      </trkpt>
      <trkpt lat="46.70066" lon="-2.36802">
        <ele>15.5</ele>
        <time>2018-09-20T10:02:35.000Z</time>
      </trkpt>
      <trkpt lat="46.70066" lon="-2.36802">
        <ele>15.5</ele>
        <time>2018-09-20T10:02:36.000Z</time>
      </trkpt>
      <trkpt lat="46.70066" lon="-2.36802">
        <ele>15.5</ele>
        <time>2018-09-20T10:02:37.000Z</time>
      </trkpt>
      <trkpt lat="46.70066" lon="-2.36802">
        <ele>15.5</ele>
        <time>2018-09-20T10:02:38.000Z</time>
      </trkpt>
      <trkpt lat="46.70066" lon="-2.36802">
        <ele>15.5</ele>
        <time>2018-09-20T10:02:39.000Z</time>
      </trkpt>
      <trkpt lat="46.70066" lon="-2.36802">
        <ele>15.5</ele>
        <time>2018-09-20T10:02:40.000Z</time>
      </trkpt>
      <trkpt lat="46.70066" lon="-2.36802">
        <ele>15.5</ele>
        <time>2018-09-20T10:02:41.000Z</time>
      </trkpt>
      <trkpt lat="46.70066" lon="-2.36802">
        <ele>15.5</ele>
        <time>2018-09-20T10:02:42.000Z</time>
      </trkpt>
      <trkpt lat="46.70066" lon="-2.36802">
        <ele>15.5</ele>
        <time>2018-09-20T10:02:43.000Z</time>
      </trkpt>
      <trkpt lat="46.70066" lon="-2.36802">
        <ele>15.5</ele>
        <time>2018-09-20T10:02:44.000Z</time>
      </trkpt>
      <trkpt lat="46.70066" lon="-2.36802">
        <ele>15.5</ele>
        <time>2018-09-20T10:02:45.000Z</time>
      </trkpt>
      <trkpt lat="46.70066" lon="-2.36802">
        <ele>15.5</ele>
        <time>2018-09-20T10:02:46.000Z</time>
      </trkpt>
      <trkpt lat="46.70066" lon="-2.36802">
        <ele>15.5</ele>
        <time>2018-09-20T10:02:47.000Z</time>
      </trkpt>
      <trkpt lat="46.70066" lon="-2.36802">
        <ele>15.5</ele>
        <time>2018-09-20T10:02:48.000Z</time>
      </trkpt>
      <trkpt lat="46.70066" lon="-2.36802">
        <ele>15.5</ele>
        <time>2018-09-20T10:02:49.000Z</time>
      </trkpt>
      <trkpt lat="46.70066" lon="-2.36802">
        <ele>15.5</ele>
        <time>2018-09-20T10:02:50.000Z</time>
      </trkpt>
      <trkpt lat="46.70066" lon="-2.36802">
        <ele>15.5</ele>
        <time>2018-09-20T10:02:51.000Z</time>
      </trkpt>
      <trkpt lat="46.70066" lon="-2.36802">
        <ele>15.5</ele>
        <time>2018-09-20T10:02:52.000Z</time>
      </trkpt>
      <trkpt lat="46.70066" lon="-2.36802">
        <ele>15.5</ele>
        <time>2018-09-20T10:02:53.000Z</time>
      </trkpt>
      <trkpt lat="46.70066" lon="-2.36802">
        <ele>15.5</ele>
        <time>2018-09-20T10:02:54.000Z</time>
      </trkpt>
      <trkpt lat="46.70066" lon="-2.36802">
        <ele>15.5</ele>
        <time>2018-09-20T10:02:55.000Z</time>
      </trkpt>
      <trkpt lat="46.70066" lon="-2.36802">
        <ele>15.5</ele>
        <time>2018-09-20T10:02:56.000Z</time>
      </trkpt>
      <trkpt lat="46.70066" lon="-2.36802">
        <ele>15.5</ele>
        <time>2018-09-20T10:02:57.000Z</time>
      </trkpt>
      <trkpt lat="46.70066" lon="-2.36802">
        <ele>15.5</ele>
        <time>2018-09-20T10:02:58.000Z</time>
      </trkpt>
      <trkpt lat="46.70066" lon="-2.36802">
        <ele>15.5</ele>
        <time>2018-09-20T10:02:59.000Z</time>
      </trkpt>
      <trkpt lat="46.70066" lon="-2.36802">
        <ele>15.5</ele>
        <time>2018-09-20T10:03:00.000Z</time>
      </trkpt>
      <trkpt lat="46.70066" lon="-2.36802">
        <ele>15.5</ele>
        <time>2018-09-20T10:03:01.000Z</time>
      </trkpt>
      <trkpt lat="46.70066" lon="-2.36802">
        <ele>15.5</ele>
        <time>2018-09-20T10:03:02.000Z</time>
      </trkpt>
      <trkpt lat="46.70066" lon="-2.36802">
        <ele>15.5</ele>
        <time>2018-09-20T10:03:03.000Z</time>
      </trkpt>
      <trkpt lat="46.70066" lon="-2.36802">
        <ele>15.5</ele>
        <time>2018-09-20T10:03:04.000Z</time>
      </trkpt>
      <trkpt lat="46.70066" lon="-2.36802">
        <ele>15.5</ele>
        <time>2018-09-20T10:03:05.000Z</time>
      </trkpt>
      <trkpt lat="46.70066" lon="-2.36802">
        <ele>15.5</ele>
        <time>2018-09-20T10:03:06.000Z</time>
      </trkpt>
      <trkpt lat="46.70066" lon="-2.36802">
        <ele>15.5</ele>
        <time>2018-09-20T10:03:07.000Z</time>
      </trkpt>
      <trkpt lat="46.70066" lon="-2.36802">
        <ele>15.5</ele>
        <time>2018-09-20T10:03:08.000Z</time>
      </trkpt>
      <trkpt lat="46.70066" lon="-2.36802">
        <ele>15.5</ele>
        <time>2018-09-20T10:03:09.000Z</time>
      </trkpt>
      <trkpt lat="46.70066" lon="-2.36802">
        <ele>15.5</ele>
        <time>2018-09-20T10:03:10.000Z</time>
      </trkpt>
      <trkpt lat="46.70066" lon="-2.36802">
        <ele>15.5</ele>
        <time>2018-09-20T10:03:11.000Z</time>
      </trkpt>
      <trkpt lat="46.70066" lon="-2.36802">
        <ele>15.5</ele>
        <time>2018-09-20T10:03:12.000Z</time>
      </trkpt>
      <trkpt lat="46.70066" lon="-2.36802">
        <ele>15.5</ele>
        <time>2018-09-20T10:03:13.000Z</time>
      </trkpt>
      <trkpt lat="46.70066" lon="-2.36802">
        <ele>15.5</ele>
        <time>2018-09-20T10:03:14.000Z</time>
      </trkpt>
      <trkpt lat="46.70066" lon="-2.36802">
        <ele>15.5</ele>
        <time>2018-09-20T10:03:15.000Z</time>
      </trkpt>
      <trkpt lat="46.70066" lon="-2.36802">
        <ele>15.5</ele>
        <time>2018-09-20T10:03:16.000Z</time>
      </trkpt>
      <trkpt lat="46.70066" lon="-2.36802">
        <ele>15.5</ele>
        <time>2018-09-20T10:03:17.000Z</time>
      </trkpt>
      <trkpt lat="46.70066" lon="-2.36802">
        <ele>15.5</ele>
        <time>2018-09-20T10:03:18.000Z</time>
      </trkpt>
      <trkpt lat="46.70066" lon="-2.36802">
        <ele>15.5</ele>
        <time>2018-09-20T10:03:19.000Z</time>
      </trkpt>
      <trkpt lat="46.70066" lon="-2.36802">
        <ele>15.5</ele>
        <time>2018-09-20T10:03:20.000Z</time>
      </trkpt>
      <trkpt lat="46.70066" lon="-2.36802">
        <ele>15.5</ele>
        <time>2018-09-20T10:03:21.000Z</time>
      </trkpt>
      <trkpt lat="46.70066" lon="-2.36802">
        <ele>15.5</ele>
        <time>2018-09-20T10:03:22.000Z</time>
      </trkpt>
      <trkpt lat="46.70066" lon="-2.36802">
        <ele>15.5</ele>
        <time>2018-09-20T10:03:23.000Z</time>
      </trkpt>
      <trkpt lat="46.70066" lon="-2.36802">
        <ele>15.5</ele>
        <time>2018-09-20T10:03:24.000Z</time>
      </trkpt>
      <trkpt lat="46.70066" lon="-2.36802">
        <ele>15.5</ele>
        <time>2018-09-20T10:03:25.000Z</time>
      </trkpt>
      <trkpt lat="46.70066" lon="-2.36802">
        <ele>15.5</ele>
        <time>2018-09-20T10:03:26.000Z</time>
      </trkpt>
      <trkpt lat="46.70065" lon="-2.36802">
        <ele>15.4</ele>
        <time>2018-09-20T10:03:27.000Z</time>
      </trkpt>
      <trkpt lat="46.70064" lon="-2.36801">
        <ele>15.4</ele>
        <time>2018-09-20T10:03:28.000Z</time>
      </trkpt>
      <trkpt lat="46.70063" lon="-2.36801">
        <ele>15.4</ele>
        <time>2018-09-20T10:03:29.000Z</time>
      </trkpt>
      <trkpt lat="46.70062" lon="-2.368">
        <ele>15.4</ele>
        <time>2018-09-20T10:03:30.000Z</time>
      </trkpt>
      <trkpt lat="46.7006" lon="-2.36799">
        <ele>15.4</ele>
        <time>2018-09-20T10:03:31.000Z</time>
      </trkpt>
      <trkpt lat="46.70059" lon="-2.36798">
        <ele>15.5</ele>
        <time>2018-09-20T10:03:32.000Z</time>
      </trkpt>
      <trkpt lat="46.70058" lon="-2.36797">
        <ele>15.5</ele>
        <time>2018-09-20T10:03:33.000Z</time>
      </trkpt>
      <trkpt lat="46.70057" lon="-2.36796">
        <ele>15.5</ele>
        <time>2018-09-20T10:03:34.000Z</time>
      </trkpt>
      <trkpt lat="46.70056" lon="-2.36796">
        <ele>15.5</ele>
        <time>2018-09-20T10:03:35.000Z</time>
      </trkpt>
      <trkpt lat="46.70055" lon="-2.36795">
        <ele>15.6</ele>
        <time>2018-09-20T10:03:36.000Z</time>
      </trkpt>
      <trkpt lat="46.70054" lon="-2.36794">
        <ele>15.6</ele>
        <time>2018-09-20T10:03:37.000Z</time>
      </trkpt>
      <trkpt lat="46.70053" lon="-2.36793">
        <ele>15.6</ele>
        <time>2018-09-20T10:03:38.000Z</time>
      </trkpt>
      <trkpt lat="46.70051" lon="-2.36792">
        <ele>15.6</ele>
        <time>2018-09-20T10:03:39.000Z</time>
      </trkpt>
      <trkpt lat="46.7005" lon="-2.36792">
        <ele>15.6</ele>
        <time>2018-09-20T10:03:40.000Z</time>
      </trkpt>
      <trkpt lat="46.70049" lon="-2.36791">
        <ele>15.6</ele>
        <time>2018-09-20T10:03:41.000Z</time>
      </trkpt>
      <trkpt lat="46.70048" lon="-2.3679">
        <ele>15.6</ele>
        <time>2018-09-20T10:03:42.000Z</time>
      </trkpt>
      <trkpt lat="46.70047" lon="-2.3679">
        <ele>15.6</ele>
        <time>2018-09-20T10:03:43.000Z</time>
      </trkpt>
      <trkpt lat="46.70046" lon="-2.36789">
        <ele>15.6</ele>
        <time>2018-09-20T10:03:44.000Z</time>
      </trkpt>
      <trkpt lat="46.70046" lon="-2.36789">
        <ele>15.6</ele>
        <time>2018-09-20T10:03:45.000Z</time>
      </trkpt>
      <trkpt lat="46.70045" lon="-2.36789">
        <ele>15.6</ele>
        <time>2018-09-20T10:03:46.000Z</time>
      </trkpt>
      <trkpt lat="46.70045" lon="-2.36789">
        <ele>15.6</ele>
        <time>2018-09-20T10:03:47.000Z</time>
      </trkpt>
      <trkpt lat="46.70044" lon="-2.36789">
        <ele>15.6</ele>
        <time>2018-09-20T10:03:48.000Z</time>
      </trkpt>
      <trkpt lat="46.70044" lon="-2.36789">
        <ele>15.6</ele>
        <time>2018-09-20T10:03:49.000Z</time>
      </trkpt>
      <trkpt lat="46.70044" lon="-2.36789">
        <ele>15.6</ele>
        <time>2018-09-20T10:03:50.000Z</time>
      </trkpt>
      <trkpt lat="46.70044" lon="-2.36789">
        <ele>15.6</ele>
        <time>2018-09-20T10:03:51.000Z</time>
      </trkpt>
      <trkpt lat="46.70044" lon="-2.36789">
        <ele>15.6</ele>
        <time>2018-09-20T10:03:52.000Z</time>
      </trkpt>
      <trkpt lat="46.70044" lon="-2.36789">
        <ele>15.6</ele>
        <time>2018-09-20T10:03:53.000Z</time>
      </trkpt>
      <trkpt lat="46.70044" lon="-2.36789">
        <ele>15.6</ele>
        <time>2018-09-20T10:03:54.000Z</time>
      </trkpt>
      <trkpt lat="46.70044" lon="-2.36789">
        <ele>15.6</ele>
        <time>2018-09-20T10:03:55.000Z</time>
      </trkpt>
      <trkpt lat="46.70044" lon="-2.36789">
        <ele>15.6</ele>
        <time>2018-09-20T10:03:56.000Z</time>
      </trkpt>
      <trkpt lat="46.70044" lon="-2.36789">
        <ele>15.6</ele>
        <time>2018-09-20T10:03:57.000Z</time>
      </trkpt>
      <trkpt lat="46.70044" lon="-2.36789">
        <ele>15.6</ele>
        <time>2018-09-20T10:03:58.000Z</time>
      </trkpt>
      <trkpt lat="46.70044" lon="-2.36789">
        <ele>15.6</ele>
        <time>2018-09-20T10:03:59.000Z</time>
      </trkpt>
      <trkpt lat="46.70044" lon="-2.36789">
        <ele>15.6</ele>
        <time>2018-09-20T10:04:00.000Z</time>
      </trkpt>
      <trkpt lat="46.70044" lon="-2.36789">
        <ele>15.6</ele>
        <time>2018-09-20T10:04:01.000Z</time>
      </trkpt>
      <trkpt lat="46.70044" lon="-2.36789">
        <ele>15.6</ele>
        <time>2018-09-20T10:04:02.000Z</time>
      </trkpt>
      <trkpt lat="46.70044" lon="-2.36789">
        <ele>15.6</ele>
        <time>2018-09-20T10:04:03.000Z</time>
      </trkpt>
      <trkpt lat="46.70044" lon="-2.36789">
        <ele>15.6</ele>
        <time>2018-09-20T10:04:04.000Z</time>
      </trkpt>
      <trkpt lat="46.70044" lon="-2.36789">
        <ele>15.6</ele>
        <time>2018-09-20T10:04:05.000Z</time>
      </trkpt>
      <trkpt lat="46.70044" lon="-2.36789">
        <ele>15.6</ele>
        <time>2018-09-20T10:04:06.000Z</time>
      </trkpt>
      <trkpt lat="46.70045" lon="-2.36789">
        <ele>15.6</ele>
        <time>2018-09-20T10:04:07.000Z</time>
      </trkpt>
      <trkpt lat="46.70044" lon="-2.36789">
        <ele>15.6</ele>
        <time>2018-09-20T10:04:08.000Z</time>
      </trkpt>
      <trkpt lat="46.70044" lon="-2.36789">
        <ele>15.6</ele>
        <time>2018-09-20T10:04:09.000Z</time>
      </trkpt>
      <trkpt lat="46.70044" lon="-2.36789">
        <ele>15.6</ele>
        <time>2018-09-20T10:04:10.000Z</time>
      </trkpt>
      <trkpt lat="46.70044" lon="-2.36788">
        <ele>15.6</ele>
        <time>2018-09-20T10:04:11.000Z</time>
      </trkpt>
      <trkpt lat="46.70043" lon="-2.36788">
        <ele>15.6</ele>
        <time>2018-09-20T10:04:12.000Z</time>
      </trkpt>
      <trkpt lat="46.70043" lon="-2.36788">
        <ele>15.7</ele>
        <time>2018-09-20T10:04:13.000Z</time>
      </trkpt>
      <trkpt lat="46.70042" lon="-2.36787">
        <ele>15.7</ele>
        <time>2018-09-20T10:04:14.000Z</time>
      </trkpt>
      <trkpt lat="46.70042" lon="-2.36787">
        <ele>15.7</ele>
        <time>2018-09-20T10:04:15.000Z</time>
      </trkpt>
      <trkpt lat="46.70041" lon="-2.36787">
        <ele>15.7</ele>
        <time>2018-09-20T10:04:16.000Z</time>
      </trkpt>
      <trkpt lat="46.70041" lon="-2.36787">
        <ele>15.7</ele>
        <time>2018-09-20T10:04:17.000Z</time>
      </trkpt>
      <trkpt lat="46.70041" lon="-2.36787">
        <ele>15.7</ele>
        <time>2018-09-20T10:04:18.000Z</time>
      </trkpt>
      <trkpt lat="46.70041" lon="-2.36787">
        <ele>15.7</ele>
        <time>2018-09-20T10:04:19.000Z</time>
      </trkpt>
      <trkpt lat="46.70041" lon="-2.36787">
        <ele>15.7</ele>
        <time>2018-09-20T10:04:20.000Z</time>
      </trkpt>
      <trkpt lat="46.70041" lon="-2.36786">
        <ele>15.7</ele>
        <time>2018-09-20T10:04:21.000Z</time>
      </trkpt>
      <trkpt lat="46.70041" lon="-2.36786">
        <ele>15.7</ele>
        <time>2018-09-20T10:04:22.000Z</time>
      </trkpt>
      <trkpt lat="46.7004" lon="-2.36785">
        <ele>15.8</ele>
        <time>2018-09-20T10:04:23.000Z</time>
      </trkpt>
      <trkpt lat="46.70039" lon="-2.36784">
        <ele>15.8</ele>
        <time>2018-09-20T10:04:24.000Z</time>
      </trkpt>
      <trkpt lat="46.70038" lon="-2.36783">
        <ele>15.9</ele>
        <time>2018-09-20T10:04:25.000Z</time>
      </trkpt>
      <trkpt lat="46.70037" lon="-2.36782">
        <ele>15.9</ele>
        <time>2018-09-20T10:04:26.000Z</time>
      </trkpt>
      <trkpt lat="46.70036" lon="-2.36781">
        <ele>16</ele>
        <time>2018-09-20T10:04:27.000Z</time>
      </trkpt>
      <trkpt lat="46.70035" lon="-2.3678">
        <ele>16</ele>
        <time>2018-09-20T10:04:28.000Z</time>
      </trkpt>
      <trkpt lat="46.70034" lon="-2.36779">
        <ele>16.1</ele>
        <time>2018-09-20T10:04:29.000Z</time>
      </trkpt>
      <trkpt lat="46.70033" lon="-2.36779">
        <ele>16.1</ele>
        <time>2018-09-20T10:04:30.000Z</time>
      </trkpt>
      <trkpt lat="46.70032" lon="-2.36778">
        <ele>16.1</ele>
        <time>2018-09-20T10:04:31.000Z</time>
      </trkpt>
      <trkpt lat="46.70031" lon="-2.36777">
        <ele>16.2</ele>
        <time>2018-09-20T10:04:32.000Z</time>
      </trkpt>
      <trkpt lat="46.7003" lon="-2.36777">
        <ele>16.2</ele>
        <time>2018-09-20T10:04:33.000Z</time>
      </trkpt>
      <trkpt lat="46.70029" lon="-2.36776">
        <ele>16.2</ele>
        <time>2018-09-20T10:04:34.000Z</time>
      </trkpt>
      <trkpt lat="46.70028" lon="-2.36776">
        <ele>16.2</ele>
        <time>2018-09-20T10:04:35.000Z</time>
      </trkpt>
      <trkpt lat="46.70027" lon="-2.36775">
        <ele>16.2</ele>
        <time>2018-09-20T10:04:36.000Z</time>
      </trkpt>
      <trkpt lat="46.70026" lon="-2.36775">
        <ele>16.2</ele>
        <time>2018-09-20T10:04:37.000Z</time>
      </trkpt>
      <trkpt lat="46.70025" lon="-2.36774">
        <ele>16.2</ele>
        <time>2018-09-20T10:04:38.000Z</time>
      </trkpt>
      <trkpt lat="46.70024" lon="-2.36774">
        <ele>16.2</ele>
        <time>2018-09-20T10:04:39.000Z</time>
      </trkpt>
      <trkpt lat="46.70023" lon="-2.36774">
        <ele>16.2</ele>
        <time>2018-09-20T10:04:40.000Z</time>
      </trkpt>
      <trkpt lat="46.70022" lon="-2.36774">
        <ele>16.2</ele>
        <time>2018-09-20T10:04:41.000Z</time>
      </trkpt>
      <trkpt lat="46.70021" lon="-2.36773">
        <ele>16.2</ele>
        <time>2018-09-20T10:04:42.000Z</time>
      </trkpt>
      <trkpt lat="46.7002" lon="-2.36773">
        <ele>16.2</ele>
        <time>2018-09-20T10:04:43.000Z</time>
      </trkpt>
      <trkpt lat="46.70019" lon="-2.36773">
        <ele>16.2</ele>
        <time>2018-09-20T10:04:44.000Z</time>
      </trkpt>
      <trkpt lat="46.70017" lon="-2.36772">
        <ele>16.2</ele>
        <time>2018-09-20T10:04:45.000Z</time>
      </trkpt>
      <trkpt lat="46.70016" lon="-2.36772">
        <ele>16.2</ele>
        <time>2018-09-20T10:04:46.000Z</time>
      </trkpt>
      <trkpt lat="46.70015" lon="-2.36772">
        <ele>16.2</ele>
        <time>2018-09-20T10:04:47.000Z</time>
      </trkpt>
      <trkpt lat="46.70014" lon="-2.36771">
        <ele>16.2</ele>
        <time>2018-09-20T10:04:48.000Z</time>
      </trkpt>
      <trkpt lat="46.70013" lon="-2.36771">
        <ele>16.2</ele>
        <time>2018-09-20T10:04:49.000Z</time>
      </trkpt>
      <trkpt lat="46.70012" lon="-2.36771">
        <ele>16.2</ele>
        <time>2018-09-20T10:04:50.000Z</time>
      </trkpt>
      <trkpt lat="46.7001" lon="-2.3677">
        <ele>16.2</ele>
        <time>2018-09-20T10:04:51.000Z</time>
      </trkpt>
      <trkpt lat="46.70009" lon="-2.3677">
        <ele>16.2</ele>
        <time>2018-09-20T10:04:52.000Z</time>
      </trkpt>
      <trkpt lat="46.70008" lon="-2.36769">
        <ele>16.2</ele>
        <time>2018-09-20T10:04:53.000Z</time>
      </trkpt>
      <trkpt lat="46.70006" lon="-2.36768">
        <ele>16.2</ele>
        <time>2018-09-20T10:04:54.000Z</time>
      </trkpt>
      <trkpt lat="46.70005" lon="-2.36768">
        <ele>16.2</ele>
        <time>2018-09-20T10:04:55.000Z</time>
      </trkpt>
      <trkpt lat="46.70004" lon="-2.36767">
        <ele>16.3</ele>
        <time>2018-09-20T10:04:56.000Z</time>
      </trkpt>
      <trkpt lat="46.70003" lon="-2.36766">
        <ele>16.3</ele>
        <time>2018-09-20T10:04:57.000Z</time>
      </trkpt>
      <trkpt lat="46.70001" lon="-2.36765">
        <ele>16.4</ele>
        <time>2018-09-20T10:04:58.000Z</time>
      </trkpt>
      <trkpt lat="46.7" lon="-2.36764">
        <ele>16.5</ele>
        <time>2018-09-20T10:04:59.000Z</time>
      </trkpt>
      <trkpt lat="46.69999" lon="-2.36763">
        <ele>16.5</ele>
        <time>2018-09-20T10:05:00.000Z</time>
      </trkpt>
      <trkpt lat="46.69998" lon="-2.36762">
        <ele>16.6</ele>
        <time>2018-09-20T10:05:01.000Z</time>
      </trkpt>
      <trkpt lat="46.69997" lon="-2.36761">
        <ele>16.7</ele>
        <time>2018-09-20T10:05:02.000Z</time>
      </trkpt>
      <trkpt lat="46.69996" lon="-2.3676">
        <ele>16.9</ele>
        <time>2018-09-20T10:05:03.000Z</time>
      </trkpt>
      <trkpt lat="46.69995" lon="-2.36759">
        <ele>17</ele>
        <time>2018-09-20T10:05:04.000Z</time>
      </trkpt>
      <trkpt lat="46.69995" lon="-2.36757">
        <ele>17.1</ele>
        <time>2018-09-20T10:05:05.000Z</time>
      </trkpt>
      <trkpt lat="46.69994" lon="-2.36756">
        <ele>17.2</ele>
        <time>2018-09-20T10:05:06.000Z</time>
      </trkpt>
      <trkpt lat="46.69993" lon="-2.36754">
        <ele>17.4</ele>
        <time>2018-09-20T10:05:07.000Z</time>
      </trkpt>
      <trkpt lat="46.69993" lon="-2.36753">
        <ele>17.5</ele>
        <time>2018-09-20T10:05:08.000Z</time>
      </trkpt>
      <trkpt lat="46.69992" lon="-2.36751">
        <ele>17.7</ele>
        <time>2018-09-20T10:05:09.000Z</time>
      </trkpt>
      <trkpt lat="46.69991" lon="-2.3675">
        <ele>17.8</ele>
        <time>2018-09-20T10:05:10.000Z</time>
      </trkpt>
      <trkpt lat="46.69991" lon="-2.36748">
        <ele>17.9</ele>
        <time>2018-09-20T10:05:11.000Z</time>
      </trkpt>
      <trkpt lat="46.6999" lon="-2.36747">
        <ele>17.9</ele>
        <time>2018-09-20T10:05:12.000Z</time>
      </trkpt>
      <trkpt lat="46.69989" lon="-2.36745">
        <ele>18</ele>
        <time>2018-09-20T10:05:13.000Z</time>
      </trkpt>
      <trkpt lat="46.69989" lon="-2.36743">
        <ele>18.1</ele>
        <time>2018-09-20T10:05:14.000Z</time>
      </trkpt>
      <trkpt lat="46.69988" lon="-2.36742">
        <ele>18.1</ele>
        <time>2018-09-20T10:05:15.000Z</time>
      </trkpt>
      <trkpt lat="46.69987" lon="-2.3674">
        <ele>18.2</ele>
        <time>2018-09-20T10:05:16.000Z</time>
      </trkpt>
      <trkpt lat="46.69987" lon="-2.36739">
        <ele>18.2</ele>
        <time>2018-09-20T10:05:17.000Z</time>
      </trkpt>
      <trkpt lat="46.69986" lon="-2.36737">
        <ele>18.3</ele>
        <time>2018-09-20T10:05:18.000Z</time>
      </trkpt>
      <trkpt lat="46.69985" lon="-2.36736">
        <ele>18.3</ele>
        <time>2018-09-20T10:05:19.000Z</time>
      </trkpt>
      <trkpt lat="46.69985" lon="-2.36735">
        <ele>18.4</ele>
        <time>2018-09-20T10:05:20.000Z</time>
      </trkpt>
      <trkpt lat="46.69984" lon="-2.36733">
        <ele>18.5</ele>
        <time>2018-09-20T10:05:21.000Z</time>
      </trkpt>
      <trkpt lat="46.69983" lon="-2.36732">
        <ele>18.5</ele>
        <time>2018-09-20T10:05:22.000Z</time>
      </trkpt>
      <trkpt lat="46.69983" lon="-2.36731">
        <ele>18.6</ele>
        <time>2018-09-20T10:05:23.000Z</time>
      </trkpt>
      <trkpt lat="46.69982" lon="-2.3673">
        <ele>18.6</ele>
        <time>2018-09-20T10:05:24.000Z</time>
      </trkpt>
      <trkpt lat="46.69981" lon="-2.36728">
        <ele>18.6</ele>
        <time>2018-09-20T10:05:25.000Z</time>
      </trkpt>
      <trkpt lat="46.69981" lon="-2.36727">
        <ele>18.7</ele>
        <time>2018-09-20T10:05:26.000Z</time>
      </trkpt>
      <trkpt lat="46.6998" lon="-2.36726">
        <ele>18.7</ele>
        <time>2018-09-20T10:05:27.000Z</time>
      </trkpt>
      <trkpt lat="46.69979" lon="-2.36726">
        <ele>18.7</ele>
        <time>2018-09-20T10:05:28.000Z</time>
      </trkpt>
      <trkpt lat="46.69978" lon="-2.36725">
        <ele>18.8</ele>
        <time>2018-09-20T10:05:29.000Z</time>
      </trkpt>
      <trkpt lat="46.69978" lon="-2.36724">
        <ele>18.8</ele>
        <time>2018-09-20T10:05:30.000Z</time>
      </trkpt>
      <trkpt lat="46.69977" lon="-2.36723">
        <ele>18.8</ele>
        <time>2018-09-20T10:05:31.000Z</time>
      </trkpt>
      <trkpt lat="46.69976" lon="-2.36723">
        <ele>18.8</ele>
        <time>2018-09-20T10:05:32.000Z</time>
      </trkpt>
      <trkpt lat="46.69976" lon="-2.36722">
        <ele>18.8</ele>
        <time>2018-09-20T10:05:33.000Z</time>
      </trkpt>
      <trkpt lat="46.69975" lon="-2.36722">
        <ele>18.8</ele>
        <time>2018-09-20T10:05:34.000Z</time>
      </trkpt>
      <trkpt lat="46.69974" lon="-2.36722">
        <ele>18.8</ele>
        <time>2018-09-20T10:05:35.000Z</time>
      </trkpt>
      <trkpt lat="46.69974" lon="-2.36721">
        <ele>18.8</ele>
        <time>2018-09-20T10:05:36.000Z</time>
      </trkpt>
      <trkpt lat="46.69973" lon="-2.36721">
        <ele>18.9</ele>
        <time>2018-09-20T10:05:37.000Z</time>
      </trkpt>
      <trkpt lat="46.69973" lon="-2.36721">
        <ele>18.9</ele>
        <time>2018-09-20T10:05:38.000Z</time>
      </trkpt>
      <trkpt lat="46.69972" lon="-2.3672">
        <ele>18.9</ele>
        <time>2018-09-20T10:05:39.000Z</time>
      </trkpt>
      <trkpt lat="46.69972" lon="-2.3672">
        <ele>18.9</ele>
        <time>2018-09-20T10:05:40.000Z</time>
      </trkpt>
      <trkpt lat="46.69971" lon="-2.36719">
        <ele>18.9</ele>
        <time>2018-09-20T10:05:41.000Z</time>
      </trkpt>
      <trkpt lat="46.69971" lon="-2.36719">
        <ele>18.9</ele>
        <time>2018-09-20T10:05:42.000Z</time>
      </trkpt>
      <trkpt lat="46.6997" lon="-2.36719">
        <ele>18.9</ele>
        <time>2018-09-20T10:05:43.000Z</time>
      </trkpt>
      <trkpt lat="46.6997" lon="-2.36719">
        <ele>18.9</ele>
        <time>2018-09-20T10:05:44.000Z</time>
      </trkpt>
      <trkpt lat="46.69969" lon="-2.36719">
        <ele>18.9</ele>
        <time>2018-09-20T10:05:45.000Z</time>
      </trkpt>
      <trkpt lat="46.69968" lon="-2.3672">
        <ele>18.8</ele>
        <time>2018-09-20T10:05:46.000Z</time>
      </trkpt>
      <trkpt lat="46.69967" lon="-2.3672">
        <ele>18.8</ele>
        <time>2018-09-20T10:05:47.000Z</time>
      </trkpt>
      <trkpt lat="46.69966" lon="-2.36721">
        <ele>18.7</ele>
        <time>2018-09-20T10:05:48.000Z</time>
      </trkpt>
      <trkpt lat="46.69966" lon="-2.36721">
        <ele>18.7</ele>
        <time>2018-09-20T10:05:49.000Z</time>
      </trkpt>
      <trkpt lat="46.69965" lon="-2.36722">
        <ele>18.6</ele>
        <time>2018-09-20T10:05:50.000Z</time>
      </trkpt>
      <trkpt lat="46.69965" lon="-2.36723">
        <ele>18.6</ele>
        <time>2018-09-20T10:05:51.000Z</time>
      </trkpt>
      <trkpt lat="46.69964" lon="-2.36724">
        <ele>18.5</ele>
        <time>2018-09-20T10:05:52.000Z</time>
      </trkpt>
      <trkpt lat="46.69964" lon="-2.36724">
        <ele>18.5</ele>
        <time>2018-09-20T10:05:53.000Z</time>
      </trkpt>
      <trkpt lat="46.69963" lon="-2.36725">
        <ele>18.4</ele>
        <time>2018-09-20T10:05:54.000Z</time>
      </trkpt>
      <trkpt lat="46.69962" lon="-2.36725">
        <ele>18.4</ele>
        <time>2018-09-20T10:05:55.000Z</time>
      </trkpt>
      <trkpt lat="46.69961" lon="-2.36726">
        <ele>18.4</ele>
        <time>2018-09-20T10:05:56.000Z</time>
      </trkpt>
      <trkpt lat="46.6996" lon="-2.36726">
        <ele>18.3</ele>
        <time>2018-09-20T10:05:57.000Z</time>
      </trkpt>
      <trkpt lat="46.6996" lon="-2.36726">
        <ele>18.3</ele>
        <time>2018-09-20T10:05:58.000Z</time>
      </trkpt>
      <trkpt lat="46.69959" lon="-2.36727">
        <ele>18.3</ele>
        <time>2018-09-20T10:05:59.000Z</time>
      </trkpt>
      <trkpt lat="46.69959" lon="-2.36727">
        <ele>18.3</ele>
        <time>2018-09-20T10:06:00.000Z</time>
      </trkpt>
      <trkpt lat="46.69959" lon="-2.36727">
        <ele>18.3</ele>
        <time>2018-09-20T10:06:01.000Z</time>
      </trkpt>
      <trkpt lat="46.69959" lon="-2.36727">
        <ele>18.3</ele>
        <time>2018-09-20T10:06:02.000Z</time>
      </trkpt>
      <trkpt lat="46.69959" lon="-2.36727">
        <ele>18.3</ele>
        <time>2018-09-20T10:06:03.000Z</time>
      </trkpt>
      <trkpt lat="46.69959" lon="-2.36727">
        <ele>18.3</ele>
        <time>2018-09-20T10:06:04.000Z</time>
      </trkpt>
      <trkpt lat="46.69959" lon="-2.36728">
        <ele>18.2</ele>
        <time>2018-09-20T10:06:05.000Z</time>
      </trkpt>
      <trkpt lat="46.69958" lon="-2.36728">
        <ele>18.2</ele>
        <time>2018-09-20T10:06:06.000Z</time>
      </trkpt>
      <trkpt lat="46.69958" lon="-2.36729">
        <ele>18.1</ele>
        <time>2018-09-20T10:06:07.000Z</time>
      </trkpt>
      <trkpt lat="46.69957" lon="-2.3673">
        <ele>18</ele>
        <time>2018-09-20T10:06:08.000Z</time>
      </trkpt>
      <trkpt lat="46.69956" lon="-2.36732">
        <ele>17.9</ele>
        <time>2018-09-20T10:06:09.000Z</time>
      </trkpt>
      <trkpt lat="46.69955" lon="-2.36733">
        <ele>17.9</ele>
        <time>2018-09-20T10:06:10.000Z</time>
      </trkpt>
      <trkpt lat="46.69954" lon="-2.36734">
        <ele>17.8</ele>
        <time>2018-09-20T10:06:11.000Z</time>
      </trkpt>
      <trkpt lat="46.69953" lon="-2.36735">
        <ele>17.7</ele>
        <time>2018-09-20T10:06:12.000Z</time>
      </trkpt>
      <trkpt lat="46.69952" lon="-2.36736">
        <ele>17.6</ele>
        <time>2018-09-20T10:06:13.000Z</time>
      </trkpt>
      <trkpt lat="46.69951" lon="-2.36738">
        <ele>17.5</ele>
        <time>2018-09-20T10:06:14.000Z</time>
      </trkpt>
      <trkpt lat="46.69951" lon="-2.36738">
        <ele>17.5</ele>
        <time>2018-09-20T10:06:15.000Z</time>
      </trkpt>
      <trkpt lat="46.6995" lon="-2.36739">
        <ele>17.4</ele>
        <time>2018-09-20T10:06:16.000Z</time>
      </trkpt>
      <trkpt lat="46.6995" lon="-2.3674">
        <ele>17.4</ele>
        <time>2018-09-20T10:06:17.000Z</time>
      </trkpt>
      <trkpt lat="46.6995" lon="-2.3674">
        <ele>17.4</ele>
        <time>2018-09-20T10:06:18.000Z</time>
      </trkpt>
      <trkpt lat="46.6995" lon="-2.3674">
        <ele>17.4</ele>
        <time>2018-09-20T10:06:19.000Z</time>
      </trkpt>
      <trkpt lat="46.6995" lon="-2.3674">
        <ele>17.3</ele>
        <time>2018-09-20T10:06:20.000Z</time>
      </trkpt>
      <trkpt lat="46.6995" lon="-2.3674">
        <ele>17.3</ele>
        <time>2018-09-20T10:06:21.000Z</time>
      </trkpt>
      <trkpt lat="46.6995" lon="-2.3674">
        <ele>17.3</ele>
        <time>2018-09-20T10:06:22.000Z</time>
      </trkpt>
      <trkpt lat="46.6995" lon="-2.3674">
        <ele>17.3</ele>
        <time>2018-09-20T10:06:23.000Z</time>
      </trkpt>
      <trkpt lat="46.6995" lon="-2.3674">
        <ele>17.3</ele>
        <time>2018-09-20T10:06:24.000Z</time>
      </trkpt>
      <trkpt lat="46.6995" lon="-2.36741">
        <ele>17.3</ele>
        <time>2018-09-20T10:06:25.000Z</time>
      </trkpt>
      <trkpt lat="46.6995" lon="-2.36741">
        <ele>17.3</ele>
        <time>2018-09-20T10:06:26.000Z</time>
      </trkpt>
      <trkpt lat="46.69949" lon="-2.36742">
        <ele>17.2</ele>
        <time>2018-09-20T10:06:27.000Z</time>
      </trkpt>
      <trkpt lat="46.69949" lon="-2.36742">
        <ele>17.2</ele>
        <time>2018-09-20T10:06:28.000Z</time>
      </trkpt>
      <trkpt lat="46.69948" lon="-2.36743">
        <ele>17.1</ele>
        <time>2018-09-20T10:06:29.000Z</time>
      </trkpt>
      <trkpt lat="46.69947" lon="-2.36744">
        <ele>17.1</ele>
        <time>2018-09-20T10:06:30.000Z</time>
      </trkpt>
      <trkpt lat="46.69947" lon="-2.36745">
        <ele>17</ele>
        <time>2018-09-20T10:06:31.000Z</time>
      </trkpt>
      <trkpt lat="46.69946" lon="-2.36746">
        <ele>16.9</ele>
        <time>2018-09-20T10:06:32.000Z</time>
      </trkpt>
      <trkpt lat="46.69946" lon="-2.36747">
        <ele>16.8</ele>
        <time>2018-09-20T10:06:33.000Z</time>
      </trkpt>
      <trkpt lat="46.69946" lon="-2.36749">
        <ele>16.8</ele>
        <time>2018-09-20T10:06:34.000Z</time>
      </trkpt>
      <trkpt lat="46.69946" lon="-2.3675">
        <ele>16.7</ele>
        <time>2018-09-20T10:06:35.000Z</time>
      </trkpt>
      <trkpt lat="46.69946" lon="-2.36751">
        <ele>16.6</ele>
        <time>2018-09-20T10:06:36.000Z</time>
      </trkpt>
      <trkpt lat="46.69946" lon="-2.36753">
        <ele>16.4</ele>
        <time>2018-09-20T10:06:37.000Z</time>
      </trkpt>
      <trkpt lat="46.69946" lon="-2.36755">
        <ele>16.2</ele>
        <time>2018-09-20T10:06:38.000Z</time>
      </trkpt>
      <trkpt lat="46.69947" lon="-2.36756">
        <ele>16</ele>
        <time>2018-09-20T10:06:39.000Z</time>
      </trkpt>
      <trkpt lat="46.69947" lon="-2.36758">
        <ele>15.9</ele>
        <time>2018-09-20T10:06:40.000Z</time>
      </trkpt>
      <trkpt lat="46.69947" lon="-2.3676">
        <ele>15.7</ele>
        <time>2018-09-20T10:06:41.000Z</time>
      </trkpt>
      <trkpt lat="46.69948" lon="-2.36761">
        <ele>15.6</ele>
        <time>2018-09-20T10:06:42.000Z</time>
      </trkpt>
      <trkpt lat="46.69948" lon="-2.36762">
        <ele>15.5</ele>
        <time>2018-09-20T10:06:43.000Z</time>
      </trkpt>
      <trkpt lat="46.69948" lon="-2.36762">
        <ele>15.4</ele>
        <time>2018-09-20T10:06:44.000Z</time>
      </trkpt>
      <trkpt lat="46.69949" lon="-2.36763">
        <ele>15.4</ele>
        <time>2018-09-20T10:06:45.000Z</time>
      </trkpt>
      <trkpt lat="46.69949" lon="-2.36763">
        <ele>15.4</ele>
        <time>2018-09-20T10:06:46.000Z</time>
      </trkpt>
      <trkpt lat="46.69949" lon="-2.36762">
        <ele>15.4</ele>
        <time>2018-09-20T10:06:47.000Z</time>
      </trkpt>
      <trkpt lat="46.69949" lon="-2.36762">
        <ele>15.5</ele>
        <time>2018-09-20T10:06:48.000Z</time>
      </trkpt>
      <trkpt lat="46.69949" lon="-2.36762">
        <ele>15.5</ele>
        <time>2018-09-20T10:06:49.000Z</time>
      </trkpt>
      <trkpt lat="46.69949" lon="-2.36762">
        <ele>15.5</ele>
        <time>2018-09-20T10:06:50.000Z</time>
      </trkpt>
      <trkpt lat="46.69949" lon="-2.36762">
        <ele>15.4</ele>
        <time>2018-09-20T10:06:51.000Z</time>
      </trkpt>
      <trkpt lat="46.69949" lon="-2.36763">
        <ele>15.4</ele>
        <time>2018-09-20T10:06:52.000Z</time>
      </trkpt>
      <trkpt lat="46.69949" lon="-2.36763">
        <ele>15.4</ele>
        <time>2018-09-20T10:06:53.000Z</time>
      </trkpt>
      <trkpt lat="46.69949" lon="-2.36764">
        <ele>15.3</ele>
        <time>2018-09-20T10:06:54.000Z</time>
      </trkpt>
      <trkpt lat="46.69949" lon="-2.36765">
        <ele>15.2</ele>
        <time>2018-09-20T10:06:55.000Z</time>
      </trkpt>
      <trkpt lat="46.6995" lon="-2.36766">
        <ele>15.1</ele>
        <time>2018-09-20T10:06:56.000Z</time>
      </trkpt>
      <trkpt lat="46.6995" lon="-2.36767">
        <ele>15</ele>
        <time>2018-09-20T10:06:57.000Z</time>
      </trkpt>
      <trkpt lat="46.6995" lon="-2.36768">
        <ele>14.9</ele>
        <time>2018-09-20T10:06:58.000Z</time>
      </trkpt>
      <trkpt lat="46.69951" lon="-2.36769">
        <ele>14.8</ele>
        <time>2018-09-20T10:06:59.000Z</time>
      </trkpt>
      <trkpt lat="46.69951" lon="-2.3677">
        <ele>14.6</ele>
        <time>2018-09-20T10:07:00.000Z</time>
      </trkpt>
      <trkpt lat="46.69952" lon="-2.36772">
        <ele>14.5</ele>
        <time>2018-09-20T10:07:01.000Z</time>
      </trkpt>
      <trkpt lat="46.69952" lon="-2.36773">
        <ele>14.4</ele>
        <time>2018-09-20T10:07:02.000Z</time>
      </trkpt>
      <trkpt lat="46.69952" lon="-2.36774">
        <ele>14.2</ele>
        <time>2018-09-20T10:07:03.000Z</time>
      </trkpt>
      <trkpt lat="46.69953" lon="-2.36776">
        <ele>14.1</ele>
        <time>2018-09-20T10:07:04.000Z</time>
      </trkpt>
      <trkpt lat="46.69953" lon="-2.36777">
        <ele>14</ele>
        <time>2018-09-20T10:07:05.000Z</time>
      </trkpt>
      <trkpt lat="46.69953" lon="-2.36778">
        <ele>13.9</ele>
        <time>2018-09-20T10:07:06.000Z</time>
      </trkpt>
      <trkpt lat="46.69954" lon="-2.36779">
        <ele>13.8</ele>
        <time>2018-09-20T10:07:07.000Z</time>
      </trkpt>
      <trkpt lat="46.69954" lon="-2.3678">
        <ele>13.7</ele>
        <time>2018-09-20T10:07:08.000Z</time>
      </trkpt>
      <trkpt lat="46.69954" lon="-2.36781">
        <ele>13.6</ele>
        <time>2018-09-20T10:07:09.000Z</time>
      </trkpt>
      <trkpt lat="46.69954" lon="-2.36781">
        <ele>13.5</ele>
        <time>2018-09-20T10:07:10.000Z</time>
      </trkpt>
      <trkpt lat="46.69954" lon="-2.36782">
        <ele>13.5</ele>
        <time>2018-09-20T10:07:11.000Z</time>
      </trkpt>
      <trkpt lat="46.69955" lon="-2.36782">
        <ele>13.4</ele>
        <time>2018-09-20T10:07:12.000Z</time>
      </trkpt>
      <trkpt lat="46.69955" lon="-2.36783">
        <ele>13.4</ele>
        <time>2018-09-20T10:07:13.000Z</time>
      </trkpt>
      <trkpt lat="46.69955" lon="-2.36783">
        <ele>13.4</ele>
        <time>2018-09-20T10:07:14.000Z</time>
      </trkpt>
      <trkpt lat="46.69955" lon="-2.36783">
        <ele>13.4</ele>
        <time>2018-09-20T10:07:15.000Z</time>
      </trkpt>
      <trkpt lat="46.69955" lon="-2.36783">
        <ele>13.4</ele>
        <time>2018-09-20T10:07:16.000Z</time>
      </trkpt>
      <trkpt lat="46.69954" lon="-2.36783">
        <ele>13.4</ele>
        <time>2018-09-20T10:07:17.000Z</time>
      </trkpt>
      <trkpt lat="46.69954" lon="-2.36783">
        <ele>13.4</ele>
        <time>2018-09-20T10:07:18.000Z</time>
      </trkpt>
      <trkpt lat="46.69954" lon="-2.36783">
        <ele>13.4</ele>
        <time>2018-09-20T10:07:19.000Z</time>
      </trkpt>
      <trkpt lat="46.69954" lon="-2.36783">
        <ele>13.3</ele>
        <time>2018-09-20T10:07:20.000Z</time>
      </trkpt>
      <trkpt lat="46.69954" lon="-2.36783">
        <ele>13.3</ele>
        <time>2018-09-20T10:07:21.000Z</time>
      </trkpt>
      <trkpt lat="46.69954" lon="-2.36784">
        <ele>13.3</ele>
        <time>2018-09-20T10:07:22.000Z</time>
      </trkpt>
      <trkpt lat="46.69955" lon="-2.36784">
        <ele>13.2</ele>
        <time>2018-09-20T10:07:23.000Z</time>
      </trkpt>
      <trkpt lat="46.69955" lon="-2.36784">
        <ele>13.2</ele>
        <time>2018-09-20T10:07:24.000Z</time>
      </trkpt>
      <trkpt lat="46.69955" lon="-2.36785">
        <ele>13.2</ele>
        <time>2018-09-20T10:07:25.000Z</time>
      </trkpt>
      <trkpt lat="46.69956" lon="-2.36786">
        <ele>13.1</ele>
        <time>2018-09-20T10:07:26.000Z</time>
      </trkpt>
      <trkpt lat="46.69956" lon="-2.36786">
        <ele>13</ele>
        <time>2018-09-20T10:07:27.000Z</time>
      </trkpt>
      <trkpt lat="46.69957" lon="-2.36787">
        <ele>13</ele>
        <time>2018-09-20T10:07:28.000Z</time>
      </trkpt>
      <trkpt lat="46.69958" lon="-2.36788">
        <ele>12.9</ele>
        <time>2018-09-20T10:07:29.000Z</time>
      </trkpt>
      <trkpt lat="46.69959" lon="-2.36788">
        <ele>12.9</ele>
        <time>2018-09-20T10:07:30.000Z</time>
      </trkpt>
      <trkpt lat="46.69959" lon="-2.36789">
        <ele>12.8</ele>
        <time>2018-09-20T10:07:31.000Z</time>
      </trkpt>
      <trkpt lat="46.6996" lon="-2.3679">
        <ele>12.7</ele>
        <time>2018-09-20T10:07:32.000Z</time>
      </trkpt>
      <trkpt lat="46.69961" lon="-2.36791">
        <ele>12.7</ele>
        <time>2018-09-20T10:07:33.000Z</time>
      </trkpt>
      <trkpt lat="46.69961" lon="-2.36792">
        <ele>12.6</ele>
        <time>2018-09-20T10:07:34.000Z</time>
      </trkpt>
      <trkpt lat="46.69962" lon="-2.36793">
        <ele>12.5</ele>
        <time>2018-09-20T10:07:35.000Z</time>
      </trkpt>
      <trkpt lat="46.69963" lon="-2.36794">
        <ele>12.4</ele>
        <time>2018-09-20T10:07:36.000Z</time>
      </trkpt>
      <trkpt lat="46.69963" lon="-2.36795">
        <ele>12.3</ele>
        <time>2018-09-20T10:07:37.000Z</time>
      </trkpt>
      <trkpt lat="46.69964" lon="-2.36797">
        <ele>12.1</ele>
        <time>2018-09-20T10:07:38.000Z</time>
      </trkpt>
      <trkpt lat="46.69964" lon="-2.36798">
        <ele>11.9</ele>
        <time>2018-09-20T10:07:39.000Z</time>
      </trkpt>
      <trkpt lat="46.69964" lon="-2.368">
        <ele>11.8</ele>
        <time>2018-09-20T10:07:40.000Z</time>
      </trkpt>
      <trkpt lat="46.69965" lon="-2.36801">
        <ele>11.6</ele>
        <time>2018-09-20T10:07:41.000Z</time>
      </trkpt>
      <trkpt lat="46.69965" lon="-2.36802">
        <ele>11.5</ele>
        <time>2018-09-20T10:07:42.000Z</time>
      </trkpt>
      <trkpt lat="46.69965" lon="-2.36802">
        <ele>11.5</ele>
        <time>2018-09-20T10:07:43.000Z</time>
      </trkpt>
      <trkpt lat="46.69965" lon="-2.36802">
        <ele>11.5</ele>
        <time>2018-09-20T10:07:44.000Z</time>
      </trkpt>
      <trkpt lat="46.69965" lon="-2.36802">
        <ele>11.5</ele>
        <time>2018-09-20T10:07:45.000Z</time>
      </trkpt>
      <trkpt lat="46.69965" lon="-2.36802">
        <ele>11.6</ele>
        <time>2018-09-20T10:07:46.000Z</time>
      </trkpt>
      <trkpt lat="46.69965" lon="-2.36802">
        <ele>11.6</ele>
        <time>2018-09-20T10:07:47.000Z</time>
      </trkpt>
      <trkpt lat="46.69965" lon="-2.36802">
        <ele>11.6</ele>
        <time>2018-09-20T10:07:48.000Z</time>
      </trkpt>
      <trkpt lat="46.69965" lon="-2.36802">
        <ele>11.5</ele>
        <time>2018-09-20T10:07:49.000Z</time>
      </trkpt>
      <trkpt lat="46.69965" lon="-2.36803">
        <ele>11.5</ele>
        <time>2018-09-20T10:07:50.000Z</time>
      </trkpt>
      <trkpt lat="46.69965" lon="-2.36804">
        <ele>11.4</ele>
        <time>2018-09-20T10:07:51.000Z</time>
      </trkpt>
      <trkpt lat="46.69965" lon="-2.36805">
        <ele>11.3</ele>
        <time>2018-09-20T10:07:52.000Z</time>
      </trkpt>
      <trkpt lat="46.69965" lon="-2.36806">
        <ele>11.2</ele>
        <time>2018-09-20T10:07:53.000Z</time>
      </trkpt>
      <trkpt lat="46.69966" lon="-2.36806">
        <ele>11.1</ele>
        <time>2018-09-20T10:07:54.000Z</time>
      </trkpt>
      <trkpt lat="46.69966" lon="-2.36807">
        <ele>11.1</ele>
        <time>2018-09-20T10:07:55.000Z</time>
      </trkpt>
      <trkpt lat="46.69967" lon="-2.36807">
        <ele>11</ele>
        <time>2018-09-20T10:07:56.000Z</time>
      </trkpt>
      <trkpt lat="46.69967" lon="-2.36807">
        <ele>11</ele>
        <time>2018-09-20T10:07:57.000Z</time>
      </trkpt>
      <trkpt lat="46.69967" lon="-2.36807">
        <ele>11</ele>
        <time>2018-09-20T10:07:58.000Z</time>
      </trkpt>
      <trkpt lat="46.69968" lon="-2.36807">
        <ele>11</ele>
        <time>2018-09-20T10:07:59.000Z</time>
      </trkpt>
      <trkpt lat="46.69968" lon="-2.36807">
        <ele>11</ele>
        <time>2018-09-20T10:08:00.000Z</time>
      </trkpt>
      <trkpt lat="46.69968" lon="-2.36807">
        <ele>11</ele>
        <time>2018-09-20T10:08:01.000Z</time>
      </trkpt>
      <trkpt lat="46.69968" lon="-2.36807">
        <ele>11</ele>
        <time>2018-09-20T10:08:02.000Z</time>
      </trkpt>
      <trkpt lat="46.69968" lon="-2.36807">
        <ele>11.1</ele>
        <time>2018-09-20T10:08:03.000Z</time>
      </trkpt>
      <trkpt lat="46.69968" lon="-2.36807">
        <ele>11.1</ele>
        <time>2018-09-20T10:08:04.000Z</time>
      </trkpt>
      <trkpt lat="46.69968" lon="-2.36807">
        <ele>11.1</ele>
        <time>2018-09-20T10:08:05.000Z</time>
      </trkpt>
      <trkpt lat="46.69968" lon="-2.36807">
        <ele>11.1</ele>
        <time>2018-09-20T10:08:06.000Z</time>
      </trkpt>
      <trkpt lat="46.69968" lon="-2.36807">
        <ele>11.1</ele>
        <time>2018-09-20T10:08:07.000Z</time>
      </trkpt>
      <trkpt lat="46.69968" lon="-2.36807">
        <ele>11.1</ele>
        <time>2018-09-20T10:08:08.000Z</time>
      </trkpt>
      <trkpt lat="46.69968" lon="-2.36807">
        <ele>11</ele>
        <time>2018-09-20T10:08:09.000Z</time>
      </trkpt>
      <trkpt lat="46.69968" lon="-2.36807">
        <ele>11</ele>
        <time>2018-09-20T10:08:10.000Z</time>
      </trkpt>
      <trkpt lat="46.69968" lon="-2.36807">
        <ele>11</ele>
        <time>2018-09-20T10:08:11.000Z</time>
      </trkpt>
      <trkpt lat="46.69968" lon="-2.36807">
        <ele>11</ele>
        <time>2018-09-20T10:08:12.000Z</time>
      </trkpt>
      <trkpt lat="46.69968" lon="-2.36807">
        <ele>11</ele>
        <time>2018-09-20T10:08:13.000Z</time>
      </trkpt>
      <trkpt lat="46.69968" lon="-2.36807">
        <ele>11.1</ele>
        <time>2018-09-20T10:08:14.000Z</time>
      </trkpt>
      <trkpt lat="46.69968" lon="-2.36807">
        <ele>11.1</ele>
        <time>2018-09-20T10:08:15.000Z</time>
      </trkpt>
      <trkpt lat="46.69968" lon="-2.36807">
        <ele>11.1</ele>
        <time>2018-09-20T10:08:16.000Z</time>
      </trkpt>
      <trkpt lat="46.69968" lon="-2.36807">
        <ele>11.1</ele>
        <time>2018-09-20T10:08:17.000Z</time>
      </trkpt>
      <trkpt lat="46.69968" lon="-2.36807">
        <ele>11.1</ele>
        <time>2018-09-20T10:08:18.000Z</time>
      </trkpt>
      <trkpt lat="46.69968" lon="-2.36807">
        <ele>11.1</ele>
        <time>2018-09-20T10:08:19.000Z</time>
      </trkpt>
      <trkpt lat="46.69968" lon="-2.36807">
        <ele>11.1</ele>
        <time>2018-09-20T10:08:20.000Z</time>
      </trkpt>
      <trkpt lat="46.69968" lon="-2.36807">
        <ele>11.1</ele>
        <time>2018-09-20T10:08:21.000Z</time>
      </trkpt>
      <trkpt lat="46.69968" lon="-2.36807">
        <ele>11.1</ele>
        <time>2018-09-20T10:08:22.000Z</time>
      </trkpt>
      <trkpt lat="46.69968" lon="-2.36807">
        <ele>11</ele>
        <time>2018-09-20T10:08:23.000Z</time>
      </trkpt>
      <trkpt lat="46.69968" lon="-2.36808">
        <ele>11</ele>
        <time>2018-09-20T10:08:24.000Z</time>
      </trkpt>
      <trkpt lat="46.69968" lon="-2.36808">
        <ele>10.9</ele>
        <time>2018-09-20T10:08:25.000Z</time>
      </trkpt>
      <trkpt lat="46.69968" lon="-2.36809">
        <ele>10.8</ele>
        <time>2018-09-20T10:08:26.000Z</time>
      </trkpt>
      <trkpt lat="46.69968" lon="-2.3681">
        <ele>10.7</ele>
        <time>2018-09-20T10:08:27.000Z</time>
      </trkpt>
      <trkpt lat="46.69968" lon="-2.36811">
        <ele>10.6</ele>
        <time>2018-09-20T10:08:28.000Z</time>
      </trkpt>
      <trkpt lat="46.69968" lon="-2.36812">
        <ele>10.5</ele>
        <time>2018-09-20T10:08:29.000Z</time>
      </trkpt>
      <trkpt lat="46.69968" lon="-2.36814">
        <ele>10.3</ele>
        <time>2018-09-20T10:08:30.000Z</time>
      </trkpt>
      <trkpt lat="46.69968" lon="-2.36815">
        <ele>10.2</ele>
        <time>2018-09-20T10:08:31.000Z</time>
      </trkpt>
      <trkpt lat="46.69968" lon="-2.36817">
        <ele>10</ele>
        <time>2018-09-20T10:08:32.000Z</time>
      </trkpt>
      <trkpt lat="46.69968" lon="-2.36818">
        <ele>9.9</ele>
        <time>2018-09-20T10:08:33.000Z</time>
      </trkpt>
      <trkpt lat="46.69968" lon="-2.36819">
        <ele>9.7</ele>
        <time>2018-09-20T10:08:34.000Z</time>
      </trkpt>
      <trkpt lat="46.69968" lon="-2.36821">
        <ele>9.6</ele>
        <time>2018-09-20T10:08:35.000Z</time>
      </trkpt>
      <trkpt lat="46.69968" lon="-2.36822">
        <ele>9.4</ele>
        <time>2018-09-20T10:08:36.000Z</time>
      </trkpt>
      <trkpt lat="46.69968" lon="-2.36824">
        <ele>9.3</ele>
        <time>2018-09-20T10:08:37.000Z</time>
      </trkpt>
      <trkpt lat="46.69968" lon="-2.36825">
        <ele>9.1</ele>
        <time>2018-09-20T10:08:38.000Z</time>
      </trkpt>
      <trkpt lat="46.69968" lon="-2.36826">
        <ele>9</ele>
        <time>2018-09-20T10:08:39.000Z</time>
      </trkpt>
      <trkpt lat="46.69968" lon="-2.36827">
        <ele>8.9</ele>
        <time>2018-09-20T10:08:40.000Z</time>
      </trkpt>
      <trkpt lat="46.69968" lon="-2.36828">
        <ele>8.8</ele>
        <time>2018-09-20T10:08:41.000Z</time>
      </trkpt>
      <trkpt lat="46.69968" lon="-2.36829">
        <ele>8.7</ele>
        <time>2018-09-20T10:08:42.000Z</time>
      </trkpt>
      <trkpt lat="46.69968" lon="-2.3683">
        <ele>8.6</ele>
        <time>2018-09-20T10:08:43.000Z</time>
      </trkpt>
      <trkpt lat="46.69968" lon="-2.36831">
        <ele>8.4</ele>
        <time>2018-09-20T10:08:44.000Z</time>
      </trkpt>
      <trkpt lat="46.69968" lon="-2.36832">
        <ele>8.3</ele>
        <time>2018-09-20T10:08:45.000Z</time>
      </trkpt>
      <trkpt lat="46.69968" lon="-2.36833">
        <ele>8.2</ele>
        <time>2018-09-20T10:08:46.000Z</time>
      </trkpt>
      <trkpt lat="46.69969" lon="-2.36834">
        <ele>8.2</ele>
        <time>2018-09-20T10:08:47.000Z</time>
      </trkpt>
      <trkpt lat="46.69969" lon="-2.36835">
        <ele>8.1</ele>
        <time>2018-09-20T10:08:48.000Z</time>
      </trkpt>
      <trkpt lat="46.6997" lon="-2.36836">
        <ele>8.1</ele>
        <time>2018-09-20T10:08:49.000Z</time>
      </trkpt>
      <trkpt lat="46.6997" lon="-2.36837">
        <ele>8.1</ele>
        <time>2018-09-20T10:08:50.000Z</time>
      </trkpt>
      <trkpt lat="46.6997" lon="-2.36838">
        <ele>8</ele>
        <time>2018-09-20T10:08:51.000Z</time>
      </trkpt>
      <trkpt lat="46.69971" lon="-2.36838">
        <ele>8</ele>
        <time>2018-09-20T10:08:52.000Z</time>
      </trkpt>
      <trkpt lat="46.69971" lon="-2.36839">
        <ele>8</ele>
        <time>2018-09-20T10:08:53.000Z</time>
      </trkpt>
      <trkpt lat="46.69971" lon="-2.36839">
        <ele>8</ele>
        <time>2018-09-20T10:08:54.000Z</time>
      </trkpt>
      <trkpt lat="46.69971" lon="-2.36839">
        <ele>8</ele>
        <time>2018-09-20T10:08:55.000Z</time>
      </trkpt>
      <trkpt lat="46.69971" lon="-2.36839">
        <ele>8</ele>
        <time>2018-09-20T10:08:56.000Z</time>
      </trkpt>
      <trkpt lat="46.69971" lon="-2.36839">
        <ele>8</ele>
        <time>2018-09-20T10:08:57.000Z</time>
      </trkpt>
      <trkpt lat="46.69971" lon="-2.36839">
        <ele>7.9</ele>
        <time>2018-09-20T10:08:58.000Z</time>
      </trkpt>
      <trkpt lat="46.6997" lon="-2.36839">
        <ele>7.9</ele>
        <time>2018-09-20T10:08:59.000Z</time>
      </trkpt>
      <trkpt lat="46.6997" lon="-2.3684">
        <ele>7.9</ele>
        <time>2018-09-20T10:09:00.000Z</time>
      </trkpt>
      <trkpt lat="46.6997" lon="-2.3684">
        <ele>7.9</ele>
        <time>2018-09-20T10:09:01.000Z</time>
      </trkpt>
      <trkpt lat="46.6997" lon="-2.3684">
        <ele>7.9</ele>
        <time>2018-09-20T10:09:02.000Z</time>
      </trkpt>
      <trkpt lat="46.69969" lon="-2.3684">
        <ele>7.9</ele>
        <time>2018-09-20T10:09:03.000Z</time>
      </trkpt>
      <trkpt lat="46.69969" lon="-2.3684">
        <ele>7.9</ele>
        <time>2018-09-20T10:09:04.000Z</time>
      </trkpt>
      <trkpt lat="46.69969" lon="-2.3684">
        <ele>7.9</ele>
        <time>2018-09-20T10:09:05.000Z</time>
      </trkpt>
      <trkpt lat="46.69969" lon="-2.3684">
        <ele>7.9</ele>
        <time>2018-09-20T10:09:06.000Z</time>
      </trkpt>
      <trkpt lat="46.69969" lon="-2.3684">
        <ele>7.9</ele>
        <time>2018-09-20T10:09:07.000Z</time>
      </trkpt>
      <trkpt lat="46.69969" lon="-2.3684">
        <ele>7.9</ele>
        <time>2018-09-20T10:09:08.000Z</time>
      </trkpt>
      <trkpt lat="46.69969" lon="-2.3684">
        <ele>7.9</ele>
        <time>2018-09-20T10:09:09.000Z</time>
      </trkpt>
      <trkpt lat="46.69969" lon="-2.3684">
        <ele>7.9</ele>
        <time>2018-09-20T10:09:10.000Z</time>
      </trkpt>
      <trkpt lat="46.69969" lon="-2.3684">
        <ele>7.9</ele>
        <time>2018-09-20T10:09:11.000Z</time>
      </trkpt>
      <trkpt lat="46.69969" lon="-2.3684">
        <ele>7.9</ele>
        <time>2018-09-20T10:09:12.000Z</time>
      </trkpt>
      <trkpt lat="46.69969" lon="-2.3684">
        <ele>7.9</ele>
        <time>2018-09-20T10:09:13.000Z</time>
      </trkpt>
      <trkpt lat="46.69969" lon="-2.3684">
        <ele>7.9</ele>
        <time>2018-09-20T10:09:14.000Z</time>
      </trkpt>
      <trkpt lat="46.69969" lon="-2.3684">
        <ele>7.9</ele>
        <time>2018-09-20T10:09:15.000Z</time>
      </trkpt>
      <trkpt lat="46.69969" lon="-2.3684">
        <ele>7.9</ele>
        <time>2018-09-20T10:09:16.000Z</time>
      </trkpt>
      <trkpt lat="46.69969" lon="-2.3684">
        <ele>7.9</ele>
        <time>2018-09-20T10:09:17.000Z</time>
      </trkpt>
      <trkpt lat="46.69969" lon="-2.3684">
        <ele>7.9</ele>
        <time>2018-09-20T10:09:18.000Z</time>
      </trkpt>
      <trkpt lat="46.69969" lon="-2.3684">
        <ele>7.9</ele>
        <time>2018-09-20T10:09:19.000Z</time>
      </trkpt>
      <trkpt lat="46.69969" lon="-2.3684">
        <ele>7.9</ele>
        <time>2018-09-20T10:09:20.000Z</time>
      </trkpt>
      <trkpt lat="46.69969" lon="-2.3684">
        <ele>7.9</ele>
        <time>2018-09-20T10:09:21.000Z</time>
      </trkpt>
      <trkpt lat="46.69969" lon="-2.3684">
        <ele>7.9</ele>
        <time>2018-09-20T10:09:22.000Z</time>
      </trkpt>
      <trkpt lat="46.69969" lon="-2.3684">
        <ele>7.9</ele>
        <time>2018-09-20T10:09:23.000Z</time>
      </trkpt>
      <trkpt lat="46.69969" lon="-2.3684">
        <ele>7.9</ele>
        <time>2018-09-20T10:09:24.000Z</time>
      </trkpt>
      <trkpt lat="46.69969" lon="-2.3684">
        <ele>7.9</ele>
        <time>2018-09-20T10:09:25.000Z</time>
      </trkpt>
      <trkpt lat="46.69969" lon="-2.3684">
        <ele>7.9</ele>
        <time>2018-09-20T10:09:26.000Z</time>
      </trkpt>
      <trkpt lat="46.69969" lon="-2.3684">
        <ele>7.9</ele>
        <time>2018-09-20T10:09:27.000Z</time>
      </trkpt>
      <trkpt lat="46.69969" lon="-2.3684">
        <ele>7.9</ele>
        <time>2018-09-20T10:09:28.000Z</time>
      </trkpt>
      <trkpt lat="46.69969" lon="-2.3684">
        <ele>7.9</ele>
        <time>2018-09-20T10:09:29.000Z</time>
      </trkpt>
      <trkpt lat="46.69969" lon="-2.3684">
        <ele>7.9</ele>
        <time>2018-09-20T10:09:30.000Z</time>
      </trkpt>
      <trkpt lat="46.69969" lon="-2.3684">
        <ele>7.9</ele>
        <time>2018-09-20T10:09:31.000Z</time>
      </trkpt>
      <trkpt lat="46.69969" lon="-2.3684">
        <ele>7.9</ele>
        <time>2018-09-20T10:09:32.000Z</time>
      </trkpt>
      <trkpt lat="46.69969" lon="-2.3684">
        <ele>7.9</ele>
        <time>2018-09-20T10:09:33.000Z</time>
      </trkpt>
      <trkpt lat="46.69969" lon="-2.3684">
        <ele>7.9</ele>
        <time>2018-09-20T10:09:34.000Z</time>
      </trkpt>
      <trkpt lat="46.6997" lon="-2.3684">
        <ele>7.9</ele>
        <time>2018-09-20T10:09:35.000Z</time>
      </trkpt>
      <trkpt lat="46.6997" lon="-2.3684">
        <ele>7.9</ele>
        <time>2018-09-20T10:09:36.000Z</time>
      </trkpt>
      <trkpt lat="46.69971" lon="-2.36839">
        <ele>8</ele>
        <time>2018-09-20T10:09:37.000Z</time>
      </trkpt>
      <trkpt lat="46.69971" lon="-2.36839">
        <ele>8</ele>
        <time>2018-09-20T10:09:38.000Z</time>
      </trkpt>
      <trkpt lat="46.69972" lon="-2.36839">
        <ele>8</ele>
        <time>2018-09-20T10:09:39.000Z</time>
      </trkpt>
      <trkpt lat="46.69972" lon="-2.36839">
        <ele>8</ele>
        <time>2018-09-20T10:09:40.000Z</time>
      </trkpt>
      <trkpt lat="46.69972" lon="-2.36839">
        <ele>8</ele>
        <time>2018-09-20T10:09:41.000Z</time>
      </trkpt>
      <trkpt lat="46.69972" lon="-2.36839">
        <ele>8</ele>
        <time>2018-09-20T10:09:42.000Z</time>
      </trkpt>
      <trkpt lat="46.69972" lon="-2.36839">
        <ele>8</ele>
        <time>2018-09-20T10:09:43.000Z</time>
      </trkpt>
      <trkpt lat="46.69972" lon="-2.36839">
        <ele>8</ele>
        <time>2018-09-20T10:09:44.000Z</time>
      </trkpt>
      <trkpt lat="46.69972" lon="-2.36839">
        <ele>8</ele>
        <time>2018-09-20T10:09:45.000Z</time>
      </trkpt>
      <trkpt lat="46.69972" lon="-2.36839">
        <ele>8</ele>
        <time>2018-09-20T10:09:46.000Z</time>
      </trkpt>
      <trkpt lat="46.69972" lon="-2.36839">
        <ele>8</ele>
        <time>2018-09-20T10:09:47.000Z</time>
      </trkpt>
      <trkpt lat="46.69972" lon="-2.36839">
        <ele>8</ele>
        <time>2018-09-20T10:09:48.000Z</time>
      </trkpt>
      <trkpt lat="46.69972" lon="-2.36839">
        <ele>8</ele>
        <time>2018-09-20T10:09:49.000Z</time>
      </trkpt>
      <trkpt lat="46.69972" lon="-2.36839">
        <ele>8</ele>
        <time>2018-09-20T10:09:50.000Z</time>
      </trkpt>
      <trkpt lat="46.69972" lon="-2.36839">
        <ele>8</ele>
        <time>2018-09-20T10:09:51.000Z</time>
      </trkpt>
      <trkpt lat="46.69972" lon="-2.36839">
        <ele>8</ele>
        <time>2018-09-20T10:09:52.000Z</time>
      </trkpt>
      <trkpt lat="46.69972" lon="-2.36839">
        <ele>8</ele>
        <time>2018-09-20T10:09:53.000Z</time>
      </trkpt>
      <trkpt lat="46.69972" lon="-2.36839">
        <ele>8</ele>
        <time>2018-09-20T10:09:54.000Z</time>
      </trkpt>
      <trkpt lat="46.69972" lon="-2.36839">
        <ele>8</ele>
        <time>2018-09-20T10:09:55.000Z</time>
      </trkpt>
      <trkpt lat="46.69972" lon="-2.36839">
        <ele>8</ele>
        <time>2018-09-20T10:09:56.000Z</time>
      </trkpt>
      <trkpt lat="46.69972" lon="-2.36839">
        <ele>8</ele>
        <time>2018-09-20T10:09:57.000Z</time>
      </trkpt>
      <trkpt lat="46.69972" lon="-2.36839">
        <ele>8</ele>
        <time>2018-09-20T10:09:58.000Z</time>
      </trkpt>
      <trkpt lat="46.69972" lon="-2.36839">
        <ele>8</ele>
        <time>2018-09-20T10:09:59.000Z</time>
      </trkpt>
      <trkpt lat="46.69972" lon="-2.36839">
        <ele>8</ele>
        <time>2018-09-20T10:10:00.000Z</time>
      </trkpt>
      <trkpt lat="46.69972" lon="-2.36839">
        <ele>8</ele>
        <time>2018-09-20T10:10:01.000Z</time>
      </trkpt>
      <trkpt lat="46.69972" lon="-2.36839">
        <ele>8</ele>
        <time>2018-09-20T10:10:02.000Z</time>
      </trkpt>
      <trkpt lat="46.69972" lon="-2.36839">
        <ele>8</ele>
        <time>2018-09-20T10:10:03.000Z</time>
      </trkpt>
      <trkpt lat="46.69972" lon="-2.36839">
        <ele>8</ele>
        <time>2018-09-20T10:10:04.000Z</time>
      </trkpt>
      <trkpt lat="46.69972" lon="-2.36839">
        <ele>8</ele>
        <time>2018-09-20T10:10:05.000Z</time>
      </trkpt>
      <trkpt lat="46.69972" lon="-2.36839">
        <ele>8</ele>
        <time>2018-09-20T10:10:06.000Z</time>
      </trkpt>
      <trkpt lat="46.69972" lon="-2.36839">
        <ele>8</ele>
        <time>2018-09-20T10:10:07.000Z</time>
      </trkpt>
      <trkpt lat="46.69972" lon="-2.36839">
        <ele>8</ele>
        <time>2018-09-20T10:10:08.000Z</time>
      </trkpt>
      <trkpt lat="46.69972" lon="-2.36839">
        <ele>8</ele>
        <time>2018-09-20T10:10:09.000Z</time>
      </trkpt>
      <trkpt lat="46.69972" lon="-2.36839">
        <ele>8</ele>
        <time>2018-09-20T10:10:10.000Z</time>
      </trkpt>
      <trkpt lat="46.69972" lon="-2.36839">
        <ele>8</ele>
        <time>2018-09-20T10:10:11.000Z</time>
      </trkpt>
      <trkpt lat="46.69972" lon="-2.36839">
        <ele>8</ele>
        <time>2018-09-20T10:10:12.000Z</time>
      </trkpt>
      <trkpt lat="46.69972" lon="-2.36839">
        <ele>8</ele>
        <time>2018-09-20T10:10:13.000Z</time>
      </trkpt>
      <trkpt lat="46.69972" lon="-2.36839">
        <ele>8</ele>
        <time>2018-09-20T10:10:14.000Z</time>
      </trkpt>
      <trkpt lat="46.69972" lon="-2.36839">
        <ele>8</ele>
        <time>2018-09-20T10:10:15.000Z</time>
      </trkpt>
      <trkpt lat="46.69972" lon="-2.36839">
        <ele>8</ele>
        <time>2018-09-20T10:10:16.000Z</time>
      </trkpt>
      <trkpt lat="46.69972" lon="-2.36839">
        <ele>8</ele>
        <time>2018-09-20T10:10:17.000Z</time>
      </trkpt>
      <trkpt lat="46.69972" lon="-2.36839">
        <ele>8</ele>
        <time>2018-09-20T10:10:18.000Z</time>
      </trkpt>
      <trkpt lat="46.69972" lon="-2.36839">
        <ele>8</ele>
        <time>2018-09-20T10:10:19.000Z</time>
      </trkpt>
      <trkpt lat="46.69972" lon="-2.36839">
        <ele>8</ele>
        <time>2018-09-20T10:10:20.000Z</time>
      </trkpt>
      <trkpt lat="46.69972" lon="-2.36839">
        <ele>8</ele>
        <time>2018-09-20T10:10:21.000Z</time>
      </trkpt>
      <trkpt lat="46.69972" lon="-2.36839">
        <ele>8</ele>
        <time>2018-09-20T10:10:22.000Z</time>
      </trkpt>
      <trkpt lat="46.69972" lon="-2.36839">
        <ele>8</ele>
        <time>2018-09-20T10:10:23.000Z</time>
      </trkpt>
      <trkpt lat="46.69972" lon="-2.36839">
        <ele>8</ele>
        <time>2018-09-20T10:10:24.000Z</time>
      </trkpt>
      <trkpt lat="46.69972" lon="-2.36839">
        <ele>8</ele>
        <time>2018-09-20T10:10:25.000Z</time>
      </trkpt>
      <trkpt lat="46.69972" lon="-2.36839">
        <ele>8</ele>
        <time>2018-09-20T10:10:26.000Z</time>
      </trkpt>
      <trkpt lat="46.69972" lon="-2.36839">
        <ele>8</ele>
        <time>2018-09-20T10:10:27.000Z</time>
      </trkpt>
      <trkpt lat="46.69972" lon="-2.36839">
        <ele>8</ele>
        <time>2018-09-20T10:10:28.000Z</time>
      </trkpt>
      <trkpt lat="46.69972" lon="-2.36839">
        <ele>8</ele>
        <time>2018-09-20T10:10:29.000Z</time>
      </trkpt>
      <trkpt lat="46.69972" lon="-2.36839">
        <ele>8</ele>
        <time>2018-09-20T10:10:30.000Z</time>
      </trkpt>
      <trkpt lat="46.69972" lon="-2.36839">
        <ele>8</ele>
        <time>2018-09-20T10:10:31.000Z</time>
      </trkpt>
      <trkpt lat="46.69972" lon="-2.36839">
        <ele>8</ele>
        <time>2018-09-20T10:10:32.000Z</time>
      </trkpt>
      <trkpt lat="46.69972" lon="-2.36839">
        <ele>8</ele>
        <time>2018-09-20T10:10:33.000Z</time>
      </trkpt>
      <trkpt lat="46.69972" lon="-2.36839">
        <ele>8</ele>
        <time>2018-09-20T10:10:34.000Z</time>
      </trkpt>
      <trkpt lat="46.69972" lon="-2.36839">
        <ele>8</ele>
        <time>2018-09-20T10:10:35.000Z</time>
      </trkpt>
      <trkpt lat="46.69972" lon="-2.36839">
        <ele>8</ele>
        <time>2018-09-20T10:10:36.000Z</time>
      </trkpt>
      <trkpt lat="46.69972" lon="-2.36838">
        <ele>8</ele>
        <time>2018-09-20T10:10:37.000Z</time>
      </trkpt>
      <trkpt lat="46.69972" lon="-2.36838">
        <ele>8.1</ele>
        <time>2018-09-20T10:10:38.000Z</time>
      </trkpt>
      <trkpt lat="46.69972" lon="-2.36837">
        <ele>8.1</ele>
        <time>2018-09-20T10:10:39.000Z</time>
      </trkpt>
      <trkpt lat="46.69972" lon="-2.36836">
        <ele>8.2</ele>
        <time>2018-09-20T10:10:40.000Z</time>
      </trkpt>
      <trkpt lat="46.69972" lon="-2.36835">
        <ele>8.2</ele>
        <time>2018-09-20T10:10:41.000Z</time>
      </trkpt>
      <trkpt lat="46.69971" lon="-2.36834">
        <ele>8.3</ele>
        <time>2018-09-20T10:10:42.000Z</time>
      </trkpt>
      <trkpt lat="46.69971" lon="-2.36833">
        <ele>8.3</ele>
        <time>2018-09-20T10:10:43.000Z</time>
      </trkpt>
      <trkpt lat="46.6997" lon="-2.36833">
        <ele>8.4</ele>
        <time>2018-09-20T10:10:44.000Z</time>
      </trkpt>
      <trkpt lat="46.69969" lon="-2.36832">
        <ele>8.4</ele>
        <time>2018-09-20T10:10:45.000Z</time>
      </trkpt>
      <trkpt lat="46.69969" lon="-2.36831">
        <ele>8.5</ele>
        <time>2018-09-20T10:10:46.000Z</time>
      </trkpt>
      <trkpt lat="46.69968" lon="-2.36829">
        <ele>8.7</ele>
        <time>2018-09-20T10:10:47.000Z</time>
      </trkpt>
      <trkpt lat="46.69968" lon="-2.36828">
        <ele>8.9</ele>
        <time>2018-09-20T10:10:48.000Z</time>
      </trkpt>
      <trkpt lat="46.69968" lon="-2.36826">
        <ele>9.1</ele>
        <time>2018-09-20T10:10:49.000Z</time>
      </trkpt>
      <trkpt lat="46.69968" lon="-2.36824">
        <ele>9.2</ele>
        <time>2018-09-20T10:10:50.000Z</time>
      </trkpt>
      <trkpt lat="46.69968" lon="-2.36823">
        <ele>9.4</ele>
        <time>2018-09-20T10:10:51.000Z</time>
      </trkpt>
      <trkpt lat="46.69968" lon="-2.36822">
        <ele>9.5</ele>
        <time>2018-09-20T10:10:52.000Z</time>
      </trkpt>
      <trkpt lat="46.69968" lon="-2.36821">
        <ele>9.6</ele>
        <time>2018-09-20T10:10:53.000Z</time>
      </trkpt>
      <trkpt lat="46.69968" lon="-2.36821">
        <ele>9.6</ele>
        <time>2018-09-20T10:10:54.000Z</time>
      </trkpt>
      <trkpt lat="46.69968" lon="-2.3682">
        <ele>9.6</ele>
        <time>2018-09-20T10:10:55.000Z</time>
      </trkpt>
      <trkpt lat="46.69968" lon="-2.3682">
        <ele>9.6</ele>
        <time>2018-09-20T10:10:56.000Z</time>
      </trkpt>
      <trkpt lat="46.69968" lon="-2.3682">
        <ele>9.6</ele>
        <time>2018-09-20T10:10:57.000Z</time>
      </trkpt>
      <trkpt lat="46.69968" lon="-2.3682">
        <ele>9.6</ele>
        <time>2018-09-20T10:10:58.000Z</time>
      </trkpt>
      <trkpt lat="46.69968" lon="-2.3682">
        <ele>9.6</ele>
        <time>2018-09-20T10:10:59.000Z</time>
      </trkpt>
      <trkpt lat="46.69968" lon="-2.3682">
        <ele>9.6</ele>
        <time>2018-09-20T10:11:00.000Z</time>
      </trkpt>
      <trkpt lat="46.69968" lon="-2.3682">
        <ele>9.6</ele>
        <time>2018-09-20T10:11:01.000Z</time>
      </trkpt>
      <trkpt lat="46.69968" lon="-2.3682">
        <ele>9.6</ele>
        <time>2018-09-20T10:11:02.000Z</time>
      </trkpt>
      <trkpt lat="46.69968" lon="-2.3682">
        <ele>9.6</ele>
        <time>2018-09-20T10:11:03.000Z</time>
      </trkpt>
      <trkpt lat="46.69968" lon="-2.3682">
        <ele>9.6</ele>
        <time>2018-09-20T10:11:04.000Z</time>
      </trkpt>
      <trkpt lat="46.69968" lon="-2.36821">
        <ele>9.6</ele>
        <time>2018-09-20T10:11:05.000Z</time>
      </trkpt>
      <trkpt lat="46.69968" lon="-2.36821">
        <ele>9.6</ele>
        <time>2018-09-20T10:11:06.000Z</time>
      </trkpt>
      <trkpt lat="46.69968" lon="-2.36821">
        <ele>9.6</ele>
        <time>2018-09-20T10:11:07.000Z</time>
      </trkpt>
      <trkpt lat="46.69968" lon="-2.3682">
        <ele>9.6</ele>
        <time>2018-09-20T10:11:08.000Z</time>
      </trkpt>
      <trkpt lat="46.69968" lon="-2.3682">
        <ele>9.6</ele>
        <time>2018-09-20T10:11:09.000Z</time>
      </trkpt>
      <trkpt lat="46.69968" lon="-2.3682">
        <ele>9.6</ele>
        <time>2018-09-20T10:11:10.000Z</time>
      </trkpt>
      <trkpt lat="46.69968" lon="-2.3682">
        <ele>9.6</ele>
        <time>2018-09-20T10:11:11.000Z</time>
      </trkpt>
      <trkpt lat="46.69968" lon="-2.3682">
        <ele>9.7</ele>
        <time>2018-09-20T10:11:12.000Z</time>
      </trkpt>
      <trkpt lat="46.69968" lon="-2.3682">
        <ele>9.7</ele>
        <time>2018-09-20T10:11:13.000Z</time>
      </trkpt>
      <trkpt lat="46.69968" lon="-2.3682">
        <ele>9.7</ele>
        <time>2018-09-20T10:11:14.000Z</time>
      </trkpt>
      <trkpt lat="46.69968" lon="-2.3682">
        <ele>9.7</ele>
        <time>2018-09-20T10:11:15.000Z</time>
      </trkpt>
      <trkpt lat="46.69968" lon="-2.3682">
        <ele>9.7</ele>
        <time>2018-09-20T10:11:16.000Z</time>
      </trkpt>
      <trkpt lat="46.69968" lon="-2.36819">
        <ele>9.7</ele>
        <time>2018-09-20T10:11:17.000Z</time>
      </trkpt>
      <trkpt lat="46.69968" lon="-2.36819">
        <ele>9.8</ele>
        <time>2018-09-20T10:11:18.000Z</time>
      </trkpt>
      <trkpt lat="46.69968" lon="-2.36819">
        <ele>9.8</ele>
        <time>2018-09-20T10:11:19.000Z</time>
      </trkpt>
      <trkpt lat="46.69968" lon="-2.36819">
        <ele>9.8</ele>
        <time>2018-09-20T10:11:20.000Z</time>
      </trkpt>
      <trkpt lat="46.69968" lon="-2.36818">
        <ele>9.9</ele>
        <time>2018-09-20T10:11:21.000Z</time>
      </trkpt>
      <trkpt lat="46.69968" lon="-2.36818">
        <ele>9.9</ele>
        <time>2018-09-20T10:11:22.000Z</time>
      </trkpt>
      <trkpt lat="46.69968" lon="-2.36818">
        <ele>9.9</ele>
        <time>2018-09-20T10:11:23.000Z</time>
      </trkpt>
      <trkpt lat="46.69968" lon="-2.36818">
        <ele>9.9</ele>
        <time>2018-09-20T10:11:24.000Z</time>
      </trkpt>
      <trkpt lat="46.69968" lon="-2.36818">
        <ele>9.9</ele>
        <time>2018-09-20T10:11:25.000Z</time>
      </trkpt>
      <trkpt lat="46.69968" lon="-2.36818">
        <ele>9.9</ele>
        <time>2018-09-20T10:11:26.000Z</time>
      </trkpt>
      <trkpt lat="46.69968" lon="-2.36818">
        <ele>9.9</ele>
        <time>2018-09-20T10:11:27.000Z</time>
      </trkpt>
      <trkpt lat="46.69968" lon="-2.36818">
        <ele>9.9</ele>
        <time>2018-09-20T10:11:28.000Z</time>
      </trkpt>
      <trkpt lat="46.69968" lon="-2.36817">
        <ele>10</ele>
        <time>2018-09-20T10:11:29.000Z</time>
      </trkpt>
      <trkpt lat="46.69968" lon="-2.36817">
        <ele>10</ele>
        <time>2018-09-20T10:11:30.000Z</time>
      </trkpt>
      <trkpt lat="46.69968" lon="-2.36816">
        <ele>10.1</ele>
        <time>2018-09-20T10:11:31.000Z</time>
      </trkpt>
      <trkpt lat="46.69967" lon="-2.36815">
        <ele>10.2</ele>
        <time>2018-09-20T10:11:32.000Z</time>
      </trkpt>
      <trkpt lat="46.69967" lon="-2.36814">
        <ele>10.3</ele>
        <time>2018-09-20T10:11:33.000Z</time>
      </trkpt>
      <trkpt lat="46.69967" lon="-2.36813">
        <ele>10.4</ele>
        <time>2018-09-20T10:11:34.000Z</time>
      </trkpt>
      <trkpt lat="46.69967" lon="-2.36812">
        <ele>10.5</ele>
        <time>2018-09-20T10:11:35.000Z</time>
      </trkpt>
      <trkpt lat="46.69966" lon="-2.36811">
        <ele>10.6</ele>
        <time>2018-09-20T10:11:36.000Z</time>
      </trkpt>
      <trkpt lat="46.69966" lon="-2.3681">
        <ele>10.7</ele>
        <time>2018-09-20T10:11:37.000Z</time>
      </trkpt>
      <trkpt lat="46.69966" lon="-2.3681">
        <ele>10.8</ele>
        <time>2018-09-20T10:11:38.000Z</time>
      </trkpt>
      <trkpt lat="46.69966" lon="-2.36809">
        <ele>10.8</ele>
        <time>2018-09-20T10:11:39.000Z</time>
      </trkpt>
      <trkpt lat="46.69966" lon="-2.36809">
        <ele>10.9</ele>
        <time>2018-09-20T10:11:40.000Z</time>
      </trkpt>
      <trkpt lat="46.69966" lon="-2.36808">
        <ele>10.9</ele>
        <time>2018-09-20T10:11:41.000Z</time>
      </trkpt>
      <trkpt lat="46.69966" lon="-2.36808">
        <ele>10.9</ele>
        <time>2018-09-20T10:11:42.000Z</time>
      </trkpt>
      <trkpt lat="46.69966" lon="-2.36809">
        <ele>10.9</ele>
        <time>2018-09-20T10:11:43.000Z</time>
      </trkpt>
      <trkpt lat="46.69966" lon="-2.36809">
        <ele>10.8</ele>
        <time>2018-09-20T10:11:44.000Z</time>
      </trkpt>
      <trkpt lat="46.69966" lon="-2.36809">
        <ele>10.8</ele>
        <time>2018-09-20T10:11:45.000Z</time>
      </trkpt>
      <trkpt lat="46.69966" lon="-2.36809">
        <ele>10.8</ele>
        <time>2018-09-20T10:11:46.000Z</time>
      </trkpt>
      <trkpt lat="46.69966" lon="-2.36809">
        <ele>10.8</ele>
        <time>2018-09-20T10:11:47.000Z</time>
      </trkpt>
      <trkpt lat="46.69966" lon="-2.36809">
        <ele>10.8</ele>
        <time>2018-09-20T10:11:48.000Z</time>
      </trkpt>
      <trkpt lat="46.69966" lon="-2.36809">
        <ele>10.8</ele>
        <time>2018-09-20T10:11:49.000Z</time>
      </trkpt>
      <trkpt lat="46.69966" lon="-2.36809">
        <ele>10.8</ele>
        <time>2018-09-20T10:11:50.000Z</time>
      </trkpt>
      <trkpt lat="46.69966" lon="-2.36809">
        <ele>10.9</ele>
        <time>2018-09-20T10:11:51.000Z</time>
      </trkpt>
      <trkpt lat="46.69966" lon="-2.36808">
        <ele>10.9</ele>
        <time>2018-09-20T10:11:52.000Z</time>
      </trkpt>
      <trkpt lat="46.69965" lon="-2.36808">
        <ele>10.9</ele>
        <time>2018-09-20T10:11:53.000Z</time>
      </trkpt>
      <trkpt lat="46.69965" lon="-2.36807">
        <ele>11</ele>
        <time>2018-09-20T10:11:54.000Z</time>
      </trkpt>
      <trkpt lat="46.69965" lon="-2.36806">
        <ele>11.1</ele>
        <time>2018-09-20T10:11:55.000Z</time>
      </trkpt>
      <trkpt lat="46.69965" lon="-2.36805">
        <ele>11.2</ele>
        <time>2018-09-20T10:11:56.000Z</time>
      </trkpt>
      <trkpt lat="46.69965" lon="-2.36804">
        <ele>11.4</ele>
        <time>2018-09-20T10:11:57.000Z</time>
      </trkpt>
      <trkpt lat="46.69965" lon="-2.36802">
        <ele>11.5</ele>
        <time>2018-09-20T10:11:58.000Z</time>
      </trkpt>
      <trkpt lat="46.69965" lon="-2.368">
        <ele>11.7</ele>
        <time>2018-09-20T10:11:59.000Z</time>
      </trkpt>
      <trkpt lat="46.69965" lon="-2.36798">
        <ele>11.9</ele>
        <time>2018-09-20T10:12:00.000Z</time>
      </trkpt>
      <trkpt lat="46.69964" lon="-2.36796">
        <ele>12.1</ele>
        <time>2018-09-20T10:12:01.000Z</time>
      </trkpt>
      <trkpt lat="46.69964" lon="-2.36795">
        <ele>12.3</ele>
        <time>2018-09-20T10:12:02.000Z</time>
      </trkpt>
      <trkpt lat="46.69964" lon="-2.36793">
        <ele>12.5</ele>
        <time>2018-09-20T10:12:03.000Z</time>
      </trkpt>
      <trkpt lat="46.69963" lon="-2.36791">
        <ele>12.6</ele>
        <time>2018-09-20T10:12:04.000Z</time>
      </trkpt>
      <trkpt lat="46.69963" lon="-2.3679">
        <ele>12.8</ele>
        <time>2018-09-20T10:12:05.000Z</time>
      </trkpt>
      <trkpt lat="46.69962" lon="-2.36789">
        <ele>12.9</ele>
        <time>2018-09-20T10:12:06.000Z</time>
      </trkpt>
      <trkpt lat="46.69961" lon="-2.36788">
        <ele>13</ele>
        <time>2018-09-20T10:12:07.000Z</time>
      </trkpt>
      <trkpt lat="46.6996" lon="-2.36787">
        <ele>13.1</ele>
        <time>2018-09-20T10:12:08.000Z</time>
      </trkpt>
      <trkpt lat="46.6996" lon="-2.36786">
        <ele>13.2</ele>
        <time>2018-09-20T10:12:09.000Z</time>
      </trkpt>
      <trkpt lat="46.69959" lon="-2.36785">
        <ele>13.2</ele>
        <time>2018-09-20T10:12:10.000Z</time>
      </trkpt>
      <trkpt lat="46.69958" lon="-2.36784">
        <ele>13.3</ele>
        <time>2018-09-20T10:12:11.000Z</time>
      </trkpt>
      <trkpt lat="46.69957" lon="-2.36784">
        <ele>13.3</ele>
        <time>2018-09-20T10:12:12.000Z</time>
      </trkpt>
      <trkpt lat="46.69956" lon="-2.36783">
        <ele>13.4</ele>
        <time>2018-09-20T10:12:13.000Z</time>
      </trkpt>
      <trkpt lat="46.69955" lon="-2.36783">
        <ele>13.4</ele>
        <time>2018-09-20T10:12:14.000Z</time>
      </trkpt>
      <trkpt lat="46.69954" lon="-2.36783">
        <ele>13.4</ele>
        <time>2018-09-20T10:12:15.000Z</time>
      </trkpt>
      <trkpt lat="46.69954" lon="-2.36782">
        <ele>13.4</ele>
        <time>2018-09-20T10:12:16.000Z</time>
      </trkpt>
      <trkpt lat="46.69953" lon="-2.36782">
        <ele>13.4</ele>
        <time>2018-09-20T10:12:17.000Z</time>
      </trkpt>
      <trkpt lat="46.69952" lon="-2.36782">
        <ele>13.4</ele>
        <time>2018-09-20T10:12:18.000Z</time>
      </trkpt>
      <trkpt lat="46.69951" lon="-2.36782">
        <ele>13.3</ele>
        <time>2018-09-20T10:12:19.000Z</time>
      </trkpt>
      <trkpt lat="46.6995" lon="-2.36782">
        <ele>13.3</ele>
        <time>2018-09-20T10:12:20.000Z</time>
      </trkpt>
      <trkpt lat="46.6995" lon="-2.36782">
        <ele>13.3</ele>
        <time>2018-09-20T10:12:21.000Z</time>
      </trkpt>
      <trkpt lat="46.69949" lon="-2.36782">
        <ele>13.3</ele>
        <time>2018-09-20T10:12:22.000Z</time>
      </trkpt>
      <trkpt lat="46.69948" lon="-2.36782">
        <ele>13.3</ele>
        <time>2018-09-20T10:12:23.000Z</time>
      </trkpt>
      <trkpt lat="46.69947" lon="-2.36782">
        <ele>13.3</ele>
        <time>2018-09-20T10:12:24.000Z</time>
      </trkpt>
      <trkpt lat="46.69947" lon="-2.36782">
        <ele>13.3</ele>
        <time>2018-09-20T10:12:25.000Z</time>
      </trkpt>
      <trkpt lat="46.69946" lon="-2.36782">
        <ele>13.3</ele>
        <time>2018-09-20T10:12:26.000Z</time>
      </trkpt>
      <trkpt lat="46.69945" lon="-2.36781">
        <ele>13.3</ele>
        <time>2018-09-20T10:12:27.000Z</time>
      </trkpt>
      <trkpt lat="46.69945" lon="-2.36781">
        <ele>13.3</ele>
        <time>2018-09-20T10:12:28.000Z</time>
      </trkpt>
      <trkpt lat="46.69944" lon="-2.36781">
        <ele>13.3</ele>
        <time>2018-09-20T10:12:29.000Z</time>
      </trkpt>
      <trkpt lat="46.69944" lon="-2.36781">
        <ele>13.3</ele>
        <time>2018-09-20T10:12:30.000Z</time>
      </trkpt>
      <trkpt lat="46.69943" lon="-2.3678">
        <ele>13.3</ele>
        <time>2018-09-20T10:12:31.000Z</time>
      </trkpt>
      <trkpt lat="46.69942" lon="-2.3678">
        <ele>13.3</ele>
        <time>2018-09-20T10:12:32.000Z</time>
      </trkpt>
      <trkpt lat="46.69942" lon="-2.3678">
        <ele>13.4</ele>
        <time>2018-09-20T10:12:33.000Z</time>
      </trkpt>
      <trkpt lat="46.69941" lon="-2.3678">
        <ele>13.4</ele>
        <time>2018-09-20T10:12:34.000Z</time>
      </trkpt>
      <trkpt lat="46.69941" lon="-2.3678">
        <ele>13.3</ele>
        <time>2018-09-20T10:12:35.000Z</time>
      </trkpt>
      <trkpt lat="46.6994" lon="-2.3678">
        <ele>13.3</ele>
        <time>2018-09-20T10:12:36.000Z</time>
      </trkpt>
      <trkpt lat="46.6994" lon="-2.3678">
        <ele>13.3</ele>
        <time>2018-09-20T10:12:37.000Z</time>
      </trkpt>
      <trkpt lat="46.69939" lon="-2.3678">
        <ele>13.3</ele>
        <time>2018-09-20T10:12:38.000Z</time>
      </trkpt>
      <trkpt lat="46.69939" lon="-2.3678">
        <ele>13.3</ele>
        <time>2018-09-20T10:12:39.000Z</time>
      </trkpt>
      <trkpt lat="46.69939" lon="-2.3678">
        <ele>13.3</ele>
        <time>2018-09-20T10:12:40.000Z</time>
      </trkpt>
      <trkpt lat="46.69939" lon="-2.3678">
        <ele>13.3</ele>
        <time>2018-09-20T10:12:41.000Z</time>
      </trkpt>
      <trkpt lat="46.69939" lon="-2.3678">
        <ele>13.3</ele>
        <time>2018-09-20T10:12:42.000Z</time>
      </trkpt>
      <trkpt lat="46.69939" lon="-2.3678">
        <ele>13.3</ele>
        <time>2018-09-20T10:12:43.000Z</time>
      </trkpt>
      <trkpt lat="46.69939" lon="-2.3678">
        <ele>13.3</ele>
        <time>2018-09-20T10:12:44.000Z</time>
      </trkpt>
      <trkpt lat="46.69939" lon="-2.3678">
        <ele>13.3</ele>
        <time>2018-09-20T10:12:45.000Z</time>
      </trkpt>
      <trkpt lat="46.69939" lon="-2.3678">
        <ele>13.3</ele>
        <time>2018-09-20T10:12:46.000Z</time>
      </trkpt>
      <trkpt lat="46.69939" lon="-2.3678">
        <ele>13.3</ele>
        <time>2018-09-20T10:12:47.000Z</time>
      </trkpt>
      <trkpt lat="46.69939" lon="-2.3678">
        <ele>13.3</ele>
        <time>2018-09-20T10:12:48.000Z</time>
      </trkpt>
      <trkpt lat="46.69939" lon="-2.3678">
        <ele>13.3</ele>
        <time>2018-09-20T10:12:49.000Z</time>
      </trkpt>
      <trkpt lat="46.69939" lon="-2.3678">
        <ele>13.3</ele>
        <time>2018-09-20T10:12:50.000Z</time>
      </trkpt>
      <trkpt lat="46.69938" lon="-2.3678">
        <ele>13.3</ele>
        <time>2018-09-20T10:12:51.000Z</time>
      </trkpt>
      <trkpt lat="46.69938" lon="-2.3678">
        <ele>13.3</ele>
        <time>2018-09-20T10:12:52.000Z</time>
      </trkpt>
      <trkpt lat="46.69938" lon="-2.3678">
        <ele>13.2</ele>
        <time>2018-09-20T10:12:53.000Z</time>
      </trkpt>
      <trkpt lat="46.69937" lon="-2.3678">
        <ele>13.2</ele>
        <time>2018-09-20T10:12:54.000Z</time>
      </trkpt>
      <trkpt lat="46.69937" lon="-2.3678">
        <ele>13.2</ele>
        <time>2018-09-20T10:12:55.000Z</time>
      </trkpt>
      <trkpt lat="46.69937" lon="-2.3678">
        <ele>13.2</ele>
        <time>2018-09-20T10:12:56.000Z</time>
      </trkpt>
      <trkpt lat="46.69937" lon="-2.3678">
        <ele>13.2</ele>
        <time>2018-09-20T10:12:57.000Z</time>
      </trkpt>
      <trkpt lat="46.69936" lon="-2.3678">
        <ele>13.2</ele>
        <time>2018-09-20T10:12:58.000Z</time>
      </trkpt>
      <trkpt lat="46.69936" lon="-2.3678">
        <ele>13.2</ele>
        <time>2018-09-20T10:12:59.000Z</time>
      </trkpt>
      <trkpt lat="46.69936" lon="-2.3678">
        <ele>13.2</ele>
        <time>2018-09-20T10:13:00.000Z</time>
      </trkpt>
      <trkpt lat="46.69936" lon="-2.3678">
        <ele>13.2</ele>
        <time>2018-09-20T10:13:01.000Z</time>
      </trkpt>
      <trkpt lat="46.69936" lon="-2.3678">
        <ele>13.2</ele>
        <time>2018-09-20T10:13:02.000Z</time>
      </trkpt>
      <trkpt lat="46.69936" lon="-2.3678">
        <ele>13.2</ele>
        <time>2018-09-20T10:13:03.000Z</time>
      </trkpt>
      <trkpt lat="46.69936" lon="-2.3678">
        <ele>13.2</ele>
        <time>2018-09-20T10:13:04.000Z</time>
      </trkpt>
      <trkpt lat="46.69936" lon="-2.3678">
        <ele>13.2</ele>
        <time>2018-09-20T10:13:05.000Z</time>
      </trkpt>
      <trkpt lat="46.69936" lon="-2.3678">
        <ele>13.2</ele>
        <time>2018-09-20T10:13:06.000Z</time>
      </trkpt>
      <trkpt lat="46.69936" lon="-2.36781">
        <ele>13.2</ele>
        <time>2018-09-20T10:13:07.000Z</time>
      </trkpt>
      <trkpt lat="46.69935" lon="-2.36781">
        <ele>13.1</ele>
        <time>2018-09-20T10:13:08.000Z</time>
      </trkpt>
      <trkpt lat="46.69934" lon="-2.36781">
        <ele>13.1</ele>
        <time>2018-09-20T10:13:09.000Z</time>
      </trkpt>
      <trkpt lat="46.69934" lon="-2.36781">
        <ele>13.1</ele>
        <time>2018-09-20T10:13:10.000Z</time>
      </trkpt>
      <trkpt lat="46.69933" lon="-2.36781">
        <ele>13.1</ele>
        <time>2018-09-20T10:13:11.000Z</time>
      </trkpt>
      <trkpt lat="46.69932" lon="-2.36781">
        <ele>13</ele>
        <time>2018-09-20T10:13:12.000Z</time>
      </trkpt>
      <trkpt lat="46.69932" lon="-2.36781">
        <ele>13</ele>
        <time>2018-09-20T10:13:13.000Z</time>
      </trkpt>
      <trkpt lat="46.69931" lon="-2.36781">
        <ele>13</ele>
        <time>2018-09-20T10:13:14.000Z</time>
      </trkpt>
      <trkpt lat="46.6993" lon="-2.36781">
        <ele>13</ele>
        <time>2018-09-20T10:13:15.000Z</time>
      </trkpt>
      <trkpt lat="46.6993" lon="-2.36781">
        <ele>12.9</ele>
        <time>2018-09-20T10:13:16.000Z</time>
      </trkpt>
      <trkpt lat="46.69929" lon="-2.36781">
        <ele>12.9</ele>
        <time>2018-09-20T10:13:17.000Z</time>
      </trkpt>
      <trkpt lat="46.69929" lon="-2.36781">
        <ele>12.9</ele>
        <time>2018-09-20T10:13:18.000Z</time>
      </trkpt>
      <trkpt lat="46.69928" lon="-2.36781">
        <ele>12.9</ele>
        <time>2018-09-20T10:13:19.000Z</time>
      </trkpt>
      <trkpt lat="46.69928" lon="-2.36781">
        <ele>12.9</ele>
        <time>2018-09-20T10:13:20.000Z</time>
      </trkpt>
      <trkpt lat="46.69928" lon="-2.36781">
        <ele>12.9</ele>
        <time>2018-09-20T10:13:21.000Z</time>
      </trkpt>
      <trkpt lat="46.69928" lon="-2.36781">
        <ele>12.9</ele>
        <time>2018-09-20T10:13:22.000Z</time>
      </trkpt>
      <trkpt lat="46.69927" lon="-2.36781">
        <ele>13</ele>
        <time>2018-09-20T10:13:23.000Z</time>
      </trkpt>
      <trkpt lat="46.69927" lon="-2.36781">
        <ele>13</ele>
        <time>2018-09-20T10:13:24.000Z</time>
      </trkpt>
      <trkpt lat="46.69927" lon="-2.3678">
        <ele>13</ele>
        <time>2018-09-20T10:13:25.000Z</time>
      </trkpt>
      <trkpt lat="46.69927" lon="-2.3678">
        <ele>13</ele>
        <time>2018-09-20T10:13:26.000Z</time>
      </trkpt>
      <trkpt lat="46.69927" lon="-2.3678">
        <ele>13</ele>
        <time>2018-09-20T10:13:27.000Z</time>
      </trkpt>
      <trkpt lat="46.69927" lon="-2.3678">
        <ele>13</ele>
        <time>2018-09-20T10:13:28.000Z</time>
      </trkpt>
      <trkpt lat="46.69927" lon="-2.3678">
        <ele>13</ele>
        <time>2018-09-20T10:13:29.000Z</time>
      </trkpt>
      <trkpt lat="46.69927" lon="-2.3678">
        <ele>13</ele>
        <time>2018-09-20T10:13:30.000Z</time>
      </trkpt>
      <trkpt lat="46.69927" lon="-2.3678">
        <ele>13</ele>
        <time>2018-09-20T10:13:31.000Z</time>
      </trkpt>
      <trkpt lat="46.69927" lon="-2.3678">
        <ele>13</ele>
        <time>2018-09-20T10:13:32.000Z</time>
      </trkpt>
      <trkpt lat="46.69927" lon="-2.3678">
        <ele>13</ele>
        <time>2018-09-20T10:13:33.000Z</time>
      </trkpt>
      <trkpt lat="46.69927" lon="-2.3678">
        <ele>13</ele>
        <time>2018-09-20T10:13:34.000Z</time>
      </trkpt>
      <trkpt lat="46.69927" lon="-2.3678">
        <ele>13</ele>
        <time>2018-09-20T10:13:35.000Z</time>
      </trkpt>
      <trkpt lat="46.69927" lon="-2.3678">
        <ele>13</ele>
        <time>2018-09-20T10:13:36.000Z</time>
      </trkpt>
      <trkpt lat="46.69927" lon="-2.3678">
        <ele>13</ele>
        <time>2018-09-20T10:13:37.000Z</time>
      </trkpt>
      <trkpt lat="46.69927" lon="-2.3678">
        <ele>13</ele>
        <time>2018-09-20T10:13:38.000Z</time>
      </trkpt>
      <trkpt lat="46.69927" lon="-2.36781">
        <ele>13</ele>
        <time>2018-09-20T10:13:39.000Z</time>
      </trkpt>
      <trkpt lat="46.69927" lon="-2.36781">
        <ele>12.9</ele>
        <time>2018-09-20T10:13:40.000Z</time>
      </trkpt>
      <trkpt lat="46.69927" lon="-2.36781">
        <ele>12.9</ele>
        <time>2018-09-20T10:13:41.000Z</time>
      </trkpt>
      <trkpt lat="46.69927" lon="-2.36782">
        <ele>12.8</ele>
        <time>2018-09-20T10:13:42.000Z</time>
      </trkpt>
      <trkpt lat="46.69927" lon="-2.36783">
        <ele>12.7</ele>
        <time>2018-09-20T10:13:43.000Z</time>
      </trkpt>
      <trkpt lat="46.69928" lon="-2.36783">
        <ele>12.7</ele>
        <time>2018-09-20T10:13:44.000Z</time>
      </trkpt>
      <trkpt lat="46.69928" lon="-2.36783">
        <ele>12.7</ele>
        <time>2018-09-20T10:13:45.000Z</time>
      </trkpt>
      <trkpt lat="46.69928" lon="-2.36784">
        <ele>12.7</ele>
        <time>2018-09-20T10:13:46.000Z</time>
      </trkpt>
      <trkpt lat="46.69929" lon="-2.36784">
        <ele>12.7</ele>
        <time>2018-09-20T10:13:47.000Z</time>
      </trkpt>
      <trkpt lat="46.69929" lon="-2.36784">
        <ele>12.7</ele>
        <time>2018-09-20T10:13:48.000Z</time>
      </trkpt>
      <trkpt lat="46.6993" lon="-2.36783">
        <ele>12.7</ele>
        <time>2018-09-20T10:13:49.000Z</time>
      </trkpt>
      <trkpt lat="46.69931" lon="-2.36783">
        <ele>12.8</ele>
        <time>2018-09-20T10:13:50.000Z</time>
      </trkpt>
      <trkpt lat="46.69931" lon="-2.36783">
        <ele>12.8</ele>
        <time>2018-09-20T10:13:51.000Z</time>
      </trkpt>
      <trkpt lat="46.69932" lon="-2.36783">
        <ele>12.9</ele>
        <time>2018-09-20T10:13:52.000Z</time>
      </trkpt>
      <trkpt lat="46.69932" lon="-2.36782">
        <ele>12.9</ele>
        <time>2018-09-20T10:13:53.000Z</time>
      </trkpt>
      <trkpt lat="46.69933" lon="-2.36782">
        <ele>13</ele>
        <time>2018-09-20T10:13:54.000Z</time>
      </trkpt>
      <trkpt lat="46.69933" lon="-2.36781">
        <ele>13</ele>
        <time>2018-09-20T10:13:55.000Z</time>
      </trkpt>
      <trkpt lat="46.69934" lon="-2.36781">
        <ele>13.1</ele>
        <time>2018-09-20T10:13:56.000Z</time>
      </trkpt>
      <trkpt lat="46.69934" lon="-2.36781">
        <ele>13.1</ele>
        <time>2018-09-20T10:13:57.000Z</time>
      </trkpt>
      <trkpt lat="46.69935" lon="-2.36781">
        <ele>13.1</ele>
        <time>2018-09-20T10:13:58.000Z</time>
      </trkpt>
      <trkpt lat="46.69935" lon="-2.36781">
        <ele>13.1</ele>
        <time>2018-09-20T10:13:59.000Z</time>
      </trkpt>
      <trkpt lat="46.69935" lon="-2.36781">
        <ele>13.2</ele>
        <time>2018-09-20T10:14:00.000Z</time>
      </trkpt>
      <trkpt lat="46.69936" lon="-2.3678">
        <ele>13.2</ele>
        <time>2018-09-20T10:14:01.000Z</time>
      </trkpt>
      <trkpt lat="46.69936" lon="-2.3678">
        <ele>13.2</ele>
        <time>2018-09-20T10:14:02.000Z</time>
      </trkpt>
      <trkpt lat="46.69936" lon="-2.3678">
        <ele>13.2</ele>
        <time>2018-09-20T10:14:03.000Z</time>
      </trkpt>
      <trkpt lat="46.69936" lon="-2.3678">
        <ele>13.2</ele>
        <time>2018-09-20T10:14:04.000Z</time>
      </trkpt>
      <trkpt lat="46.69936" lon="-2.3678">
        <ele>13.2</ele>
        <time>2018-09-20T10:14:05.000Z</time>
      </trkpt>
      <trkpt lat="46.69936" lon="-2.3678">
        <ele>13.2</ele>
        <time>2018-09-20T10:14:06.000Z</time>
      </trkpt>
      <trkpt lat="46.69936" lon="-2.3678">
        <ele>13.2</ele>
        <time>2018-09-20T10:14:07.000Z</time>
      </trkpt>
      <trkpt lat="46.69936" lon="-2.3678">
        <ele>13.2</ele>
        <time>2018-09-20T10:14:08.000Z</time>
      </trkpt>
      <trkpt lat="46.69936" lon="-2.3678">
        <ele>13.2</ele>
        <time>2018-09-20T10:14:09.000Z</time>
      </trkpt>
      <trkpt lat="46.69936" lon="-2.3678">
        <ele>13.2</ele>
        <time>2018-09-20T10:14:10.000Z</time>
      </trkpt>
      <trkpt lat="46.69936" lon="-2.3678">
        <ele>13.2</ele>
        <time>2018-09-20T10:14:11.000Z</time>
      </trkpt>
      <trkpt lat="46.69936" lon="-2.3678">
        <ele>13.2</ele>
        <time>2018-09-20T10:14:12.000Z</time>
      </trkpt>
      <trkpt lat="46.69936" lon="-2.3678">
        <ele>13.2</ele>
        <time>2018-09-20T10:14:13.000Z</time>
      </trkpt>
      <trkpt lat="46.69936" lon="-2.3678">
        <ele>13.2</ele>
        <time>2018-09-20T10:14:14.000Z</time>
      </trkpt>
      <trkpt lat="46.69936" lon="-2.3678">
        <ele>13.2</ele>
        <time>2018-09-20T10:14:15.000Z</time>
      </trkpt>
      <trkpt lat="46.69936" lon="-2.3678">
        <ele>13.2</ele>
        <time>2018-09-20T10:14:16.000Z</time>
      </trkpt>
      <trkpt lat="46.69936" lon="-2.3678">
        <ele>13.2</ele>
        <time>2018-09-20T10:14:17.000Z</time>
      </trkpt>
      <trkpt lat="46.69936" lon="-2.3678">
        <ele>13.2</ele>
        <time>2018-09-20T10:14:18.000Z</time>
      </trkpt>
      <trkpt lat="46.69936" lon="-2.3678">
        <ele>13.2</ele>
        <time>2018-09-20T10:14:19.000Z</time>
      </trkpt>
      <trkpt lat="46.69936" lon="-2.3678">
        <ele>13.2</ele>
        <time>2018-09-20T10:14:20.000Z</time>
      </trkpt>
      <trkpt lat="46.69936" lon="-2.3678">
        <ele>13.2</ele>
        <time>2018-09-20T10:14:21.000Z</time>
      </trkpt>
      <trkpt lat="46.69936" lon="-2.3678">
        <ele>13.2</ele>
        <time>2018-09-20T10:14:22.000Z</time>
      </trkpt>
      <trkpt lat="46.69936" lon="-2.3678">
        <ele>13.2</ele>
        <time>2018-09-20T10:14:23.000Z</time>
      </trkpt>
      <trkpt lat="46.69936" lon="-2.3678">
        <ele>13.2</ele>
        <time>2018-09-20T10:14:24.000Z</time>
      </trkpt>
      <trkpt lat="46.69936" lon="-2.3678">
        <ele>13.2</ele>
        <time>2018-09-20T10:14:25.000Z</time>
      </trkpt>
      <trkpt lat="46.69936" lon="-2.3678">
        <ele>13.2</ele>
        <time>2018-09-20T10:14:26.000Z</time>
      </trkpt>
      <trkpt lat="46.69936" lon="-2.3678">
        <ele>13.2</ele>
        <time>2018-09-20T10:14:27.000Z</time>
      </trkpt>
      <trkpt lat="46.69936" lon="-2.3678">
        <ele>13.2</ele>
        <time>2018-09-20T10:14:28.000Z</time>
      </trkpt>
      <trkpt lat="46.69936" lon="-2.3678">
        <ele>13.2</ele>
        <time>2018-09-20T10:14:29.000Z</time>
      </trkpt>
      <trkpt lat="46.69936" lon="-2.3678">
        <ele>13.2</ele>
        <time>2018-09-20T10:14:30.000Z</time>
      </trkpt>
      <trkpt lat="46.69936" lon="-2.3678">
        <ele>13.2</ele>
        <time>2018-09-20T10:14:31.000Z</time>
      </trkpt>
      <trkpt lat="46.69936" lon="-2.3678">
        <ele>13.2</ele>
        <time>2018-09-20T10:14:32.000Z</time>
      </trkpt>
      <trkpt lat="46.69936" lon="-2.3678">
        <ele>13.2</ele>
        <time>2018-09-20T10:14:33.000Z</time>
      </trkpt>
      <trkpt lat="46.69936" lon="-2.3678">
        <ele>13.2</ele>
        <time>2018-09-20T10:14:34.000Z</time>
      </trkpt>
      <trkpt lat="46.69936" lon="-2.3678">
        <ele>13.2</ele>
        <time>2018-09-20T10:14:35.000Z</time>
      </trkpt>
      <trkpt lat="46.69936" lon="-2.3678">
        <ele>13.2</ele>
        <time>2018-09-20T10:14:36.000Z</time>
      </trkpt>
      <trkpt lat="46.69936" lon="-2.3678">
        <ele>13.2</ele>
        <time>2018-09-20T10:14:37.000Z</time>
      </trkpt>
      <trkpt lat="46.69936" lon="-2.3678">
        <ele>13.2</ele>
        <time>2018-09-20T10:14:38.000Z</time>
      </trkpt>
      <trkpt lat="46.69936" lon="-2.3678">
        <ele>13.2</ele>
        <time>2018-09-20T10:14:39.000Z</time>
      </trkpt>
      <trkpt lat="46.69936" lon="-2.3678">
        <ele>13.2</ele>
        <time>2018-09-20T10:14:40.000Z</time>
      </trkpt>
      <trkpt lat="46.69936" lon="-2.3678">
        <ele>13.2</ele>
        <time>2018-09-20T10:14:41.000Z</time>
      </trkpt>
      <trkpt lat="46.69936" lon="-2.3678">
        <ele>13.2</ele>
        <time>2018-09-20T10:14:42.000Z</time>
      </trkpt>
      <trkpt lat="46.69936" lon="-2.3678">
        <ele>13.2</ele>
        <time>2018-09-20T10:14:43.000Z</time>
      </trkpt>
      <trkpt lat="46.69936" lon="-2.3678">
        <ele>13.2</ele>
        <time>2018-09-20T10:14:44.000Z</time>
      </trkpt>
      <trkpt lat="46.69936" lon="-2.3678">
        <ele>13.2</ele>
        <time>2018-09-20T10:14:45.000Z</time>
      </trkpt>
      <trkpt lat="46.69936" lon="-2.3678">
        <ele>13.2</ele>
        <time>2018-09-20T10:14:46.000Z</time>
      </trkpt>
      <trkpt lat="46.69936" lon="-2.3678">
        <ele>13.2</ele>
        <time>2018-09-20T10:14:47.000Z</time>
      </trkpt>
      <trkpt lat="46.69936" lon="-2.3678">
        <ele>13.2</ele>
        <time>2018-09-20T10:14:48.000Z</time>
      </trkpt>
      <trkpt lat="46.69936" lon="-2.3678">
        <ele>13.2</ele>
        <time>2018-09-20T10:14:49.000Z</time>
      </trkpt>
      <trkpt lat="46.69936" lon="-2.3678">
        <ele>13.2</ele>
        <time>2018-09-20T10:14:50.000Z</time>
      </trkpt>
      <trkpt lat="46.69936" lon="-2.3678">
        <ele>13.2</ele>
        <time>2018-09-20T10:14:51.000Z</time>
      </trkpt>
      <trkpt lat="46.69936" lon="-2.3678">
        <ele>13.2</ele>
        <time>2018-09-20T10:14:52.000Z</time>
      </trkpt>
      <trkpt lat="46.69936" lon="-2.3678">
        <ele>13.2</ele>
        <time>2018-09-20T10:14:53.000Z</time>
      </trkpt>
      <trkpt lat="46.69936" lon="-2.3678">
        <ele>13.2</ele>
        <time>2018-09-20T10:14:54.000Z</time>
      </trkpt>
      <trkpt lat="46.69936" lon="-2.3678">
        <ele>13.2</ele>
        <time>2018-09-20T10:14:55.000Z</time>
      </trkpt>
      <trkpt lat="46.69936" lon="-2.3678">
        <ele>13.2</ele>
        <time>2018-09-20T10:14:56.000Z</time>
      </trkpt>
      <trkpt lat="46.69936" lon="-2.3678">
        <ele>13.2</ele>
        <time>2018-09-20T10:14:57.000Z</time>
      </trkpt>
      <trkpt lat="46.69936" lon="-2.3678">
        <ele>13.2</ele>
        <time>2018-09-20T10:14:58.000Z</time>
      </trkpt>
      <trkpt lat="46.69936" lon="-2.3678">
        <ele>13.2</ele>
        <time>2018-09-20T10:14:59.000Z</time>
      </trkpt>
      <trkpt lat="46.69936" lon="-2.3678">
        <ele>13.2</ele>
        <time>2018-09-20T10:15:00.000Z</time>
      </trkpt>
      <trkpt lat="46.69936" lon="-2.3678">
        <ele>13.2</ele>
        <time>2018-09-20T10:15:01.000Z</time>
      </trkpt>
      <trkpt lat="46.69936" lon="-2.3678">
        <ele>13.2</ele>
        <time>2018-09-20T10:15:02.000Z</time>
      </trkpt>
      <trkpt lat="46.69936" lon="-2.3678">
        <ele>13.2</ele>
        <time>2018-09-20T10:15:03.000Z</time>
      </trkpt>
      <trkpt lat="46.69936" lon="-2.3678">
        <ele>13.2</ele>
        <time>2018-09-20T10:15:04.000Z</time>
      </trkpt>
      <trkpt lat="46.69936" lon="-2.3678">
        <ele>13.2</ele>
        <time>2018-09-20T10:15:05.000Z</time>
      </trkpt>
      <trkpt lat="46.69936" lon="-2.3678">
        <ele>13.2</ele>
        <time>2018-09-20T10:15:06.000Z</time>
      </trkpt>
      <trkpt lat="46.69936" lon="-2.3678">
        <ele>13.2</ele>
        <time>2018-09-20T10:15:07.000Z</time>
      </trkpt>
      <trkpt lat="46.69936" lon="-2.3678">
        <ele>13.2</ele>
        <time>2018-09-20T10:15:08.000Z</time>
      </trkpt>
      <trkpt lat="46.69936" lon="-2.3678">
        <ele>13.2</ele>
        <time>2018-09-20T10:15:09.000Z</time>
      </trkpt>
      <trkpt lat="46.69936" lon="-2.3678">
        <ele>13.2</ele>
        <time>2018-09-20T10:15:10.000Z</time>
      </trkpt>
      <trkpt lat="46.69936" lon="-2.3678">
        <ele>13.2</ele>
        <time>2018-09-20T10:15:11.000Z</time>
      </trkpt>
      <trkpt lat="46.69936" lon="-2.3678">
        <ele>13.2</ele>
        <time>2018-09-20T10:15:12.000Z</time>
      </trkpt>
      <trkpt lat="46.69936" lon="-2.3678">
        <ele>13.2</ele>
        <time>2018-09-20T10:15:13.000Z</time>
      </trkpt>
      <trkpt lat="46.69936" lon="-2.3678">
        <ele>13.2</ele>
        <time>2018-09-20T10:15:14.000Z</time>
      </trkpt>
      <trkpt lat="46.69936" lon="-2.3678">
        <ele>13.2</ele>
        <time>2018-09-20T10:15:15.000Z</time>
      </trkpt>
      <trkpt lat="46.69936" lon="-2.3678">
        <ele>13.2</ele>
        <time>2018-09-20T10:15:16.000Z</time>
      </trkpt>
      <trkpt lat="46.69936" lon="-2.3678">
        <ele>13.2</ele>
        <time>2018-09-20T10:15:17.000Z</time>
      </trkpt>
      <trkpt lat="46.69936" lon="-2.3678">
        <ele>13.2</ele>
        <time>2018-09-20T10:15:18.000Z</time>
      </trkpt>
      <trkpt lat="46.69936" lon="-2.3678">
        <ele>13.2</ele>
        <time>2018-09-20T10:15:19.000Z</time>
      </trkpt>
      <trkpt lat="46.69936" lon="-2.3678">
        <ele>13.2</ele>
        <time>2018-09-20T10:15:20.000Z</time>
      </trkpt>
      <trkpt lat="46.69936" lon="-2.3678">
        <ele>13.2</ele>
        <time>2018-09-20T10:15:21.000Z</time>
      </trkpt>
      <trkpt lat="46.69936" lon="-2.3678">
        <ele>13.2</ele>
        <time>2018-09-20T10:15:22.000Z</time>
      </trkpt>
      <trkpt lat="46.69936" lon="-2.3678">
        <ele>13.2</ele>
        <time>2018-09-20T10:15:23.000Z</time>
      </trkpt>
      <trkpt lat="46.69936" lon="-2.3678">
        <ele>13.2</ele>
        <time>2018-09-20T10:15:24.000Z</time>
      </trkpt>
      <trkpt lat="46.69936" lon="-2.3678">
        <ele>13.2</ele>
        <time>2018-09-20T10:15:25.000Z</time>
      </trkpt>
      <trkpt lat="46.69936" lon="-2.3678">
        <ele>13.2</ele>
        <time>2018-09-20T10:15:26.000Z</time>
      </trkpt>
      <trkpt lat="46.69936" lon="-2.3678">
        <ele>13.2</ele>
        <time>2018-09-20T10:15:27.000Z</time>
      </trkpt>
      <trkpt lat="46.69936" lon="-2.3678">
        <ele>13.2</ele>
        <time>2018-09-20T10:15:28.000Z</time>
      </trkpt>
      <trkpt lat="46.69936" lon="-2.3678">
        <ele>13.2</ele>
        <time>2018-09-20T10:15:29.000Z</time>
      </trkpt>
      <trkpt lat="46.69936" lon="-2.3678">
        <ele>13.2</ele>
        <time>2018-09-20T10:15:30.000Z</time>
      </trkpt>
      <trkpt lat="46.69936" lon="-2.3678">
        <ele>13.2</ele>
        <time>2018-09-20T10:15:31.000Z</time>
      </trkpt>
      <trkpt lat="46.69936" lon="-2.3678">
        <ele>13.2</ele>
        <time>2018-09-20T10:15:32.000Z</time>
      </trkpt>
      <trkpt lat="46.69936" lon="-2.3678">
        <ele>13.2</ele>
        <time>2018-09-20T10:15:33.000Z</time>
      </trkpt>
      <trkpt lat="46.69936" lon="-2.3678">
        <ele>13.2</ele>
        <time>2018-09-20T10:15:34.000Z</time>
      </trkpt>
      <trkpt lat="46.69936" lon="-2.3678">
        <ele>13.2</ele>
        <time>2018-09-20T10:15:35.000Z</time>
      </trkpt>
      <trkpt lat="46.69936" lon="-2.3678">
        <ele>13.2</ele>
        <time>2018-09-20T10:15:36.000Z</time>
      </trkpt>
      <trkpt lat="46.69936" lon="-2.3678">
        <ele>13.2</ele>
        <time>2018-09-20T10:15:37.000Z</time>
      </trkpt>
      <trkpt lat="46.69936" lon="-2.3678">
        <ele>13.2</ele>
        <time>2018-09-20T10:15:38.000Z</time>
      </trkpt>
      <trkpt lat="46.69936" lon="-2.3678">
        <ele>13.2</ele>
        <time>2018-09-20T10:15:39.000Z</time>
      </trkpt>
      <trkpt lat="46.69936" lon="-2.3678">
        <ele>13.2</ele>
        <time>2018-09-20T10:15:40.000Z</time>
      </trkpt>
      <trkpt lat="46.69936" lon="-2.3678">
        <ele>13.2</ele>
        <time>2018-09-20T10:15:41.000Z</time>
      </trkpt>
      <trkpt lat="46.69936" lon="-2.3678">
        <ele>13.2</ele>
        <time>2018-09-20T10:15:42.000Z</time>
      </trkpt>
      <trkpt lat="46.69936" lon="-2.3678">
        <ele>13.2</ele>
        <time>2018-09-20T10:15:43.000Z</time>
      </trkpt>
      <trkpt lat="46.69936" lon="-2.3678">
        <ele>13.2</ele>
        <time>2018-09-20T10:15:44.000Z</time>
      </trkpt>
      <trkpt lat="46.69936" lon="-2.3678">
        <ele>13.2</ele>
        <time>2018-09-20T10:15:45.000Z</time>
      </trkpt>
      <trkpt lat="46.69936" lon="-2.3678">
        <ele>13.2</ele>
        <time>2018-09-20T10:15:46.000Z</time>
      </trkpt>
      <trkpt lat="46.69936" lon="-2.3678">
        <ele>13.2</ele>
        <time>2018-09-20T10:15:47.000Z</time>
      </trkpt>
      <trkpt lat="46.69936" lon="-2.3678">
        <ele>13.2</ele>
        <time>2018-09-20T10:15:48.000Z</time>
      </trkpt>
      <trkpt lat="46.69936" lon="-2.3678">
        <ele>13.2</ele>
        <time>2018-09-20T10:15:49.000Z</time>
      </trkpt>
      <trkpt lat="46.69936" lon="-2.3678">
        <ele>13.2</ele>
        <time>2018-09-20T10:15:50.000Z</time>
      </trkpt>
      <trkpt lat="46.69936" lon="-2.3678">
        <ele>13.2</ele>
        <time>2018-09-20T10:15:51.000Z</time>
      </trkpt>
      <trkpt lat="46.69936" lon="-2.3678">
        <ele>13.2</ele>
        <time>2018-09-20T10:15:52.000Z</time>
      </trkpt>
      <trkpt lat="46.69936" lon="-2.3678">
        <ele>13.2</ele>
        <time>2018-09-20T10:15:53.000Z</time>
      </trkpt>
      <trkpt lat="46.69936" lon="-2.3678">
        <ele>13.2</ele>
        <time>2018-09-20T10:15:54.000Z</time>
      </trkpt>
      <trkpt lat="46.69936" lon="-2.3678">
        <ele>13.2</ele>
        <time>2018-09-20T10:15:55.000Z</time>
      </trkpt>
      <trkpt lat="46.69936" lon="-2.3678">
        <ele>13.2</ele>
        <time>2018-09-20T10:15:56.000Z</time>
      </trkpt>
      <trkpt lat="46.69936" lon="-2.3678">
        <ele>13.2</ele>
        <time>2018-09-20T10:15:57.000Z</time>
      </trkpt>
      <trkpt lat="46.69936" lon="-2.3678">
        <ele>13.2</ele>
        <time>2018-09-20T10:15:58.000Z</time>
      </trkpt>
      <trkpt lat="46.69936" lon="-2.3678">
        <ele>13.2</ele>
        <time>2018-09-20T10:15:59.000Z</time>
      </trkpt>
      <trkpt lat="46.69936" lon="-2.3678">
        <ele>13.2</ele>
        <time>2018-09-20T10:16:00.000Z</time>
      </trkpt>
      <trkpt lat="46.69936" lon="-2.3678">
        <ele>13.2</ele>
        <time>2018-09-20T10:16:01.000Z</time>
      </trkpt>
      <trkpt lat="46.69936" lon="-2.3678">
        <ele>13.2</ele>
        <time>2018-09-20T10:16:02.000Z</time>
      </trkpt>
      <trkpt lat="46.69936" lon="-2.3678">
        <ele>13.2</ele>
        <time>2018-09-20T10:16:03.000Z</time>
      </trkpt>
      <trkpt lat="46.69936" lon="-2.3678">
        <ele>13.2</ele>
        <time>2018-09-20T10:16:04.000Z</time>
      </trkpt>
      <trkpt lat="46.69936" lon="-2.3678">
        <ele>13.2</ele>
        <time>2018-09-20T10:16:05.000Z</time>
      </trkpt>
      <trkpt lat="46.69937" lon="-2.3678">
        <ele>13.2</ele>
        <time>2018-09-20T10:16:06.000Z</time>
      </trkpt>
      <trkpt lat="46.69937" lon="-2.3678">
        <ele>13.3</ele>
        <time>2018-09-20T10:16:07.000Z</time>
      </trkpt>
      <trkpt lat="46.69937" lon="-2.3678">
        <ele>13.3</ele>
        <time>2018-09-20T10:16:08.000Z</time>
      </trkpt>
      <trkpt lat="46.69937" lon="-2.3678">
        <ele>13.3</ele>
        <time>2018-09-20T10:16:09.000Z</time>
      </trkpt>
      <trkpt lat="46.69938" lon="-2.3678">
        <ele>13.3</ele>
        <time>2018-09-20T10:16:10.000Z</time>
      </trkpt>
      <trkpt lat="46.69938" lon="-2.3678">
        <ele>13.3</ele>
        <time>2018-09-20T10:16:11.000Z</time>
      </trkpt>
      <trkpt lat="46.69939" lon="-2.3678">
        <ele>13.3</ele>
        <time>2018-09-20T10:16:12.000Z</time>
      </trkpt>
      <trkpt lat="46.6994" lon="-2.3678">
        <ele>13.3</ele>
        <time>2018-09-20T10:16:13.000Z</time>
      </trkpt>
      <trkpt lat="46.69941" lon="-2.36781">
        <ele>13.3</ele>
        <time>2018-09-20T10:16:14.000Z</time>
      </trkpt>
      <trkpt lat="46.69942" lon="-2.36781">
        <ele>13.3</ele>
        <time>2018-09-20T10:16:15.000Z</time>
      </trkpt>
      <trkpt lat="46.69943" lon="-2.36781">
        <ele>13.2</ele>
        <time>2018-09-20T10:16:16.000Z</time>
      </trkpt>
      <trkpt lat="46.69944" lon="-2.36782">
        <ele>13.2</ele>
        <time>2018-09-20T10:16:17.000Z</time>
      </trkpt>
      <trkpt lat="46.69945" lon="-2.36782">
        <ele>13.2</ele>
        <time>2018-09-20T10:16:18.000Z</time>
      </trkpt>
      <trkpt lat="46.69946" lon="-2.36783">
        <ele>13.2</ele>
        <time>2018-09-20T10:16:19.000Z</time>
      </trkpt>
      <trkpt lat="46.69946" lon="-2.36783">
        <ele>13.1</ele>
        <time>2018-09-20T10:16:20.000Z</time>
      </trkpt>
      <trkpt lat="46.69947" lon="-2.36783">
        <ele>13.1</ele>
        <time>2018-09-20T10:16:21.000Z</time>
      </trkpt>
      <trkpt lat="46.69948" lon="-2.36784">
        <ele>13.1</ele>
        <time>2018-09-20T10:16:22.000Z</time>
      </trkpt>
      <trkpt lat="46.69949" lon="-2.36784">
        <ele>13.1</ele>
        <time>2018-09-20T10:16:23.000Z</time>
      </trkpt>
      <trkpt lat="46.69949" lon="-2.36784">
        <ele>13.1</ele>
        <time>2018-09-20T10:16:24.000Z</time>
      </trkpt>
      <trkpt lat="46.6995" lon="-2.36785">
        <ele>13.1</ele>
        <time>2018-09-20T10:16:25.000Z</time>
      </trkpt>
      <trkpt lat="46.69951" lon="-2.36785">
        <ele>13.1</ele>
        <time>2018-09-20T10:16:26.000Z</time>
      </trkpt>
      <trkpt lat="46.69952" lon="-2.36785">
        <ele>13.1</ele>
        <time>2018-09-20T10:16:27.000Z</time>
      </trkpt>
      <trkpt lat="46.69953" lon="-2.36785">
        <ele>13.1</ele>
        <time>2018-09-20T10:16:28.000Z</time>
      </trkpt>
      <trkpt lat="46.69953" lon="-2.36785">
        <ele>13.1</ele>
        <time>2018-09-20T10:16:29.000Z</time>
      </trkpt>
      <trkpt lat="46.69954" lon="-2.36785">
        <ele>13.2</ele>
        <time>2018-09-20T10:16:30.000Z</time>
      </trkpt>
      <trkpt lat="46.69955" lon="-2.36784">
        <ele>13.2</ele>
        <time>2018-09-20T10:16:31.000Z</time>
      </trkpt>
      <trkpt lat="46.69956" lon="-2.36783">
        <ele>13.3</ele>
        <time>2018-09-20T10:16:32.000Z</time>
      </trkpt>
      <trkpt lat="46.69956" lon="-2.36782">
        <ele>13.5</ele>
        <time>2018-09-20T10:16:33.000Z</time>
      </trkpt>
      <trkpt lat="46.69956" lon="-2.36781">
        <ele>13.6</ele>
        <time>2018-09-20T10:16:34.000Z</time>
      </trkpt>
      <trkpt lat="46.69956" lon="-2.36779">
        <ele>13.8</ele>
        <time>2018-09-20T10:16:35.000Z</time>
      </trkpt>
      <trkpt lat="46.69956" lon="-2.36778">
        <ele>14</ele>
        <time>2018-09-20T10:16:36.000Z</time>
      </trkpt>
      <trkpt lat="46.69956" lon="-2.36776">
        <ele>14.1</ele>
        <time>2018-09-20T10:16:37.000Z</time>
      </trkpt>
      <trkpt lat="46.69955" lon="-2.36775">
        <ele>14.2</ele>
        <time>2018-09-20T10:16:38.000Z</time>
      </trkpt>
      <trkpt lat="46.69955" lon="-2.36774">
        <ele>14.3</ele>
        <time>2018-09-20T10:16:39.000Z</time>
      </trkpt>
      <trkpt lat="46.69954" lon="-2.36773">
        <ele>14.4</ele>
        <time>2018-09-20T10:16:40.000Z</time>
      </trkpt>
      <trkpt lat="46.69953" lon="-2.36772">
        <ele>14.5</ele>
        <time>2018-09-20T10:16:41.000Z</time>
      </trkpt>
      <trkpt lat="46.69953" lon="-2.36771">
        <ele>14.6</ele>
        <time>2018-09-20T10:16:42.000Z</time>
      </trkpt>
      <trkpt lat="46.69952" lon="-2.3677">
        <ele>14.7</ele>
        <time>2018-09-20T10:16:43.000Z</time>
      </trkpt>
      <trkpt lat="46.69951" lon="-2.36769">
        <ele>14.8</ele>
        <time>2018-09-20T10:16:44.000Z</time>
      </trkpt>
      <trkpt lat="46.6995" lon="-2.36768">
        <ele>14.9</ele>
        <time>2018-09-20T10:16:45.000Z</time>
      </trkpt>
      <trkpt lat="46.6995" lon="-2.36767">
        <ele>15</ele>
        <time>2018-09-20T10:16:46.000Z</time>
      </trkpt>
      <trkpt lat="46.69949" lon="-2.36765">
        <ele>15.1</ele>
        <time>2018-09-20T10:16:47.000Z</time>
      </trkpt>
      <trkpt lat="46.69948" lon="-2.36764">
        <ele>15.3</ele>
        <time>2018-09-20T10:16:48.000Z</time>
      </trkpt>
      <trkpt lat="46.69948" lon="-2.36762">
        <ele>15.4</ele>
        <time>2018-09-20T10:16:49.000Z</time>
      </trkpt>
      <trkpt lat="46.69947" lon="-2.36761">
        <ele>15.6</ele>
        <time>2018-09-20T10:16:50.000Z</time>
      </trkpt>
      <trkpt lat="46.69947" lon="-2.36759">
        <ele>15.7</ele>
        <time>2018-09-20T10:16:51.000Z</time>
      </trkpt>
      <trkpt lat="46.69946" lon="-2.36758">
        <ele>15.9</ele>
        <time>2018-09-20T10:16:52.000Z</time>
      </trkpt>
      <trkpt lat="46.69946" lon="-2.36756">
        <ele>16</ele>
        <time>2018-09-20T10:16:53.000Z</time>
      </trkpt>
      <trkpt lat="46.69945" lon="-2.36755">
        <ele>16.2</ele>
        <time>2018-09-20T10:16:54.000Z</time>
      </trkpt>
      <trkpt lat="46.69945" lon="-2.36753">
        <ele>16.3</ele>
        <time>2018-09-20T10:16:55.000Z</time>
      </trkpt>
      <trkpt lat="46.69945" lon="-2.36752">
        <ele>16.5</ele>
        <time>2018-09-20T10:16:56.000Z</time>
      </trkpt>
      <trkpt lat="46.69945" lon="-2.3675">
        <ele>16.7</ele>
        <time>2018-09-20T10:16:57.000Z</time>
      </trkpt>
      <trkpt lat="46.69945" lon="-2.36749">
        <ele>16.8</ele>
        <time>2018-09-20T10:16:58.000Z</time>
      </trkpt>
      <trkpt lat="46.69945" lon="-2.36747">
        <ele>16.8</ele>
        <time>2018-09-20T10:16:59.000Z</time>
      </trkpt>
      <trkpt lat="46.69946" lon="-2.36746">
        <ele>16.9</ele>
        <time>2018-09-20T10:17:00.000Z</time>
      </trkpt>
      <trkpt lat="46.69946" lon="-2.36745">
        <ele>17</ele>
        <time>2018-09-20T10:17:01.000Z</time>
      </trkpt>
      <trkpt lat="46.69946" lon="-2.36743">
        <ele>17.1</ele>
        <time>2018-09-20T10:17:02.000Z</time>
      </trkpt>
      <trkpt lat="46.69947" lon="-2.36742">
        <ele>17.2</ele>
        <time>2018-09-20T10:17:03.000Z</time>
      </trkpt>
      <trkpt lat="46.69947" lon="-2.36741">
        <ele>17.2</ele>
        <time>2018-09-20T10:17:04.000Z</time>
      </trkpt>
      <trkpt lat="46.69948" lon="-2.3674">
        <ele>17.3</ele>
        <time>2018-09-20T10:17:05.000Z</time>
      </trkpt>
      <trkpt lat="46.69949" lon="-2.36739">
        <ele>17.4</ele>
        <time>2018-09-20T10:17:06.000Z</time>
      </trkpt>
      <trkpt lat="46.6995" lon="-2.36738">
        <ele>17.5</ele>
        <time>2018-09-20T10:17:07.000Z</time>
      </trkpt>
      <trkpt lat="46.6995" lon="-2.36737">
        <ele>17.5</ele>
        <time>2018-09-20T10:17:08.000Z</time>
      </trkpt>
      <trkpt lat="46.69951" lon="-2.36736">
        <ele>17.6</ele>
        <time>2018-09-20T10:17:09.000Z</time>
      </trkpt>
      <trkpt lat="46.69952" lon="-2.36736">
        <ele>17.6</ele>
        <time>2018-09-20T10:17:10.000Z</time>
      </trkpt>
      <trkpt lat="46.69953" lon="-2.36735">
        <ele>17.7</ele>
        <time>2018-09-20T10:17:11.000Z</time>
      </trkpt>
      <trkpt lat="46.69954" lon="-2.36734">
        <ele>17.8</ele>
        <time>2018-09-20T10:17:12.000Z</time>
      </trkpt>
      <trkpt lat="46.69955" lon="-2.36733">
        <ele>17.8</ele>
        <time>2018-09-20T10:17:13.000Z</time>
      </trkpt>
      <trkpt lat="46.69955" lon="-2.36732">
        <ele>17.9</ele>
        <time>2018-09-20T10:17:14.000Z</time>
      </trkpt>
      <trkpt lat="46.69956" lon="-2.36731">
        <ele>18</ele>
        <time>2018-09-20T10:17:15.000Z</time>
      </trkpt>
      <trkpt lat="46.69956" lon="-2.36731">
        <ele>18</ele>
        <time>2018-09-20T10:17:16.000Z</time>
      </trkpt>
      <trkpt lat="46.69957" lon="-2.3673">
        <ele>18.1</ele>
        <time>2018-09-20T10:17:17.000Z</time>
      </trkpt>
      <trkpt lat="46.69958" lon="-2.36729">
        <ele>18.1</ele>
        <time>2018-09-20T10:17:18.000Z</time>
      </trkpt>
      <trkpt lat="46.69958" lon="-2.36728">
        <ele>18.2</ele>
        <time>2018-09-20T10:17:19.000Z</time>
      </trkpt>
      <trkpt lat="46.69959" lon="-2.36727">
        <ele>18.2</ele>
        <time>2018-09-20T10:17:20.000Z</time>
      </trkpt>
      <trkpt lat="46.69959" lon="-2.36726">
        <ele>18.3</ele>
        <time>2018-09-20T10:17:21.000Z</time>
      </trkpt>
      <trkpt lat="46.6996" lon="-2.36726">
        <ele>18.4</ele>
        <time>2018-09-20T10:17:22.000Z</time>
      </trkpt>
      <trkpt lat="46.69961" lon="-2.36725">
        <ele>18.4</ele>
        <time>2018-09-20T10:17:23.000Z</time>
      </trkpt>
      <trkpt lat="46.69962" lon="-2.36724">
        <ele>18.5</ele>
        <time>2018-09-20T10:17:24.000Z</time>
      </trkpt>
      <trkpt lat="46.69963" lon="-2.36724">
        <ele>18.5</ele>
        <time>2018-09-20T10:17:25.000Z</time>
      </trkpt>
      <trkpt lat="46.69963" lon="-2.36724">
        <ele>18.5</ele>
        <time>2018-09-20T10:17:26.000Z</time>
      </trkpt>
      <trkpt lat="46.69964" lon="-2.36724">
        <ele>18.5</ele>
        <time>2018-09-20T10:17:27.000Z</time>
      </trkpt>
      <trkpt lat="46.69965" lon="-2.36724">
        <ele>18.6</ele>
        <time>2018-09-20T10:17:28.000Z</time>
      </trkpt>
      <trkpt lat="46.69966" lon="-2.36723">
        <ele>18.6</ele>
        <time>2018-09-20T10:17:29.000Z</time>
      </trkpt>
      <trkpt lat="46.69966" lon="-2.36723">
        <ele>18.6</ele>
        <time>2018-09-20T10:17:30.000Z</time>
      </trkpt>
      <trkpt lat="46.69967" lon="-2.36722">
        <ele>18.7</ele>
        <time>2018-09-20T10:17:31.000Z</time>
      </trkpt>
      <trkpt lat="46.69967" lon="-2.36721">
        <ele>18.7</ele>
        <time>2018-09-20T10:17:32.000Z</time>
      </trkpt>
      <trkpt lat="46.69967" lon="-2.3672">
        <ele>18.8</ele>
        <time>2018-09-20T10:17:33.000Z</time>
      </trkpt>
      <trkpt lat="46.69967" lon="-2.36719">
        <ele>18.9</ele>
        <time>2018-09-20T10:17:34.000Z</time>
      </trkpt>
      <trkpt lat="46.69967" lon="-2.36718">
        <ele>18.9</ele>
        <time>2018-09-20T10:17:35.000Z</time>
      </trkpt>
      <trkpt lat="46.69967" lon="-2.36716">
        <ele>19</ele>
        <time>2018-09-20T10:17:36.000Z</time>
      </trkpt>
      <trkpt lat="46.69967" lon="-2.36715">
        <ele>19</ele>
        <time>2018-09-20T10:17:37.000Z</time>
      </trkpt>
      <trkpt lat="46.69967" lon="-2.36714">
        <ele>19.1</ele>
        <time>2018-09-20T10:17:38.000Z</time>
      </trkpt>
      <trkpt lat="46.69967" lon="-2.36713">
        <ele>19.2</ele>
        <time>2018-09-20T10:17:39.000Z</time>
      </trkpt>
      <trkpt lat="46.69967" lon="-2.36712">
        <ele>19.2</ele>
        <time>2018-09-20T10:17:40.000Z</time>
      </trkpt>
      <trkpt lat="46.69966" lon="-2.3671">
        <ele>19.3</ele>
        <time>2018-09-20T10:17:41.000Z</time>
      </trkpt>
      <trkpt lat="46.69966" lon="-2.36709">
        <ele>19.4</ele>
        <time>2018-09-20T10:17:42.000Z</time>
      </trkpt>
      <trkpt lat="46.69965" lon="-2.36707">
        <ele>19.4</ele>
        <time>2018-09-20T10:17:43.000Z</time>
      </trkpt>
      <trkpt lat="46.69964" lon="-2.36706">
        <ele>19.5</ele>
        <time>2018-09-20T10:17:44.000Z</time>
      </trkpt>
      <trkpt lat="46.69963" lon="-2.36705">
        <ele>19.5</ele>
        <time>2018-09-20T10:17:45.000Z</time>
      </trkpt>
      <trkpt lat="46.69962" lon="-2.36703">
        <ele>19.6</ele>
        <time>2018-09-20T10:17:46.000Z</time>
      </trkpt>
      <trkpt lat="46.69961" lon="-2.36702">
        <ele>19.7</ele>
        <time>2018-09-20T10:17:47.000Z</time>
      </trkpt>
      <trkpt lat="46.6996" lon="-2.367">
        <ele>19.7</ele>
        <time>2018-09-20T10:17:48.000Z</time>
      </trkpt>
      <trkpt lat="46.6996" lon="-2.36699">
        <ele>19.8</ele>
        <time>2018-09-20T10:17:49.000Z</time>
      </trkpt>
      <trkpt lat="46.69959" lon="-2.36698">
        <ele>19.8</ele>
        <time>2018-09-20T10:17:50.000Z</time>
      </trkpt>
      <trkpt lat="46.69958" lon="-2.36696">
        <ele>19.9</ele>
        <time>2018-09-20T10:17:51.000Z</time>
      </trkpt>
      <trkpt lat="46.69957" lon="-2.36695">
        <ele>20</ele>
        <time>2018-09-20T10:17:52.000Z</time>
      </trkpt>
      <trkpt lat="46.69956" lon="-2.36694">
        <ele>20</ele>
        <time>2018-09-20T10:17:53.000Z</time>
      </trkpt>
      <trkpt lat="46.69955" lon="-2.36693">
        <ele>20.1</ele>
        <time>2018-09-20T10:17:54.000Z</time>
      </trkpt>
      <trkpt lat="46.69954" lon="-2.36691">
        <ele>20.1</ele>
        <time>2018-09-20T10:17:55.000Z</time>
      </trkpt>
      <trkpt lat="46.69954" lon="-2.3669">
        <ele>20.2</ele>
        <time>2018-09-20T10:17:56.000Z</time>
      </trkpt>
      <trkpt lat="46.69953" lon="-2.36689">
        <ele>20.2</ele>
        <time>2018-09-20T10:17:57.000Z</time>
      </trkpt>
      <trkpt lat="46.69952" lon="-2.36688">
        <ele>20.2</ele>
        <time>2018-09-20T10:17:58.000Z</time>
      </trkpt>
      <trkpt lat="46.69951" lon="-2.36687">
        <ele>20.3</ele>
        <time>2018-09-20T10:17:59.000Z</time>
      </trkpt>
      <trkpt lat="46.69951" lon="-2.36686">
        <ele>20.3</ele>
        <time>2018-09-20T10:18:00.000Z</time>
      </trkpt>
      <trkpt lat="46.6995" lon="-2.36685">
        <ele>20.4</ele>
        <time>2018-09-20T10:18:01.000Z</time>
      </trkpt>
      <trkpt lat="46.69949" lon="-2.36684">
        <ele>20.4</ele>
        <time>2018-09-20T10:18:02.000Z</time>
      </trkpt>
      <trkpt lat="46.69948" lon="-2.36684">
        <ele>20.4</ele>
        <time>2018-09-20T10:18:03.000Z</time>
      </trkpt>
      <trkpt lat="46.69948" lon="-2.36683">
        <ele>20.5</ele>
        <time>2018-09-20T10:18:04.000Z</time>
      </trkpt>
      <trkpt lat="46.69947" lon="-2.36681">
        <ele>20.5</ele>
        <time>2018-09-20T10:18:05.000Z</time>
      </trkpt>
      <trkpt lat="46.69946" lon="-2.3668">
        <ele>20.6</ele>
        <time>2018-09-20T10:18:06.000Z</time>
      </trkpt>
      <trkpt lat="46.69945" lon="-2.36679">
        <ele>20.6</ele>
        <time>2018-09-20T10:18:07.000Z</time>
      </trkpt>
      <trkpt lat="46.69944" lon="-2.36678">
        <ele>20.7</ele>
        <time>2018-09-20T10:18:08.000Z</time>
      </trkpt>
      <trkpt lat="46.69944" lon="-2.36677">
        <ele>20.8</ele>
        <time>2018-09-20T10:18:09.000Z</time>
      </trkpt>
      <trkpt lat="46.69943" lon="-2.36676">
        <ele>20.8</ele>
        <time>2018-09-20T10:18:10.000Z</time>
      </trkpt>
      <trkpt lat="46.69942" lon="-2.36675">
        <ele>20.9</ele>
        <time>2018-09-20T10:18:11.000Z</time>
      </trkpt>
      <trkpt lat="46.69941" lon="-2.36673">
        <ele>20.9</ele>
        <time>2018-09-20T10:18:12.000Z</time>
      </trkpt>
      <trkpt lat="46.69941" lon="-2.36672">
        <ele>21</ele>
        <time>2018-09-20T10:18:13.000Z</time>
      </trkpt>
      <trkpt lat="46.6994" lon="-2.36671">
        <ele>21</ele>
        <time>2018-09-20T10:18:14.000Z</time>
      </trkpt>
      <trkpt lat="46.69939" lon="-2.3667">
        <ele>21.1</ele>
        <time>2018-09-20T10:18:15.000Z</time>
      </trkpt>
      <trkpt lat="46.69939" lon="-2.3667">
        <ele>21.1</ele>
        <time>2018-09-20T10:18:16.000Z</time>
      </trkpt>
      <trkpt lat="46.69938" lon="-2.36669">
        <ele>21.1</ele>
        <time>2018-09-20T10:18:17.000Z</time>
      </trkpt>
      <trkpt lat="46.69937" lon="-2.36668">
        <ele>21.2</ele>
        <time>2018-09-20T10:18:18.000Z</time>
      </trkpt>
      <trkpt lat="46.69937" lon="-2.36668">
        <ele>21.2</ele>
        <time>2018-09-20T10:18:19.000Z</time>
      </trkpt>
      <trkpt lat="46.69936" lon="-2.36667">
        <ele>21.2</ele>
        <time>2018-09-20T10:18:20.000Z</time>
      </trkpt>
      <trkpt lat="46.69935" lon="-2.36667">
        <ele>21.2</ele>
        <time>2018-09-20T10:18:21.000Z</time>
      </trkpt>
      <trkpt lat="46.69934" lon="-2.36666">
        <ele>21.2</ele>
        <time>2018-09-20T10:18:22.000Z</time>
      </trkpt>
      <trkpt lat="46.69933" lon="-2.36666">
        <ele>21.2</ele>
        <time>2018-09-20T10:18:23.000Z</time>
      </trkpt>
      <trkpt lat="46.69932" lon="-2.36666">
        <ele>21.2</ele>
        <time>2018-09-20T10:18:24.000Z</time>
      </trkpt>
      <trkpt lat="46.69932" lon="-2.36666">
        <ele>21.2</ele>
        <time>2018-09-20T10:18:25.000Z</time>
      </trkpt>
      <trkpt lat="46.69931" lon="-2.36666">
        <ele>21.2</ele>
        <time>2018-09-20T10:18:26.000Z</time>
      </trkpt>
      <trkpt lat="46.6993" lon="-2.36666">
        <ele>21.2</ele>
        <time>2018-09-20T10:18:27.000Z</time>
      </trkpt>
      <trkpt lat="46.69929" lon="-2.36666">
        <ele>21.2</ele>
        <time>2018-09-20T10:18:28.000Z</time>
      </trkpt>
      <trkpt lat="46.69928" lon="-2.36665">
        <ele>21.2</ele>
        <time>2018-09-20T10:18:29.000Z</time>
      </trkpt>
      <trkpt lat="46.69927" lon="-2.36665">
        <ele>21.2</ele>
        <time>2018-09-20T10:18:30.000Z</time>
      </trkpt>
      <trkpt lat="46.69926" lon="-2.36665">
        <ele>21.2</ele>
        <time>2018-09-20T10:18:31.000Z</time>
      </trkpt>
      <trkpt lat="46.69925" lon="-2.36665">
        <ele>21.1</ele>
        <time>2018-09-20T10:18:32.000Z</time>
      </trkpt>
      <trkpt lat="46.69924" lon="-2.36665">
        <ele>21.1</ele>
        <time>2018-09-20T10:18:33.000Z</time>
      </trkpt>
      <trkpt lat="46.69923" lon="-2.36665">
        <ele>21.1</ele>
        <time>2018-09-20T10:18:34.000Z</time>
      </trkpt>
      <trkpt lat="46.69922" lon="-2.36665">
        <ele>21.1</ele>
        <time>2018-09-20T10:18:35.000Z</time>
      </trkpt>
      <trkpt lat="46.69922" lon="-2.36665">
        <ele>21.1</ele>
        <time>2018-09-20T10:18:36.000Z</time>
      </trkpt>
      <trkpt lat="46.69921" lon="-2.36665">
        <ele>21.1</ele>
        <time>2018-09-20T10:18:37.000Z</time>
      </trkpt>
      <trkpt lat="46.69921" lon="-2.36665">
        <ele>21.1</ele>
        <time>2018-09-20T10:18:38.000Z</time>
      </trkpt>
      <trkpt lat="46.69921" lon="-2.36665">
        <ele>21.1</ele>
        <time>2018-09-20T10:18:39.000Z</time>
      </trkpt>
      <trkpt lat="46.69921" lon="-2.36665">
        <ele>21.1</ele>
        <time>2018-09-20T10:18:40.000Z</time>
      </trkpt>
      <trkpt lat="46.69921" lon="-2.36665">
        <ele>21.1</ele>
        <time>2018-09-20T10:18:41.000Z</time>
      </trkpt>
      <trkpt lat="46.69921" lon="-2.36665">
        <ele>21.1</ele>
        <time>2018-09-20T10:18:42.000Z</time>
      </trkpt>
      <trkpt lat="46.69921" lon="-2.36665">
        <ele>21.1</ele>
        <time>2018-09-20T10:18:43.000Z</time>
      </trkpt>
      <trkpt lat="46.69921" lon="-2.36665">
        <ele>21.1</ele>
        <time>2018-09-20T10:18:44.000Z</time>
      </trkpt>
      <trkpt lat="46.69921" lon="-2.36665">
        <ele>21.1</ele>
        <time>2018-09-20T10:18:45.000Z</time>
      </trkpt>
      <trkpt lat="46.69921" lon="-2.36665">
        <ele>21.1</ele>
        <time>2018-09-20T10:18:46.000Z</time>
      </trkpt>
      <trkpt lat="46.69921" lon="-2.36665">
        <ele>21.1</ele>
        <time>2018-09-20T10:18:47.000Z</time>
      </trkpt>
      <trkpt lat="46.6992" lon="-2.36665">
        <ele>21.1</ele>
        <time>2018-09-20T10:18:48.000Z</time>
      </trkpt>
      <trkpt lat="46.6992" lon="-2.36665">
        <ele>21.1</ele>
        <time>2018-09-20T10:18:49.000Z</time>
      </trkpt>
      <trkpt lat="46.69919" lon="-2.36665">
        <ele>21.1</ele>
        <time>2018-09-20T10:18:50.000Z</time>
      </trkpt>
      <trkpt lat="46.69918" lon="-2.36665">
        <ele>21.1</ele>
        <time>2018-09-20T10:18:51.000Z</time>
      </trkpt>
      <trkpt lat="46.69917" lon="-2.36665">
        <ele>21.1</ele>
        <time>2018-09-20T10:18:52.000Z</time>
      </trkpt>
      <trkpt lat="46.69916" lon="-2.36665">
        <ele>21</ele>
        <time>2018-09-20T10:18:53.000Z</time>
      </trkpt>
      <trkpt lat="46.69915" lon="-2.36664">
        <ele>21</ele>
        <time>2018-09-20T10:18:54.000Z</time>
      </trkpt>
      <trkpt lat="46.69914" lon="-2.36664">
        <ele>20.9</ele>
        <time>2018-09-20T10:18:55.000Z</time>
      </trkpt>
      <trkpt lat="46.69913" lon="-2.36664">
        <ele>20.9</ele>
        <time>2018-09-20T10:18:56.000Z</time>
      </trkpt>
      <trkpt lat="46.69912" lon="-2.36664">
        <ele>20.8</ele>
        <time>2018-09-20T10:18:57.000Z</time>
      </trkpt>
      <trkpt lat="46.69912" lon="-2.36664">
        <ele>20.8</ele>
        <time>2018-09-20T10:18:58.000Z</time>
      </trkpt>
      <trkpt lat="46.69912" lon="-2.36664">
        <ele>20.8</ele>
        <time>2018-09-20T10:18:59.000Z</time>
      </trkpt>
      <trkpt lat="46.69911" lon="-2.36664">
        <ele>20.8</ele>
        <time>2018-09-20T10:19:00.000Z</time>
      </trkpt>
      <trkpt lat="46.69911" lon="-2.36664">
        <ele>20.8</ele>
        <time>2018-09-20T10:19:01.000Z</time>
      </trkpt>
      <trkpt lat="46.69911" lon="-2.36664">
        <ele>20.8</ele>
        <time>2018-09-20T10:19:02.000Z</time>
      </trkpt>
      <trkpt lat="46.69911" lon="-2.36664">
        <ele>20.8</ele>
        <time>2018-09-20T10:19:03.000Z</time>
      </trkpt>
      <trkpt lat="46.69911" lon="-2.36664">
        <ele>20.8</ele>
        <time>2018-09-20T10:19:04.000Z</time>
      </trkpt>
      <trkpt lat="46.69911" lon="-2.36664">
        <ele>20.8</ele>
        <time>2018-09-20T10:19:05.000Z</time>
      </trkpt>
      <trkpt lat="46.69911" lon="-2.36664">
        <ele>20.8</ele>
        <time>2018-09-20T10:19:06.000Z</time>
      </trkpt>
      <trkpt lat="46.69911" lon="-2.36664">
        <ele>20.8</ele>
        <time>2018-09-20T10:19:07.000Z</time>
      </trkpt>
      <trkpt lat="46.69911" lon="-2.36664">
        <ele>20.8</ele>
        <time>2018-09-20T10:19:08.000Z</time>
      </trkpt>
      <trkpt lat="46.69911" lon="-2.36664">
        <ele>20.8</ele>
        <time>2018-09-20T10:19:09.000Z</time>
      </trkpt>
      <trkpt lat="46.69911" lon="-2.36664">
        <ele>20.8</ele>
        <time>2018-09-20T10:19:10.000Z</time>
      </trkpt>
      <trkpt lat="46.69911" lon="-2.36664">
        <ele>20.8</ele>
        <time>2018-09-20T10:19:11.000Z</time>
      </trkpt>
      <trkpt lat="46.69911" lon="-2.36664">
        <ele>20.8</ele>
        <time>2018-09-20T10:19:12.000Z</time>
      </trkpt>
      <trkpt lat="46.69911" lon="-2.36664">
        <ele>20.8</ele>
        <time>2018-09-20T10:19:13.000Z</time>
      </trkpt>
      <trkpt lat="46.69911" lon="-2.36664">
        <ele>20.8</ele>
        <time>2018-09-20T10:19:14.000Z</time>
      </trkpt>
      <trkpt lat="46.69911" lon="-2.36664">
        <ele>20.8</ele>
        <time>2018-09-20T10:19:15.000Z</time>
      </trkpt>
      <trkpt lat="46.69911" lon="-2.36664">
        <ele>20.8</ele>
        <time>2018-09-20T10:19:16.000Z</time>
      </trkpt>
      <trkpt lat="46.69911" lon="-2.36664">
        <ele>20.8</ele>
        <time>2018-09-20T10:19:17.000Z</time>
      </trkpt>
      <trkpt lat="46.69911" lon="-2.36664">
        <ele>20.8</ele>
        <time>2018-09-20T10:19:18.000Z</time>
      </trkpt>
      <trkpt lat="46.69911" lon="-2.36664">
        <ele>20.8</ele>
        <time>2018-09-20T10:19:19.000Z</time>
      </trkpt>
      <trkpt lat="46.69911" lon="-2.36664">
        <ele>20.8</ele>
        <time>2018-09-20T10:19:20.000Z</time>
      </trkpt>
      <trkpt lat="46.69911" lon="-2.36664">
        <ele>20.8</ele>
        <time>2018-09-20T10:19:21.000Z</time>
      </trkpt>
      <trkpt lat="46.69911" lon="-2.36664">
        <ele>20.8</ele>
        <time>2018-09-20T10:19:22.000Z</time>
      </trkpt>
      <trkpt lat="46.69911" lon="-2.36664">
        <ele>20.8</ele>
        <time>2018-09-20T10:19:23.000Z</time>
      </trkpt>
      <trkpt lat="46.69911" lon="-2.36664">
        <ele>20.8</ele>
        <time>2018-09-20T10:19:24.000Z</time>
      </trkpt>
      <trkpt lat="46.69911" lon="-2.36664">
        <ele>20.8</ele>
        <time>2018-09-20T10:19:25.000Z</time>
      </trkpt>
      <trkpt lat="46.69911" lon="-2.36664">
        <ele>20.8</ele>
        <time>2018-09-20T10:19:26.000Z</time>
      </trkpt>
      <trkpt lat="46.69911" lon="-2.36664">
        <ele>20.8</ele>
        <time>2018-09-20T10:19:27.000Z</time>
      </trkpt>
      <trkpt lat="46.69911" lon="-2.36664">
        <ele>20.8</ele>
        <time>2018-09-20T10:19:28.000Z</time>
      </trkpt>
      <trkpt lat="46.69911" lon="-2.36664">
        <ele>20.8</ele>
        <time>2018-09-20T10:19:29.000Z</time>
      </trkpt>
      <trkpt lat="46.69911" lon="-2.36664">
        <ele>20.8</ele>
        <time>2018-09-20T10:19:30.000Z</time>
      </trkpt>
      <trkpt lat="46.69911" lon="-2.36664">
        <ele>20.8</ele>
        <time>2018-09-20T10:19:31.000Z</time>
      </trkpt>
      <trkpt lat="46.69911" lon="-2.36664">
        <ele>20.7</ele>
        <time>2018-09-20T10:19:32.000Z</time>
      </trkpt>
      <trkpt lat="46.6991" lon="-2.36664">
        <ele>20.7</ele>
        <time>2018-09-20T10:19:33.000Z</time>
      </trkpt>
      <trkpt lat="46.6991" lon="-2.36664">
        <ele>20.7</ele>
        <time>2018-09-20T10:19:34.000Z</time>
      </trkpt>
      <trkpt lat="46.69909" lon="-2.36663">
        <ele>20.7</ele>
        <time>2018-09-20T10:19:35.000Z</time>
      </trkpt>
      <trkpt lat="46.69909" lon="-2.36663">
        <ele>20.7</ele>
        <time>2018-09-20T10:19:36.000Z</time>
      </trkpt>
      <trkpt lat="46.69908" lon="-2.36663">
        <ele>20.6</ele>
        <time>2018-09-20T10:19:37.000Z</time>
      </trkpt>
      <trkpt lat="46.69907" lon="-2.36662">
        <ele>20.6</ele>
        <time>2018-09-20T10:19:38.000Z</time>
      </trkpt>
      <trkpt lat="46.69906" lon="-2.36662">
        <ele>20.5</ele>
        <time>2018-09-20T10:19:39.000Z</time>
      </trkpt>
      <trkpt lat="46.69905" lon="-2.36661">
        <ele>20.5</ele>
        <time>2018-09-20T10:19:40.000Z</time>
      </trkpt>
      <trkpt lat="46.69904" lon="-2.36661">
        <ele>20.5</ele>
        <time>2018-09-20T10:19:41.000Z</time>
      </trkpt>
      <trkpt lat="46.69902" lon="-2.3666">
        <ele>20.4</ele>
        <time>2018-09-20T10:19:42.000Z</time>
      </trkpt>
      <trkpt lat="46.69901" lon="-2.3666">
        <ele>20.4</ele>
        <time>2018-09-20T10:19:43.000Z</time>
      </trkpt>
      <trkpt lat="46.699" lon="-2.36659">
        <ele>20.3</ele>
        <time>2018-09-20T10:19:44.000Z</time>
      </trkpt>
      <trkpt lat="46.69899" lon="-2.36659">
        <ele>20.3</ele>
        <time>2018-09-20T10:19:45.000Z</time>
      </trkpt>
      <trkpt lat="46.69897" lon="-2.36658">
        <ele>20.2</ele>
        <time>2018-09-20T10:19:46.000Z</time>
      </trkpt>
      <trkpt lat="46.69896" lon="-2.36658">
        <ele>20.2</ele>
        <time>2018-09-20T10:19:47.000Z</time>
      </trkpt>
      <trkpt lat="46.69895" lon="-2.36657">
        <ele>20.1</ele>
        <time>2018-09-20T10:19:48.000Z</time>
      </trkpt>
      <trkpt lat="46.69894" lon="-2.36656">
        <ele>20.1</ele>
        <time>2018-09-20T10:19:49.000Z</time>
      </trkpt>
      <trkpt lat="46.69893" lon="-2.36656">
        <ele>20.1</ele>
        <time>2018-09-20T10:19:50.000Z</time>
      </trkpt>
      <trkpt lat="46.69891" lon="-2.36655">
        <ele>20</ele>
        <time>2018-09-20T10:19:51.000Z</time>
      </trkpt>
      <trkpt lat="46.6989" lon="-2.36655">
        <ele>20</ele>
        <time>2018-09-20T10:19:52.000Z</time>
      </trkpt>
      <trkpt lat="46.69889" lon="-2.36654">
        <ele>19.9</ele>
        <time>2018-09-20T10:19:53.000Z</time>
      </trkpt>
      <trkpt lat="46.69888" lon="-2.36654">
        <ele>19.9</ele>
        <time>2018-09-20T10:19:54.000Z</time>
      </trkpt>
      <trkpt lat="46.69887" lon="-2.36653">
        <ele>19.9</ele>
        <time>2018-09-20T10:19:55.000Z</time>
      </trkpt>
      <trkpt lat="46.69886" lon="-2.36652">
        <ele>19.8</ele>
        <time>2018-09-20T10:19:56.000Z</time>
      </trkpt>
      <trkpt lat="46.69884" lon="-2.36652">
        <ele>19.8</ele>
        <time>2018-09-20T10:19:57.000Z</time>
      </trkpt>
      <trkpt lat="46.69883" lon="-2.36651">
        <ele>19.8</ele>
        <time>2018-09-20T10:19:58.000Z</time>
      </trkpt>
      <trkpt lat="46.69882" lon="-2.3665">
        <ele>19.7</ele>
        <time>2018-09-20T10:19:59.000Z</time>
      </trkpt>
      <trkpt lat="46.69881" lon="-2.3665">
        <ele>19.7</ele>
        <time>2018-09-20T10:20:00.000Z</time>
      </trkpt>
      <trkpt lat="46.6988" lon="-2.36649">
        <ele>19.7</ele>
        <time>2018-09-20T10:20:01.000Z</time>
      </trkpt>
      <trkpt lat="46.69879" lon="-2.36648">
        <ele>19.7</ele>
        <time>2018-09-20T10:20:02.000Z</time>
      </trkpt>
      <trkpt lat="46.69877" lon="-2.36648">
        <ele>19.7</ele>
        <time>2018-09-20T10:20:03.000Z</time>
      </trkpt>
      <trkpt lat="46.69876" lon="-2.36647">
        <ele>19.6</ele>
        <time>2018-09-20T10:20:04.000Z</time>
      </trkpt>
      <trkpt lat="46.69875" lon="-2.36646">
        <ele>19.6</ele>
        <time>2018-09-20T10:20:05.000Z</time>
      </trkpt>
      <trkpt lat="46.69874" lon="-2.36645">
        <ele>19.6</ele>
        <time>2018-09-20T10:20:06.000Z</time>
      </trkpt>
      <trkpt lat="46.69873" lon="-2.36644">
        <ele>19.6</ele>
        <time>2018-09-20T10:20:07.000Z</time>
      </trkpt>
      <trkpt lat="46.69872" lon="-2.36643">
        <ele>19.6</ele>
        <time>2018-09-20T10:20:08.000Z</time>
      </trkpt>
      <trkpt lat="46.6987" lon="-2.36643">
        <ele>19.6</ele>
        <time>2018-09-20T10:20:09.000Z</time>
      </trkpt>
      <trkpt lat="46.69869" lon="-2.36642">
        <ele>19.6</ele>
        <time>2018-09-20T10:20:10.000Z</time>
      </trkpt>
      <trkpt lat="46.69868" lon="-2.36641">
        <ele>19.6</ele>
        <time>2018-09-20T10:20:11.000Z</time>
      </trkpt>
      <trkpt lat="46.69867" lon="-2.3664">
        <ele>19.6</ele>
        <time>2018-09-20T10:20:12.000Z</time>
      </trkpt>
      <trkpt lat="46.69866" lon="-2.36639">
        <ele>19.6</ele>
        <time>2018-09-20T10:20:13.000Z</time>
      </trkpt>
      <trkpt lat="46.69865" lon="-2.36637">
        <ele>19.6</ele>
        <time>2018-09-20T10:20:14.000Z</time>
      </trkpt>
      <trkpt lat="46.69864" lon="-2.36636">
        <ele>19.6</ele>
        <time>2018-09-20T10:20:15.000Z</time>
      </trkpt>
      <trkpt lat="46.69863" lon="-2.36635">
        <ele>19.6</ele>
        <time>2018-09-20T10:20:16.000Z</time>
      </trkpt>
      <trkpt lat="46.69862" lon="-2.36634">
        <ele>19.7</ele>
        <time>2018-09-20T10:20:17.000Z</time>
      </trkpt>
      <trkpt lat="46.69861" lon="-2.36633">
        <ele>19.7</ele>
        <time>2018-09-20T10:20:18.000Z</time>
      </trkpt>
      <trkpt lat="46.6986" lon="-2.36632">
        <ele>19.7</ele>
        <time>2018-09-20T10:20:19.000Z</time>
      </trkpt>
      <trkpt lat="46.69859" lon="-2.3663">
        <ele>19.8</ele>
        <time>2018-09-20T10:20:20.000Z</time>
      </trkpt>
      <trkpt lat="46.69858" lon="-2.36629">
        <ele>19.8</ele>
        <time>2018-09-20T10:20:21.000Z</time>
      </trkpt>
      <trkpt lat="46.69857" lon="-2.36628">
        <ele>19.8</ele>
        <time>2018-09-20T10:20:22.000Z</time>
      </trkpt>
      <trkpt lat="46.69856" lon="-2.36626">
        <ele>19.9</ele>
        <time>2018-09-20T10:20:23.000Z</time>
      </trkpt>
      <trkpt lat="46.69855" lon="-2.36625">
        <ele>19.9</ele>
        <time>2018-09-20T10:20:24.000Z</time>
      </trkpt>
      <trkpt lat="46.69854" lon="-2.36624">
        <ele>20</ele>
        <time>2018-09-20T10:20:25.000Z</time>
      </trkpt>
      <trkpt lat="46.69853" lon="-2.36622">
        <ele>20</ele>
        <time>2018-09-20T10:20:26.000Z</time>
      </trkpt>
      <trkpt lat="46.69852" lon="-2.36621">
        <ele>20.1</ele>
        <time>2018-09-20T10:20:27.000Z</time>
      </trkpt>
      <trkpt lat="46.69851" lon="-2.3662">
        <ele>20.1</ele>
        <time>2018-09-20T10:20:28.000Z</time>
      </trkpt>
      <trkpt lat="46.6985" lon="-2.36619">
        <ele>20.1</ele>
        <time>2018-09-20T10:20:29.000Z</time>
      </trkpt>
      <trkpt lat="46.6985" lon="-2.36618">
        <ele>20.2</ele>
        <time>2018-09-20T10:20:30.000Z</time>
      </trkpt>
      <trkpt lat="46.69849" lon="-2.36617">
        <ele>20.2</ele>
        <time>2018-09-20T10:20:31.000Z</time>
      </trkpt>
      <trkpt lat="46.69848" lon="-2.36616">
        <ele>20.2</ele>
        <time>2018-09-20T10:20:32.000Z</time>
      </trkpt>
      <trkpt lat="46.69847" lon="-2.36615">
        <ele>20.3</ele>
        <time>2018-09-20T10:20:33.000Z</time>
      </trkpt>
      <trkpt lat="46.69846" lon="-2.36614">
        <ele>20.3</ele>
        <time>2018-09-20T10:20:34.000Z</time>
      </trkpt>
      <trkpt lat="46.69845" lon="-2.36613">
        <ele>20.3</ele>
        <time>2018-09-20T10:20:35.000Z</time>
      </trkpt>
      <trkpt lat="46.69844" lon="-2.36612">
        <ele>20.3</ele>
        <time>2018-09-20T10:20:36.000Z</time>
      </trkpt>
      <trkpt lat="46.69844" lon="-2.36612">
        <ele>20.3</ele>
        <time>2018-09-20T10:20:37.000Z</time>
      </trkpt>
      <trkpt lat="46.69843" lon="-2.36611">
        <ele>20.3</ele>
        <time>2018-09-20T10:20:38.000Z</time>
      </trkpt>
      <trkpt lat="46.69843" lon="-2.36611">
        <ele>20.3</ele>
        <time>2018-09-20T10:20:39.000Z</time>
      </trkpt>
      <trkpt lat="46.69843" lon="-2.36611">
        <ele>20.4</ele>
        <time>2018-09-20T10:20:40.000Z</time>
      </trkpt>
      <trkpt lat="46.69842" lon="-2.36611">
        <ele>20.4</ele>
        <time>2018-09-20T10:20:41.000Z</time>
      </trkpt>
      <trkpt lat="46.69842" lon="-2.36611">
        <ele>20.4</ele>
        <time>2018-09-20T10:20:42.000Z</time>
      </trkpt>
      <trkpt lat="46.69843" lon="-2.36611">
        <ele>20.4</ele>
        <time>2018-09-20T10:20:43.000Z</time>
      </trkpt>
      <trkpt lat="46.69843" lon="-2.36611">
        <ele>20.4</ele>
        <time>2018-09-20T10:20:44.000Z</time>
      </trkpt>
      <trkpt lat="46.69843" lon="-2.36611">
        <ele>20.4</ele>
        <time>2018-09-20T10:20:45.000Z</time>
      </trkpt>
      <trkpt lat="46.69843" lon="-2.36611">
        <ele>20.3</ele>
        <time>2018-09-20T10:20:46.000Z</time>
      </trkpt>
      <trkpt lat="46.69843" lon="-2.36611">
        <ele>20.3</ele>
        <time>2018-09-20T10:20:47.000Z</time>
      </trkpt>
      <trkpt lat="46.69843" lon="-2.36611">
        <ele>20.3</ele>
        <time>2018-09-20T10:20:48.000Z</time>
      </trkpt>
      <trkpt lat="46.69843" lon="-2.36611">
        <ele>20.3</ele>
        <time>2018-09-20T10:20:49.000Z</time>
      </trkpt>
      <trkpt lat="46.69843" lon="-2.36611">
        <ele>20.3</ele>
        <time>2018-09-20T10:20:50.000Z</time>
      </trkpt>
      <trkpt lat="46.69843" lon="-2.36611">
        <ele>20.3</ele>
        <time>2018-09-20T10:20:51.000Z</time>
      </trkpt>
      <trkpt lat="46.69843" lon="-2.36611">
        <ele>20.3</ele>
        <time>2018-09-20T10:20:52.000Z</time>
      </trkpt>
      <trkpt lat="46.69843" lon="-2.36611">
        <ele>20.3</ele>
        <time>2018-09-20T10:20:53.000Z</time>
      </trkpt>
      <trkpt lat="46.69843" lon="-2.36611">
        <ele>20.3</ele>
        <time>2018-09-20T10:20:54.000Z</time>
      </trkpt>
      <trkpt lat="46.69843" lon="-2.36611">
        <ele>20.3</ele>
        <time>2018-09-20T10:20:55.000Z</time>
      </trkpt>
      <trkpt lat="46.69843" lon="-2.36611">
        <ele>20.3</ele>
        <time>2018-09-20T10:20:56.000Z</time>
      </trkpt>
      <trkpt lat="46.69843" lon="-2.36611">
        <ele>20.3</ele>
        <time>2018-09-20T10:20:57.000Z</time>
      </trkpt>
      <trkpt lat="46.69843" lon="-2.36611">
        <ele>20.3</ele>
        <time>2018-09-20T10:20:58.000Z</time>
      </trkpt>
      <trkpt lat="46.69843" lon="-2.36611">
        <ele>20.3</ele>
        <time>2018-09-20T10:20:59.000Z</time>
      </trkpt>
      <trkpt lat="46.69843" lon="-2.36611">
        <ele>20.3</ele>
        <time>2018-09-20T10:21:00.000Z</time>
      </trkpt>
      <trkpt lat="46.69843" lon="-2.36611">
        <ele>20.3</ele>
        <time>2018-09-20T10:21:01.000Z</time>
      </trkpt>
      <trkpt lat="46.69843" lon="-2.36611">
        <ele>20.3</ele>
        <time>2018-09-20T10:21:02.000Z</time>
      </trkpt>
      <trkpt lat="46.69843" lon="-2.36611">
        <ele>20.3</ele>
        <time>2018-09-20T10:21:03.000Z</time>
      </trkpt>
      <trkpt lat="46.69843" lon="-2.36611">
        <ele>20.3</ele>
        <time>2018-09-20T10:21:04.000Z</time>
      </trkpt>
      <trkpt lat="46.69843" lon="-2.36611">
        <ele>20.3</ele>
        <time>2018-09-20T10:21:05.000Z</time>
      </trkpt>
      <trkpt lat="46.69843" lon="-2.36611">
        <ele>20.3</ele>
        <time>2018-09-20T10:21:06.000Z</time>
      </trkpt>
      <trkpt lat="46.69843" lon="-2.36611">
        <ele>20.4</ele>
        <time>2018-09-20T10:21:07.000Z</time>
      </trkpt>
      <trkpt lat="46.69842" lon="-2.3661">
        <ele>20.4</ele>
        <time>2018-09-20T10:21:08.000Z</time>
      </trkpt>
      <trkpt lat="46.69841" lon="-2.36609">
        <ele>20.4</ele>
        <time>2018-09-20T10:21:09.000Z</time>
      </trkpt>
      <trkpt lat="46.6984" lon="-2.36608">
        <ele>20.4</ele>
        <time>2018-09-20T10:21:10.000Z</time>
      </trkpt>
      <trkpt lat="46.69839" lon="-2.36607">
        <ele>20.5</ele>
        <time>2018-09-20T10:21:11.000Z</time>
      </trkpt>
      <trkpt lat="46.69838" lon="-2.36606">
        <ele>20.5</ele>
        <time>2018-09-20T10:21:12.000Z</time>
      </trkpt>
      <trkpt lat="46.69837" lon="-2.36605">
        <ele>20.6</ele>
        <time>2018-09-20T10:21:13.000Z</time>
      </trkpt>
      <trkpt lat="46.69835" lon="-2.36604">
        <ele>20.6</ele>
        <time>2018-09-20T10:21:14.000Z</time>
      </trkpt>
      <trkpt lat="46.69834" lon="-2.36603">
        <ele>20.6</ele>
        <time>2018-09-20T10:21:15.000Z</time>
      </trkpt>
      <trkpt lat="46.69832" lon="-2.36602">
        <ele>20.5</ele>
        <time>2018-09-20T10:21:16.000Z</time>
      </trkpt>
      <trkpt lat="46.69831" lon="-2.36601">
        <ele>20.3</ele>
        <time>2018-09-20T10:21:17.000Z</time>
      </trkpt>
      <trkpt lat="46.69829" lon="-2.366">
        <ele>20.1</ele>
        <time>2018-09-20T10:21:18.000Z</time>
      </trkpt>
      <trkpt lat="46.69828" lon="-2.36599">
        <ele>20</ele>
        <time>2018-09-20T10:21:19.000Z</time>
      </trkpt>
      <trkpt lat="46.69827" lon="-2.36598">
        <ele>19.8</ele>
        <time>2018-09-20T10:21:20.000Z</time>
      </trkpt>
      <trkpt lat="46.69825" lon="-2.36597">
        <ele>19.6</ele>
        <time>2018-09-20T10:21:21.000Z</time>
      </trkpt>
      <trkpt lat="46.69824" lon="-2.36597">
        <ele>19.5</ele>
        <time>2018-09-20T10:21:22.000Z</time>
      </trkpt>
      <trkpt lat="46.69823" lon="-2.36596">
        <ele>19.3</ele>
        <time>2018-09-20T10:21:23.000Z</time>
      </trkpt>
      <trkpt lat="46.69822" lon="-2.36596">
        <ele>19.2</ele>
        <time>2018-09-20T10:21:24.000Z</time>
      </trkpt>
      <trkpt lat="46.69821" lon="-2.36595">
        <ele>19</ele>
        <time>2018-09-20T10:21:25.000Z</time>
      </trkpt>
      <trkpt lat="46.69819" lon="-2.36594">
        <ele>18.9</ele>
        <time>2018-09-20T10:21:26.000Z</time>
      </trkpt>
      <trkpt lat="46.69818" lon="-2.36594">
        <ele>18.7</ele>
        <time>2018-09-20T10:21:27.000Z</time>
      </trkpt>
      <trkpt lat="46.69817" lon="-2.36593">
        <ele>18.6</ele>
        <time>2018-09-20T10:21:28.000Z</time>
      </trkpt>
      <trkpt lat="46.69816" lon="-2.36592">
        <ele>18.5</ele>
        <time>2018-09-20T10:21:29.000Z</time>
      </trkpt>
      <trkpt lat="46.69815" lon="-2.36592">
        <ele>18.4</ele>
        <time>2018-09-20T10:21:30.000Z</time>
      </trkpt>
      <trkpt lat="46.69814" lon="-2.36591">
        <ele>18.3</ele>
        <time>2018-09-20T10:21:31.000Z</time>
      </trkpt>
      <trkpt lat="46.69814" lon="-2.36591">
        <ele>18.2</ele>
        <time>2018-09-20T10:21:32.000Z</time>
      </trkpt>
      <trkpt lat="46.69813" lon="-2.3659">
        <ele>18.1</ele>
        <time>2018-09-20T10:21:33.000Z</time>
      </trkpt>
      <trkpt lat="46.69812" lon="-2.3659">
        <ele>18</ele>
        <time>2018-09-20T10:21:34.000Z</time>
      </trkpt>
      <trkpt lat="46.69812" lon="-2.36589">
        <ele>17.9</ele>
        <time>2018-09-20T10:21:35.000Z</time>
      </trkpt>
      <trkpt lat="46.69811" lon="-2.36589">
        <ele>17.9</ele>
        <time>2018-09-20T10:21:36.000Z</time>
      </trkpt>
      <trkpt lat="46.69811" lon="-2.36589">
        <ele>17.9</ele>
        <time>2018-09-20T10:21:37.000Z</time>
      </trkpt>
      <trkpt lat="46.69811" lon="-2.36589">
        <ele>17.8</ele>
        <time>2018-09-20T10:21:38.000Z</time>
      </trkpt>
      <trkpt lat="46.69811" lon="-2.36589">
        <ele>17.8</ele>
        <time>2018-09-20T10:21:39.000Z</time>
      </trkpt>
      <trkpt lat="46.69811" lon="-2.36588">
        <ele>17.8</ele>
        <time>2018-09-20T10:21:40.000Z</time>
      </trkpt>
      <trkpt lat="46.69811" lon="-2.36589">
        <ele>17.8</ele>
        <time>2018-09-20T10:21:41.000Z</time>
      </trkpt>
      <trkpt lat="46.69811" lon="-2.36589">
        <ele>17.8</ele>
        <time>2018-09-20T10:21:42.000Z</time>
      </trkpt>
      <trkpt lat="46.69811" lon="-2.36589">
        <ele>17.8</ele>
        <time>2018-09-20T10:21:43.000Z</time>
      </trkpt>
      <trkpt lat="46.69811" lon="-2.36589">
        <ele>17.8</ele>
        <time>2018-09-20T10:21:44.000Z</time>
      </trkpt>
      <trkpt lat="46.69811" lon="-2.36589">
        <ele>17.8</ele>
        <time>2018-09-20T10:21:45.000Z</time>
      </trkpt>
      <trkpt lat="46.69811" lon="-2.36589">
        <ele>17.8</ele>
        <time>2018-09-20T10:21:46.000Z</time>
      </trkpt>
      <trkpt lat="46.69811" lon="-2.36589">
        <ele>17.8</ele>
        <time>2018-09-20T10:21:47.000Z</time>
      </trkpt>
      <trkpt lat="46.69811" lon="-2.36589">
        <ele>17.8</ele>
        <time>2018-09-20T10:21:48.000Z</time>
      </trkpt>
      <trkpt lat="46.69811" lon="-2.36589">
        <ele>17.8</ele>
        <time>2018-09-20T10:21:49.000Z</time>
      </trkpt>
      <trkpt lat="46.6981" lon="-2.36589">
        <ele>17.8</ele>
        <time>2018-09-20T10:21:50.000Z</time>
      </trkpt>
      <trkpt lat="46.6981" lon="-2.36588">
        <ele>17.7</ele>
        <time>2018-09-20T10:21:51.000Z</time>
      </trkpt>
      <trkpt lat="46.69809" lon="-2.36587">
        <ele>17.7</ele>
        <time>2018-09-20T10:21:52.000Z</time>
      </trkpt>
      <trkpt lat="46.69808" lon="-2.36586">
        <ele>17.6</ele>
        <time>2018-09-20T10:21:53.000Z</time>
      </trkpt>
      <trkpt lat="46.69807" lon="-2.36585">
        <ele>17.5</ele>
        <time>2018-09-20T10:21:54.000Z</time>
      </trkpt>
      <trkpt lat="46.69806" lon="-2.36583">
        <ele>17.4</ele>
        <time>2018-09-20T10:21:55.000Z</time>
      </trkpt>
      <trkpt lat="46.69805" lon="-2.36582">
        <ele>17.3</ele>
        <time>2018-09-20T10:21:56.000Z</time>
      </trkpt>
      <trkpt lat="46.69804" lon="-2.3658">
        <ele>17.2</ele>
        <time>2018-09-20T10:21:57.000Z</time>
      </trkpt>
      <trkpt lat="46.69803" lon="-2.36579">
        <ele>17.1</ele>
        <time>2018-09-20T10:21:58.000Z</time>
      </trkpt>
      <trkpt lat="46.69801" lon="-2.36578">
        <ele>17</ele>
        <time>2018-09-20T10:21:59.000Z</time>
      </trkpt>
      <trkpt lat="46.698" lon="-2.36576">
        <ele>16.9</ele>
        <time>2018-09-20T10:22:00.000Z</time>
      </trkpt>
      <trkpt lat="46.69799" lon="-2.36575">
        <ele>16.8</ele>
        <time>2018-09-20T10:22:01.000Z</time>
      </trkpt>
      <trkpt lat="46.69798" lon="-2.36574">
        <ele>16.8</ele>
        <time>2018-09-20T10:22:02.000Z</time>
      </trkpt>
      <trkpt lat="46.69797" lon="-2.36573">
        <ele>16.7</ele>
        <time>2018-09-20T10:22:03.000Z</time>
      </trkpt>
      <trkpt lat="46.69796" lon="-2.36572">
        <ele>16.6</ele>
        <time>2018-09-20T10:22:04.000Z</time>
      </trkpt>
      <trkpt lat="46.69795" lon="-2.36571">
        <ele>16.5</ele>
        <time>2018-09-20T10:22:05.000Z</time>
      </trkpt>
      <trkpt lat="46.69794" lon="-2.3657">
        <ele>16.4</ele>
        <time>2018-09-20T10:22:06.000Z</time>
      </trkpt>
      <trkpt lat="46.69793" lon="-2.36569">
        <ele>16.4</ele>
        <time>2018-09-20T10:22:07.000Z</time>
      </trkpt>
      <trkpt lat="46.69792" lon="-2.36568">
        <ele>16.3</ele>
        <time>2018-09-20T10:22:08.000Z</time>
      </trkpt>
      <trkpt lat="46.69791" lon="-2.36567">
        <ele>16.2</ele>
        <time>2018-09-20T10:22:09.000Z</time>
      </trkpt>
      <trkpt lat="46.6979" lon="-2.36566">
        <ele>16.2</ele>
        <time>2018-09-20T10:22:10.000Z</time>
      </trkpt>
      <trkpt lat="46.69789" lon="-2.36565">
        <ele>16.1</ele>
        <time>2018-09-20T10:22:11.000Z</time>
      </trkpt>
      <trkpt lat="46.69788" lon="-2.36563">
        <ele>16</ele>
        <time>2018-09-20T10:22:12.000Z</time>
      </trkpt>
      <trkpt lat="46.69787" lon="-2.36562">
        <ele>16</ele>
        <time>2018-09-20T10:22:13.000Z</time>
      </trkpt>
      <trkpt lat="46.69786" lon="-2.36561">
        <ele>15.9</ele>
        <time>2018-09-20T10:22:14.000Z</time>
      </trkpt>
      <trkpt lat="46.69785" lon="-2.3656">
        <ele>15.9</ele>
        <time>2018-09-20T10:22:15.000Z</time>
      </trkpt>
      <trkpt lat="46.69784" lon="-2.36559">
        <ele>15.9</ele>
        <time>2018-09-20T10:22:16.000Z</time>
      </trkpt>
      <trkpt lat="46.69783" lon="-2.36558">
        <ele>15.8</ele>
        <time>2018-09-20T10:22:17.000Z</time>
      </trkpt>
      <trkpt lat="46.69782" lon="-2.36557">
        <ele>15.8</ele>
        <time>2018-09-20T10:22:18.000Z</time>
      </trkpt>
      <trkpt lat="46.69781" lon="-2.36555">
        <ele>15.8</ele>
        <time>2018-09-20T10:22:19.000Z</time>
      </trkpt>
      <trkpt lat="46.6978" lon="-2.36554">
        <ele>15.7</ele>
        <time>2018-09-20T10:22:20.000Z</time>
      </trkpt>
      <trkpt lat="46.69779" lon="-2.36553">
        <ele>15.7</ele>
        <time>2018-09-20T10:22:21.000Z</time>
      </trkpt>
      <trkpt lat="46.69778" lon="-2.36552">
        <ele>15.7</ele>
        <time>2018-09-20T10:22:22.000Z</time>
      </trkpt>
      <trkpt lat="46.69777" lon="-2.36551">
        <ele>15.7</ele>
        <time>2018-09-20T10:22:23.000Z</time>
      </trkpt>
      <trkpt lat="46.69776" lon="-2.3655">
        <ele>15.7</ele>
        <time>2018-09-20T10:22:24.000Z</time>
      </trkpt>
      <trkpt lat="46.69775" lon="-2.36548">
        <ele>15.6</ele>
        <time>2018-09-20T10:22:25.000Z</time>
      </trkpt>
      <trkpt lat="46.69774" lon="-2.36547">
        <ele>15.6</ele>
        <time>2018-09-20T10:22:26.000Z</time>
      </trkpt>
      <trkpt lat="46.69773" lon="-2.36546">
        <ele>15.6</ele>
        <time>2018-09-20T10:22:27.000Z</time>
      </trkpt>
      <trkpt lat="46.69772" lon="-2.36545">
        <ele>15.6</ele>
        <time>2018-09-20T10:22:28.000Z</time>
      </trkpt>
      <trkpt lat="46.69771" lon="-2.36544">
        <ele>15.6</ele>
        <time>2018-09-20T10:22:29.000Z</time>
      </trkpt>
      <trkpt lat="46.6977" lon="-2.36543">
        <ele>15.6</ele>
        <time>2018-09-20T10:22:30.000Z</time>
      </trkpt>
      <trkpt lat="46.69769" lon="-2.36542">
        <ele>15.6</ele>
        <time>2018-09-20T10:22:31.000Z</time>
      </trkpt>
      <trkpt lat="46.69768" lon="-2.36541">
        <ele>15.6</ele>
        <time>2018-09-20T10:22:32.000Z</time>
      </trkpt>
      <trkpt lat="46.69767" lon="-2.3654">
        <ele>15.6</ele>
        <time>2018-09-20T10:22:33.000Z</time>
      </trkpt>
      <trkpt lat="46.69766" lon="-2.36539">
        <ele>15.7</ele>
        <time>2018-09-20T10:22:34.000Z</time>
      </trkpt>
      <trkpt lat="46.69765" lon="-2.36538">
        <ele>15.7</ele>
        <time>2018-09-20T10:22:35.000Z</time>
      </trkpt>
      <trkpt lat="46.69764" lon="-2.36537">
        <ele>15.7</ele>
        <time>2018-09-20T10:22:36.000Z</time>
      </trkpt>
      <trkpt lat="46.69763" lon="-2.36536">
        <ele>15.7</ele>
        <time>2018-09-20T10:22:37.000Z</time>
      </trkpt>
      <trkpt lat="46.69762" lon="-2.36535">
        <ele>15.7</ele>
        <time>2018-09-20T10:22:38.000Z</time>
      </trkpt>
      <trkpt lat="46.69761" lon="-2.36534">
        <ele>15.7</ele>
        <time>2018-09-20T10:22:39.000Z</time>
      </trkpt>
      <trkpt lat="46.6976" lon="-2.36533">
        <ele>15.7</ele>
        <time>2018-09-20T10:22:40.000Z</time>
      </trkpt>
      <trkpt lat="46.69759" lon="-2.36532">
        <ele>15.7</ele>
        <time>2018-09-20T10:22:41.000Z</time>
      </trkpt>
      <trkpt lat="46.69758" lon="-2.36531">
        <ele>15.8</ele>
        <time>2018-09-20T10:22:42.000Z</time>
      </trkpt>
      <trkpt lat="46.69757" lon="-2.3653">
        <ele>15.8</ele>
        <time>2018-09-20T10:22:43.000Z</time>
      </trkpt>
      <trkpt lat="46.69756" lon="-2.36529">
        <ele>15.8</ele>
        <time>2018-09-20T10:22:44.000Z</time>
      </trkpt>
      <trkpt lat="46.69755" lon="-2.36528">
        <ele>15.8</ele>
        <time>2018-09-20T10:22:45.000Z</time>
      </trkpt>
      <trkpt lat="46.69754" lon="-2.36527">
        <ele>15.9</ele>
        <time>2018-09-20T10:22:46.000Z</time>
      </trkpt>
      <trkpt lat="46.69753" lon="-2.36525">
        <ele>15.9</ele>
        <time>2018-09-20T10:22:47.000Z</time>
      </trkpt>
      <trkpt lat="46.69752" lon="-2.36524">
        <ele>16</ele>
        <time>2018-09-20T10:22:48.000Z</time>
      </trkpt>
      <trkpt lat="46.69751" lon="-2.36523">
        <ele>16.1</ele>
        <time>2018-09-20T10:22:49.000Z</time>
      </trkpt>
      <trkpt lat="46.6975" lon="-2.36522">
        <ele>16.2</ele>
        <time>2018-09-20T10:22:50.000Z</time>
      </trkpt>
      <trkpt lat="46.69749" lon="-2.3652">
        <ele>16.3</ele>
        <time>2018-09-20T10:22:51.000Z</time>
      </trkpt>
      <trkpt lat="46.69748" lon="-2.36519">
        <ele>16.5</ele>
        <time>2018-09-20T10:22:52.000Z</time>
      </trkpt>
      <trkpt lat="46.69747" lon="-2.36517">
        <ele>16.6</ele>
        <time>2018-09-20T10:22:53.000Z</time>
      </trkpt>
      <trkpt lat="46.69746" lon="-2.36516">
        <ele>16.8</ele>
        <time>2018-09-20T10:22:54.000Z</time>
      </trkpt>
      <trkpt lat="46.69746" lon="-2.36514">
        <ele>16.9</ele>
        <time>2018-09-20T10:22:55.000Z</time>
      </trkpt>
      <trkpt lat="46.69745" lon="-2.36513">
        <ele>17.1</ele>
        <time>2018-09-20T10:22:56.000Z</time>
      </trkpt>
      <trkpt lat="46.69744" lon="-2.36511">
        <ele>17.2</ele>
        <time>2018-09-20T10:22:57.000Z</time>
      </trkpt>
      <trkpt lat="46.69743" lon="-2.3651">
        <ele>17.4</ele>
        <time>2018-09-20T10:22:58.000Z</time>
      </trkpt>
      <trkpt lat="46.69743" lon="-2.36509">
        <ele>17.5</ele>
        <time>2018-09-20T10:22:59.000Z</time>
      </trkpt>
      <trkpt lat="46.69742" lon="-2.36508">
        <ele>17.6</ele>
        <time>2018-09-20T10:23:00.000Z</time>
      </trkpt>
      <trkpt lat="46.69742" lon="-2.36507">
        <ele>17.7</ele>
        <time>2018-09-20T10:23:01.000Z</time>
      </trkpt>
      <trkpt lat="46.69741" lon="-2.36506">
        <ele>17.8</ele>
        <time>2018-09-20T10:23:02.000Z</time>
      </trkpt>
      <trkpt lat="46.6974" lon="-2.36505">
        <ele>17.9</ele>
        <time>2018-09-20T10:23:03.000Z</time>
      </trkpt>
      <trkpt lat="46.69739" lon="-2.36505">
        <ele>17.9</ele>
        <time>2018-09-20T10:23:04.000Z</time>
      </trkpt>
      <trkpt lat="46.69739" lon="-2.36504">
        <ele>17.9</ele>
        <time>2018-09-20T10:23:05.000Z</time>
      </trkpt>
      <trkpt lat="46.69738" lon="-2.36504">
        <ele>17.9</ele>
        <time>2018-09-20T10:23:06.000Z</time>
      </trkpt>
      <trkpt lat="46.69737" lon="-2.36505">
        <ele>17.8</ele>
        <time>2018-09-20T10:23:07.000Z</time>
      </trkpt>
      <trkpt lat="46.69737" lon="-2.36505">
        <ele>17.7</ele>
        <time>2018-09-20T10:23:08.000Z</time>
      </trkpt>
      <trkpt lat="46.69737" lon="-2.36505">
        <ele>17.7</ele>
        <time>2018-09-20T10:23:09.000Z</time>
      </trkpt>
      <trkpt lat="46.69737" lon="-2.36506">
        <ele>17.6</ele>
        <time>2018-09-20T10:23:10.000Z</time>
      </trkpt>
      <trkpt lat="46.69737" lon="-2.36506">
        <ele>17.6</ele>
        <time>2018-09-20T10:23:11.000Z</time>
      </trkpt>
      <trkpt lat="46.69737" lon="-2.36505">
        <ele>17.7</ele>
        <time>2018-09-20T10:23:12.000Z</time>
      </trkpt>
      <trkpt lat="46.69737" lon="-2.36504">
        <ele>17.8</ele>
        <time>2018-09-20T10:23:13.000Z</time>
      </trkpt>
      <trkpt lat="46.69737" lon="-2.36503">
        <ele>18</ele>
        <time>2018-09-20T10:23:14.000Z</time>
      </trkpt>
      <trkpt lat="46.69737" lon="-2.36501">
        <ele>18.2</ele>
        <time>2018-09-20T10:23:15.000Z</time>
      </trkpt>
      <trkpt lat="46.69737" lon="-2.365">
        <ele>18.4</ele>
        <time>2018-09-20T10:23:16.000Z</time>
      </trkpt>
      <trkpt lat="46.69737" lon="-2.36498">
        <ele>18.5</ele>
        <time>2018-09-20T10:23:17.000Z</time>
      </trkpt>
      <trkpt lat="46.69737" lon="-2.36497">
        <ele>18.5</ele>
        <time>2018-09-20T10:23:18.000Z</time>
      </trkpt>
      <trkpt lat="46.69736" lon="-2.36495">
        <ele>18.6</ele>
        <time>2018-09-20T10:23:19.000Z</time>
      </trkpt>
      <trkpt lat="46.69735" lon="-2.36494">
        <ele>18.6</ele>
        <time>2018-09-20T10:23:20.000Z</time>
      </trkpt>
      <trkpt lat="46.69735" lon="-2.36492">
        <ele>18.6</ele>
        <time>2018-09-20T10:23:21.000Z</time>
      </trkpt>
      <trkpt lat="46.69734" lon="-2.36491">
        <ele>18.7</ele>
        <time>2018-09-20T10:23:22.000Z</time>
      </trkpt>
      <trkpt lat="46.69733" lon="-2.3649">
        <ele>18.7</ele>
        <time>2018-09-20T10:23:23.000Z</time>
      </trkpt>
      <trkpt lat="46.69732" lon="-2.36488">
        <ele>18.7</ele>
        <time>2018-09-20T10:23:24.000Z</time>
      </trkpt>
      <trkpt lat="46.69731" lon="-2.36487">
        <ele>18.8</ele>
        <time>2018-09-20T10:23:25.000Z</time>
      </trkpt>
      <trkpt lat="46.6973" lon="-2.36485">
        <ele>18.8</ele>
        <time>2018-09-20T10:23:26.000Z</time>
      </trkpt>
      <trkpt lat="46.69729" lon="-2.36484">
        <ele>18.8</ele>
        <time>2018-09-20T10:23:27.000Z</time>
      </trkpt>
      <trkpt lat="46.69728" lon="-2.36482">
        <ele>18.9</ele>
        <time>2018-09-20T10:23:28.000Z</time>
      </trkpt>
      <trkpt lat="46.69727" lon="-2.36481">
        <ele>18.9</ele>
        <time>2018-09-20T10:23:29.000Z</time>
      </trkpt>
      <trkpt lat="46.69726" lon="-2.3648">
        <ele>18.9</ele>
        <time>2018-09-20T10:23:30.000Z</time>
      </trkpt>
      <trkpt lat="46.69725" lon="-2.36479">
        <ele>18.9</ele>
        <time>2018-09-20T10:23:31.000Z</time>
      </trkpt>
      <trkpt lat="46.69725" lon="-2.36478">
        <ele>18.9</ele>
        <time>2018-09-20T10:23:32.000Z</time>
      </trkpt>
      <trkpt lat="46.69724" lon="-2.36477">
        <ele>18.9</ele>
        <time>2018-09-20T10:23:33.000Z</time>
      </trkpt>
      <trkpt lat="46.69723" lon="-2.36476">
        <ele>18.9</ele>
        <time>2018-09-20T10:23:34.000Z</time>
      </trkpt>
      <trkpt lat="46.69722" lon="-2.36476">
        <ele>18.9</ele>
        <time>2018-09-20T10:23:35.000Z</time>
      </trkpt>
      <trkpt lat="46.69721" lon="-2.36476">
        <ele>18.9</ele>
        <time>2018-09-20T10:23:36.000Z</time>
      </trkpt>
      <trkpt lat="46.6972" lon="-2.36476">
        <ele>18.8</ele>
        <time>2018-09-20T10:23:37.000Z</time>
      </trkpt>
      <trkpt lat="46.69719" lon="-2.36476">
        <ele>18.8</ele>
        <time>2018-09-20T10:23:38.000Z</time>
      </trkpt>
      <trkpt lat="46.69717" lon="-2.36476">
        <ele>18.7</ele>
        <time>2018-09-20T10:23:39.000Z</time>
      </trkpt>
      <trkpt lat="46.69716" lon="-2.36476">
        <ele>18.7</ele>
        <time>2018-09-20T10:23:40.000Z</time>
      </trkpt>
      <trkpt lat="46.69715" lon="-2.36476">
        <ele>18.6</ele>
        <time>2018-09-20T10:23:41.000Z</time>
      </trkpt>
      <trkpt lat="46.69714" lon="-2.36476">
        <ele>18.6</ele>
        <time>2018-09-20T10:23:42.000Z</time>
      </trkpt>
      <trkpt lat="46.69713" lon="-2.36476">
        <ele>18.5</ele>
        <time>2018-09-20T10:23:43.000Z</time>
      </trkpt>
      <trkpt lat="46.69712" lon="-2.36476">
        <ele>18.5</ele>
        <time>2018-09-20T10:23:44.000Z</time>
      </trkpt>
      <trkpt lat="46.69711" lon="-2.36477">
        <ele>18.4</ele>
        <time>2018-09-20T10:23:45.000Z</time>
      </trkpt>
      <trkpt lat="46.6971" lon="-2.36477">
        <ele>18.4</ele>
        <time>2018-09-20T10:23:46.000Z</time>
      </trkpt>
      <trkpt lat="46.69709" lon="-2.36477">
        <ele>18.3</ele>
        <time>2018-09-20T10:23:47.000Z</time>
      </trkpt>
      <trkpt lat="46.69709" lon="-2.36477">
        <ele>18.2</ele>
        <time>2018-09-20T10:23:48.000Z</time>
      </trkpt>
      <trkpt lat="46.69708" lon="-2.36477">
        <ele>18.2</ele>
        <time>2018-09-20T10:23:49.000Z</time>
      </trkpt>
      <trkpt lat="46.69707" lon="-2.36477">
        <ele>18.2</ele>
        <time>2018-09-20T10:23:50.000Z</time>
      </trkpt>
      <trkpt lat="46.69706" lon="-2.36477">
        <ele>18.1</ele>
        <time>2018-09-20T10:23:51.000Z</time>
      </trkpt>
      <trkpt lat="46.69705" lon="-2.36477">
        <ele>18.1</ele>
        <time>2018-09-20T10:23:52.000Z</time>
      </trkpt>
      <trkpt lat="46.69704" lon="-2.36477">
        <ele>18.1</ele>
        <time>2018-09-20T10:23:53.000Z</time>
      </trkpt>
      <trkpt lat="46.69703" lon="-2.36477">
        <ele>18</ele>
        <time>2018-09-20T10:23:54.000Z</time>
      </trkpt>
      <trkpt lat="46.69702" lon="-2.36477">
        <ele>18</ele>
        <time>2018-09-20T10:23:55.000Z</time>
      </trkpt>
      <trkpt lat="46.69702" lon="-2.36476">
        <ele>18</ele>
        <time>2018-09-20T10:23:56.000Z</time>
      </trkpt>
      <trkpt lat="46.69701" lon="-2.36476">
        <ele>18</ele>
        <time>2018-09-20T10:23:57.000Z</time>
      </trkpt>
      <trkpt lat="46.697" lon="-2.36476">
        <ele>17.9</ele>
        <time>2018-09-20T10:23:58.000Z</time>
      </trkpt>
      <trkpt lat="46.69699" lon="-2.36476">
        <ele>17.9</ele>
        <time>2018-09-20T10:23:59.000Z</time>
      </trkpt>
      <trkpt lat="46.69698" lon="-2.36475">
        <ele>17.9</ele>
        <time>2018-09-20T10:24:00.000Z</time>
      </trkpt>
      <trkpt lat="46.69698" lon="-2.36475">
        <ele>17.9</ele>
        <time>2018-09-20T10:24:01.000Z</time>
      </trkpt>
      <trkpt lat="46.69697" lon="-2.36474">
        <ele>17.9</ele>
        <time>2018-09-20T10:24:02.000Z</time>
      </trkpt>
      <trkpt lat="46.69696" lon="-2.36474">
        <ele>17.9</ele>
        <time>2018-09-20T10:24:03.000Z</time>
      </trkpt>
      <trkpt lat="46.69695" lon="-2.36473">
        <ele>17.9</ele>
        <time>2018-09-20T10:24:04.000Z</time>
      </trkpt>
      <trkpt lat="46.69694" lon="-2.36473">
        <ele>17.9</ele>
        <time>2018-09-20T10:24:05.000Z</time>
      </trkpt>
      <trkpt lat="46.69694" lon="-2.36472">
        <ele>17.8</ele>
        <time>2018-09-20T10:24:06.000Z</time>
      </trkpt>
      <trkpt lat="46.69693" lon="-2.36472">
        <ele>17.8</ele>
        <time>2018-09-20T10:24:07.000Z</time>
      </trkpt>
      <trkpt lat="46.69692" lon="-2.36471">
        <ele>17.8</ele>
        <time>2018-09-20T10:24:08.000Z</time>
      </trkpt>
      <trkpt lat="46.69691" lon="-2.36471">
        <ele>17.8</ele>
        <time>2018-09-20T10:24:09.000Z</time>
      </trkpt>
      <trkpt lat="46.69691" lon="-2.36471">
        <ele>17.8</ele>
        <time>2018-09-20T10:24:10.000Z</time>
      </trkpt>
      <trkpt lat="46.6969" lon="-2.3647">
        <ele>17.8</ele>
        <time>2018-09-20T10:24:11.000Z</time>
      </trkpt>
      <trkpt lat="46.69689" lon="-2.3647">
        <ele>17.8</ele>
        <time>2018-09-20T10:24:12.000Z</time>
      </trkpt>
      <trkpt lat="46.69689" lon="-2.36469">
        <ele>17.8</ele>
        <time>2018-09-20T10:24:13.000Z</time>
      </trkpt>
      <trkpt lat="46.69688" lon="-2.36469">
        <ele>17.8</ele>
        <time>2018-09-20T10:24:14.000Z</time>
      </trkpt>
      <trkpt lat="46.69687" lon="-2.36469">
        <ele>17.8</ele>
        <time>2018-09-20T10:24:15.000Z</time>
      </trkpt>
      <trkpt lat="46.69687" lon="-2.36468">
        <ele>17.8</ele>
        <time>2018-09-20T10:24:16.000Z</time>
      </trkpt>
      <trkpt lat="46.69687" lon="-2.36468">
        <ele>17.8</ele>
        <time>2018-09-20T10:24:17.000Z</time>
      </trkpt>
      <trkpt lat="46.69686" lon="-2.36468">
        <ele>17.8</ele>
        <time>2018-09-20T10:24:18.000Z</time>
      </trkpt>
      <trkpt lat="46.69686" lon="-2.36468">
        <ele>17.8</ele>
        <time>2018-09-20T10:24:19.000Z</time>
      </trkpt>
      <trkpt lat="46.69686" lon="-2.36468">
        <ele>17.8</ele>
        <time>2018-09-20T10:24:20.000Z</time>
      </trkpt>
      <trkpt lat="46.69686" lon="-2.36468">
        <ele>17.8</ele>
        <time>2018-09-20T10:24:21.000Z</time>
      </trkpt>
      <trkpt lat="46.69686" lon="-2.36468">
        <ele>17.8</ele>
        <time>2018-09-20T10:24:22.000Z</time>
      </trkpt>
      <trkpt lat="46.69686" lon="-2.36468">
        <ele>17.8</ele>
        <time>2018-09-20T10:24:23.000Z</time>
      </trkpt>
      <trkpt lat="46.69686" lon="-2.36468">
        <ele>17.8</ele>
        <time>2018-09-20T10:24:24.000Z</time>
      </trkpt>
      <trkpt lat="46.69686" lon="-2.36468">
        <ele>17.8</ele>
        <time>2018-09-20T10:24:25.000Z</time>
      </trkpt>
      <trkpt lat="46.69686" lon="-2.36468">
        <ele>17.8</ele>
        <time>2018-09-20T10:24:26.000Z</time>
      </trkpt>
      <trkpt lat="46.69686" lon="-2.36468">
        <ele>17.8</ele>
        <time>2018-09-20T10:24:27.000Z</time>
      </trkpt>
      <trkpt lat="46.69686" lon="-2.36468">
        <ele>17.8</ele>
        <time>2018-09-20T10:24:28.000Z</time>
      </trkpt>
      <trkpt lat="46.69686" lon="-2.36468">
        <ele>17.8</ele>
        <time>2018-09-20T10:24:29.000Z</time>
      </trkpt>
      <trkpt lat="46.69686" lon="-2.36468">
        <ele>17.8</ele>
        <time>2018-09-20T10:24:30.000Z</time>
      </trkpt>
      <trkpt lat="46.69685" lon="-2.36468">
        <ele>17.7</ele>
        <time>2018-09-20T10:24:31.000Z</time>
      </trkpt>
      <trkpt lat="46.69685" lon="-2.36468">
        <ele>17.7</ele>
        <time>2018-09-20T10:24:32.000Z</time>
      </trkpt>
      <trkpt lat="46.69684" lon="-2.36467">
        <ele>17.7</ele>
        <time>2018-09-20T10:24:33.000Z</time>
      </trkpt>
      <trkpt lat="46.69684" lon="-2.36467">
        <ele>17.7</ele>
        <time>2018-09-20T10:24:34.000Z</time>
      </trkpt>
      <trkpt lat="46.69683" lon="-2.36467">
        <ele>17.7</ele>
        <time>2018-09-20T10:24:35.000Z</time>
      </trkpt>
      <trkpt lat="46.69682" lon="-2.36466">
        <ele>17.7</ele>
        <time>2018-09-20T10:24:36.000Z</time>
      </trkpt>
      <trkpt lat="46.69681" lon="-2.36466">
        <ele>17.7</ele>
        <time>2018-09-20T10:24:37.000Z</time>
      </trkpt>
      <trkpt lat="46.6968" lon="-2.36465">
        <ele>17.7</ele>
        <time>2018-09-20T10:24:38.000Z</time>
      </trkpt>
      <trkpt lat="46.69679" lon="-2.36464">
        <ele>17.7</ele>
        <time>2018-09-20T10:24:39.000Z</time>
      </trkpt>
      <trkpt lat="46.69677" lon="-2.36464">
        <ele>17.6</ele>
        <time>2018-09-20T10:24:40.000Z</time>
      </trkpt>
      <trkpt lat="46.69676" lon="-2.36463">
        <ele>17.6</ele>
        <time>2018-09-20T10:24:41.000Z</time>
      </trkpt>
      <trkpt lat="46.69675" lon="-2.36462">
        <ele>17.6</ele>
        <time>2018-09-20T10:24:42.000Z</time>
      </trkpt>
      <trkpt lat="46.69673" lon="-2.36462">
        <ele>17.6</ele>
        <time>2018-09-20T10:24:43.000Z</time>
      </trkpt>
      <trkpt lat="46.69672" lon="-2.36461">
        <ele>17.6</ele>
        <time>2018-09-20T10:24:44.000Z</time>
      </trkpt>
      <trkpt lat="46.69671" lon="-2.3646">
        <ele>17.6</ele>
        <time>2018-09-20T10:24:45.000Z</time>
      </trkpt>
      <trkpt lat="46.6967" lon="-2.3646">
        <ele>17.5</ele>
        <time>2018-09-20T10:24:46.000Z</time>
      </trkpt>
      <trkpt lat="46.69669" lon="-2.36459">
        <ele>17.5</ele>
        <time>2018-09-20T10:24:47.000Z</time>
      </trkpt>
      <trkpt lat="46.69667" lon="-2.36459">
        <ele>17.5</ele>
        <time>2018-09-20T10:24:48.000Z</time>
      </trkpt>
      <trkpt lat="46.69666" lon="-2.36458">
        <ele>17.5</ele>
        <time>2018-09-20T10:24:49.000Z</time>
      </trkpt>
      <trkpt lat="46.69665" lon="-2.36458">
        <ele>17.5</ele>
        <time>2018-09-20T10:24:50.000Z</time>
      </trkpt>
      <trkpt lat="46.69664" lon="-2.36458">
        <ele>17.5</ele>
        <time>2018-09-20T10:24:51.000Z</time>
      </trkpt>
      <trkpt lat="46.69663" lon="-2.36457">
        <ele>17.5</ele>
        <time>2018-09-20T10:24:52.000Z</time>
      </trkpt>
      <trkpt lat="46.69662" lon="-2.36457">
        <ele>17.6</ele>
        <time>2018-09-20T10:24:53.000Z</time>
      </trkpt>
      <trkpt lat="46.69661" lon="-2.36457">
        <ele>17.6</ele>
        <time>2018-09-20T10:24:54.000Z</time>
      </trkpt>
      <trkpt lat="46.6966" lon="-2.36457">
        <ele>17.6</ele>
        <time>2018-09-20T10:24:55.000Z</time>
      </trkpt>
      <trkpt lat="46.69658" lon="-2.36457">
        <ele>17.5</ele>
        <time>2018-09-20T10:24:56.000Z</time>
      </trkpt>
      <trkpt lat="46.69657" lon="-2.36457">
        <ele>17.5</ele>
        <time>2018-09-20T10:24:57.000Z</time>
      </trkpt>
      <trkpt lat="46.69655" lon="-2.36457">
        <ele>17.5</ele>
        <time>2018-09-20T10:24:58.000Z</time>
      </trkpt>
      <trkpt lat="46.69653" lon="-2.36457">
        <ele>17.5</ele>
        <time>2018-09-20T10:24:59.000Z</time>
      </trkpt>
      <trkpt lat="46.69652" lon="-2.36458">
        <ele>17.5</ele>
        <time>2018-09-20T10:25:00.000Z</time>
      </trkpt>
      <trkpt lat="46.6965" lon="-2.36458">
        <ele>17.4</ele>
        <time>2018-09-20T10:25:01.000Z</time>
      </trkpt>
      <trkpt lat="46.69649" lon="-2.36458">
        <ele>17.4</ele>
        <time>2018-09-20T10:25:02.000Z</time>
      </trkpt>
      <trkpt lat="46.69648" lon="-2.36458">
        <ele>17.4</ele>
        <time>2018-09-20T10:25:03.000Z</time>
      </trkpt>
      <trkpt lat="46.69647" lon="-2.36458">
        <ele>17.4</ele>
        <time>2018-09-20T10:25:04.000Z</time>
      </trkpt>
      <trkpt lat="46.69646" lon="-2.36458">
        <ele>17.4</ele>
        <time>2018-09-20T10:25:05.000Z</time>
      </trkpt>
      <trkpt lat="46.69645" lon="-2.36458">
        <ele>17.4</ele>
        <time>2018-09-20T10:25:06.000Z</time>
      </trkpt>
      <trkpt lat="46.69644" lon="-2.36458">
        <ele>17.4</ele>
        <time>2018-09-20T10:25:07.000Z</time>
      </trkpt>
      <trkpt lat="46.69643" lon="-2.36458">
        <ele>17.4</ele>
        <time>2018-09-20T10:25:08.000Z</time>
      </trkpt>
      <trkpt lat="46.69642" lon="-2.36458">
        <ele>17.4</ele>
        <time>2018-09-20T10:25:09.000Z</time>
      </trkpt>
      <trkpt lat="46.69641" lon="-2.36458">
        <ele>17.4</ele>
        <time>2018-09-20T10:25:10.000Z</time>
      </trkpt>
      <trkpt lat="46.6964" lon="-2.36457">
        <ele>17.4</ele>
        <time>2018-09-20T10:25:11.000Z</time>
      </trkpt>
      <trkpt lat="46.6964" lon="-2.36456">
        <ele>17.5</ele>
        <time>2018-09-20T10:25:12.000Z</time>
      </trkpt>
      <trkpt lat="46.69639" lon="-2.36454">
        <ele>17.6</ele>
        <time>2018-09-20T10:25:13.000Z</time>
      </trkpt>
      <trkpt lat="46.69639" lon="-2.36452">
        <ele>17.7</ele>
        <time>2018-09-20T10:25:14.000Z</time>
      </trkpt>
      <trkpt lat="46.69638" lon="-2.3645">
        <ele>17.8</ele>
        <time>2018-09-20T10:25:15.000Z</time>
      </trkpt>
      <trkpt lat="46.69638" lon="-2.36449">
        <ele>17.9</ele>
        <time>2018-09-20T10:25:16.000Z</time>
      </trkpt>
      <trkpt lat="46.69637" lon="-2.36448">
        <ele>17.9</ele>
        <time>2018-09-20T10:25:17.000Z</time>
      </trkpt>
      <trkpt lat="46.69636" lon="-2.36447">
        <ele>17.9</ele>
        <time>2018-09-20T10:25:18.000Z</time>
      </trkpt>
      <trkpt lat="46.69635" lon="-2.36447">
        <ele>18</ele>
        <time>2018-09-20T10:25:19.000Z</time>
      </trkpt>
      <trkpt lat="46.69634" lon="-2.36446">
        <ele>18</ele>
        <time>2018-09-20T10:25:20.000Z</time>
      </trkpt>
      <trkpt lat="46.69633" lon="-2.36446">
        <ele>18</ele>
        <time>2018-09-20T10:25:21.000Z</time>
      </trkpt>
      <trkpt lat="46.69633" lon="-2.36446">
        <ele>18</ele>
        <time>2018-09-20T10:25:22.000Z</time>
      </trkpt>
      <trkpt lat="46.69632" lon="-2.36446">
        <ele>18</ele>
        <time>2018-09-20T10:25:23.000Z</time>
      </trkpt>
      <trkpt lat="46.69631" lon="-2.36446">
        <ele>18</ele>
        <time>2018-09-20T10:25:24.000Z</time>
      </trkpt>
      <trkpt lat="46.69631" lon="-2.36445">
        <ele>18</ele>
        <time>2018-09-20T10:25:25.000Z</time>
      </trkpt>
      <trkpt lat="46.6963" lon="-2.36445">
        <ele>18</ele>
        <time>2018-09-20T10:25:26.000Z</time>
      </trkpt>
      <trkpt lat="46.6963" lon="-2.36445">
        <ele>18</ele>
        <time>2018-09-20T10:25:27.000Z</time>
      </trkpt>
      <trkpt lat="46.69629" lon="-2.36445">
        <ele>18</ele>
        <time>2018-09-20T10:25:28.000Z</time>
      </trkpt>
      <trkpt lat="46.69628" lon="-2.36444">
        <ele>18</ele>
        <time>2018-09-20T10:25:29.000Z</time>
      </trkpt>
      <trkpt lat="46.69627" lon="-2.36444">
        <ele>18</ele>
        <time>2018-09-20T10:25:30.000Z</time>
      </trkpt>
      <trkpt lat="46.69626" lon="-2.36444">
        <ele>18.1</ele>
        <time>2018-09-20T10:25:31.000Z</time>
      </trkpt>
      <trkpt lat="46.69625" lon="-2.36443">
        <ele>18.1</ele>
        <time>2018-09-20T10:25:32.000Z</time>
      </trkpt>
      <trkpt lat="46.69624" lon="-2.36443">
        <ele>18.1</ele>
        <time>2018-09-20T10:25:33.000Z</time>
      </trkpt>
      <trkpt lat="46.69623" lon="-2.36442">
        <ele>18.1</ele>
        <time>2018-09-20T10:25:34.000Z</time>
      </trkpt>
      <trkpt lat="46.69622" lon="-2.36442">
        <ele>18.1</ele>
        <time>2018-09-20T10:25:35.000Z</time>
      </trkpt>
      <trkpt lat="46.69621" lon="-2.36442">
        <ele>18.1</ele>
        <time>2018-09-20T10:25:36.000Z</time>
      </trkpt>
      <trkpt lat="46.6962" lon="-2.36441">
        <ele>18.1</ele>
        <time>2018-09-20T10:25:37.000Z</time>
      </trkpt>
      <trkpt lat="46.69619" lon="-2.36441">
        <ele>18.2</ele>
        <time>2018-09-20T10:25:38.000Z</time>
      </trkpt>
      <trkpt lat="46.69618" lon="-2.3644">
        <ele>18.2</ele>
        <time>2018-09-20T10:25:39.000Z</time>
      </trkpt>
      <trkpt lat="46.69617" lon="-2.36439">
        <ele>18.2</ele>
        <time>2018-09-20T10:25:40.000Z</time>
      </trkpt>
      <trkpt lat="46.69616" lon="-2.36439">
        <ele>18.2</ele>
        <time>2018-09-20T10:25:41.000Z</time>
      </trkpt>
      <trkpt lat="46.69615" lon="-2.36438">
        <ele>18.3</ele>
        <time>2018-09-20T10:25:42.000Z</time>
      </trkpt>
      <trkpt lat="46.69614" lon="-2.36438">
        <ele>18.3</ele>
        <time>2018-09-20T10:25:43.000Z</time>
      </trkpt>
      <trkpt lat="46.69613" lon="-2.36437">
        <ele>18.3</ele>
        <time>2018-09-20T10:25:44.000Z</time>
      </trkpt>
      <trkpt lat="46.69612" lon="-2.36436">
        <ele>18.3</ele>
        <time>2018-09-20T10:25:45.000Z</time>
      </trkpt>
      <trkpt lat="46.69611" lon="-2.36435">
        <ele>18.4</ele>
        <time>2018-09-20T10:25:46.000Z</time>
      </trkpt>
      <trkpt lat="46.6961" lon="-2.36435">
        <ele>18.4</ele>
        <time>2018-09-20T10:25:47.000Z</time>
      </trkpt>
      <trkpt lat="46.69609" lon="-2.36434">
        <ele>18.4</ele>
        <time>2018-09-20T10:25:48.000Z</time>
      </trkpt>
      <trkpt lat="46.69608" lon="-2.36433">
        <ele>18.4</ele>
        <time>2018-09-20T10:25:49.000Z</time>
      </trkpt>
      <trkpt lat="46.69607" lon="-2.36433">
        <ele>18.5</ele>
        <time>2018-09-20T10:25:50.000Z</time>
      </trkpt>
      <trkpt lat="46.69606" lon="-2.36432">
        <ele>18.5</ele>
        <time>2018-09-20T10:25:51.000Z</time>
      </trkpt>
      <trkpt lat="46.69606" lon="-2.36432">
        <ele>18.5</ele>
        <time>2018-09-20T10:25:52.000Z</time>
      </trkpt>
      <trkpt lat="46.69605" lon="-2.36431">
        <ele>18.5</ele>
        <time>2018-09-20T10:25:53.000Z</time>
      </trkpt>
      <trkpt lat="46.69604" lon="-2.36431">
        <ele>18.5</ele>
        <time>2018-09-20T10:25:54.000Z</time>
      </trkpt>
      <trkpt lat="46.69603" lon="-2.36431">
        <ele>18.5</ele>
        <time>2018-09-20T10:25:55.000Z</time>
      </trkpt>
      <trkpt lat="46.69603" lon="-2.3643">
        <ele>18.5</ele>
        <time>2018-09-20T10:25:56.000Z</time>
      </trkpt>
      <trkpt lat="46.69602" lon="-2.3643">
        <ele>18.5</ele>
        <time>2018-09-20T10:25:57.000Z</time>
      </trkpt>
      <trkpt lat="46.69602" lon="-2.3643">
        <ele>18.5</ele>
        <time>2018-09-20T10:25:58.000Z</time>
      </trkpt>
      <trkpt lat="46.69601" lon="-2.3643">
        <ele>18.5</ele>
        <time>2018-09-20T10:25:59.000Z</time>
      </trkpt>
      <trkpt lat="46.69601" lon="-2.3643">
        <ele>18.5</ele>
        <time>2018-09-20T10:26:00.000Z</time>
      </trkpt>
      <trkpt lat="46.69601" lon="-2.3643">
        <ele>18.5</ele>
        <time>2018-09-20T10:26:01.000Z</time>
      </trkpt>
      <trkpt lat="46.69601" lon="-2.3643">
        <ele>18.5</ele>
        <time>2018-09-20T10:26:02.000Z</time>
      </trkpt>
      <trkpt lat="46.69601" lon="-2.3643">
        <ele>18.5</ele>
        <time>2018-09-20T10:26:03.000Z</time>
      </trkpt>
      <trkpt lat="46.69601" lon="-2.3643">
        <ele>18.5</ele>
        <time>2018-09-20T10:26:04.000Z</time>
      </trkpt>
      <trkpt lat="46.69601" lon="-2.3643">
        <ele>18.5</ele>
        <time>2018-09-20T10:26:05.000Z</time>
      </trkpt>
      <trkpt lat="46.69601" lon="-2.3643">
        <ele>18.5</ele>
        <time>2018-09-20T10:26:06.000Z</time>
      </trkpt>
      <trkpt lat="46.696" lon="-2.3643">
        <ele>18.5</ele>
        <time>2018-09-20T10:26:07.000Z</time>
      </trkpt>
      <trkpt lat="46.69599" lon="-2.3643">
        <ele>18.5</ele>
        <time>2018-09-20T10:26:08.000Z</time>
      </trkpt>
      <trkpt lat="46.69598" lon="-2.3643">
        <ele>18.5</ele>
        <time>2018-09-20T10:26:09.000Z</time>
      </trkpt>
      <trkpt lat="46.69597" lon="-2.3643">
        <ele>18.5</ele>
        <time>2018-09-20T10:26:10.000Z</time>
      </trkpt>
      <trkpt lat="46.69596" lon="-2.3643">
        <ele>18.5</ele>
        <time>2018-09-20T10:26:11.000Z</time>
      </trkpt>
      <trkpt lat="46.69595" lon="-2.3643">
        <ele>18.5</ele>
        <time>2018-09-20T10:26:12.000Z</time>
      </trkpt>
      <trkpt lat="46.69594" lon="-2.3643">
        <ele>18.5</ele>
        <time>2018-09-20T10:26:13.000Z</time>
      </trkpt>
      <trkpt lat="46.69593" lon="-2.3643">
        <ele>18.5</ele>
        <time>2018-09-20T10:26:14.000Z</time>
      </trkpt>
      <trkpt lat="46.69592" lon="-2.3643">
        <ele>18.5</ele>
        <time>2018-09-20T10:26:15.000Z</time>
      </trkpt>
      <trkpt lat="46.69591" lon="-2.3643">
        <ele>18.4</ele>
        <time>2018-09-20T10:26:16.000Z</time>
      </trkpt>
      <trkpt lat="46.6959" lon="-2.36431">
        <ele>18.4</ele>
        <time>2018-09-20T10:26:17.000Z</time>
      </trkpt>
      <trkpt lat="46.69589" lon="-2.36431">
        <ele>18.4</ele>
        <time>2018-09-20T10:26:18.000Z</time>
      </trkpt>
      <trkpt lat="46.69588" lon="-2.36432">
        <ele>18.3</ele>
        <time>2018-09-20T10:26:19.000Z</time>
      </trkpt>
      <trkpt lat="46.69587" lon="-2.36432">
        <ele>18.3</ele>
        <time>2018-09-20T10:26:20.000Z</time>
      </trkpt>
      <trkpt lat="46.69586" lon="-2.36433">
        <ele>18.2</ele>
        <time>2018-09-20T10:26:21.000Z</time>
      </trkpt>
      <trkpt lat="46.69585" lon="-2.36434">
        <ele>18.2</ele>
        <time>2018-09-20T10:26:22.000Z</time>
      </trkpt>
      <trkpt lat="46.69584" lon="-2.36435">
        <ele>18.1</ele>
        <time>2018-09-20T10:26:23.000Z</time>
      </trkpt>
      <trkpt lat="46.69584" lon="-2.36435">
        <ele>18.1</ele>
        <time>2018-09-20T10:26:24.000Z</time>
      </trkpt>
      <trkpt lat="46.69583" lon="-2.36436">
        <ele>18</ele>
        <time>2018-09-20T10:26:25.000Z</time>
      </trkpt>
      <trkpt lat="46.69582" lon="-2.36437">
        <ele>17.9</ele>
        <time>2018-09-20T10:26:26.000Z</time>
      </trkpt>
      <trkpt lat="46.69582" lon="-2.36437">
        <ele>17.8</ele>
        <time>2018-09-20T10:26:27.000Z</time>
      </trkpt>
      <trkpt lat="46.69581" lon="-2.36437">
        <ele>17.8</ele>
        <time>2018-09-20T10:26:28.000Z</time>
      </trkpt>
      <trkpt lat="46.69581" lon="-2.36438">
        <ele>17.7</ele>
        <time>2018-09-20T10:26:29.000Z</time>
      </trkpt>
      <trkpt lat="46.69581" lon="-2.36438">
        <ele>17.6</ele>
        <time>2018-09-20T10:26:30.000Z</time>
      </trkpt>
      <trkpt lat="46.6958" lon="-2.36438">
        <ele>17.6</ele>
        <time>2018-09-20T10:26:31.000Z</time>
      </trkpt>
      <trkpt lat="46.6958" lon="-2.36439">
        <ele>17.5</ele>
        <time>2018-09-20T10:26:32.000Z</time>
      </trkpt>
      <trkpt lat="46.69579" lon="-2.36439">
        <ele>17.4</ele>
        <time>2018-09-20T10:26:33.000Z</time>
      </trkpt>
      <trkpt lat="46.69579" lon="-2.3644">
        <ele>17.3</ele>
        <time>2018-09-20T10:26:34.000Z</time>
      </trkpt>
      <trkpt lat="46.69578" lon="-2.3644">
        <ele>17.2</ele>
        <time>2018-09-20T10:26:35.000Z</time>
      </trkpt>
      <trkpt lat="46.69578" lon="-2.36441">
        <ele>17.2</ele>
        <time>2018-09-20T10:26:36.000Z</time>
      </trkpt>
      <trkpt lat="46.69577" lon="-2.36441">
        <ele>17.1</ele>
        <time>2018-09-20T10:26:37.000Z</time>
      </trkpt>
      <trkpt lat="46.69577" lon="-2.36441">
        <ele>17</ele>
        <time>2018-09-20T10:26:38.000Z</time>
      </trkpt>
      <trkpt lat="46.69577" lon="-2.36442">
        <ele>17</ele>
        <time>2018-09-20T10:26:39.000Z</time>
      </trkpt>
      <trkpt lat="46.69577" lon="-2.36442">
        <ele>16.9</ele>
        <time>2018-09-20T10:26:40.000Z</time>
      </trkpt>
      <trkpt lat="46.69576" lon="-2.36442">
        <ele>16.9</ele>
        <time>2018-09-20T10:26:41.000Z</time>
      </trkpt>
      <trkpt lat="46.69576" lon="-2.36442">
        <ele>16.9</ele>
        <time>2018-09-20T10:26:42.000Z</time>
      </trkpt>
      <trkpt lat="46.69576" lon="-2.36442">
        <ele>16.9</ele>
        <time>2018-09-20T10:26:43.000Z</time>
      </trkpt>
      <trkpt lat="46.69576" lon="-2.36442">
        <ele>16.9</ele>
        <time>2018-09-20T10:26:44.000Z</time>
      </trkpt>
      <trkpt lat="46.69576" lon="-2.36442">
        <ele>16.8</ele>
        <time>2018-09-20T10:26:45.000Z</time>
      </trkpt>
      <trkpt lat="46.69576" lon="-2.36442">
        <ele>16.8</ele>
        <time>2018-09-20T10:26:46.000Z</time>
      </trkpt>
      <trkpt lat="46.69576" lon="-2.36442">
        <ele>16.8</ele>
        <time>2018-09-20T10:26:47.000Z</time>
      </trkpt>
      <trkpt lat="46.69576" lon="-2.36442">
        <ele>16.8</ele>
        <time>2018-09-20T10:26:48.000Z</time>
      </trkpt>
      <trkpt lat="46.69576" lon="-2.36442">
        <ele>16.8</ele>
        <time>2018-09-20T10:26:49.000Z</time>
      </trkpt>
      <trkpt lat="46.69576" lon="-2.36442">
        <ele>16.8</ele>
        <time>2018-09-20T10:26:50.000Z</time>
      </trkpt>
      <trkpt lat="46.69576" lon="-2.36442">
        <ele>16.8</ele>
        <time>2018-09-20T10:26:51.000Z</time>
      </trkpt>
      <trkpt lat="46.69576" lon="-2.36442">
        <ele>16.8</ele>
        <time>2018-09-20T10:26:52.000Z</time>
      </trkpt>
      <trkpt lat="46.69576" lon="-2.36442">
        <ele>16.8</ele>
        <time>2018-09-20T10:26:53.000Z</time>
      </trkpt>
      <trkpt lat="46.69576" lon="-2.36442">
        <ele>16.8</ele>
        <time>2018-09-20T10:26:54.000Z</time>
      </trkpt>
      <trkpt lat="46.69576" lon="-2.36442">
        <ele>16.8</ele>
        <time>2018-09-20T10:26:55.000Z</time>
      </trkpt>
      <trkpt lat="46.69576" lon="-2.36442">
        <ele>16.8</ele>
        <time>2018-09-20T10:26:56.000Z</time>
      </trkpt>
      <trkpt lat="46.69576" lon="-2.36442">
        <ele>16.8</ele>
        <time>2018-09-20T10:26:57.000Z</time>
      </trkpt>
      <trkpt lat="46.69576" lon="-2.36442">
        <ele>16.8</ele>
        <time>2018-09-20T10:26:58.000Z</time>
      </trkpt>
      <trkpt lat="46.69576" lon="-2.36442">
        <ele>16.8</ele>
        <time>2018-09-20T10:26:59.000Z</time>
      </trkpt>
      <trkpt lat="46.69576" lon="-2.36442">
        <ele>16.8</ele>
        <time>2018-09-20T10:27:00.000Z</time>
      </trkpt>
      <trkpt lat="46.69576" lon="-2.36443">
        <ele>16.8</ele>
        <time>2018-09-20T10:27:01.000Z</time>
      </trkpt>
      <trkpt lat="46.69576" lon="-2.36443">
        <ele>16.8</ele>
        <time>2018-09-20T10:27:02.000Z</time>
      </trkpt>
      <trkpt lat="46.69575" lon="-2.36443">
        <ele>16.7</ele>
        <time>2018-09-20T10:27:03.000Z</time>
      </trkpt>
      <trkpt lat="46.69575" lon="-2.36444">
        <ele>16.7</ele>
        <time>2018-09-20T10:27:04.000Z</time>
      </trkpt>
      <trkpt lat="46.69574" lon="-2.36444">
        <ele>16.6</ele>
        <time>2018-09-20T10:27:05.000Z</time>
      </trkpt>
      <trkpt lat="46.69574" lon="-2.36444">
        <ele>16.5</ele>
        <time>2018-09-20T10:27:06.000Z</time>
      </trkpt>
      <trkpt lat="46.69574" lon="-2.36444">
        <ele>16.5</ele>
        <time>2018-09-20T10:27:07.000Z</time>
      </trkpt>
      <trkpt lat="46.69574" lon="-2.36445">
        <ele>16.5</ele>
        <time>2018-09-20T10:27:08.000Z</time>
      </trkpt>
      <trkpt lat="46.69574" lon="-2.36445">
        <ele>16.5</ele>
        <time>2018-09-20T10:27:09.000Z</time>
      </trkpt>
      <trkpt lat="46.69574" lon="-2.36445">
        <ele>16.5</ele>
        <time>2018-09-20T10:27:10.000Z</time>
      </trkpt>
      <trkpt lat="46.69574" lon="-2.36445">
        <ele>16.5</ele>
        <time>2018-09-20T10:27:11.000Z</time>
      </trkpt>
      <trkpt lat="46.69574" lon="-2.36445">
        <ele>16.5</ele>
        <time>2018-09-20T10:27:12.000Z</time>
      </trkpt>
      <trkpt lat="46.69574" lon="-2.36445">
        <ele>16.5</ele>
        <time>2018-09-20T10:27:13.000Z</time>
      </trkpt>
      <trkpt lat="46.69574" lon="-2.36445">
        <ele>16.5</ele>
        <time>2018-09-20T10:27:14.000Z</time>
      </trkpt>
      <trkpt lat="46.69574" lon="-2.36445">
        <ele>16.5</ele>
        <time>2018-09-20T10:27:15.000Z</time>
      </trkpt>
      <trkpt lat="46.69574" lon="-2.36445">
        <ele>16.5</ele>
        <time>2018-09-20T10:27:16.000Z</time>
      </trkpt>
      <trkpt lat="46.69574" lon="-2.36445">
        <ele>16.5</ele>
        <time>2018-09-20T10:27:17.000Z</time>
      </trkpt>
      <trkpt lat="46.69574" lon="-2.36445">
        <ele>16.5</ele>
        <time>2018-09-20T10:27:18.000Z</time>
      </trkpt>
      <trkpt lat="46.69574" lon="-2.36445">
        <ele>16.5</ele>
        <time>2018-09-20T10:27:19.000Z</time>
      </trkpt>
      <trkpt lat="46.69574" lon="-2.36445">
        <ele>16.5</ele>
        <time>2018-09-20T10:27:20.000Z</time>
      </trkpt>
      <trkpt lat="46.69574" lon="-2.36445">
        <ele>16.5</ele>
        <time>2018-09-20T10:27:21.000Z</time>
      </trkpt>
      <trkpt lat="46.69574" lon="-2.36445">
        <ele>16.5</ele>
        <time>2018-09-20T10:27:22.000Z</time>
      </trkpt>
      <trkpt lat="46.69574" lon="-2.36445">
        <ele>16.5</ele>
        <time>2018-09-20T10:27:23.000Z</time>
      </trkpt>
      <trkpt lat="46.69574" lon="-2.36445">
        <ele>16.5</ele>
        <time>2018-09-20T10:27:24.000Z</time>
      </trkpt>
      <trkpt lat="46.69574" lon="-2.36445">
        <ele>16.5</ele>
        <time>2018-09-20T10:27:25.000Z</time>
      </trkpt>
      <trkpt lat="46.69574" lon="-2.36445">
        <ele>16.5</ele>
        <time>2018-09-20T10:27:26.000Z</time>
      </trkpt>
      <trkpt lat="46.69574" lon="-2.36445">
        <ele>16.5</ele>
        <time>2018-09-20T10:27:27.000Z</time>
      </trkpt>
      <trkpt lat="46.69574" lon="-2.36445">
        <ele>16.5</ele>
        <time>2018-09-20T10:27:28.000Z</time>
      </trkpt>
      <trkpt lat="46.69574" lon="-2.36445">
        <ele>16.5</ele>
        <time>2018-09-20T10:27:29.000Z</time>
      </trkpt>
      <trkpt lat="46.69574" lon="-2.36445">
        <ele>16.5</ele>
        <time>2018-09-20T10:27:30.000Z</time>
      </trkpt>
      <trkpt lat="46.69574" lon="-2.36445">
        <ele>16.5</ele>
        <time>2018-09-20T10:27:31.000Z</time>
      </trkpt>
      <trkpt lat="46.69574" lon="-2.36445">
        <ele>16.5</ele>
        <time>2018-09-20T10:27:32.000Z</time>
      </trkpt>
      <trkpt lat="46.69574" lon="-2.36445">
        <ele>16.5</ele>
        <time>2018-09-20T10:27:33.000Z</time>
      </trkpt>
      <trkpt lat="46.69574" lon="-2.36445">
        <ele>16.5</ele>
        <time>2018-09-20T10:27:34.000Z</time>
      </trkpt>
      <trkpt lat="46.69574" lon="-2.36445">
        <ele>16.5</ele>
        <time>2018-09-20T10:27:35.000Z</time>
      </trkpt>
      <trkpt lat="46.69574" lon="-2.36445">
        <ele>16.5</ele>
        <time>2018-09-20T10:27:36.000Z</time>
      </trkpt>
      <trkpt lat="46.69574" lon="-2.36445">
        <ele>16.5</ele>
        <time>2018-09-20T10:27:37.000Z</time>
      </trkpt>
      <trkpt lat="46.69574" lon="-2.36445">
        <ele>16.5</ele>
        <time>2018-09-20T10:27:38.000Z</time>
      </trkpt>
      <trkpt lat="46.69574" lon="-2.36445">
        <ele>16.5</ele>
        <time>2018-09-20T10:27:39.000Z</time>
      </trkpt>
      <trkpt lat="46.69574" lon="-2.36445">
        <ele>16.5</ele>
        <time>2018-09-20T10:27:40.000Z</time>
      </trkpt>
      <trkpt lat="46.69574" lon="-2.36445">
        <ele>16.5</ele>
        <time>2018-09-20T10:27:41.000Z</time>
      </trkpt>
      <trkpt lat="46.69574" lon="-2.36445">
        <ele>16.5</ele>
        <time>2018-09-20T10:27:42.000Z</time>
      </trkpt>
      <trkpt lat="46.69574" lon="-2.36445">
        <ele>16.5</ele>
        <time>2018-09-20T10:27:43.000Z</time>
      </trkpt>
      <trkpt lat="46.69574" lon="-2.36445">
        <ele>16.5</ele>
        <time>2018-09-20T10:27:44.000Z</time>
      </trkpt>
      <trkpt lat="46.69574" lon="-2.36445">
        <ele>16.5</ele>
        <time>2018-09-20T10:27:45.000Z</time>
      </trkpt>
      <trkpt lat="46.69574" lon="-2.36445">
        <ele>16.5</ele>
        <time>2018-09-20T10:27:46.000Z</time>
      </trkpt>
      <trkpt lat="46.69574" lon="-2.36445">
        <ele>16.5</ele>
        <time>2018-09-20T10:27:47.000Z</time>
      </trkpt>
      <trkpt lat="46.69574" lon="-2.36445">
        <ele>16.5</ele>
        <time>2018-09-20T10:27:48.000Z</time>
      </trkpt>
      <trkpt lat="46.69574" lon="-2.36445">
        <ele>16.5</ele>
        <time>2018-09-20T10:27:49.000Z</time>
      </trkpt>
      <trkpt lat="46.69574" lon="-2.36445">
        <ele>16.5</ele>
        <time>2018-09-20T10:27:50.000Z</time>
      </trkpt>
      <trkpt lat="46.69574" lon="-2.36445">
        <ele>16.5</ele>
        <time>2018-09-20T10:27:51.000Z</time>
      </trkpt>
      <trkpt lat="46.69574" lon="-2.36445">
        <ele>16.5</ele>
        <time>2018-09-20T10:27:52.000Z</time>
      </trkpt>
      <trkpt lat="46.69574" lon="-2.36445">
        <ele>16.5</ele>
        <time>2018-09-20T10:27:53.000Z</time>
      </trkpt>
      <trkpt lat="46.69574" lon="-2.36445">
        <ele>16.5</ele>
        <time>2018-09-20T10:27:54.000Z</time>
      </trkpt>
      <trkpt lat="46.69574" lon="-2.36445">
        <ele>16.5</ele>
        <time>2018-09-20T10:27:55.000Z</time>
      </trkpt>
      <trkpt lat="46.69574" lon="-2.36445">
        <ele>16.5</ele>
        <time>2018-09-20T10:27:56.000Z</time>
      </trkpt>
      <trkpt lat="46.69574" lon="-2.36445">
        <ele>16.5</ele>
        <time>2018-09-20T10:27:57.000Z</time>
      </trkpt>
      <trkpt lat="46.69574" lon="-2.36445">
        <ele>16.5</ele>
        <time>2018-09-20T10:27:58.000Z</time>
      </trkpt>
      <trkpt lat="46.69574" lon="-2.36445">
        <ele>16.5</ele>
        <time>2018-09-20T10:27:59.000Z</time>
      </trkpt>
      <trkpt lat="46.69574" lon="-2.36445">
        <ele>16.5</ele>
        <time>2018-09-20T10:28:00.000Z</time>
      </trkpt>
      <trkpt lat="46.69574" lon="-2.36445">
        <ele>16.5</ele>
        <time>2018-09-20T10:28:01.000Z</time>
      </trkpt>
      <trkpt lat="46.69574" lon="-2.36445">
        <ele>16.5</ele>
        <time>2018-09-20T10:28:02.000Z</time>
      </trkpt>
      <trkpt lat="46.69574" lon="-2.36445">
        <ele>16.5</ele>
        <time>2018-09-20T10:28:03.000Z</time>
      </trkpt>
      <trkpt lat="46.69574" lon="-2.36445">
        <ele>16.5</ele>
        <time>2018-09-20T10:28:04.000Z</time>
      </trkpt>
      <trkpt lat="46.69574" lon="-2.36445">
        <ele>16.5</ele>
        <time>2018-09-20T10:28:05.000Z</time>
      </trkpt>
      <trkpt lat="46.69574" lon="-2.36445">
        <ele>16.5</ele>
        <time>2018-09-20T10:28:06.000Z</time>
      </trkpt>
      <trkpt lat="46.69574" lon="-2.36445">
        <ele>16.5</ele>
        <time>2018-09-20T10:28:07.000Z</time>
      </trkpt>
      <trkpt lat="46.69574" lon="-2.36445">
        <ele>16.5</ele>
        <time>2018-09-20T10:28:08.000Z</time>
      </trkpt>
      <trkpt lat="46.69574" lon="-2.36445">
        <ele>16.5</ele>
        <time>2018-09-20T10:28:09.000Z</time>
      </trkpt>
      <trkpt lat="46.69574" lon="-2.36445">
        <ele>16.5</ele>
        <time>2018-09-20T10:28:10.000Z</time>
      </trkpt>
      <trkpt lat="46.69574" lon="-2.36445">
        <ele>16.5</ele>
        <time>2018-09-20T10:28:11.000Z</time>
      </trkpt>
      <trkpt lat="46.69574" lon="-2.36445">
        <ele>16.5</ele>
        <time>2018-09-20T10:28:12.000Z</time>
      </trkpt>
      <trkpt lat="46.69574" lon="-2.36445">
        <ele>16.5</ele>
        <time>2018-09-20T10:28:13.000Z</time>
      </trkpt>
      <trkpt lat="46.69574" lon="-2.36445">
        <ele>16.5</ele>
        <time>2018-09-20T10:28:14.000Z</time>
      </trkpt>
      <trkpt lat="46.69574" lon="-2.36445">
        <ele>16.5</ele>
        <time>2018-09-20T10:28:15.000Z</time>
      </trkpt>
      <trkpt lat="46.69574" lon="-2.36445">
        <ele>16.5</ele>
        <time>2018-09-20T10:28:16.000Z</time>
      </trkpt>
      <trkpt lat="46.69574" lon="-2.36445">
        <ele>16.5</ele>
        <time>2018-09-20T10:28:17.000Z</time>
      </trkpt>
      <trkpt lat="46.69574" lon="-2.36445">
        <ele>16.5</ele>
        <time>2018-09-20T10:28:18.000Z</time>
      </trkpt>
      <trkpt lat="46.69574" lon="-2.36445">
        <ele>16.5</ele>
        <time>2018-09-20T10:28:19.000Z</time>
      </trkpt>
      <trkpt lat="46.69574" lon="-2.36445">
        <ele>16.5</ele>
        <time>2018-09-20T10:28:20.000Z</time>
      </trkpt>
      <trkpt lat="46.69574" lon="-2.36445">
        <ele>16.5</ele>
        <time>2018-09-20T10:28:21.000Z</time>
      </trkpt>
      <trkpt lat="46.69574" lon="-2.36445">
        <ele>16.5</ele>
        <time>2018-09-20T10:28:22.000Z</time>
      </trkpt>
      <trkpt lat="46.69574" lon="-2.36445">
        <ele>16.5</ele>
        <time>2018-09-20T10:28:23.000Z</time>
      </trkpt>
      <trkpt lat="46.69574" lon="-2.36445">
        <ele>16.5</ele>
        <time>2018-09-20T10:28:24.000Z</time>
      </trkpt>
      <trkpt lat="46.69574" lon="-2.36445">
        <ele>16.5</ele>
        <time>2018-09-20T10:28:25.000Z</time>
      </trkpt>
      <trkpt lat="46.69574" lon="-2.36445">
        <ele>16.5</ele>
        <time>2018-09-20T10:28:26.000Z</time>
      </trkpt>
      <trkpt lat="46.69574" lon="-2.36445">
        <ele>16.5</ele>
        <time>2018-09-20T10:28:27.000Z</time>
      </trkpt>
      <trkpt lat="46.69574" lon="-2.36445">
        <ele>16.5</ele>
        <time>2018-09-20T10:28:28.000Z</time>
      </trkpt>
      <trkpt lat="46.69574" lon="-2.36445">
        <ele>16.5</ele>
        <time>2018-09-20T10:28:29.000Z</time>
      </trkpt>
      <trkpt lat="46.69574" lon="-2.36445">
        <ele>16.5</ele>
        <time>2018-09-20T10:28:30.000Z</time>
      </trkpt>
      <trkpt lat="46.69574" lon="-2.36445">
        <ele>16.5</ele>
        <time>2018-09-20T10:28:31.000Z</time>
      </trkpt>
      <trkpt lat="46.69574" lon="-2.36445">
        <ele>16.5</ele>
        <time>2018-09-20T10:28:32.000Z</time>
      </trkpt>
      <trkpt lat="46.69574" lon="-2.36445">
        <ele>16.5</ele>
        <time>2018-09-20T10:28:33.000Z</time>
      </trkpt>
      <trkpt lat="46.69574" lon="-2.36445">
        <ele>16.5</ele>
        <time>2018-09-20T10:28:34.000Z</time>
      </trkpt>
      <trkpt lat="46.69574" lon="-2.36445">
        <ele>16.5</ele>
        <time>2018-09-20T10:28:35.000Z</time>
      </trkpt>
      <trkpt lat="46.69574" lon="-2.36445">
        <ele>16.5</ele>
        <time>2018-09-20T10:28:36.000Z</time>
      </trkpt>
      <trkpt lat="46.69574" lon="-2.36445">
        <ele>16.5</ele>
        <time>2018-09-20T10:28:37.000Z</time>
      </trkpt>
      <trkpt lat="46.69574" lon="-2.36445">
        <ele>16.5</ele>
        <time>2018-09-20T10:28:38.000Z</time>
      </trkpt>
      <trkpt lat="46.69574" lon="-2.36445">
        <ele>16.5</ele>
        <time>2018-09-20T10:28:39.000Z</time>
      </trkpt>
      <trkpt lat="46.69574" lon="-2.36445">
        <ele>16.5</ele>
        <time>2018-09-20T10:28:40.000Z</time>
      </trkpt>
      <trkpt lat="46.69574" lon="-2.36445">
        <ele>16.5</ele>
        <time>2018-09-20T10:28:41.000Z</time>
      </trkpt>
      <trkpt lat="46.69574" lon="-2.36445">
        <ele>16.5</ele>
        <time>2018-09-20T10:28:42.000Z</time>
      </trkpt>
      <trkpt lat="46.69574" lon="-2.36445">
        <ele>16.5</ele>
        <time>2018-09-20T10:28:43.000Z</time>
      </trkpt>
      <trkpt lat="46.69574" lon="-2.36445">
        <ele>16.5</ele>
        <time>2018-09-20T10:28:44.000Z</time>
      </trkpt>
      <trkpt lat="46.69574" lon="-2.36445">
        <ele>16.5</ele>
        <time>2018-09-20T10:28:45.000Z</time>
      </trkpt>
      <trkpt lat="46.69574" lon="-2.36445">
        <ele>16.5</ele>
        <time>2018-09-20T10:28:46.000Z</time>
      </trkpt>
      <trkpt lat="46.69574" lon="-2.36445">
        <ele>16.5</ele>
        <time>2018-09-20T10:28:47.000Z</time>
      </trkpt>
      <trkpt lat="46.69574" lon="-2.36445">
        <ele>16.5</ele>
        <time>2018-09-20T10:28:48.000Z</time>
      </trkpt>
      <trkpt lat="46.69574" lon="-2.36445">
        <ele>16.5</ele>
        <time>2018-09-20T10:28:49.000Z</time>
      </trkpt>
      <trkpt lat="46.69574" lon="-2.36445">
        <ele>16.5</ele>
        <time>2018-09-20T10:28:50.000Z</time>
      </trkpt>
      <trkpt lat="46.69574" lon="-2.36445">
        <ele>16.5</ele>
        <time>2018-09-20T10:28:51.000Z</time>
      </trkpt>
      <trkpt lat="46.69574" lon="-2.36445">
        <ele>16.5</ele>
        <time>2018-09-20T10:28:52.000Z</time>
      </trkpt>
      <trkpt lat="46.69574" lon="-2.36445">
        <ele>16.5</ele>
        <time>2018-09-20T10:28:53.000Z</time>
      </trkpt>
      <trkpt lat="46.69574" lon="-2.36445">
        <ele>16.5</ele>
        <time>2018-09-20T10:28:54.000Z</time>
      </trkpt>
      <trkpt lat="46.69574" lon="-2.36445">
        <ele>16.5</ele>
        <time>2018-09-20T10:28:55.000Z</time>
      </trkpt>
      <trkpt lat="46.69574" lon="-2.36445">
        <ele>16.5</ele>
        <time>2018-09-20T10:28:56.000Z</time>
      </trkpt>
      <trkpt lat="46.69574" lon="-2.36445">
        <ele>16.5</ele>
        <time>2018-09-20T10:28:57.000Z</time>
      </trkpt>
      <trkpt lat="46.69574" lon="-2.36445">
        <ele>16.5</ele>
        <time>2018-09-20T10:28:58.000Z</time>
      </trkpt>
      <trkpt lat="46.69574" lon="-2.36445">
        <ele>16.5</ele>
        <time>2018-09-20T10:28:59.000Z</time>
      </trkpt>
      <trkpt lat="46.69574" lon="-2.36445">
        <ele>16.5</ele>
        <time>2018-09-20T10:29:00.000Z</time>
      </trkpt>
      <trkpt lat="46.69574" lon="-2.36445">
        <ele>16.5</ele>
        <time>2018-09-20T10:29:01.000Z</time>
      </trkpt>
      <trkpt lat="46.69574" lon="-2.36445">
        <ele>16.5</ele>
        <time>2018-09-20T10:29:02.000Z</time>
      </trkpt>
      <trkpt lat="46.69574" lon="-2.36445">
        <ele>16.5</ele>
        <time>2018-09-20T10:29:03.000Z</time>
      </trkpt>
      <trkpt lat="46.69574" lon="-2.36445">
        <ele>16.5</ele>
        <time>2018-09-20T10:29:04.000Z</time>
      </trkpt>
      <trkpt lat="46.69574" lon="-2.36445">
        <ele>16.5</ele>
        <time>2018-09-20T10:29:05.000Z</time>
      </trkpt>
      <trkpt lat="46.69574" lon="-2.36445">
        <ele>16.5</ele>
        <time>2018-09-20T10:29:06.000Z</time>
      </trkpt>
      <trkpt lat="46.69574" lon="-2.36445">
        <ele>16.5</ele>
        <time>2018-09-20T10:29:07.000Z</time>
      </trkpt>
      <trkpt lat="46.69574" lon="-2.36445">
        <ele>16.5</ele>
        <time>2018-09-20T10:29:08.000Z</time>
      </trkpt>
      <trkpt lat="46.69574" lon="-2.36445">
        <ele>16.5</ele>
        <time>2018-09-20T10:29:09.000Z</time>
      </trkpt>
      <trkpt lat="46.69574" lon="-2.36445">
        <ele>16.5</ele>
        <time>2018-09-20T10:29:10.000Z</time>
      </trkpt>
      <trkpt lat="46.69574" lon="-2.36445">
        <ele>16.5</ele>
        <time>2018-09-20T10:29:11.000Z</time>
      </trkpt>
      <trkpt lat="46.69574" lon="-2.36445">
        <ele>16.5</ele>
        <time>2018-09-20T10:29:12.000Z</time>
      </trkpt>
      <trkpt lat="46.69574" lon="-2.36445">
        <ele>16.5</ele>
        <time>2018-09-20T10:29:13.000Z</time>
      </trkpt>
      <trkpt lat="46.69574" lon="-2.36445">
        <ele>16.5</ele>
        <time>2018-09-20T10:29:14.000Z</time>
      </trkpt>
      <trkpt lat="46.69574" lon="-2.36445">
        <ele>16.5</ele>
        <time>2018-09-20T10:29:15.000Z</time>
      </trkpt>
      <trkpt lat="46.69574" lon="-2.36445">
        <ele>16.5</ele>
        <time>2018-09-20T10:29:16.000Z</time>
      </trkpt>
      <trkpt lat="46.69574" lon="-2.36445">
        <ele>16.5</ele>
        <time>2018-09-20T10:29:17.000Z</time>
      </trkpt>
      <trkpt lat="46.69574" lon="-2.36445">
        <ele>16.5</ele>
        <time>2018-09-20T10:29:18.000Z</time>
      </trkpt>
      <trkpt lat="46.69574" lon="-2.36445">
        <ele>16.5</ele>
        <time>2018-09-20T10:29:19.000Z</time>
      </trkpt>
      <trkpt lat="46.69574" lon="-2.36445">
        <ele>16.5</ele>
        <time>2018-09-20T10:29:20.000Z</time>
      </trkpt>
      <trkpt lat="46.69574" lon="-2.36445">
        <ele>16.5</ele>
        <time>2018-09-20T10:29:21.000Z</time>
      </trkpt>
      <trkpt lat="46.69574" lon="-2.36445">
        <ele>16.5</ele>
        <time>2018-09-20T10:29:22.000Z</time>
      </trkpt>
      <trkpt lat="46.69574" lon="-2.36445">
        <ele>16.5</ele>
        <time>2018-09-20T10:29:23.000Z</time>
      </trkpt>
      <trkpt lat="46.69574" lon="-2.36445">
        <ele>16.5</ele>
        <time>2018-09-20T10:29:24.000Z</time>
      </trkpt>
      <trkpt lat="46.69574" lon="-2.36445">
        <ele>16.5</ele>
        <time>2018-09-20T10:29:25.000Z</time>
      </trkpt>
      <trkpt lat="46.69574" lon="-2.36445">
        <ele>16.5</ele>
        <time>2018-09-20T10:29:26.000Z</time>
      </trkpt>
      <trkpt lat="46.69574" lon="-2.36445">
        <ele>16.5</ele>
        <time>2018-09-20T10:29:27.000Z</time>
      </trkpt>
      <trkpt lat="46.69574" lon="-2.36445">
        <ele>16.5</ele>
        <time>2018-09-20T10:29:28.000Z</time>
      </trkpt>
      <trkpt lat="46.69574" lon="-2.36445">
        <ele>16.5</ele>
        <time>2018-09-20T10:29:29.000Z</time>
      </trkpt>
      <trkpt lat="46.69574" lon="-2.36445">
        <ele>16.5</ele>
        <time>2018-09-20T10:29:30.000Z</time>
      </trkpt>
      <trkpt lat="46.69574" lon="-2.36445">
        <ele>16.5</ele>
        <time>2018-09-20T10:29:31.000Z</time>
      </trkpt>
      <trkpt lat="46.69574" lon="-2.36445">
        <ele>16.5</ele>
        <time>2018-09-20T10:29:32.000Z</time>
      </trkpt>
      <trkpt lat="46.69574" lon="-2.36445">
        <ele>16.5</ele>
        <time>2018-09-20T10:29:33.000Z</time>
      </trkpt>
      <trkpt lat="46.69574" lon="-2.36445">
        <ele>16.5</ele>
        <time>2018-09-20T10:29:34.000Z</time>
      </trkpt>
      <trkpt lat="46.69574" lon="-2.36445">
        <ele>16.5</ele>
        <time>2018-09-20T10:29:35.000Z</time>
      </trkpt>
      <trkpt lat="46.69574" lon="-2.36445">
        <ele>16.5</ele>
        <time>2018-09-20T10:29:36.000Z</time>
      </trkpt>
      <trkpt lat="46.69574" lon="-2.36445">
        <ele>16.5</ele>
        <time>2018-09-20T10:29:37.000Z</time>
      </trkpt>
      <trkpt lat="46.69574" lon="-2.36445">
        <ele>16.5</ele>
        <time>2018-09-20T10:29:38.000Z</time>
      </trkpt>
      <trkpt lat="46.69574" lon="-2.36445">
        <ele>16.5</ele>
        <time>2018-09-20T10:29:39.000Z</time>
      </trkpt>
      <trkpt lat="46.69574" lon="-2.36445">
        <ele>16.5</ele>
        <time>2018-09-20T10:29:40.000Z</time>
      </trkpt>
      <trkpt lat="46.69574" lon="-2.36445">
        <ele>16.5</ele>
        <time>2018-09-20T10:29:41.000Z</time>
      </trkpt>
      <trkpt lat="46.69574" lon="-2.36445">
        <ele>16.5</ele>
        <time>2018-09-20T10:29:42.000Z</time>
      </trkpt>
      <trkpt lat="46.69574" lon="-2.36445">
        <ele>16.5</ele>
        <time>2018-09-20T10:29:43.000Z</time>
      </trkpt>
      <trkpt lat="46.69574" lon="-2.36445">
        <ele>16.5</ele>
        <time>2018-09-20T10:29:44.000Z</time>
      </trkpt>
      <trkpt lat="46.69574" lon="-2.36445">
        <ele>16.4</ele>
        <time>2018-09-20T10:29:45.000Z</time>
      </trkpt>
      <trkpt lat="46.69573" lon="-2.36445">
        <ele>16.4</ele>
        <time>2018-09-20T10:29:46.000Z</time>
      </trkpt>
      <trkpt lat="46.69573" lon="-2.36445">
        <ele>16.4</ele>
        <time>2018-09-20T10:29:47.000Z</time>
      </trkpt>
      <trkpt lat="46.69573" lon="-2.36444">
        <ele>16.4</ele>
        <time>2018-09-20T10:29:48.000Z</time>
      </trkpt>
      <trkpt lat="46.69572" lon="-2.36444">
        <ele>16.3</ele>
        <time>2018-09-20T10:29:49.000Z</time>
      </trkpt>
      <trkpt lat="46.69572" lon="-2.36444">
        <ele>16.2</ele>
        <time>2018-09-20T10:29:50.000Z</time>
      </trkpt>
      <trkpt lat="46.69571" lon="-2.36444">
        <ele>16.2</ele>
        <time>2018-09-20T10:29:51.000Z</time>
      </trkpt>
      <trkpt lat="46.6957" lon="-2.36444">
        <ele>16</ele>
        <time>2018-09-20T10:29:52.000Z</time>
      </trkpt>
      <trkpt lat="46.69569" lon="-2.36444">
        <ele>15.9</ele>
        <time>2018-09-20T10:29:53.000Z</time>
      </trkpt>
      <trkpt lat="46.69568" lon="-2.36444">
        <ele>15.8</ele>
        <time>2018-09-20T10:29:54.000Z</time>
      </trkpt>
      <trkpt lat="46.69567" lon="-2.36443">
        <ele>15.7</ele>
        <time>2018-09-20T10:29:55.000Z</time>
      </trkpt>
      <trkpt lat="46.69567" lon="-2.36443">
        <ele>15.6</ele>
        <time>2018-09-20T10:29:56.000Z</time>
      </trkpt>
      <trkpt lat="46.69566" lon="-2.36443">
        <ele>15.6</ele>
        <time>2018-09-20T10:29:57.000Z</time>
      </trkpt>
      <trkpt lat="46.69566" lon="-2.36443">
        <ele>15.5</ele>
        <time>2018-09-20T10:29:58.000Z</time>
      </trkpt>
      <trkpt lat="46.69565" lon="-2.36443">
        <ele>15.5</ele>
        <time>2018-09-20T10:29:59.000Z</time>
      </trkpt>
      <trkpt lat="46.69565" lon="-2.36443">
        <ele>15.5</ele>
        <time>2018-09-20T10:30:00.000Z</time>
      </trkpt>
      <trkpt lat="46.69565" lon="-2.36443">
        <ele>15.5</ele>
        <time>2018-09-20T10:30:01.000Z</time>
      </trkpt>
      <trkpt lat="46.69565" lon="-2.36443">
        <ele>15.5</ele>
        <time>2018-09-20T10:30:02.000Z</time>
      </trkpt>
      <trkpt lat="46.69565" lon="-2.36443">
        <ele>15.5</ele>
        <time>2018-09-20T10:30:03.000Z</time>
      </trkpt>
      <trkpt lat="46.69565" lon="-2.36443">
        <ele>15.5</ele>
        <time>2018-09-20T10:30:04.000Z</time>
      </trkpt>
      <trkpt lat="46.69565" lon="-2.36443">
        <ele>15.5</ele>
        <time>2018-09-20T10:30:05.000Z</time>
      </trkpt>
      <trkpt lat="46.69565" lon="-2.36443">
        <ele>15.5</ele>
        <time>2018-09-20T10:30:06.000Z</time>
      </trkpt>
      <trkpt lat="46.69565" lon="-2.36443">
        <ele>15.5</ele>
        <time>2018-09-20T10:30:07.000Z</time>
      </trkpt>
      <trkpt lat="46.69565" lon="-2.36443">
        <ele>15.5</ele>
        <time>2018-09-20T10:30:08.000Z</time>
      </trkpt>
      <trkpt lat="46.69565" lon="-2.36443">
        <ele>15.5</ele>
        <time>2018-09-20T10:30:09.000Z</time>
      </trkpt>
      <trkpt lat="46.69565" lon="-2.36443">
        <ele>15.5</ele>
        <time>2018-09-20T10:30:10.000Z</time>
      </trkpt>
      <trkpt lat="46.69565" lon="-2.36443">
        <ele>15.5</ele>
        <time>2018-09-20T10:30:11.000Z</time>
      </trkpt>
      <trkpt lat="46.69565" lon="-2.36443">
        <ele>15.5</ele>
        <time>2018-09-20T10:30:12.000Z</time>
      </trkpt>
      <trkpt lat="46.69565" lon="-2.36443">
        <ele>15.5</ele>
        <time>2018-09-20T10:30:13.000Z</time>
      </trkpt>
      <trkpt lat="46.69565" lon="-2.36443">
        <ele>15.5</ele>
        <time>2018-09-20T10:30:14.000Z</time>
      </trkpt>
      <trkpt lat="46.69565" lon="-2.36443">
        <ele>15.5</ele>
        <time>2018-09-20T10:30:15.000Z</time>
      </trkpt>
      <trkpt lat="46.69565" lon="-2.36443">
        <ele>15.5</ele>
        <time>2018-09-20T10:30:16.000Z</time>
      </trkpt>
      <trkpt lat="46.69565" lon="-2.36443">
        <ele>15.5</ele>
        <time>2018-09-20T10:30:17.000Z</time>
      </trkpt>
      <trkpt lat="46.69565" lon="-2.36443">
        <ele>15.5</ele>
        <time>2018-09-20T10:30:18.000Z</time>
      </trkpt>
      <trkpt lat="46.69565" lon="-2.36443">
        <ele>15.5</ele>
        <time>2018-09-20T10:30:19.000Z</time>
      </trkpt>
      <trkpt lat="46.69565" lon="-2.36443">
        <ele>15.5</ele>
        <time>2018-09-20T10:30:20.000Z</time>
      </trkpt>
      <trkpt lat="46.69565" lon="-2.36443">
        <ele>15.4</ele>
        <time>2018-09-20T10:30:21.000Z</time>
      </trkpt>
      <trkpt lat="46.69565" lon="-2.36443">
        <ele>15.4</ele>
        <time>2018-09-20T10:30:22.000Z</time>
      </trkpt>
      <trkpt lat="46.69564" lon="-2.36443">
        <ele>15.3</ele>
        <time>2018-09-20T10:30:23.000Z</time>
      </trkpt>
      <trkpt lat="46.69563" lon="-2.36442">
        <ele>15.2</ele>
        <time>2018-09-20T10:30:24.000Z</time>
      </trkpt>
      <trkpt lat="46.69562" lon="-2.36441">
        <ele>15.1</ele>
        <time>2018-09-20T10:30:25.000Z</time>
      </trkpt>
      <trkpt lat="46.69561" lon="-2.3644">
        <ele>15.1</ele>
        <time>2018-09-20T10:30:26.000Z</time>
      </trkpt>
      <trkpt lat="46.6956" lon="-2.36439">
        <ele>15.1</ele>
        <time>2018-09-20T10:30:27.000Z</time>
      </trkpt>
      <trkpt lat="46.6956" lon="-2.36438">
        <ele>15</ele>
        <time>2018-09-20T10:30:28.000Z</time>
      </trkpt>
      <trkpt lat="46.69559" lon="-2.36436">
        <ele>15</ele>
        <time>2018-09-20T10:30:29.000Z</time>
      </trkpt>
      <trkpt lat="46.69558" lon="-2.36435">
        <ele>15</ele>
        <time>2018-09-20T10:30:30.000Z</time>
      </trkpt>
      <trkpt lat="46.69558" lon="-2.36433">
        <ele>14.9</ele>
        <time>2018-09-20T10:30:31.000Z</time>
      </trkpt>
      <trkpt lat="46.69557" lon="-2.36432">
        <ele>15</ele>
        <time>2018-09-20T10:30:32.000Z</time>
      </trkpt>
      <trkpt lat="46.69557" lon="-2.3643">
        <ele>15</ele>
        <time>2018-09-20T10:30:33.000Z</time>
      </trkpt>
      <trkpt lat="46.69556" lon="-2.36428">
        <ele>15</ele>
        <time>2018-09-20T10:30:34.000Z</time>
      </trkpt>
      <trkpt lat="46.69556" lon="-2.36426">
        <ele>15</ele>
        <time>2018-09-20T10:30:35.000Z</time>
      </trkpt>
      <trkpt lat="46.69555" lon="-2.36425">
        <ele>15</ele>
        <time>2018-09-20T10:30:36.000Z</time>
      </trkpt>
      <trkpt lat="46.69555" lon="-2.36423">
        <ele>15</ele>
        <time>2018-09-20T10:30:37.000Z</time>
      </trkpt>
      <trkpt lat="46.69555" lon="-2.36421">
        <ele>15</ele>
        <time>2018-09-20T10:30:38.000Z</time>
      </trkpt>
      <trkpt lat="46.69554" lon="-2.36419">
        <ele>15</ele>
        <time>2018-09-20T10:30:39.000Z</time>
      </trkpt>
      <trkpt lat="46.69554" lon="-2.36418">
        <ele>15.1</ele>
        <time>2018-09-20T10:30:40.000Z</time>
      </trkpt>
      <trkpt lat="46.69554" lon="-2.36416">
        <ele>15.1</ele>
        <time>2018-09-20T10:30:41.000Z</time>
      </trkpt>
      <trkpt lat="46.69553" lon="-2.36414">
        <ele>15.1</ele>
        <time>2018-09-20T10:30:42.000Z</time>
      </trkpt>
      <trkpt lat="46.69553" lon="-2.36413">
        <ele>15.1</ele>
        <time>2018-09-20T10:30:43.000Z</time>
      </trkpt>
      <trkpt lat="46.69553" lon="-2.36411">
        <ele>15.2</ele>
        <time>2018-09-20T10:30:44.000Z</time>
      </trkpt>
      <trkpt lat="46.69553" lon="-2.36409">
        <ele>15.2</ele>
        <time>2018-09-20T10:30:45.000Z</time>
      </trkpt>
      <trkpt lat="46.69553" lon="-2.36408">
        <ele>15.2</ele>
        <time>2018-09-20T10:30:46.000Z</time>
      </trkpt>
      <trkpt lat="46.69553" lon="-2.36406">
        <ele>15.3</ele>
        <time>2018-09-20T10:30:47.000Z</time>
      </trkpt>
      <trkpt lat="46.69553" lon="-2.36404">
        <ele>15.4</ele>
        <time>2018-09-20T10:30:48.000Z</time>
      </trkpt>
      <trkpt lat="46.69553" lon="-2.36403">
        <ele>15.4</ele>
        <time>2018-09-20T10:30:49.000Z</time>
      </trkpt>
      <trkpt lat="46.69553" lon="-2.36401">
        <ele>15.5</ele>
        <time>2018-09-20T10:30:50.000Z</time>
      </trkpt>
      <trkpt lat="46.69553" lon="-2.36399">
        <ele>15.6</ele>
        <time>2018-09-20T10:30:51.000Z</time>
      </trkpt>
      <trkpt lat="46.69553" lon="-2.36398">
        <ele>15.6</ele>
        <time>2018-09-20T10:30:52.000Z</time>
      </trkpt>
      <trkpt lat="46.69553" lon="-2.36396">
        <ele>15.7</ele>
        <time>2018-09-20T10:30:53.000Z</time>
      </trkpt>
      <trkpt lat="46.69554" lon="-2.36395">
        <ele>15.8</ele>
        <time>2018-09-20T10:30:54.000Z</time>
      </trkpt>
      <trkpt lat="46.69554" lon="-2.36393">
        <ele>15.8</ele>
        <time>2018-09-20T10:30:55.000Z</time>
      </trkpt>
      <trkpt lat="46.69554" lon="-2.36391">
        <ele>15.9</ele>
        <time>2018-09-20T10:30:56.000Z</time>
      </trkpt>
      <trkpt lat="46.69554" lon="-2.3639">
        <ele>15.9</ele>
        <time>2018-09-20T10:30:57.000Z</time>
      </trkpt>
      <trkpt lat="46.69554" lon="-2.36388">
        <ele>16</ele>
        <time>2018-09-20T10:30:58.000Z</time>
      </trkpt>
      <trkpt lat="46.69554" lon="-2.36386">
        <ele>16</ele>
        <time>2018-09-20T10:30:59.000Z</time>
      </trkpt>
      <trkpt lat="46.69554" lon="-2.36384">
        <ele>16.1</ele>
        <time>2018-09-20T10:31:00.000Z</time>
      </trkpt>
      <trkpt lat="46.69553" lon="-2.36383">
        <ele>16.1</ele>
        <time>2018-09-20T10:31:01.000Z</time>
      </trkpt>
      <trkpt lat="46.69553" lon="-2.36381">
        <ele>16.2</ele>
        <time>2018-09-20T10:31:02.000Z</time>
      </trkpt>
      <trkpt lat="46.69553" lon="-2.36379">
        <ele>16.2</ele>
        <time>2018-09-20T10:31:03.000Z</time>
      </trkpt>
      <trkpt lat="46.69553" lon="-2.36378">
        <ele>16.2</ele>
        <time>2018-09-20T10:31:04.000Z</time>
      </trkpt>
      <trkpt lat="46.69553" lon="-2.36376">
        <ele>16.2</ele>
        <time>2018-09-20T10:31:05.000Z</time>
      </trkpt>
      <trkpt lat="46.69552" lon="-2.36374">
        <ele>16.3</ele>
        <time>2018-09-20T10:31:06.000Z</time>
      </trkpt>
      <trkpt lat="46.69552" lon="-2.36373">
        <ele>16.3</ele>
        <time>2018-09-20T10:31:07.000Z</time>
      </trkpt>
      <trkpt lat="46.69552" lon="-2.36371">
        <ele>16.3</ele>
        <time>2018-09-20T10:31:08.000Z</time>
      </trkpt>
      <trkpt lat="46.69552" lon="-2.3637">
        <ele>16.3</ele>
        <time>2018-09-20T10:31:09.000Z</time>
      </trkpt>
      <trkpt lat="46.69551" lon="-2.36368">
        <ele>16.3</ele>
        <time>2018-09-20T10:31:10.000Z</time>
      </trkpt>
      <trkpt lat="46.69551" lon="-2.36367">
        <ele>16.3</ele>
        <time>2018-09-20T10:31:11.000Z</time>
      </trkpt>
      <trkpt lat="46.69551" lon="-2.36365">
        <ele>16.3</ele>
        <time>2018-09-20T10:31:12.000Z</time>
      </trkpt>
      <trkpt lat="46.69551" lon="-2.36364">
        <ele>16.3</ele>
        <time>2018-09-20T10:31:13.000Z</time>
      </trkpt>
      <trkpt lat="46.6955" lon="-2.36363">
        <ele>16.3</ele>
        <time>2018-09-20T10:31:14.000Z</time>
      </trkpt>
      <trkpt lat="46.6955" lon="-2.36361">
        <ele>16.3</ele>
        <time>2018-09-20T10:31:15.000Z</time>
      </trkpt>
      <trkpt lat="46.6955" lon="-2.3636">
        <ele>16.3</ele>
        <time>2018-09-20T10:31:16.000Z</time>
      </trkpt>
      <trkpt lat="46.69549" lon="-2.36358">
        <ele>16.3</ele>
        <time>2018-09-20T10:31:17.000Z</time>
      </trkpt>
      <trkpt lat="46.69549" lon="-2.36357">
        <ele>16.3</ele>
        <time>2018-09-20T10:31:18.000Z</time>
      </trkpt>
      <trkpt lat="46.69549" lon="-2.36356">
        <ele>16.3</ele>
        <time>2018-09-20T10:31:19.000Z</time>
      </trkpt>
      <trkpt lat="46.69548" lon="-2.36354">
        <ele>16.3</ele>
        <time>2018-09-20T10:31:20.000Z</time>
      </trkpt>
      <trkpt lat="46.69548" lon="-2.36353">
        <ele>16.3</ele>
        <time>2018-09-20T10:31:21.000Z</time>
      </trkpt>
      <trkpt lat="46.69548" lon="-2.36351">
        <ele>16.3</ele>
        <time>2018-09-20T10:31:22.000Z</time>
      </trkpt>
      <trkpt lat="46.69547" lon="-2.3635">
        <ele>16.3</ele>
        <time>2018-09-20T10:31:23.000Z</time>
      </trkpt>
      <trkpt lat="46.69547" lon="-2.36349">
        <ele>16.3</ele>
        <time>2018-09-20T10:31:24.000Z</time>
      </trkpt>
      <trkpt lat="46.69547" lon="-2.36347">
        <ele>16.3</ele>
        <time>2018-09-20T10:31:25.000Z</time>
      </trkpt>
      <trkpt lat="46.69546" lon="-2.36346">
        <ele>16.3</ele>
        <time>2018-09-20T10:31:26.000Z</time>
      </trkpt>
      <trkpt lat="46.69546" lon="-2.36344">
        <ele>16.3</ele>
        <time>2018-09-20T10:31:27.000Z</time>
      </trkpt>
      <trkpt lat="46.69546" lon="-2.36342">
        <ele>16.3</ele>
        <time>2018-09-20T10:31:28.000Z</time>
      </trkpt>
      <trkpt lat="46.69545" lon="-2.36341">
        <ele>16.3</ele>
        <time>2018-09-20T10:31:29.000Z</time>
      </trkpt>
      <trkpt lat="46.69545" lon="-2.36339">
        <ele>16.3</ele>
        <time>2018-09-20T10:31:30.000Z</time>
      </trkpt>
      <trkpt lat="46.69545" lon="-2.36338">
        <ele>16.3</ele>
        <time>2018-09-20T10:31:31.000Z</time>
      </trkpt>
      <trkpt lat="46.69544" lon="-2.36336">
        <ele>16.3</ele>
        <time>2018-09-20T10:31:32.000Z</time>
      </trkpt>
      <trkpt lat="46.69544" lon="-2.36334">
        <ele>16.3</ele>
        <time>2018-09-20T10:31:33.000Z</time>
      </trkpt>
      <trkpt lat="46.69544" lon="-2.36332">
        <ele>16.3</ele>
        <time>2018-09-20T10:31:34.000Z</time>
      </trkpt>
      <trkpt lat="46.69543" lon="-2.36331">
        <ele>16.3</ele>
        <time>2018-09-20T10:31:35.000Z</time>
      </trkpt>
      <trkpt lat="46.69543" lon="-2.36329">
        <ele>16.3</ele>
        <time>2018-09-20T10:31:36.000Z</time>
      </trkpt>
      <trkpt lat="46.69543" lon="-2.36327">
        <ele>16.2</ele>
        <time>2018-09-20T10:31:37.000Z</time>
      </trkpt>
      <trkpt lat="46.69543" lon="-2.36326">
        <ele>16.2</ele>
        <time>2018-09-20T10:31:38.000Z</time>
      </trkpt>
      <trkpt lat="46.69542" lon="-2.36324">
        <ele>16.2</ele>
        <time>2018-09-20T10:31:39.000Z</time>
      </trkpt>
      <trkpt lat="46.69542" lon="-2.36323">
        <ele>16.2</ele>
        <time>2018-09-20T10:31:40.000Z</time>
      </trkpt>
      <trkpt lat="46.69542" lon="-2.36321">
        <ele>16.1</ele>
        <time>2018-09-20T10:31:41.000Z</time>
      </trkpt>
      <trkpt lat="46.69541" lon="-2.36319">
        <ele>16.1</ele>
        <time>2018-09-20T10:31:42.000Z</time>
      </trkpt>
      <trkpt lat="46.69541" lon="-2.36318">
        <ele>16.1</ele>
        <time>2018-09-20T10:31:43.000Z</time>
      </trkpt>
      <trkpt lat="46.69541" lon="-2.36316">
        <ele>16.1</ele>
        <time>2018-09-20T10:31:44.000Z</time>
      </trkpt>
      <trkpt lat="46.6954" lon="-2.36315">
        <ele>16</ele>
        <time>2018-09-20T10:31:45.000Z</time>
      </trkpt>
      <trkpt lat="46.6954" lon="-2.36314">
        <ele>16</ele>
        <time>2018-09-20T10:31:46.000Z</time>
      </trkpt>
      <trkpt lat="46.6954" lon="-2.36312">
        <ele>16</ele>
        <time>2018-09-20T10:31:47.000Z</time>
      </trkpt>
      <trkpt lat="46.6954" lon="-2.36311">
        <ele>16</ele>
        <time>2018-09-20T10:31:48.000Z</time>
      </trkpt>
      <trkpt lat="46.6954" lon="-2.36309">
        <ele>16</ele>
        <time>2018-09-20T10:31:49.000Z</time>
      </trkpt>
      <trkpt lat="46.6954" lon="-2.36308">
        <ele>16</ele>
        <time>2018-09-20T10:31:50.000Z</time>
      </trkpt>
      <trkpt lat="46.69539" lon="-2.36306">
        <ele>16</ele>
        <time>2018-09-20T10:31:51.000Z</time>
      </trkpt>
      <trkpt lat="46.69539" lon="-2.36305">
        <ele>16</ele>
        <time>2018-09-20T10:31:52.000Z</time>
      </trkpt>
      <trkpt lat="46.69539" lon="-2.36303">
        <ele>16</ele>
        <time>2018-09-20T10:31:53.000Z</time>
      </trkpt>
      <trkpt lat="46.69539" lon="-2.36302">
        <ele>16</ele>
        <time>2018-09-20T10:31:54.000Z</time>
      </trkpt>
      <trkpt lat="46.69539" lon="-2.363">
        <ele>16</ele>
        <time>2018-09-20T10:31:55.000Z</time>
      </trkpt>
      <trkpt lat="46.69539" lon="-2.36299">
        <ele>16.1</ele>
        <time>2018-09-20T10:31:56.000Z</time>
      </trkpt>
      <trkpt lat="46.69539" lon="-2.36297">
        <ele>16.1</ele>
        <time>2018-09-20T10:31:57.000Z</time>
      </trkpt>
      <trkpt lat="46.69539" lon="-2.36296">
        <ele>16.1</ele>
        <time>2018-09-20T10:31:58.000Z</time>
      </trkpt>
      <trkpt lat="46.69539" lon="-2.36294">
        <ele>16.1</ele>
        <time>2018-09-20T10:31:59.000Z</time>
      </trkpt>
      <trkpt lat="46.69539" lon="-2.36293">
        <ele>16.1</ele>
        <time>2018-09-20T10:32:00.000Z</time>
      </trkpt>
      <trkpt lat="46.69539" lon="-2.36291">
        <ele>16.1</ele>
        <time>2018-09-20T10:32:01.000Z</time>
      </trkpt>
      <trkpt lat="46.69538" lon="-2.3629">
        <ele>16.1</ele>
        <time>2018-09-20T10:32:02.000Z</time>
      </trkpt>
      <trkpt lat="46.69538" lon="-2.36288">
        <ele>16</ele>
        <time>2018-09-20T10:32:03.000Z</time>
      </trkpt>
      <trkpt lat="46.69538" lon="-2.36287">
        <ele>16</ele>
        <time>2018-09-20T10:32:04.000Z</time>
      </trkpt>
      <trkpt lat="46.69538" lon="-2.36286">
        <ele>16</ele>
        <time>2018-09-20T10:32:05.000Z</time>
      </trkpt>
      <trkpt lat="46.69537" lon="-2.36284">
        <ele>16</ele>
        <time>2018-09-20T10:32:06.000Z</time>
      </trkpt>
      <trkpt lat="46.69537" lon="-2.36283">
        <ele>15.9</ele>
        <time>2018-09-20T10:32:07.000Z</time>
      </trkpt>
      <trkpt lat="46.69537" lon="-2.36282">
        <ele>15.9</ele>
        <time>2018-09-20T10:32:08.000Z</time>
      </trkpt>
      <trkpt lat="46.69537" lon="-2.36281">
        <ele>15.9</ele>
        <time>2018-09-20T10:32:09.000Z</time>
      </trkpt>
      <trkpt lat="46.69536" lon="-2.3628">
        <ele>15.9</ele>
        <time>2018-09-20T10:32:10.000Z</time>
      </trkpt>
      <trkpt lat="46.69536" lon="-2.3628">
        <ele>15.9</ele>
        <time>2018-09-20T10:32:11.000Z</time>
      </trkpt>
      <trkpt lat="46.69536" lon="-2.36279">
        <ele>15.8</ele>
        <time>2018-09-20T10:32:12.000Z</time>
      </trkpt>
      <trkpt lat="46.69536" lon="-2.36279">
        <ele>15.8</ele>
        <time>2018-09-20T10:32:13.000Z</time>
      </trkpt>
      <trkpt lat="46.69536" lon="-2.36278">
        <ele>15.8</ele>
        <time>2018-09-20T10:32:14.000Z</time>
      </trkpt>
      <trkpt lat="46.69536" lon="-2.36278">
        <ele>15.8</ele>
        <time>2018-09-20T10:32:15.000Z</time>
      </trkpt>
      <trkpt lat="46.69536" lon="-2.36278">
        <ele>15.8</ele>
        <time>2018-09-20T10:32:16.000Z</time>
      </trkpt>
      <trkpt lat="46.69536" lon="-2.36278">
        <ele>15.8</ele>
        <time>2018-09-20T10:32:17.000Z</time>
      </trkpt>
      <trkpt lat="46.69536" lon="-2.36278">
        <ele>15.8</ele>
        <time>2018-09-20T10:32:18.000Z</time>
      </trkpt>
      <trkpt lat="46.69536" lon="-2.36278">
        <ele>15.8</ele>
        <time>2018-09-20T10:32:19.000Z</time>
      </trkpt>
      <trkpt lat="46.69536" lon="-2.36279">
        <ele>15.8</ele>
        <time>2018-09-20T10:32:20.000Z</time>
      </trkpt>
      <trkpt lat="46.69536" lon="-2.36279">
        <ele>15.8</ele>
        <time>2018-09-20T10:32:21.000Z</time>
      </trkpt>
      <trkpt lat="46.69536" lon="-2.36279">
        <ele>15.8</ele>
        <time>2018-09-20T10:32:22.000Z</time>
      </trkpt>
      <trkpt lat="46.69536" lon="-2.36279">
        <ele>15.8</ele>
        <time>2018-09-20T10:32:23.000Z</time>
      </trkpt>
      <trkpt lat="46.69536" lon="-2.36279">
        <ele>15.8</ele>
        <time>2018-09-20T10:32:24.000Z</time>
      </trkpt>
      <trkpt lat="46.69536" lon="-2.36279">
        <ele>15.8</ele>
        <time>2018-09-20T10:32:25.000Z</time>
      </trkpt>
      <trkpt lat="46.69536" lon="-2.36279">
        <ele>15.8</ele>
        <time>2018-09-20T10:32:26.000Z</time>
      </trkpt>
      <trkpt lat="46.69536" lon="-2.36279">
        <ele>15.8</ele>
        <time>2018-09-20T10:32:27.000Z</time>
      </trkpt>
      <trkpt lat="46.69536" lon="-2.36279">
        <ele>15.8</ele>
        <time>2018-09-20T10:32:28.000Z</time>
      </trkpt>
      <trkpt lat="46.69535" lon="-2.36279">
        <ele>15.8</ele>
        <time>2018-09-20T10:32:29.000Z</time>
      </trkpt>
      <trkpt lat="46.69535" lon="-2.36279">
        <ele>15.7</ele>
        <time>2018-09-20T10:32:30.000Z</time>
      </trkpt>
      <trkpt lat="46.69535" lon="-2.36278">
        <ele>15.7</ele>
        <time>2018-09-20T10:32:31.000Z</time>
      </trkpt>
      <trkpt lat="46.69535" lon="-2.36278">
        <ele>15.7</ele>
        <time>2018-09-20T10:32:32.000Z</time>
      </trkpt>
      <trkpt lat="46.69535" lon="-2.36277">
        <ele>15.7</ele>
        <time>2018-09-20T10:32:33.000Z</time>
      </trkpt>
      <trkpt lat="46.69535" lon="-2.36276">
        <ele>15.7</ele>
        <time>2018-09-20T10:32:34.000Z</time>
      </trkpt>
      <trkpt lat="46.69534" lon="-2.36275">
        <ele>15.6</ele>
        <time>2018-09-20T10:32:35.000Z</time>
      </trkpt>
      <trkpt lat="46.69534" lon="-2.36274">
        <ele>15.6</ele>
        <time>2018-09-20T10:32:36.000Z</time>
      </trkpt>
      <trkpt lat="46.69534" lon="-2.36273">
        <ele>15.5</ele>
        <time>2018-09-20T10:32:37.000Z</time>
      </trkpt>
      <trkpt lat="46.69533" lon="-2.36272">
        <ele>15.5</ele>
        <time>2018-09-20T10:32:38.000Z</time>
      </trkpt>
      <trkpt lat="46.69533" lon="-2.3627">
        <ele>15.4</ele>
        <time>2018-09-20T10:32:39.000Z</time>
      </trkpt>
      <trkpt lat="46.69532" lon="-2.36269">
        <ele>15.4</ele>
        <time>2018-09-20T10:32:40.000Z</time>
      </trkpt>
      <trkpt lat="46.69532" lon="-2.36268">
        <ele>15.3</ele>
        <time>2018-09-20T10:32:41.000Z</time>
      </trkpt>
      <trkpt lat="46.69531" lon="-2.36266">
        <ele>15.3</ele>
        <time>2018-09-20T10:32:42.000Z</time>
      </trkpt>
      <trkpt lat="46.69531" lon="-2.36265">
        <ele>15.2</ele>
        <time>2018-09-20T10:32:43.000Z</time>
      </trkpt>
      <trkpt lat="46.6953" lon="-2.36264">
        <ele>15.1</ele>
        <time>2018-09-20T10:32:44.000Z</time>
      </trkpt>
      <trkpt lat="46.69529" lon="-2.36262">
        <ele>15.1</ele>
        <time>2018-09-20T10:32:45.000Z</time>
      </trkpt>
      <trkpt lat="46.69529" lon="-2.36261">
        <ele>15</ele>
        <time>2018-09-20T10:32:46.000Z</time>
      </trkpt>
      <trkpt lat="46.69528" lon="-2.3626">
        <ele>14.9</ele>
        <time>2018-09-20T10:32:47.000Z</time>
      </trkpt>
      <trkpt lat="46.69527" lon="-2.36259">
        <ele>14.8</ele>
        <time>2018-09-20T10:32:48.000Z</time>
      </trkpt>
      <trkpt lat="46.69526" lon="-2.36258">
        <ele>14.7</ele>
        <time>2018-09-20T10:32:49.000Z</time>
      </trkpt>
      <trkpt lat="46.69526" lon="-2.36257">
        <ele>14.6</ele>
        <time>2018-09-20T10:32:50.000Z</time>
      </trkpt>
      <trkpt lat="46.69525" lon="-2.36256">
        <ele>14.5</ele>
        <time>2018-09-20T10:32:51.000Z</time>
      </trkpt>
      <trkpt lat="46.69524" lon="-2.36255">
        <ele>14.4</ele>
        <time>2018-09-20T10:32:52.000Z</time>
      </trkpt>
      <trkpt lat="46.69523" lon="-2.36255">
        <ele>14.3</ele>
        <time>2018-09-20T10:32:53.000Z</time>
      </trkpt>
      <trkpt lat="46.69522" lon="-2.36254">
        <ele>14.2</ele>
        <time>2018-09-20T10:32:54.000Z</time>
      </trkpt>
      <trkpt lat="46.69522" lon="-2.36253">
        <ele>14.1</ele>
        <time>2018-09-20T10:32:55.000Z</time>
      </trkpt>
      <trkpt lat="46.69522" lon="-2.36251">
        <ele>14.1</ele>
        <time>2018-09-20T10:32:56.000Z</time>
      </trkpt>
      <trkpt lat="46.69522" lon="-2.3625">
        <ele>14.1</ele>
        <time>2018-09-20T10:32:57.000Z</time>
      </trkpt>
      <trkpt lat="46.69522" lon="-2.36248">
        <ele>14.2</ele>
        <time>2018-09-20T10:32:58.000Z</time>
      </trkpt>
      <trkpt lat="46.69522" lon="-2.36246">
        <ele>14.2</ele>
        <time>2018-09-20T10:32:59.000Z</time>
      </trkpt>
      <trkpt lat="46.69523" lon="-2.36245">
        <ele>14.3</ele>
        <time>2018-09-20T10:33:00.000Z</time>
      </trkpt>
      <trkpt lat="46.69523" lon="-2.36244">
        <ele>14.4</ele>
        <time>2018-09-20T10:33:01.000Z</time>
      </trkpt>
      <trkpt lat="46.69524" lon="-2.36242">
        <ele>14.5</ele>
        <time>2018-09-20T10:33:02.000Z</time>
      </trkpt>
      <trkpt lat="46.69524" lon="-2.36241">
        <ele>14.5</ele>
        <time>2018-09-20T10:33:03.000Z</time>
      </trkpt>
      <trkpt lat="46.69525" lon="-2.36241">
        <ele>14.6</ele>
        <time>2018-09-20T10:33:04.000Z</time>
      </trkpt>
      <trkpt lat="46.69525" lon="-2.3624">
        <ele>14.7</ele>
        <time>2018-09-20T10:33:05.000Z</time>
      </trkpt>
      <trkpt lat="46.69525" lon="-2.36239">
        <ele>14.7</ele>
        <time>2018-09-20T10:33:06.000Z</time>
      </trkpt>
      <trkpt lat="46.69526" lon="-2.36238">
        <ele>14.8</ele>
        <time>2018-09-20T10:33:07.000Z</time>
      </trkpt>
      <trkpt lat="46.69526" lon="-2.36237">
        <ele>14.8</ele>
        <time>2018-09-20T10:33:08.000Z</time>
      </trkpt>
      <trkpt lat="46.69526" lon="-2.36235">
        <ele>14.9</ele>
        <time>2018-09-20T10:33:09.000Z</time>
      </trkpt>
      <trkpt lat="46.69526" lon="-2.36234">
        <ele>14.9</ele>
        <time>2018-09-20T10:33:10.000Z</time>
      </trkpt>
      <trkpt lat="46.69527" lon="-2.36232">
        <ele>15</ele>
        <time>2018-09-20T10:33:11.000Z</time>
      </trkpt>
      <trkpt lat="46.69527" lon="-2.3623">
        <ele>15</ele>
        <time>2018-09-20T10:33:12.000Z</time>
      </trkpt>
      <trkpt lat="46.69527" lon="-2.36228">
        <ele>15</ele>
        <time>2018-09-20T10:33:13.000Z</time>
      </trkpt>
      <trkpt lat="46.69527" lon="-2.36226">
        <ele>15.1</ele>
        <time>2018-09-20T10:33:14.000Z</time>
      </trkpt>
      <trkpt lat="46.69527" lon="-2.36224">
        <ele>15.1</ele>
        <time>2018-09-20T10:33:15.000Z</time>
      </trkpt>
      <trkpt lat="46.69527" lon="-2.36223">
        <ele>15.1</ele>
        <time>2018-09-20T10:33:16.000Z</time>
      </trkpt>
      <trkpt lat="46.69527" lon="-2.36221">
        <ele>15.1</ele>
        <time>2018-09-20T10:33:17.000Z</time>
      </trkpt>
      <trkpt lat="46.69527" lon="-2.36219">
        <ele>15.1</ele>
        <time>2018-09-20T10:33:18.000Z</time>
      </trkpt>
      <trkpt lat="46.69527" lon="-2.36217">
        <ele>15.1</ele>
        <time>2018-09-20T10:33:19.000Z</time>
      </trkpt>
      <trkpt lat="46.69527" lon="-2.36215">
        <ele>15.1</ele>
        <time>2018-09-20T10:33:20.000Z</time>
      </trkpt>
      <trkpt lat="46.69527" lon="-2.36214">
        <ele>15.1</ele>
        <time>2018-09-20T10:33:21.000Z</time>
      </trkpt>
      <trkpt lat="46.69527" lon="-2.36212">
        <ele>15.1</ele>
        <time>2018-09-20T10:33:22.000Z</time>
      </trkpt>
      <trkpt lat="46.69526" lon="-2.3621">
        <ele>15.1</ele>
        <time>2018-09-20T10:33:23.000Z</time>
      </trkpt>
      <trkpt lat="46.69526" lon="-2.36209">
        <ele>15.1</ele>
        <time>2018-09-20T10:33:24.000Z</time>
      </trkpt>
      <trkpt lat="46.69526" lon="-2.36207">
        <ele>15.1</ele>
        <time>2018-09-20T10:33:25.000Z</time>
      </trkpt>
      <trkpt lat="46.69526" lon="-2.36205">
        <ele>15.1</ele>
        <time>2018-09-20T10:33:26.000Z</time>
      </trkpt>
      <trkpt lat="46.69526" lon="-2.36204">
        <ele>15.1</ele>
        <time>2018-09-20T10:33:27.000Z</time>
      </trkpt>
      <trkpt lat="46.69526" lon="-2.36202">
        <ele>15.1</ele>
        <time>2018-09-20T10:33:28.000Z</time>
      </trkpt>
      <trkpt lat="46.69526" lon="-2.36201">
        <ele>15.1</ele>
        <time>2018-09-20T10:33:29.000Z</time>
      </trkpt>
      <trkpt lat="46.69525" lon="-2.362">
        <ele>15.1</ele>
        <time>2018-09-20T10:33:30.000Z</time>
      </trkpt>
      <trkpt lat="46.69525" lon="-2.36198">
        <ele>15.1</ele>
        <time>2018-09-20T10:33:31.000Z</time>
      </trkpt>
      <trkpt lat="46.69525" lon="-2.36197">
        <ele>15.1</ele>
        <time>2018-09-20T10:33:32.000Z</time>
      </trkpt>
      <trkpt lat="46.69525" lon="-2.36196">
        <ele>15.1</ele>
        <time>2018-09-20T10:33:33.000Z</time>
      </trkpt>
      <trkpt lat="46.69525" lon="-2.36194">
        <ele>15</ele>
        <time>2018-09-20T10:33:34.000Z</time>
      </trkpt>
      <trkpt lat="46.69525" lon="-2.36193">
        <ele>15</ele>
        <time>2018-09-20T10:33:35.000Z</time>
      </trkpt>
      <trkpt lat="46.69524" lon="-2.36192">
        <ele>15</ele>
        <time>2018-09-20T10:33:36.000Z</time>
      </trkpt>
      <trkpt lat="46.69524" lon="-2.3619">
        <ele>15</ele>
        <time>2018-09-20T10:33:37.000Z</time>
      </trkpt>
      <trkpt lat="46.69524" lon="-2.36189">
        <ele>14.9</ele>
        <time>2018-09-20T10:33:38.000Z</time>
      </trkpt>
      <trkpt lat="46.69523" lon="-2.36188">
        <ele>14.9</ele>
        <time>2018-09-20T10:33:39.000Z</time>
      </trkpt>
      <trkpt lat="46.69523" lon="-2.36186">
        <ele>14.8</ele>
        <time>2018-09-20T10:33:40.000Z</time>
      </trkpt>
      <trkpt lat="46.69522" lon="-2.36185">
        <ele>14.8</ele>
        <time>2018-09-20T10:33:41.000Z</time>
      </trkpt>
      <trkpt lat="46.69522" lon="-2.36183">
        <ele>14.7</ele>
        <time>2018-09-20T10:33:42.000Z</time>
      </trkpt>
      <trkpt lat="46.69521" lon="-2.36182">
        <ele>14.7</ele>
        <time>2018-09-20T10:33:43.000Z</time>
      </trkpt>
      <trkpt lat="46.69521" lon="-2.36181">
        <ele>14.6</ele>
        <time>2018-09-20T10:33:44.000Z</time>
      </trkpt>
      <trkpt lat="46.6952" lon="-2.36179">
        <ele>14.5</ele>
        <time>2018-09-20T10:33:45.000Z</time>
      </trkpt>
      <trkpt lat="46.6952" lon="-2.36178">
        <ele>14.5</ele>
        <time>2018-09-20T10:33:46.000Z</time>
      </trkpt>
      <trkpt lat="46.69519" lon="-2.36176">
        <ele>14.4</ele>
        <time>2018-09-20T10:33:47.000Z</time>
      </trkpt>
      <trkpt lat="46.69518" lon="-2.36175">
        <ele>14.3</ele>
        <time>2018-09-20T10:33:48.000Z</time>
      </trkpt>
      <trkpt lat="46.69518" lon="-2.36174">
        <ele>14.3</ele>
        <time>2018-09-20T10:33:49.000Z</time>
      </trkpt>
      <trkpt lat="46.69517" lon="-2.36172">
        <ele>14.2</ele>
        <time>2018-09-20T10:33:50.000Z</time>
      </trkpt>
      <trkpt lat="46.69517" lon="-2.36171">
        <ele>14.2</ele>
        <time>2018-09-20T10:33:51.000Z</time>
      </trkpt>
      <trkpt lat="46.69516" lon="-2.36169">
        <ele>14.1</ele>
        <time>2018-09-20T10:33:52.000Z</time>
      </trkpt>
      <trkpt lat="46.69516" lon="-2.36168">
        <ele>14.1</ele>
        <time>2018-09-20T10:33:53.000Z</time>
      </trkpt>
      <trkpt lat="46.69515" lon="-2.36167">
        <ele>14</ele>
        <time>2018-09-20T10:33:54.000Z</time>
      </trkpt>
      <trkpt lat="46.69515" lon="-2.36165">
        <ele>14</ele>
        <time>2018-09-20T10:33:55.000Z</time>
      </trkpt>
      <trkpt lat="46.69515" lon="-2.36164">
        <ele>13.9</ele>
        <time>2018-09-20T10:33:56.000Z</time>
      </trkpt>
      <trkpt lat="46.69514" lon="-2.36162">
        <ele>13.8</ele>
        <time>2018-09-20T10:33:57.000Z</time>
      </trkpt>
      <trkpt lat="46.69514" lon="-2.36161">
        <ele>13.8</ele>
        <time>2018-09-20T10:33:58.000Z</time>
      </trkpt>
      <trkpt lat="46.69513" lon="-2.36159">
        <ele>13.7</ele>
        <time>2018-09-20T10:33:59.000Z</time>
      </trkpt>
      <trkpt lat="46.69513" lon="-2.36158">
        <ele>13.6</ele>
        <time>2018-09-20T10:34:00.000Z</time>
      </trkpt>
      <trkpt lat="46.69512" lon="-2.36156">
        <ele>13.6</ele>
        <time>2018-09-20T10:34:01.000Z</time>
      </trkpt>
      <trkpt lat="46.69512" lon="-2.36155">
        <ele>13.5</ele>
        <time>2018-09-20T10:34:02.000Z</time>
      </trkpt>
      <trkpt lat="46.69511" lon="-2.36153">
        <ele>13.4</ele>
        <time>2018-09-20T10:34:03.000Z</time>
      </trkpt>
      <trkpt lat="46.69511" lon="-2.36152">
        <ele>13.4</ele>
        <time>2018-09-20T10:34:04.000Z</time>
      </trkpt>
      <trkpt lat="46.6951" lon="-2.3615">
        <ele>13.3</ele>
        <time>2018-09-20T10:34:05.000Z</time>
      </trkpt>
      <trkpt lat="46.6951" lon="-2.36149">
        <ele>13.2</ele>
        <time>2018-09-20T10:34:06.000Z</time>
      </trkpt>
      <trkpt lat="46.69509" lon="-2.36147">
        <ele>13.2</ele>
        <time>2018-09-20T10:34:07.000Z</time>
      </trkpt>
      <trkpt lat="46.69509" lon="-2.36146">
        <ele>13.1</ele>
        <time>2018-09-20T10:34:08.000Z</time>
      </trkpt>
      <trkpt lat="46.69508" lon="-2.36144">
        <ele>13</ele>
        <time>2018-09-20T10:34:09.000Z</time>
      </trkpt>
      <trkpt lat="46.69508" lon="-2.36143">
        <ele>13</ele>
        <time>2018-09-20T10:34:10.000Z</time>
      </trkpt>
      <trkpt lat="46.69507" lon="-2.36141">
        <ele>12.9</ele>
        <time>2018-09-20T10:34:11.000Z</time>
      </trkpt>
      <trkpt lat="46.69507" lon="-2.3614">
        <ele>12.9</ele>
        <time>2018-09-20T10:34:12.000Z</time>
      </trkpt>
      <trkpt lat="46.69507" lon="-2.36139">
        <ele>12.8</ele>
        <time>2018-09-20T10:34:13.000Z</time>
      </trkpt>
      <trkpt lat="46.69507" lon="-2.36139">
        <ele>12.8</ele>
        <time>2018-09-20T10:34:14.000Z</time>
      </trkpt>
      <trkpt lat="46.69507" lon="-2.3614">
        <ele>12.8</ele>
        <time>2018-09-20T10:34:15.000Z</time>
      </trkpt>
      <trkpt lat="46.69507" lon="-2.3614">
        <ele>12.8</ele>
        <time>2018-09-20T10:34:16.000Z</time>
      </trkpt>
      <trkpt lat="46.69507" lon="-2.3614">
        <ele>12.8</ele>
        <time>2018-09-20T10:34:17.000Z</time>
      </trkpt>
      <trkpt lat="46.69507" lon="-2.3614">
        <ele>12.8</ele>
        <time>2018-09-20T10:34:18.000Z</time>
      </trkpt>
      <trkpt lat="46.69506" lon="-2.36139">
        <ele>12.8</ele>
        <time>2018-09-20T10:34:19.000Z</time>
      </trkpt>
      <trkpt lat="46.69506" lon="-2.36138">
        <ele>12.8</ele>
        <time>2018-09-20T10:34:20.000Z</time>
      </trkpt>
      <trkpt lat="46.69506" lon="-2.36137">
        <ele>12.7</ele>
        <time>2018-09-20T10:34:21.000Z</time>
      </trkpt>
      <trkpt lat="46.69506" lon="-2.36136">
        <ele>12.7</ele>
        <time>2018-09-20T10:34:22.000Z</time>
      </trkpt>
      <trkpt lat="46.69505" lon="-2.36135">
        <ele>12.7</ele>
        <time>2018-09-20T10:34:23.000Z</time>
      </trkpt>
      <trkpt lat="46.69505" lon="-2.36134">
        <ele>12.6</ele>
        <time>2018-09-20T10:34:24.000Z</time>
      </trkpt>
      <trkpt lat="46.69505" lon="-2.36133">
        <ele>12.6</ele>
        <time>2018-09-20T10:34:25.000Z</time>
      </trkpt>
      <trkpt lat="46.69505" lon="-2.36131">
        <ele>12.6</ele>
        <time>2018-09-20T10:34:26.000Z</time>
      </trkpt>
      <trkpt lat="46.69504" lon="-2.3613">
        <ele>12.5</ele>
        <time>2018-09-20T10:34:27.000Z</time>
      </trkpt>
      <trkpt lat="46.69504" lon="-2.36129">
        <ele>12.5</ele>
        <time>2018-09-20T10:34:28.000Z</time>
      </trkpt>
      <trkpt lat="46.69504" lon="-2.36128">
        <ele>12.5</ele>
        <time>2018-09-20T10:34:29.000Z</time>
      </trkpt>
      <trkpt lat="46.69504" lon="-2.36127">
        <ele>12.4</ele>
        <time>2018-09-20T10:34:30.000Z</time>
      </trkpt>
      <trkpt lat="46.69504" lon="-2.36126">
        <ele>12.4</ele>
        <time>2018-09-20T10:34:31.000Z</time>
      </trkpt>
      <trkpt lat="46.69503" lon="-2.36125">
        <ele>12.4</ele>
        <time>2018-09-20T10:34:32.000Z</time>
      </trkpt>
      <trkpt lat="46.69503" lon="-2.36124">
        <ele>12.4</ele>
        <time>2018-09-20T10:34:33.000Z</time>
      </trkpt>
      <trkpt lat="46.69503" lon="-2.36124">
        <ele>12.4</ele>
        <time>2018-09-20T10:34:34.000Z</time>
      </trkpt>
      <trkpt lat="46.69503" lon="-2.36123">
        <ele>12.4</ele>
        <time>2018-09-20T10:34:35.000Z</time>
      </trkpt>
      <trkpt lat="46.69503" lon="-2.36123">
        <ele>12.4</ele>
        <time>2018-09-20T10:34:36.000Z</time>
      </trkpt>
      <trkpt lat="46.69503" lon="-2.36123">
        <ele>12.3</ele>
        <time>2018-09-20T10:34:37.000Z</time>
      </trkpt>
      <trkpt lat="46.69503" lon="-2.36123">
        <ele>12.3</ele>
        <time>2018-09-20T10:34:38.000Z</time>
      </trkpt>
      <trkpt lat="46.69503" lon="-2.36123">
        <ele>12.3</ele>
        <time>2018-09-20T10:34:39.000Z</time>
      </trkpt>
      <trkpt lat="46.69503" lon="-2.36123">
        <ele>12.3</ele>
        <time>2018-09-20T10:34:40.000Z</time>
      </trkpt>
      <trkpt lat="46.69503" lon="-2.36123">
        <ele>12.3</ele>
        <time>2018-09-20T10:34:41.000Z</time>
      </trkpt>
      <trkpt lat="46.69503" lon="-2.36123">
        <ele>12.3</ele>
        <time>2018-09-20T10:34:42.000Z</time>
      </trkpt>
      <trkpt lat="46.69503" lon="-2.36123">
        <ele>12.3</ele>
        <time>2018-09-20T10:34:43.000Z</time>
      </trkpt>
      <trkpt lat="46.69503" lon="-2.36123">
        <ele>12.4</ele>
        <time>2018-09-20T10:34:44.000Z</time>
      </trkpt>
      <trkpt lat="46.69503" lon="-2.36123">
        <ele>12.4</ele>
        <time>2018-09-20T10:34:45.000Z</time>
      </trkpt>
      <trkpt lat="46.69503" lon="-2.36123">
        <ele>12.4</ele>
        <time>2018-09-20T10:34:46.000Z</time>
      </trkpt>
      <trkpt lat="46.69503" lon="-2.36122">
        <ele>12.4</ele>
        <time>2018-09-20T10:34:47.000Z</time>
      </trkpt>
      <trkpt lat="46.69504" lon="-2.36122">
        <ele>12.4</ele>
        <time>2018-09-20T10:34:48.000Z</time>
      </trkpt>
      <trkpt lat="46.69504" lon="-2.36122">
        <ele>12.5</ele>
        <time>2018-09-20T10:34:49.000Z</time>
      </trkpt>
      <trkpt lat="46.69504" lon="-2.36121">
        <ele>12.5</ele>
        <time>2018-09-20T10:34:50.000Z</time>
      </trkpt>
      <trkpt lat="46.69504" lon="-2.36121">
        <ele>12.5</ele>
        <time>2018-09-20T10:34:51.000Z</time>
      </trkpt>
      <trkpt lat="46.69505" lon="-2.3612">
        <ele>12.6</ele>
        <time>2018-09-20T10:34:52.000Z</time>
      </trkpt>
      <trkpt lat="46.69505" lon="-2.3612">
        <ele>12.6</ele>
        <time>2018-09-20T10:34:53.000Z</time>
      </trkpt>
      <trkpt lat="46.69506" lon="-2.36119">
        <ele>12.7</ele>
        <time>2018-09-20T10:34:54.000Z</time>
      </trkpt>
      <trkpt lat="46.69506" lon="-2.36118">
        <ele>12.8</ele>
        <time>2018-09-20T10:34:55.000Z</time>
      </trkpt>
      <trkpt lat="46.69507" lon="-2.36117">
        <ele>12.8</ele>
        <time>2018-09-20T10:34:56.000Z</time>
      </trkpt>
      <trkpt lat="46.69508" lon="-2.36116">
        <ele>12.9</ele>
        <time>2018-09-20T10:34:57.000Z</time>
      </trkpt>
      <trkpt lat="46.69509" lon="-2.36115">
        <ele>13</ele>
        <time>2018-09-20T10:34:58.000Z</time>
      </trkpt>
      <trkpt lat="46.69509" lon="-2.36114">
        <ele>13.1</ele>
        <time>2018-09-20T10:34:59.000Z</time>
      </trkpt>
      <trkpt lat="46.6951" lon="-2.36113">
        <ele>13.2</ele>
        <time>2018-09-20T10:35:00.000Z</time>
      </trkpt>
      <trkpt lat="46.69511" lon="-2.36112">
        <ele>13.3</ele>
        <time>2018-09-20T10:35:01.000Z</time>
      </trkpt>
      <trkpt lat="46.69512" lon="-2.36111">
        <ele>13.4</ele>
        <time>2018-09-20T10:35:02.000Z</time>
      </trkpt>
      <trkpt lat="46.69513" lon="-2.3611">
        <ele>13.5</ele>
        <time>2018-09-20T10:35:03.000Z</time>
      </trkpt>
      <trkpt lat="46.69514" lon="-2.36109">
        <ele>13.6</ele>
        <time>2018-09-20T10:35:04.000Z</time>
      </trkpt>
      <trkpt lat="46.69515" lon="-2.36108">
        <ele>13.7</ele>
        <time>2018-09-20T10:35:05.000Z</time>
      </trkpt>
      <trkpt lat="46.69516" lon="-2.36107">
        <ele>13.8</ele>
        <time>2018-09-20T10:35:06.000Z</time>
      </trkpt>
      <trkpt lat="46.69517" lon="-2.36107">
        <ele>13.9</ele>
        <time>2018-09-20T10:35:07.000Z</time>
      </trkpt>
      <trkpt lat="46.69518" lon="-2.36106">
        <ele>14.1</ele>
        <time>2018-09-20T10:35:08.000Z</time>
      </trkpt>
      <trkpt lat="46.69519" lon="-2.36105">
        <ele>14.2</ele>
        <time>2018-09-20T10:35:09.000Z</time>
      </trkpt>
      <trkpt lat="46.69521" lon="-2.36104">
        <ele>14.3</ele>
        <time>2018-09-20T10:35:10.000Z</time>
      </trkpt>
      <trkpt lat="46.69522" lon="-2.36103">
        <ele>14.5</ele>
        <time>2018-09-20T10:35:11.000Z</time>
      </trkpt>
      <trkpt lat="46.69523" lon="-2.36102">
        <ele>14.6</ele>
        <time>2018-09-20T10:35:12.000Z</time>
      </trkpt>
      <trkpt lat="46.69524" lon="-2.36101">
        <ele>14.7</ele>
        <time>2018-09-20T10:35:13.000Z</time>
      </trkpt>
      <trkpt lat="46.69525" lon="-2.361">
        <ele>14.8</ele>
        <time>2018-09-20T10:35:14.000Z</time>
      </trkpt>
      <trkpt lat="46.69525" lon="-2.36098">
        <ele>14.8</ele>
        <time>2018-09-20T10:35:15.000Z</time>
      </trkpt>
      <trkpt lat="46.69525" lon="-2.36097">
        <ele>14.8</ele>
        <time>2018-09-20T10:35:16.000Z</time>
      </trkpt>
      <trkpt lat="46.69525" lon="-2.36096">
        <ele>14.8</ele>
        <time>2018-09-20T10:35:17.000Z</time>
      </trkpt>
      <trkpt lat="46.69525" lon="-2.36096">
        <ele>14.8</ele>
        <time>2018-09-20T10:35:18.000Z</time>
      </trkpt>
      <trkpt lat="46.69525" lon="-2.36095">
        <ele>14.8</ele>
        <time>2018-09-20T10:35:19.000Z</time>
      </trkpt>
      <trkpt lat="46.69525" lon="-2.36095">
        <ele>14.7</ele>
        <time>2018-09-20T10:35:20.000Z</time>
      </trkpt>
      <trkpt lat="46.69525" lon="-2.36094">
        <ele>14.7</ele>
        <time>2018-09-20T10:35:21.000Z</time>
      </trkpt>
      <trkpt lat="46.69525" lon="-2.36094">
        <ele>14.7</ele>
        <time>2018-09-20T10:35:22.000Z</time>
      </trkpt>
      <trkpt lat="46.69525" lon="-2.36094">
        <ele>14.7</ele>
        <time>2018-09-20T10:35:23.000Z</time>
      </trkpt>
      <trkpt lat="46.69525" lon="-2.36094">
        <ele>14.8</ele>
        <time>2018-09-20T10:35:24.000Z</time>
      </trkpt>
      <trkpt lat="46.69525" lon="-2.36094">
        <ele>14.8</ele>
        <time>2018-09-20T10:35:25.000Z</time>
      </trkpt>
      <trkpt lat="46.69526" lon="-2.36093">
        <ele>14.8</ele>
        <time>2018-09-20T10:35:26.000Z</time>
      </trkpt>
      <trkpt lat="46.69526" lon="-2.36093">
        <ele>14.9</ele>
        <time>2018-09-20T10:35:27.000Z</time>
      </trkpt>
      <trkpt lat="46.69527" lon="-2.36092">
        <ele>14.9</ele>
        <time>2018-09-20T10:35:28.000Z</time>
      </trkpt>
      <trkpt lat="46.69527" lon="-2.36091">
        <ele>15</ele>
        <time>2018-09-20T10:35:29.000Z</time>
      </trkpt>
      <trkpt lat="46.69528" lon="-2.3609">
        <ele>15.1</ele>
        <time>2018-09-20T10:35:30.000Z</time>
      </trkpt>
      <trkpt lat="46.69529" lon="-2.36089">
        <ele>15.1</ele>
        <time>2018-09-20T10:35:31.000Z</time>
      </trkpt>
      <trkpt lat="46.69529" lon="-2.36088">
        <ele>15.2</ele>
        <time>2018-09-20T10:35:32.000Z</time>
      </trkpt>
      <trkpt lat="46.6953" lon="-2.36087">
        <ele>15.3</ele>
        <time>2018-09-20T10:35:33.000Z</time>
      </trkpt>
      <trkpt lat="46.69531" lon="-2.36086">
        <ele>15.4</ele>
        <time>2018-09-20T10:35:34.000Z</time>
      </trkpt>
      <trkpt lat="46.69532" lon="-2.36086">
        <ele>15.4</ele>
        <time>2018-09-20T10:35:35.000Z</time>
      </trkpt>
      <trkpt lat="46.69533" lon="-2.36085">
        <ele>15.5</ele>
        <time>2018-09-20T10:35:36.000Z</time>
      </trkpt>
      <trkpt lat="46.69534" lon="-2.36084">
        <ele>15.6</ele>
        <time>2018-09-20T10:35:37.000Z</time>
      </trkpt>
      <trkpt lat="46.69534" lon="-2.36084">
        <ele>15.7</ele>
        <time>2018-09-20T10:35:38.000Z</time>
      </trkpt>
      <trkpt lat="46.69535" lon="-2.36084">
        <ele>15.8</ele>
        <time>2018-09-20T10:35:39.000Z</time>
      </trkpt>
      <trkpt lat="46.69536" lon="-2.36084">
        <ele>15.9</ele>
        <time>2018-09-20T10:35:40.000Z</time>
      </trkpt>
      <trkpt lat="46.69537" lon="-2.36084">
        <ele>16</ele>
        <time>2018-09-20T10:35:41.000Z</time>
      </trkpt>
      <trkpt lat="46.69538" lon="-2.36084">
        <ele>16.1</ele>
        <time>2018-09-20T10:35:42.000Z</time>
      </trkpt>
      <trkpt lat="46.69539" lon="-2.36084">
        <ele>16.2</ele>
        <time>2018-09-20T10:35:43.000Z</time>
      </trkpt>
      <trkpt lat="46.6954" lon="-2.36084">
        <ele>16.3</ele>
        <time>2018-09-20T10:35:44.000Z</time>
      </trkpt>
      <trkpt lat="46.69541" lon="-2.36084">
        <ele>16.4</ele>
        <time>2018-09-20T10:35:45.000Z</time>
      </trkpt>
      <trkpt lat="46.69542" lon="-2.36084">
        <ele>16.5</ele>
        <time>2018-09-20T10:35:46.000Z</time>
      </trkpt>
      <trkpt lat="46.69543" lon="-2.36085">
        <ele>16.7</ele>
        <time>2018-09-20T10:35:47.000Z</time>
      </trkpt>
      <trkpt lat="46.69544" lon="-2.36085">
        <ele>16.8</ele>
        <time>2018-09-20T10:35:48.000Z</time>
      </trkpt>
      <trkpt lat="46.69545" lon="-2.36085">
        <ele>16.9</ele>
        <time>2018-09-20T10:35:49.000Z</time>
      </trkpt>
      <trkpt lat="46.69546" lon="-2.36085">
        <ele>17</ele>
        <time>2018-09-20T10:35:50.000Z</time>
      </trkpt>
      <trkpt lat="46.69547" lon="-2.36085">
        <ele>17.1</ele>
        <time>2018-09-20T10:35:51.000Z</time>
      </trkpt>
      <trkpt lat="46.69548" lon="-2.36085">
        <ele>17.2</ele>
        <time>2018-09-20T10:35:52.000Z</time>
      </trkpt>
      <trkpt lat="46.69549" lon="-2.36085">
        <ele>17.3</ele>
        <time>2018-09-20T10:35:53.000Z</time>
      </trkpt>
      <trkpt lat="46.6955" lon="-2.36086">
        <ele>17.4</ele>
        <time>2018-09-20T10:35:54.000Z</time>
      </trkpt>
      <trkpt lat="46.69551" lon="-2.36086">
        <ele>17.5</ele>
        <time>2018-09-20T10:35:55.000Z</time>
      </trkpt>
      <trkpt lat="46.69552" lon="-2.36087">
        <ele>17.6</ele>
        <time>2018-09-20T10:35:56.000Z</time>
      </trkpt>
      <trkpt lat="46.69553" lon="-2.36088">
        <ele>17.8</ele>
        <time>2018-09-20T10:35:57.000Z</time>
      </trkpt>
      <trkpt lat="46.69554" lon="-2.36088">
        <ele>17.9</ele>
        <time>2018-09-20T10:35:58.000Z</time>
      </trkpt>
      <trkpt lat="46.69555" lon="-2.36089">
        <ele>18</ele>
        <time>2018-09-20T10:35:59.000Z</time>
      </trkpt>
      <trkpt lat="46.69556" lon="-2.36089">
        <ele>18.1</ele>
        <time>2018-09-20T10:36:00.000Z</time>
      </trkpt>
      <trkpt lat="46.69556" lon="-2.36089">
        <ele>18.2</ele>
        <time>2018-09-20T10:36:01.000Z</time>
      </trkpt>
      <trkpt lat="46.69557" lon="-2.36089">
        <ele>18.3</ele>
        <time>2018-09-20T10:36:02.000Z</time>
      </trkpt>
      <trkpt lat="46.69558" lon="-2.3609">
        <ele>18.3</ele>
        <time>2018-09-20T10:36:03.000Z</time>
      </trkpt>
      <trkpt lat="46.69559" lon="-2.3609">
        <ele>18.4</ele>
        <time>2018-09-20T10:36:04.000Z</time>
      </trkpt>
      <trkpt lat="46.69559" lon="-2.36091">
        <ele>18.5</ele>
        <time>2018-09-20T10:36:05.000Z</time>
      </trkpt>
      <trkpt lat="46.6956" lon="-2.36092">
        <ele>18.7</ele>
        <time>2018-09-20T10:36:06.000Z</time>
      </trkpt>
      <trkpt lat="46.69561" lon="-2.36093">
        <ele>18.8</ele>
        <time>2018-09-20T10:36:07.000Z</time>
      </trkpt>
      <trkpt lat="46.69562" lon="-2.36095">
        <ele>18.9</ele>
        <time>2018-09-20T10:36:08.000Z</time>
      </trkpt>
      <trkpt lat="46.69563" lon="-2.36096">
        <ele>19</ele>
        <time>2018-09-20T10:36:09.000Z</time>
      </trkpt>
      <trkpt lat="46.69564" lon="-2.36097">
        <ele>19.1</ele>
        <time>2018-09-20T10:36:10.000Z</time>
      </trkpt>
      <trkpt lat="46.69564" lon="-2.36099">
        <ele>19.2</ele>
        <time>2018-09-20T10:36:11.000Z</time>
      </trkpt>
      <trkpt lat="46.69565" lon="-2.361">
        <ele>19.3</ele>
        <time>2018-09-20T10:36:12.000Z</time>
      </trkpt>
      <trkpt lat="46.69566" lon="-2.36101">
        <ele>19.4</ele>
        <time>2018-09-20T10:36:13.000Z</time>
      </trkpt>
      <trkpt lat="46.69567" lon="-2.36101">
        <ele>19.5</ele>
        <time>2018-09-20T10:36:14.000Z</time>
      </trkpt>
      <trkpt lat="46.69568" lon="-2.36102">
        <ele>19.7</ele>
        <time>2018-09-20T10:36:15.000Z</time>
      </trkpt>
      <trkpt lat="46.69568" lon="-2.36103">
        <ele>19.8</ele>
        <time>2018-09-20T10:36:16.000Z</time>
      </trkpt>
      <trkpt lat="46.69569" lon="-2.36103">
        <ele>19.9</ele>
        <time>2018-09-20T10:36:17.000Z</time>
      </trkpt>
      <trkpt lat="46.6957" lon="-2.36104">
        <ele>20</ele>
        <time>2018-09-20T10:36:18.000Z</time>
      </trkpt>
      <trkpt lat="46.69571" lon="-2.36104">
        <ele>20.1</ele>
        <time>2018-09-20T10:36:19.000Z</time>
      </trkpt>
      <trkpt lat="46.69572" lon="-2.36105">
        <ele>20.2</ele>
        <time>2018-09-20T10:36:20.000Z</time>
      </trkpt>
      <trkpt lat="46.69573" lon="-2.36105">
        <ele>20.3</ele>
        <time>2018-09-20T10:36:21.000Z</time>
      </trkpt>
      <trkpt lat="46.69574" lon="-2.36105">
        <ele>20.4</ele>
        <time>2018-09-20T10:36:22.000Z</time>
      </trkpt>
      <trkpt lat="46.69575" lon="-2.36105">
        <ele>20.5</ele>
        <time>2018-09-20T10:36:23.000Z</time>
      </trkpt>
      <trkpt lat="46.69575" lon="-2.36106">
        <ele>20.6</ele>
        <time>2018-09-20T10:36:24.000Z</time>
      </trkpt>
      <trkpt lat="46.69576" lon="-2.36106">
        <ele>20.7</ele>
        <time>2018-09-20T10:36:25.000Z</time>
      </trkpt>
      <trkpt lat="46.69576" lon="-2.36106">
        <ele>20.7</ele>
        <time>2018-09-20T10:36:26.000Z</time>
      </trkpt>
      <trkpt lat="46.69577" lon="-2.36106">
        <ele>20.8</ele>
        <time>2018-09-20T10:36:27.000Z</time>
      </trkpt>
      <trkpt lat="46.69577" lon="-2.36106">
        <ele>20.8</ele>
        <time>2018-09-20T10:36:28.000Z</time>
      </trkpt>
      <trkpt lat="46.69577" lon="-2.36106">
        <ele>20.8</ele>
        <time>2018-09-20T10:36:29.000Z</time>
      </trkpt>
      <trkpt lat="46.69577" lon="-2.36106">
        <ele>20.9</ele>
        <time>2018-09-20T10:36:30.000Z</time>
      </trkpt>
      <trkpt lat="46.69577" lon="-2.36106">
        <ele>20.9</ele>
        <time>2018-09-20T10:36:31.000Z</time>
      </trkpt>
      <trkpt lat="46.69577" lon="-2.36106">
        <ele>20.8</ele>
        <time>2018-09-20T10:36:32.000Z</time>
      </trkpt>
      <trkpt lat="46.69577" lon="-2.36106">
        <ele>20.8</ele>
        <time>2018-09-20T10:36:33.000Z</time>
      </trkpt>
      <trkpt lat="46.69577" lon="-2.36106">
        <ele>20.8</ele>
        <time>2018-09-20T10:36:34.000Z</time>
      </trkpt>
      <trkpt lat="46.69577" lon="-2.36106">
        <ele>20.8</ele>
        <time>2018-09-20T10:36:35.000Z</time>
      </trkpt>
      <trkpt lat="46.69577" lon="-2.36106">
        <ele>20.8</ele>
        <time>2018-09-20T10:36:36.000Z</time>
      </trkpt>
      <trkpt lat="46.69577" lon="-2.36106">
        <ele>20.8</ele>
        <time>2018-09-20T10:36:37.000Z</time>
      </trkpt>
      <trkpt lat="46.69577" lon="-2.36106">
        <ele>20.8</ele>
        <time>2018-09-20T10:36:38.000Z</time>
      </trkpt>
      <trkpt lat="46.69577" lon="-2.36106">
        <ele>20.9</ele>
        <time>2018-09-20T10:36:39.000Z</time>
      </trkpt>
      <trkpt lat="46.69578" lon="-2.36106">
        <ele>20.9</ele>
        <time>2018-09-20T10:36:40.000Z</time>
      </trkpt>
      <trkpt lat="46.69578" lon="-2.36106">
        <ele>20.9</ele>
        <time>2018-09-20T10:36:41.000Z</time>
      </trkpt>
      <trkpt lat="46.69578" lon="-2.36106">
        <ele>21</ele>
        <time>2018-09-20T10:36:42.000Z</time>
      </trkpt>
      <trkpt lat="46.69579" lon="-2.36106">
        <ele>21</ele>
        <time>2018-09-20T10:36:43.000Z</time>
      </trkpt>
      <trkpt lat="46.6958" lon="-2.36105">
        <ele>21.1</ele>
        <time>2018-09-20T10:36:44.000Z</time>
      </trkpt>
      <trkpt lat="46.6958" lon="-2.36105">
        <ele>21.2</ele>
        <time>2018-09-20T10:36:45.000Z</time>
      </trkpt>
      <trkpt lat="46.69581" lon="-2.36105">
        <ele>21.3</ele>
        <time>2018-09-20T10:36:46.000Z</time>
      </trkpt>
      <trkpt lat="46.69582" lon="-2.36105">
        <ele>21.4</ele>
        <time>2018-09-20T10:36:47.000Z</time>
      </trkpt>
      <trkpt lat="46.69583" lon="-2.36105">
        <ele>21.5</ele>
        <time>2018-09-20T10:36:48.000Z</time>
      </trkpt>
      <trkpt lat="46.69584" lon="-2.36105">
        <ele>21.6</ele>
        <time>2018-09-20T10:36:49.000Z</time>
      </trkpt>
      <trkpt lat="46.69585" lon="-2.36105">
        <ele>21.6</ele>
        <time>2018-09-20T10:36:50.000Z</time>
      </trkpt>
      <trkpt lat="46.69587" lon="-2.36104">
        <ele>21.7</ele>
        <time>2018-09-20T10:36:51.000Z</time>
      </trkpt>
      <trkpt lat="46.69588" lon="-2.36104">
        <ele>21.7</ele>
        <time>2018-09-20T10:36:52.000Z</time>
      </trkpt>
      <trkpt lat="46.69589" lon="-2.36104">
        <ele>21.8</ele>
        <time>2018-09-20T10:36:53.000Z</time>
      </trkpt>
      <trkpt lat="46.6959" lon="-2.36104">
        <ele>21.9</ele>
        <time>2018-09-20T10:36:54.000Z</time>
      </trkpt>
      <trkpt lat="46.69592" lon="-2.36104">
        <ele>21.9</ele>
        <time>2018-09-20T10:36:55.000Z</time>
      </trkpt>
      <trkpt lat="46.69593" lon="-2.36103">
        <ele>22</ele>
        <time>2018-09-20T10:36:56.000Z</time>
      </trkpt>
      <trkpt lat="46.69594" lon="-2.36103">
        <ele>22.1</ele>
        <time>2018-09-20T10:36:57.000Z</time>
      </trkpt>
      <trkpt lat="46.69595" lon="-2.36103">
        <ele>22.1</ele>
        <time>2018-09-20T10:36:58.000Z</time>
      </trkpt>
      <trkpt lat="46.69596" lon="-2.36103">
        <ele>22.2</ele>
        <time>2018-09-20T10:36:59.000Z</time>
      </trkpt>
      <trkpt lat="46.69597" lon="-2.36102">
        <ele>22.2</ele>
        <time>2018-09-20T10:37:00.000Z</time>
      </trkpt>
      <trkpt lat="46.69598" lon="-2.36102">
        <ele>22.3</ele>
        <time>2018-09-20T10:37:01.000Z</time>
      </trkpt>
      <trkpt lat="46.69599" lon="-2.36102">
        <ele>22.3</ele>
        <time>2018-09-20T10:37:02.000Z</time>
      </trkpt>
      <trkpt lat="46.696" lon="-2.36102">
        <ele>22.3</ele>
        <time>2018-09-20T10:37:03.000Z</time>
      </trkpt>
      <trkpt lat="46.696" lon="-2.36101">
        <ele>22.4</ele>
        <time>2018-09-20T10:37:04.000Z</time>
      </trkpt>
      <trkpt lat="46.69601" lon="-2.36101">
        <ele>22.4</ele>
        <time>2018-09-20T10:37:05.000Z</time>
      </trkpt>
      <trkpt lat="46.69601" lon="-2.36101">
        <ele>22.4</ele>
        <time>2018-09-20T10:37:06.000Z</time>
      </trkpt>
      <trkpt lat="46.69602" lon="-2.361">
        <ele>22.4</ele>
        <time>2018-09-20T10:37:07.000Z</time>
      </trkpt>
      <trkpt lat="46.69602" lon="-2.361">
        <ele>22.4</ele>
        <time>2018-09-20T10:37:08.000Z</time>
      </trkpt>
      <trkpt lat="46.69603" lon="-2.36099">
        <ele>22.4</ele>
        <time>2018-09-20T10:37:09.000Z</time>
      </trkpt>
      <trkpt lat="46.69604" lon="-2.36098">
        <ele>22.5</ele>
        <time>2018-09-20T10:37:10.000Z</time>
      </trkpt>
      <trkpt lat="46.69605" lon="-2.36097">
        <ele>22.5</ele>
        <time>2018-09-20T10:37:11.000Z</time>
      </trkpt>
      <trkpt lat="46.69606" lon="-2.36095">
        <ele>22.5</ele>
        <time>2018-09-20T10:37:12.000Z</time>
      </trkpt>
      <trkpt lat="46.69607" lon="-2.36094">
        <ele>22.6</ele>
        <time>2018-09-20T10:37:13.000Z</time>
      </trkpt>
      <trkpt lat="46.69608" lon="-2.36093">
        <ele>22.6</ele>
        <time>2018-09-20T10:37:14.000Z</time>
      </trkpt>
      <trkpt lat="46.69609" lon="-2.36091">
        <ele>22.6</ele>
        <time>2018-09-20T10:37:15.000Z</time>
      </trkpt>
      <trkpt lat="46.69609" lon="-2.3609">
        <ele>22.7</ele>
        <time>2018-09-20T10:37:16.000Z</time>
      </trkpt>
      <trkpt lat="46.6961" lon="-2.36089">
        <ele>22.7</ele>
        <time>2018-09-20T10:37:17.000Z</time>
      </trkpt>
      <trkpt lat="46.69611" lon="-2.36087">
        <ele>22.7</ele>
        <time>2018-09-20T10:37:18.000Z</time>
      </trkpt>
      <trkpt lat="46.69611" lon="-2.36086">
        <ele>22.7</ele>
        <time>2018-09-20T10:37:19.000Z</time>
      </trkpt>
      <trkpt lat="46.69612" lon="-2.36085">
        <ele>22.7</ele>
        <time>2018-09-20T10:37:20.000Z</time>
      </trkpt>
      <trkpt lat="46.69613" lon="-2.36083">
        <ele>22.8</ele>
        <time>2018-09-20T10:37:21.000Z</time>
      </trkpt>
      <trkpt lat="46.69613" lon="-2.36082">
        <ele>22.8</ele>
        <time>2018-09-20T10:37:22.000Z</time>
      </trkpt>
      <trkpt lat="46.69614" lon="-2.36081">
        <ele>22.8</ele>
        <time>2018-09-20T10:37:23.000Z</time>
      </trkpt>
      <trkpt lat="46.69615" lon="-2.3608">
        <ele>22.8</ele>
        <time>2018-09-20T10:37:24.000Z</time>
      </trkpt>
      <trkpt lat="46.69615" lon="-2.36078">
        <ele>22.9</ele>
        <time>2018-09-20T10:37:25.000Z</time>
      </trkpt>
      <trkpt lat="46.69616" lon="-2.36077">
        <ele>22.9</ele>
        <time>2018-09-20T10:37:26.000Z</time>
      </trkpt>
      <trkpt lat="46.69617" lon="-2.36076">
        <ele>22.9</ele>
        <time>2018-09-20T10:37:27.000Z</time>
      </trkpt>
      <trkpt lat="46.69618" lon="-2.36074">
        <ele>22.9</ele>
        <time>2018-09-20T10:37:28.000Z</time>
      </trkpt>
      <trkpt lat="46.69618" lon="-2.36073">
        <ele>23</ele>
        <time>2018-09-20T10:37:29.000Z</time>
      </trkpt>
      <trkpt lat="46.69619" lon="-2.36072">
        <ele>23</ele>
        <time>2018-09-20T10:37:30.000Z</time>
      </trkpt>
      <trkpt lat="46.6962" lon="-2.3607">
        <ele>23</ele>
        <time>2018-09-20T10:37:31.000Z</time>
      </trkpt>
      <trkpt lat="46.69621" lon="-2.36069">
        <ele>23.1</ele>
        <time>2018-09-20T10:37:32.000Z</time>
      </trkpt>
      <trkpt lat="46.69622" lon="-2.36067">
        <ele>23.1</ele>
        <time>2018-09-20T10:37:33.000Z</time>
      </trkpt>
      <trkpt lat="46.69622" lon="-2.36066">
        <ele>23.1</ele>
        <time>2018-09-20T10:37:34.000Z</time>
      </trkpt>
      <trkpt lat="46.69623" lon="-2.36064">
        <ele>23.2</ele>
        <time>2018-09-20T10:37:35.000Z</time>
      </trkpt>
      <trkpt lat="46.69624" lon="-2.36063">
        <ele>23.2</ele>
        <time>2018-09-20T10:37:36.000Z</time>
      </trkpt>
      <trkpt lat="46.69624" lon="-2.36061">
        <ele>23.2</ele>
        <time>2018-09-20T10:37:37.000Z</time>
      </trkpt>
      <trkpt lat="46.69625" lon="-2.3606">
        <ele>23.2</ele>
        <time>2018-09-20T10:37:38.000Z</time>
      </trkpt>
      <trkpt lat="46.69625" lon="-2.36058">
        <ele>23.2</ele>
        <time>2018-09-20T10:37:39.000Z</time>
      </trkpt>
      <trkpt lat="46.69625" lon="-2.36057">
        <ele>23.2</ele>
        <time>2018-09-20T10:37:40.000Z</time>
      </trkpt>
      <trkpt lat="46.69625" lon="-2.36055">
        <ele>23.2</ele>
        <time>2018-09-20T10:37:41.000Z</time>
      </trkpt>
      <trkpt lat="46.69626" lon="-2.36054">
        <ele>23.2</ele>
        <time>2018-09-20T10:37:42.000Z</time>
      </trkpt>
      <trkpt lat="46.69626" lon="-2.36053">
        <ele>23.2</ele>
        <time>2018-09-20T10:37:43.000Z</time>
      </trkpt>
      <trkpt lat="46.69626" lon="-2.36051">
        <ele>23.1</ele>
        <time>2018-09-20T10:37:44.000Z</time>
      </trkpt>
      <trkpt lat="46.69626" lon="-2.3605">
        <ele>23.1</ele>
        <time>2018-09-20T10:37:45.000Z</time>
      </trkpt>
      <trkpt lat="46.69625" lon="-2.36048">
        <ele>23.1</ele>
        <time>2018-09-20T10:37:46.000Z</time>
      </trkpt>
      <trkpt lat="46.69625" lon="-2.36047">
        <ele>23.1</ele>
        <time>2018-09-20T10:37:47.000Z</time>
      </trkpt>
      <trkpt lat="46.69625" lon="-2.36045">
        <ele>23</ele>
        <time>2018-09-20T10:37:48.000Z</time>
      </trkpt>
      <trkpt lat="46.69624" lon="-2.36044">
        <ele>23</ele>
        <time>2018-09-20T10:37:49.000Z</time>
      </trkpt>
      <trkpt lat="46.69624" lon="-2.36043">
        <ele>22.9</ele>
        <time>2018-09-20T10:37:50.000Z</time>
      </trkpt>
      <trkpt lat="46.69623" lon="-2.36041">
        <ele>22.9</ele>
        <time>2018-09-20T10:37:51.000Z</time>
      </trkpt>
      <trkpt lat="46.69623" lon="-2.3604">
        <ele>22.9</ele>
        <time>2018-09-20T10:37:52.000Z</time>
      </trkpt>
      <trkpt lat="46.69622" lon="-2.36038">
        <ele>22.8</ele>
        <time>2018-09-20T10:37:53.000Z</time>
      </trkpt>
      <trkpt lat="46.69622" lon="-2.36037">
        <ele>22.7</ele>
        <time>2018-09-20T10:37:54.000Z</time>
      </trkpt>
      <trkpt lat="46.69621" lon="-2.36035">
        <ele>22.7</ele>
        <time>2018-09-20T10:37:55.000Z</time>
      </trkpt>
      <trkpt lat="46.69621" lon="-2.36033">
        <ele>22.6</ele>
        <time>2018-09-20T10:37:56.000Z</time>
      </trkpt>
      <trkpt lat="46.6962" lon="-2.36032">
        <ele>22.6</ele>
        <time>2018-09-20T10:37:57.000Z</time>
      </trkpt>
      <trkpt lat="46.69619" lon="-2.3603">
        <ele>22.5</ele>
        <time>2018-09-20T10:37:58.000Z</time>
      </trkpt>
      <trkpt lat="46.69619" lon="-2.36028">
        <ele>22.4</ele>
        <time>2018-09-20T10:37:59.000Z</time>
      </trkpt>
      <trkpt lat="46.69618" lon="-2.36026">
        <ele>22.4</ele>
        <time>2018-09-20T10:38:00.000Z</time>
      </trkpt>
      <trkpt lat="46.69617" lon="-2.36024">
        <ele>22.3</ele>
        <time>2018-09-20T10:38:01.000Z</time>
      </trkpt>
      <trkpt lat="46.69617" lon="-2.36022">
        <ele>22.3</ele>
        <time>2018-09-20T10:38:02.000Z</time>
      </trkpt>
      <trkpt lat="46.69616" lon="-2.3602">
        <ele>22.2</ele>
        <time>2018-09-20T10:38:03.000Z</time>
      </trkpt>
      <trkpt lat="46.69616" lon="-2.36019">
        <ele>22.2</ele>
        <time>2018-09-20T10:38:04.000Z</time>
      </trkpt>
      <trkpt lat="46.69616" lon="-2.36017">
        <ele>22.1</ele>
        <time>2018-09-20T10:38:05.000Z</time>
      </trkpt>
      <trkpt lat="46.69615" lon="-2.36016">
        <ele>22.1</ele>
        <time>2018-09-20T10:38:06.000Z</time>
      </trkpt>
      <trkpt lat="46.69615" lon="-2.36014">
        <ele>22.1</ele>
        <time>2018-09-20T10:38:07.000Z</time>
      </trkpt>
      <trkpt lat="46.69615" lon="-2.36012">
        <ele>22</ele>
        <time>2018-09-20T10:38:08.000Z</time>
      </trkpt>
      <trkpt lat="46.69615" lon="-2.36011">
        <ele>22</ele>
        <time>2018-09-20T10:38:09.000Z</time>
      </trkpt>
      <trkpt lat="46.69615" lon="-2.36009">
        <ele>22</ele>
        <time>2018-09-20T10:38:10.000Z</time>
      </trkpt>
      <trkpt lat="46.69615" lon="-2.36008">
        <ele>22</ele>
        <time>2018-09-20T10:38:11.000Z</time>
      </trkpt>
      <trkpt lat="46.69615" lon="-2.36006">
        <ele>22</ele>
        <time>2018-09-20T10:38:12.000Z</time>
      </trkpt>
      <trkpt lat="46.69615" lon="-2.36004">
        <ele>22</ele>
        <time>2018-09-20T10:38:13.000Z</time>
      </trkpt>
      <trkpt lat="46.69616" lon="-2.36003">
        <ele>22</ele>
        <time>2018-09-20T10:38:14.000Z</time>
      </trkpt>
      <trkpt lat="46.69616" lon="-2.36001">
        <ele>22</ele>
        <time>2018-09-20T10:38:15.000Z</time>
      </trkpt>
      <trkpt lat="46.69616" lon="-2.35999">
        <ele>22</ele>
        <time>2018-09-20T10:38:16.000Z</time>
      </trkpt>
      <trkpt lat="46.69616" lon="-2.35998">
        <ele>22</ele>
        <time>2018-09-20T10:38:17.000Z</time>
      </trkpt>
      <trkpt lat="46.69616" lon="-2.35996">
        <ele>22</ele>
        <time>2018-09-20T10:38:18.000Z</time>
      </trkpt>
      <trkpt lat="46.69616" lon="-2.35994">
        <ele>22</ele>
        <time>2018-09-20T10:38:19.000Z</time>
      </trkpt>
      <trkpt lat="46.69616" lon="-2.35993">
        <ele>21.9</ele>
        <time>2018-09-20T10:38:20.000Z</time>
      </trkpt>
      <trkpt lat="46.69616" lon="-2.35991">
        <ele>21.9</ele>
        <time>2018-09-20T10:38:21.000Z</time>
      </trkpt>
      <trkpt lat="46.69616" lon="-2.3599">
        <ele>21.9</ele>
        <time>2018-09-20T10:38:22.000Z</time>
      </trkpt>
      <trkpt lat="46.69616" lon="-2.35988">
        <ele>21.9</ele>
        <time>2018-09-20T10:38:23.000Z</time>
      </trkpt>
      <trkpt lat="46.69616" lon="-2.35987">
        <ele>21.9</ele>
        <time>2018-09-20T10:38:24.000Z</time>
      </trkpt>
      <trkpt lat="46.69616" lon="-2.35985">
        <ele>21.9</ele>
        <time>2018-09-20T10:38:25.000Z</time>
      </trkpt>
      <trkpt lat="46.69616" lon="-2.35983">
        <ele>21.9</ele>
        <time>2018-09-20T10:38:26.000Z</time>
      </trkpt>
      <trkpt lat="46.69616" lon="-2.35982">
        <ele>21.8</ele>
        <time>2018-09-20T10:38:27.000Z</time>
      </trkpt>
      <trkpt lat="46.69615" lon="-2.3598">
        <ele>21.8</ele>
        <time>2018-09-20T10:38:28.000Z</time>
      </trkpt>
      <trkpt lat="46.69615" lon="-2.35979">
        <ele>21.8</ele>
        <time>2018-09-20T10:38:29.000Z</time>
      </trkpt>
      <trkpt lat="46.69615" lon="-2.35977">
        <ele>21.8</ele>
        <time>2018-09-20T10:38:30.000Z</time>
      </trkpt>
      <trkpt lat="46.69616" lon="-2.35976">
        <ele>21.8</ele>
        <time>2018-09-20T10:38:31.000Z</time>
      </trkpt>
      <trkpt lat="46.69616" lon="-2.35974">
        <ele>21.8</ele>
        <time>2018-09-20T10:38:32.000Z</time>
      </trkpt>
      <trkpt lat="46.69616" lon="-2.35972">
        <ele>21.8</ele>
        <time>2018-09-20T10:38:33.000Z</time>
      </trkpt>
      <trkpt lat="46.69616" lon="-2.35971">
        <ele>21.8</ele>
        <time>2018-09-20T10:38:34.000Z</time>
      </trkpt>
      <trkpt lat="46.69617" lon="-2.35969">
        <ele>21.8</ele>
        <time>2018-09-20T10:38:35.000Z</time>
      </trkpt>
      <trkpt lat="46.69617" lon="-2.35967">
        <ele>21.9</ele>
        <time>2018-09-20T10:38:36.000Z</time>
      </trkpt>
      <trkpt lat="46.69617" lon="-2.35965">
        <ele>21.9</ele>
        <time>2018-09-20T10:38:37.000Z</time>
      </trkpt>
      <trkpt lat="46.69618" lon="-2.35964">
        <ele>21.9</ele>
        <time>2018-09-20T10:38:38.000Z</time>
      </trkpt>
      <trkpt lat="46.69618" lon="-2.35962">
        <ele>21.9</ele>
        <time>2018-09-20T10:38:39.000Z</time>
      </trkpt>
      <trkpt lat="46.69618" lon="-2.3596">
        <ele>21.9</ele>
        <time>2018-09-20T10:38:40.000Z</time>
      </trkpt>
      <trkpt lat="46.69618" lon="-2.35958">
        <ele>21.9</ele>
        <time>2018-09-20T10:38:41.000Z</time>
      </trkpt>
      <trkpt lat="46.69619" lon="-2.35957">
        <ele>21.9</ele>
        <time>2018-09-20T10:38:42.000Z</time>
      </trkpt>
      <trkpt lat="46.69619" lon="-2.35955">
        <ele>21.9</ele>
        <time>2018-09-20T10:38:43.000Z</time>
      </trkpt>
      <trkpt lat="46.69619" lon="-2.35953">
        <ele>21.9</ele>
        <time>2018-09-20T10:38:44.000Z</time>
      </trkpt>
      <trkpt lat="46.69619" lon="-2.35952">
        <ele>21.9</ele>
        <time>2018-09-20T10:38:45.000Z</time>
      </trkpt>
      <trkpt lat="46.69619" lon="-2.3595">
        <ele>21.9</ele>
        <time>2018-09-20T10:38:46.000Z</time>
      </trkpt>
      <trkpt lat="46.69619" lon="-2.35948">
        <ele>21.9</ele>
        <time>2018-09-20T10:38:47.000Z</time>
      </trkpt>
      <trkpt lat="46.69619" lon="-2.35946">
        <ele>21.8</ele>
        <time>2018-09-20T10:38:48.000Z</time>
      </trkpt>
      <trkpt lat="46.69618" lon="-2.35944">
        <ele>21.8</ele>
        <time>2018-09-20T10:38:49.000Z</time>
      </trkpt>
      <trkpt lat="46.69618" lon="-2.35943">
        <ele>21.8</ele>
        <time>2018-09-20T10:38:50.000Z</time>
      </trkpt>
      <trkpt lat="46.69618" lon="-2.35941">
        <ele>21.8</ele>
        <time>2018-09-20T10:38:51.000Z</time>
      </trkpt>
      <trkpt lat="46.69618" lon="-2.35939">
        <ele>21.8</ele>
        <time>2018-09-20T10:38:52.000Z</time>
      </trkpt>
      <trkpt lat="46.69617" lon="-2.35937">
        <ele>21.7</ele>
        <time>2018-09-20T10:38:53.000Z</time>
      </trkpt>
      <trkpt lat="46.69617" lon="-2.35936">
        <ele>21.7</ele>
        <time>2018-09-20T10:38:54.000Z</time>
      </trkpt>
      <trkpt lat="46.69617" lon="-2.35934">
        <ele>21.7</ele>
        <time>2018-09-20T10:38:55.000Z</time>
      </trkpt>
      <trkpt lat="46.69617" lon="-2.35932">
        <ele>21.7</ele>
        <time>2018-09-20T10:38:56.000Z</time>
      </trkpt>
      <trkpt lat="46.69616" lon="-2.3593">
        <ele>21.6</ele>
        <time>2018-09-20T10:38:57.000Z</time>
      </trkpt>
      <trkpt lat="46.69616" lon="-2.35929">
        <ele>21.6</ele>
        <time>2018-09-20T10:38:58.000Z</time>
      </trkpt>
      <trkpt lat="46.69615" lon="-2.35927">
        <ele>21.6</ele>
        <time>2018-09-20T10:38:59.000Z</time>
      </trkpt>
      <trkpt lat="46.69615" lon="-2.35925">
        <ele>21.6</ele>
        <time>2018-09-20T10:39:00.000Z</time>
      </trkpt>
      <trkpt lat="46.69615" lon="-2.35924">
        <ele>21.5</ele>
        <time>2018-09-20T10:39:01.000Z</time>
      </trkpt>
      <trkpt lat="46.69614" lon="-2.35922">
        <ele>21.5</ele>
        <time>2018-09-20T10:39:02.000Z</time>
      </trkpt>
      <trkpt lat="46.69614" lon="-2.3592">
        <ele>21.5</ele>
        <time>2018-09-20T10:39:03.000Z</time>
      </trkpt>
      <trkpt lat="46.69613" lon="-2.35919">
        <ele>21.4</ele>
        <time>2018-09-20T10:39:04.000Z</time>
      </trkpt>
      <trkpt lat="46.69613" lon="-2.35917">
        <ele>21.4</ele>
        <time>2018-09-20T10:39:05.000Z</time>
      </trkpt>
      <trkpt lat="46.69613" lon="-2.35916">
        <ele>21.4</ele>
        <time>2018-09-20T10:39:06.000Z</time>
      </trkpt>
      <trkpt lat="46.69612" lon="-2.35914">
        <ele>21.4</ele>
        <time>2018-09-20T10:39:07.000Z</time>
      </trkpt>
      <trkpt lat="46.69612" lon="-2.35913">
        <ele>21.4</ele>
        <time>2018-09-20T10:39:08.000Z</time>
      </trkpt>
      <trkpt lat="46.69612" lon="-2.35911">
        <ele>21.4</ele>
        <time>2018-09-20T10:39:09.000Z</time>
      </trkpt>
      <trkpt lat="46.69612" lon="-2.35909">
        <ele>21.4</ele>
        <time>2018-09-20T10:39:10.000Z</time>
      </trkpt>
      <trkpt lat="46.69612" lon="-2.35908">
        <ele>21.4</ele>
        <time>2018-09-20T10:39:11.000Z</time>
      </trkpt>
      <trkpt lat="46.69612" lon="-2.35906">
        <ele>21.4</ele>
        <time>2018-09-20T10:39:12.000Z</time>
      </trkpt>
      <trkpt lat="46.69612" lon="-2.35904">
        <ele>21.4</ele>
        <time>2018-09-20T10:39:13.000Z</time>
      </trkpt>
      <trkpt lat="46.69612" lon="-2.35902">
        <ele>21.4</ele>
        <time>2018-09-20T10:39:14.000Z</time>
      </trkpt>
      <trkpt lat="46.69612" lon="-2.359">
        <ele>21.4</ele>
        <time>2018-09-20T10:39:15.000Z</time>
      </trkpt>
      <trkpt lat="46.69612" lon="-2.35899">
        <ele>21.4</ele>
        <time>2018-09-20T10:39:16.000Z</time>
      </trkpt>
      <trkpt lat="46.69612" lon="-2.35897">
        <ele>21.4</ele>
        <time>2018-09-20T10:39:17.000Z</time>
      </trkpt>
      <trkpt lat="46.69611" lon="-2.35895">
        <ele>21.3</ele>
        <time>2018-09-20T10:39:18.000Z</time>
      </trkpt>
      <trkpt lat="46.69611" lon="-2.35893">
        <ele>21.3</ele>
        <time>2018-09-20T10:39:19.000Z</time>
      </trkpt>
      <trkpt lat="46.69611" lon="-2.35892">
        <ele>21.3</ele>
        <time>2018-09-20T10:39:20.000Z</time>
      </trkpt>
      <trkpt lat="46.69611" lon="-2.3589">
        <ele>21.3</ele>
        <time>2018-09-20T10:39:21.000Z</time>
      </trkpt>
      <trkpt lat="46.69611" lon="-2.35888">
        <ele>21.3</ele>
        <time>2018-09-20T10:39:22.000Z</time>
      </trkpt>
      <trkpt lat="46.69611" lon="-2.35886">
        <ele>21.3</ele>
        <time>2018-09-20T10:39:23.000Z</time>
      </trkpt>
      <trkpt lat="46.69611" lon="-2.35885">
        <ele>21.3</ele>
        <time>2018-09-20T10:39:24.000Z</time>
      </trkpt>
      <trkpt lat="46.69612" lon="-2.35883">
        <ele>21.4</ele>
        <time>2018-09-20T10:39:25.000Z</time>
      </trkpt>
      <trkpt lat="46.69612" lon="-2.35881">
        <ele>21.4</ele>
        <time>2018-09-20T10:39:26.000Z</time>
      </trkpt>
      <trkpt lat="46.69613" lon="-2.3588">
        <ele>21.4</ele>
        <time>2018-09-20T10:39:27.000Z</time>
      </trkpt>
      <trkpt lat="46.69613" lon="-2.35878">
        <ele>21.4</ele>
        <time>2018-09-20T10:39:28.000Z</time>
      </trkpt>
      <trkpt lat="46.69614" lon="-2.35877">
        <ele>21.5</ele>
        <time>2018-09-20T10:39:29.000Z</time>
      </trkpt>
      <trkpt lat="46.69614" lon="-2.35875">
        <ele>21.5</ele>
        <time>2018-09-20T10:39:30.000Z</time>
      </trkpt>
      <trkpt lat="46.69614" lon="-2.35874">
        <ele>21.5</ele>
        <time>2018-09-20T10:39:31.000Z</time>
      </trkpt>
      <trkpt lat="46.69613" lon="-2.35872">
        <ele>21.4</ele>
        <time>2018-09-20T10:39:32.000Z</time>
      </trkpt>
      <trkpt lat="46.69613" lon="-2.35871">
        <ele>21.4</ele>
        <time>2018-09-20T10:39:33.000Z</time>
      </trkpt>
      <trkpt lat="46.69612" lon="-2.3587">
        <ele>21.4</ele>
        <time>2018-09-20T10:39:34.000Z</time>
      </trkpt>
      <trkpt lat="46.69611" lon="-2.35868">
        <ele>21.3</ele>
        <time>2018-09-20T10:39:35.000Z</time>
      </trkpt>
      <trkpt lat="46.69611" lon="-2.35867">
        <ele>21.3</ele>
        <time>2018-09-20T10:39:36.000Z</time>
      </trkpt>
      <trkpt lat="46.6961" lon="-2.35865">
        <ele>21.3</ele>
        <time>2018-09-20T10:39:37.000Z</time>
      </trkpt>
      <trkpt lat="46.69609" lon="-2.35864">
        <ele>21.3</ele>
        <time>2018-09-20T10:39:38.000Z</time>
      </trkpt>
      <trkpt lat="46.69609" lon="-2.35863">
        <ele>21.2</ele>
        <time>2018-09-20T10:39:39.000Z</time>
      </trkpt>
      <trkpt lat="46.69608" lon="-2.35861">
        <ele>21.2</ele>
        <time>2018-09-20T10:39:40.000Z</time>
      </trkpt>
      <trkpt lat="46.69608" lon="-2.3586">
        <ele>21.2</ele>
        <time>2018-09-20T10:39:41.000Z</time>
      </trkpt>
      <trkpt lat="46.69607" lon="-2.35858">
        <ele>21.1</ele>
        <time>2018-09-20T10:39:42.000Z</time>
      </trkpt>
      <trkpt lat="46.69606" lon="-2.35857">
        <ele>21.1</ele>
        <time>2018-09-20T10:39:43.000Z</time>
      </trkpt>
      <trkpt lat="46.69606" lon="-2.35856">
        <ele>21.1</ele>
        <time>2018-09-20T10:39:44.000Z</time>
      </trkpt>
      <trkpt lat="46.69605" lon="-2.35854">
        <ele>21</ele>
        <time>2018-09-20T10:39:45.000Z</time>
      </trkpt>
      <trkpt lat="46.69604" lon="-2.35853">
        <ele>21</ele>
        <time>2018-09-20T10:39:46.000Z</time>
      </trkpt>
      <trkpt lat="46.69603" lon="-2.35852">
        <ele>21</ele>
        <time>2018-09-20T10:39:47.000Z</time>
      </trkpt>
      <trkpt lat="46.69603" lon="-2.35851">
        <ele>20.9</ele>
        <time>2018-09-20T10:39:48.000Z</time>
      </trkpt>
      <trkpt lat="46.69602" lon="-2.35851">
        <ele>20.9</ele>
        <time>2018-09-20T10:39:49.000Z</time>
      </trkpt>
      <trkpt lat="46.69601" lon="-2.3585">
        <ele>20.8</ele>
        <time>2018-09-20T10:39:50.000Z</time>
      </trkpt>
      <trkpt lat="46.696" lon="-2.35849">
        <ele>20.8</ele>
        <time>2018-09-20T10:39:51.000Z</time>
      </trkpt>
      <trkpt lat="46.69599" lon="-2.35848">
        <ele>20.8</ele>
        <time>2018-09-20T10:39:52.000Z</time>
      </trkpt>
      <trkpt lat="46.69598" lon="-2.35848">
        <ele>20.7</ele>
        <time>2018-09-20T10:39:53.000Z</time>
      </trkpt>
      <trkpt lat="46.69597" lon="-2.35847">
        <ele>20.7</ele>
        <time>2018-09-20T10:39:54.000Z</time>
      </trkpt>
      <trkpt lat="46.69596" lon="-2.35847">
        <ele>20.6</ele>
        <time>2018-09-20T10:39:55.000Z</time>
      </trkpt>
      <trkpt lat="46.69595" lon="-2.35846">
        <ele>20.6</ele>
        <time>2018-09-20T10:39:56.000Z</time>
      </trkpt>
      <trkpt lat="46.69594" lon="-2.35845">
        <ele>20.5</ele>
        <time>2018-09-20T10:39:57.000Z</time>
      </trkpt>
      <trkpt lat="46.69593" lon="-2.35845">
        <ele>20.4</ele>
        <time>2018-09-20T10:39:58.000Z</time>
      </trkpt>
      <trkpt lat="46.69591" lon="-2.35844">
        <ele>20.4</ele>
        <time>2018-09-20T10:39:59.000Z</time>
      </trkpt>
      <trkpt lat="46.6959" lon="-2.35844">
        <ele>20.3</ele>
        <time>2018-09-20T10:40:00.000Z</time>
      </trkpt>
      <trkpt lat="46.69589" lon="-2.35843">
        <ele>20.3</ele>
        <time>2018-09-20T10:40:01.000Z</time>
      </trkpt>
      <trkpt lat="46.69588" lon="-2.35843">
        <ele>20.2</ele>
        <time>2018-09-20T10:40:02.000Z</time>
      </trkpt>
      <trkpt lat="46.69587" lon="-2.35842">
        <ele>20.2</ele>
        <time>2018-09-20T10:40:03.000Z</time>
      </trkpt>
      <trkpt lat="46.69585" lon="-2.35842">
        <ele>20.1</ele>
        <time>2018-09-20T10:40:04.000Z</time>
      </trkpt>
      <trkpt lat="46.69584" lon="-2.35841">
        <ele>20</ele>
        <time>2018-09-20T10:40:05.000Z</time>
      </trkpt>
      <trkpt lat="46.69583" lon="-2.35841">
        <ele>19.9</ele>
        <time>2018-09-20T10:40:06.000Z</time>
      </trkpt>
      <trkpt lat="46.69582" lon="-2.3584">
        <ele>19.7</ele>
        <time>2018-09-20T10:40:07.000Z</time>
      </trkpt>
      <trkpt lat="46.69581" lon="-2.3584">
        <ele>19.4</ele>
        <time>2018-09-20T10:40:08.000Z</time>
      </trkpt>
      <trkpt lat="46.6958" lon="-2.35839">
        <ele>19.2</ele>
        <time>2018-09-20T10:40:09.000Z</time>
      </trkpt>
      <trkpt lat="46.69578" lon="-2.35839">
        <ele>19</ele>
        <time>2018-09-20T10:40:10.000Z</time>
      </trkpt>
      <trkpt lat="46.69577" lon="-2.35838">
        <ele>18.8</ele>
        <time>2018-09-20T10:40:11.000Z</time>
      </trkpt>
      <trkpt lat="46.69576" lon="-2.35838">
        <ele>18.6</ele>
        <time>2018-09-20T10:40:12.000Z</time>
      </trkpt>
      <trkpt lat="46.69575" lon="-2.35837">
        <ele>18.4</ele>
        <time>2018-09-20T10:40:13.000Z</time>
      </trkpt>
      <trkpt lat="46.69574" lon="-2.35837">
        <ele>18.2</ele>
        <time>2018-09-20T10:40:14.000Z</time>
      </trkpt>
      <trkpt lat="46.69573" lon="-2.35836">
        <ele>18</ele>
        <time>2018-09-20T10:40:15.000Z</time>
      </trkpt>
      <trkpt lat="46.69572" lon="-2.35836">
        <ele>17.8</ele>
        <time>2018-09-20T10:40:16.000Z</time>
      </trkpt>
      <trkpt lat="46.69571" lon="-2.35835">
        <ele>17.5</ele>
        <time>2018-09-20T10:40:17.000Z</time>
      </trkpt>
      <trkpt lat="46.6957" lon="-2.35834">
        <ele>17.3</ele>
        <time>2018-09-20T10:40:18.000Z</time>
      </trkpt>
      <trkpt lat="46.69569" lon="-2.35834">
        <ele>17.1</ele>
        <time>2018-09-20T10:40:19.000Z</time>
      </trkpt>
      <trkpt lat="46.69568" lon="-2.35833">
        <ele>16.9</ele>
        <time>2018-09-20T10:40:20.000Z</time>
      </trkpt>
      <trkpt lat="46.69567" lon="-2.35832">
        <ele>16.6</ele>
        <time>2018-09-20T10:40:21.000Z</time>
      </trkpt>
      <trkpt lat="46.69566" lon="-2.35831">
        <ele>16.4</ele>
        <time>2018-09-20T10:40:22.000Z</time>
      </trkpt>
      <trkpt lat="46.69565" lon="-2.35831">
        <ele>16.1</ele>
        <time>2018-09-20T10:40:23.000Z</time>
      </trkpt>
      <trkpt lat="46.69564" lon="-2.3583">
        <ele>15.9</ele>
        <time>2018-09-20T10:40:24.000Z</time>
      </trkpt>
      <trkpt lat="46.69563" lon="-2.35829">
        <ele>15.7</ele>
        <time>2018-09-20T10:40:25.000Z</time>
      </trkpt>
      <trkpt lat="46.69562" lon="-2.35828">
        <ele>15.4</ele>
        <time>2018-09-20T10:40:26.000Z</time>
      </trkpt>
      <trkpt lat="46.69562" lon="-2.35826">
        <ele>15.2</ele>
        <time>2018-09-20T10:40:27.000Z</time>
      </trkpt>
      <trkpt lat="46.69561" lon="-2.35825">
        <ele>15</ele>
        <time>2018-09-20T10:40:28.000Z</time>
      </trkpt>
      <trkpt lat="46.6956" lon="-2.35824">
        <ele>14.9</ele>
        <time>2018-09-20T10:40:29.000Z</time>
      </trkpt>
      <trkpt lat="46.6956" lon="-2.35822">
        <ele>14.7</ele>
        <time>2018-09-20T10:40:30.000Z</time>
      </trkpt>
      <trkpt lat="46.69559" lon="-2.35821">
        <ele>14.5</ele>
        <time>2018-09-20T10:40:31.000Z</time>
      </trkpt>
      <trkpt lat="46.69559" lon="-2.3582">
        <ele>14.4</ele>
        <time>2018-09-20T10:40:32.000Z</time>
      </trkpt>
      <trkpt lat="46.69559" lon="-2.35818">
        <ele>14.3</ele>
        <time>2018-09-20T10:40:33.000Z</time>
      </trkpt>
      <trkpt lat="46.69559" lon="-2.35816">
        <ele>14.2</ele>
        <time>2018-09-20T10:40:34.000Z</time>
      </trkpt>
      <trkpt lat="46.69559" lon="-2.35815">
        <ele>14.1</ele>
        <time>2018-09-20T10:40:35.000Z</time>
      </trkpt>
      <trkpt lat="46.69559" lon="-2.35813">
        <ele>14.1</ele>
        <time>2018-09-20T10:40:36.000Z</time>
      </trkpt>
      <trkpt lat="46.69559" lon="-2.35812">
        <ele>14</ele>
        <time>2018-09-20T10:40:37.000Z</time>
      </trkpt>
      <trkpt lat="46.69559" lon="-2.3581">
        <ele>14</ele>
        <time>2018-09-20T10:40:38.000Z</time>
      </trkpt>
      <trkpt lat="46.69559" lon="-2.35809">
        <ele>14</ele>
        <time>2018-09-20T10:40:39.000Z</time>
      </trkpt>
      <trkpt lat="46.6956" lon="-2.35807">
        <ele>13.9</ele>
        <time>2018-09-20T10:40:40.000Z</time>
      </trkpt>
      <trkpt lat="46.6956" lon="-2.35806">
        <ele>14</ele>
        <time>2018-09-20T10:40:41.000Z</time>
      </trkpt>
      <trkpt lat="46.6956" lon="-2.35805">
        <ele>14</ele>
        <time>2018-09-20T10:40:42.000Z</time>
      </trkpt>
      <trkpt lat="46.69561" lon="-2.35803">
        <ele>14</ele>
        <time>2018-09-20T10:40:43.000Z</time>
      </trkpt>
      <trkpt lat="46.69561" lon="-2.35802">
        <ele>14</ele>
        <time>2018-09-20T10:40:44.000Z</time>
      </trkpt>
      <trkpt lat="46.69562" lon="-2.35801">
        <ele>14.1</ele>
        <time>2018-09-20T10:40:45.000Z</time>
      </trkpt>
      <trkpt lat="46.69562" lon="-2.35801">
        <ele>14.1</ele>
        <time>2018-09-20T10:40:46.000Z</time>
      </trkpt>
      <trkpt lat="46.69563" lon="-2.358">
        <ele>14.1</ele>
        <time>2018-09-20T10:40:47.000Z</time>
      </trkpt>
      <trkpt lat="46.69563" lon="-2.35799">
        <ele>14.2</ele>
        <time>2018-09-20T10:40:48.000Z</time>
      </trkpt>
      <trkpt lat="46.69563" lon="-2.35799">
        <ele>14.2</ele>
        <time>2018-09-20T10:40:49.000Z</time>
      </trkpt>
      <trkpt lat="46.69563" lon="-2.35799">
        <ele>14.2</ele>
        <time>2018-09-20T10:40:50.000Z</time>
      </trkpt>
      <trkpt lat="46.69563" lon="-2.35799">
        <ele>14.2</ele>
        <time>2018-09-20T10:40:51.000Z</time>
      </trkpt>
      <trkpt lat="46.69563" lon="-2.35799">
        <ele>14.2</ele>
        <time>2018-09-20T10:40:52.000Z</time>
      </trkpt>
      <trkpt lat="46.69563" lon="-2.35799">
        <ele>14.2</ele>
        <time>2018-09-20T10:40:53.000Z</time>
      </trkpt>
      <trkpt lat="46.69564" lon="-2.35798">
        <ele>14.3</ele>
        <time>2018-09-20T10:40:54.000Z</time>
      </trkpt>
      <trkpt lat="46.69564" lon="-2.35798">
        <ele>14.4</ele>
        <time>2018-09-20T10:40:55.000Z</time>
      </trkpt>
      <trkpt lat="46.69565" lon="-2.35797">
        <ele>14.4</ele>
        <time>2018-09-20T10:40:56.000Z</time>
      </trkpt>
      <trkpt lat="46.69565" lon="-2.35797">
        <ele>14.5</ele>
        <time>2018-09-20T10:40:57.000Z</time>
      </trkpt>
      <trkpt lat="46.69565" lon="-2.35796">
        <ele>14.5</ele>
        <time>2018-09-20T10:40:58.000Z</time>
      </trkpt>
      <trkpt lat="46.69566" lon="-2.35796">
        <ele>14.5</ele>
        <time>2018-09-20T10:40:59.000Z</time>
      </trkpt>
      <trkpt lat="46.69566" lon="-2.35796">
        <ele>14.5</ele>
        <time>2018-09-20T10:41:00.000Z</time>
      </trkpt>
      <trkpt lat="46.69566" lon="-2.35796">
        <ele>14.5</ele>
        <time>2018-09-20T10:41:01.000Z</time>
      </trkpt>
      <trkpt lat="46.69566" lon="-2.35796">
        <ele>14.5</ele>
        <time>2018-09-20T10:41:02.000Z</time>
      </trkpt>
      <trkpt lat="46.69566" lon="-2.35796">
        <ele>14.5</ele>
        <time>2018-09-20T10:41:03.000Z</time>
      </trkpt>
      <trkpt lat="46.69566" lon="-2.35796">
        <ele>14.5</ele>
        <time>2018-09-20T10:41:04.000Z</time>
      </trkpt>
      <trkpt lat="46.69566" lon="-2.35796">
        <ele>14.5</ele>
        <time>2018-09-20T10:41:05.000Z</time>
      </trkpt>
      <trkpt lat="46.69566" lon="-2.35796">
        <ele>14.5</ele>
        <time>2018-09-20T10:41:06.000Z</time>
      </trkpt>
      <trkpt lat="46.69566" lon="-2.35796">
        <ele>14.5</ele>
        <time>2018-09-20T10:41:07.000Z</time>
      </trkpt>
      <trkpt lat="46.69566" lon="-2.35796">
        <ele>14.5</ele>
        <time>2018-09-20T10:41:08.000Z</time>
      </trkpt>
      <trkpt lat="46.69566" lon="-2.35796">
        <ele>14.5</ele>
        <time>2018-09-20T10:41:09.000Z</time>
      </trkpt>
      <trkpt lat="46.69566" lon="-2.35796">
        <ele>14.5</ele>
        <time>2018-09-20T10:41:10.000Z</time>
      </trkpt>
      <trkpt lat="46.69566" lon="-2.35796">
        <ele>14.5</ele>
        <time>2018-09-20T10:41:11.000Z</time>
      </trkpt>
      <trkpt lat="46.69566" lon="-2.35796">
        <ele>14.5</ele>
        <time>2018-09-20T10:41:12.000Z</time>
      </trkpt>
      <trkpt lat="46.69566" lon="-2.35796">
        <ele>14.5</ele>
        <time>2018-09-20T10:41:13.000Z</time>
      </trkpt>
      <trkpt lat="46.69566" lon="-2.35796">
        <ele>14.5</ele>
        <time>2018-09-20T10:41:14.000Z</time>
      </trkpt>
      <trkpt lat="46.69566" lon="-2.35796">
        <ele>14.5</ele>
        <time>2018-09-20T10:41:15.000Z</time>
      </trkpt>
      <trkpt lat="46.69566" lon="-2.35796">
        <ele>14.5</ele>
        <time>2018-09-20T10:41:16.000Z</time>
      </trkpt>
      <trkpt lat="46.69566" lon="-2.35796">
        <ele>14.5</ele>
        <time>2018-09-20T10:41:17.000Z</time>
      </trkpt>
      <trkpt lat="46.69566" lon="-2.35796">
        <ele>14.5</ele>
        <time>2018-09-20T10:41:18.000Z</time>
      </trkpt>
      <trkpt lat="46.69566" lon="-2.35796">
        <ele>14.5</ele>
        <time>2018-09-20T10:41:19.000Z</time>
      </trkpt>
      <trkpt lat="46.69566" lon="-2.35796">
        <ele>14.5</ele>
        <time>2018-09-20T10:41:20.000Z</time>
      </trkpt>
      <trkpt lat="46.69566" lon="-2.35796">
        <ele>14.5</ele>
        <time>2018-09-20T10:41:21.000Z</time>
      </trkpt>
      <trkpt lat="46.69566" lon="-2.35796">
        <ele>14.5</ele>
        <time>2018-09-20T10:41:22.000Z</time>
      </trkpt>
      <trkpt lat="46.69566" lon="-2.35796">
        <ele>14.5</ele>
        <time>2018-09-20T10:41:23.000Z</time>
      </trkpt>
      <trkpt lat="46.69566" lon="-2.35796">
        <ele>14.5</ele>
        <time>2018-09-20T10:41:24.000Z</time>
      </trkpt>
      <trkpt lat="46.69566" lon="-2.35796">
        <ele>14.5</ele>
        <time>2018-09-20T10:41:25.000Z</time>
      </trkpt>
      <trkpt lat="46.69566" lon="-2.35796">
        <ele>14.5</ele>
        <time>2018-09-20T10:41:26.000Z</time>
      </trkpt>
      <trkpt lat="46.69566" lon="-2.35796">
        <ele>14.5</ele>
        <time>2018-09-20T10:41:27.000Z</time>
      </trkpt>
      <trkpt lat="46.69566" lon="-2.35796">
        <ele>14.5</ele>
        <time>2018-09-20T10:41:28.000Z</time>
      </trkpt>
      <trkpt lat="46.69566" lon="-2.35796">
        <ele>14.5</ele>
        <time>2018-09-20T10:41:29.000Z</time>
      </trkpt>
      <trkpt lat="46.69566" lon="-2.35796">
        <ele>14.5</ele>
        <time>2018-09-20T10:41:30.000Z</time>
      </trkpt>
      <trkpt lat="46.69566" lon="-2.35796">
        <ele>14.5</ele>
        <time>2018-09-20T10:41:31.000Z</time>
      </trkpt>
      <trkpt lat="46.69566" lon="-2.35796">
        <ele>14.5</ele>
        <time>2018-09-20T10:41:32.000Z</time>
      </trkpt>
      <trkpt lat="46.69566" lon="-2.35796">
        <ele>14.5</ele>
        <time>2018-09-20T10:41:33.000Z</time>
      </trkpt>
      <trkpt lat="46.69566" lon="-2.35796">
        <ele>14.5</ele>
        <time>2018-09-20T10:41:34.000Z</time>
      </trkpt>
      <trkpt lat="46.69566" lon="-2.35796">
        <ele>14.5</ele>
        <time>2018-09-20T10:41:35.000Z</time>
      </trkpt>
      <trkpt lat="46.69566" lon="-2.35796">
        <ele>14.5</ele>
        <time>2018-09-20T10:41:36.000Z</time>
      </trkpt>
      <trkpt lat="46.69566" lon="-2.35796">
        <ele>14.5</ele>
        <time>2018-09-20T10:41:37.000Z</time>
      </trkpt>
      <trkpt lat="46.69565" lon="-2.35796">
        <ele>14.5</ele>
        <time>2018-09-20T10:41:38.000Z</time>
      </trkpt>
      <trkpt lat="46.69565" lon="-2.35796">
        <ele>14.5</ele>
        <time>2018-09-20T10:41:39.000Z</time>
      </trkpt>
      <trkpt lat="46.69566" lon="-2.35796">
        <ele>14.5</ele>
        <time>2018-09-20T10:41:40.000Z</time>
      </trkpt>
      <trkpt lat="46.69566" lon="-2.35795">
        <ele>14.5</ele>
        <time>2018-09-20T10:41:41.000Z</time>
      </trkpt>
      <trkpt lat="46.69567" lon="-2.35794">
        <ele>14.6</ele>
        <time>2018-09-20T10:41:42.000Z</time>
      </trkpt>
      <trkpt lat="46.69567" lon="-2.35793">
        <ele>14.7</ele>
        <time>2018-09-20T10:41:43.000Z</time>
      </trkpt>
      <trkpt lat="46.69568" lon="-2.35792">
        <ele>14.8</ele>
        <time>2018-09-20T10:41:44.000Z</time>
      </trkpt>
      <trkpt lat="46.69569" lon="-2.35791">
        <ele>14.8</ele>
        <time>2018-09-20T10:41:45.000Z</time>
      </trkpt>
      <trkpt lat="46.6957" lon="-2.35791">
        <ele>14.9</ele>
        <time>2018-09-20T10:41:46.000Z</time>
      </trkpt>
      <trkpt lat="46.6957" lon="-2.3579">
        <ele>15</ele>
        <time>2018-09-20T10:41:47.000Z</time>
      </trkpt>
      <trkpt lat="46.69571" lon="-2.35789">
        <ele>15.1</ele>
        <time>2018-09-20T10:41:48.000Z</time>
      </trkpt>
      <trkpt lat="46.69571" lon="-2.35789">
        <ele>15.2</ele>
        <time>2018-09-20T10:41:49.000Z</time>
      </trkpt>
      <trkpt lat="46.69572" lon="-2.35789">
        <ele>15.2</ele>
        <time>2018-09-20T10:41:50.000Z</time>
      </trkpt>
      <trkpt lat="46.69572" lon="-2.35788">
        <ele>15.3</ele>
        <time>2018-09-20T10:41:51.000Z</time>
      </trkpt>
      <trkpt lat="46.69572" lon="-2.35788">
        <ele>15.3</ele>
        <time>2018-09-20T10:41:52.000Z</time>
      </trkpt>
      <trkpt lat="46.69572" lon="-2.35788">
        <ele>15.3</ele>
        <time>2018-09-20T10:41:53.000Z</time>
      </trkpt>
      <trkpt lat="46.69573" lon="-2.35787">
        <ele>15.3</ele>
        <time>2018-09-20T10:41:54.000Z</time>
      </trkpt>
      <trkpt lat="46.69573" lon="-2.35787">
        <ele>15.3</ele>
        <time>2018-09-20T10:41:55.000Z</time>
      </trkpt>
      <trkpt lat="46.69573" lon="-2.35787">
        <ele>15.3</ele>
        <time>2018-09-20T10:41:56.000Z</time>
      </trkpt>
      <trkpt lat="46.69573" lon="-2.35786">
        <ele>15.4</ele>
        <time>2018-09-20T10:41:57.000Z</time>
      </trkpt>
      <trkpt lat="46.69573" lon="-2.35786">
        <ele>15.4</ele>
        <time>2018-09-20T10:41:58.000Z</time>
      </trkpt>
      <trkpt lat="46.69574" lon="-2.35785">
        <ele>15.4</ele>
        <time>2018-09-20T10:41:59.000Z</time>
      </trkpt>
      <trkpt lat="46.69574" lon="-2.35784">
        <ele>15.4</ele>
        <time>2018-09-20T10:42:00.000Z</time>
      </trkpt>
      <trkpt lat="46.69574" lon="-2.35784">
        <ele>15.4</ele>
        <time>2018-09-20T10:42:01.000Z</time>
      </trkpt>
      <trkpt lat="46.69575" lon="-2.35783">
        <ele>15.4</ele>
        <time>2018-09-20T10:42:02.000Z</time>
      </trkpt>
      <trkpt lat="46.69575" lon="-2.35782">
        <ele>15.4</ele>
        <time>2018-09-20T10:42:03.000Z</time>
      </trkpt>
      <trkpt lat="46.69575" lon="-2.35781">
        <ele>15.4</ele>
        <time>2018-09-20T10:42:04.000Z</time>
      </trkpt>
      <trkpt lat="46.69575" lon="-2.35779">
        <ele>15.4</ele>
        <time>2018-09-20T10:42:05.000Z</time>
      </trkpt>
      <trkpt lat="46.69576" lon="-2.35778">
        <ele>15.3</ele>
        <time>2018-09-20T10:42:06.000Z</time>
      </trkpt>
      <trkpt lat="46.69576" lon="-2.35777">
        <ele>15.3</ele>
        <time>2018-09-20T10:42:07.000Z</time>
      </trkpt>
      <trkpt lat="46.69576" lon="-2.35775">
        <ele>15.2</ele>
        <time>2018-09-20T10:42:08.000Z</time>
      </trkpt>
      <trkpt lat="46.69576" lon="-2.35774">
        <ele>15.1</ele>
        <time>2018-09-20T10:42:09.000Z</time>
      </trkpt>
      <trkpt lat="46.69576" lon="-2.35772">
        <ele>15.1</ele>
        <time>2018-09-20T10:42:10.000Z</time>
      </trkpt>
      <trkpt lat="46.69576" lon="-2.3577">
        <ele>15</ele>
        <time>2018-09-20T10:42:11.000Z</time>
      </trkpt>
      <trkpt lat="46.69576" lon="-2.35769">
        <ele>14.9</ele>
        <time>2018-09-20T10:42:12.000Z</time>
      </trkpt>
      <trkpt lat="46.69576" lon="-2.35767">
        <ele>14.8</ele>
        <time>2018-09-20T10:42:13.000Z</time>
      </trkpt>
      <trkpt lat="46.69576" lon="-2.35765">
        <ele>14.8</ele>
        <time>2018-09-20T10:42:14.000Z</time>
      </trkpt>
      <trkpt lat="46.69576" lon="-2.35764">
        <ele>14.7</ele>
        <time>2018-09-20T10:42:15.000Z</time>
      </trkpt>
      <trkpt lat="46.69577" lon="-2.35762">
        <ele>14.6</ele>
        <time>2018-09-20T10:42:16.000Z</time>
      </trkpt>
      <trkpt lat="46.69577" lon="-2.35761">
        <ele>14.5</ele>
        <time>2018-09-20T10:42:17.000Z</time>
      </trkpt>
      <trkpt lat="46.69577" lon="-2.35759">
        <ele>14.5</ele>
        <time>2018-09-20T10:42:18.000Z</time>
      </trkpt>
      <trkpt lat="46.69577" lon="-2.35758">
        <ele>14.4</ele>
        <time>2018-09-20T10:42:19.000Z</time>
      </trkpt>
      <trkpt lat="46.69577" lon="-2.35757">
        <ele>14.4</ele>
        <time>2018-09-20T10:42:20.000Z</time>
      </trkpt>
      <trkpt lat="46.69577" lon="-2.35756">
        <ele>14.4</ele>
        <time>2018-09-20T10:42:21.000Z</time>
      </trkpt>
      <trkpt lat="46.69577" lon="-2.35754">
        <ele>14.3</ele>
        <time>2018-09-20T10:42:22.000Z</time>
      </trkpt>
      <trkpt lat="46.69578" lon="-2.35753">
        <ele>14.3</ele>
        <time>2018-09-20T10:42:23.000Z</time>
      </trkpt>
      <trkpt lat="46.69578" lon="-2.35752">
        <ele>14.3</ele>
        <time>2018-09-20T10:42:24.000Z</time>
      </trkpt>
      <trkpt lat="46.69579" lon="-2.35752">
        <ele>14.3</ele>
        <time>2018-09-20T10:42:25.000Z</time>
      </trkpt>
      <trkpt lat="46.69579" lon="-2.35751">
        <ele>14.3</ele>
        <time>2018-09-20T10:42:26.000Z</time>
      </trkpt>
      <trkpt lat="46.69579" lon="-2.3575">
        <ele>14.3</ele>
        <time>2018-09-20T10:42:27.000Z</time>
      </trkpt>
      <trkpt lat="46.69579" lon="-2.3575">
        <ele>14.3</ele>
        <time>2018-09-20T10:42:28.000Z</time>
      </trkpt>
      <trkpt lat="46.69579" lon="-2.3575">
        <ele>14.3</ele>
        <time>2018-09-20T10:42:29.000Z</time>
      </trkpt>
      <trkpt lat="46.69579" lon="-2.3575">
        <ele>14.3</ele>
        <time>2018-09-20T10:42:30.000Z</time>
      </trkpt>
      <trkpt lat="46.69579" lon="-2.35751">
        <ele>14.3</ele>
        <time>2018-09-20T10:42:31.000Z</time>
      </trkpt>
      <trkpt lat="46.69579" lon="-2.35751">
        <ele>14.3</ele>
        <time>2018-09-20T10:42:32.000Z</time>
      </trkpt>
      <trkpt lat="46.69579" lon="-2.3575">
        <ele>14.3</ele>
        <time>2018-09-20T10:42:33.000Z</time>
      </trkpt>
      <trkpt lat="46.69579" lon="-2.3575">
        <ele>14.3</ele>
        <time>2018-09-20T10:42:34.000Z</time>
      </trkpt>
      <trkpt lat="46.6958" lon="-2.35749">
        <ele>14.4</ele>
        <time>2018-09-20T10:42:35.000Z</time>
      </trkpt>
      <trkpt lat="46.6958" lon="-2.35749">
        <ele>14.4</ele>
        <time>2018-09-20T10:42:36.000Z</time>
      </trkpt>
      <trkpt lat="46.6958" lon="-2.35748">
        <ele>14.4</ele>
        <time>2018-09-20T10:42:37.000Z</time>
      </trkpt>
      <trkpt lat="46.69581" lon="-2.35748">
        <ele>14.4</ele>
        <time>2018-09-20T10:42:38.000Z</time>
      </trkpt>
      <trkpt lat="46.69581" lon="-2.35747">
        <ele>14.4</ele>
        <time>2018-09-20T10:42:39.000Z</time>
      </trkpt>
      <trkpt lat="46.69581" lon="-2.35747">
        <ele>14.4</ele>
        <time>2018-09-20T10:42:40.000Z</time>
      </trkpt>
      <trkpt lat="46.69581" lon="-2.35747">
        <ele>14.5</ele>
        <time>2018-09-20T10:42:41.000Z</time>
      </trkpt>
      <trkpt lat="46.69581" lon="-2.35747">
        <ele>14.4</ele>
        <time>2018-09-20T10:42:42.000Z</time>
      </trkpt>
      <trkpt lat="46.69581" lon="-2.35747">
        <ele>14.4</ele>
        <time>2018-09-20T10:42:43.000Z</time>
      </trkpt>
      <trkpt lat="46.69581" lon="-2.35747">
        <ele>14.4</ele>
        <time>2018-09-20T10:42:44.000Z</time>
      </trkpt>
      <trkpt lat="46.69581" lon="-2.35747">
        <ele>14.4</ele>
        <time>2018-09-20T10:42:45.000Z</time>
      </trkpt>
      <trkpt lat="46.69581" lon="-2.35747">
        <ele>14.4</ele>
        <time>2018-09-20T10:42:46.000Z</time>
      </trkpt>
      <trkpt lat="46.69581" lon="-2.35747">
        <ele>14.4</ele>
        <time>2018-09-20T10:42:47.000Z</time>
      </trkpt>
      <trkpt lat="46.69581" lon="-2.35747">
        <ele>14.4</ele>
        <time>2018-09-20T10:42:48.000Z</time>
      </trkpt>
      <trkpt lat="46.69581" lon="-2.35747">
        <ele>14.4</ele>
        <time>2018-09-20T10:42:49.000Z</time>
      </trkpt>
      <trkpt lat="46.69581" lon="-2.35747">
        <ele>14.4</ele>
        <time>2018-09-20T10:42:50.000Z</time>
      </trkpt>
      <trkpt lat="46.69581" lon="-2.35747">
        <ele>14.4</ele>
        <time>2018-09-20T10:42:51.000Z</time>
      </trkpt>
      <trkpt lat="46.69581" lon="-2.35747">
        <ele>14.4</ele>
        <time>2018-09-20T10:42:52.000Z</time>
      </trkpt>
      <trkpt lat="46.69581" lon="-2.35747">
        <ele>14.4</ele>
        <time>2018-09-20T10:42:53.000Z</time>
      </trkpt>
      <trkpt lat="46.69581" lon="-2.35747">
        <ele>14.4</ele>
        <time>2018-09-20T10:42:54.000Z</time>
      </trkpt>
      <trkpt lat="46.69581" lon="-2.35747">
        <ele>14.5</ele>
        <time>2018-09-20T10:42:55.000Z</time>
      </trkpt>
      <trkpt lat="46.69581" lon="-2.35746">
        <ele>14.5</ele>
        <time>2018-09-20T10:42:56.000Z</time>
      </trkpt>
      <trkpt lat="46.69582" lon="-2.35746">
        <ele>14.5</ele>
        <time>2018-09-20T10:42:57.000Z</time>
      </trkpt>
      <trkpt lat="46.69582" lon="-2.35746">
        <ele>14.5</ele>
        <time>2018-09-20T10:42:58.000Z</time>
      </trkpt>
      <trkpt lat="46.69582" lon="-2.35745">
        <ele>14.5</ele>
        <time>2018-09-20T10:42:59.000Z</time>
      </trkpt>
      <trkpt lat="46.69583" lon="-2.35745">
        <ele>14.6</ele>
        <time>2018-09-20T10:43:00.000Z</time>
      </trkpt>
      <trkpt lat="46.69583" lon="-2.35745">
        <ele>14.6</ele>
        <time>2018-09-20T10:43:01.000Z</time>
      </trkpt>
      <trkpt lat="46.69583" lon="-2.35745">
        <ele>14.6</ele>
        <time>2018-09-20T10:43:02.000Z</time>
      </trkpt>
      <trkpt lat="46.69583" lon="-2.35744">
        <ele>14.6</ele>
        <time>2018-09-20T10:43:03.000Z</time>
      </trkpt>
      <trkpt lat="46.69583" lon="-2.35744">
        <ele>14.6</ele>
        <time>2018-09-20T10:43:04.000Z</time>
      </trkpt>
      <trkpt lat="46.69583" lon="-2.35744">
        <ele>14.7</ele>
        <time>2018-09-20T10:43:05.000Z</time>
      </trkpt>
      <trkpt lat="46.69583" lon="-2.35744">
        <ele>14.6</ele>
        <time>2018-09-20T10:43:06.000Z</time>
      </trkpt>
      <trkpt lat="46.69584" lon="-2.35744">
        <ele>14.7</ele>
        <time>2018-09-20T10:43:07.000Z</time>
      </trkpt>
      <trkpt lat="46.69584" lon="-2.35744">
        <ele>14.7</ele>
        <time>2018-09-20T10:43:08.000Z</time>
      </trkpt>
      <trkpt lat="46.69584" lon="-2.35744">
        <ele>14.7</ele>
        <time>2018-09-20T10:43:09.000Z</time>
      </trkpt>
      <trkpt lat="46.69584" lon="-2.35744">
        <ele>14.7</ele>
        <time>2018-09-20T10:43:10.000Z</time>
      </trkpt>
      <trkpt lat="46.69584" lon="-2.35744">
        <ele>14.7</ele>
        <time>2018-09-20T10:43:11.000Z</time>
      </trkpt>
      <trkpt lat="46.69584" lon="-2.35744">
        <ele>14.7</ele>
        <time>2018-09-20T10:43:12.000Z</time>
      </trkpt>
      <trkpt lat="46.69584" lon="-2.35744">
        <ele>14.7</ele>
        <time>2018-09-20T10:43:13.000Z</time>
      </trkpt>
      <trkpt lat="46.69584" lon="-2.35744">
        <ele>14.7</ele>
        <time>2018-09-20T10:43:14.000Z</time>
      </trkpt>
      <trkpt lat="46.69584" lon="-2.35744">
        <ele>14.7</ele>
        <time>2018-09-20T10:43:15.000Z</time>
      </trkpt>
      <trkpt lat="46.69584" lon="-2.35744">
        <ele>14.7</ele>
        <time>2018-09-20T10:43:16.000Z</time>
      </trkpt>
      <trkpt lat="46.69584" lon="-2.35744">
        <ele>14.7</ele>
        <time>2018-09-20T10:43:17.000Z</time>
      </trkpt>
      <trkpt lat="46.69584" lon="-2.35744">
        <ele>14.7</ele>
        <time>2018-09-20T10:43:18.000Z</time>
      </trkpt>
      <trkpt lat="46.69584" lon="-2.35744">
        <ele>14.7</ele>
        <time>2018-09-20T10:43:19.000Z</time>
      </trkpt>
      <trkpt lat="46.69584" lon="-2.35744">
        <ele>14.7</ele>
        <time>2018-09-20T10:43:20.000Z</time>
      </trkpt>
      <trkpt lat="46.69584" lon="-2.35744">
        <ele>14.7</ele>
        <time>2018-09-20T10:43:21.000Z</time>
      </trkpt>
      <trkpt lat="46.69584" lon="-2.35744">
        <ele>14.7</ele>
        <time>2018-09-20T10:43:22.000Z</time>
      </trkpt>
      <trkpt lat="46.69584" lon="-2.35744">
        <ele>14.7</ele>
        <time>2018-09-20T10:43:23.000Z</time>
      </trkpt>
      <trkpt lat="46.69584" lon="-2.35744">
        <ele>14.7</ele>
        <time>2018-09-20T10:43:24.000Z</time>
      </trkpt>
      <trkpt lat="46.69584" lon="-2.35744">
        <ele>14.7</ele>
        <time>2018-09-20T10:43:25.000Z</time>
      </trkpt>
      <trkpt lat="46.69584" lon="-2.35744">
        <ele>14.7</ele>
        <time>2018-09-20T10:43:26.000Z</time>
      </trkpt>
      <trkpt lat="46.69584" lon="-2.35744">
        <ele>14.7</ele>
        <time>2018-09-20T10:43:27.000Z</time>
      </trkpt>
      <trkpt lat="46.69584" lon="-2.35744">
        <ele>14.7</ele>
        <time>2018-09-20T10:43:28.000Z</time>
      </trkpt>
      <trkpt lat="46.69584" lon="-2.35744">
        <ele>14.7</ele>
        <time>2018-09-20T10:43:29.000Z</time>
      </trkpt>
      <trkpt lat="46.69584" lon="-2.35744">
        <ele>14.7</ele>
        <time>2018-09-20T10:43:30.000Z</time>
      </trkpt>
      <trkpt lat="46.69584" lon="-2.35744">
        <ele>14.7</ele>
        <time>2018-09-20T10:43:31.000Z</time>
      </trkpt>
      <trkpt lat="46.69584" lon="-2.35744">
        <ele>14.7</ele>
        <time>2018-09-20T10:43:32.000Z</time>
      </trkpt>
      <trkpt lat="46.69584" lon="-2.35744">
        <ele>14.7</ele>
        <time>2018-09-20T10:43:33.000Z</time>
      </trkpt>
      <trkpt lat="46.69584" lon="-2.35744">
        <ele>14.7</ele>
        <time>2018-09-20T10:43:34.000Z</time>
      </trkpt>
      <trkpt lat="46.69584" lon="-2.35744">
        <ele>14.7</ele>
        <time>2018-09-20T10:43:35.000Z</time>
      </trkpt>
      <trkpt lat="46.69584" lon="-2.35744">
        <ele>14.7</ele>
        <time>2018-09-20T10:43:36.000Z</time>
      </trkpt>
      <trkpt lat="46.69584" lon="-2.35744">
        <ele>14.7</ele>
        <time>2018-09-20T10:43:37.000Z</time>
      </trkpt>
      <trkpt lat="46.69584" lon="-2.35744">
        <ele>14.7</ele>
        <time>2018-09-20T10:43:38.000Z</time>
      </trkpt>
      <trkpt lat="46.69584" lon="-2.35744">
        <ele>14.7</ele>
        <time>2018-09-20T10:43:39.000Z</time>
      </trkpt>
      <trkpt lat="46.69584" lon="-2.35744">
        <ele>14.7</ele>
        <time>2018-09-20T10:43:40.000Z</time>
      </trkpt>
      <trkpt lat="46.69584" lon="-2.35744">
        <ele>14.7</ele>
        <time>2018-09-20T10:43:41.000Z</time>
      </trkpt>
      <trkpt lat="46.69584" lon="-2.35744">
        <ele>14.7</ele>
        <time>2018-09-20T10:43:42.000Z</time>
      </trkpt>
      <trkpt lat="46.69584" lon="-2.35744">
        <ele>14.7</ele>
        <time>2018-09-20T10:43:43.000Z</time>
      </trkpt>
      <trkpt lat="46.69584" lon="-2.35744">
        <ele>14.7</ele>
        <time>2018-09-20T10:43:44.000Z</time>
      </trkpt>
      <trkpt lat="46.69584" lon="-2.35744">
        <ele>14.7</ele>
        <time>2018-09-20T10:43:45.000Z</time>
      </trkpt>
      <trkpt lat="46.69584" lon="-2.35744">
        <ele>14.7</ele>
        <time>2018-09-20T10:43:46.000Z</time>
      </trkpt>
      <trkpt lat="46.69584" lon="-2.35744">
        <ele>14.7</ele>
        <time>2018-09-20T10:43:47.000Z</time>
      </trkpt>
      <trkpt lat="46.69584" lon="-2.35744">
        <ele>14.7</ele>
        <time>2018-09-20T10:43:48.000Z</time>
      </trkpt>
      <trkpt lat="46.69584" lon="-2.35744">
        <ele>14.7</ele>
        <time>2018-09-20T10:43:49.000Z</time>
      </trkpt>
      <trkpt lat="46.69584" lon="-2.35744">
        <ele>14.7</ele>
        <time>2018-09-20T10:43:50.000Z</time>
      </trkpt>
      <trkpt lat="46.69584" lon="-2.35744">
        <ele>14.7</ele>
        <time>2018-09-20T10:43:51.000Z</time>
      </trkpt>
      <trkpt lat="46.69584" lon="-2.35744">
        <ele>14.7</ele>
        <time>2018-09-20T10:43:52.000Z</time>
      </trkpt>
      <trkpt lat="46.69584" lon="-2.35744">
        <ele>14.7</ele>
        <time>2018-09-20T10:43:53.000Z</time>
      </trkpt>
      <trkpt lat="46.69584" lon="-2.35744">
        <ele>14.7</ele>
        <time>2018-09-20T10:43:54.000Z</time>
      </trkpt>
      <trkpt lat="46.69584" lon="-2.35744">
        <ele>14.7</ele>
        <time>2018-09-20T10:43:55.000Z</time>
      </trkpt>
      <trkpt lat="46.69584" lon="-2.35744">
        <ele>14.7</ele>
        <time>2018-09-20T10:43:56.000Z</time>
      </trkpt>
      <trkpt lat="46.69584" lon="-2.35744">
        <ele>14.7</ele>
        <time>2018-09-20T10:43:57.000Z</time>
      </trkpt>
      <trkpt lat="46.69584" lon="-2.35744">
        <ele>14.7</ele>
        <time>2018-09-20T10:43:58.000Z</time>
      </trkpt>
      <trkpt lat="46.69584" lon="-2.35744">
        <ele>14.7</ele>
        <time>2018-09-20T10:43:59.000Z</time>
      </trkpt>
      <trkpt lat="46.69584" lon="-2.35744">
        <ele>14.7</ele>
        <time>2018-09-20T10:44:00.000Z</time>
      </trkpt>
      <trkpt lat="46.69584" lon="-2.35744">
        <ele>14.7</ele>
        <time>2018-09-20T10:44:01.000Z</time>
      </trkpt>
      <trkpt lat="46.69584" lon="-2.35744">
        <ele>14.7</ele>
        <time>2018-09-20T10:44:02.000Z</time>
      </trkpt>
      <trkpt lat="46.69584" lon="-2.35744">
        <ele>14.7</ele>
        <time>2018-09-20T10:44:03.000Z</time>
      </trkpt>
      <trkpt lat="46.69584" lon="-2.35744">
        <ele>14.7</ele>
        <time>2018-09-20T10:44:04.000Z</time>
      </trkpt>
      <trkpt lat="46.69584" lon="-2.35744">
        <ele>14.7</ele>
        <time>2018-09-20T10:44:05.000Z</time>
      </trkpt>
      <trkpt lat="46.69584" lon="-2.35744">
        <ele>14.7</ele>
        <time>2018-09-20T10:44:06.000Z</time>
      </trkpt>
      <trkpt lat="46.69584" lon="-2.35744">
        <ele>14.7</ele>
        <time>2018-09-20T10:44:07.000Z</time>
      </trkpt>
      <trkpt lat="46.69584" lon="-2.35744">
        <ele>14.7</ele>
        <time>2018-09-20T10:44:08.000Z</time>
      </trkpt>
      <trkpt lat="46.69584" lon="-2.35744">
        <ele>14.7</ele>
        <time>2018-09-20T10:44:09.000Z</time>
      </trkpt>
      <trkpt lat="46.69584" lon="-2.35744">
        <ele>14.7</ele>
        <time>2018-09-20T10:44:10.000Z</time>
      </trkpt>
      <trkpt lat="46.69584" lon="-2.35744">
        <ele>14.7</ele>
        <time>2018-09-20T10:44:11.000Z</time>
      </trkpt>
      <trkpt lat="46.69584" lon="-2.35744">
        <ele>14.7</ele>
        <time>2018-09-20T10:44:12.000Z</time>
      </trkpt>
      <trkpt lat="46.69584" lon="-2.35744">
        <ele>14.7</ele>
        <time>2018-09-20T10:44:13.000Z</time>
      </trkpt>
      <trkpt lat="46.69584" lon="-2.35744">
        <ele>14.7</ele>
        <time>2018-09-20T10:44:14.000Z</time>
      </trkpt>
      <trkpt lat="46.69584" lon="-2.35744">
        <ele>14.7</ele>
        <time>2018-09-20T10:44:15.000Z</time>
      </trkpt>
      <trkpt lat="46.69584" lon="-2.35744">
        <ele>14.7</ele>
        <time>2018-09-20T10:44:16.000Z</time>
      </trkpt>
      <trkpt lat="46.69584" lon="-2.35744">
        <ele>14.7</ele>
        <time>2018-09-20T10:44:17.000Z</time>
      </trkpt>
      <trkpt lat="46.69584" lon="-2.35744">
        <ele>14.7</ele>
        <time>2018-09-20T10:44:18.000Z</time>
      </trkpt>
      <trkpt lat="46.69584" lon="-2.35744">
        <ele>14.7</ele>
        <time>2018-09-20T10:44:19.000Z</time>
      </trkpt>
      <trkpt lat="46.69584" lon="-2.35744">
        <ele>14.7</ele>
        <time>2018-09-20T10:44:20.000Z</time>
      </trkpt>
      <trkpt lat="46.69584" lon="-2.35744">
        <ele>14.7</ele>
        <time>2018-09-20T10:44:21.000Z</time>
      </trkpt>
      <trkpt lat="46.69584" lon="-2.35744">
        <ele>14.7</ele>
        <time>2018-09-20T10:44:22.000Z</time>
      </trkpt>
      <trkpt lat="46.69584" lon="-2.35744">
        <ele>14.7</ele>
        <time>2018-09-20T10:44:23.000Z</time>
      </trkpt>
      <trkpt lat="46.69584" lon="-2.35744">
        <ele>14.7</ele>
        <time>2018-09-20T10:44:24.000Z</time>
      </trkpt>
      <trkpt lat="46.69584" lon="-2.35744">
        <ele>14.7</ele>
        <time>2018-09-20T10:44:25.000Z</time>
      </trkpt>
      <trkpt lat="46.69584" lon="-2.35744">
        <ele>14.7</ele>
        <time>2018-09-20T10:44:26.000Z</time>
      </trkpt>
      <trkpt lat="46.69584" lon="-2.35744">
        <ele>14.7</ele>
        <time>2018-09-20T10:44:27.000Z</time>
      </trkpt>
      <trkpt lat="46.69584" lon="-2.35744">
        <ele>14.7</ele>
        <time>2018-09-20T10:44:28.000Z</time>
      </trkpt>
      <trkpt lat="46.69584" lon="-2.35744">
        <ele>14.7</ele>
        <time>2018-09-20T10:44:29.000Z</time>
      </trkpt>
      <trkpt lat="46.69584" lon="-2.35744">
        <ele>14.7</ele>
        <time>2018-09-20T10:44:30.000Z</time>
      </trkpt>
      <trkpt lat="46.69584" lon="-2.35744">
        <ele>14.7</ele>
        <time>2018-09-20T10:44:31.000Z</time>
      </trkpt>
      <trkpt lat="46.69584" lon="-2.35744">
        <ele>14.7</ele>
        <time>2018-09-20T10:44:32.000Z</time>
      </trkpt>
      <trkpt lat="46.69584" lon="-2.35744">
        <ele>14.7</ele>
        <time>2018-09-20T10:44:33.000Z</time>
      </trkpt>
      <trkpt lat="46.69584" lon="-2.35744">
        <ele>14.7</ele>
        <time>2018-09-20T10:44:34.000Z</time>
      </trkpt>
      <trkpt lat="46.69584" lon="-2.35744">
        <ele>14.7</ele>
        <time>2018-09-20T10:44:35.000Z</time>
      </trkpt>
      <trkpt lat="46.69584" lon="-2.35744">
        <ele>14.7</ele>
        <time>2018-09-20T10:44:36.000Z</time>
      </trkpt>
      <trkpt lat="46.69584" lon="-2.35744">
        <ele>14.7</ele>
        <time>2018-09-20T10:44:37.000Z</time>
      </trkpt>
      <trkpt lat="46.69584" lon="-2.35744">
        <ele>14.7</ele>
        <time>2018-09-20T10:44:38.000Z</time>
      </trkpt>
      <trkpt lat="46.69584" lon="-2.35744">
        <ele>14.7</ele>
        <time>2018-09-20T10:44:39.000Z</time>
      </trkpt>
      <trkpt lat="46.69584" lon="-2.35744">
        <ele>14.7</ele>
        <time>2018-09-20T10:44:40.000Z</time>
      </trkpt>
      <trkpt lat="46.69584" lon="-2.35744">
        <ele>14.7</ele>
        <time>2018-09-20T10:44:41.000Z</time>
      </trkpt>
      <trkpt lat="46.69584" lon="-2.35744">
        <ele>14.7</ele>
        <time>2018-09-20T10:44:42.000Z</time>
      </trkpt>
      <trkpt lat="46.69584" lon="-2.35744">
        <ele>14.7</ele>
        <time>2018-09-20T10:44:43.000Z</time>
      </trkpt>
      <trkpt lat="46.69584" lon="-2.35744">
        <ele>14.7</ele>
        <time>2018-09-20T10:44:44.000Z</time>
      </trkpt>
      <trkpt lat="46.69584" lon="-2.35744">
        <ele>14.7</ele>
        <time>2018-09-20T10:44:45.000Z</time>
      </trkpt>
      <trkpt lat="46.69584" lon="-2.35744">
        <ele>14.7</ele>
        <time>2018-09-20T10:44:46.000Z</time>
      </trkpt>
      <trkpt lat="46.69584" lon="-2.35744">
        <ele>14.7</ele>
        <time>2018-09-20T10:44:47.000Z</time>
      </trkpt>
      <trkpt lat="46.69584" lon="-2.35744">
        <ele>14.7</ele>
        <time>2018-09-20T10:44:48.000Z</time>
      </trkpt>
      <trkpt lat="46.69584" lon="-2.35744">
        <ele>14.7</ele>
        <time>2018-09-20T10:44:49.000Z</time>
      </trkpt>
      <trkpt lat="46.69584" lon="-2.35744">
        <ele>14.7</ele>
        <time>2018-09-20T10:44:50.000Z</time>
      </trkpt>
      <trkpt lat="46.69584" lon="-2.35744">
        <ele>14.7</ele>
        <time>2018-09-20T10:44:51.000Z</time>
      </trkpt>
      <trkpt lat="46.69584" lon="-2.35744">
        <ele>14.7</ele>
        <time>2018-09-20T10:44:52.000Z</time>
      </trkpt>
      <trkpt lat="46.69584" lon="-2.35744">
        <ele>14.7</ele>
        <time>2018-09-20T10:44:53.000Z</time>
      </trkpt>
      <trkpt lat="46.69584" lon="-2.35744">
        <ele>14.7</ele>
        <time>2018-09-20T10:44:54.000Z</time>
      </trkpt>
      <trkpt lat="46.69584" lon="-2.35744">
        <ele>14.7</ele>
        <time>2018-09-20T10:44:55.000Z</time>
      </trkpt>
      <trkpt lat="46.69584" lon="-2.35744">
        <ele>14.7</ele>
        <time>2018-09-20T10:44:56.000Z</time>
      </trkpt>
      <trkpt lat="46.69584" lon="-2.35744">
        <ele>14.7</ele>
        <time>2018-09-20T10:44:57.000Z</time>
      </trkpt>
      <trkpt lat="46.69584" lon="-2.35744">
        <ele>14.7</ele>
        <time>2018-09-20T10:44:58.000Z</time>
      </trkpt>
      <trkpt lat="46.69584" lon="-2.35744">
        <ele>14.7</ele>
        <time>2018-09-20T10:44:59.000Z</time>
      </trkpt>
      <trkpt lat="46.69584" lon="-2.35744">
        <ele>14.7</ele>
        <time>2018-09-20T10:45:00.000Z</time>
      </trkpt>
      <trkpt lat="46.69584" lon="-2.35744">
        <ele>14.7</ele>
        <time>2018-09-20T10:45:01.000Z</time>
      </trkpt>
      <trkpt lat="46.69584" lon="-2.35744">
        <ele>14.7</ele>
        <time>2018-09-20T10:45:02.000Z</time>
      </trkpt>
      <trkpt lat="46.69584" lon="-2.35744">
        <ele>14.7</ele>
        <time>2018-09-20T10:45:03.000Z</time>
      </trkpt>
      <trkpt lat="46.69584" lon="-2.35744">
        <ele>14.7</ele>
        <time>2018-09-20T10:45:04.000Z</time>
      </trkpt>
      <trkpt lat="46.69584" lon="-2.35744">
        <ele>14.7</ele>
        <time>2018-09-20T10:45:05.000Z</time>
      </trkpt>
      <trkpt lat="46.69584" lon="-2.35744">
        <ele>14.7</ele>
        <time>2018-09-20T10:45:06.000Z</time>
      </trkpt>
      <trkpt lat="46.69584" lon="-2.35744">
        <ele>14.7</ele>
        <time>2018-09-20T10:45:07.000Z</time>
      </trkpt>
      <trkpt lat="46.69584" lon="-2.35744">
        <ele>14.7</ele>
        <time>2018-09-20T10:45:08.000Z</time>
      </trkpt>
      <trkpt lat="46.69584" lon="-2.35744">
        <ele>14.7</ele>
        <time>2018-09-20T10:45:09.000Z</time>
      </trkpt>
      <trkpt lat="46.69584" lon="-2.35744">
        <ele>14.7</ele>
        <time>2018-09-20T10:45:10.000Z</time>
      </trkpt>
      <trkpt lat="46.69584" lon="-2.35744">
        <ele>14.7</ele>
        <time>2018-09-20T10:45:11.000Z</time>
      </trkpt>
      <trkpt lat="46.69584" lon="-2.35744">
        <ele>14.7</ele>
        <time>2018-09-20T10:45:12.000Z</time>
      </trkpt>
      <trkpt lat="46.69584" lon="-2.35744">
        <ele>14.7</ele>
        <time>2018-09-20T10:45:13.000Z</time>
      </trkpt>
      <trkpt lat="46.69584" lon="-2.35744">
        <ele>14.7</ele>
        <time>2018-09-20T10:45:14.000Z</time>
      </trkpt>
      <trkpt lat="46.69584" lon="-2.35744">
        <ele>14.7</ele>
        <time>2018-09-20T10:45:15.000Z</time>
      </trkpt>
      <trkpt lat="46.69584" lon="-2.35744">
        <ele>14.7</ele>
        <time>2018-09-20T10:45:16.000Z</time>
      </trkpt>
      <trkpt lat="46.69584" lon="-2.35744">
        <ele>14.7</ele>
        <time>2018-09-20T10:45:17.000Z</time>
      </trkpt>
      <trkpt lat="46.69584" lon="-2.35744">
        <ele>14.7</ele>
        <time>2018-09-20T10:45:18.000Z</time>
      </trkpt>
      <trkpt lat="46.69584" lon="-2.35744">
        <ele>14.7</ele>
        <time>2018-09-20T10:45:19.000Z</time>
      </trkpt>
      <trkpt lat="46.69583" lon="-2.35744">
        <ele>14.7</ele>
        <time>2018-09-20T10:45:20.000Z</time>
      </trkpt>
      <trkpt lat="46.69583" lon="-2.35745">
        <ele>14.6</ele>
        <time>2018-09-20T10:45:21.000Z</time>
      </trkpt>
      <trkpt lat="46.69583" lon="-2.35745">
        <ele>14.6</ele>
        <time>2018-09-20T10:45:22.000Z</time>
      </trkpt>
      <trkpt lat="46.69582" lon="-2.35745">
        <ele>14.5</ele>
        <time>2018-09-20T10:45:23.000Z</time>
      </trkpt>
      <trkpt lat="46.69581" lon="-2.35746">
        <ele>14.4</ele>
        <time>2018-09-20T10:45:24.000Z</time>
      </trkpt>
      <trkpt lat="46.69581" lon="-2.35747">
        <ele>14.4</ele>
        <time>2018-09-20T10:45:25.000Z</time>
      </trkpt>
      <trkpt lat="46.6958" lon="-2.35748">
        <ele>14.3</ele>
        <time>2018-09-20T10:45:26.000Z</time>
      </trkpt>
      <trkpt lat="46.6958" lon="-2.35749">
        <ele>14.3</ele>
        <time>2018-09-20T10:45:27.000Z</time>
      </trkpt>
      <trkpt lat="46.69579" lon="-2.3575">
        <ele>14.4</ele>
        <time>2018-09-20T10:45:28.000Z</time>
      </trkpt>
      <trkpt lat="46.69579" lon="-2.35752">
        <ele>14.4</ele>
        <time>2018-09-20T10:45:29.000Z</time>
      </trkpt>
      <trkpt lat="46.69579" lon="-2.35754">
        <ele>14.5</ele>
        <time>2018-09-20T10:45:30.000Z</time>
      </trkpt>
      <trkpt lat="46.69579" lon="-2.35756">
        <ele>14.6</ele>
        <time>2018-09-20T10:45:31.000Z</time>
      </trkpt>
      <trkpt lat="46.69579" lon="-2.35757">
        <ele>14.7</ele>
        <time>2018-09-20T10:45:32.000Z</time>
      </trkpt>
      <trkpt lat="46.69578" lon="-2.35759">
        <ele>14.7</ele>
        <time>2018-09-20T10:45:33.000Z</time>
      </trkpt>
      <trkpt lat="46.69578" lon="-2.3576">
        <ele>14.8</ele>
        <time>2018-09-20T10:45:34.000Z</time>
      </trkpt>
      <trkpt lat="46.69578" lon="-2.35762">
        <ele>14.8</ele>
        <time>2018-09-20T10:45:35.000Z</time>
      </trkpt>
      <trkpt lat="46.69578" lon="-2.35763">
        <ele>14.9</ele>
        <time>2018-09-20T10:45:36.000Z</time>
      </trkpt>
      <trkpt lat="46.69577" lon="-2.35765">
        <ele>14.9</ele>
        <time>2018-09-20T10:45:37.000Z</time>
      </trkpt>
      <trkpt lat="46.69577" lon="-2.35766">
        <ele>14.9</ele>
        <time>2018-09-20T10:45:38.000Z</time>
      </trkpt>
      <trkpt lat="46.69577" lon="-2.35767">
        <ele>15</ele>
        <time>2018-09-20T10:45:39.000Z</time>
      </trkpt>
      <trkpt lat="46.69577" lon="-2.35769">
        <ele>15</ele>
        <time>2018-09-20T10:45:40.000Z</time>
      </trkpt>
      <trkpt lat="46.69576" lon="-2.3577">
        <ele>15</ele>
        <time>2018-09-20T10:45:41.000Z</time>
      </trkpt>
      <trkpt lat="46.69576" lon="-2.35771">
        <ele>15</ele>
        <time>2018-09-20T10:45:42.000Z</time>
      </trkpt>
      <trkpt lat="46.69576" lon="-2.35773">
        <ele>15.1</ele>
        <time>2018-09-20T10:45:43.000Z</time>
      </trkpt>
      <trkpt lat="46.69576" lon="-2.35774">
        <ele>15.1</ele>
        <time>2018-09-20T10:45:44.000Z</time>
      </trkpt>
      <trkpt lat="46.69575" lon="-2.35776">
        <ele>15.1</ele>
        <time>2018-09-20T10:45:45.000Z</time>
      </trkpt>
      <trkpt lat="46.69575" lon="-2.35777">
        <ele>15.2</ele>
        <time>2018-09-20T10:45:46.000Z</time>
      </trkpt>
      <trkpt lat="46.69575" lon="-2.35778">
        <ele>15.2</ele>
        <time>2018-09-20T10:45:47.000Z</time>
      </trkpt>
      <trkpt lat="46.69574" lon="-2.3578">
        <ele>15.2</ele>
        <time>2018-09-20T10:45:48.000Z</time>
      </trkpt>
      <trkpt lat="46.69574" lon="-2.35781">
        <ele>15.2</ele>
        <time>2018-09-20T10:45:49.000Z</time>
      </trkpt>
      <trkpt lat="46.69573" lon="-2.35783">
        <ele>15.2</ele>
        <time>2018-09-20T10:45:50.000Z</time>
      </trkpt>
      <trkpt lat="46.69573" lon="-2.35784">
        <ele>15.2</ele>
        <time>2018-09-20T10:45:51.000Z</time>
      </trkpt>
      <trkpt lat="46.69572" lon="-2.35785">
        <ele>15.2</ele>
        <time>2018-09-20T10:45:52.000Z</time>
      </trkpt>
      <trkpt lat="46.69572" lon="-2.35787">
        <ele>15.1</ele>
        <time>2018-09-20T10:45:53.000Z</time>
      </trkpt>
      <trkpt lat="46.69571" lon="-2.35788">
        <ele>15.1</ele>
        <time>2018-09-20T10:45:54.000Z</time>
      </trkpt>
      <trkpt lat="46.6957" lon="-2.35789">
        <ele>15</ele>
        <time>2018-09-20T10:45:55.000Z</time>
      </trkpt>
      <trkpt lat="46.6957" lon="-2.3579">
        <ele>15</ele>
        <time>2018-09-20T10:45:56.000Z</time>
      </trkpt>
      <trkpt lat="46.69569" lon="-2.35791">
        <ele>14.9</ele>
        <time>2018-09-20T10:45:57.000Z</time>
      </trkpt>
      <trkpt lat="46.69568" lon="-2.35792">
        <ele>14.8</ele>
        <time>2018-09-20T10:45:58.000Z</time>
      </trkpt>
      <trkpt lat="46.69567" lon="-2.35793">
        <ele>14.7</ele>
        <time>2018-09-20T10:45:59.000Z</time>
      </trkpt>
      <trkpt lat="46.69566" lon="-2.35794">
        <ele>14.6</ele>
        <time>2018-09-20T10:46:00.000Z</time>
      </trkpt>
      <trkpt lat="46.69566" lon="-2.35795">
        <ele>14.5</ele>
        <time>2018-09-20T10:46:01.000Z</time>
      </trkpt>
      <trkpt lat="46.69565" lon="-2.35796">
        <ele>14.4</ele>
        <time>2018-09-20T10:46:02.000Z</time>
      </trkpt>
      <trkpt lat="46.69564" lon="-2.35797">
        <ele>14.2</ele>
        <time>2018-09-20T10:46:03.000Z</time>
      </trkpt>
      <trkpt lat="46.69563" lon="-2.35798">
        <ele>14.2</ele>
        <time>2018-09-20T10:46:04.000Z</time>
      </trkpt>
      <trkpt lat="46.69562" lon="-2.35799">
        <ele>14.1</ele>
        <time>2018-09-20T10:46:05.000Z</time>
      </trkpt>
      <trkpt lat="46.69561" lon="-2.35801">
        <ele>14</ele>
        <time>2018-09-20T10:46:06.000Z</time>
      </trkpt>
      <trkpt lat="46.69561" lon="-2.35802">
        <ele>13.9</ele>
        <time>2018-09-20T10:46:07.000Z</time>
      </trkpt>
      <trkpt lat="46.6956" lon="-2.35803">
        <ele>13.8</ele>
        <time>2018-09-20T10:46:08.000Z</time>
      </trkpt>
      <trkpt lat="46.69559" lon="-2.35805">
        <ele>13.8</ele>
        <time>2018-09-20T10:46:09.000Z</time>
      </trkpt>
      <trkpt lat="46.69559" lon="-2.35806">
        <ele>13.8</ele>
        <time>2018-09-20T10:46:10.000Z</time>
      </trkpt>
      <trkpt lat="46.69558" lon="-2.35808">
        <ele>13.7</ele>
        <time>2018-09-20T10:46:11.000Z</time>
      </trkpt>
      <trkpt lat="46.69558" lon="-2.35809">
        <ele>13.7</ele>
        <time>2018-09-20T10:46:12.000Z</time>
      </trkpt>
      <trkpt lat="46.69558" lon="-2.35811">
        <ele>13.7</ele>
        <time>2018-09-20T10:46:13.000Z</time>
      </trkpt>
      <trkpt lat="46.69557" lon="-2.35813">
        <ele>13.8</ele>
        <time>2018-09-20T10:46:14.000Z</time>
      </trkpt>
      <trkpt lat="46.69557" lon="-2.35814">
        <ele>13.8</ele>
        <time>2018-09-20T10:46:15.000Z</time>
      </trkpt>
      <trkpt lat="46.69557" lon="-2.35816">
        <ele>13.9</ele>
        <time>2018-09-20T10:46:16.000Z</time>
      </trkpt>
      <trkpt lat="46.69557" lon="-2.35818">
        <ele>14</ele>
        <time>2018-09-20T10:46:17.000Z</time>
      </trkpt>
      <trkpt lat="46.69557" lon="-2.3582">
        <ele>14.1</ele>
        <time>2018-09-20T10:46:18.000Z</time>
      </trkpt>
      <trkpt lat="46.69558" lon="-2.35821">
        <ele>14.2</ele>
        <time>2018-09-20T10:46:19.000Z</time>
      </trkpt>
      <trkpt lat="46.69558" lon="-2.35823">
        <ele>14.4</ele>
        <time>2018-09-20T10:46:20.000Z</time>
      </trkpt>
      <trkpt lat="46.69559" lon="-2.35825">
        <ele>14.5</ele>
        <time>2018-09-20T10:46:21.000Z</time>
      </trkpt>
      <trkpt lat="46.69559" lon="-2.35827">
        <ele>14.7</ele>
        <time>2018-09-20T10:46:22.000Z</time>
      </trkpt>
      <trkpt lat="46.6956" lon="-2.35828">
        <ele>14.9</ele>
        <time>2018-09-20T10:46:23.000Z</time>
      </trkpt>
      <trkpt lat="46.6956" lon="-2.3583">
        <ele>15.1</ele>
        <time>2018-09-20T10:46:24.000Z</time>
      </trkpt>
      <trkpt lat="46.69561" lon="-2.35831">
        <ele>15.4</ele>
        <time>2018-09-20T10:46:25.000Z</time>
      </trkpt>
      <trkpt lat="46.69562" lon="-2.35832">
        <ele>15.6</ele>
        <time>2018-09-20T10:46:26.000Z</time>
      </trkpt>
      <trkpt lat="46.69563" lon="-2.35834">
        <ele>15.9</ele>
        <time>2018-09-20T10:46:27.000Z</time>
      </trkpt>
      <trkpt lat="46.69564" lon="-2.35835">
        <ele>16.1</ele>
        <time>2018-09-20T10:46:28.000Z</time>
      </trkpt>
      <trkpt lat="46.69566" lon="-2.35836">
        <ele>16.4</ele>
        <time>2018-09-20T10:46:29.000Z</time>
      </trkpt>
      <trkpt lat="46.69567" lon="-2.35837">
        <ele>16.6</ele>
        <time>2018-09-20T10:46:30.000Z</time>
      </trkpt>
      <trkpt lat="46.69568" lon="-2.35838">
        <ele>16.9</ele>
        <time>2018-09-20T10:46:31.000Z</time>
      </trkpt>
      <trkpt lat="46.69569" lon="-2.35838">
        <ele>17.1</ele>
        <time>2018-09-20T10:46:32.000Z</time>
      </trkpt>
      <trkpt lat="46.69571" lon="-2.35839">
        <ele>17.4</ele>
        <time>2018-09-20T10:46:33.000Z</time>
      </trkpt>
      <trkpt lat="46.69572" lon="-2.3584">
        <ele>17.6</ele>
        <time>2018-09-20T10:46:34.000Z</time>
      </trkpt>
      <trkpt lat="46.69573" lon="-2.3584">
        <ele>17.9</ele>
        <time>2018-09-20T10:46:35.000Z</time>
      </trkpt>
      <trkpt lat="46.69574" lon="-2.35841">
        <ele>18.1</ele>
        <time>2018-09-20T10:46:36.000Z</time>
      </trkpt>
      <trkpt lat="46.69575" lon="-2.35841">
        <ele>18.3</ele>
        <time>2018-09-20T10:46:37.000Z</time>
      </trkpt>
      <trkpt lat="46.69576" lon="-2.35842">
        <ele>18.5</ele>
        <time>2018-09-20T10:46:38.000Z</time>
      </trkpt>
      <trkpt lat="46.69577" lon="-2.35842">
        <ele>18.7</ele>
        <time>2018-09-20T10:46:39.000Z</time>
      </trkpt>
      <trkpt lat="46.69578" lon="-2.35842">
        <ele>18.9</ele>
        <time>2018-09-20T10:46:40.000Z</time>
      </trkpt>
      <trkpt lat="46.69579" lon="-2.35842">
        <ele>19.1</ele>
        <time>2018-09-20T10:46:41.000Z</time>
      </trkpt>
      <trkpt lat="46.6958" lon="-2.35843">
        <ele>19.3</ele>
        <time>2018-09-20T10:46:42.000Z</time>
      </trkpt>
      <trkpt lat="46.69581" lon="-2.35843">
        <ele>19.4</ele>
        <time>2018-09-20T10:46:43.000Z</time>
      </trkpt>
      <trkpt lat="46.69582" lon="-2.35843">
        <ele>19.6</ele>
        <time>2018-09-20T10:46:44.000Z</time>
      </trkpt>
      <trkpt lat="46.69582" lon="-2.35844">
        <ele>19.8</ele>
        <time>2018-09-20T10:46:45.000Z</time>
      </trkpt>
      <trkpt lat="46.69583" lon="-2.35844">
        <ele>20</ele>
        <time>2018-09-20T10:46:46.000Z</time>
      </trkpt>
      <trkpt lat="46.69584" lon="-2.35844">
        <ele>20</ele>
        <time>2018-09-20T10:46:47.000Z</time>
      </trkpt>
      <trkpt lat="46.69585" lon="-2.35845">
        <ele>20.1</ele>
        <time>2018-09-20T10:46:48.000Z</time>
      </trkpt>
      <trkpt lat="46.69586" lon="-2.35845">
        <ele>20.1</ele>
        <time>2018-09-20T10:46:49.000Z</time>
      </trkpt>
      <trkpt lat="46.69587" lon="-2.35846">
        <ele>20.2</ele>
        <time>2018-09-20T10:46:50.000Z</time>
      </trkpt>
      <trkpt lat="46.69589" lon="-2.35846">
        <ele>20.2</ele>
        <time>2018-09-20T10:46:51.000Z</time>
      </trkpt>
      <trkpt lat="46.6959" lon="-2.35847">
        <ele>20.3</ele>
        <time>2018-09-20T10:46:52.000Z</time>
      </trkpt>
      <trkpt lat="46.69591" lon="-2.35848">
        <ele>20.4</ele>
        <time>2018-09-20T10:46:53.000Z</time>
      </trkpt>
      <trkpt lat="46.69592" lon="-2.35848">
        <ele>20.4</ele>
        <time>2018-09-20T10:46:54.000Z</time>
      </trkpt>
      <trkpt lat="46.69593" lon="-2.35849">
        <ele>20.5</ele>
        <time>2018-09-20T10:46:55.000Z</time>
      </trkpt>
      <trkpt lat="46.69594" lon="-2.35849">
        <ele>20.5</ele>
        <time>2018-09-20T10:46:56.000Z</time>
      </trkpt>
      <trkpt lat="46.69595" lon="-2.3585">
        <ele>20.6</ele>
        <time>2018-09-20T10:46:57.000Z</time>
      </trkpt>
      <trkpt lat="46.69596" lon="-2.3585">
        <ele>20.6</ele>
        <time>2018-09-20T10:46:58.000Z</time>
      </trkpt>
      <trkpt lat="46.69597" lon="-2.35851">
        <ele>20.7</ele>
        <time>2018-09-20T10:46:59.000Z</time>
      </trkpt>
      <trkpt lat="46.69598" lon="-2.35851">
        <ele>20.7</ele>
        <time>2018-09-20T10:47:00.000Z</time>
      </trkpt>
      <trkpt lat="46.69599" lon="-2.35851">
        <ele>20.7</ele>
        <time>2018-09-20T10:47:01.000Z</time>
      </trkpt>
      <trkpt lat="46.69599" lon="-2.35851">
        <ele>20.8</ele>
        <time>2018-09-20T10:47:02.000Z</time>
      </trkpt>
      <trkpt lat="46.696" lon="-2.35852">
        <ele>20.8</ele>
        <time>2018-09-20T10:47:03.000Z</time>
      </trkpt>
      <trkpt lat="46.69601" lon="-2.35852">
        <ele>20.9</ele>
        <time>2018-09-20T10:47:04.000Z</time>
      </trkpt>
      <trkpt lat="46.69602" lon="-2.35852">
        <ele>20.9</ele>
        <time>2018-09-20T10:47:05.000Z</time>
      </trkpt>
      <trkpt lat="46.69603" lon="-2.35852">
        <ele>20.9</ele>
        <time>2018-09-20T10:47:06.000Z</time>
      </trkpt>
      <trkpt lat="46.69604" lon="-2.35852">
        <ele>21</ele>
        <time>2018-09-20T10:47:07.000Z</time>
      </trkpt>
      <trkpt lat="46.69605" lon="-2.35852">
        <ele>21</ele>
        <time>2018-09-20T10:47:08.000Z</time>
      </trkpt>
      <trkpt lat="46.69606" lon="-2.35852">
        <ele>21.1</ele>
        <time>2018-09-20T10:47:09.000Z</time>
      </trkpt>
      <trkpt lat="46.69607" lon="-2.35852">
        <ele>21.1</ele>
        <time>2018-09-20T10:47:10.000Z</time>
      </trkpt>
      <trkpt lat="46.69608" lon="-2.35852">
        <ele>21.2</ele>
        <time>2018-09-20T10:47:11.000Z</time>
      </trkpt>
      <trkpt lat="46.69609" lon="-2.35852">
        <ele>21.2</ele>
        <time>2018-09-20T10:47:12.000Z</time>
      </trkpt>
      <trkpt lat="46.6961" lon="-2.35852">
        <ele>21.3</ele>
        <time>2018-09-20T10:47:13.000Z</time>
      </trkpt>
      <trkpt lat="46.69611" lon="-2.35852">
        <ele>21.3</ele>
        <time>2018-09-20T10:47:14.000Z</time>
      </trkpt>
      <trkpt lat="46.69612" lon="-2.35852">
        <ele>21.4</ele>
        <time>2018-09-20T10:47:15.000Z</time>
      </trkpt>
      <trkpt lat="46.69614" lon="-2.35852">
        <ele>21.4</ele>
        <time>2018-09-20T10:47:16.000Z</time>
      </trkpt>
      <trkpt lat="46.69615" lon="-2.35852">
        <ele>21.5</ele>
        <time>2018-09-20T10:47:17.000Z</time>
      </trkpt>
      <trkpt lat="46.69616" lon="-2.35851">
        <ele>21.6</ele>
        <time>2018-09-20T10:47:18.000Z</time>
      </trkpt>
      <trkpt lat="46.69617" lon="-2.35851">
        <ele>21.6</ele>
        <time>2018-09-20T10:47:19.000Z</time>
      </trkpt>
      <trkpt lat="46.69618" lon="-2.35851">
        <ele>21.7</ele>
        <time>2018-09-20T10:47:20.000Z</time>
      </trkpt>
      <trkpt lat="46.69619" lon="-2.3585">
        <ele>21.7</ele>
        <time>2018-09-20T10:47:21.000Z</time>
      </trkpt>
      <trkpt lat="46.6962" lon="-2.35849">
        <ele>21.8</ele>
        <time>2018-09-20T10:47:22.000Z</time>
      </trkpt>
      <trkpt lat="46.69621" lon="-2.35849">
        <ele>21.8</ele>
        <time>2018-09-20T10:47:23.000Z</time>
      </trkpt>
      <trkpt lat="46.69622" lon="-2.35848">
        <ele>21.8</ele>
        <time>2018-09-20T10:47:24.000Z</time>
      </trkpt>
      <trkpt lat="46.69623" lon="-2.35847">
        <ele>21.9</ele>
        <time>2018-09-20T10:47:25.000Z</time>
      </trkpt>
      <trkpt lat="46.69623" lon="-2.35846">
        <ele>21.9</ele>
        <time>2018-09-20T10:47:26.000Z</time>
      </trkpt>
      <trkpt lat="46.69624" lon="-2.35845">
        <ele>21.9</ele>
        <time>2018-09-20T10:47:27.000Z</time>
      </trkpt>
      <trkpt lat="46.69624" lon="-2.35844">
        <ele>22</ele>
        <time>2018-09-20T10:47:28.000Z</time>
      </trkpt>
      <trkpt lat="46.69625" lon="-2.35843">
        <ele>22</ele>
        <time>2018-09-20T10:47:29.000Z</time>
      </trkpt>
      <trkpt lat="46.69625" lon="-2.35842">
        <ele>22</ele>
        <time>2018-09-20T10:47:30.000Z</time>
      </trkpt>
      <trkpt lat="46.69625" lon="-2.35841">
        <ele>22</ele>
        <time>2018-09-20T10:47:31.000Z</time>
      </trkpt>
      <trkpt lat="46.69625" lon="-2.3584">
        <ele>22</ele>
        <time>2018-09-20T10:47:32.000Z</time>
      </trkpt>
      <trkpt lat="46.69625" lon="-2.35839">
        <ele>22</ele>
        <time>2018-09-20T10:47:33.000Z</time>
      </trkpt>
      <trkpt lat="46.69625" lon="-2.35837">
        <ele>22</ele>
        <time>2018-09-20T10:47:34.000Z</time>
      </trkpt>
      <trkpt lat="46.69626" lon="-2.35836">
        <ele>22</ele>
        <time>2018-09-20T10:47:35.000Z</time>
      </trkpt>
      <trkpt lat="46.69626" lon="-2.35835">
        <ele>22</ele>
        <time>2018-09-20T10:47:36.000Z</time>
      </trkpt>
      <trkpt lat="46.69626" lon="-2.35833">
        <ele>22.1</ele>
        <time>2018-09-20T10:47:37.000Z</time>
      </trkpt>
      <trkpt lat="46.69627" lon="-2.35832">
        <ele>22.1</ele>
        <time>2018-09-20T10:47:38.000Z</time>
      </trkpt>
      <trkpt lat="46.69628" lon="-2.3583">
        <ele>22.1</ele>
        <time>2018-09-20T10:47:39.000Z</time>
      </trkpt>
      <trkpt lat="46.69629" lon="-2.35828">
        <ele>22</ele>
        <time>2018-09-20T10:47:40.000Z</time>
      </trkpt>
      <trkpt lat="46.6963" lon="-2.35827">
        <ele>22</ele>
        <time>2018-09-20T10:47:41.000Z</time>
      </trkpt>
      <trkpt lat="46.69631" lon="-2.35825">
        <ele>22.1</ele>
        <time>2018-09-20T10:47:42.000Z</time>
      </trkpt>
      <trkpt lat="46.69632" lon="-2.35823">
        <ele>22.1</ele>
        <time>2018-09-20T10:47:43.000Z</time>
      </trkpt>
      <trkpt lat="46.69632" lon="-2.35822">
        <ele>22.1</ele>
        <time>2018-09-20T10:47:44.000Z</time>
      </trkpt>
      <trkpt lat="46.69633" lon="-2.3582">
        <ele>22.1</ele>
        <time>2018-09-20T10:47:45.000Z</time>
      </trkpt>
      <trkpt lat="46.69634" lon="-2.35818">
        <ele>22.1</ele>
        <time>2018-09-20T10:47:46.000Z</time>
      </trkpt>
      <trkpt lat="46.69634" lon="-2.35817">
        <ele>22.1</ele>
        <time>2018-09-20T10:47:47.000Z</time>
      </trkpt>
      <trkpt lat="46.69635" lon="-2.35815">
        <ele>22.1</ele>
        <time>2018-09-20T10:47:48.000Z</time>
      </trkpt>
      <trkpt lat="46.69636" lon="-2.35814">
        <ele>22.1</ele>
        <time>2018-09-20T10:47:49.000Z</time>
      </trkpt>
      <trkpt lat="46.69636" lon="-2.35812">
        <ele>22.1</ele>
        <time>2018-09-20T10:47:50.000Z</time>
      </trkpt>
      <trkpt lat="46.69637" lon="-2.35811">
        <ele>22.1</ele>
        <time>2018-09-20T10:47:51.000Z</time>
      </trkpt>
      <trkpt lat="46.69637" lon="-2.3581">
        <ele>22.1</ele>
        <time>2018-09-20T10:47:52.000Z</time>
      </trkpt>
      <trkpt lat="46.69638" lon="-2.35808">
        <ele>22.1</ele>
        <time>2018-09-20T10:47:53.000Z</time>
      </trkpt>
      <trkpt lat="46.69639" lon="-2.35807">
        <ele>22.1</ele>
        <time>2018-09-20T10:47:54.000Z</time>
      </trkpt>
      <trkpt lat="46.69639" lon="-2.35806">
        <ele>22.1</ele>
        <time>2018-09-20T10:47:55.000Z</time>
      </trkpt>
      <trkpt lat="46.6964" lon="-2.35804">
        <ele>22.2</ele>
        <time>2018-09-20T10:47:56.000Z</time>
      </trkpt>
      <trkpt lat="46.69641" lon="-2.35803">
        <ele>22.2</ele>
        <time>2018-09-20T10:47:57.000Z</time>
      </trkpt>
      <trkpt lat="46.69642" lon="-2.35802">
        <ele>22.2</ele>
        <time>2018-09-20T10:47:58.000Z</time>
      </trkpt>
      <trkpt lat="46.69642" lon="-2.35801">
        <ele>22.3</ele>
        <time>2018-09-20T10:47:59.000Z</time>
      </trkpt>
      <trkpt lat="46.69643" lon="-2.358">
        <ele>22.3</ele>
        <time>2018-09-20T10:48:00.000Z</time>
      </trkpt>
      <trkpt lat="46.69644" lon="-2.35798">
        <ele>22.3</ele>
        <time>2018-09-20T10:48:01.000Z</time>
      </trkpt>
      <trkpt lat="46.69645" lon="-2.35797">
        <ele>22.4</ele>
        <time>2018-09-20T10:48:02.000Z</time>
      </trkpt>
      <trkpt lat="46.69645" lon="-2.35796">
        <ele>22.4</ele>
        <time>2018-09-20T10:48:03.000Z</time>
      </trkpt>
      <trkpt lat="46.69646" lon="-2.35795">
        <ele>22.4</ele>
        <time>2018-09-20T10:48:04.000Z</time>
      </trkpt>
      <trkpt lat="46.69647" lon="-2.35794">
        <ele>22.5</ele>
        <time>2018-09-20T10:48:05.000Z</time>
      </trkpt>
      <trkpt lat="46.69648" lon="-2.35793">
        <ele>22.5</ele>
        <time>2018-09-20T10:48:06.000Z</time>
      </trkpt>
      <trkpt lat="46.69649" lon="-2.35792">
        <ele>22.6</ele>
        <time>2018-09-20T10:48:07.000Z</time>
      </trkpt>
      <trkpt lat="46.69649" lon="-2.35791">
        <ele>22.6</ele>
        <time>2018-09-20T10:48:08.000Z</time>
      </trkpt>
      <trkpt lat="46.6965" lon="-2.3579">
        <ele>22.7</ele>
        <time>2018-09-20T10:48:09.000Z</time>
      </trkpt>
      <trkpt lat="46.69651" lon="-2.35788">
        <ele>22.8</ele>
        <time>2018-09-20T10:48:10.000Z</time>
      </trkpt>
      <trkpt lat="46.69653" lon="-2.35787">
        <ele>22.8</ele>
        <time>2018-09-20T10:48:11.000Z</time>
      </trkpt>
      <trkpt lat="46.69654" lon="-2.35786">
        <ele>22.9</ele>
        <time>2018-09-20T10:48:12.000Z</time>
      </trkpt>
      <trkpt lat="46.69655" lon="-2.35785">
        <ele>23</ele>
        <time>2018-09-20T10:48:13.000Z</time>
      </trkpt>
      <trkpt lat="46.69655" lon="-2.35784">
        <ele>23</ele>
        <time>2018-09-20T10:48:14.000Z</time>
      </trkpt>
      <trkpt lat="46.69656" lon="-2.35784">
        <ele>23.1</ele>
        <time>2018-09-20T10:48:15.000Z</time>
      </trkpt>
      <trkpt lat="46.69656" lon="-2.35783">
        <ele>23.1</ele>
        <time>2018-09-20T10:48:16.000Z</time>
      </trkpt>
      <trkpt lat="46.69656" lon="-2.35783">
        <ele>23.1</ele>
        <time>2018-09-20T10:48:17.000Z</time>
      </trkpt>
      <trkpt lat="46.69657" lon="-2.35783">
        <ele>23.1</ele>
        <time>2018-09-20T10:48:18.000Z</time>
      </trkpt>
      <trkpt lat="46.69657" lon="-2.35782">
        <ele>23.2</ele>
        <time>2018-09-20T10:48:19.000Z</time>
      </trkpt>
      <trkpt lat="46.69657" lon="-2.35781">
        <ele>23.2</ele>
        <time>2018-09-20T10:48:20.000Z</time>
      </trkpt>
      <trkpt lat="46.69658" lon="-2.35781">
        <ele>23.2</ele>
        <time>2018-09-20T10:48:21.000Z</time>
      </trkpt>
      <trkpt lat="46.69658" lon="-2.35779">
        <ele>23.3</ele>
        <time>2018-09-20T10:48:22.000Z</time>
      </trkpt>
      <trkpt lat="46.69659" lon="-2.35778">
        <ele>23.3</ele>
        <time>2018-09-20T10:48:23.000Z</time>
      </trkpt>
      <trkpt lat="46.6966" lon="-2.35777">
        <ele>23.4</ele>
        <time>2018-09-20T10:48:24.000Z</time>
      </trkpt>
      <trkpt lat="46.69661" lon="-2.35776">
        <ele>23.5</ele>
        <time>2018-09-20T10:48:25.000Z</time>
      </trkpt>
      <trkpt lat="46.69662" lon="-2.35775">
        <ele>23.5</ele>
        <time>2018-09-20T10:48:26.000Z</time>
      </trkpt>
      <trkpt lat="46.69662" lon="-2.35774">
        <ele>23.6</ele>
        <time>2018-09-20T10:48:27.000Z</time>
      </trkpt>
      <trkpt lat="46.69663" lon="-2.35773">
        <ele>23.7</ele>
        <time>2018-09-20T10:48:28.000Z</time>
      </trkpt>
      <trkpt lat="46.69664" lon="-2.35772">
        <ele>23.8</ele>
        <time>2018-09-20T10:48:29.000Z</time>
      </trkpt>
      <trkpt lat="46.69665" lon="-2.35771">
        <ele>23.8</ele>
        <time>2018-09-20T10:48:30.000Z</time>
      </trkpt>
      <trkpt lat="46.69666" lon="-2.3577">
        <ele>23.9</ele>
        <time>2018-09-20T10:48:31.000Z</time>
      </trkpt>
      <trkpt lat="46.69667" lon="-2.35769">
        <ele>24</ele>
        <time>2018-09-20T10:48:32.000Z</time>
      </trkpt>
      <trkpt lat="46.69668" lon="-2.35768">
        <ele>24</ele>
        <time>2018-09-20T10:48:33.000Z</time>
      </trkpt>
      <trkpt lat="46.69669" lon="-2.35767">
        <ele>24</ele>
        <time>2018-09-20T10:48:34.000Z</time>
      </trkpt>
      <trkpt lat="46.6967" lon="-2.35765">
        <ele>24</ele>
        <time>2018-09-20T10:48:35.000Z</time>
      </trkpt>
      <trkpt lat="46.6967" lon="-2.35764">
        <ele>24</ele>
        <time>2018-09-20T10:48:36.000Z</time>
      </trkpt>
      <trkpt lat="46.69671" lon="-2.35763">
        <ele>24</ele>
        <time>2018-09-20T10:48:37.000Z</time>
      </trkpt>
      <trkpt lat="46.69672" lon="-2.35762">
        <ele>24</ele>
        <time>2018-09-20T10:48:38.000Z</time>
      </trkpt>
      <trkpt lat="46.69673" lon="-2.35761">
        <ele>24</ele>
        <time>2018-09-20T10:48:39.000Z</time>
      </trkpt>
      <trkpt lat="46.69674" lon="-2.35759">
        <ele>24</ele>
        <time>2018-09-20T10:48:40.000Z</time>
      </trkpt>
      <trkpt lat="46.69675" lon="-2.35758">
        <ele>24</ele>
        <time>2018-09-20T10:48:41.000Z</time>
      </trkpt>
      <trkpt lat="46.69676" lon="-2.35757">
        <ele>24</ele>
        <time>2018-09-20T10:48:42.000Z</time>
      </trkpt>
      <trkpt lat="46.69677" lon="-2.35756">
        <ele>24</ele>
        <time>2018-09-20T10:48:43.000Z</time>
      </trkpt>
      <trkpt lat="46.69678" lon="-2.35755">
        <ele>24</ele>
        <time>2018-09-20T10:48:44.000Z</time>
      </trkpt>
      <trkpt lat="46.69679" lon="-2.35754">
        <ele>24</ele>
        <time>2018-09-20T10:48:45.000Z</time>
      </trkpt>
      <trkpt lat="46.69679" lon="-2.35753">
        <ele>24</ele>
        <time>2018-09-20T10:48:46.000Z</time>
      </trkpt>
      <trkpt lat="46.6968" lon="-2.35753">
        <ele>24</ele>
        <time>2018-09-20T10:48:47.000Z</time>
      </trkpt>
      <trkpt lat="46.69681" lon="-2.35752">
        <ele>24</ele>
        <time>2018-09-20T10:48:48.000Z</time>
      </trkpt>
      <trkpt lat="46.69682" lon="-2.35752">
        <ele>24</ele>
        <time>2018-09-20T10:48:49.000Z</time>
      </trkpt>
      <trkpt lat="46.69683" lon="-2.35752">
        <ele>24</ele>
        <time>2018-09-20T10:48:50.000Z</time>
      </trkpt>
      <trkpt lat="46.69684" lon="-2.35751">
        <ele>24</ele>
        <time>2018-09-20T10:48:51.000Z</time>
      </trkpt>
      <trkpt lat="46.69685" lon="-2.35751">
        <ele>24</ele>
        <time>2018-09-20T10:48:52.000Z</time>
      </trkpt>
      <trkpt lat="46.69686" lon="-2.3575">
        <ele>24</ele>
        <time>2018-09-20T10:48:53.000Z</time>
      </trkpt>
      <trkpt lat="46.69687" lon="-2.35749">
        <ele>24</ele>
        <time>2018-09-20T10:48:54.000Z</time>
      </trkpt>
      <trkpt lat="46.69688" lon="-2.35748">
        <ele>23.9</ele>
        <time>2018-09-20T10:48:55.000Z</time>
      </trkpt>
      <trkpt lat="46.6969" lon="-2.35747">
        <ele>23.9</ele>
        <time>2018-09-20T10:48:56.000Z</time>
      </trkpt>
      <trkpt lat="46.69691" lon="-2.35747">
        <ele>23.9</ele>
        <time>2018-09-20T10:48:57.000Z</time>
      </trkpt>
      <trkpt lat="46.69692" lon="-2.35746">
        <ele>23.8</ele>
        <time>2018-09-20T10:48:58.000Z</time>
      </trkpt>
      <trkpt lat="46.69693" lon="-2.35745">
        <ele>23.8</ele>
        <time>2018-09-20T10:48:59.000Z</time>
      </trkpt>
      <trkpt lat="46.69693" lon="-2.35744">
        <ele>23.8</ele>
        <time>2018-09-20T10:49:00.000Z</time>
      </trkpt>
      <trkpt lat="46.69694" lon="-2.35743">
        <ele>23.8</ele>
        <time>2018-09-20T10:49:01.000Z</time>
      </trkpt>
      <trkpt lat="46.69695" lon="-2.35742">
        <ele>23.7</ele>
        <time>2018-09-20T10:49:02.000Z</time>
      </trkpt>
      <trkpt lat="46.69696" lon="-2.35741">
        <ele>23.7</ele>
        <time>2018-09-20T10:49:03.000Z</time>
      </trkpt>
      <trkpt lat="46.69697" lon="-2.3574">
        <ele>23.7</ele>
        <time>2018-09-20T10:49:04.000Z</time>
      </trkpt>
      <trkpt lat="46.69698" lon="-2.35739">
        <ele>23.7</ele>
        <time>2018-09-20T10:49:05.000Z</time>
      </trkpt>
      <trkpt lat="46.69698" lon="-2.35738">
        <ele>23.6</ele>
        <time>2018-09-20T10:49:06.000Z</time>
      </trkpt>
      <trkpt lat="46.69699" lon="-2.35737">
        <ele>23.6</ele>
        <time>2018-09-20T10:49:07.000Z</time>
      </trkpt>
      <trkpt lat="46.697" lon="-2.35737">
        <ele>23.6</ele>
        <time>2018-09-20T10:49:08.000Z</time>
      </trkpt>
      <trkpt lat="46.69701" lon="-2.35736">
        <ele>23.6</ele>
        <time>2018-09-20T10:49:09.000Z</time>
      </trkpt>
      <trkpt lat="46.69702" lon="-2.35735">
        <ele>23.6</ele>
        <time>2018-09-20T10:49:10.000Z</time>
      </trkpt>
      <trkpt lat="46.69703" lon="-2.35735">
        <ele>23.6</ele>
        <time>2018-09-20T10:49:11.000Z</time>
      </trkpt>
      <trkpt lat="46.69704" lon="-2.35734">
        <ele>23.6</ele>
        <time>2018-09-20T10:49:12.000Z</time>
      </trkpt>
      <trkpt lat="46.69705" lon="-2.35734">
        <ele>23.6</ele>
        <time>2018-09-20T10:49:13.000Z</time>
      </trkpt>
      <trkpt lat="46.69706" lon="-2.35733">
        <ele>23.6</ele>
        <time>2018-09-20T10:49:14.000Z</time>
      </trkpt>
      <trkpt lat="46.69707" lon="-2.35733">
        <ele>23.6</ele>
        <time>2018-09-20T10:49:15.000Z</time>
      </trkpt>
      <trkpt lat="46.69708" lon="-2.35732">
        <ele>23.6</ele>
        <time>2018-09-20T10:49:16.000Z</time>
      </trkpt>
      <trkpt lat="46.69709" lon="-2.35732">
        <ele>23.6</ele>
        <time>2018-09-20T10:49:17.000Z</time>
      </trkpt>
      <trkpt lat="46.69709" lon="-2.35731">
        <ele>23.6</ele>
        <time>2018-09-20T10:49:18.000Z</time>
      </trkpt>
      <trkpt lat="46.6971" lon="-2.3573">
        <ele>23.5</ele>
        <time>2018-09-20T10:49:19.000Z</time>
      </trkpt>
      <trkpt lat="46.69711" lon="-2.35729">
        <ele>23.5</ele>
        <time>2018-09-20T10:49:20.000Z</time>
      </trkpt>
      <trkpt lat="46.69712" lon="-2.35729">
        <ele>23.5</ele>
        <time>2018-09-20T10:49:21.000Z</time>
      </trkpt>
      <trkpt lat="46.69713" lon="-2.35728">
        <ele>23.5</ele>
        <time>2018-09-20T10:49:22.000Z</time>
      </trkpt>
      <trkpt lat="46.69713" lon="-2.35727">
        <ele>23.5</ele>
        <time>2018-09-20T10:49:23.000Z</time>
      </trkpt>
      <trkpt lat="46.69714" lon="-2.35726">
        <ele>23.5</ele>
        <time>2018-09-20T10:49:24.000Z</time>
      </trkpt>
      <trkpt lat="46.69715" lon="-2.35725">
        <ele>23.5</ele>
        <time>2018-09-20T10:49:25.000Z</time>
      </trkpt>
      <trkpt lat="46.69716" lon="-2.35724">
        <ele>23.5</ele>
        <time>2018-09-20T10:49:26.000Z</time>
      </trkpt>
      <trkpt lat="46.69716" lon="-2.35723">
        <ele>23.5</ele>
        <time>2018-09-20T10:49:27.000Z</time>
      </trkpt>
      <trkpt lat="46.69717" lon="-2.35722">
        <ele>23.5</ele>
        <time>2018-09-20T10:49:28.000Z</time>
      </trkpt>
      <trkpt lat="46.69718" lon="-2.35721">
        <ele>23.5</ele>
        <time>2018-09-20T10:49:29.000Z</time>
      </trkpt>
      <trkpt lat="46.69719" lon="-2.3572">
        <ele>23.5</ele>
        <time>2018-09-20T10:49:30.000Z</time>
      </trkpt>
      <trkpt lat="46.6972" lon="-2.35719">
        <ele>23.5</ele>
        <time>2018-09-20T10:49:31.000Z</time>
      </trkpt>
      <trkpt lat="46.69721" lon="-2.35718">
        <ele>23.5</ele>
        <time>2018-09-20T10:49:32.000Z</time>
      </trkpt>
      <trkpt lat="46.69722" lon="-2.35717">
        <ele>23.5</ele>
        <time>2018-09-20T10:49:33.000Z</time>
      </trkpt>
      <trkpt lat="46.69723" lon="-2.35717">
        <ele>23.5</ele>
        <time>2018-09-20T10:49:34.000Z</time>
      </trkpt>
      <trkpt lat="46.69724" lon="-2.35716">
        <ele>23.5</ele>
        <time>2018-09-20T10:49:35.000Z</time>
      </trkpt>
      <trkpt lat="46.69725" lon="-2.35715">
        <ele>23.5</ele>
        <time>2018-09-20T10:49:36.000Z</time>
      </trkpt>
      <trkpt lat="46.69726" lon="-2.35714">
        <ele>23.5</ele>
        <time>2018-09-20T10:49:37.000Z</time>
      </trkpt>
      <trkpt lat="46.69727" lon="-2.35713">
        <ele>23.5</ele>
        <time>2018-09-20T10:49:38.000Z</time>
      </trkpt>
      <trkpt lat="46.69728" lon="-2.35712">
        <ele>23.5</ele>
        <time>2018-09-20T10:49:39.000Z</time>
      </trkpt>
      <trkpt lat="46.69729" lon="-2.35711">
        <ele>23.5</ele>
        <time>2018-09-20T10:49:40.000Z</time>
      </trkpt>
      <trkpt lat="46.69729" lon="-2.3571">
        <ele>23.5</ele>
        <time>2018-09-20T10:49:41.000Z</time>
      </trkpt>
      <trkpt lat="46.6973" lon="-2.35708">
        <ele>23.5</ele>
        <time>2018-09-20T10:49:42.000Z</time>
      </trkpt>
      <trkpt lat="46.6973" lon="-2.35707">
        <ele>23.5</ele>
        <time>2018-09-20T10:49:43.000Z</time>
      </trkpt>
      <trkpt lat="46.6973" lon="-2.35705">
        <ele>23.5</ele>
        <time>2018-09-20T10:49:44.000Z</time>
      </trkpt>
      <trkpt lat="46.6973" lon="-2.35704">
        <ele>23.5</ele>
        <time>2018-09-20T10:49:45.000Z</time>
      </trkpt>
      <trkpt lat="46.6973" lon="-2.35702">
        <ele>23.5</ele>
        <time>2018-09-20T10:49:46.000Z</time>
      </trkpt>
      <trkpt lat="46.6973" lon="-2.35701">
        <ele>23.4</ele>
        <time>2018-09-20T10:49:47.000Z</time>
      </trkpt>
      <trkpt lat="46.6973" lon="-2.35699">
        <ele>23.4</ele>
        <time>2018-09-20T10:49:48.000Z</time>
      </trkpt>
      <trkpt lat="46.6973" lon="-2.35698">
        <ele>23.4</ele>
        <time>2018-09-20T10:49:49.000Z</time>
      </trkpt>
      <trkpt lat="46.6973" lon="-2.35696">
        <ele>23.4</ele>
        <time>2018-09-20T10:49:50.000Z</time>
      </trkpt>
      <trkpt lat="46.6973" lon="-2.35694">
        <ele>23.4</ele>
        <time>2018-09-20T10:49:51.000Z</time>
      </trkpt>
      <trkpt lat="46.6973" lon="-2.35693">
        <ele>23.3</ele>
        <time>2018-09-20T10:49:52.000Z</time>
      </trkpt>
      <trkpt lat="46.6973" lon="-2.35691">
        <ele>23.3</ele>
        <time>2018-09-20T10:49:53.000Z</time>
      </trkpt>
      <trkpt lat="46.6973" lon="-2.35689">
        <ele>23.3</ele>
        <time>2018-09-20T10:49:54.000Z</time>
      </trkpt>
      <trkpt lat="46.69729" lon="-2.35688">
        <ele>23.3</ele>
        <time>2018-09-20T10:49:55.000Z</time>
      </trkpt>
      <trkpt lat="46.69729" lon="-2.35686">
        <ele>23.2</ele>
        <time>2018-09-20T10:49:56.000Z</time>
      </trkpt>
      <trkpt lat="46.69729" lon="-2.35685">
        <ele>23.2</ele>
        <time>2018-09-20T10:49:57.000Z</time>
      </trkpt>
      <trkpt lat="46.69728" lon="-2.35683">
        <ele>23.2</ele>
        <time>2018-09-20T10:49:58.000Z</time>
      </trkpt>
      <trkpt lat="46.69728" lon="-2.35682">
        <ele>23.1</ele>
        <time>2018-09-20T10:49:59.000Z</time>
      </trkpt>
      <trkpt lat="46.69728" lon="-2.3568">
        <ele>23.1</ele>
        <time>2018-09-20T10:50:00.000Z</time>
      </trkpt>
      <trkpt lat="46.69727" lon="-2.35679">
        <ele>23.1</ele>
        <time>2018-09-20T10:50:01.000Z</time>
      </trkpt>
      <trkpt lat="46.69727" lon="-2.35677">
        <ele>23</ele>
        <time>2018-09-20T10:50:02.000Z</time>
      </trkpt>
      <trkpt lat="46.69726" lon="-2.35676">
        <ele>23</ele>
        <time>2018-09-20T10:50:03.000Z</time>
      </trkpt>
      <trkpt lat="46.69726" lon="-2.35674">
        <ele>22.9</ele>
        <time>2018-09-20T10:50:04.000Z</time>
      </trkpt>
      <trkpt lat="46.69725" lon="-2.35673">
        <ele>22.9</ele>
        <time>2018-09-20T10:50:05.000Z</time>
      </trkpt>
      <trkpt lat="46.69725" lon="-2.35671">
        <ele>22.8</ele>
        <time>2018-09-20T10:50:06.000Z</time>
      </trkpt>
      <trkpt lat="46.69724" lon="-2.3567">
        <ele>22.8</ele>
        <time>2018-09-20T10:50:07.000Z</time>
      </trkpt>
      <trkpt lat="46.69723" lon="-2.35669">
        <ele>22.7</ele>
        <time>2018-09-20T10:50:08.000Z</time>
      </trkpt>
      <trkpt lat="46.69723" lon="-2.35667">
        <ele>22.7</ele>
        <time>2018-09-20T10:50:09.000Z</time>
      </trkpt>
      <trkpt lat="46.69722" lon="-2.35666">
        <ele>22.6</ele>
        <time>2018-09-20T10:50:10.000Z</time>
      </trkpt>
      <trkpt lat="46.69721" lon="-2.35665">
        <ele>22.6</ele>
        <time>2018-09-20T10:50:11.000Z</time>
      </trkpt>
      <trkpt lat="46.6972" lon="-2.35663">
        <ele>22.5</ele>
        <time>2018-09-20T10:50:12.000Z</time>
      </trkpt>
      <trkpt lat="46.6972" lon="-2.35662">
        <ele>22.5</ele>
        <time>2018-09-20T10:50:13.000Z</time>
      </trkpt>
      <trkpt lat="46.69719" lon="-2.3566">
        <ele>22.4</ele>
        <time>2018-09-20T10:50:14.000Z</time>
      </trkpt>
      <trkpt lat="46.69718" lon="-2.35659">
        <ele>22.4</ele>
        <time>2018-09-20T10:50:15.000Z</time>
      </trkpt>
      <trkpt lat="46.69717" lon="-2.35658">
        <ele>22.3</ele>
        <time>2018-09-20T10:50:16.000Z</time>
      </trkpt>
      <trkpt lat="46.69717" lon="-2.35656">
        <ele>22.2</ele>
        <time>2018-09-20T10:50:17.000Z</time>
      </trkpt>
      <trkpt lat="46.69716" lon="-2.35655">
        <ele>22.2</ele>
        <time>2018-09-20T10:50:18.000Z</time>
      </trkpt>
      <trkpt lat="46.69715" lon="-2.35654">
        <ele>22.1</ele>
        <time>2018-09-20T10:50:19.000Z</time>
      </trkpt>
      <trkpt lat="46.69714" lon="-2.35653">
        <ele>22.1</ele>
        <time>2018-09-20T10:50:20.000Z</time>
      </trkpt>
      <trkpt lat="46.69713" lon="-2.35651">
        <ele>22</ele>
        <time>2018-09-20T10:50:21.000Z</time>
      </trkpt>
      <trkpt lat="46.69713" lon="-2.3565">
        <ele>21.9</ele>
        <time>2018-09-20T10:50:22.000Z</time>
      </trkpt>
      <trkpt lat="46.69712" lon="-2.35649">
        <ele>21.9</ele>
        <time>2018-09-20T10:50:23.000Z</time>
      </trkpt>
      <trkpt lat="46.69711" lon="-2.35648">
        <ele>21.8</ele>
        <time>2018-09-20T10:50:24.000Z</time>
      </trkpt>
      <trkpt lat="46.6971" lon="-2.35647">
        <ele>21.8</ele>
        <time>2018-09-20T10:50:25.000Z</time>
      </trkpt>
      <trkpt lat="46.6971" lon="-2.35646">
        <ele>21.7</ele>
        <time>2018-09-20T10:50:26.000Z</time>
      </trkpt>
      <trkpt lat="46.69709" lon="-2.35645">
        <ele>21.6</ele>
        <time>2018-09-20T10:50:27.000Z</time>
      </trkpt>
      <trkpt lat="46.69708" lon="-2.35644">
        <ele>21.6</ele>
        <time>2018-09-20T10:50:28.000Z</time>
      </trkpt>
      <trkpt lat="46.69708" lon="-2.35643">
        <ele>21.5</ele>
        <time>2018-09-20T10:50:29.000Z</time>
      </trkpt>
      <trkpt lat="46.69707" lon="-2.35642">
        <ele>21.5</ele>
        <time>2018-09-20T10:50:30.000Z</time>
      </trkpt>
      <trkpt lat="46.69706" lon="-2.35641">
        <ele>21.4</ele>
        <time>2018-09-20T10:50:31.000Z</time>
      </trkpt>
      <trkpt lat="46.69705" lon="-2.3564">
        <ele>21.3</ele>
        <time>2018-09-20T10:50:32.000Z</time>
      </trkpt>
      <trkpt lat="46.69705" lon="-2.35639">
        <ele>21.3</ele>
        <time>2018-09-20T10:50:33.000Z</time>
      </trkpt>
      <trkpt lat="46.69704" lon="-2.35638">
        <ele>21.2</ele>
        <time>2018-09-20T10:50:34.000Z</time>
      </trkpt>
      <trkpt lat="46.69703" lon="-2.35637">
        <ele>21.2</ele>
        <time>2018-09-20T10:50:35.000Z</time>
      </trkpt>
      <trkpt lat="46.69702" lon="-2.35636">
        <ele>21.1</ele>
        <time>2018-09-20T10:50:36.000Z</time>
      </trkpt>
      <trkpt lat="46.69702" lon="-2.35636">
        <ele>21</ele>
        <time>2018-09-20T10:50:37.000Z</time>
      </trkpt>
      <trkpt lat="46.69701" lon="-2.35635">
        <ele>21</ele>
        <time>2018-09-20T10:50:38.000Z</time>
      </trkpt>
      <trkpt lat="46.697" lon="-2.35634">
        <ele>20.9</ele>
        <time>2018-09-20T10:50:39.000Z</time>
      </trkpt>
      <trkpt lat="46.697" lon="-2.35633">
        <ele>20.9</ele>
        <time>2018-09-20T10:50:40.000Z</time>
      </trkpt>
      <trkpt lat="46.697" lon="-2.35633">
        <ele>20.9</ele>
        <time>2018-09-20T10:50:41.000Z</time>
      </trkpt>
      <trkpt lat="46.697" lon="-2.35633">
        <ele>20.8</ele>
        <time>2018-09-20T10:50:42.000Z</time>
      </trkpt>
      <trkpt lat="46.697" lon="-2.35632">
        <ele>20.8</ele>
        <time>2018-09-20T10:50:43.000Z</time>
      </trkpt>
      <trkpt lat="46.697" lon="-2.35632">
        <ele>20.8</ele>
        <time>2018-09-20T10:50:44.000Z</time>
      </trkpt>
      <trkpt lat="46.697" lon="-2.35632">
        <ele>20.8</ele>
        <time>2018-09-20T10:50:45.000Z</time>
      </trkpt>
      <trkpt lat="46.697" lon="-2.35632">
        <ele>20.8</ele>
        <time>2018-09-20T10:50:46.000Z</time>
      </trkpt>
      <trkpt lat="46.697" lon="-2.35632">
        <ele>20.8</ele>
        <time>2018-09-20T10:50:47.000Z</time>
      </trkpt>
      <trkpt lat="46.697" lon="-2.35632">
        <ele>20.8</ele>
        <time>2018-09-20T10:50:48.000Z</time>
      </trkpt>
      <trkpt lat="46.697" lon="-2.35632">
        <ele>20.8</ele>
        <time>2018-09-20T10:50:49.000Z</time>
      </trkpt>
      <trkpt lat="46.697" lon="-2.35632">
        <ele>20.8</ele>
        <time>2018-09-20T10:50:50.000Z</time>
      </trkpt>
      <trkpt lat="46.697" lon="-2.35632">
        <ele>20.8</ele>
        <time>2018-09-20T10:50:51.000Z</time>
      </trkpt>
      <trkpt lat="46.697" lon="-2.35632">
        <ele>20.8</ele>
        <time>2018-09-20T10:50:52.000Z</time>
      </trkpt>
      <trkpt lat="46.697" lon="-2.35632">
        <ele>20.8</ele>
        <time>2018-09-20T10:50:53.000Z</time>
      </trkpt>
      <trkpt lat="46.697" lon="-2.35632">
        <ele>20.8</ele>
        <time>2018-09-20T10:50:54.000Z</time>
      </trkpt>
      <trkpt lat="46.697" lon="-2.35632">
        <ele>20.8</ele>
        <time>2018-09-20T10:50:55.000Z</time>
      </trkpt>
      <trkpt lat="46.697" lon="-2.35632">
        <ele>20.8</ele>
        <time>2018-09-20T10:50:56.000Z</time>
      </trkpt>
      <trkpt lat="46.697" lon="-2.35632">
        <ele>20.8</ele>
        <time>2018-09-20T10:50:57.000Z</time>
      </trkpt>
      <trkpt lat="46.697" lon="-2.35632">
        <ele>20.8</ele>
        <time>2018-09-20T10:50:58.000Z</time>
      </trkpt>
      <trkpt lat="46.697" lon="-2.35631">
        <ele>20.8</ele>
        <time>2018-09-20T10:50:59.000Z</time>
      </trkpt>
      <trkpt lat="46.697" lon="-2.35631">
        <ele>20.8</ele>
        <time>2018-09-20T10:51:00.000Z</time>
      </trkpt>
      <trkpt lat="46.697" lon="-2.35631">
        <ele>20.8</ele>
        <time>2018-09-20T10:51:01.000Z</time>
      </trkpt>
      <trkpt lat="46.697" lon="-2.3563">
        <ele>20.8</ele>
        <time>2018-09-20T10:51:02.000Z</time>
      </trkpt>
      <trkpt lat="46.697" lon="-2.35629">
        <ele>20.8</ele>
        <time>2018-09-20T10:51:03.000Z</time>
      </trkpt>
      <trkpt lat="46.697" lon="-2.35628">
        <ele>20.8</ele>
        <time>2018-09-20T10:51:04.000Z</time>
      </trkpt>
      <trkpt lat="46.697" lon="-2.35627">
        <ele>20.7</ele>
        <time>2018-09-20T10:51:05.000Z</time>
      </trkpt>
      <trkpt lat="46.697" lon="-2.35626">
        <ele>20.7</ele>
        <time>2018-09-20T10:51:06.000Z</time>
      </trkpt>
      <trkpt lat="46.69699" lon="-2.35625">
        <ele>20.6</ele>
        <time>2018-09-20T10:51:07.000Z</time>
      </trkpt>
      <trkpt lat="46.69699" lon="-2.35623">
        <ele>20.6</ele>
        <time>2018-09-20T10:51:08.000Z</time>
      </trkpt>
      <trkpt lat="46.69698" lon="-2.35621">
        <ele>20.5</ele>
        <time>2018-09-20T10:51:09.000Z</time>
      </trkpt>
      <trkpt lat="46.69697" lon="-2.3562">
        <ele>20.4</ele>
        <time>2018-09-20T10:51:10.000Z</time>
      </trkpt>
      <trkpt lat="46.69697" lon="-2.35618">
        <ele>20.3</ele>
        <time>2018-09-20T10:51:11.000Z</time>
      </trkpt>
      <trkpt lat="46.69696" lon="-2.35617">
        <ele>20.3</ele>
        <time>2018-09-20T10:51:12.000Z</time>
      </trkpt>
      <trkpt lat="46.69696" lon="-2.35616">
        <ele>20.2</ele>
        <time>2018-09-20T10:51:13.000Z</time>
      </trkpt>
      <trkpt lat="46.69696" lon="-2.35615">
        <ele>20.2</ele>
        <time>2018-09-20T10:51:14.000Z</time>
      </trkpt>
      <trkpt lat="46.69695" lon="-2.35615">
        <ele>20.1</ele>
        <time>2018-09-20T10:51:15.000Z</time>
      </trkpt>
      <trkpt lat="46.69695" lon="-2.35614">
        <ele>20.1</ele>
        <time>2018-09-20T10:51:16.000Z</time>
      </trkpt>
      <trkpt lat="46.69695" lon="-2.35613">
        <ele>20.1</ele>
        <time>2018-09-20T10:51:17.000Z</time>
      </trkpt>
      <trkpt lat="46.69694" lon="-2.35612">
        <ele>20</ele>
        <time>2018-09-20T10:51:18.000Z</time>
      </trkpt>
      <trkpt lat="46.69694" lon="-2.35611">
        <ele>19.9</ele>
        <time>2018-09-20T10:51:19.000Z</time>
      </trkpt>
      <trkpt lat="46.69693" lon="-2.3561">
        <ele>19.9</ele>
        <time>2018-09-20T10:51:20.000Z</time>
      </trkpt>
      <trkpt lat="46.69692" lon="-2.35609">
        <ele>19.8</ele>
        <time>2018-09-20T10:51:21.000Z</time>
      </trkpt>
      <trkpt lat="46.69692" lon="-2.35607">
        <ele>19.7</ele>
        <time>2018-09-20T10:51:22.000Z</time>
      </trkpt>
      <trkpt lat="46.69691" lon="-2.35606">
        <ele>19.6</ele>
        <time>2018-09-20T10:51:23.000Z</time>
      </trkpt>
      <trkpt lat="46.69691" lon="-2.35606">
        <ele>19.6</ele>
        <time>2018-09-20T10:51:24.000Z</time>
      </trkpt>
      <trkpt lat="46.6969" lon="-2.35605">
        <ele>19.5</ele>
        <time>2018-09-20T10:51:25.000Z</time>
      </trkpt>
      <trkpt lat="46.6969" lon="-2.35604">
        <ele>19.5</ele>
        <time>2018-09-20T10:51:26.000Z</time>
      </trkpt>
      <trkpt lat="46.6969" lon="-2.35604">
        <ele>19.4</ele>
        <time>2018-09-20T10:51:27.000Z</time>
      </trkpt>
      <trkpt lat="46.69689" lon="-2.35603">
        <ele>19.4</ele>
        <time>2018-09-20T10:51:28.000Z</time>
      </trkpt>
      <trkpt lat="46.69689" lon="-2.35602">
        <ele>19.3</ele>
        <time>2018-09-20T10:51:29.000Z</time>
      </trkpt>
      <trkpt lat="46.69688" lon="-2.35601">
        <ele>19.3</ele>
        <time>2018-09-20T10:51:30.000Z</time>
      </trkpt>
      <trkpt lat="46.69687" lon="-2.35599">
        <ele>19.2</ele>
        <time>2018-09-20T10:51:31.000Z</time>
      </trkpt>
      <trkpt lat="46.69687" lon="-2.35598">
        <ele>19.1</ele>
        <time>2018-09-20T10:51:32.000Z</time>
      </trkpt>
      <trkpt lat="46.69686" lon="-2.35597">
        <ele>19</ele>
        <time>2018-09-20T10:51:33.000Z</time>
      </trkpt>
      <trkpt lat="46.69685" lon="-2.35595">
        <ele>18.9</ele>
        <time>2018-09-20T10:51:34.000Z</time>
      </trkpt>
      <trkpt lat="46.69685" lon="-2.35594">
        <ele>18.8</ele>
        <time>2018-09-20T10:51:35.000Z</time>
      </trkpt>
      <trkpt lat="46.69684" lon="-2.35592">
        <ele>18.7</ele>
        <time>2018-09-20T10:51:36.000Z</time>
      </trkpt>
      <trkpt lat="46.69683" lon="-2.3559">
        <ele>18.6</ele>
        <time>2018-09-20T10:51:37.000Z</time>
      </trkpt>
      <trkpt lat="46.69682" lon="-2.35589">
        <ele>18.5</ele>
        <time>2018-09-20T10:51:38.000Z</time>
      </trkpt>
      <trkpt lat="46.69682" lon="-2.35587">
        <ele>18.4</ele>
        <time>2018-09-20T10:51:39.000Z</time>
      </trkpt>
      <trkpt lat="46.69681" lon="-2.35586">
        <ele>18.3</ele>
        <time>2018-09-20T10:51:40.000Z</time>
      </trkpt>
      <trkpt lat="46.6968" lon="-2.35584">
        <ele>18.2</ele>
        <time>2018-09-20T10:51:41.000Z</time>
      </trkpt>
      <trkpt lat="46.69679" lon="-2.35583">
        <ele>18.1</ele>
        <time>2018-09-20T10:51:42.000Z</time>
      </trkpt>
      <trkpt lat="46.69679" lon="-2.35581">
        <ele>18.1</ele>
        <time>2018-09-20T10:51:43.000Z</time>
      </trkpt>
      <trkpt lat="46.69678" lon="-2.3558">
        <ele>18.1</ele>
        <time>2018-09-20T10:51:44.000Z</time>
      </trkpt>
      <trkpt lat="46.69677" lon="-2.35578">
        <ele>18.1</ele>
        <time>2018-09-20T10:51:45.000Z</time>
      </trkpt>
      <trkpt lat="46.69677" lon="-2.35577">
        <ele>18.1</ele>
        <time>2018-09-20T10:51:46.000Z</time>
      </trkpt>
      <trkpt lat="46.69676" lon="-2.35575">
        <ele>18.1</ele>
        <time>2018-09-20T10:51:47.000Z</time>
      </trkpt>
      <trkpt lat="46.69675" lon="-2.35574">
        <ele>18.1</ele>
        <time>2018-09-20T10:51:48.000Z</time>
      </trkpt>
      <trkpt lat="46.69675" lon="-2.35573">
        <ele>18.1</ele>
        <time>2018-09-20T10:51:49.000Z</time>
      </trkpt>
      <trkpt lat="46.69674" lon="-2.35571">
        <ele>18.2</ele>
        <time>2018-09-20T10:51:50.000Z</time>
      </trkpt>
      <trkpt lat="46.69674" lon="-2.3557">
        <ele>18.2</ele>
        <time>2018-09-20T10:51:51.000Z</time>
      </trkpt>
      <trkpt lat="46.69673" lon="-2.35568">
        <ele>18.2</ele>
        <time>2018-09-20T10:51:52.000Z</time>
      </trkpt>
      <trkpt lat="46.69672" lon="-2.35567">
        <ele>18.2</ele>
        <time>2018-09-20T10:51:53.000Z</time>
      </trkpt>
      <trkpt lat="46.69672" lon="-2.35566">
        <ele>18.2</ele>
        <time>2018-09-20T10:51:54.000Z</time>
      </trkpt>
      <trkpt lat="46.69671" lon="-2.35564">
        <ele>18.3</ele>
        <time>2018-09-20T10:51:55.000Z</time>
      </trkpt>
      <trkpt lat="46.69671" lon="-2.35563">
        <ele>18.3</ele>
        <time>2018-09-20T10:51:56.000Z</time>
      </trkpt>
      <trkpt lat="46.6967" lon="-2.35561">
        <ele>18.3</ele>
        <time>2018-09-20T10:51:57.000Z</time>
      </trkpt>
      <trkpt lat="46.6967" lon="-2.3556">
        <ele>18.3</ele>
        <time>2018-09-20T10:51:58.000Z</time>
      </trkpt>
      <trkpt lat="46.69669" lon="-2.35558">
        <ele>18.4</ele>
        <time>2018-09-20T10:51:59.000Z</time>
      </trkpt>
      <trkpt lat="46.69669" lon="-2.35557">
        <ele>18.4</ele>
        <time>2018-09-20T10:52:00.000Z</time>
      </trkpt>
      <trkpt lat="46.69668" lon="-2.35556">
        <ele>18.4</ele>
        <time>2018-09-20T10:52:01.000Z</time>
      </trkpt>
      <trkpt lat="46.69668" lon="-2.35554">
        <ele>18.5</ele>
        <time>2018-09-20T10:52:02.000Z</time>
      </trkpt>
      <trkpt lat="46.69667" lon="-2.35553">
        <ele>18.5</ele>
        <time>2018-09-20T10:52:03.000Z</time>
      </trkpt>
      <trkpt lat="46.69667" lon="-2.35551">
        <ele>18.6</ele>
        <time>2018-09-20T10:52:04.000Z</time>
      </trkpt>
      <trkpt lat="46.69666" lon="-2.35549">
        <ele>18.6</ele>
        <time>2018-09-20T10:52:05.000Z</time>
      </trkpt>
      <trkpt lat="46.69666" lon="-2.35548">
        <ele>18.7</ele>
        <time>2018-09-20T10:52:06.000Z</time>
      </trkpt>
      <trkpt lat="46.69665" lon="-2.35546">
        <ele>18.7</ele>
        <time>2018-09-20T10:52:07.000Z</time>
      </trkpt>
      <trkpt lat="46.69665" lon="-2.35545">
        <ele>18.8</ele>
        <time>2018-09-20T10:52:08.000Z</time>
      </trkpt>
      <trkpt lat="46.69665" lon="-2.35543">
        <ele>18.8</ele>
        <time>2018-09-20T10:52:09.000Z</time>
      </trkpt>
      <trkpt lat="46.69664" lon="-2.35542">
        <ele>18.8</ele>
        <time>2018-09-20T10:52:10.000Z</time>
      </trkpt>
      <trkpt lat="46.69664" lon="-2.3554">
        <ele>18.9</ele>
        <time>2018-09-20T10:52:11.000Z</time>
      </trkpt>
      <trkpt lat="46.69663" lon="-2.35539">
        <ele>18.9</ele>
        <time>2018-09-20T10:52:12.000Z</time>
      </trkpt>
      <trkpt lat="46.69663" lon="-2.35537">
        <ele>19</ele>
        <time>2018-09-20T10:52:13.000Z</time>
      </trkpt>
      <trkpt lat="46.69662" lon="-2.35535">
        <ele>19</ele>
        <time>2018-09-20T10:52:14.000Z</time>
      </trkpt>
      <trkpt lat="46.69662" lon="-2.35534">
        <ele>19.1</ele>
        <time>2018-09-20T10:52:15.000Z</time>
      </trkpt>
      <trkpt lat="46.69661" lon="-2.35532">
        <ele>19.1</ele>
        <time>2018-09-20T10:52:16.000Z</time>
      </trkpt>
      <trkpt lat="46.69661" lon="-2.35531">
        <ele>19.1</ele>
        <time>2018-09-20T10:52:17.000Z</time>
      </trkpt>
      <trkpt lat="46.6966" lon="-2.35529">
        <ele>19.2</ele>
        <time>2018-09-20T10:52:18.000Z</time>
      </trkpt>
      <trkpt lat="46.6966" lon="-2.35528">
        <ele>19.2</ele>
        <time>2018-09-20T10:52:19.000Z</time>
      </trkpt>
      <trkpt lat="46.69659" lon="-2.35526">
        <ele>19.3</ele>
        <time>2018-09-20T10:52:20.000Z</time>
      </trkpt>
      <trkpt lat="46.69659" lon="-2.35525">
        <ele>19.3</ele>
        <time>2018-09-20T10:52:21.000Z</time>
      </trkpt>
      <trkpt lat="46.69658" lon="-2.35523">
        <ele>19.3</ele>
        <time>2018-09-20T10:52:22.000Z</time>
      </trkpt>
      <trkpt lat="46.69657" lon="-2.35522">
        <ele>19.3</ele>
        <time>2018-09-20T10:52:23.000Z</time>
      </trkpt>
      <trkpt lat="46.69657" lon="-2.3552">
        <ele>19.4</ele>
        <time>2018-09-20T10:52:24.000Z</time>
      </trkpt>
      <trkpt lat="46.69656" lon="-2.35519">
        <ele>19.4</ele>
        <time>2018-09-20T10:52:25.000Z</time>
      </trkpt>
      <trkpt lat="46.69656" lon="-2.35518">
        <ele>19.4</ele>
        <time>2018-09-20T10:52:26.000Z</time>
      </trkpt>
      <trkpt lat="46.69655" lon="-2.35516">
        <ele>19.4</ele>
        <time>2018-09-20T10:52:27.000Z</time>
      </trkpt>
      <trkpt lat="46.69654" lon="-2.35515">
        <ele>19.4</ele>
        <time>2018-09-20T10:52:28.000Z</time>
      </trkpt>
      <trkpt lat="46.69654" lon="-2.35514">
        <ele>19.5</ele>
        <time>2018-09-20T10:52:29.000Z</time>
      </trkpt>
      <trkpt lat="46.69653" lon="-2.35512">
        <ele>19.5</ele>
        <time>2018-09-20T10:52:30.000Z</time>
      </trkpt>
      <trkpt lat="46.69653" lon="-2.35511">
        <ele>19.5</ele>
        <time>2018-09-20T10:52:31.000Z</time>
      </trkpt>
      <trkpt lat="46.69652" lon="-2.35509">
        <ele>19.5</ele>
        <time>2018-09-20T10:52:32.000Z</time>
      </trkpt>
      <trkpt lat="46.69652" lon="-2.35508">
        <ele>19.6</ele>
        <time>2018-09-20T10:52:33.000Z</time>
      </trkpt>
      <trkpt lat="46.69651" lon="-2.35507">
        <ele>19.6</ele>
        <time>2018-09-20T10:52:34.000Z</time>
      </trkpt>
      <trkpt lat="46.69651" lon="-2.35505">
        <ele>19.6</ele>
        <time>2018-09-20T10:52:35.000Z</time>
      </trkpt>
      <trkpt lat="46.6965" lon="-2.35504">
        <ele>19.6</ele>
        <time>2018-09-20T10:52:36.000Z</time>
      </trkpt>
      <trkpt lat="46.6965" lon="-2.35503">
        <ele>19.7</ele>
        <time>2018-09-20T10:52:37.000Z</time>
      </trkpt>
      <trkpt lat="46.69649" lon="-2.35501">
        <ele>19.7</ele>
        <time>2018-09-20T10:52:38.000Z</time>
      </trkpt>
      <trkpt lat="46.69649" lon="-2.355">
        <ele>19.7</ele>
        <time>2018-09-20T10:52:39.000Z</time>
      </trkpt>
      <trkpt lat="46.69649" lon="-2.35499">
        <ele>19.8</ele>
        <time>2018-09-20T10:52:40.000Z</time>
      </trkpt>
      <trkpt lat="46.69648" lon="-2.35497">
        <ele>19.9</ele>
        <time>2018-09-20T10:52:41.000Z</time>
      </trkpt>
      <trkpt lat="46.69648" lon="-2.35496">
        <ele>19.9</ele>
        <time>2018-09-20T10:52:42.000Z</time>
      </trkpt>
      <trkpt lat="46.69647" lon="-2.35494">
        <ele>20</ele>
        <time>2018-09-20T10:52:43.000Z</time>
      </trkpt>
      <trkpt lat="46.69646" lon="-2.35493">
        <ele>20</ele>
        <time>2018-09-20T10:52:44.000Z</time>
      </trkpt>
      <trkpt lat="46.69646" lon="-2.35492">
        <ele>20.1</ele>
        <time>2018-09-20T10:52:45.000Z</time>
      </trkpt>
      <trkpt lat="46.69645" lon="-2.3549">
        <ele>20.1</ele>
        <time>2018-09-20T10:52:46.000Z</time>
      </trkpt>
      <trkpt lat="46.69644" lon="-2.35489">
        <ele>20.2</ele>
        <time>2018-09-20T10:52:47.000Z</time>
      </trkpt>
      <trkpt lat="46.69644" lon="-2.35488">
        <ele>20.2</ele>
        <time>2018-09-20T10:52:48.000Z</time>
      </trkpt>
      <trkpt lat="46.69643" lon="-2.35486">
        <ele>20.2</ele>
        <time>2018-09-20T10:52:49.000Z</time>
      </trkpt>
      <trkpt lat="46.69642" lon="-2.35485">
        <ele>20.3</ele>
        <time>2018-09-20T10:52:50.000Z</time>
      </trkpt>
      <trkpt lat="46.69641" lon="-2.35484">
        <ele>20.3</ele>
        <time>2018-09-20T10:52:51.000Z</time>
      </trkpt>
      <trkpt lat="46.6964" lon="-2.35483">
        <ele>20.3</ele>
        <time>2018-09-20T10:52:52.000Z</time>
      </trkpt>
      <trkpt lat="46.69639" lon="-2.35482">
        <ele>20.3</ele>
        <time>2018-09-20T10:52:53.000Z</time>
      </trkpt>
      <trkpt lat="46.69639" lon="-2.35481">
        <ele>20.4</ele>
        <time>2018-09-20T10:52:54.000Z</time>
      </trkpt>
      <trkpt lat="46.69638" lon="-2.3548">
        <ele>20.4</ele>
        <time>2018-09-20T10:52:55.000Z</time>
      </trkpt>
      <trkpt lat="46.69637" lon="-2.35479">
        <ele>20.4</ele>
        <time>2018-09-20T10:52:56.000Z</time>
      </trkpt>
      <trkpt lat="46.69636" lon="-2.35478">
        <ele>20.4</ele>
        <time>2018-09-20T10:52:57.000Z</time>
      </trkpt>
      <trkpt lat="46.69635" lon="-2.35478">
        <ele>20.4</ele>
        <time>2018-09-20T10:52:58.000Z</time>
      </trkpt>
      <trkpt lat="46.69634" lon="-2.35477">
        <ele>20.4</ele>
        <time>2018-09-20T10:52:59.000Z</time>
      </trkpt>
      <trkpt lat="46.69634" lon="-2.35477">
        <ele>20.4</ele>
        <time>2018-09-20T10:53:00.000Z</time>
      </trkpt>
      <trkpt lat="46.69633" lon="-2.35476">
        <ele>20.3</ele>
        <time>2018-09-20T10:53:01.000Z</time>
      </trkpt>
      <trkpt lat="46.69632" lon="-2.35476">
        <ele>20.3</ele>
        <time>2018-09-20T10:53:02.000Z</time>
      </trkpt>
      <trkpt lat="46.69631" lon="-2.35475">
        <ele>20.3</ele>
        <time>2018-09-20T10:53:03.000Z</time>
      </trkpt>
      <trkpt lat="46.6963" lon="-2.35475">
        <ele>20.3</ele>
        <time>2018-09-20T10:53:04.000Z</time>
      </trkpt>
      <trkpt lat="46.6963" lon="-2.35475">
        <ele>20.3</ele>
        <time>2018-09-20T10:53:05.000Z</time>
      </trkpt>
      <trkpt lat="46.69629" lon="-2.35474">
        <ele>20.3</ele>
        <time>2018-09-20T10:53:06.000Z</time>
      </trkpt>
      <trkpt lat="46.69628" lon="-2.35474">
        <ele>20.2</ele>
        <time>2018-09-20T10:53:07.000Z</time>
      </trkpt>
      <trkpt lat="46.69627" lon="-2.35473">
        <ele>20.2</ele>
        <time>2018-09-20T10:53:08.000Z</time>
      </trkpt>
      <trkpt lat="46.69626" lon="-2.35473">
        <ele>20.2</ele>
        <time>2018-09-20T10:53:09.000Z</time>
      </trkpt>
      <trkpt lat="46.69625" lon="-2.35472">
        <ele>20.2</ele>
        <time>2018-09-20T10:53:10.000Z</time>
      </trkpt>
      <trkpt lat="46.69624" lon="-2.35472">
        <ele>20.2</ele>
        <time>2018-09-20T10:53:11.000Z</time>
      </trkpt>
      <trkpt lat="46.69624" lon="-2.35471">
        <ele>20.2</ele>
        <time>2018-09-20T10:53:12.000Z</time>
      </trkpt>
      <trkpt lat="46.69623" lon="-2.35471">
        <ele>20.2</ele>
        <time>2018-09-20T10:53:13.000Z</time>
      </trkpt>
      <trkpt lat="46.69622" lon="-2.3547">
        <ele>20.1</ele>
        <time>2018-09-20T10:53:14.000Z</time>
      </trkpt>
      <trkpt lat="46.69621" lon="-2.3547">
        <ele>20.1</ele>
        <time>2018-09-20T10:53:15.000Z</time>
      </trkpt>
      <trkpt lat="46.6962" lon="-2.35469">
        <ele>20.1</ele>
        <time>2018-09-20T10:53:16.000Z</time>
      </trkpt>
      <trkpt lat="46.69619" lon="-2.35469">
        <ele>20.1</ele>
        <time>2018-09-20T10:53:17.000Z</time>
      </trkpt>
      <trkpt lat="46.69618" lon="-2.35468">
        <ele>20.1</ele>
        <time>2018-09-20T10:53:18.000Z</time>
      </trkpt>
      <trkpt lat="46.69617" lon="-2.35468">
        <ele>20.1</ele>
        <time>2018-09-20T10:53:19.000Z</time>
      </trkpt>
      <trkpt lat="46.69616" lon="-2.35467">
        <ele>20.1</ele>
        <time>2018-09-20T10:53:20.000Z</time>
      </trkpt>
      <trkpt lat="46.69615" lon="-2.35466">
        <ele>20.1</ele>
        <time>2018-09-20T10:53:21.000Z</time>
      </trkpt>
      <trkpt lat="46.69614" lon="-2.35466">
        <ele>20.1</ele>
        <time>2018-09-20T10:53:22.000Z</time>
      </trkpt>
      <trkpt lat="46.69613" lon="-2.35465">
        <ele>20.1</ele>
        <time>2018-09-20T10:53:23.000Z</time>
      </trkpt>
      <trkpt lat="46.69612" lon="-2.35464">
        <ele>20.1</ele>
        <time>2018-09-20T10:53:24.000Z</time>
      </trkpt>
      <trkpt lat="46.69611" lon="-2.35463">
        <ele>20.1</ele>
        <time>2018-09-20T10:53:25.000Z</time>
      </trkpt>
      <trkpt lat="46.6961" lon="-2.35462">
        <ele>20.2</ele>
        <time>2018-09-20T10:53:26.000Z</time>
      </trkpt>
      <trkpt lat="46.69609" lon="-2.35461">
        <ele>20.2</ele>
        <time>2018-09-20T10:53:27.000Z</time>
      </trkpt>
      <trkpt lat="46.69608" lon="-2.35459">
        <ele>20.3</ele>
        <time>2018-09-20T10:53:28.000Z</time>
      </trkpt>
      <trkpt lat="46.69607" lon="-2.35458">
        <ele>20.3</ele>
        <time>2018-09-20T10:53:29.000Z</time>
      </trkpt>
      <trkpt lat="46.69606" lon="-2.35457">
        <ele>20.4</ele>
        <time>2018-09-20T10:53:30.000Z</time>
      </trkpt>
      <trkpt lat="46.69606" lon="-2.35455">
        <ele>20.5</ele>
        <time>2018-09-20T10:53:31.000Z</time>
      </trkpt>
      <trkpt lat="46.69605" lon="-2.35454">
        <ele>20.5</ele>
        <time>2018-09-20T10:53:32.000Z</time>
      </trkpt>
      <trkpt lat="46.69604" lon="-2.35452">
        <ele>20.6</ele>
        <time>2018-09-20T10:53:33.000Z</time>
      </trkpt>
      <trkpt lat="46.69603" lon="-2.35451">
        <ele>20.7</ele>
        <time>2018-09-20T10:53:34.000Z</time>
      </trkpt>
      <trkpt lat="46.69602" lon="-2.3545">
        <ele>20.7</ele>
        <time>2018-09-20T10:53:35.000Z</time>
      </trkpt>
      <trkpt lat="46.69601" lon="-2.35449">
        <ele>20.8</ele>
        <time>2018-09-20T10:53:36.000Z</time>
      </trkpt>
      <trkpt lat="46.696" lon="-2.35448">
        <ele>20.8</ele>
        <time>2018-09-20T10:53:37.000Z</time>
      </trkpt>
      <trkpt lat="46.69598" lon="-2.35447">
        <ele>20.8</ele>
        <time>2018-09-20T10:53:38.000Z</time>
      </trkpt>
      <trkpt lat="46.69597" lon="-2.35447">
        <ele>20.8</ele>
        <time>2018-09-20T10:53:39.000Z</time>
      </trkpt>
      <trkpt lat="46.69596" lon="-2.35446">
        <ele>20.8</ele>
        <time>2018-09-20T10:53:40.000Z</time>
      </trkpt>
      <trkpt lat="46.69595" lon="-2.35446">
        <ele>20.7</ele>
        <time>2018-09-20T10:53:41.000Z</time>
      </trkpt>
      <trkpt lat="46.69594" lon="-2.35446">
        <ele>20.7</ele>
        <time>2018-09-20T10:53:42.000Z</time>
      </trkpt>
      <trkpt lat="46.69593" lon="-2.35446">
        <ele>20.7</ele>
        <time>2018-09-20T10:53:43.000Z</time>
      </trkpt>
      <trkpt lat="46.69592" lon="-2.35446">
        <ele>20.6</ele>
        <time>2018-09-20T10:53:44.000Z</time>
      </trkpt>
      <trkpt lat="46.6959" lon="-2.35445">
        <ele>20.6</ele>
        <time>2018-09-20T10:53:45.000Z</time>
      </trkpt>
      <trkpt lat="46.69589" lon="-2.35445">
        <ele>20.5</ele>
        <time>2018-09-20T10:53:46.000Z</time>
      </trkpt>
      <trkpt lat="46.69588" lon="-2.35445">
        <ele>20.5</ele>
        <time>2018-09-20T10:53:47.000Z</time>
      </trkpt>
      <trkpt lat="46.69587" lon="-2.35445">
        <ele>20.5</ele>
        <time>2018-09-20T10:53:48.000Z</time>
      </trkpt>
      <trkpt lat="46.69586" lon="-2.35444">
        <ele>20.5</ele>
        <time>2018-09-20T10:53:49.000Z</time>
      </trkpt>
      <trkpt lat="46.69585" lon="-2.35443">
        <ele>20.5</ele>
        <time>2018-09-20T10:53:50.000Z</time>
      </trkpt>
      <trkpt lat="46.69583" lon="-2.35443">
        <ele>20.5</ele>
        <time>2018-09-20T10:53:51.000Z</time>
      </trkpt>
      <trkpt lat="46.69582" lon="-2.35442">
        <ele>20.5</ele>
        <time>2018-09-20T10:53:52.000Z</time>
      </trkpt>
      <trkpt lat="46.69581" lon="-2.35441">
        <ele>20.5</ele>
        <time>2018-09-20T10:53:53.000Z</time>
      </trkpt>
      <trkpt lat="46.6958" lon="-2.3544">
        <ele>20.5</ele>
        <time>2018-09-20T10:53:54.000Z</time>
      </trkpt>
      <trkpt lat="46.69579" lon="-2.35439">
        <ele>20.6</ele>
        <time>2018-09-20T10:53:55.000Z</time>
      </trkpt>
      <trkpt lat="46.69578" lon="-2.35438">
        <ele>20.6</ele>
        <time>2018-09-20T10:53:56.000Z</time>
      </trkpt>
      <trkpt lat="46.69577" lon="-2.35436">
        <ele>20.6</ele>
        <time>2018-09-20T10:53:57.000Z</time>
      </trkpt>
      <trkpt lat="46.69576" lon="-2.35435">
        <ele>20.6</ele>
        <time>2018-09-20T10:53:58.000Z</time>
      </trkpt>
      <trkpt lat="46.69575" lon="-2.35434">
        <ele>20.7</ele>
        <time>2018-09-20T10:53:59.000Z</time>
      </trkpt>
      <trkpt lat="46.69575" lon="-2.35433">
        <ele>20.7</ele>
        <time>2018-09-20T10:54:00.000Z</time>
      </trkpt>
      <trkpt lat="46.69574" lon="-2.35432">
        <ele>20.7</ele>
        <time>2018-09-20T10:54:01.000Z</time>
      </trkpt>
      <trkpt lat="46.69573" lon="-2.35431">
        <ele>20.7</ele>
        <time>2018-09-20T10:54:02.000Z</time>
      </trkpt>
      <trkpt lat="46.69572" lon="-2.35431">
        <ele>20.7</ele>
        <time>2018-09-20T10:54:03.000Z</time>
      </trkpt>
      <trkpt lat="46.69571" lon="-2.3543">
        <ele>20.8</ele>
        <time>2018-09-20T10:54:04.000Z</time>
      </trkpt>
      <trkpt lat="46.6957" lon="-2.35429">
        <ele>20.8</ele>
        <time>2018-09-20T10:54:05.000Z</time>
      </trkpt>
      <trkpt lat="46.6957" lon="-2.35428">
        <ele>20.8</ele>
        <time>2018-09-20T10:54:06.000Z</time>
      </trkpt>
      <trkpt lat="46.69569" lon="-2.35426">
        <ele>20.9</ele>
        <time>2018-09-20T10:54:07.000Z</time>
      </trkpt>
      <trkpt lat="46.69568" lon="-2.35425">
        <ele>20.9</ele>
        <time>2018-09-20T10:54:08.000Z</time>
      </trkpt>
      <trkpt lat="46.69567" lon="-2.35424">
        <ele>20.9</ele>
        <time>2018-09-20T10:54:09.000Z</time>
      </trkpt>
      <trkpt lat="46.69566" lon="-2.35423">
        <ele>21</ele>
        <time>2018-09-20T10:54:10.000Z</time>
      </trkpt>
      <trkpt lat="46.69565" lon="-2.35421">
        <ele>21</ele>
        <time>2018-09-20T10:54:11.000Z</time>
      </trkpt>
      <trkpt lat="46.69564" lon="-2.3542">
        <ele>21.1</ele>
        <time>2018-09-20T10:54:12.000Z</time>
      </trkpt>
      <trkpt lat="46.69563" lon="-2.35419">
        <ele>21.1</ele>
        <time>2018-09-20T10:54:13.000Z</time>
      </trkpt>
      <trkpt lat="46.69563" lon="-2.35418">
        <ele>21.2</ele>
        <time>2018-09-20T10:54:14.000Z</time>
      </trkpt>
      <trkpt lat="46.69562" lon="-2.35417">
        <ele>21.2</ele>
        <time>2018-09-20T10:54:15.000Z</time>
      </trkpt>
      <trkpt lat="46.69562" lon="-2.35416">
        <ele>21.2</ele>
        <time>2018-09-20T10:54:16.000Z</time>
      </trkpt>
      <trkpt lat="46.69562" lon="-2.35416">
        <ele>21.2</ele>
        <time>2018-09-20T10:54:17.000Z</time>
      </trkpt>
      <trkpt lat="46.69562" lon="-2.35416">
        <ele>21.2</ele>
        <time>2018-09-20T10:54:18.000Z</time>
      </trkpt>
      <trkpt lat="46.69562" lon="-2.35416">
        <ele>21.2</ele>
        <time>2018-09-20T10:54:19.000Z</time>
      </trkpt>
      <trkpt lat="46.69561" lon="-2.35416">
        <ele>21.2</ele>
        <time>2018-09-20T10:54:20.000Z</time>
      </trkpt>
      <trkpt lat="46.69561" lon="-2.35415">
        <ele>21.2</ele>
        <time>2018-09-20T10:54:21.000Z</time>
      </trkpt>
      <trkpt lat="46.69561" lon="-2.35415">
        <ele>21.2</ele>
        <time>2018-09-20T10:54:22.000Z</time>
      </trkpt>
      <trkpt lat="46.6956" lon="-2.35414">
        <ele>21.2</ele>
        <time>2018-09-20T10:54:23.000Z</time>
      </trkpt>
      <trkpt lat="46.6956" lon="-2.35413">
        <ele>21.2</ele>
        <time>2018-09-20T10:54:24.000Z</time>
      </trkpt>
      <trkpt lat="46.69559" lon="-2.35412">
        <ele>21.2</ele>
        <time>2018-09-20T10:54:25.000Z</time>
      </trkpt>
      <trkpt lat="46.69558" lon="-2.3541">
        <ele>21.2</ele>
        <time>2018-09-20T10:54:26.000Z</time>
      </trkpt>
      <trkpt lat="46.69557" lon="-2.35408">
        <ele>21.2</ele>
        <time>2018-09-20T10:54:27.000Z</time>
      </trkpt>
      <trkpt lat="46.69556" lon="-2.35406">
        <ele>21.2</ele>
        <time>2018-09-20T10:54:28.000Z</time>
      </trkpt>
      <trkpt lat="46.69554" lon="-2.35404">
        <ele>21.2</ele>
        <time>2018-09-20T10:54:29.000Z</time>
      </trkpt>
      <trkpt lat="46.69553" lon="-2.35402">
        <ele>21.2</ele>
        <time>2018-09-20T10:54:30.000Z</time>
      </trkpt>
      <trkpt lat="46.69552" lon="-2.354">
        <ele>21.2</ele>
        <time>2018-09-20T10:54:31.000Z</time>
      </trkpt>
      <trkpt lat="46.69551" lon="-2.35398">
        <ele>21.2</ele>
        <time>2018-09-20T10:54:32.000Z</time>
      </trkpt>
      <trkpt lat="46.6955" lon="-2.35397">
        <ele>21.2</ele>
        <time>2018-09-20T10:54:33.000Z</time>
      </trkpt>
      <trkpt lat="46.69549" lon="-2.35395">
        <ele>21.2</ele>
        <time>2018-09-20T10:54:34.000Z</time>
      </trkpt>
      <trkpt lat="46.69548" lon="-2.35394">
        <ele>21.2</ele>
        <time>2018-09-20T10:54:35.000Z</time>
      </trkpt>
      <trkpt lat="46.69548" lon="-2.35392">
        <ele>21.2</ele>
        <time>2018-09-20T10:54:36.000Z</time>
      </trkpt>
      <trkpt lat="46.69547" lon="-2.35391">
        <ele>21.3</ele>
        <time>2018-09-20T10:54:37.000Z</time>
      </trkpt>
      <trkpt lat="46.69546" lon="-2.3539">
        <ele>21.3</ele>
        <time>2018-09-20T10:54:38.000Z</time>
      </trkpt>
      <trkpt lat="46.69545" lon="-2.35389">
        <ele>21.3</ele>
        <time>2018-09-20T10:54:39.000Z</time>
      </trkpt>
      <trkpt lat="46.69545" lon="-2.35388">
        <ele>21.3</ele>
        <time>2018-09-20T10:54:40.000Z</time>
      </trkpt>
      <trkpt lat="46.69544" lon="-2.35386">
        <ele>21.3</ele>
        <time>2018-09-20T10:54:41.000Z</time>
      </trkpt>
      <trkpt lat="46.69543" lon="-2.35385">
        <ele>21.3</ele>
        <time>2018-09-20T10:54:42.000Z</time>
      </trkpt>
      <trkpt lat="46.69542" lon="-2.35384">
        <ele>21.3</ele>
        <time>2018-09-20T10:54:43.000Z</time>
      </trkpt>
      <trkpt lat="46.69541" lon="-2.35383">
        <ele>21.3</ele>
        <time>2018-09-20T10:54:44.000Z</time>
      </trkpt>
      <trkpt lat="46.69541" lon="-2.35381">
        <ele>21.3</ele>
        <time>2018-09-20T10:54:45.000Z</time>
      </trkpt>
      <trkpt lat="46.6954" lon="-2.3538">
        <ele>21.3</ele>
        <time>2018-09-20T10:54:46.000Z</time>
      </trkpt>
      <trkpt lat="46.69539" lon="-2.35379">
        <ele>21.4</ele>
        <time>2018-09-20T10:54:47.000Z</time>
      </trkpt>
      <trkpt lat="46.69538" lon="-2.35377">
        <ele>21.4</ele>
        <time>2018-09-20T10:54:48.000Z</time>
      </trkpt>
      <trkpt lat="46.69537" lon="-2.35376">
        <ele>21.4</ele>
        <time>2018-09-20T10:54:49.000Z</time>
      </trkpt>
      <trkpt lat="46.69536" lon="-2.35375">
        <ele>21.4</ele>
        <time>2018-09-20T10:54:50.000Z</time>
      </trkpt>
      <trkpt lat="46.69535" lon="-2.35373">
        <ele>21.4</ele>
        <time>2018-09-20T10:54:51.000Z</time>
      </trkpt>
      <trkpt lat="46.69534" lon="-2.35372">
        <ele>21.4</ele>
        <time>2018-09-20T10:54:52.000Z</time>
      </trkpt>
      <trkpt lat="46.69534" lon="-2.35371">
        <ele>21.5</ele>
        <time>2018-09-20T10:54:53.000Z</time>
      </trkpt>
      <trkpt lat="46.69533" lon="-2.35369">
        <ele>21.5</ele>
        <time>2018-09-20T10:54:54.000Z</time>
      </trkpt>
      <trkpt lat="46.69532" lon="-2.35368">
        <ele>21.5</ele>
        <time>2018-09-20T10:54:55.000Z</time>
      </trkpt>
      <trkpt lat="46.69531" lon="-2.35367">
        <ele>21.5</ele>
        <time>2018-09-20T10:54:56.000Z</time>
      </trkpt>
      <trkpt lat="46.6953" lon="-2.35366">
        <ele>21.5</ele>
        <time>2018-09-20T10:54:57.000Z</time>
      </trkpt>
      <trkpt lat="46.69529" lon="-2.35364">
        <ele>21.5</ele>
        <time>2018-09-20T10:54:58.000Z</time>
      </trkpt>
      <trkpt lat="46.69528" lon="-2.35363">
        <ele>21.6</ele>
        <time>2018-09-20T10:54:59.000Z</time>
      </trkpt>
      <trkpt lat="46.69527" lon="-2.35362">
        <ele>21.6</ele>
        <time>2018-09-20T10:55:00.000Z</time>
      </trkpt>
      <trkpt lat="46.69526" lon="-2.35361">
        <ele>21.6</ele>
        <time>2018-09-20T10:55:01.000Z</time>
      </trkpt>
      <trkpt lat="46.69525" lon="-2.3536">
        <ele>21.6</ele>
        <time>2018-09-20T10:55:02.000Z</time>
      </trkpt>
      <trkpt lat="46.69524" lon="-2.35359">
        <ele>21.6</ele>
        <time>2018-09-20T10:55:03.000Z</time>
      </trkpt>
      <trkpt lat="46.69524" lon="-2.35358">
        <ele>21.6</ele>
        <time>2018-09-20T10:55:04.000Z</time>
      </trkpt>
      <trkpt lat="46.69523" lon="-2.35356">
        <ele>21.7</ele>
        <time>2018-09-20T10:55:05.000Z</time>
      </trkpt>
      <trkpt lat="46.69522" lon="-2.35355">
        <ele>21.7</ele>
        <time>2018-09-20T10:55:06.000Z</time>
      </trkpt>
      <trkpt lat="46.69521" lon="-2.35354">
        <ele>21.7</ele>
        <time>2018-09-20T10:55:07.000Z</time>
      </trkpt>
      <trkpt lat="46.6952" lon="-2.35353">
        <ele>21.7</ele>
        <time>2018-09-20T10:55:08.000Z</time>
      </trkpt>
      <trkpt lat="46.69519" lon="-2.35352">
        <ele>21.8</ele>
        <time>2018-09-20T10:55:09.000Z</time>
      </trkpt>
      <trkpt lat="46.69519" lon="-2.35351">
        <ele>21.8</ele>
        <time>2018-09-20T10:55:10.000Z</time>
      </trkpt>
      <trkpt lat="46.69518" lon="-2.3535">
        <ele>21.8</ele>
        <time>2018-09-20T10:55:11.000Z</time>
      </trkpt>
      <trkpt lat="46.69517" lon="-2.35348">
        <ele>21.8</ele>
        <time>2018-09-20T10:55:12.000Z</time>
      </trkpt>
      <trkpt lat="46.69516" lon="-2.35347">
        <ele>21.9</ele>
        <time>2018-09-20T10:55:13.000Z</time>
      </trkpt>
      <trkpt lat="46.69516" lon="-2.35346">
        <ele>21.9</ele>
        <time>2018-09-20T10:55:14.000Z</time>
      </trkpt>
      <trkpt lat="46.69515" lon="-2.35345">
        <ele>22</ele>
        <time>2018-09-20T10:55:15.000Z</time>
      </trkpt>
      <trkpt lat="46.69514" lon="-2.35344">
        <ele>22</ele>
        <time>2018-09-20T10:55:16.000Z</time>
      </trkpt>
      <trkpt lat="46.69514" lon="-2.35343">
        <ele>22.1</ele>
        <time>2018-09-20T10:55:17.000Z</time>
      </trkpt>
      <trkpt lat="46.69513" lon="-2.35341">
        <ele>22.1</ele>
        <time>2018-09-20T10:55:18.000Z</time>
      </trkpt>
      <trkpt lat="46.69512" lon="-2.3534">
        <ele>22.1</ele>
        <time>2018-09-20T10:55:19.000Z</time>
      </trkpt>
      <trkpt lat="46.69512" lon="-2.35339">
        <ele>22.2</ele>
        <time>2018-09-20T10:55:20.000Z</time>
      </trkpt>
      <trkpt lat="46.69511" lon="-2.35338">
        <ele>22.2</ele>
        <time>2018-09-20T10:55:21.000Z</time>
      </trkpt>
      <trkpt lat="46.6951" lon="-2.35337">
        <ele>22.2</ele>
        <time>2018-09-20T10:55:22.000Z</time>
      </trkpt>
      <trkpt lat="46.69509" lon="-2.35336">
        <ele>22.3</ele>
        <time>2018-09-20T10:55:23.000Z</time>
      </trkpt>
      <trkpt lat="46.69509" lon="-2.35335">
        <ele>22.3</ele>
        <time>2018-09-20T10:55:24.000Z</time>
      </trkpt>
      <trkpt lat="46.69508" lon="-2.35334">
        <ele>22.3</ele>
        <time>2018-09-20T10:55:25.000Z</time>
      </trkpt>
      <trkpt lat="46.69507" lon="-2.35334">
        <ele>22.3</ele>
        <time>2018-09-20T10:55:26.000Z</time>
      </trkpt>
      <trkpt lat="46.69506" lon="-2.35333">
        <ele>22.3</ele>
        <time>2018-09-20T10:55:27.000Z</time>
      </trkpt>
      <trkpt lat="46.69505" lon="-2.35332">
        <ele>22.3</ele>
        <time>2018-09-20T10:55:28.000Z</time>
      </trkpt>
      <trkpt lat="46.69503" lon="-2.35332">
        <ele>22.2</ele>
        <time>2018-09-20T10:55:29.000Z</time>
      </trkpt>
      <trkpt lat="46.69502" lon="-2.35332">
        <ele>22.2</ele>
        <time>2018-09-20T10:55:30.000Z</time>
      </trkpt>
      <trkpt lat="46.69501" lon="-2.35331">
        <ele>22.2</ele>
        <time>2018-09-20T10:55:31.000Z</time>
      </trkpt>
      <trkpt lat="46.695" lon="-2.35331">
        <ele>22.1</ele>
        <time>2018-09-20T10:55:32.000Z</time>
      </trkpt>
      <trkpt lat="46.69499" lon="-2.3533">
        <ele>22.1</ele>
        <time>2018-09-20T10:55:33.000Z</time>
      </trkpt>
      <trkpt lat="46.69498" lon="-2.3533">
        <ele>22.1</ele>
        <time>2018-09-20T10:55:34.000Z</time>
      </trkpt>
      <trkpt lat="46.69497" lon="-2.35329">
        <ele>22.1</ele>
        <time>2018-09-20T10:55:35.000Z</time>
      </trkpt>
      <trkpt lat="46.69496" lon="-2.35329">
        <ele>22.1</ele>
        <time>2018-09-20T10:55:36.000Z</time>
      </trkpt>
      <trkpt lat="46.69495" lon="-2.35328">
        <ele>22.1</ele>
        <time>2018-09-20T10:55:37.000Z</time>
      </trkpt>
      <trkpt lat="46.69494" lon="-2.35327">
        <ele>22.1</ele>
        <time>2018-09-20T10:55:38.000Z</time>
      </trkpt>
      <trkpt lat="46.69493" lon="-2.35326">
        <ele>22.1</ele>
        <time>2018-09-20T10:55:39.000Z</time>
      </trkpt>
      <trkpt lat="46.69492" lon="-2.35325">
        <ele>22.1</ele>
        <time>2018-09-20T10:55:40.000Z</time>
      </trkpt>
      <trkpt lat="46.69491" lon="-2.35324">
        <ele>22.1</ele>
        <time>2018-09-20T10:55:41.000Z</time>
      </trkpt>
      <trkpt lat="46.69489" lon="-2.35323">
        <ele>22.1</ele>
        <time>2018-09-20T10:55:42.000Z</time>
      </trkpt>
      <trkpt lat="46.69488" lon="-2.35322">
        <ele>22.1</ele>
        <time>2018-09-20T10:55:43.000Z</time>
      </trkpt>
      <trkpt lat="46.69487" lon="-2.35322">
        <ele>22.1</ele>
        <time>2018-09-20T10:55:44.000Z</time>
      </trkpt>
      <trkpt lat="46.69486" lon="-2.35321">
        <ele>22.1</ele>
        <time>2018-09-20T10:55:45.000Z</time>
      </trkpt>
      <trkpt lat="46.69485" lon="-2.35321">
        <ele>22</ele>
        <time>2018-09-20T10:55:46.000Z</time>
      </trkpt>
      <trkpt lat="46.69484" lon="-2.3532">
        <ele>22</ele>
        <time>2018-09-20T10:55:47.000Z</time>
      </trkpt>
      <trkpt lat="46.69482" lon="-2.3532">
        <ele>22</ele>
        <time>2018-09-20T10:55:48.000Z</time>
      </trkpt>
      <trkpt lat="46.69482" lon="-2.3532">
        <ele>21.9</ele>
        <time>2018-09-20T10:55:49.000Z</time>
      </trkpt>
      <trkpt lat="46.69481" lon="-2.3532">
        <ele>21.9</ele>
        <time>2018-09-20T10:55:50.000Z</time>
      </trkpt>
      <trkpt lat="46.69481" lon="-2.35321">
        <ele>21.9</ele>
        <time>2018-09-20T10:55:51.000Z</time>
      </trkpt>
      <trkpt lat="46.69481" lon="-2.35321">
        <ele>21.9</ele>
        <time>2018-09-20T10:55:52.000Z</time>
      </trkpt>
      <trkpt lat="46.6948" lon="-2.3532">
        <ele>21.9</ele>
        <time>2018-09-20T10:55:53.000Z</time>
      </trkpt>
      <trkpt lat="46.69479" lon="-2.3532">
        <ele>21.8</ele>
        <time>2018-09-20T10:55:54.000Z</time>
      </trkpt>
      <trkpt lat="46.69477" lon="-2.3532">
        <ele>21.8</ele>
        <time>2018-09-20T10:55:55.000Z</time>
      </trkpt>
      <trkpt lat="46.69476" lon="-2.3532">
        <ele>21.7</ele>
        <time>2018-09-20T10:55:56.000Z</time>
      </trkpt>
      <trkpt lat="46.69474" lon="-2.3532">
        <ele>21.7</ele>
        <time>2018-09-20T10:55:57.000Z</time>
      </trkpt>
      <trkpt lat="46.69473" lon="-2.3532">
        <ele>21.6</ele>
        <time>2018-09-20T10:55:58.000Z</time>
      </trkpt>
      <trkpt lat="46.69472" lon="-2.3532">
        <ele>21.6</ele>
        <time>2018-09-20T10:55:59.000Z</time>
      </trkpt>
      <trkpt lat="46.69471" lon="-2.35321">
        <ele>21.5</ele>
        <time>2018-09-20T10:56:00.000Z</time>
      </trkpt>
      <trkpt lat="46.6947" lon="-2.35322">
        <ele>21.4</ele>
        <time>2018-09-20T10:56:01.000Z</time>
      </trkpt>
      <trkpt lat="46.6947" lon="-2.35323">
        <ele>21.4</ele>
        <time>2018-09-20T10:56:02.000Z</time>
      </trkpt>
      <trkpt lat="46.69469" lon="-2.35324">
        <ele>21.3</ele>
        <time>2018-09-20T10:56:03.000Z</time>
      </trkpt>
      <trkpt lat="46.69468" lon="-2.35326">
        <ele>21.2</ele>
        <time>2018-09-20T10:56:04.000Z</time>
      </trkpt>
      <trkpt lat="46.69468" lon="-2.35327">
        <ele>21.1</ele>
        <time>2018-09-20T10:56:05.000Z</time>
      </trkpt>
      <trkpt lat="46.69467" lon="-2.35329">
        <ele>21</ele>
        <time>2018-09-20T10:56:06.000Z</time>
      </trkpt>
      <trkpt lat="46.69466" lon="-2.3533">
        <ele>20.9</ele>
        <time>2018-09-20T10:56:07.000Z</time>
      </trkpt>
      <trkpt lat="46.69466" lon="-2.35332">
        <ele>20.8</ele>
        <time>2018-09-20T10:56:08.000Z</time>
      </trkpt>
      <trkpt lat="46.69465" lon="-2.35333">
        <ele>20.8</ele>
        <time>2018-09-20T10:56:09.000Z</time>
      </trkpt>
      <trkpt lat="46.69464" lon="-2.35333">
        <ele>20.7</ele>
        <time>2018-09-20T10:56:10.000Z</time>
      </trkpt>
      <trkpt lat="46.69463" lon="-2.35334">
        <ele>20.6</ele>
        <time>2018-09-20T10:56:11.000Z</time>
      </trkpt>
      <trkpt lat="46.69463" lon="-2.35335">
        <ele>20.6</ele>
        <time>2018-09-20T10:56:12.000Z</time>
      </trkpt>
      <trkpt lat="46.69462" lon="-2.35335">
        <ele>20.5</ele>
        <time>2018-09-20T10:56:13.000Z</time>
      </trkpt>
      <trkpt lat="46.69461" lon="-2.35336">
        <ele>20.4</ele>
        <time>2018-09-20T10:56:14.000Z</time>
      </trkpt>
      <trkpt lat="46.6946" lon="-2.35337">
        <ele>20.3</ele>
        <time>2018-09-20T10:56:15.000Z</time>
      </trkpt>
      <trkpt lat="46.69459" lon="-2.35338">
        <ele>20.2</ele>
        <time>2018-09-20T10:56:16.000Z</time>
      </trkpt>
      <trkpt lat="46.69459" lon="-2.35339">
        <ele>20.1</ele>
        <time>2018-09-20T10:56:17.000Z</time>
      </trkpt>
      <trkpt lat="46.69458" lon="-2.3534">
        <ele>20</ele>
        <time>2018-09-20T10:56:18.000Z</time>
      </trkpt>
      <trkpt lat="46.69457" lon="-2.35341">
        <ele>19.8</ele>
        <time>2018-09-20T10:56:19.000Z</time>
      </trkpt>
      <trkpt lat="46.69457" lon="-2.35343">
        <ele>19.7</ele>
        <time>2018-09-20T10:56:20.000Z</time>
      </trkpt>
      <trkpt lat="46.69456" lon="-2.35344">
        <ele>19.6</ele>
        <time>2018-09-20T10:56:21.000Z</time>
      </trkpt>
      <trkpt lat="46.69456" lon="-2.35345">
        <ele>19.5</ele>
        <time>2018-09-20T10:56:22.000Z</time>
      </trkpt>
      <trkpt lat="46.69455" lon="-2.35346">
        <ele>19.4</ele>
        <time>2018-09-20T10:56:23.000Z</time>
      </trkpt>
      <trkpt lat="46.69454" lon="-2.35347">
        <ele>19.3</ele>
        <time>2018-09-20T10:56:24.000Z</time>
      </trkpt>
      <trkpt lat="46.69454" lon="-2.35348">
        <ele>19.2</ele>
        <time>2018-09-20T10:56:25.000Z</time>
      </trkpt>
      <trkpt lat="46.69453" lon="-2.35349">
        <ele>19</ele>
        <time>2018-09-20T10:56:26.000Z</time>
      </trkpt>
      <trkpt lat="46.69452" lon="-2.35351">
        <ele>18.9</ele>
        <time>2018-09-20T10:56:27.000Z</time>
      </trkpt>
      <trkpt lat="46.69452" lon="-2.35352">
        <ele>18.8</ele>
        <time>2018-09-20T10:56:28.000Z</time>
      </trkpt>
      <trkpt lat="46.69451" lon="-2.35353">
        <ele>18.7</ele>
        <time>2018-09-20T10:56:29.000Z</time>
      </trkpt>
      <trkpt lat="46.6945" lon="-2.35355">
        <ele>18.5</ele>
        <time>2018-09-20T10:56:30.000Z</time>
      </trkpt>
      <trkpt lat="46.69449" lon="-2.35356">
        <ele>18.4</ele>
        <time>2018-09-20T10:56:31.000Z</time>
      </trkpt>
      <trkpt lat="46.69449" lon="-2.35358">
        <ele>18.2</ele>
        <time>2018-09-20T10:56:32.000Z</time>
      </trkpt>
      <trkpt lat="46.69448" lon="-2.35359">
        <ele>18.1</ele>
        <time>2018-09-20T10:56:33.000Z</time>
      </trkpt>
      <trkpt lat="46.69447" lon="-2.35361">
        <ele>17.9</ele>
        <time>2018-09-20T10:56:34.000Z</time>
      </trkpt>
      <trkpt lat="46.69446" lon="-2.35363">
        <ele>17.7</ele>
        <time>2018-09-20T10:56:35.000Z</time>
      </trkpt>
      <trkpt lat="46.69445" lon="-2.35364">
        <ele>17.6</ele>
        <time>2018-09-20T10:56:36.000Z</time>
      </trkpt>
      <trkpt lat="46.69444" lon="-2.35366">
        <ele>17.4</ele>
        <time>2018-09-20T10:56:37.000Z</time>
      </trkpt>
      <trkpt lat="46.69444" lon="-2.35367">
        <ele>17.2</ele>
        <time>2018-09-20T10:56:38.000Z</time>
      </trkpt>
      <trkpt lat="46.69443" lon="-2.35369">
        <ele>17.1</ele>
        <time>2018-09-20T10:56:39.000Z</time>
      </trkpt>
      <trkpt lat="46.69443" lon="-2.35371">
        <ele>17</ele>
        <time>2018-09-20T10:56:40.000Z</time>
      </trkpt>
      <trkpt lat="46.69443" lon="-2.35372">
        <ele>16.8</ele>
        <time>2018-09-20T10:56:41.000Z</time>
      </trkpt>
      <trkpt lat="46.69443" lon="-2.35374">
        <ele>16.7</ele>
        <time>2018-09-20T10:56:42.000Z</time>
      </trkpt>
      <trkpt lat="46.69443" lon="-2.35375">
        <ele>16.6</ele>
        <time>2018-09-20T10:56:43.000Z</time>
      </trkpt>
      <trkpt lat="46.69443" lon="-2.35376">
        <ele>16.5</ele>
        <time>2018-09-20T10:56:44.000Z</time>
      </trkpt>
      <trkpt lat="46.69443" lon="-2.35378">
        <ele>16.4</ele>
        <time>2018-09-20T10:56:45.000Z</time>
      </trkpt>
      <trkpt lat="46.69444" lon="-2.35379">
        <ele>16.3</ele>
        <time>2018-09-20T10:56:46.000Z</time>
      </trkpt>
      <trkpt lat="46.69444" lon="-2.35381">
        <ele>16.2</ele>
        <time>2018-09-20T10:56:47.000Z</time>
      </trkpt>
      <trkpt lat="46.69443" lon="-2.35382">
        <ele>16</ele>
        <time>2018-09-20T10:56:48.000Z</time>
      </trkpt>
      <trkpt lat="46.69443" lon="-2.35384">
        <ele>15.9</ele>
        <time>2018-09-20T10:56:49.000Z</time>
      </trkpt>
      <trkpt lat="46.69442" lon="-2.35385">
        <ele>15.7</ele>
        <time>2018-09-20T10:56:50.000Z</time>
      </trkpt>
      <trkpt lat="46.69442" lon="-2.35387">
        <ele>15.6</ele>
        <time>2018-09-20T10:56:51.000Z</time>
      </trkpt>
      <trkpt lat="46.69442" lon="-2.35389">
        <ele>15.5</ele>
        <time>2018-09-20T10:56:52.000Z</time>
      </trkpt>
      <trkpt lat="46.69442" lon="-2.3539">
        <ele>15.3</ele>
        <time>2018-09-20T10:56:53.000Z</time>
      </trkpt>
      <trkpt lat="46.69442" lon="-2.35392">
        <ele>15.2</ele>
        <time>2018-09-20T10:56:54.000Z</time>
      </trkpt>
      <trkpt lat="46.69443" lon="-2.35394">
        <ele>15.1</ele>
        <time>2018-09-20T10:56:55.000Z</time>
      </trkpt>
      <trkpt lat="46.69443" lon="-2.35395">
        <ele>15</ele>
        <time>2018-09-20T10:56:56.000Z</time>
      </trkpt>
      <trkpt lat="46.69443" lon="-2.35397">
        <ele>14.9</ele>
        <time>2018-09-20T10:56:57.000Z</time>
      </trkpt>
      <trkpt lat="46.69444" lon="-2.35399">
        <ele>14.7</ele>
        <time>2018-09-20T10:56:58.000Z</time>
      </trkpt>
      <trkpt lat="46.69444" lon="-2.354">
        <ele>14.6</ele>
        <time>2018-09-20T10:56:59.000Z</time>
      </trkpt>
      <trkpt lat="46.69443" lon="-2.35402">
        <ele>14.5</ele>
        <time>2018-09-20T10:57:00.000Z</time>
      </trkpt>
      <trkpt lat="46.69443" lon="-2.35403">
        <ele>14.3</ele>
        <time>2018-09-20T10:57:01.000Z</time>
      </trkpt>
      <trkpt lat="46.69443" lon="-2.35405">
        <ele>14.2</ele>
        <time>2018-09-20T10:57:02.000Z</time>
      </trkpt>
      <trkpt lat="46.69443" lon="-2.35407">
        <ele>14.1</ele>
        <time>2018-09-20T10:57:03.000Z</time>
      </trkpt>
      <trkpt lat="46.69443" lon="-2.35408">
        <ele>13.9</ele>
        <time>2018-09-20T10:57:04.000Z</time>
      </trkpt>
      <trkpt lat="46.69442" lon="-2.3541">
        <ele>13.8</ele>
        <time>2018-09-20T10:57:05.000Z</time>
      </trkpt>
      <trkpt lat="46.69442" lon="-2.35411">
        <ele>13.7</ele>
        <time>2018-09-20T10:57:06.000Z</time>
      </trkpt>
      <trkpt lat="46.69442" lon="-2.35413">
        <ele>13.5</ele>
        <time>2018-09-20T10:57:07.000Z</time>
      </trkpt>
      <trkpt lat="46.69442" lon="-2.35414">
        <ele>13.4</ele>
        <time>2018-09-20T10:57:08.000Z</time>
      </trkpt>
      <trkpt lat="46.69441" lon="-2.35416">
        <ele>13.3</ele>
        <time>2018-09-20T10:57:09.000Z</time>
      </trkpt>
      <trkpt lat="46.69441" lon="-2.35417">
        <ele>13.1</ele>
        <time>2018-09-20T10:57:10.000Z</time>
      </trkpt>
      <trkpt lat="46.69441" lon="-2.35418">
        <ele>13</ele>
        <time>2018-09-20T10:57:11.000Z</time>
      </trkpt>
      <trkpt lat="46.6944" lon="-2.3542">
        <ele>12.8</ele>
        <time>2018-09-20T10:57:12.000Z</time>
      </trkpt>
      <trkpt lat="46.6944" lon="-2.35421">
        <ele>12.7</ele>
        <time>2018-09-20T10:57:13.000Z</time>
      </trkpt>
      <trkpt lat="46.6944" lon="-2.35422">
        <ele>12.5</ele>
        <time>2018-09-20T10:57:14.000Z</time>
      </trkpt>
      <trkpt lat="46.6944" lon="-2.35423">
        <ele>12.4</ele>
        <time>2018-09-20T10:57:15.000Z</time>
      </trkpt>
      <trkpt lat="46.69439" lon="-2.35424">
        <ele>12.3</ele>
        <time>2018-09-20T10:57:16.000Z</time>
      </trkpt>
      <trkpt lat="46.69439" lon="-2.35425">
        <ele>12.1</ele>
        <time>2018-09-20T10:57:17.000Z</time>
      </trkpt>
      <trkpt lat="46.69439" lon="-2.35426">
        <ele>12</ele>
        <time>2018-09-20T10:57:18.000Z</time>
      </trkpt>
      <trkpt lat="46.69439" lon="-2.35427">
        <ele>11.9</ele>
        <time>2018-09-20T10:57:19.000Z</time>
      </trkpt>
      <trkpt lat="46.69438" lon="-2.35428">
        <ele>11.8</ele>
        <time>2018-09-20T10:57:20.000Z</time>
      </trkpt>
      <trkpt lat="46.69438" lon="-2.35428">
        <ele>11.7</ele>
        <time>2018-09-20T10:57:21.000Z</time>
      </trkpt>
      <trkpt lat="46.69438" lon="-2.35429">
        <ele>11.7</ele>
        <time>2018-09-20T10:57:22.000Z</time>
      </trkpt>
      <trkpt lat="46.69438" lon="-2.3543">
        <ele>11.6</ele>
        <time>2018-09-20T10:57:23.000Z</time>
      </trkpt>
      <trkpt lat="46.69438" lon="-2.3543">
        <ele>11.5</ele>
        <time>2018-09-20T10:57:24.000Z</time>
      </trkpt>
      <trkpt lat="46.69438" lon="-2.3543">
        <ele>11.5</ele>
        <time>2018-09-20T10:57:25.000Z</time>
      </trkpt>
      <trkpt lat="46.69438" lon="-2.35431">
        <ele>11.5</ele>
        <time>2018-09-20T10:57:26.000Z</time>
      </trkpt>
      <trkpt lat="46.69437" lon="-2.35431">
        <ele>11.4</ele>
        <time>2018-09-20T10:57:27.000Z</time>
      </trkpt>
      <trkpt lat="46.69437" lon="-2.35431">
        <ele>11.4</ele>
        <time>2018-09-20T10:57:28.000Z</time>
      </trkpt>
      <trkpt lat="46.69437" lon="-2.35431">
        <ele>11.4</ele>
        <time>2018-09-20T10:57:29.000Z</time>
      </trkpt>
      <trkpt lat="46.69437" lon="-2.35431">
        <ele>11.4</ele>
        <time>2018-09-20T10:57:30.000Z</time>
      </trkpt>
      <trkpt lat="46.69437" lon="-2.35431">
        <ele>11.4</ele>
        <time>2018-09-20T10:57:31.000Z</time>
      </trkpt>
      <trkpt lat="46.69437" lon="-2.35431">
        <ele>11.4</ele>
        <time>2018-09-20T10:57:32.000Z</time>
      </trkpt>
      <trkpt lat="46.69437" lon="-2.35431">
        <ele>11.4</ele>
        <time>2018-09-20T10:57:33.000Z</time>
      </trkpt>
      <trkpt lat="46.69437" lon="-2.35431">
        <ele>11.4</ele>
        <time>2018-09-20T10:57:34.000Z</time>
      </trkpt>
      <trkpt lat="46.69437" lon="-2.35431">
        <ele>11.4</ele>
        <time>2018-09-20T10:57:35.000Z</time>
      </trkpt>
      <trkpt lat="46.69437" lon="-2.35431">
        <ele>11.4</ele>
        <time>2018-09-20T10:57:36.000Z</time>
      </trkpt>
      <trkpt lat="46.69437" lon="-2.35431">
        <ele>11.4</ele>
        <time>2018-09-20T10:57:37.000Z</time>
      </trkpt>
      <trkpt lat="46.69437" lon="-2.35431">
        <ele>11.4</ele>
        <time>2018-09-20T10:57:38.000Z</time>
      </trkpt>
      <trkpt lat="46.69437" lon="-2.35431">
        <ele>11.4</ele>
        <time>2018-09-20T10:57:39.000Z</time>
      </trkpt>
      <trkpt lat="46.69437" lon="-2.35431">
        <ele>11.4</ele>
        <time>2018-09-20T10:57:40.000Z</time>
      </trkpt>
      <trkpt lat="46.69437" lon="-2.35431">
        <ele>11.4</ele>
        <time>2018-09-20T10:57:41.000Z</time>
      </trkpt>
      <trkpt lat="46.69437" lon="-2.35431">
        <ele>11.4</ele>
        <time>2018-09-20T10:57:42.000Z</time>
      </trkpt>
      <trkpt lat="46.69437" lon="-2.35431">
        <ele>11.4</ele>
        <time>2018-09-20T10:57:43.000Z</time>
      </trkpt>
      <trkpt lat="46.69437" lon="-2.35431">
        <ele>11.4</ele>
        <time>2018-09-20T10:57:44.000Z</time>
      </trkpt>
      <trkpt lat="46.69437" lon="-2.35431">
        <ele>11.4</ele>
        <time>2018-09-20T10:57:45.000Z</time>
      </trkpt>
      <trkpt lat="46.69437" lon="-2.35431">
        <ele>11.4</ele>
        <time>2018-09-20T10:57:46.000Z</time>
      </trkpt>
      <trkpt lat="46.69437" lon="-2.35431">
        <ele>11.4</ele>
        <time>2018-09-20T10:57:47.000Z</time>
      </trkpt>
      <trkpt lat="46.69437" lon="-2.35431">
        <ele>11.4</ele>
        <time>2018-09-20T10:57:48.000Z</time>
      </trkpt>
      <trkpt lat="46.69437" lon="-2.35431">
        <ele>11.4</ele>
        <time>2018-09-20T10:57:49.000Z</time>
      </trkpt>
      <trkpt lat="46.69437" lon="-2.35431">
        <ele>11.4</ele>
        <time>2018-09-20T10:57:50.000Z</time>
      </trkpt>
      <trkpt lat="46.69437" lon="-2.35431">
        <ele>11.4</ele>
        <time>2018-09-20T10:57:51.000Z</time>
      </trkpt>
      <trkpt lat="46.69437" lon="-2.35431">
        <ele>11.4</ele>
        <time>2018-09-20T10:57:52.000Z</time>
      </trkpt>
      <trkpt lat="46.69437" lon="-2.35431">
        <ele>11.4</ele>
        <time>2018-09-20T10:57:53.000Z</time>
      </trkpt>
      <trkpt lat="46.69437" lon="-2.35431">
        <ele>11.4</ele>
        <time>2018-09-20T10:57:54.000Z</time>
      </trkpt>
      <trkpt lat="46.69437" lon="-2.35431">
        <ele>11.4</ele>
        <time>2018-09-20T10:57:55.000Z</time>
      </trkpt>
      <trkpt lat="46.69437" lon="-2.35431">
        <ele>11.4</ele>
        <time>2018-09-20T10:57:56.000Z</time>
      </trkpt>
      <trkpt lat="46.69437" lon="-2.35431">
        <ele>11.4</ele>
        <time>2018-09-20T10:57:57.000Z</time>
      </trkpt>
      <trkpt lat="46.69437" lon="-2.35431">
        <ele>11.4</ele>
        <time>2018-09-20T10:57:58.000Z</time>
      </trkpt>
      <trkpt lat="46.69437" lon="-2.35431">
        <ele>11.4</ele>
        <time>2018-09-20T10:57:59.000Z</time>
      </trkpt>
      <trkpt lat="46.69437" lon="-2.35431">
        <ele>11.4</ele>
        <time>2018-09-20T10:58:00.000Z</time>
      </trkpt>
      <trkpt lat="46.69437" lon="-2.35431">
        <ele>11.4</ele>
        <time>2018-09-20T10:58:01.000Z</time>
      </trkpt>
      <trkpt lat="46.69437" lon="-2.35431">
        <ele>11.4</ele>
        <time>2018-09-20T10:58:02.000Z</time>
      </trkpt>
      <trkpt lat="46.69437" lon="-2.35431">
        <ele>11.4</ele>
        <time>2018-09-20T10:58:03.000Z</time>
      </trkpt>
      <trkpt lat="46.69437" lon="-2.35431">
        <ele>11.4</ele>
        <time>2018-09-20T10:58:04.000Z</time>
      </trkpt>
      <trkpt lat="46.69437" lon="-2.35431">
        <ele>11.4</ele>
        <time>2018-09-20T10:58:05.000Z</time>
      </trkpt>
      <trkpt lat="46.69437" lon="-2.35431">
        <ele>11.4</ele>
        <time>2018-09-20T10:58:06.000Z</time>
      </trkpt>
      <trkpt lat="46.69437" lon="-2.35431">
        <ele>11.4</ele>
        <time>2018-09-20T10:58:07.000Z</time>
      </trkpt>
      <trkpt lat="46.69437" lon="-2.35431">
        <ele>11.4</ele>
        <time>2018-09-20T10:58:08.000Z</time>
      </trkpt>
      <trkpt lat="46.69437" lon="-2.35431">
        <ele>11.4</ele>
        <time>2018-09-20T10:58:09.000Z</time>
      </trkpt>
      <trkpt lat="46.69437" lon="-2.35431">
        <ele>11.4</ele>
        <time>2018-09-20T10:58:10.000Z</time>
      </trkpt>
      <trkpt lat="46.69437" lon="-2.35431">
        <ele>11.4</ele>
        <time>2018-09-20T10:58:11.000Z</time>
      </trkpt>
      <trkpt lat="46.69437" lon="-2.35431">
        <ele>11.4</ele>
        <time>2018-09-20T10:58:12.000Z</time>
      </trkpt>
      <trkpt lat="46.69437" lon="-2.35431">
        <ele>11.4</ele>
        <time>2018-09-20T10:58:13.000Z</time>
      </trkpt>
      <trkpt lat="46.69437" lon="-2.35431">
        <ele>11.4</ele>
        <time>2018-09-20T10:58:14.000Z</time>
      </trkpt>
      <trkpt lat="46.69437" lon="-2.35431">
        <ele>11.4</ele>
        <time>2018-09-20T10:58:15.000Z</time>
      </trkpt>
      <trkpt lat="46.69437" lon="-2.35431">
        <ele>11.4</ele>
        <time>2018-09-20T10:58:16.000Z</time>
      </trkpt>
      <trkpt lat="46.69437" lon="-2.35431">
        <ele>11.4</ele>
        <time>2018-09-20T10:58:17.000Z</time>
      </trkpt>
      <trkpt lat="46.69437" lon="-2.35431">
        <ele>11.4</ele>
        <time>2018-09-20T10:58:18.000Z</time>
      </trkpt>
      <trkpt lat="46.69437" lon="-2.35431">
        <ele>11.4</ele>
        <time>2018-09-20T10:58:19.000Z</time>
      </trkpt>
      <trkpt lat="46.69437" lon="-2.35431">
        <ele>11.4</ele>
        <time>2018-09-20T10:58:20.000Z</time>
      </trkpt>
      <trkpt lat="46.69437" lon="-2.35431">
        <ele>11.4</ele>
        <time>2018-09-20T10:58:21.000Z</time>
      </trkpt>
      <trkpt lat="46.69437" lon="-2.35431">
        <ele>11.4</ele>
        <time>2018-09-20T10:58:22.000Z</time>
      </trkpt>
      <trkpt lat="46.69437" lon="-2.35431">
        <ele>11.4</ele>
        <time>2018-09-20T10:58:23.000Z</time>
      </trkpt>
      <trkpt lat="46.69437" lon="-2.35431">
        <ele>11.4</ele>
        <time>2018-09-20T10:58:24.000Z</time>
      </trkpt>
      <trkpt lat="46.69437" lon="-2.35431">
        <ele>11.4</ele>
        <time>2018-09-20T10:58:25.000Z</time>
      </trkpt>
      <trkpt lat="46.69437" lon="-2.35431">
        <ele>11.4</ele>
        <time>2018-09-20T10:58:26.000Z</time>
      </trkpt>
      <trkpt lat="46.69437" lon="-2.35431">
        <ele>11.4</ele>
        <time>2018-09-20T10:58:27.000Z</time>
      </trkpt>
      <trkpt lat="46.69437" lon="-2.35431">
        <ele>11.4</ele>
        <time>2018-09-20T10:58:28.000Z</time>
      </trkpt>
      <trkpt lat="46.69437" lon="-2.35431">
        <ele>11.4</ele>
        <time>2018-09-20T10:58:29.000Z</time>
      </trkpt>
      <trkpt lat="46.69437" lon="-2.35431">
        <ele>11.4</ele>
        <time>2018-09-20T10:58:30.000Z</time>
      </trkpt>
      <trkpt lat="46.69437" lon="-2.35431">
        <ele>11.4</ele>
        <time>2018-09-20T10:58:31.000Z</time>
      </trkpt>
      <trkpt lat="46.69437" lon="-2.35431">
        <ele>11.4</ele>
        <time>2018-09-20T10:58:32.000Z</time>
      </trkpt>
      <trkpt lat="46.69437" lon="-2.35431">
        <ele>11.4</ele>
        <time>2018-09-20T10:58:33.000Z</time>
      </trkpt>
      <trkpt lat="46.69437" lon="-2.35431">
        <ele>11.4</ele>
        <time>2018-09-20T10:58:34.000Z</time>
      </trkpt>
      <trkpt lat="46.69437" lon="-2.35431">
        <ele>11.4</ele>
        <time>2018-09-20T10:58:35.000Z</time>
      </trkpt>
      <trkpt lat="46.69437" lon="-2.35431">
        <ele>11.4</ele>
        <time>2018-09-20T10:58:36.000Z</time>
      </trkpt>
      <trkpt lat="46.69437" lon="-2.35431">
        <ele>11.4</ele>
        <time>2018-09-20T10:58:37.000Z</time>
      </trkpt>
      <trkpt lat="46.69437" lon="-2.35431">
        <ele>11.4</ele>
        <time>2018-09-20T10:58:38.000Z</time>
      </trkpt>
      <trkpt lat="46.69437" lon="-2.35431">
        <ele>11.4</ele>
        <time>2018-09-20T10:58:39.000Z</time>
      </trkpt>
      <trkpt lat="46.69437" lon="-2.35431">
        <ele>11.4</ele>
        <time>2018-09-20T10:58:40.000Z</time>
      </trkpt>
      <trkpt lat="46.69437" lon="-2.35431">
        <ele>11.4</ele>
        <time>2018-09-20T10:58:41.000Z</time>
      </trkpt>
      <trkpt lat="46.69437" lon="-2.35431">
        <ele>11.4</ele>
        <time>2018-09-20T10:58:42.000Z</time>
      </trkpt>
      <trkpt lat="46.69437" lon="-2.35431">
        <ele>11.4</ele>
        <time>2018-09-20T10:58:43.000Z</time>
      </trkpt>
      <trkpt lat="46.69437" lon="-2.35431">
        <ele>11.4</ele>
        <time>2018-09-20T10:58:44.000Z</time>
      </trkpt>
      <trkpt lat="46.69437" lon="-2.35431">
        <ele>11.4</ele>
        <time>2018-09-20T10:58:45.000Z</time>
      </trkpt>
      <trkpt lat="46.69437" lon="-2.35431">
        <ele>11.4</ele>
        <time>2018-09-20T10:58:46.000Z</time>
      </trkpt>
      <trkpt lat="46.69437" lon="-2.35431">
        <ele>11.4</ele>
        <time>2018-09-20T10:58:47.000Z</time>
      </trkpt>
      <trkpt lat="46.69437" lon="-2.35431">
        <ele>11.4</ele>
        <time>2018-09-20T10:58:48.000Z</time>
      </trkpt>
      <trkpt lat="46.69437" lon="-2.35431">
        <ele>11.4</ele>
        <time>2018-09-20T10:58:49.000Z</time>
      </trkpt>
      <trkpt lat="46.69437" lon="-2.35431">
        <ele>11.4</ele>
        <time>2018-09-20T10:58:50.000Z</time>
      </trkpt>
      <trkpt lat="46.69437" lon="-2.35431">
        <ele>11.4</ele>
        <time>2018-09-20T10:58:51.000Z</time>
      </trkpt>
      <trkpt lat="46.69437" lon="-2.35431">
        <ele>11.4</ele>
        <time>2018-09-20T10:58:52.000Z</time>
      </trkpt>
      <trkpt lat="46.69437" lon="-2.35431">
        <ele>11.4</ele>
        <time>2018-09-20T10:58:53.000Z</time>
      </trkpt>
      <trkpt lat="46.69437" lon="-2.35431">
        <ele>11.4</ele>
        <time>2018-09-20T10:58:54.000Z</time>
      </trkpt>
      <trkpt lat="46.69437" lon="-2.35431">
        <ele>11.4</ele>
        <time>2018-09-20T10:58:55.000Z</time>
      </trkpt>
      <trkpt lat="46.69437" lon="-2.35431">
        <ele>11.4</ele>
        <time>2018-09-20T10:58:56.000Z</time>
      </trkpt>
      <trkpt lat="46.69437" lon="-2.35431">
        <ele>11.4</ele>
        <time>2018-09-20T10:58:57.000Z</time>
      </trkpt>
      <trkpt lat="46.69437" lon="-2.35431">
        <ele>11.4</ele>
        <time>2018-09-20T10:58:58.000Z</time>
      </trkpt>
      <trkpt lat="46.69437" lon="-2.35431">
        <ele>11.4</ele>
        <time>2018-09-20T10:58:59.000Z</time>
      </trkpt>
      <trkpt lat="46.69437" lon="-2.35431">
        <ele>11.4</ele>
        <time>2018-09-20T10:59:00.000Z</time>
      </trkpt>
      <trkpt lat="46.69437" lon="-2.35431">
        <ele>11.4</ele>
        <time>2018-09-20T10:59:01.000Z</time>
      </trkpt>
      <trkpt lat="46.69437" lon="-2.35431">
        <ele>11.4</ele>
        <time>2018-09-20T10:59:02.000Z</time>
      </trkpt>
      <trkpt lat="46.69437" lon="-2.35431">
        <ele>11.4</ele>
        <time>2018-09-20T10:59:03.000Z</time>
      </trkpt>
      <trkpt lat="46.69437" lon="-2.35431">
        <ele>11.4</ele>
        <time>2018-09-20T10:59:04.000Z</time>
      </trkpt>
      <trkpt lat="46.69437" lon="-2.35431">
        <ele>11.4</ele>
        <time>2018-09-20T10:59:05.000Z</time>
      </trkpt>
      <trkpt lat="46.69437" lon="-2.35431">
        <ele>11.4</ele>
        <time>2018-09-20T10:59:06.000Z</time>
      </trkpt>
      <trkpt lat="46.69437" lon="-2.35431">
        <ele>11.4</ele>
        <time>2018-09-20T10:59:07.000Z</time>
      </trkpt>
      <trkpt lat="46.69437" lon="-2.35431">
        <ele>11.4</ele>
        <time>2018-09-20T10:59:08.000Z</time>
      </trkpt>
      <trkpt lat="46.69437" lon="-2.35431">
        <ele>11.4</ele>
        <time>2018-09-20T10:59:09.000Z</time>
      </trkpt>
      <trkpt lat="46.69437" lon="-2.35431">
        <ele>11.4</ele>
        <time>2018-09-20T10:59:10.000Z</time>
      </trkpt>
      <trkpt lat="46.69437" lon="-2.35431">
        <ele>11.4</ele>
        <time>2018-09-20T10:59:11.000Z</time>
      </trkpt>
      <trkpt lat="46.69437" lon="-2.35431">
        <ele>11.4</ele>
        <time>2018-09-20T10:59:12.000Z</time>
      </trkpt>
      <trkpt lat="46.69437" lon="-2.35431">
        <ele>11.4</ele>
        <time>2018-09-20T10:59:13.000Z</time>
      </trkpt>
      <trkpt lat="46.69437" lon="-2.35431">
        <ele>11.4</ele>
        <time>2018-09-20T10:59:14.000Z</time>
      </trkpt>
      <trkpt lat="46.69437" lon="-2.35431">
        <ele>11.4</ele>
        <time>2018-09-20T10:59:15.000Z</time>
      </trkpt>
      <trkpt lat="46.69437" lon="-2.35431">
        <ele>11.4</ele>
        <time>2018-09-20T10:59:16.000Z</time>
      </trkpt>
      <trkpt lat="46.69437" lon="-2.35431">
        <ele>11.4</ele>
        <time>2018-09-20T10:59:17.000Z</time>
      </trkpt>
      <trkpt lat="46.69437" lon="-2.35431">
        <ele>11.4</ele>
        <time>2018-09-20T10:59:18.000Z</time>
      </trkpt>
      <trkpt lat="46.69437" lon="-2.35431">
        <ele>11.4</ele>
        <time>2018-09-20T10:59:19.000Z</time>
      </trkpt>
      <trkpt lat="46.69437" lon="-2.35431">
        <ele>11.4</ele>
        <time>2018-09-20T10:59:20.000Z</time>
      </trkpt>
      <trkpt lat="46.69437" lon="-2.35431">
        <ele>11.4</ele>
        <time>2018-09-20T10:59:21.000Z</time>
      </trkpt>
      <trkpt lat="46.69437" lon="-2.35431">
        <ele>11.4</ele>
        <time>2018-09-20T10:59:22.000Z</time>
      </trkpt>
      <trkpt lat="46.69438" lon="-2.35431">
        <ele>11.4</ele>
        <time>2018-09-20T10:59:23.000Z</time>
      </trkpt>
      <trkpt lat="46.69438" lon="-2.35431">
        <ele>11.4</ele>
        <time>2018-09-20T10:59:24.000Z</time>
      </trkpt>
      <trkpt lat="46.69438" lon="-2.35431">
        <ele>11.4</ele>
        <time>2018-09-20T10:59:25.000Z</time>
      </trkpt>
      <trkpt lat="46.69438" lon="-2.35431">
        <ele>11.4</ele>
        <time>2018-09-20T10:59:26.000Z</time>
      </trkpt>
      <trkpt lat="46.69438" lon="-2.35431">
        <ele>11.4</ele>
        <time>2018-09-20T10:59:27.000Z</time>
      </trkpt>
      <trkpt lat="46.69438" lon="-2.35431">
        <ele>11.4</ele>
        <time>2018-09-20T10:59:28.000Z</time>
      </trkpt>
      <trkpt lat="46.69438" lon="-2.35431">
        <ele>11.4</ele>
        <time>2018-09-20T10:59:29.000Z</time>
      </trkpt>
      <trkpt lat="46.69438" lon="-2.35431">
        <ele>11.4</ele>
        <time>2018-09-20T10:59:30.000Z</time>
      </trkpt>
      <trkpt lat="46.69438" lon="-2.35431">
        <ele>11.4</ele>
        <time>2018-09-20T10:59:31.000Z</time>
      </trkpt>
      <trkpt lat="46.69438" lon="-2.35431">
        <ele>11.4</ele>
        <time>2018-09-20T10:59:32.000Z</time>
      </trkpt>
      <trkpt lat="46.69438" lon="-2.35431">
        <ele>11.4</ele>
        <time>2018-09-20T10:59:33.000Z</time>
      </trkpt>
      <trkpt lat="46.69438" lon="-2.35431">
        <ele>11.4</ele>
        <time>2018-09-20T10:59:34.000Z</time>
      </trkpt>
      <trkpt lat="46.69438" lon="-2.35431">
        <ele>11.4</ele>
        <time>2018-09-20T10:59:35.000Z</time>
      </trkpt>
      <trkpt lat="46.69438" lon="-2.35431">
        <ele>11.5</ele>
        <time>2018-09-20T10:59:36.000Z</time>
      </trkpt>
      <trkpt lat="46.69438" lon="-2.3543">
        <ele>11.5</ele>
        <time>2018-09-20T10:59:37.000Z</time>
      </trkpt>
      <trkpt lat="46.69438" lon="-2.3543">
        <ele>11.5</ele>
        <time>2018-09-20T10:59:38.000Z</time>
      </trkpt>
      <trkpt lat="46.69438" lon="-2.35429">
        <ele>11.6</ele>
        <time>2018-09-20T10:59:39.000Z</time>
      </trkpt>
      <trkpt lat="46.69439" lon="-2.35428">
        <ele>11.8</ele>
        <time>2018-09-20T10:59:40.000Z</time>
      </trkpt>
      <trkpt lat="46.69439" lon="-2.35427">
        <ele>11.9</ele>
        <time>2018-09-20T10:59:41.000Z</time>
      </trkpt>
      <trkpt lat="46.6944" lon="-2.35426">
        <ele>12.1</ele>
        <time>2018-09-20T10:59:42.000Z</time>
      </trkpt>
      <trkpt lat="46.6944" lon="-2.35424">
        <ele>12.3</ele>
        <time>2018-09-20T10:59:43.000Z</time>
      </trkpt>
      <trkpt lat="46.69441" lon="-2.35422">
        <ele>12.5</ele>
        <time>2018-09-20T10:59:44.000Z</time>
      </trkpt>
      <trkpt lat="46.69442" lon="-2.35421">
        <ele>12.8</ele>
        <time>2018-09-20T10:59:45.000Z</time>
      </trkpt>
      <trkpt lat="46.69442" lon="-2.35419">
        <ele>13</ele>
        <time>2018-09-20T10:59:46.000Z</time>
      </trkpt>
      <trkpt lat="46.69442" lon="-2.35417">
        <ele>13.2</ele>
        <time>2018-09-20T10:59:47.000Z</time>
      </trkpt>
      <trkpt lat="46.69442" lon="-2.35416">
        <ele>13.3</ele>
        <time>2018-09-20T10:59:48.000Z</time>
      </trkpt>
      <trkpt lat="46.69443" lon="-2.35414">
        <ele>13.4</ele>
        <time>2018-09-20T10:59:49.000Z</time>
      </trkpt>
      <trkpt lat="46.69443" lon="-2.35413">
        <ele>13.6</ele>
        <time>2018-09-20T10:59:50.000Z</time>
      </trkpt>
      <trkpt lat="46.69442" lon="-2.35411">
        <ele>13.7</ele>
        <time>2018-09-20T10:59:51.000Z</time>
      </trkpt>
      <trkpt lat="46.69442" lon="-2.35409">
        <ele>13.8</ele>
        <time>2018-09-20T10:59:52.000Z</time>
      </trkpt>
      <trkpt lat="46.69442" lon="-2.35408">
        <ele>13.9</ele>
        <time>2018-09-20T10:59:53.000Z</time>
      </trkpt>
      <trkpt lat="46.69442" lon="-2.35406">
        <ele>14.1</ele>
        <time>2018-09-20T10:59:54.000Z</time>
      </trkpt>
      <trkpt lat="46.69442" lon="-2.35404">
        <ele>14.2</ele>
        <time>2018-09-20T10:59:55.000Z</time>
      </trkpt>
      <trkpt lat="46.69441" lon="-2.35403">
        <ele>14.3</ele>
        <time>2018-09-20T10:59:56.000Z</time>
      </trkpt>
      <trkpt lat="46.69441" lon="-2.35401">
        <ele>14.4</ele>
        <time>2018-09-20T10:59:57.000Z</time>
      </trkpt>
      <trkpt lat="46.6944" lon="-2.35399">
        <ele>14.5</ele>
        <time>2018-09-20T10:59:58.000Z</time>
      </trkpt>
      <trkpt lat="46.6944" lon="-2.35397">
        <ele>14.7</ele>
        <time>2018-09-20T10:59:59.000Z</time>
      </trkpt>
      <trkpt lat="46.69439" lon="-2.35396">
        <ele>14.8</ele>
        <time>2018-09-20T11:00:00.000Z</time>
      </trkpt>
      <trkpt lat="46.69438" lon="-2.35394">
        <ele>14.9</ele>
        <time>2018-09-20T11:00:01.000Z</time>
      </trkpt>
      <trkpt lat="46.69438" lon="-2.35392">
        <ele>15</ele>
        <time>2018-09-20T11:00:02.000Z</time>
      </trkpt>
      <trkpt lat="46.69437" lon="-2.35391">
        <ele>15.1</ele>
        <time>2018-09-20T11:00:03.000Z</time>
      </trkpt>
      <trkpt lat="46.69437" lon="-2.3539">
        <ele>15.1</ele>
        <time>2018-09-20T11:00:04.000Z</time>
      </trkpt>
      <trkpt lat="46.69436" lon="-2.35389">
        <ele>15.2</ele>
        <time>2018-09-20T11:00:05.000Z</time>
      </trkpt>
      <trkpt lat="46.69436" lon="-2.35388">
        <ele>15.3</ele>
        <time>2018-09-20T11:00:06.000Z</time>
      </trkpt>
      <trkpt lat="46.69435" lon="-2.35387">
        <ele>15.3</ele>
        <time>2018-09-20T11:00:07.000Z</time>
      </trkpt>
      <trkpt lat="46.69435" lon="-2.35387">
        <ele>15.3</ele>
        <time>2018-09-20T11:00:08.000Z</time>
      </trkpt>
      <trkpt lat="46.69435" lon="-2.35386">
        <ele>15.4</ele>
        <time>2018-09-20T11:00:09.000Z</time>
      </trkpt>
      <trkpt lat="46.69435" lon="-2.35386">
        <ele>15.4</ele>
        <time>2018-09-20T11:00:10.000Z</time>
      </trkpt>
      <trkpt lat="46.69435" lon="-2.35386">
        <ele>15.4</ele>
        <time>2018-09-20T11:00:11.000Z</time>
      </trkpt>
      <trkpt lat="46.69435" lon="-2.35386">
        <ele>15.4</ele>
        <time>2018-09-20T11:00:12.000Z</time>
      </trkpt>
      <trkpt lat="46.69435" lon="-2.35386">
        <ele>15.4</ele>
        <time>2018-09-20T11:00:13.000Z</time>
      </trkpt>
      <trkpt lat="46.69435" lon="-2.35386">
        <ele>15.4</ele>
        <time>2018-09-20T11:00:14.000Z</time>
      </trkpt>
      <trkpt lat="46.69435" lon="-2.35386">
        <ele>15.4</ele>
        <time>2018-09-20T11:00:15.000Z</time>
      </trkpt>
      <trkpt lat="46.69435" lon="-2.35386">
        <ele>15.4</ele>
        <time>2018-09-20T11:00:16.000Z</time>
      </trkpt>
      <trkpt lat="46.69435" lon="-2.35386">
        <ele>15.4</ele>
        <time>2018-09-20T11:00:17.000Z</time>
      </trkpt>
      <trkpt lat="46.69435" lon="-2.35386">
        <ele>15.4</ele>
        <time>2018-09-20T11:00:18.000Z</time>
      </trkpt>
      <trkpt lat="46.69434" lon="-2.35385">
        <ele>15.4</ele>
        <time>2018-09-20T11:00:19.000Z</time>
      </trkpt>
      <trkpt lat="46.69434" lon="-2.35385">
        <ele>15.4</ele>
        <time>2018-09-20T11:00:20.000Z</time>
      </trkpt>
      <trkpt lat="46.69434" lon="-2.35384">
        <ele>15.5</ele>
        <time>2018-09-20T11:00:21.000Z</time>
      </trkpt>
      <trkpt lat="46.69434" lon="-2.35383">
        <ele>15.5</ele>
        <time>2018-09-20T11:00:22.000Z</time>
      </trkpt>
      <trkpt lat="46.69433" lon="-2.35383">
        <ele>15.6</ele>
        <time>2018-09-20T11:00:23.000Z</time>
      </trkpt>
      <trkpt lat="46.69433" lon="-2.35382">
        <ele>15.6</ele>
        <time>2018-09-20T11:00:24.000Z</time>
      </trkpt>
      <trkpt lat="46.69432" lon="-2.35381">
        <ele>15.7</ele>
        <time>2018-09-20T11:00:25.000Z</time>
      </trkpt>
      <trkpt lat="46.69432" lon="-2.3538">
        <ele>15.8</ele>
        <time>2018-09-20T11:00:26.000Z</time>
      </trkpt>
      <trkpt lat="46.69431" lon="-2.35378">
        <ele>15.8</ele>
        <time>2018-09-20T11:00:27.000Z</time>
      </trkpt>
      <trkpt lat="46.6943" lon="-2.35377">
        <ele>15.9</ele>
        <time>2018-09-20T11:00:28.000Z</time>
      </trkpt>
      <trkpt lat="46.6943" lon="-2.35376">
        <ele>16</ele>
        <time>2018-09-20T11:00:29.000Z</time>
      </trkpt>
      <trkpt lat="46.69429" lon="-2.35374">
        <ele>16.1</ele>
        <time>2018-09-20T11:00:30.000Z</time>
      </trkpt>
      <trkpt lat="46.69429" lon="-2.35373">
        <ele>16.2</ele>
        <time>2018-09-20T11:00:31.000Z</time>
      </trkpt>
      <trkpt lat="46.69428" lon="-2.35371">
        <ele>16.3</ele>
        <time>2018-09-20T11:00:32.000Z</time>
      </trkpt>
      <trkpt lat="46.69428" lon="-2.35369">
        <ele>16.4</ele>
        <time>2018-09-20T11:00:33.000Z</time>
      </trkpt>
      <trkpt lat="46.69427" lon="-2.35368">
        <ele>16.5</ele>
        <time>2018-09-20T11:00:34.000Z</time>
      </trkpt>
      <trkpt lat="46.69427" lon="-2.35366">
        <ele>16.7</ele>
        <time>2018-09-20T11:00:35.000Z</time>
      </trkpt>
      <trkpt lat="46.69426" lon="-2.35364">
        <ele>16.8</ele>
        <time>2018-09-20T11:00:36.000Z</time>
      </trkpt>
      <trkpt lat="46.69426" lon="-2.35363">
        <ele>16.9</ele>
        <time>2018-09-20T11:00:37.000Z</time>
      </trkpt>
      <trkpt lat="46.69425" lon="-2.35361">
        <ele>17</ele>
        <time>2018-09-20T11:00:38.000Z</time>
      </trkpt>
      <trkpt lat="46.69425" lon="-2.3536">
        <ele>17.1</ele>
        <time>2018-09-20T11:00:39.000Z</time>
      </trkpt>
      <trkpt lat="46.69424" lon="-2.35358">
        <ele>17.2</ele>
        <time>2018-09-20T11:00:40.000Z</time>
      </trkpt>
      <trkpt lat="46.69423" lon="-2.35357">
        <ele>17.3</ele>
        <time>2018-09-20T11:00:41.000Z</time>
      </trkpt>
      <trkpt lat="46.69423" lon="-2.35356">
        <ele>17.4</ele>
        <time>2018-09-20T11:00:42.000Z</time>
      </trkpt>
      <trkpt lat="46.69422" lon="-2.35354">
        <ele>17.4</ele>
        <time>2018-09-20T11:00:43.000Z</time>
      </trkpt>
      <trkpt lat="46.69421" lon="-2.35353">
        <ele>17.5</ele>
        <time>2018-09-20T11:00:44.000Z</time>
      </trkpt>
      <trkpt lat="46.69421" lon="-2.35352">
        <ele>17.6</ele>
        <time>2018-09-20T11:00:45.000Z</time>
      </trkpt>
      <trkpt lat="46.6942" lon="-2.35351">
        <ele>17.7</ele>
        <time>2018-09-20T11:00:46.000Z</time>
      </trkpt>
      <trkpt lat="46.6942" lon="-2.35349">
        <ele>17.8</ele>
        <time>2018-09-20T11:00:47.000Z</time>
      </trkpt>
      <trkpt lat="46.69419" lon="-2.35348">
        <ele>17.9</ele>
        <time>2018-09-20T11:00:48.000Z</time>
      </trkpt>
      <trkpt lat="46.69418" lon="-2.35347">
        <ele>18</ele>
        <time>2018-09-20T11:00:49.000Z</time>
      </trkpt>
      <trkpt lat="46.69418" lon="-2.35345">
        <ele>18</ele>
        <time>2018-09-20T11:00:50.000Z</time>
      </trkpt>
      <trkpt lat="46.69417" lon="-2.35344">
        <ele>18.2</ele>
        <time>2018-09-20T11:00:51.000Z</time>
      </trkpt>
      <trkpt lat="46.69416" lon="-2.35342">
        <ele>18.2</ele>
        <time>2018-09-20T11:00:52.000Z</time>
      </trkpt>
      <trkpt lat="46.69416" lon="-2.35341">
        <ele>18.3</ele>
        <time>2018-09-20T11:00:53.000Z</time>
      </trkpt>
      <trkpt lat="46.69415" lon="-2.35339">
        <ele>18.3</ele>
        <time>2018-09-20T11:00:54.000Z</time>
      </trkpt>
      <trkpt lat="46.69415" lon="-2.35338">
        <ele>18.3</ele>
        <time>2018-09-20T11:00:55.000Z</time>
      </trkpt>
      <trkpt lat="46.69414" lon="-2.35336">
        <ele>18.4</ele>
        <time>2018-09-20T11:00:56.000Z</time>
      </trkpt>
      <trkpt lat="46.69414" lon="-2.35335">
        <ele>18.4</ele>
        <time>2018-09-20T11:00:57.000Z</time>
      </trkpt>
      <trkpt lat="46.69413" lon="-2.35333">
        <ele>18.5</ele>
        <time>2018-09-20T11:00:58.000Z</time>
      </trkpt>
      <trkpt lat="46.69412" lon="-2.35332">
        <ele>18.4</ele>
        <time>2018-09-20T11:00:59.000Z</time>
      </trkpt>
      <trkpt lat="46.69412" lon="-2.3533">
        <ele>18.4</ele>
        <time>2018-09-20T11:01:00.000Z</time>
      </trkpt>
      <trkpt lat="46.69411" lon="-2.35329">
        <ele>18.4</ele>
        <time>2018-09-20T11:01:01.000Z</time>
      </trkpt>
      <trkpt lat="46.69411" lon="-2.35327">
        <ele>18.4</ele>
        <time>2018-09-20T11:01:02.000Z</time>
      </trkpt>
      <trkpt lat="46.6941" lon="-2.35326">
        <ele>18.3</ele>
        <time>2018-09-20T11:01:03.000Z</time>
      </trkpt>
      <trkpt lat="46.69409" lon="-2.35324">
        <ele>18.3</ele>
        <time>2018-09-20T11:01:04.000Z</time>
      </trkpt>
      <trkpt lat="46.69409" lon="-2.35323">
        <ele>18.3</ele>
        <time>2018-09-20T11:01:05.000Z</time>
      </trkpt>
      <trkpt lat="46.69408" lon="-2.35322">
        <ele>18.2</ele>
        <time>2018-09-20T11:01:06.000Z</time>
      </trkpt>
      <trkpt lat="46.69408" lon="-2.3532">
        <ele>18.2</ele>
        <time>2018-09-20T11:01:07.000Z</time>
      </trkpt>
      <trkpt lat="46.69407" lon="-2.35319">
        <ele>18.2</ele>
        <time>2018-09-20T11:01:08.000Z</time>
      </trkpt>
      <trkpt lat="46.69407" lon="-2.35317">
        <ele>18.1</ele>
        <time>2018-09-20T11:01:09.000Z</time>
      </trkpt>
      <trkpt lat="46.69406" lon="-2.35315">
        <ele>18.1</ele>
        <time>2018-09-20T11:01:10.000Z</time>
      </trkpt>
      <trkpt lat="46.69405" lon="-2.35314">
        <ele>18.1</ele>
        <time>2018-09-20T11:01:11.000Z</time>
      </trkpt>
      <trkpt lat="46.69405" lon="-2.35312">
        <ele>18.1</ele>
        <time>2018-09-20T11:01:12.000Z</time>
      </trkpt>
      <trkpt lat="46.69404" lon="-2.3531">
        <ele>18.1</ele>
        <time>2018-09-20T11:01:13.000Z</time>
      </trkpt>
      <trkpt lat="46.69404" lon="-2.35309">
        <ele>18</ele>
        <time>2018-09-20T11:01:14.000Z</time>
      </trkpt>
      <trkpt lat="46.69403" lon="-2.35307">
        <ele>18</ele>
        <time>2018-09-20T11:01:15.000Z</time>
      </trkpt>
      <trkpt lat="46.69402" lon="-2.35305">
        <ele>18</ele>
        <time>2018-09-20T11:01:16.000Z</time>
      </trkpt>
      <trkpt lat="46.69402" lon="-2.35304">
        <ele>18</ele>
        <time>2018-09-20T11:01:17.000Z</time>
      </trkpt>
      <trkpt lat="46.69401" lon="-2.35302">
        <ele>18</ele>
        <time>2018-09-20T11:01:18.000Z</time>
      </trkpt>
      <trkpt lat="46.69401" lon="-2.35301">
        <ele>18</ele>
        <time>2018-09-20T11:01:19.000Z</time>
      </trkpt>
      <trkpt lat="46.694" lon="-2.353">
        <ele>17.9</ele>
        <time>2018-09-20T11:01:20.000Z</time>
      </trkpt>
      <trkpt lat="46.694" lon="-2.35299">
        <ele>17.9</ele>
        <time>2018-09-20T11:01:21.000Z</time>
      </trkpt>
      <trkpt lat="46.69399" lon="-2.35298">
        <ele>17.9</ele>
        <time>2018-09-20T11:01:22.000Z</time>
      </trkpt>
      <trkpt lat="46.69399" lon="-2.35297">
        <ele>17.8</ele>
        <time>2018-09-20T11:01:23.000Z</time>
      </trkpt>
      <trkpt lat="46.69399" lon="-2.35297">
        <ele>17.8</ele>
        <time>2018-09-20T11:01:24.000Z</time>
      </trkpt>
      <trkpt lat="46.69398" lon="-2.35296">
        <ele>17.7</ele>
        <time>2018-09-20T11:01:25.000Z</time>
      </trkpt>
      <trkpt lat="46.69398" lon="-2.35295">
        <ele>17.7</ele>
        <time>2018-09-20T11:01:26.000Z</time>
      </trkpt>
      <trkpt lat="46.69397" lon="-2.35294">
        <ele>17.7</ele>
        <time>2018-09-20T11:01:27.000Z</time>
      </trkpt>
      <trkpt lat="46.69396" lon="-2.35293">
        <ele>17.6</ele>
        <time>2018-09-20T11:01:28.000Z</time>
      </trkpt>
      <trkpt lat="46.69396" lon="-2.35292">
        <ele>17.6</ele>
        <time>2018-09-20T11:01:29.000Z</time>
      </trkpt>
      <trkpt lat="46.69395" lon="-2.3529">
        <ele>17.5</ele>
        <time>2018-09-20T11:01:30.000Z</time>
      </trkpt>
      <trkpt lat="46.69394" lon="-2.35289">
        <ele>17.5</ele>
        <time>2018-09-20T11:01:31.000Z</time>
      </trkpt>
      <trkpt lat="46.69393" lon="-2.35287">
        <ele>17.4</ele>
        <time>2018-09-20T11:01:32.000Z</time>
      </trkpt>
      <trkpt lat="46.69392" lon="-2.35286">
        <ele>17.4</ele>
        <time>2018-09-20T11:01:33.000Z</time>
      </trkpt>
      <trkpt lat="46.69392" lon="-2.35284">
        <ele>17.3</ele>
        <time>2018-09-20T11:01:34.000Z</time>
      </trkpt>
      <trkpt lat="46.69391" lon="-2.35283">
        <ele>17.3</ele>
        <time>2018-09-20T11:01:35.000Z</time>
      </trkpt>
      <trkpt lat="46.6939" lon="-2.35281">
        <ele>17.2</ele>
        <time>2018-09-20T11:01:36.000Z</time>
      </trkpt>
      <trkpt lat="46.69389" lon="-2.3528">
        <ele>17.2</ele>
        <time>2018-09-20T11:01:37.000Z</time>
      </trkpt>
      <trkpt lat="46.69388" lon="-2.35278">
        <ele>17.1</ele>
        <time>2018-09-20T11:01:38.000Z</time>
      </trkpt>
      <trkpt lat="46.69388" lon="-2.35277">
        <ele>17.1</ele>
        <time>2018-09-20T11:01:39.000Z</time>
      </trkpt>
      <trkpt lat="46.69387" lon="-2.35275">
        <ele>17.1</ele>
        <time>2018-09-20T11:01:40.000Z</time>
      </trkpt>
      <trkpt lat="46.69386" lon="-2.35274">
        <ele>17</ele>
        <time>2018-09-20T11:01:41.000Z</time>
      </trkpt>
      <trkpt lat="46.69386" lon="-2.35272">
        <ele>17</ele>
        <time>2018-09-20T11:01:42.000Z</time>
      </trkpt>
      <trkpt lat="46.69385" lon="-2.35271">
        <ele>17</ele>
        <time>2018-09-20T11:01:43.000Z</time>
      </trkpt>
      <trkpt lat="46.69384" lon="-2.35269">
        <ele>16.9</ele>
        <time>2018-09-20T11:01:44.000Z</time>
      </trkpt>
      <trkpt lat="46.69383" lon="-2.35268">
        <ele>16.9</ele>
        <time>2018-09-20T11:01:45.000Z</time>
      </trkpt>
      <trkpt lat="46.69383" lon="-2.35267">
        <ele>16.8</ele>
        <time>2018-09-20T11:01:46.000Z</time>
      </trkpt>
      <trkpt lat="46.69382" lon="-2.35266">
        <ele>16.8</ele>
        <time>2018-09-20T11:01:47.000Z</time>
      </trkpt>
      <trkpt lat="46.69382" lon="-2.35265">
        <ele>16.8</ele>
        <time>2018-09-20T11:01:48.000Z</time>
      </trkpt>
      <trkpt lat="46.69382" lon="-2.35265">
        <ele>16.8</ele>
        <time>2018-09-20T11:01:49.000Z</time>
      </trkpt>
      <trkpt lat="46.69381" lon="-2.35264">
        <ele>16.8</ele>
        <time>2018-09-20T11:01:50.000Z</time>
      </trkpt>
      <trkpt lat="46.69381" lon="-2.35263">
        <ele>16.8</ele>
        <time>2018-09-20T11:01:51.000Z</time>
      </trkpt>
      <trkpt lat="46.6938" lon="-2.35262">
        <ele>16.7</ele>
        <time>2018-09-20T11:01:52.000Z</time>
      </trkpt>
      <trkpt lat="46.6938" lon="-2.3526">
        <ele>16.7</ele>
        <time>2018-09-20T11:01:53.000Z</time>
      </trkpt>
      <trkpt lat="46.69379" lon="-2.35258">
        <ele>16.7</ele>
        <time>2018-09-20T11:01:54.000Z</time>
      </trkpt>
      <trkpt lat="46.69378" lon="-2.35256">
        <ele>16.6</ele>
        <time>2018-09-20T11:01:55.000Z</time>
      </trkpt>
      <trkpt lat="46.69377" lon="-2.35254">
        <ele>16.6</ele>
        <time>2018-09-20T11:01:56.000Z</time>
      </trkpt>
      <trkpt lat="46.69376" lon="-2.35252">
        <ele>16.5</ele>
        <time>2018-09-20T11:01:57.000Z</time>
      </trkpt>
      <trkpt lat="46.69375" lon="-2.35251">
        <ele>16.5</ele>
        <time>2018-09-20T11:01:58.000Z</time>
      </trkpt>
      <trkpt lat="46.69375" lon="-2.35249">
        <ele>16.5</ele>
        <time>2018-09-20T11:01:59.000Z</time>
      </trkpt>
      <trkpt lat="46.69374" lon="-2.35247">
        <ele>16.6</ele>
        <time>2018-09-20T11:02:00.000Z</time>
      </trkpt>
      <trkpt lat="46.69373" lon="-2.35245">
        <ele>16.6</ele>
        <time>2018-09-20T11:02:01.000Z</time>
      </trkpt>
      <trkpt lat="46.69372" lon="-2.35244">
        <ele>16.7</ele>
        <time>2018-09-20T11:02:02.000Z</time>
      </trkpt>
      <trkpt lat="46.69372" lon="-2.35242">
        <ele>16.8</ele>
        <time>2018-09-20T11:02:03.000Z</time>
      </trkpt>
      <trkpt lat="46.69371" lon="-2.3524">
        <ele>16.8</ele>
        <time>2018-09-20T11:02:04.000Z</time>
      </trkpt>
      <trkpt lat="46.6937" lon="-2.35239">
        <ele>16.9</ele>
        <time>2018-09-20T11:02:05.000Z</time>
      </trkpt>
      <trkpt lat="46.6937" lon="-2.35237">
        <ele>16.9</ele>
        <time>2018-09-20T11:02:06.000Z</time>
      </trkpt>
      <trkpt lat="46.69369" lon="-2.35235">
        <ele>17</ele>
        <time>2018-09-20T11:02:07.000Z</time>
      </trkpt>
      <trkpt lat="46.69368" lon="-2.35234">
        <ele>17.1</ele>
        <time>2018-09-20T11:02:08.000Z</time>
      </trkpt>
      <trkpt lat="46.69368" lon="-2.35232">
        <ele>17.1</ele>
        <time>2018-09-20T11:02:09.000Z</time>
      </trkpt>
      <trkpt lat="46.69367" lon="-2.35231">
        <ele>17.2</ele>
        <time>2018-09-20T11:02:10.000Z</time>
      </trkpt>
      <trkpt lat="46.69366" lon="-2.35229">
        <ele>17.2</ele>
        <time>2018-09-20T11:02:11.000Z</time>
      </trkpt>
      <trkpt lat="46.69366" lon="-2.35228">
        <ele>17.3</ele>
        <time>2018-09-20T11:02:12.000Z</time>
      </trkpt>
      <trkpt lat="46.69365" lon="-2.35226">
        <ele>17.4</ele>
        <time>2018-09-20T11:02:13.000Z</time>
      </trkpt>
      <trkpt lat="46.69364" lon="-2.35225">
        <ele>17.4</ele>
        <time>2018-09-20T11:02:14.000Z</time>
      </trkpt>
      <trkpt lat="46.69364" lon="-2.35223">
        <ele>17.5</ele>
        <time>2018-09-20T11:02:15.000Z</time>
      </trkpt>
      <trkpt lat="46.69363" lon="-2.35222">
        <ele>17.5</ele>
        <time>2018-09-20T11:02:16.000Z</time>
      </trkpt>
      <trkpt lat="46.69362" lon="-2.35221">
        <ele>17.6</ele>
        <time>2018-09-20T11:02:17.000Z</time>
      </trkpt>
      <trkpt lat="46.69361" lon="-2.35219">
        <ele>17.7</ele>
        <time>2018-09-20T11:02:18.000Z</time>
      </trkpt>
      <trkpt lat="46.69361" lon="-2.35218">
        <ele>17.7</ele>
        <time>2018-09-20T11:02:19.000Z</time>
      </trkpt>
      <trkpt lat="46.6936" lon="-2.35216">
        <ele>17.8</ele>
        <time>2018-09-20T11:02:20.000Z</time>
      </trkpt>
      <trkpt lat="46.69359" lon="-2.35215">
        <ele>17.9</ele>
        <time>2018-09-20T11:02:21.000Z</time>
      </trkpt>
      <trkpt lat="46.69359" lon="-2.35213">
        <ele>17.9</ele>
        <time>2018-09-20T11:02:22.000Z</time>
      </trkpt>
      <trkpt lat="46.69358" lon="-2.35212">
        <ele>18</ele>
        <time>2018-09-20T11:02:23.000Z</time>
      </trkpt>
      <trkpt lat="46.69357" lon="-2.35211">
        <ele>18.1</ele>
        <time>2018-09-20T11:02:24.000Z</time>
      </trkpt>
      <trkpt lat="46.69356" lon="-2.35209">
        <ele>18.1</ele>
        <time>2018-09-20T11:02:25.000Z</time>
      </trkpt>
      <trkpt lat="46.69355" lon="-2.35208">
        <ele>18.2</ele>
        <time>2018-09-20T11:02:26.000Z</time>
      </trkpt>
      <trkpt lat="46.69355" lon="-2.35207">
        <ele>18.2</ele>
        <time>2018-09-20T11:02:27.000Z</time>
      </trkpt>
      <trkpt lat="46.69354" lon="-2.35206">
        <ele>18.2</ele>
        <time>2018-09-20T11:02:28.000Z</time>
      </trkpt>
      <trkpt lat="46.69353" lon="-2.35205">
        <ele>18.3</ele>
        <time>2018-09-20T11:02:29.000Z</time>
      </trkpt>
      <trkpt lat="46.69352" lon="-2.35204">
        <ele>18.3</ele>
        <time>2018-09-20T11:02:30.000Z</time>
      </trkpt>
      <trkpt lat="46.69352" lon="-2.35203">
        <ele>18.3</ele>
        <time>2018-09-20T11:02:31.000Z</time>
      </trkpt>
      <trkpt lat="46.69351" lon="-2.35202">
        <ele>18.3</ele>
        <time>2018-09-20T11:02:32.000Z</time>
      </trkpt>
      <trkpt lat="46.6935" lon="-2.35201">
        <ele>18.4</ele>
        <time>2018-09-20T11:02:33.000Z</time>
      </trkpt>
      <trkpt lat="46.69349" lon="-2.352">
        <ele>18.4</ele>
        <time>2018-09-20T11:02:34.000Z</time>
      </trkpt>
      <trkpt lat="46.69349" lon="-2.35199">
        <ele>18.4</ele>
        <time>2018-09-20T11:02:35.000Z</time>
      </trkpt>
      <trkpt lat="46.69348" lon="-2.35198">
        <ele>18.5</ele>
        <time>2018-09-20T11:02:36.000Z</time>
      </trkpt>
      <trkpt lat="46.69347" lon="-2.35197">
        <ele>18.6</ele>
        <time>2018-09-20T11:02:37.000Z</time>
      </trkpt>
      <trkpt lat="46.69347" lon="-2.35196">
        <ele>18.6</ele>
        <time>2018-09-20T11:02:38.000Z</time>
      </trkpt>
      <trkpt lat="46.69346" lon="-2.35195">
        <ele>18.7</ele>
        <time>2018-09-20T11:02:39.000Z</time>
      </trkpt>
      <trkpt lat="46.69346" lon="-2.35194">
        <ele>18.8</ele>
        <time>2018-09-20T11:02:40.000Z</time>
      </trkpt>
      <trkpt lat="46.69345" lon="-2.35192">
        <ele>18.9</ele>
        <time>2018-09-20T11:02:41.000Z</time>
      </trkpt>
      <trkpt lat="46.69344" lon="-2.35191">
        <ele>19</ele>
        <time>2018-09-20T11:02:42.000Z</time>
      </trkpt>
      <trkpt lat="46.69344" lon="-2.35189">
        <ele>19.1</ele>
        <time>2018-09-20T11:02:43.000Z</time>
      </trkpt>
      <trkpt lat="46.69343" lon="-2.35188">
        <ele>19.3</ele>
        <time>2018-09-20T11:02:44.000Z</time>
      </trkpt>
      <trkpt lat="46.69343" lon="-2.35186">
        <ele>19.4</ele>
        <time>2018-09-20T11:02:45.000Z</time>
      </trkpt>
      <trkpt lat="46.69342" lon="-2.35185">
        <ele>19.5</ele>
        <time>2018-09-20T11:02:46.000Z</time>
      </trkpt>
      <trkpt lat="46.69342" lon="-2.35183">
        <ele>19.6</ele>
        <time>2018-09-20T11:02:47.000Z</time>
      </trkpt>
      <trkpt lat="46.69341" lon="-2.35182">
        <ele>19.7</ele>
        <time>2018-09-20T11:02:48.000Z</time>
      </trkpt>
      <trkpt lat="46.69341" lon="-2.35181">
        <ele>19.9</ele>
        <time>2018-09-20T11:02:49.000Z</time>
      </trkpt>
      <trkpt lat="46.6934" lon="-2.35179">
        <ele>20</ele>
        <time>2018-09-20T11:02:50.000Z</time>
      </trkpt>
      <trkpt lat="46.6934" lon="-2.35178">
        <ele>20.1</ele>
        <time>2018-09-20T11:02:51.000Z</time>
      </trkpt>
      <trkpt lat="46.69339" lon="-2.35177">
        <ele>20.2</ele>
        <time>2018-09-20T11:02:52.000Z</time>
      </trkpt>
      <trkpt lat="46.69339" lon="-2.35176">
        <ele>20.3</ele>
        <time>2018-09-20T11:02:53.000Z</time>
      </trkpt>
      <trkpt lat="46.69338" lon="-2.35174">
        <ele>20.4</ele>
        <time>2018-09-20T11:02:54.000Z</time>
      </trkpt>
      <trkpt lat="46.69338" lon="-2.35173">
        <ele>20.5</ele>
        <time>2018-09-20T11:02:55.000Z</time>
      </trkpt>
      <trkpt lat="46.69337" lon="-2.35172">
        <ele>20.6</ele>
        <time>2018-09-20T11:02:56.000Z</time>
      </trkpt>
      <trkpt lat="46.69337" lon="-2.35171">
        <ele>20.7</ele>
        <time>2018-09-20T11:02:57.000Z</time>
      </trkpt>
      <trkpt lat="46.69336" lon="-2.35169">
        <ele>20.9</ele>
        <time>2018-09-20T11:02:58.000Z</time>
      </trkpt>
      <trkpt lat="46.69336" lon="-2.35168">
        <ele>21</ele>
        <time>2018-09-20T11:02:59.000Z</time>
      </trkpt>
      <trkpt lat="46.69335" lon="-2.35166">
        <ele>21.1</ele>
        <time>2018-09-20T11:03:00.000Z</time>
      </trkpt>
      <trkpt lat="46.69335" lon="-2.35164">
        <ele>21.2</ele>
        <time>2018-09-20T11:03:01.000Z</time>
      </trkpt>
      <trkpt lat="46.69335" lon="-2.35163">
        <ele>21.3</ele>
        <time>2018-09-20T11:03:02.000Z</time>
      </trkpt>
      <trkpt lat="46.69334" lon="-2.35161">
        <ele>21.3</ele>
        <time>2018-09-20T11:03:03.000Z</time>
      </trkpt>
      <trkpt lat="46.69334" lon="-2.3516">
        <ele>21.4</ele>
        <time>2018-09-20T11:03:04.000Z</time>
      </trkpt>
      <trkpt lat="46.69334" lon="-2.35158">
        <ele>21.4</ele>
        <time>2018-09-20T11:03:05.000Z</time>
      </trkpt>
      <trkpt lat="46.69333" lon="-2.35157">
        <ele>21.5</ele>
        <time>2018-09-20T11:03:06.000Z</time>
      </trkpt>
      <trkpt lat="46.69333" lon="-2.35155">
        <ele>21.5</ele>
        <time>2018-09-20T11:03:07.000Z</time>
      </trkpt>
      <trkpt lat="46.69333" lon="-2.35154">
        <ele>21.5</ele>
        <time>2018-09-20T11:03:08.000Z</time>
      </trkpt>
      <trkpt lat="46.69333" lon="-2.35153">
        <ele>21.6</ele>
        <time>2018-09-20T11:03:09.000Z</time>
      </trkpt>
      <trkpt lat="46.69333" lon="-2.35153">
        <ele>21.6</ele>
        <time>2018-09-20T11:03:10.000Z</time>
      </trkpt>
      <trkpt lat="46.69333" lon="-2.35152">
        <ele>21.6</ele>
        <time>2018-09-20T11:03:11.000Z</time>
      </trkpt>
      <trkpt lat="46.69332" lon="-2.35152">
        <ele>21.6</ele>
        <time>2018-09-20T11:03:12.000Z</time>
      </trkpt>
      <trkpt lat="46.69332" lon="-2.35152">
        <ele>21.6</ele>
        <time>2018-09-20T11:03:13.000Z</time>
      </trkpt>
      <trkpt lat="46.69332" lon="-2.35151">
        <ele>21.6</ele>
        <time>2018-09-20T11:03:14.000Z</time>
      </trkpt>
      <trkpt lat="46.69332" lon="-2.35151">
        <ele>21.6</ele>
        <time>2018-09-20T11:03:15.000Z</time>
      </trkpt>
      <trkpt lat="46.69332" lon="-2.3515">
        <ele>21.7</ele>
        <time>2018-09-20T11:03:16.000Z</time>
      </trkpt>
      <trkpt lat="46.69332" lon="-2.35149">
        <ele>21.7</ele>
        <time>2018-09-20T11:03:17.000Z</time>
      </trkpt>
      <trkpt lat="46.69332" lon="-2.35148">
        <ele>21.7</ele>
        <time>2018-09-20T11:03:18.000Z</time>
      </trkpt>
      <trkpt lat="46.69332" lon="-2.35147">
        <ele>21.8</ele>
        <time>2018-09-20T11:03:19.000Z</time>
      </trkpt>
      <trkpt lat="46.69332" lon="-2.35145">
        <ele>21.8</ele>
        <time>2018-09-20T11:03:20.000Z</time>
      </trkpt>
      <trkpt lat="46.69331" lon="-2.35144">
        <ele>21.9</ele>
        <time>2018-09-20T11:03:21.000Z</time>
      </trkpt>
      <trkpt lat="46.69331" lon="-2.35142">
        <ele>21.9</ele>
        <time>2018-09-20T11:03:22.000Z</time>
      </trkpt>
      <trkpt lat="46.69331" lon="-2.35141">
        <ele>21.9</ele>
        <time>2018-09-20T11:03:23.000Z</time>
      </trkpt>
      <trkpt lat="46.6933" lon="-2.35139">
        <ele>22</ele>
        <time>2018-09-20T11:03:24.000Z</time>
      </trkpt>
      <trkpt lat="46.6933" lon="-2.35138">
        <ele>22</ele>
        <time>2018-09-20T11:03:25.000Z</time>
      </trkpt>
      <trkpt lat="46.69329" lon="-2.35136">
        <ele>22</ele>
        <time>2018-09-20T11:03:26.000Z</time>
      </trkpt>
      <trkpt lat="46.69329" lon="-2.35135">
        <ele>22</ele>
        <time>2018-09-20T11:03:27.000Z</time>
      </trkpt>
      <trkpt lat="46.69328" lon="-2.35134">
        <ele>22</ele>
        <time>2018-09-20T11:03:28.000Z</time>
      </trkpt>
      <trkpt lat="46.69328" lon="-2.35133">
        <ele>22</ele>
        <time>2018-09-20T11:03:29.000Z</time>
      </trkpt>
      <trkpt lat="46.69327" lon="-2.35131">
        <ele>22</ele>
        <time>2018-09-20T11:03:30.000Z</time>
      </trkpt>
      <trkpt lat="46.69327" lon="-2.3513">
        <ele>22</ele>
        <time>2018-09-20T11:03:31.000Z</time>
      </trkpt>
      <trkpt lat="46.69326" lon="-2.35129">
        <ele>22</ele>
        <time>2018-09-20T11:03:32.000Z</time>
      </trkpt>
      <trkpt lat="46.69325" lon="-2.35128">
        <ele>22</ele>
        <time>2018-09-20T11:03:33.000Z</time>
      </trkpt>
      <trkpt lat="46.69325" lon="-2.35126">
        <ele>21.9</ele>
        <time>2018-09-20T11:03:34.000Z</time>
      </trkpt>
      <trkpt lat="46.69324" lon="-2.35125">
        <ele>21.9</ele>
        <time>2018-09-20T11:03:35.000Z</time>
      </trkpt>
      <trkpt lat="46.69323" lon="-2.35124">
        <ele>21.9</ele>
        <time>2018-09-20T11:03:36.000Z</time>
      </trkpt>
      <trkpt lat="46.69323" lon="-2.35123">
        <ele>21.9</ele>
        <time>2018-09-20T11:03:37.000Z</time>
      </trkpt>
      <trkpt lat="46.69322" lon="-2.35122">
        <ele>21.9</ele>
        <time>2018-09-20T11:03:38.000Z</time>
      </trkpt>
      <trkpt lat="46.69322" lon="-2.3512">
        <ele>21.9</ele>
        <time>2018-09-20T11:03:39.000Z</time>
      </trkpt>
      <trkpt lat="46.69321" lon="-2.35119">
        <ele>21.9</ele>
        <time>2018-09-20T11:03:40.000Z</time>
      </trkpt>
      <trkpt lat="46.6932" lon="-2.35118">
        <ele>21.9</ele>
        <time>2018-09-20T11:03:41.000Z</time>
      </trkpt>
      <trkpt lat="46.6932" lon="-2.35117">
        <ele>21.8</ele>
        <time>2018-09-20T11:03:42.000Z</time>
      </trkpt>
      <trkpt lat="46.69319" lon="-2.35115">
        <ele>21.8</ele>
        <time>2018-09-20T11:03:43.000Z</time>
      </trkpt>
      <trkpt lat="46.69318" lon="-2.35114">
        <ele>21.8</ele>
        <time>2018-09-20T11:03:44.000Z</time>
      </trkpt>
      <trkpt lat="46.69318" lon="-2.35113">
        <ele>21.8</ele>
        <time>2018-09-20T11:03:45.000Z</time>
      </trkpt>
      <trkpt lat="46.69317" lon="-2.35111">
        <ele>21.8</ele>
        <time>2018-09-20T11:03:46.000Z</time>
      </trkpt>
      <trkpt lat="46.69317" lon="-2.3511">
        <ele>21.8</ele>
        <time>2018-09-20T11:03:47.000Z</time>
      </trkpt>
      <trkpt lat="46.69316" lon="-2.35109">
        <ele>21.8</ele>
        <time>2018-09-20T11:03:48.000Z</time>
      </trkpt>
      <trkpt lat="46.69315" lon="-2.35107">
        <ele>21.8</ele>
        <time>2018-09-20T11:03:49.000Z</time>
      </trkpt>
      <trkpt lat="46.69315" lon="-2.35106">
        <ele>21.9</ele>
        <time>2018-09-20T11:03:50.000Z</time>
      </trkpt>
      <trkpt lat="46.69314" lon="-2.35104">
        <ele>21.9</ele>
        <time>2018-09-20T11:03:51.000Z</time>
      </trkpt>
      <trkpt lat="46.69314" lon="-2.35103">
        <ele>21.9</ele>
        <time>2018-09-20T11:03:52.000Z</time>
      </trkpt>
      <trkpt lat="46.69313" lon="-2.35101">
        <ele>21.9</ele>
        <time>2018-09-20T11:03:53.000Z</time>
      </trkpt>
      <trkpt lat="46.69313" lon="-2.351">
        <ele>21.9</ele>
        <time>2018-09-20T11:03:54.000Z</time>
      </trkpt>
      <trkpt lat="46.69312" lon="-2.35098">
        <ele>22</ele>
        <time>2018-09-20T11:03:55.000Z</time>
      </trkpt>
      <trkpt lat="46.69312" lon="-2.35097">
        <ele>22</ele>
        <time>2018-09-20T11:03:56.000Z</time>
      </trkpt>
      <trkpt lat="46.69311" lon="-2.35095">
        <ele>22</ele>
        <time>2018-09-20T11:03:57.000Z</time>
      </trkpt>
      <trkpt lat="46.69311" lon="-2.35094">
        <ele>22.1</ele>
        <time>2018-09-20T11:03:58.000Z</time>
      </trkpt>
      <trkpt lat="46.69311" lon="-2.35092">
        <ele>22.1</ele>
        <time>2018-09-20T11:03:59.000Z</time>
      </trkpt>
      <trkpt lat="46.6931" lon="-2.3509">
        <ele>22.1</ele>
        <time>2018-09-20T11:04:00.000Z</time>
      </trkpt>
      <trkpt lat="46.6931" lon="-2.35089">
        <ele>22.2</ele>
        <time>2018-09-20T11:04:01.000Z</time>
      </trkpt>
      <trkpt lat="46.69309" lon="-2.35087">
        <ele>22.2</ele>
        <time>2018-09-20T11:04:02.000Z</time>
      </trkpt>
      <trkpt lat="46.69309" lon="-2.35086">
        <ele>22.3</ele>
        <time>2018-09-20T11:04:03.000Z</time>
      </trkpt>
      <trkpt lat="46.69309" lon="-2.35084">
        <ele>22.3</ele>
        <time>2018-09-20T11:04:04.000Z</time>
      </trkpt>
      <trkpt lat="46.69308" lon="-2.35083">
        <ele>22.3</ele>
        <time>2018-09-20T11:04:05.000Z</time>
      </trkpt>
      <trkpt lat="46.69308" lon="-2.35081">
        <ele>22.3</ele>
        <time>2018-09-20T11:04:06.000Z</time>
      </trkpt>
      <trkpt lat="46.69307" lon="-2.3508">
        <ele>22.2</ele>
        <time>2018-09-20T11:04:07.000Z</time>
      </trkpt>
      <trkpt lat="46.69307" lon="-2.35078">
        <ele>22.2</ele>
        <time>2018-09-20T11:04:08.000Z</time>
      </trkpt>
      <trkpt lat="46.69307" lon="-2.35077">
        <ele>22.1</ele>
        <time>2018-09-20T11:04:09.000Z</time>
      </trkpt>
      <trkpt lat="46.69306" lon="-2.35075">
        <ele>22.1</ele>
        <time>2018-09-20T11:04:10.000Z</time>
      </trkpt>
      <trkpt lat="46.69306" lon="-2.35074">
        <ele>22.1</ele>
        <time>2018-09-20T11:04:11.000Z</time>
      </trkpt>
      <trkpt lat="46.69305" lon="-2.35072">
        <ele>22</ele>
        <time>2018-09-20T11:04:12.000Z</time>
      </trkpt>
      <trkpt lat="46.69305" lon="-2.35071">
        <ele>22</ele>
        <time>2018-09-20T11:04:13.000Z</time>
      </trkpt>
      <trkpt lat="46.69305" lon="-2.3507">
        <ele>22</ele>
        <time>2018-09-20T11:04:14.000Z</time>
      </trkpt>
      <trkpt lat="46.69305" lon="-2.35068">
        <ele>22</ele>
        <time>2018-09-20T11:04:15.000Z</time>
      </trkpt>
      <trkpt lat="46.69304" lon="-2.35067">
        <ele>21.9</ele>
        <time>2018-09-20T11:04:16.000Z</time>
      </trkpt>
      <trkpt lat="46.69304" lon="-2.35065">
        <ele>21.9</ele>
        <time>2018-09-20T11:04:17.000Z</time>
      </trkpt>
      <trkpt lat="46.69304" lon="-2.35063">
        <ele>21.9</ele>
        <time>2018-09-20T11:04:18.000Z</time>
      </trkpt>
      <trkpt lat="46.69304" lon="-2.35062">
        <ele>21.9</ele>
        <time>2018-09-20T11:04:19.000Z</time>
      </trkpt>
      <trkpt lat="46.69304" lon="-2.3506">
        <ele>21.9</ele>
        <time>2018-09-20T11:04:20.000Z</time>
      </trkpt>
      <trkpt lat="46.69304" lon="-2.35059">
        <ele>21.9</ele>
        <time>2018-09-20T11:04:21.000Z</time>
      </trkpt>
      <trkpt lat="46.69303" lon="-2.35057">
        <ele>21.9</ele>
        <time>2018-09-20T11:04:22.000Z</time>
      </trkpt>
      <trkpt lat="46.69303" lon="-2.35055">
        <ele>21.9</ele>
        <time>2018-09-20T11:04:23.000Z</time>
      </trkpt>
      <trkpt lat="46.69303" lon="-2.35054">
        <ele>21.9</ele>
        <time>2018-09-20T11:04:24.000Z</time>
      </trkpt>
      <trkpt lat="46.69303" lon="-2.35052">
        <ele>21.9</ele>
        <time>2018-09-20T11:04:25.000Z</time>
      </trkpt>
      <trkpt lat="46.69303" lon="-2.35051">
        <ele>21.8</ele>
        <time>2018-09-20T11:04:26.000Z</time>
      </trkpt>
      <trkpt lat="46.69303" lon="-2.35049">
        <ele>21.8</ele>
        <time>2018-09-20T11:04:27.000Z</time>
      </trkpt>
      <trkpt lat="46.69302" lon="-2.35047">
        <ele>21.8</ele>
        <time>2018-09-20T11:04:28.000Z</time>
      </trkpt>
      <trkpt lat="46.69302" lon="-2.35046">
        <ele>21.8</ele>
        <time>2018-09-20T11:04:29.000Z</time>
      </trkpt>
      <trkpt lat="46.69302" lon="-2.35044">
        <ele>21.8</ele>
        <time>2018-09-20T11:04:30.000Z</time>
      </trkpt>
      <trkpt lat="46.69302" lon="-2.35043">
        <ele>21.8</ele>
        <time>2018-09-20T11:04:31.000Z</time>
      </trkpt>
      <trkpt lat="46.69301" lon="-2.35041">
        <ele>21.7</ele>
        <time>2018-09-20T11:04:32.000Z</time>
      </trkpt>
      <trkpt lat="46.69301" lon="-2.3504">
        <ele>21.7</ele>
        <time>2018-09-20T11:04:33.000Z</time>
      </trkpt>
      <trkpt lat="46.693" lon="-2.35038">
        <ele>21.7</ele>
        <time>2018-09-20T11:04:34.000Z</time>
      </trkpt>
      <trkpt lat="46.693" lon="-2.35037">
        <ele>21.6</ele>
        <time>2018-09-20T11:04:35.000Z</time>
      </trkpt>
      <trkpt lat="46.693" lon="-2.35035">
        <ele>21.6</ele>
        <time>2018-09-20T11:04:36.000Z</time>
      </trkpt>
      <trkpt lat="46.69299" lon="-2.35034">
        <ele>21.5</ele>
        <time>2018-09-20T11:04:37.000Z</time>
      </trkpt>
      <trkpt lat="46.69298" lon="-2.35032">
        <ele>21.5</ele>
        <time>2018-09-20T11:04:38.000Z</time>
      </trkpt>
      <trkpt lat="46.69298" lon="-2.35031">
        <ele>21.4</ele>
        <time>2018-09-20T11:04:39.000Z</time>
      </trkpt>
      <trkpt lat="46.69297" lon="-2.35029">
        <ele>21.4</ele>
        <time>2018-09-20T11:04:40.000Z</time>
      </trkpt>
      <trkpt lat="46.69296" lon="-2.35028">
        <ele>21.3</ele>
        <time>2018-09-20T11:04:41.000Z</time>
      </trkpt>
      <trkpt lat="46.69296" lon="-2.35027">
        <ele>21.2</ele>
        <time>2018-09-20T11:04:42.000Z</time>
      </trkpt>
      <trkpt lat="46.69295" lon="-2.35025">
        <ele>21.2</ele>
        <time>2018-09-20T11:04:43.000Z</time>
      </trkpt>
      <trkpt lat="46.69294" lon="-2.35024">
        <ele>21.1</ele>
        <time>2018-09-20T11:04:44.000Z</time>
      </trkpt>
      <trkpt lat="46.69294" lon="-2.35022">
        <ele>21.1</ele>
        <time>2018-09-20T11:04:45.000Z</time>
      </trkpt>
      <trkpt lat="46.69293" lon="-2.35021">
        <ele>21</ele>
        <time>2018-09-20T11:04:46.000Z</time>
      </trkpt>
      <trkpt lat="46.69292" lon="-2.3502">
        <ele>20.9</ele>
        <time>2018-09-20T11:04:47.000Z</time>
      </trkpt>
      <trkpt lat="46.69292" lon="-2.35019">
        <ele>20.9</ele>
        <time>2018-09-20T11:04:48.000Z</time>
      </trkpt>
      <trkpt lat="46.69291" lon="-2.35017">
        <ele>20.8</ele>
        <time>2018-09-20T11:04:49.000Z</time>
      </trkpt>
      <trkpt lat="46.6929" lon="-2.35016">
        <ele>20.8</ele>
        <time>2018-09-20T11:04:50.000Z</time>
      </trkpt>
      <trkpt lat="46.6929" lon="-2.35015">
        <ele>20.7</ele>
        <time>2018-09-20T11:04:51.000Z</time>
      </trkpt>
      <trkpt lat="46.69289" lon="-2.35014">
        <ele>20.7</ele>
        <time>2018-09-20T11:04:52.000Z</time>
      </trkpt>
      <trkpt lat="46.69289" lon="-2.35012">
        <ele>20.6</ele>
        <time>2018-09-20T11:04:53.000Z</time>
      </trkpt>
      <trkpt lat="46.69288" lon="-2.35011">
        <ele>20.6</ele>
        <time>2018-09-20T11:04:54.000Z</time>
      </trkpt>
      <trkpt lat="46.69288" lon="-2.3501">
        <ele>20.6</ele>
        <time>2018-09-20T11:04:55.000Z</time>
      </trkpt>
      <trkpt lat="46.69287" lon="-2.35009">
        <ele>20.5</ele>
        <time>2018-09-20T11:04:56.000Z</time>
      </trkpt>
      <trkpt lat="46.69287" lon="-2.35008">
        <ele>20.5</ele>
        <time>2018-09-20T11:04:57.000Z</time>
      </trkpt>
      <trkpt lat="46.69286" lon="-2.35006">
        <ele>20.4</ele>
        <time>2018-09-20T11:04:58.000Z</time>
      </trkpt>
      <trkpt lat="46.69286" lon="-2.35005">
        <ele>20.4</ele>
        <time>2018-09-20T11:04:59.000Z</time>
      </trkpt>
      <trkpt lat="46.69285" lon="-2.35004">
        <ele>20.4</ele>
        <time>2018-09-20T11:05:00.000Z</time>
      </trkpt>
      <trkpt lat="46.69285" lon="-2.35002">
        <ele>20.3</ele>
        <time>2018-09-20T11:05:01.000Z</time>
      </trkpt>
      <trkpt lat="46.69284" lon="-2.35001">
        <ele>20.3</ele>
        <time>2018-09-20T11:05:02.000Z</time>
      </trkpt>
      <trkpt lat="46.69284" lon="-2.35">
        <ele>20.2</ele>
        <time>2018-09-20T11:05:03.000Z</time>
      </trkpt>
      <trkpt lat="46.69283" lon="-2.34998">
        <ele>20.2</ele>
        <time>2018-09-20T11:05:04.000Z</time>
      </trkpt>
      <trkpt lat="46.69283" lon="-2.34997">
        <ele>20.1</ele>
        <time>2018-09-20T11:05:05.000Z</time>
      </trkpt>
      <trkpt lat="46.69282" lon="-2.34995">
        <ele>20</ele>
        <time>2018-09-20T11:05:06.000Z</time>
      </trkpt>
      <trkpt lat="46.69282" lon="-2.34994">
        <ele>20</ele>
        <time>2018-09-20T11:05:07.000Z</time>
      </trkpt>
      <trkpt lat="46.69281" lon="-2.34992">
        <ele>19.9</ele>
        <time>2018-09-20T11:05:08.000Z</time>
      </trkpt>
      <trkpt lat="46.69281" lon="-2.34991">
        <ele>19.8</ele>
        <time>2018-09-20T11:05:09.000Z</time>
      </trkpt>
      <trkpt lat="46.6928" lon="-2.34989">
        <ele>19.8</ele>
        <time>2018-09-20T11:05:10.000Z</time>
      </trkpt>
      <trkpt lat="46.6928" lon="-2.34987">
        <ele>19.7</ele>
        <time>2018-09-20T11:05:11.000Z</time>
      </trkpt>
      <trkpt lat="46.69279" lon="-2.34986">
        <ele>19.6</ele>
        <time>2018-09-20T11:05:12.000Z</time>
      </trkpt>
      <trkpt lat="46.69279" lon="-2.34984">
        <ele>19.6</ele>
        <time>2018-09-20T11:05:13.000Z</time>
      </trkpt>
      <trkpt lat="46.69278" lon="-2.34983">
        <ele>19.5</ele>
        <time>2018-09-20T11:05:14.000Z</time>
      </trkpt>
      <trkpt lat="46.69278" lon="-2.34981">
        <ele>19.5</ele>
        <time>2018-09-20T11:05:15.000Z</time>
      </trkpt>
      <trkpt lat="46.69277" lon="-2.3498">
        <ele>19.4</ele>
        <time>2018-09-20T11:05:16.000Z</time>
      </trkpt>
      <trkpt lat="46.69277" lon="-2.34978">
        <ele>19.3</ele>
        <time>2018-09-20T11:05:17.000Z</time>
      </trkpt>
      <trkpt lat="46.69277" lon="-2.34977">
        <ele>19.3</ele>
        <time>2018-09-20T11:05:18.000Z</time>
      </trkpt>
      <trkpt lat="46.69276" lon="-2.34975">
        <ele>19.2</ele>
        <time>2018-09-20T11:05:19.000Z</time>
      </trkpt>
      <trkpt lat="46.69276" lon="-2.34974">
        <ele>19.2</ele>
        <time>2018-09-20T11:05:20.000Z</time>
      </trkpt>
      <trkpt lat="46.69275" lon="-2.34972">
        <ele>19.1</ele>
        <time>2018-09-20T11:05:21.000Z</time>
      </trkpt>
      <trkpt lat="46.69275" lon="-2.34971">
        <ele>19.1</ele>
        <time>2018-09-20T11:05:22.000Z</time>
      </trkpt>
      <trkpt lat="46.69275" lon="-2.34969">
        <ele>19</ele>
        <time>2018-09-20T11:05:23.000Z</time>
      </trkpt>
      <trkpt lat="46.69274" lon="-2.34968">
        <ele>19</ele>
        <time>2018-09-20T11:05:24.000Z</time>
      </trkpt>
      <trkpt lat="46.69274" lon="-2.34966">
        <ele>18.9</ele>
        <time>2018-09-20T11:05:25.000Z</time>
      </trkpt>
      <trkpt lat="46.69274" lon="-2.34965">
        <ele>18.9</ele>
        <time>2018-09-20T11:05:26.000Z</time>
      </trkpt>
      <trkpt lat="46.69273" lon="-2.34964">
        <ele>18.8</ele>
        <time>2018-09-20T11:05:27.000Z</time>
      </trkpt>
      <trkpt lat="46.69273" lon="-2.34962">
        <ele>18.8</ele>
        <time>2018-09-20T11:05:28.000Z</time>
      </trkpt>
      <trkpt lat="46.69273" lon="-2.34961">
        <ele>18.7</ele>
        <time>2018-09-20T11:05:29.000Z</time>
      </trkpt>
      <trkpt lat="46.69272" lon="-2.34959">
        <ele>18.7</ele>
        <time>2018-09-20T11:05:30.000Z</time>
      </trkpt>
      <trkpt lat="46.69272" lon="-2.34958">
        <ele>18.6</ele>
        <time>2018-09-20T11:05:31.000Z</time>
      </trkpt>
      <trkpt lat="46.69272" lon="-2.34956">
        <ele>18.6</ele>
        <time>2018-09-20T11:05:32.000Z</time>
      </trkpt>
      <trkpt lat="46.69271" lon="-2.34955">
        <ele>18.5</ele>
        <time>2018-09-20T11:05:33.000Z</time>
      </trkpt>
      <trkpt lat="46.69271" lon="-2.34954">
        <ele>18.4</ele>
        <time>2018-09-20T11:05:34.000Z</time>
      </trkpt>
      <trkpt lat="46.6927" lon="-2.34952">
        <ele>18.4</ele>
        <time>2018-09-20T11:05:35.000Z</time>
      </trkpt>
      <trkpt lat="46.6927" lon="-2.34951">
        <ele>18.3</ele>
        <time>2018-09-20T11:05:36.000Z</time>
      </trkpt>
      <trkpt lat="46.69269" lon="-2.34949">
        <ele>18.2</ele>
        <time>2018-09-20T11:05:37.000Z</time>
      </trkpt>
      <trkpt lat="46.69269" lon="-2.34948">
        <ele>18.2</ele>
        <time>2018-09-20T11:05:38.000Z</time>
      </trkpt>
      <trkpt lat="46.69268" lon="-2.34946">
        <ele>18.1</ele>
        <time>2018-09-20T11:05:39.000Z</time>
      </trkpt>
      <trkpt lat="46.69268" lon="-2.34945">
        <ele>18</ele>
        <time>2018-09-20T11:05:40.000Z</time>
      </trkpt>
      <trkpt lat="46.69267" lon="-2.34943">
        <ele>18</ele>
        <time>2018-09-20T11:05:41.000Z</time>
      </trkpt>
      <trkpt lat="46.69267" lon="-2.34942">
        <ele>17.9</ele>
        <time>2018-09-20T11:05:42.000Z</time>
      </trkpt>
      <trkpt lat="46.69266" lon="-2.34941">
        <ele>17.9</ele>
        <time>2018-09-20T11:05:43.000Z</time>
      </trkpt>
      <trkpt lat="46.69266" lon="-2.34939">
        <ele>17.8</ele>
        <time>2018-09-20T11:05:44.000Z</time>
      </trkpt>
      <trkpt lat="46.69265" lon="-2.34938">
        <ele>17.7</ele>
        <time>2018-09-20T11:05:45.000Z</time>
      </trkpt>
      <trkpt lat="46.69265" lon="-2.34936">
        <ele>17.7</ele>
        <time>2018-09-20T11:05:46.000Z</time>
      </trkpt>
      <trkpt lat="46.69264" lon="-2.34935">
        <ele>17.6</ele>
        <time>2018-09-20T11:05:47.000Z</time>
      </trkpt>
      <trkpt lat="46.69264" lon="-2.34934">
        <ele>17.5</ele>
        <time>2018-09-20T11:05:48.000Z</time>
      </trkpt>
      <trkpt lat="46.69263" lon="-2.34932">
        <ele>17.5</ele>
        <time>2018-09-20T11:05:49.000Z</time>
      </trkpt>
      <trkpt lat="46.69263" lon="-2.34931">
        <ele>17.4</ele>
        <time>2018-09-20T11:05:50.000Z</time>
      </trkpt>
      <trkpt lat="46.69263" lon="-2.34929">
        <ele>17.4</ele>
        <time>2018-09-20T11:05:51.000Z</time>
      </trkpt>
      <trkpt lat="46.69262" lon="-2.34928">
        <ele>17.3</ele>
        <time>2018-09-20T11:05:52.000Z</time>
      </trkpt>
      <trkpt lat="46.69262" lon="-2.34926">
        <ele>17.2</ele>
        <time>2018-09-20T11:05:53.000Z</time>
      </trkpt>
      <trkpt lat="46.69261" lon="-2.34925">
        <ele>17.2</ele>
        <time>2018-09-20T11:05:54.000Z</time>
      </trkpt>
      <trkpt lat="46.69261" lon="-2.34924">
        <ele>17.1</ele>
        <time>2018-09-20T11:05:55.000Z</time>
      </trkpt>
      <trkpt lat="46.69261" lon="-2.34922">
        <ele>17.1</ele>
        <time>2018-09-20T11:05:56.000Z</time>
      </trkpt>
      <trkpt lat="46.69261" lon="-2.34921">
        <ele>17.1</ele>
        <time>2018-09-20T11:05:57.000Z</time>
      </trkpt>
      <trkpt lat="46.6926" lon="-2.34919">
        <ele>17</ele>
        <time>2018-09-20T11:05:58.000Z</time>
      </trkpt>
      <trkpt lat="46.6926" lon="-2.34918">
        <ele>17</ele>
        <time>2018-09-20T11:05:59.000Z</time>
      </trkpt>
      <trkpt lat="46.6926" lon="-2.34916">
        <ele>16.9</ele>
        <time>2018-09-20T11:06:00.000Z</time>
      </trkpt>
      <trkpt lat="46.6926" lon="-2.34915">
        <ele>16.9</ele>
        <time>2018-09-20T11:06:01.000Z</time>
      </trkpt>
      <trkpt lat="46.6926" lon="-2.34913">
        <ele>16.8</ele>
        <time>2018-09-20T11:06:02.000Z</time>
      </trkpt>
      <trkpt lat="46.6926" lon="-2.34912">
        <ele>16.7</ele>
        <time>2018-09-20T11:06:03.000Z</time>
      </trkpt>
      <trkpt lat="46.6926" lon="-2.3491">
        <ele>16.6</ele>
        <time>2018-09-20T11:06:04.000Z</time>
      </trkpt>
      <trkpt lat="46.6926" lon="-2.34909">
        <ele>16.5</ele>
        <time>2018-09-20T11:06:05.000Z</time>
      </trkpt>
      <trkpt lat="46.69261" lon="-2.34907">
        <ele>16.4</ele>
        <time>2018-09-20T11:06:06.000Z</time>
      </trkpt>
      <trkpt lat="46.69261" lon="-2.34906">
        <ele>16.4</ele>
        <time>2018-09-20T11:06:07.000Z</time>
      </trkpt>
      <trkpt lat="46.69261" lon="-2.34904">
        <ele>16.3</ele>
        <time>2018-09-20T11:06:08.000Z</time>
      </trkpt>
      <trkpt lat="46.69261" lon="-2.34903">
        <ele>16.2</ele>
        <time>2018-09-20T11:06:09.000Z</time>
      </trkpt>
      <trkpt lat="46.69261" lon="-2.34901">
        <ele>16.1</ele>
        <time>2018-09-20T11:06:10.000Z</time>
      </trkpt>
      <trkpt lat="46.6926" lon="-2.349">
        <ele>16</ele>
        <time>2018-09-20T11:06:11.000Z</time>
      </trkpt>
      <trkpt lat="46.6926" lon="-2.34899">
        <ele>15.9</ele>
        <time>2018-09-20T11:06:12.000Z</time>
      </trkpt>
      <trkpt lat="46.6926" lon="-2.34897">
        <ele>15.8</ele>
        <time>2018-09-20T11:06:13.000Z</time>
      </trkpt>
      <trkpt lat="46.6926" lon="-2.34896">
        <ele>15.7</ele>
        <time>2018-09-20T11:06:14.000Z</time>
      </trkpt>
      <trkpt lat="46.6926" lon="-2.34895">
        <ele>15.6</ele>
        <time>2018-09-20T11:06:15.000Z</time>
      </trkpt>
      <trkpt lat="46.6926" lon="-2.34893">
        <ele>15.5</ele>
        <time>2018-09-20T11:06:16.000Z</time>
      </trkpt>
      <trkpt lat="46.6926" lon="-2.34892">
        <ele>15.5</ele>
        <time>2018-09-20T11:06:17.000Z</time>
      </trkpt>
      <trkpt lat="46.6926" lon="-2.3489">
        <ele>15.4</ele>
        <time>2018-09-20T11:06:18.000Z</time>
      </trkpt>
      <trkpt lat="46.69261" lon="-2.34888">
        <ele>15.3</ele>
        <time>2018-09-20T11:06:19.000Z</time>
      </trkpt>
      <trkpt lat="46.69261" lon="-2.34886">
        <ele>15.2</ele>
        <time>2018-09-20T11:06:20.000Z</time>
      </trkpt>
      <trkpt lat="46.69261" lon="-2.34884">
        <ele>15.1</ele>
        <time>2018-09-20T11:06:21.000Z</time>
      </trkpt>
      <trkpt lat="46.69261" lon="-2.34882">
        <ele>15</ele>
        <time>2018-09-20T11:06:22.000Z</time>
      </trkpt>
      <trkpt lat="46.69262" lon="-2.3488">
        <ele>14.9</ele>
        <time>2018-09-20T11:06:23.000Z</time>
      </trkpt>
      <trkpt lat="46.69262" lon="-2.34879">
        <ele>14.8</ele>
        <time>2018-09-20T11:06:24.000Z</time>
      </trkpt>
      <trkpt lat="46.69262" lon="-2.34877">
        <ele>14.8</ele>
        <time>2018-09-20T11:06:25.000Z</time>
      </trkpt>
      <trkpt lat="46.69262" lon="-2.34876">
        <ele>14.7</ele>
        <time>2018-09-20T11:06:26.000Z</time>
      </trkpt>
      <trkpt lat="46.69262" lon="-2.34875">
        <ele>14.6</ele>
        <time>2018-09-20T11:06:27.000Z</time>
      </trkpt>
      <trkpt lat="46.69262" lon="-2.34874">
        <ele>14.6</ele>
        <time>2018-09-20T11:06:28.000Z</time>
      </trkpt>
      <trkpt lat="46.69262" lon="-2.34874">
        <ele>14.6</ele>
        <time>2018-09-20T11:06:29.000Z</time>
      </trkpt>
      <trkpt lat="46.69262" lon="-2.34873">
        <ele>14.5</ele>
        <time>2018-09-20T11:06:30.000Z</time>
      </trkpt>
      <trkpt lat="46.69262" lon="-2.34873">
        <ele>14.5</ele>
        <time>2018-09-20T11:06:31.000Z</time>
      </trkpt>
      <trkpt lat="46.69262" lon="-2.34873">
        <ele>14.5</ele>
        <time>2018-09-20T11:06:32.000Z</time>
      </trkpt>
      <trkpt lat="46.69262" lon="-2.34873">
        <ele>14.5</ele>
        <time>2018-09-20T11:06:33.000Z</time>
      </trkpt>
      <trkpt lat="46.69262" lon="-2.34873">
        <ele>14.5</ele>
        <time>2018-09-20T11:06:34.000Z</time>
      </trkpt>
      <trkpt lat="46.69262" lon="-2.34873">
        <ele>14.5</ele>
        <time>2018-09-20T11:06:35.000Z</time>
      </trkpt>
      <trkpt lat="46.69262" lon="-2.34873">
        <ele>14.5</ele>
        <time>2018-09-20T11:06:36.000Z</time>
      </trkpt>
      <trkpt lat="46.69262" lon="-2.34873">
        <ele>14.5</ele>
        <time>2018-09-20T11:06:37.000Z</time>
      </trkpt>
      <trkpt lat="46.69262" lon="-2.34873">
        <ele>14.5</ele>
        <time>2018-09-20T11:06:38.000Z</time>
      </trkpt>
      <trkpt lat="46.69262" lon="-2.34873">
        <ele>14.5</ele>
        <time>2018-09-20T11:06:39.000Z</time>
      </trkpt>
      <trkpt lat="46.69262" lon="-2.34873">
        <ele>14.5</ele>
        <time>2018-09-20T11:06:40.000Z</time>
      </trkpt>
      <trkpt lat="46.69262" lon="-2.34873">
        <ele>14.5</ele>
        <time>2018-09-20T11:06:41.000Z</time>
      </trkpt>
      <trkpt lat="46.69262" lon="-2.34873">
        <ele>14.5</ele>
        <time>2018-09-20T11:06:42.000Z</time>
      </trkpt>
      <trkpt lat="46.69262" lon="-2.34873">
        <ele>14.5</ele>
        <time>2018-09-20T11:06:43.000Z</time>
      </trkpt>
      <trkpt lat="46.69262" lon="-2.34873">
        <ele>14.5</ele>
        <time>2018-09-20T11:06:44.000Z</time>
      </trkpt>
      <trkpt lat="46.69262" lon="-2.34873">
        <ele>14.5</ele>
        <time>2018-09-20T11:06:45.000Z</time>
      </trkpt>
      <trkpt lat="46.69262" lon="-2.34873">
        <ele>14.5</ele>
        <time>2018-09-20T11:06:46.000Z</time>
      </trkpt>
      <trkpt lat="46.69262" lon="-2.34873">
        <ele>14.5</ele>
        <time>2018-09-20T11:06:47.000Z</time>
      </trkpt>
      <trkpt lat="46.69262" lon="-2.34873">
        <ele>14.5</ele>
        <time>2018-09-20T11:06:48.000Z</time>
      </trkpt>
      <trkpt lat="46.69262" lon="-2.34873">
        <ele>14.5</ele>
        <time>2018-09-20T11:06:49.000Z</time>
      </trkpt>
      <trkpt lat="46.69262" lon="-2.34873">
        <ele>14.5</ele>
        <time>2018-09-20T11:06:50.000Z</time>
      </trkpt>
      <trkpt lat="46.69262" lon="-2.34873">
        <ele>14.5</ele>
        <time>2018-09-20T11:06:51.000Z</time>
      </trkpt>
      <trkpt lat="46.69262" lon="-2.34873">
        <ele>14.5</ele>
        <time>2018-09-20T11:06:52.000Z</time>
      </trkpt>
      <trkpt lat="46.69262" lon="-2.34872">
        <ele>14.5</ele>
        <time>2018-09-20T11:06:53.000Z</time>
      </trkpt>
      <trkpt lat="46.69262" lon="-2.34872">
        <ele>14.5</ele>
        <time>2018-09-20T11:06:54.000Z</time>
      </trkpt>
      <trkpt lat="46.69262" lon="-2.34872">
        <ele>14.4</ele>
        <time>2018-09-20T11:06:55.000Z</time>
      </trkpt>
      <trkpt lat="46.69262" lon="-2.34871">
        <ele>14.4</ele>
        <time>2018-09-20T11:06:56.000Z</time>
      </trkpt>
      <trkpt lat="46.69262" lon="-2.3487">
        <ele>14.4</ele>
        <time>2018-09-20T11:06:57.000Z</time>
      </trkpt>
      <trkpt lat="46.69262" lon="-2.34869">
        <ele>14.3</ele>
        <time>2018-09-20T11:06:58.000Z</time>
      </trkpt>
      <trkpt lat="46.69263" lon="-2.34868">
        <ele>14.3</ele>
        <time>2018-09-20T11:06:59.000Z</time>
      </trkpt>
      <trkpt lat="46.69263" lon="-2.34867">
        <ele>14.2</ele>
        <time>2018-09-20T11:07:00.000Z</time>
      </trkpt>
      <trkpt lat="46.69263" lon="-2.34865">
        <ele>14.2</ele>
        <time>2018-09-20T11:07:01.000Z</time>
      </trkpt>
      <trkpt lat="46.69263" lon="-2.34864">
        <ele>14.1</ele>
        <time>2018-09-20T11:07:02.000Z</time>
      </trkpt>
      <trkpt lat="46.69264" lon="-2.34862">
        <ele>14</ele>
        <time>2018-09-20T11:07:03.000Z</time>
      </trkpt>
      <trkpt lat="46.69264" lon="-2.34861">
        <ele>14</ele>
        <time>2018-09-20T11:07:04.000Z</time>
      </trkpt>
      <trkpt lat="46.69264" lon="-2.34859">
        <ele>13.9</ele>
        <time>2018-09-20T11:07:05.000Z</time>
      </trkpt>
      <trkpt lat="46.69264" lon="-2.34858">
        <ele>13.8</ele>
        <time>2018-09-20T11:07:06.000Z</time>
      </trkpt>
      <trkpt lat="46.69264" lon="-2.34856">
        <ele>13.7</ele>
        <time>2018-09-20T11:07:07.000Z</time>
      </trkpt>
      <trkpt lat="46.69264" lon="-2.34855">
        <ele>13.6</ele>
        <time>2018-09-20T11:07:08.000Z</time>
      </trkpt>
      <trkpt lat="46.69264" lon="-2.34854">
        <ele>13.6</ele>
        <time>2018-09-20T11:07:09.000Z</time>
      </trkpt>
      <trkpt lat="46.69264" lon="-2.34852">
        <ele>13.5</ele>
        <time>2018-09-20T11:07:10.000Z</time>
      </trkpt>
      <trkpt lat="46.69264" lon="-2.34851">
        <ele>13.4</ele>
        <time>2018-09-20T11:07:11.000Z</time>
      </trkpt>
      <trkpt lat="46.69264" lon="-2.3485">
        <ele>13.3</ele>
        <time>2018-09-20T11:07:12.000Z</time>
      </trkpt>
      <trkpt lat="46.69264" lon="-2.34849">
        <ele>13.3</ele>
        <time>2018-09-20T11:07:13.000Z</time>
      </trkpt>
      <trkpt lat="46.69265" lon="-2.34847">
        <ele>13.2</ele>
        <time>2018-09-20T11:07:14.000Z</time>
      </trkpt>
      <trkpt lat="46.69265" lon="-2.34846">
        <ele>13.2</ele>
        <time>2018-09-20T11:07:15.000Z</time>
      </trkpt>
      <trkpt lat="46.69266" lon="-2.34845">
        <ele>13.2</ele>
        <time>2018-09-20T11:07:16.000Z</time>
      </trkpt>
      <trkpt lat="46.69266" lon="-2.34844">
        <ele>13.2</ele>
        <time>2018-09-20T11:07:17.000Z</time>
      </trkpt>
      <trkpt lat="46.69267" lon="-2.34843">
        <ele>13.2</ele>
        <time>2018-09-20T11:07:18.000Z</time>
      </trkpt>
      <trkpt lat="46.69268" lon="-2.34842">
        <ele>13.2</ele>
        <time>2018-09-20T11:07:19.000Z</time>
      </trkpt>
      <trkpt lat="46.69268" lon="-2.34841">
        <ele>13.2</ele>
        <time>2018-09-20T11:07:20.000Z</time>
      </trkpt>
      <trkpt lat="46.69269" lon="-2.3484">
        <ele>13.2</ele>
        <time>2018-09-20T11:07:21.000Z</time>
      </trkpt>
      <trkpt lat="46.69269" lon="-2.3484">
        <ele>13.2</ele>
        <time>2018-09-20T11:07:22.000Z</time>
      </trkpt>
      <trkpt lat="46.6927" lon="-2.34839">
        <ele>13.2</ele>
        <time>2018-09-20T11:07:23.000Z</time>
      </trkpt>
      <trkpt lat="46.6927" lon="-2.34839">
        <ele>13.2</ele>
        <time>2018-09-20T11:07:24.000Z</time>
      </trkpt>
      <trkpt lat="46.6927" lon="-2.34839">
        <ele>13.2</ele>
        <time>2018-09-20T11:07:25.000Z</time>
      </trkpt>
      <trkpt lat="46.6927" lon="-2.34839">
        <ele>13.2</ele>
        <time>2018-09-20T11:07:26.000Z</time>
      </trkpt>
      <trkpt lat="46.6927" lon="-2.34839">
        <ele>13.2</ele>
        <time>2018-09-20T11:07:27.000Z</time>
      </trkpt>
      <trkpt lat="46.6927" lon="-2.34839">
        <ele>13.2</ele>
        <time>2018-09-20T11:07:28.000Z</time>
      </trkpt>
      <trkpt lat="46.6927" lon="-2.34839">
        <ele>13.2</ele>
        <time>2018-09-20T11:07:29.000Z</time>
      </trkpt>
      <trkpt lat="46.6927" lon="-2.34839">
        <ele>13.2</ele>
        <time>2018-09-20T11:07:30.000Z</time>
      </trkpt>
      <trkpt lat="46.6927" lon="-2.34839">
        <ele>13.2</ele>
        <time>2018-09-20T11:07:31.000Z</time>
      </trkpt>
      <trkpt lat="46.6927" lon="-2.34839">
        <ele>13.2</ele>
        <time>2018-09-20T11:07:32.000Z</time>
      </trkpt>
      <trkpt lat="46.6927" lon="-2.34839">
        <ele>13.2</ele>
        <time>2018-09-20T11:07:33.000Z</time>
      </trkpt>
      <trkpt lat="46.6927" lon="-2.34839">
        <ele>13.2</ele>
        <time>2018-09-20T11:07:34.000Z</time>
      </trkpt>
      <trkpt lat="46.6927" lon="-2.34839">
        <ele>13.3</ele>
        <time>2018-09-20T11:07:35.000Z</time>
      </trkpt>
      <trkpt lat="46.6927" lon="-2.34839">
        <ele>13.3</ele>
        <time>2018-09-20T11:07:36.000Z</time>
      </trkpt>
      <trkpt lat="46.6927" lon="-2.34839">
        <ele>13.3</ele>
        <time>2018-09-20T11:07:37.000Z</time>
      </trkpt>
      <trkpt lat="46.6927" lon="-2.34839">
        <ele>13.3</ele>
        <time>2018-09-20T11:07:38.000Z</time>
      </trkpt>
      <trkpt lat="46.6927" lon="-2.34839">
        <ele>13.3</ele>
        <time>2018-09-20T11:07:39.000Z</time>
      </trkpt>
      <trkpt lat="46.6927" lon="-2.34839">
        <ele>13.3</ele>
        <time>2018-09-20T11:07:40.000Z</time>
      </trkpt>
      <trkpt lat="46.6927" lon="-2.34839">
        <ele>13.3</ele>
        <time>2018-09-20T11:07:41.000Z</time>
      </trkpt>
      <trkpt lat="46.69271" lon="-2.34839">
        <ele>13.3</ele>
        <time>2018-09-20T11:07:42.000Z</time>
      </trkpt>
      <trkpt lat="46.69271" lon="-2.34839">
        <ele>13.3</ele>
        <time>2018-09-20T11:07:43.000Z</time>
      </trkpt>
      <trkpt lat="46.69271" lon="-2.34839">
        <ele>13.3</ele>
        <time>2018-09-20T11:07:44.000Z</time>
      </trkpt>
      <trkpt lat="46.69271" lon="-2.34839">
        <ele>13.3</ele>
        <time>2018-09-20T11:07:45.000Z</time>
      </trkpt>
      <trkpt lat="46.69271" lon="-2.34838">
        <ele>13.3</ele>
        <time>2018-09-20T11:07:46.000Z</time>
      </trkpt>
      <trkpt lat="46.69271" lon="-2.34838">
        <ele>13.3</ele>
        <time>2018-09-20T11:07:47.000Z</time>
      </trkpt>
      <trkpt lat="46.69272" lon="-2.34838">
        <ele>13.3</ele>
        <time>2018-09-20T11:07:48.000Z</time>
      </trkpt>
      <trkpt lat="46.69272" lon="-2.34838">
        <ele>13.4</ele>
        <time>2018-09-20T11:07:49.000Z</time>
      </trkpt>
      <trkpt lat="46.69272" lon="-2.34838">
        <ele>13.4</ele>
        <time>2018-09-20T11:07:50.000Z</time>
      </trkpt>
      <trkpt lat="46.69272" lon="-2.34838">
        <ele>13.4</ele>
        <time>2018-09-20T11:07:51.000Z</time>
      </trkpt>
      <trkpt lat="46.69273" lon="-2.34838">
        <ele>13.4</ele>
        <time>2018-09-20T11:07:52.000Z</time>
      </trkpt>
      <trkpt lat="46.69273" lon="-2.34837">
        <ele>13.4</ele>
        <time>2018-09-20T11:07:53.000Z</time>
      </trkpt>
      <trkpt lat="46.69273" lon="-2.34837">
        <ele>13.4</ele>
        <time>2018-09-20T11:07:54.000Z</time>
      </trkpt>
      <trkpt lat="46.69274" lon="-2.34837">
        <ele>13.5</ele>
        <time>2018-09-20T11:07:55.000Z</time>
      </trkpt>
      <trkpt lat="46.69274" lon="-2.34837">
        <ele>13.5</ele>
        <time>2018-09-20T11:07:56.000Z</time>
      </trkpt>
      <trkpt lat="46.69275" lon="-2.34837">
        <ele>13.6</ele>
        <time>2018-09-20T11:07:57.000Z</time>
      </trkpt>
      <trkpt lat="46.69275" lon="-2.34837">
        <ele>13.6</ele>
        <time>2018-09-20T11:07:58.000Z</time>
      </trkpt>
      <trkpt lat="46.69276" lon="-2.34836">
        <ele>13.7</ele>
        <time>2018-09-20T11:07:59.000Z</time>
      </trkpt>
      <trkpt lat="46.69277" lon="-2.34836">
        <ele>13.7</ele>
        <time>2018-09-20T11:08:00.000Z</time>
      </trkpt>
      <trkpt lat="46.69278" lon="-2.34836">
        <ele>13.8</ele>
        <time>2018-09-20T11:08:01.000Z</time>
      </trkpt>
      <trkpt lat="46.69279" lon="-2.34836">
        <ele>13.9</ele>
        <time>2018-09-20T11:08:02.000Z</time>
      </trkpt>
      <trkpt lat="46.6928" lon="-2.34835">
        <ele>13.9</ele>
        <time>2018-09-20T11:08:03.000Z</time>
      </trkpt>
      <trkpt lat="46.69281" lon="-2.34835">
        <ele>14</ele>
        <time>2018-09-20T11:08:04.000Z</time>
      </trkpt>
      <trkpt lat="46.69282" lon="-2.34834">
        <ele>14.1</ele>
        <time>2018-09-20T11:08:05.000Z</time>
      </trkpt>
      <trkpt lat="46.69283" lon="-2.34834">
        <ele>14.2</ele>
        <time>2018-09-20T11:08:06.000Z</time>
      </trkpt>
      <trkpt lat="46.69284" lon="-2.34833">
        <ele>14.3</ele>
        <time>2018-09-20T11:08:07.000Z</time>
      </trkpt>
      <trkpt lat="46.69285" lon="-2.34833">
        <ele>14.4</ele>
        <time>2018-09-20T11:08:08.000Z</time>
      </trkpt>
      <trkpt lat="46.69286" lon="-2.34833">
        <ele>14.4</ele>
        <time>2018-09-20T11:08:09.000Z</time>
      </trkpt>
      <trkpt lat="46.69287" lon="-2.34833">
        <ele>14.5</ele>
        <time>2018-09-20T11:08:10.000Z</time>
      </trkpt>
      <trkpt lat="46.69288" lon="-2.34833">
        <ele>14.6</ele>
        <time>2018-09-20T11:08:11.000Z</time>
      </trkpt>
      <trkpt lat="46.69289" lon="-2.34833">
        <ele>14.7</ele>
        <time>2018-09-20T11:08:12.000Z</time>
      </trkpt>
      <trkpt lat="46.69289" lon="-2.34833">
        <ele>14.7</ele>
        <time>2018-09-20T11:08:13.000Z</time>
      </trkpt>
      <trkpt lat="46.6929" lon="-2.34833">
        <ele>14.8</ele>
        <time>2018-09-20T11:08:14.000Z</time>
      </trkpt>
      <trkpt lat="46.6929" lon="-2.34833">
        <ele>14.8</ele>
        <time>2018-09-20T11:08:15.000Z</time>
      </trkpt>
      <trkpt lat="46.6929" lon="-2.34833">
        <ele>14.8</ele>
        <time>2018-09-20T11:08:16.000Z</time>
      </trkpt>
      <trkpt lat="46.6929" lon="-2.34833">
        <ele>14.8</ele>
        <time>2018-09-20T11:08:17.000Z</time>
      </trkpt>
      <trkpt lat="46.6929" lon="-2.34833">
        <ele>14.8</ele>
        <time>2018-09-20T11:08:18.000Z</time>
      </trkpt>
      <trkpt lat="46.6929" lon="-2.34833">
        <ele>14.7</ele>
        <time>2018-09-20T11:08:19.000Z</time>
      </trkpt>
      <trkpt lat="46.6929" lon="-2.34832">
        <ele>14.7</ele>
        <time>2018-09-20T11:08:20.000Z</time>
      </trkpt>
      <trkpt lat="46.6929" lon="-2.34832">
        <ele>14.7</ele>
        <time>2018-09-20T11:08:21.000Z</time>
      </trkpt>
      <trkpt lat="46.6929" lon="-2.34833">
        <ele>14.7</ele>
        <time>2018-09-20T11:08:22.000Z</time>
      </trkpt>
      <trkpt lat="46.6929" lon="-2.34833">
        <ele>14.8</ele>
        <time>2018-09-20T11:08:23.000Z</time>
      </trkpt>
      <trkpt lat="46.69291" lon="-2.34833">
        <ele>14.8</ele>
        <time>2018-09-20T11:08:24.000Z</time>
      </trkpt>
      <trkpt lat="46.69291" lon="-2.34834">
        <ele>14.9</ele>
        <time>2018-09-20T11:08:25.000Z</time>
      </trkpt>
      <trkpt lat="46.69292" lon="-2.34834">
        <ele>15</ele>
        <time>2018-09-20T11:08:26.000Z</time>
      </trkpt>
      <trkpt lat="46.69292" lon="-2.34835">
        <ele>15.1</ele>
        <time>2018-09-20T11:08:27.000Z</time>
      </trkpt>
      <trkpt lat="46.69293" lon="-2.34836">
        <ele>15.3</ele>
        <time>2018-09-20T11:08:28.000Z</time>
      </trkpt>
      <trkpt lat="46.69294" lon="-2.34836">
        <ele>15.4</ele>
        <time>2018-09-20T11:08:29.000Z</time>
      </trkpt>
      <trkpt lat="46.69295" lon="-2.34837">
        <ele>15.5</ele>
        <time>2018-09-20T11:08:30.000Z</time>
      </trkpt>
      <trkpt lat="46.69296" lon="-2.34838">
        <ele>15.7</ele>
        <time>2018-09-20T11:08:31.000Z</time>
      </trkpt>
      <trkpt lat="46.69297" lon="-2.34839">
        <ele>15.8</ele>
        <time>2018-09-20T11:08:32.000Z</time>
      </trkpt>
      <trkpt lat="46.69298" lon="-2.3484">
        <ele>16</ele>
        <time>2018-09-20T11:08:33.000Z</time>
      </trkpt>
      <trkpt lat="46.69299" lon="-2.34841">
        <ele>16.1</ele>
        <time>2018-09-20T11:08:34.000Z</time>
      </trkpt>
      <trkpt lat="46.693" lon="-2.34842">
        <ele>16.3</ele>
        <time>2018-09-20T11:08:35.000Z</time>
      </trkpt>
      <trkpt lat="46.69301" lon="-2.34843">
        <ele>16.4</ele>
        <time>2018-09-20T11:08:36.000Z</time>
      </trkpt>
      <trkpt lat="46.69301" lon="-2.34843">
        <ele>16.5</ele>
        <time>2018-09-20T11:08:37.000Z</time>
      </trkpt>
      <trkpt lat="46.69302" lon="-2.34844">
        <ele>16.7</ele>
        <time>2018-09-20T11:08:38.000Z</time>
      </trkpt>
      <trkpt lat="46.69303" lon="-2.34845">
        <ele>16.8</ele>
        <time>2018-09-20T11:08:39.000Z</time>
      </trkpt>
      <trkpt lat="46.69304" lon="-2.34845">
        <ele>16.9</ele>
        <time>2018-09-20T11:08:40.000Z</time>
      </trkpt>
      <trkpt lat="46.69305" lon="-2.34846">
        <ele>17</ele>
        <time>2018-09-20T11:08:41.000Z</time>
      </trkpt>
      <trkpt lat="46.69305" lon="-2.34846">
        <ele>17.1</ele>
        <time>2018-09-20T11:08:42.000Z</time>
      </trkpt>
      <trkpt lat="46.69306" lon="-2.34846">
        <ele>17.1</ele>
        <time>2018-09-20T11:08:43.000Z</time>
      </trkpt>
      <trkpt lat="46.69307" lon="-2.34846">
        <ele>17.2</ele>
        <time>2018-09-20T11:08:44.000Z</time>
      </trkpt>
      <trkpt lat="46.69307" lon="-2.34847">
        <ele>17.3</ele>
        <time>2018-09-20T11:08:45.000Z</time>
      </trkpt>
      <trkpt lat="46.69307" lon="-2.34847">
        <ele>17.3</ele>
        <time>2018-09-20T11:08:46.000Z</time>
      </trkpt>
      <trkpt lat="46.69308" lon="-2.34847">
        <ele>17.3</ele>
        <time>2018-09-20T11:08:47.000Z</time>
      </trkpt>
      <trkpt lat="46.69308" lon="-2.34847">
        <ele>17.4</ele>
        <time>2018-09-20T11:08:48.000Z</time>
      </trkpt>
      <trkpt lat="46.69308" lon="-2.34847">
        <ele>17.4</ele>
        <time>2018-09-20T11:08:49.000Z</time>
      </trkpt>
      <trkpt lat="46.69308" lon="-2.34846">
        <ele>17.4</ele>
        <time>2018-09-20T11:08:50.000Z</time>
      </trkpt>
      <trkpt lat="46.69308" lon="-2.34846">
        <ele>17.4</ele>
        <time>2018-09-20T11:08:51.000Z</time>
      </trkpt>
      <trkpt lat="46.69309" lon="-2.34846">
        <ele>17.4</ele>
        <time>2018-09-20T11:08:52.000Z</time>
      </trkpt>
      <trkpt lat="46.69309" lon="-2.34846">
        <ele>17.4</ele>
        <time>2018-09-20T11:08:53.000Z</time>
      </trkpt>
      <trkpt lat="46.69309" lon="-2.34846">
        <ele>17.4</ele>
        <time>2018-09-20T11:08:54.000Z</time>
      </trkpt>
      <trkpt lat="46.69309" lon="-2.34846">
        <ele>17.3</ele>
        <time>2018-09-20T11:08:55.000Z</time>
      </trkpt>
      <trkpt lat="46.69309" lon="-2.34845">
        <ele>17.3</ele>
        <time>2018-09-20T11:08:56.000Z</time>
      </trkpt>
      <trkpt lat="46.69309" lon="-2.34845">
        <ele>17.3</ele>
        <time>2018-09-20T11:08:57.000Z</time>
      </trkpt>
      <trkpt lat="46.69309" lon="-2.34845">
        <ele>17.3</ele>
        <time>2018-09-20T11:08:58.000Z</time>
      </trkpt>
      <trkpt lat="46.69309" lon="-2.34845">
        <ele>17.3</ele>
        <time>2018-09-20T11:08:59.000Z</time>
      </trkpt>
      <trkpt lat="46.69309" lon="-2.34845">
        <ele>17.3</ele>
        <time>2018-09-20T11:09:00.000Z</time>
      </trkpt>
      <trkpt lat="46.69309" lon="-2.34845">
        <ele>17.3</ele>
        <time>2018-09-20T11:09:01.000Z</time>
      </trkpt>
      <trkpt lat="46.69309" lon="-2.34845">
        <ele>17.3</ele>
        <time>2018-09-20T11:09:02.000Z</time>
      </trkpt>
      <trkpt lat="46.69309" lon="-2.34845">
        <ele>17.3</ele>
        <time>2018-09-20T11:09:03.000Z</time>
      </trkpt>
      <trkpt lat="46.69309" lon="-2.34845">
        <ele>17.4</ele>
        <time>2018-09-20T11:09:04.000Z</time>
      </trkpt>
      <trkpt lat="46.69309" lon="-2.34845">
        <ele>17.3</ele>
        <time>2018-09-20T11:09:05.000Z</time>
      </trkpt>
      <trkpt lat="46.69309" lon="-2.34845">
        <ele>17.4</ele>
        <time>2018-09-20T11:09:06.000Z</time>
      </trkpt>
      <trkpt lat="46.69309" lon="-2.34845">
        <ele>17.3</ele>
        <time>2018-09-20T11:09:07.000Z</time>
      </trkpt>
      <trkpt lat="46.69309" lon="-2.34845">
        <ele>17.3</ele>
        <time>2018-09-20T11:09:08.000Z</time>
      </trkpt>
      <trkpt lat="46.6931" lon="-2.34844">
        <ele>17.4</ele>
        <time>2018-09-20T11:09:09.000Z</time>
      </trkpt>
      <trkpt lat="46.69311" lon="-2.34843">
        <ele>17.4</ele>
        <time>2018-09-20T11:09:10.000Z</time>
      </trkpt>
      <trkpt lat="46.69312" lon="-2.34842">
        <ele>17.5</ele>
        <time>2018-09-20T11:09:11.000Z</time>
      </trkpt>
      <trkpt lat="46.69312" lon="-2.34841">
        <ele>17.5</ele>
        <time>2018-09-20T11:09:12.000Z</time>
      </trkpt>
      <trkpt lat="46.69313" lon="-2.3484">
        <ele>17.4</ele>
        <time>2018-09-20T11:09:13.000Z</time>
      </trkpt>
      <trkpt lat="46.69314" lon="-2.34839">
        <ele>17.5</ele>
        <time>2018-09-20T11:09:14.000Z</time>
      </trkpt>
      <trkpt lat="46.69315" lon="-2.34838">
        <ele>17.5</ele>
        <time>2018-09-20T11:09:15.000Z</time>
      </trkpt>
      <trkpt lat="46.69316" lon="-2.34837">
        <ele>17.5</ele>
        <time>2018-09-20T11:09:16.000Z</time>
      </trkpt>
      <trkpt lat="46.69316" lon="-2.34835">
        <ele>17.5</ele>
        <time>2018-09-20T11:09:17.000Z</time>
      </trkpt>
      <trkpt lat="46.69317" lon="-2.34834">
        <ele>17.5</ele>
        <time>2018-09-20T11:09:18.000Z</time>
      </trkpt>
      <trkpt lat="46.69318" lon="-2.34832">
        <ele>17.4</ele>
        <time>2018-09-20T11:09:19.000Z</time>
      </trkpt>
      <trkpt lat="46.69319" lon="-2.34831">
        <ele>17.4</ele>
        <time>2018-09-20T11:09:20.000Z</time>
      </trkpt>
      <trkpt lat="46.6932" lon="-2.3483">
        <ele>17.3</ele>
        <time>2018-09-20T11:09:21.000Z</time>
      </trkpt>
      <trkpt lat="46.69321" lon="-2.34828">
        <ele>17.2</ele>
        <time>2018-09-20T11:09:22.000Z</time>
      </trkpt>
      <trkpt lat="46.69321" lon="-2.34827">
        <ele>17.1</ele>
        <time>2018-09-20T11:09:23.000Z</time>
      </trkpt>
      <trkpt lat="46.69322" lon="-2.34826">
        <ele>17</ele>
        <time>2018-09-20T11:09:24.000Z</time>
      </trkpt>
      <trkpt lat="46.69323" lon="-2.34824">
        <ele>16.9</ele>
        <time>2018-09-20T11:09:25.000Z</time>
      </trkpt>
      <trkpt lat="46.69323" lon="-2.34823">
        <ele>16.8</ele>
        <time>2018-09-20T11:09:26.000Z</time>
      </trkpt>
      <trkpt lat="46.69324" lon="-2.34822">
        <ele>16.8</ele>
        <time>2018-09-20T11:09:27.000Z</time>
      </trkpt>
      <trkpt lat="46.69324" lon="-2.34821">
        <ele>16.7</ele>
        <time>2018-09-20T11:09:28.000Z</time>
      </trkpt>
      <trkpt lat="46.69324" lon="-2.34819">
        <ele>16.6</ele>
        <time>2018-09-20T11:09:29.000Z</time>
      </trkpt>
      <trkpt lat="46.69325" lon="-2.34818">
        <ele>16.5</ele>
        <time>2018-09-20T11:09:30.000Z</time>
      </trkpt>
      <trkpt lat="46.69325" lon="-2.34818">
        <ele>16.4</ele>
        <time>2018-09-20T11:09:31.000Z</time>
      </trkpt>
      <trkpt lat="46.69325" lon="-2.34817">
        <ele>16.4</ele>
        <time>2018-09-20T11:09:32.000Z</time>
      </trkpt>
      <trkpt lat="46.69325" lon="-2.34816">
        <ele>16.3</ele>
        <time>2018-09-20T11:09:33.000Z</time>
      </trkpt>
      <trkpt lat="46.69325" lon="-2.34816">
        <ele>16.3</ele>
        <time>2018-09-20T11:09:34.000Z</time>
      </trkpt>
      <trkpt lat="46.69325" lon="-2.34815">
        <ele>16.2</ele>
        <time>2018-09-20T11:09:35.000Z</time>
      </trkpt>
      <trkpt lat="46.69325" lon="-2.34815">
        <ele>16.2</ele>
        <time>2018-09-20T11:09:36.000Z</time>
      </trkpt>
      <trkpt lat="46.69326" lon="-2.34814">
        <ele>16.1</ele>
        <time>2018-09-20T11:09:37.000Z</time>
      </trkpt>
      <trkpt lat="46.69326" lon="-2.34813">
        <ele>16.1</ele>
        <time>2018-09-20T11:09:38.000Z</time>
      </trkpt>
      <trkpt lat="46.69326" lon="-2.34812">
        <ele>16</ele>
        <time>2018-09-20T11:09:39.000Z</time>
      </trkpt>
      <trkpt lat="46.69327" lon="-2.34811">
        <ele>15.9</ele>
        <time>2018-09-20T11:09:40.000Z</time>
      </trkpt>
      <trkpt lat="46.69328" lon="-2.34809">
        <ele>15.8</ele>
        <time>2018-09-20T11:09:41.000Z</time>
      </trkpt>
      <trkpt lat="46.69329" lon="-2.34807">
        <ele>15.7</ele>
        <time>2018-09-20T11:09:42.000Z</time>
      </trkpt>
      <trkpt lat="46.69329" lon="-2.34806">
        <ele>15.6</ele>
        <time>2018-09-20T11:09:43.000Z</time>
      </trkpt>
      <trkpt lat="46.6933" lon="-2.34804">
        <ele>15.5</ele>
        <time>2018-09-20T11:09:44.000Z</time>
      </trkpt>
      <trkpt lat="46.69331" lon="-2.34803">
        <ele>15.5</ele>
        <time>2018-09-20T11:09:45.000Z</time>
      </trkpt>
      <trkpt lat="46.69332" lon="-2.34802">
        <ele>15.4</ele>
        <time>2018-09-20T11:09:46.000Z</time>
      </trkpt>
      <trkpt lat="46.69333" lon="-2.34801">
        <ele>15.5</ele>
        <time>2018-09-20T11:09:47.000Z</time>
      </trkpt>
      <trkpt lat="46.69334" lon="-2.34801">
        <ele>15.5</ele>
        <time>2018-09-20T11:09:48.000Z</time>
      </trkpt>
      <trkpt lat="46.69334" lon="-2.348">
        <ele>15.5</ele>
        <time>2018-09-20T11:09:49.000Z</time>
      </trkpt>
      <trkpt lat="46.69335" lon="-2.348">
        <ele>15.5</ele>
        <time>2018-09-20T11:09:50.000Z</time>
      </trkpt>
      <trkpt lat="46.69336" lon="-2.34799">
        <ele>15.5</ele>
        <time>2018-09-20T11:09:51.000Z</time>
      </trkpt>
      <trkpt lat="46.69337" lon="-2.34799">
        <ele>15.5</ele>
        <time>2018-09-20T11:09:52.000Z</time>
      </trkpt>
      <trkpt lat="46.69337" lon="-2.34798">
        <ele>15.4</ele>
        <time>2018-09-20T11:09:53.000Z</time>
      </trkpt>
      <trkpt lat="46.69338" lon="-2.34797">
        <ele>15.4</ele>
        <time>2018-09-20T11:09:54.000Z</time>
      </trkpt>
      <trkpt lat="46.69339" lon="-2.34796">
        <ele>15.3</ele>
        <time>2018-09-20T11:09:55.000Z</time>
      </trkpt>
      <trkpt lat="46.6934" lon="-2.34794">
        <ele>15.2</ele>
        <time>2018-09-20T11:09:56.000Z</time>
      </trkpt>
      <trkpt lat="46.6934" lon="-2.34793">
        <ele>15.2</ele>
        <time>2018-09-20T11:09:57.000Z</time>
      </trkpt>
      <trkpt lat="46.69341" lon="-2.34792">
        <ele>15.1</ele>
        <time>2018-09-20T11:09:58.000Z</time>
      </trkpt>
      <trkpt lat="46.69342" lon="-2.34791">
        <ele>15.1</ele>
        <time>2018-09-20T11:09:59.000Z</time>
      </trkpt>
      <trkpt lat="46.69343" lon="-2.34791">
        <ele>15.1</ele>
        <time>2018-09-20T11:10:00.000Z</time>
      </trkpt>
      <trkpt lat="46.69344" lon="-2.3479">
        <ele>15.1</ele>
        <time>2018-09-20T11:10:01.000Z</time>
      </trkpt>
      <trkpt lat="46.69345" lon="-2.3479">
        <ele>15.1</ele>
        <time>2018-09-20T11:10:02.000Z</time>
      </trkpt>
      <trkpt lat="46.69345" lon="-2.34789">
        <ele>15.1</ele>
        <time>2018-09-20T11:10:03.000Z</time>
      </trkpt>
      <trkpt lat="46.69346" lon="-2.34789">
        <ele>15.2</ele>
        <time>2018-09-20T11:10:04.000Z</time>
      </trkpt>
      <trkpt lat="46.69347" lon="-2.34789">
        <ele>15.3</ele>
        <time>2018-09-20T11:10:05.000Z</time>
      </trkpt>
      <trkpt lat="46.69348" lon="-2.3479">
        <ele>15.3</ele>
        <time>2018-09-20T11:10:06.000Z</time>
      </trkpt>
      <trkpt lat="46.69349" lon="-2.3479">
        <ele>15.4</ele>
        <time>2018-09-20T11:10:07.000Z</time>
      </trkpt>
      <trkpt lat="46.6935" lon="-2.3479">
        <ele>15.5</ele>
        <time>2018-09-20T11:10:08.000Z</time>
      </trkpt>
      <trkpt lat="46.6935" lon="-2.3479">
        <ele>15.6</ele>
        <time>2018-09-20T11:10:09.000Z</time>
      </trkpt>
      <trkpt lat="46.69351" lon="-2.34791">
        <ele>15.7</ele>
        <time>2018-09-20T11:10:10.000Z</time>
      </trkpt>
      <trkpt lat="46.69352" lon="-2.34791">
        <ele>15.7</ele>
        <time>2018-09-20T11:10:11.000Z</time>
      </trkpt>
      <trkpt lat="46.69352" lon="-2.34791">
        <ele>15.8</ele>
        <time>2018-09-20T11:10:12.000Z</time>
      </trkpt>
      <trkpt lat="46.69352" lon="-2.34791">
        <ele>15.8</ele>
        <time>2018-09-20T11:10:13.000Z</time>
      </trkpt>
      <trkpt lat="46.69352" lon="-2.34791">
        <ele>15.8</ele>
        <time>2018-09-20T11:10:14.000Z</time>
      </trkpt>
      <trkpt lat="46.69352" lon="-2.34791">
        <ele>15.8</ele>
        <time>2018-09-20T11:10:15.000Z</time>
      </trkpt>
      <trkpt lat="46.69352" lon="-2.34791">
        <ele>15.8</ele>
        <time>2018-09-20T11:10:16.000Z</time>
      </trkpt>
      <trkpt lat="46.69352" lon="-2.34791">
        <ele>15.8</ele>
        <time>2018-09-20T11:10:17.000Z</time>
      </trkpt>
      <trkpt lat="46.69352" lon="-2.34791">
        <ele>15.8</ele>
        <time>2018-09-20T11:10:18.000Z</time>
      </trkpt>
      <trkpt lat="46.69352" lon="-2.34791">
        <ele>15.8</ele>
        <time>2018-09-20T11:10:19.000Z</time>
      </trkpt>
      <trkpt lat="46.69352" lon="-2.34791">
        <ele>15.8</ele>
        <time>2018-09-20T11:10:20.000Z</time>
      </trkpt>
      <trkpt lat="46.69352" lon="-2.34791">
        <ele>15.7</ele>
        <time>2018-09-20T11:10:21.000Z</time>
      </trkpt>
      <trkpt lat="46.69352" lon="-2.34791">
        <ele>15.7</ele>
        <time>2018-09-20T11:10:22.000Z</time>
      </trkpt>
      <trkpt lat="46.69352" lon="-2.34791">
        <ele>15.8</ele>
        <time>2018-09-20T11:10:23.000Z</time>
      </trkpt>
      <trkpt lat="46.69352" lon="-2.34791">
        <ele>15.8</ele>
        <time>2018-09-20T11:10:24.000Z</time>
      </trkpt>
      <trkpt lat="46.69352" lon="-2.34791">
        <ele>15.8</ele>
        <time>2018-09-20T11:10:25.000Z</time>
      </trkpt>
      <trkpt lat="46.69353" lon="-2.34792">
        <ele>15.9</ele>
        <time>2018-09-20T11:10:26.000Z</time>
      </trkpt>
      <trkpt lat="46.69353" lon="-2.34792">
        <ele>15.9</ele>
        <time>2018-09-20T11:10:27.000Z</time>
      </trkpt>
      <trkpt lat="46.69353" lon="-2.34792">
        <ele>16</ele>
        <time>2018-09-20T11:10:28.000Z</time>
      </trkpt>
      <trkpt lat="46.69354" lon="-2.34793">
        <ele>16.1</ele>
        <time>2018-09-20T11:10:29.000Z</time>
      </trkpt>
      <trkpt lat="46.69354" lon="-2.34793">
        <ele>16.2</ele>
        <time>2018-09-20T11:10:30.000Z</time>
      </trkpt>
      <trkpt lat="46.69355" lon="-2.34794">
        <ele>16.2</ele>
        <time>2018-09-20T11:10:31.000Z</time>
      </trkpt>
      <trkpt lat="46.69356" lon="-2.34794">
        <ele>16.3</ele>
        <time>2018-09-20T11:10:32.000Z</time>
      </trkpt>
      <trkpt lat="46.69356" lon="-2.34794">
        <ele>16.4</ele>
        <time>2018-09-20T11:10:33.000Z</time>
      </trkpt>
      <trkpt lat="46.69357" lon="-2.34795">
        <ele>16.5</ele>
        <time>2018-09-20T11:10:34.000Z</time>
      </trkpt>
      <trkpt lat="46.69358" lon="-2.34795">
        <ele>16.6</ele>
        <time>2018-09-20T11:10:35.000Z</time>
      </trkpt>
      <trkpt lat="46.69358" lon="-2.34795">
        <ele>16.6</ele>
        <time>2018-09-20T11:10:36.000Z</time>
      </trkpt>
      <trkpt lat="46.69359" lon="-2.34795">
        <ele>16.7</ele>
        <time>2018-09-20T11:10:37.000Z</time>
      </trkpt>
      <trkpt lat="46.6936" lon="-2.34795">
        <ele>16.7</ele>
        <time>2018-09-20T11:10:38.000Z</time>
      </trkpt>
      <trkpt lat="46.69361" lon="-2.34795">
        <ele>16.8</ele>
        <time>2018-09-20T11:10:39.000Z</time>
      </trkpt>
      <trkpt lat="46.69361" lon="-2.34795">
        <ele>16.8</ele>
        <time>2018-09-20T11:10:40.000Z</time>
      </trkpt>
      <trkpt lat="46.69362" lon="-2.34795">
        <ele>16.9</ele>
        <time>2018-09-20T11:10:41.000Z</time>
      </trkpt>
      <trkpt lat="46.69363" lon="-2.34795">
        <ele>16.9</ele>
        <time>2018-09-20T11:10:42.000Z</time>
      </trkpt>
      <trkpt lat="46.69364" lon="-2.34795">
        <ele>17</ele>
        <time>2018-09-20T11:10:43.000Z</time>
      </trkpt>
      <trkpt lat="46.69365" lon="-2.34795">
        <ele>17</ele>
        <time>2018-09-20T11:10:44.000Z</time>
      </trkpt>
      <trkpt lat="46.69366" lon="-2.34795">
        <ele>17.1</ele>
        <time>2018-09-20T11:10:45.000Z</time>
      </trkpt>
      <trkpt lat="46.69367" lon="-2.34795">
        <ele>17.1</ele>
        <time>2018-09-20T11:10:46.000Z</time>
      </trkpt>
      <trkpt lat="46.69368" lon="-2.34795">
        <ele>17.2</ele>
        <time>2018-09-20T11:10:47.000Z</time>
      </trkpt>
      <trkpt lat="46.69368" lon="-2.34795">
        <ele>17.3</ele>
        <time>2018-09-20T11:10:48.000Z</time>
      </trkpt>
      <trkpt lat="46.69369" lon="-2.34794">
        <ele>17.3</ele>
        <time>2018-09-20T11:10:49.000Z</time>
      </trkpt>
      <trkpt lat="46.6937" lon="-2.34794">
        <ele>17.4</ele>
        <time>2018-09-20T11:10:50.000Z</time>
      </trkpt>
      <trkpt lat="46.69371" lon="-2.34794">
        <ele>17.5</ele>
        <time>2018-09-20T11:10:51.000Z</time>
      </trkpt>
      <trkpt lat="46.69372" lon="-2.34794">
        <ele>17.5</ele>
        <time>2018-09-20T11:10:52.000Z</time>
      </trkpt>
      <trkpt lat="46.69373" lon="-2.34794">
        <ele>17.6</ele>
        <time>2018-09-20T11:10:53.000Z</time>
      </trkpt>
      <trkpt lat="46.69374" lon="-2.34794">
        <ele>17.7</ele>
        <time>2018-09-20T11:10:54.000Z</time>
      </trkpt>
      <trkpt lat="46.69375" lon="-2.34794">
        <ele>17.7</ele>
        <time>2018-09-20T11:10:55.000Z</time>
      </trkpt>
      <trkpt lat="46.69376" lon="-2.34794">
        <ele>17.8</ele>
        <time>2018-09-20T11:10:56.000Z</time>
      </trkpt>
      <trkpt lat="46.69377" lon="-2.34794">
        <ele>17.8</ele>
        <time>2018-09-20T11:10:57.000Z</time>
      </trkpt>
      <trkpt lat="46.69378" lon="-2.34794">
        <ele>17.9</ele>
        <time>2018-09-20T11:10:58.000Z</time>
      </trkpt>
      <trkpt lat="46.69379" lon="-2.34794">
        <ele>17.9</ele>
        <time>2018-09-20T11:10:59.000Z</time>
      </trkpt>
      <trkpt lat="46.6938" lon="-2.34794">
        <ele>18</ele>
        <time>2018-09-20T11:11:00.000Z</time>
      </trkpt>
      <trkpt lat="46.69381" lon="-2.34793">
        <ele>18</ele>
        <time>2018-09-20T11:11:01.000Z</time>
      </trkpt>
      <trkpt lat="46.69382" lon="-2.34793">
        <ele>18.1</ele>
        <time>2018-09-20T11:11:02.000Z</time>
      </trkpt>
      <trkpt lat="46.69383" lon="-2.34793">
        <ele>18.2</ele>
        <time>2018-09-20T11:11:03.000Z</time>
      </trkpt>
      <trkpt lat="46.69383" lon="-2.34793">
        <ele>18.2</ele>
        <time>2018-09-20T11:11:04.000Z</time>
      </trkpt>
      <trkpt lat="46.69384" lon="-2.34793">
        <ele>18.2</ele>
        <time>2018-09-20T11:11:05.000Z</time>
      </trkpt>
      <trkpt lat="46.69385" lon="-2.34793">
        <ele>18.3</ele>
        <time>2018-09-20T11:11:06.000Z</time>
      </trkpt>
      <trkpt lat="46.69386" lon="-2.34793">
        <ele>18.4</ele>
        <time>2018-09-20T11:11:07.000Z</time>
      </trkpt>
      <trkpt lat="46.69386" lon="-2.34793">
        <ele>18.4</ele>
        <time>2018-09-20T11:11:08.000Z</time>
      </trkpt>
      <trkpt lat="46.69387" lon="-2.34793">
        <ele>18.4</ele>
        <time>2018-09-20T11:11:09.000Z</time>
      </trkpt>
      <trkpt lat="46.69388" lon="-2.34793">
        <ele>18.5</ele>
        <time>2018-09-20T11:11:10.000Z</time>
      </trkpt>
      <trkpt lat="46.69389" lon="-2.34793">
        <ele>18.5</ele>
        <time>2018-09-20T11:11:11.000Z</time>
      </trkpt>
      <trkpt lat="46.69389" lon="-2.34793">
        <ele>18.6</ele>
        <time>2018-09-20T11:11:12.000Z</time>
      </trkpt>
      <trkpt lat="46.6939" lon="-2.34793">
        <ele>18.6</ele>
        <time>2018-09-20T11:11:13.000Z</time>
      </trkpt>
      <trkpt lat="46.69391" lon="-2.34793">
        <ele>18.7</ele>
        <time>2018-09-20T11:11:14.000Z</time>
      </trkpt>
      <trkpt lat="46.69391" lon="-2.34793">
        <ele>18.8</ele>
        <time>2018-09-20T11:11:15.000Z</time>
      </trkpt>
      <trkpt lat="46.69392" lon="-2.34793">
        <ele>18.8</ele>
        <time>2018-09-20T11:11:16.000Z</time>
      </trkpt>
      <trkpt lat="46.69393" lon="-2.34793">
        <ele>18.9</ele>
        <time>2018-09-20T11:11:17.000Z</time>
      </trkpt>
      <trkpt lat="46.69394" lon="-2.34793">
        <ele>18.9</ele>
        <time>2018-09-20T11:11:18.000Z</time>
      </trkpt>
      <trkpt lat="46.69394" lon="-2.34793">
        <ele>19</ele>
        <time>2018-09-20T11:11:19.000Z</time>
      </trkpt>
      <trkpt lat="46.69395" lon="-2.34793">
        <ele>19</ele>
        <time>2018-09-20T11:11:20.000Z</time>
      </trkpt>
      <trkpt lat="46.69396" lon="-2.34793">
        <ele>19.1</ele>
        <time>2018-09-20T11:11:21.000Z</time>
      </trkpt>
      <trkpt lat="46.69397" lon="-2.34793">
        <ele>19.1</ele>
        <time>2018-09-20T11:11:22.000Z</time>
      </trkpt>
      <trkpt lat="46.69398" lon="-2.34793">
        <ele>19.2</ele>
        <time>2018-09-20T11:11:23.000Z</time>
      </trkpt>
      <trkpt lat="46.69399" lon="-2.34792">
        <ele>19.3</ele>
        <time>2018-09-20T11:11:24.000Z</time>
      </trkpt>
      <trkpt lat="46.694" lon="-2.34792">
        <ele>19.3</ele>
        <time>2018-09-20T11:11:25.000Z</time>
      </trkpt>
      <trkpt lat="46.69401" lon="-2.34792">
        <ele>19.3</ele>
        <time>2018-09-20T11:11:26.000Z</time>
      </trkpt>
      <trkpt lat="46.69401" lon="-2.34791">
        <ele>19.4</ele>
        <time>2018-09-20T11:11:27.000Z</time>
      </trkpt>
      <trkpt lat="46.69402" lon="-2.3479">
        <ele>19.4</ele>
        <time>2018-09-20T11:11:28.000Z</time>
      </trkpt>
      <trkpt lat="46.69403" lon="-2.3479">
        <ele>19.4</ele>
        <time>2018-09-20T11:11:29.000Z</time>
      </trkpt>
      <trkpt lat="46.69404" lon="-2.34789">
        <ele>19.4</ele>
        <time>2018-09-20T11:11:30.000Z</time>
      </trkpt>
      <trkpt lat="46.69405" lon="-2.34788">
        <ele>19.4</ele>
        <time>2018-09-20T11:11:31.000Z</time>
      </trkpt>
      <trkpt lat="46.69406" lon="-2.34787">
        <ele>19.4</ele>
        <time>2018-09-20T11:11:32.000Z</time>
      </trkpt>
      <trkpt lat="46.69407" lon="-2.34786">
        <ele>19.4</ele>
        <time>2018-09-20T11:11:33.000Z</time>
      </trkpt>
      <trkpt lat="46.69408" lon="-2.34784">
        <ele>19.4</ele>
        <time>2018-09-20T11:11:34.000Z</time>
      </trkpt>
      <trkpt lat="46.69409" lon="-2.34783">
        <ele>19.4</ele>
        <time>2018-09-20T11:11:35.000Z</time>
      </trkpt>
      <trkpt lat="46.69409" lon="-2.34782">
        <ele>19.3</ele>
        <time>2018-09-20T11:11:36.000Z</time>
      </trkpt>
      <trkpt lat="46.6941" lon="-2.3478">
        <ele>19.3</ele>
        <time>2018-09-20T11:11:37.000Z</time>
      </trkpt>
      <trkpt lat="46.69411" lon="-2.34779">
        <ele>19.2</ele>
        <time>2018-09-20T11:11:38.000Z</time>
      </trkpt>
      <trkpt lat="46.69411" lon="-2.34777">
        <ele>19.2</ele>
        <time>2018-09-20T11:11:39.000Z</time>
      </trkpt>
      <trkpt lat="46.69411" lon="-2.34776">
        <ele>19.1</ele>
        <time>2018-09-20T11:11:40.000Z</time>
      </trkpt>
      <trkpt lat="46.69411" lon="-2.34776">
        <ele>19.1</ele>
        <time>2018-09-20T11:11:41.000Z</time>
      </trkpt>
      <trkpt lat="46.69411" lon="-2.34776">
        <ele>19.1</ele>
        <time>2018-09-20T11:11:42.000Z</time>
      </trkpt>
      <trkpt lat="46.69411" lon="-2.34776">
        <ele>19.1</ele>
        <time>2018-09-20T11:11:43.000Z</time>
      </trkpt>
      <trkpt lat="46.69411" lon="-2.34776">
        <ele>19.1</ele>
        <time>2018-09-20T11:11:44.000Z</time>
      </trkpt>
      <trkpt lat="46.69411" lon="-2.34775">
        <ele>19.1</ele>
        <time>2018-09-20T11:11:45.000Z</time>
      </trkpt>
      <trkpt lat="46.69411" lon="-2.34774">
        <ele>19</ele>
        <time>2018-09-20T11:11:46.000Z</time>
      </trkpt>
      <trkpt lat="46.69412" lon="-2.34773">
        <ele>18.9</ele>
        <time>2018-09-20T11:11:47.000Z</time>
      </trkpt>
      <trkpt lat="46.69412" lon="-2.34771">
        <ele>18.8</ele>
        <time>2018-09-20T11:11:48.000Z</time>
      </trkpt>
      <trkpt lat="46.69412" lon="-2.34769">
        <ele>18.7</ele>
        <time>2018-09-20T11:11:49.000Z</time>
      </trkpt>
      <trkpt lat="46.69412" lon="-2.34767">
        <ele>18.6</ele>
        <time>2018-09-20T11:11:50.000Z</time>
      </trkpt>
      <trkpt lat="46.69412" lon="-2.34766">
        <ele>18.5</ele>
        <time>2018-09-20T11:11:51.000Z</time>
      </trkpt>
      <trkpt lat="46.69412" lon="-2.34764">
        <ele>18.4</ele>
        <time>2018-09-20T11:11:52.000Z</time>
      </trkpt>
      <trkpt lat="46.69412" lon="-2.34763">
        <ele>18.3</ele>
        <time>2018-09-20T11:11:53.000Z</time>
      </trkpt>
      <trkpt lat="46.69412" lon="-2.34761">
        <ele>18.2</ele>
        <time>2018-09-20T11:11:54.000Z</time>
      </trkpt>
      <trkpt lat="46.69412" lon="-2.3476">
        <ele>18.1</ele>
        <time>2018-09-20T11:11:55.000Z</time>
      </trkpt>
      <trkpt lat="46.69411" lon="-2.34759">
        <ele>18</ele>
        <time>2018-09-20T11:11:56.000Z</time>
      </trkpt>
      <trkpt lat="46.69411" lon="-2.34757">
        <ele>17.9</ele>
        <time>2018-09-20T11:11:57.000Z</time>
      </trkpt>
      <trkpt lat="46.69411" lon="-2.34756">
        <ele>17.8</ele>
        <time>2018-09-20T11:11:58.000Z</time>
      </trkpt>
      <trkpt lat="46.69411" lon="-2.34755">
        <ele>17.7</ele>
        <time>2018-09-20T11:11:59.000Z</time>
      </trkpt>
      <trkpt lat="46.69411" lon="-2.34753">
        <ele>17.7</ele>
        <time>2018-09-20T11:12:00.000Z</time>
      </trkpt>
      <trkpt lat="46.69411" lon="-2.34752">
        <ele>17.6</ele>
        <time>2018-09-20T11:12:01.000Z</time>
      </trkpt>
      <trkpt lat="46.69411" lon="-2.3475">
        <ele>17.5</ele>
        <time>2018-09-20T11:12:02.000Z</time>
      </trkpt>
      <trkpt lat="46.69412" lon="-2.34749">
        <ele>17.5</ele>
        <time>2018-09-20T11:12:03.000Z</time>
      </trkpt>
      <trkpt lat="46.69412" lon="-2.34747">
        <ele>17.4</ele>
        <time>2018-09-20T11:12:04.000Z</time>
      </trkpt>
      <trkpt lat="46.69413" lon="-2.34746">
        <ele>17.4</ele>
        <time>2018-09-20T11:12:05.000Z</time>
      </trkpt>
      <trkpt lat="46.69413" lon="-2.34744">
        <ele>17.3</ele>
        <time>2018-09-20T11:12:06.000Z</time>
      </trkpt>
      <trkpt lat="46.69414" lon="-2.34743">
        <ele>17.3</ele>
        <time>2018-09-20T11:12:07.000Z</time>
      </trkpt>
      <trkpt lat="46.69415" lon="-2.34741">
        <ele>17.3</ele>
        <time>2018-09-20T11:12:08.000Z</time>
      </trkpt>
      <trkpt lat="46.69416" lon="-2.3474">
        <ele>17.3</ele>
        <time>2018-09-20T11:12:09.000Z</time>
      </trkpt>
      <trkpt lat="46.69416" lon="-2.34739">
        <ele>17.3</ele>
        <time>2018-09-20T11:12:10.000Z</time>
      </trkpt>
      <trkpt lat="46.69417" lon="-2.34737">
        <ele>17.3</ele>
        <time>2018-09-20T11:12:11.000Z</time>
      </trkpt>
      <trkpt lat="46.69418" lon="-2.34736">
        <ele>17.2</ele>
        <time>2018-09-20T11:12:12.000Z</time>
      </trkpt>
      <trkpt lat="46.69419" lon="-2.34735">
        <ele>17.1</ele>
        <time>2018-09-20T11:12:13.000Z</time>
      </trkpt>
      <trkpt lat="46.6942" lon="-2.34734">
        <ele>17.1</ele>
        <time>2018-09-20T11:12:14.000Z</time>
      </trkpt>
      <trkpt lat="46.69421" lon="-2.34733">
        <ele>17.1</ele>
        <time>2018-09-20T11:12:15.000Z</time>
      </trkpt>
      <trkpt lat="46.69421" lon="-2.34732">
        <ele>17</ele>
        <time>2018-09-20T11:12:16.000Z</time>
      </trkpt>
      <trkpt lat="46.69422" lon="-2.34731">
        <ele>17</ele>
        <time>2018-09-20T11:12:17.000Z</time>
      </trkpt>
      <trkpt lat="46.69423" lon="-2.3473">
        <ele>17</ele>
        <time>2018-09-20T11:12:18.000Z</time>
      </trkpt>
      <trkpt lat="46.69424" lon="-2.34729">
        <ele>16.9</ele>
        <time>2018-09-20T11:12:19.000Z</time>
      </trkpt>
      <trkpt lat="46.69425" lon="-2.34729">
        <ele>16.9</ele>
        <time>2018-09-20T11:12:20.000Z</time>
      </trkpt>
      <trkpt lat="46.69426" lon="-2.34728">
        <ele>16.9</ele>
        <time>2018-09-20T11:12:21.000Z</time>
      </trkpt>
      <trkpt lat="46.69427" lon="-2.34727">
        <ele>16.9</ele>
        <time>2018-09-20T11:12:22.000Z</time>
      </trkpt>
      <trkpt lat="46.69428" lon="-2.34727">
        <ele>16.9</ele>
        <time>2018-09-20T11:12:23.000Z</time>
      </trkpt>
      <trkpt lat="46.69429" lon="-2.34726">
        <ele>16.9</ele>
        <time>2018-09-20T11:12:24.000Z</time>
      </trkpt>
      <trkpt lat="46.6943" lon="-2.34726">
        <ele>16.9</ele>
        <time>2018-09-20T11:12:25.000Z</time>
      </trkpt>
      <trkpt lat="46.69431" lon="-2.34725">
        <ele>16.9</ele>
        <time>2018-09-20T11:12:26.000Z</time>
      </trkpt>
      <trkpt lat="46.69432" lon="-2.34725">
        <ele>16.9</ele>
        <time>2018-09-20T11:12:27.000Z</time>
      </trkpt>
      <trkpt lat="46.69433" lon="-2.34724">
        <ele>16.8</ele>
        <time>2018-09-20T11:12:28.000Z</time>
      </trkpt>
      <trkpt lat="46.69434" lon="-2.34724">
        <ele>16.8</ele>
        <time>2018-09-20T11:12:29.000Z</time>
      </trkpt>
      <trkpt lat="46.69435" lon="-2.34724">
        <ele>16.8</ele>
        <time>2018-09-20T11:12:30.000Z</time>
      </trkpt>
      <trkpt lat="46.69436" lon="-2.34723">
        <ele>16.8</ele>
        <time>2018-09-20T11:12:31.000Z</time>
      </trkpt>
      <trkpt lat="46.69437" lon="-2.34723">
        <ele>16.8</ele>
        <time>2018-09-20T11:12:32.000Z</time>
      </trkpt>
      <trkpt lat="46.69438" lon="-2.34722">
        <ele>16.8</ele>
        <time>2018-09-20T11:12:33.000Z</time>
      </trkpt>
      <trkpt lat="46.69439" lon="-2.34722">
        <ele>16.8</ele>
        <time>2018-09-20T11:12:34.000Z</time>
      </trkpt>
      <trkpt lat="46.6944" lon="-2.34721">
        <ele>16.8</ele>
        <time>2018-09-20T11:12:35.000Z</time>
      </trkpt>
      <trkpt lat="46.69441" lon="-2.34721">
        <ele>16.8</ele>
        <time>2018-09-20T11:12:36.000Z</time>
      </trkpt>
      <trkpt lat="46.69442" lon="-2.3472">
        <ele>16.8</ele>
        <time>2018-09-20T11:12:37.000Z</time>
      </trkpt>
      <trkpt lat="46.69443" lon="-2.34719">
        <ele>16.8</ele>
        <time>2018-09-20T11:12:38.000Z</time>
      </trkpt>
      <trkpt lat="46.69444" lon="-2.34719">
        <ele>16.8</ele>
        <time>2018-09-20T11:12:39.000Z</time>
      </trkpt>
      <trkpt lat="46.69445" lon="-2.34718">
        <ele>16.8</ele>
        <time>2018-09-20T11:12:40.000Z</time>
      </trkpt>
      <trkpt lat="46.69446" lon="-2.34718">
        <ele>16.7</ele>
        <time>2018-09-20T11:12:41.000Z</time>
      </trkpt>
      <trkpt lat="46.69446" lon="-2.34717">
        <ele>16.7</ele>
        <time>2018-09-20T11:12:42.000Z</time>
      </trkpt>
      <trkpt lat="46.69447" lon="-2.34716">
        <ele>16.7</ele>
        <time>2018-09-20T11:12:43.000Z</time>
      </trkpt>
      <trkpt lat="46.69448" lon="-2.34716">
        <ele>16.7</ele>
        <time>2018-09-20T11:12:44.000Z</time>
      </trkpt>
      <trkpt lat="46.69449" lon="-2.34715">
        <ele>16.7</ele>
        <time>2018-09-20T11:12:45.000Z</time>
      </trkpt>
      <trkpt lat="46.6945" lon="-2.34714">
        <ele>16.7</ele>
        <time>2018-09-20T11:12:46.000Z</time>
      </trkpt>
      <trkpt lat="46.69451" lon="-2.34714">
        <ele>16.6</ele>
        <time>2018-09-20T11:12:47.000Z</time>
      </trkpt>
      <trkpt lat="46.69452" lon="-2.34713">
        <ele>16.6</ele>
        <time>2018-09-20T11:12:48.000Z</time>
      </trkpt>
      <trkpt lat="46.69453" lon="-2.34712">
        <ele>16.6</ele>
        <time>2018-09-20T11:12:49.000Z</time>
      </trkpt>
      <trkpt lat="46.69454" lon="-2.34712">
        <ele>16.6</ele>
        <time>2018-09-20T11:12:50.000Z</time>
      </trkpt>
      <trkpt lat="46.69455" lon="-2.34711">
        <ele>16.6</ele>
        <time>2018-09-20T11:12:51.000Z</time>
      </trkpt>
      <trkpt lat="46.69456" lon="-2.34711">
        <ele>16.6</ele>
        <time>2018-09-20T11:12:52.000Z</time>
      </trkpt>
      <trkpt lat="46.69457" lon="-2.3471">
        <ele>16.6</ele>
        <time>2018-09-20T11:12:53.000Z</time>
      </trkpt>
      <trkpt lat="46.69458" lon="-2.34709">
        <ele>16.6</ele>
        <time>2018-09-20T11:12:54.000Z</time>
      </trkpt>
      <trkpt lat="46.69459" lon="-2.34709">
        <ele>16.5</ele>
        <time>2018-09-20T11:12:55.000Z</time>
      </trkpt>
      <trkpt lat="46.6946" lon="-2.34708">
        <ele>16.5</ele>
        <time>2018-09-20T11:12:56.000Z</time>
      </trkpt>
      <trkpt lat="46.69461" lon="-2.34708">
        <ele>16.5</ele>
        <time>2018-09-20T11:12:57.000Z</time>
      </trkpt>
      <trkpt lat="46.69462" lon="-2.34707">
        <ele>16.5</ele>
        <time>2018-09-20T11:12:58.000Z</time>
      </trkpt>
      <trkpt lat="46.69463" lon="-2.34707">
        <ele>16.5</ele>
        <time>2018-09-20T11:12:59.000Z</time>
      </trkpt>
      <trkpt lat="46.69464" lon="-2.34706">
        <ele>16.5</ele>
        <time>2018-09-20T11:13:00.000Z</time>
      </trkpt>
      <trkpt lat="46.69465" lon="-2.34706">
        <ele>16.5</ele>
        <time>2018-09-20T11:13:01.000Z</time>
      </trkpt>
      <trkpt lat="46.69466" lon="-2.34705">
        <ele>16.5</ele>
        <time>2018-09-20T11:13:02.000Z</time>
      </trkpt>
      <trkpt lat="46.69467" lon="-2.34705">
        <ele>16.5</ele>
        <time>2018-09-20T11:13:03.000Z</time>
      </trkpt>
      <trkpt lat="46.69468" lon="-2.34705">
        <ele>16.5</ele>
        <time>2018-09-20T11:13:04.000Z</time>
      </trkpt>
      <trkpt lat="46.69469" lon="-2.34704">
        <ele>16.5</ele>
        <time>2018-09-20T11:13:05.000Z</time>
      </trkpt>
      <trkpt lat="46.6947" lon="-2.34704">
        <ele>16.5</ele>
        <time>2018-09-20T11:13:06.000Z</time>
      </trkpt>
      <trkpt lat="46.69471" lon="-2.34703">
        <ele>16.5</ele>
        <time>2018-09-20T11:13:07.000Z</time>
      </trkpt>
      <trkpt lat="46.69472" lon="-2.34703">
        <ele>16.5</ele>
        <time>2018-09-20T11:13:08.000Z</time>
      </trkpt>
      <trkpt lat="46.69473" lon="-2.34702">
        <ele>16.5</ele>
        <time>2018-09-20T11:13:09.000Z</time>
      </trkpt>
      <trkpt lat="46.69475" lon="-2.34702">
        <ele>16.5</ele>
        <time>2018-09-20T11:13:10.000Z</time>
      </trkpt>
      <trkpt lat="46.69476" lon="-2.34702">
        <ele>16.5</ele>
        <time>2018-09-20T11:13:11.000Z</time>
      </trkpt>
      <trkpt lat="46.69477" lon="-2.34701">
        <ele>16.5</ele>
        <time>2018-09-20T11:13:12.000Z</time>
      </trkpt>
      <trkpt lat="46.69478" lon="-2.34701">
        <ele>16.5</ele>
        <time>2018-09-20T11:13:13.000Z</time>
      </trkpt>
      <trkpt lat="46.69479" lon="-2.347">
        <ele>16.5</ele>
        <time>2018-09-20T11:13:14.000Z</time>
      </trkpt>
      <trkpt lat="46.6948" lon="-2.347">
        <ele>16.5</ele>
        <time>2018-09-20T11:13:15.000Z</time>
      </trkpt>
      <trkpt lat="46.69481" lon="-2.34699">
        <ele>16.5</ele>
        <time>2018-09-20T11:13:16.000Z</time>
      </trkpt>
      <trkpt lat="46.69482" lon="-2.34699">
        <ele>16.5</ele>
        <time>2018-09-20T11:13:17.000Z</time>
      </trkpt>
      <trkpt lat="46.69483" lon="-2.34698">
        <ele>16.5</ele>
        <time>2018-09-20T11:13:18.000Z</time>
      </trkpt>
      <trkpt lat="46.69484" lon="-2.34698">
        <ele>16.5</ele>
        <time>2018-09-20T11:13:19.000Z</time>
      </trkpt>
      <trkpt lat="46.69485" lon="-2.34698">
        <ele>16.5</ele>
        <time>2018-09-20T11:13:20.000Z</time>
      </trkpt>
      <trkpt lat="46.69486" lon="-2.34697">
        <ele>16.5</ele>
        <time>2018-09-20T11:13:21.000Z</time>
      </trkpt>
      <trkpt lat="46.69487" lon="-2.34697">
        <ele>16.5</ele>
        <time>2018-09-20T11:13:22.000Z</time>
      </trkpt>
      <trkpt lat="46.69487" lon="-2.34697">
        <ele>16.5</ele>
        <time>2018-09-20T11:13:23.000Z</time>
      </trkpt>
      <trkpt lat="46.69488" lon="-2.34697">
        <ele>16.5</ele>
        <time>2018-09-20T11:13:24.000Z</time>
      </trkpt>
      <trkpt lat="46.69489" lon="-2.34696">
        <ele>16.5</ele>
        <time>2018-09-20T11:13:25.000Z</time>
      </trkpt>
      <trkpt lat="46.69489" lon="-2.34696">
        <ele>16.5</ele>
        <time>2018-09-20T11:13:26.000Z</time>
      </trkpt>
      <trkpt lat="46.6949" lon="-2.34696">
        <ele>16.5</ele>
        <time>2018-09-20T11:13:27.000Z</time>
      </trkpt>
      <trkpt lat="46.69491" lon="-2.34696">
        <ele>16.5</ele>
        <time>2018-09-20T11:13:28.000Z</time>
      </trkpt>
      <trkpt lat="46.69491" lon="-2.34695">
        <ele>16.5</ele>
        <time>2018-09-20T11:13:29.000Z</time>
      </trkpt>
      <trkpt lat="46.69492" lon="-2.34695">
        <ele>16.5</ele>
        <time>2018-09-20T11:13:30.000Z</time>
      </trkpt>
      <trkpt lat="46.69493" lon="-2.34694">
        <ele>16.5</ele>
        <time>2018-09-20T11:13:31.000Z</time>
      </trkpt>
      <trkpt lat="46.69494" lon="-2.34694">
        <ele>16.5</ele>
        <time>2018-09-20T11:13:32.000Z</time>
      </trkpt>
      <trkpt lat="46.69495" lon="-2.34694">
        <ele>16.5</ele>
        <time>2018-09-20T11:13:33.000Z</time>
      </trkpt>
      <trkpt lat="46.69495" lon="-2.34693">
        <ele>16.5</ele>
        <time>2018-09-20T11:13:34.000Z</time>
      </trkpt>
      <trkpt lat="46.69496" lon="-2.34693">
        <ele>16.5</ele>
        <time>2018-09-20T11:13:35.000Z</time>
      </trkpt>
      <trkpt lat="46.69497" lon="-2.34693">
        <ele>16.5</ele>
        <time>2018-09-20T11:13:36.000Z</time>
      </trkpt>
      <trkpt lat="46.69498" lon="-2.34692">
        <ele>16.5</ele>
        <time>2018-09-20T11:13:37.000Z</time>
      </trkpt>
      <trkpt lat="46.69499" lon="-2.34692">
        <ele>16.5</ele>
        <time>2018-09-20T11:13:38.000Z</time>
      </trkpt>
      <trkpt lat="46.695" lon="-2.34692">
        <ele>16.5</ele>
        <time>2018-09-20T11:13:39.000Z</time>
      </trkpt>
      <trkpt lat="46.69501" lon="-2.34692">
        <ele>16.5</ele>
        <time>2018-09-20T11:13:40.000Z</time>
      </trkpt>
      <trkpt lat="46.69502" lon="-2.34693">
        <ele>16.5</ele>
        <time>2018-09-20T11:13:41.000Z</time>
      </trkpt>
      <trkpt lat="46.69503" lon="-2.34693">
        <ele>16.5</ele>
        <time>2018-09-20T11:13:42.000Z</time>
      </trkpt>
      <trkpt lat="46.69503" lon="-2.34693">
        <ele>16.6</ele>
        <time>2018-09-20T11:13:43.000Z</time>
      </trkpt>
      <trkpt lat="46.69504" lon="-2.34694">
        <ele>16.6</ele>
        <time>2018-09-20T11:13:44.000Z</time>
      </trkpt>
      <trkpt lat="46.69505" lon="-2.34694">
        <ele>16.6</ele>
        <time>2018-09-20T11:13:45.000Z</time>
      </trkpt>
      <trkpt lat="46.69506" lon="-2.34695">
        <ele>16.6</ele>
        <time>2018-09-20T11:13:46.000Z</time>
      </trkpt>
      <trkpt lat="46.69507" lon="-2.34695">
        <ele>16.6</ele>
        <time>2018-09-20T11:13:47.000Z</time>
      </trkpt>
      <trkpt lat="46.69507" lon="-2.34696">
        <ele>16.7</ele>
        <time>2018-09-20T11:13:48.000Z</time>
      </trkpt>
      <trkpt lat="46.69508" lon="-2.34696">
        <ele>16.7</ele>
        <time>2018-09-20T11:13:49.000Z</time>
      </trkpt>
      <trkpt lat="46.69509" lon="-2.34697">
        <ele>16.7</ele>
        <time>2018-09-20T11:13:50.000Z</time>
      </trkpt>
      <trkpt lat="46.6951" lon="-2.34697">
        <ele>16.8</ele>
        <time>2018-09-20T11:13:51.000Z</time>
      </trkpt>
      <trkpt lat="46.6951" lon="-2.34698">
        <ele>16.8</ele>
        <time>2018-09-20T11:13:52.000Z</time>
      </trkpt>
      <trkpt lat="46.69511" lon="-2.34698">
        <ele>16.8</ele>
        <time>2018-09-20T11:13:53.000Z</time>
      </trkpt>
      <trkpt lat="46.69512" lon="-2.34699">
        <ele>16.8</ele>
        <time>2018-09-20T11:13:54.000Z</time>
      </trkpt>
      <trkpt lat="46.69513" lon="-2.34699">
        <ele>16.9</ele>
        <time>2018-09-20T11:13:55.000Z</time>
      </trkpt>
      <trkpt lat="46.69513" lon="-2.34699">
        <ele>16.9</ele>
        <time>2018-09-20T11:13:56.000Z</time>
      </trkpt>
      <trkpt lat="46.69514" lon="-2.347">
        <ele>16.9</ele>
        <time>2018-09-20T11:13:57.000Z</time>
      </trkpt>
      <trkpt lat="46.69515" lon="-2.347">
        <ele>16.9</ele>
        <time>2018-09-20T11:13:58.000Z</time>
      </trkpt>
      <trkpt lat="46.69516" lon="-2.347">
        <ele>16.9</ele>
        <time>2018-09-20T11:13:59.000Z</time>
      </trkpt>
      <trkpt lat="46.69516" lon="-2.347">
        <ele>16.9</ele>
        <time>2018-09-20T11:14:00.000Z</time>
      </trkpt>
      <trkpt lat="46.69517" lon="-2.34699">
        <ele>16.8</ele>
        <time>2018-09-20T11:14:01.000Z</time>
      </trkpt>
      <trkpt lat="46.69518" lon="-2.34699">
        <ele>16.8</ele>
        <time>2018-09-20T11:14:02.000Z</time>
      </trkpt>
      <trkpt lat="46.69519" lon="-2.34699">
        <ele>16.8</ele>
        <time>2018-09-20T11:14:03.000Z</time>
      </trkpt>
      <trkpt lat="46.6952" lon="-2.34699">
        <ele>16.8</ele>
        <time>2018-09-20T11:14:04.000Z</time>
      </trkpt>
      <trkpt lat="46.69521" lon="-2.34699">
        <ele>16.8</ele>
        <time>2018-09-20T11:14:05.000Z</time>
      </trkpt>
      <trkpt lat="46.69522" lon="-2.347">
        <ele>16.8</ele>
        <time>2018-09-20T11:14:06.000Z</time>
      </trkpt>
      <trkpt lat="46.69523" lon="-2.347">
        <ele>16.8</ele>
        <time>2018-09-20T11:14:07.000Z</time>
      </trkpt>
      <trkpt lat="46.69524" lon="-2.34701">
        <ele>16.9</ele>
        <time>2018-09-20T11:14:08.000Z</time>
      </trkpt>
      <trkpt lat="46.69525" lon="-2.34701">
        <ele>16.9</ele>
        <time>2018-09-20T11:14:09.000Z</time>
      </trkpt>
      <trkpt lat="46.69526" lon="-2.34702">
        <ele>16.9</ele>
        <time>2018-09-20T11:14:10.000Z</time>
      </trkpt>
      <trkpt lat="46.69527" lon="-2.34702">
        <ele>16.9</ele>
        <time>2018-09-20T11:14:11.000Z</time>
      </trkpt>
      <trkpt lat="46.69528" lon="-2.34702">
        <ele>16.9</ele>
        <time>2018-09-20T11:14:12.000Z</time>
      </trkpt>
      <trkpt lat="46.69529" lon="-2.34702">
        <ele>16.9</ele>
        <time>2018-09-20T11:14:13.000Z</time>
      </trkpt>
      <trkpt lat="46.6953" lon="-2.34702">
        <ele>16.9</ele>
        <time>2018-09-20T11:14:14.000Z</time>
      </trkpt>
      <trkpt lat="46.69531" lon="-2.34702">
        <ele>16.9</ele>
        <time>2018-09-20T11:14:15.000Z</time>
      </trkpt>
      <trkpt lat="46.69532" lon="-2.34702">
        <ele>16.9</ele>
        <time>2018-09-20T11:14:16.000Z</time>
      </trkpt>
      <trkpt lat="46.69533" lon="-2.34701">
        <ele>16.8</ele>
        <time>2018-09-20T11:14:17.000Z</time>
      </trkpt>
      <trkpt lat="46.69534" lon="-2.34701">
        <ele>16.8</ele>
        <time>2018-09-20T11:14:18.000Z</time>
      </trkpt>
      <trkpt lat="46.69535" lon="-2.347">
        <ele>16.8</ele>
        <time>2018-09-20T11:14:19.000Z</time>
      </trkpt>
      <trkpt lat="46.69536" lon="-2.347">
        <ele>16.7</ele>
        <time>2018-09-20T11:14:20.000Z</time>
      </trkpt>
      <trkpt lat="46.69537" lon="-2.34699">
        <ele>16.7</ele>
        <time>2018-09-20T11:14:21.000Z</time>
      </trkpt>
      <trkpt lat="46.69538" lon="-2.34699">
        <ele>16.6</ele>
        <time>2018-09-20T11:14:22.000Z</time>
      </trkpt>
      <trkpt lat="46.69539" lon="-2.34698">
        <ele>16.6</ele>
        <time>2018-09-20T11:14:23.000Z</time>
      </trkpt>
      <trkpt lat="46.6954" lon="-2.34697">
        <ele>16.5</ele>
        <time>2018-09-20T11:14:24.000Z</time>
      </trkpt>
      <trkpt lat="46.69541" lon="-2.34697">
        <ele>16.5</ele>
        <time>2018-09-20T11:14:25.000Z</time>
      </trkpt>
      <trkpt lat="46.69542" lon="-2.34696">
        <ele>16.4</ele>
        <time>2018-09-20T11:14:26.000Z</time>
      </trkpt>
      <trkpt lat="46.69543" lon="-2.34695">
        <ele>16.4</ele>
        <time>2018-09-20T11:14:27.000Z</time>
      </trkpt>
      <trkpt lat="46.69544" lon="-2.34695">
        <ele>16.3</ele>
        <time>2018-09-20T11:14:28.000Z</time>
      </trkpt>
      <trkpt lat="46.69545" lon="-2.34694">
        <ele>16.3</ele>
        <time>2018-09-20T11:14:29.000Z</time>
      </trkpt>
      <trkpt lat="46.69545" lon="-2.34693">
        <ele>16.2</ele>
        <time>2018-09-20T11:14:30.000Z</time>
      </trkpt>
      <trkpt lat="46.69546" lon="-2.34692">
        <ele>16.1</ele>
        <time>2018-09-20T11:14:31.000Z</time>
      </trkpt>
      <trkpt lat="46.69547" lon="-2.34691">
        <ele>16.1</ele>
        <time>2018-09-20T11:14:32.000Z</time>
      </trkpt>
      <trkpt lat="46.69547" lon="-2.34691">
        <ele>16</ele>
        <time>2018-09-20T11:14:33.000Z</time>
      </trkpt>
      <trkpt lat="46.69548" lon="-2.3469">
        <ele>16</ele>
        <time>2018-09-20T11:14:34.000Z</time>
      </trkpt>
      <trkpt lat="46.69548" lon="-2.34689">
        <ele>15.9</ele>
        <time>2018-09-20T11:14:35.000Z</time>
      </trkpt>
      <trkpt lat="46.69549" lon="-2.34688">
        <ele>15.8</ele>
        <time>2018-09-20T11:14:36.000Z</time>
      </trkpt>
      <trkpt lat="46.69549" lon="-2.34687">
        <ele>15.8</ele>
        <time>2018-09-20T11:14:37.000Z</time>
      </trkpt>
      <trkpt lat="46.6955" lon="-2.34686">
        <ele>15.7</ele>
        <time>2018-09-20T11:14:38.000Z</time>
      </trkpt>
      <trkpt lat="46.6955" lon="-2.34685">
        <ele>15.6</ele>
        <time>2018-09-20T11:14:39.000Z</time>
      </trkpt>
      <trkpt lat="46.6955" lon="-2.34684">
        <ele>15.5</ele>
        <time>2018-09-20T11:14:40.000Z</time>
      </trkpt>
      <trkpt lat="46.6955" lon="-2.34683">
        <ele>15.5</ele>
        <time>2018-09-20T11:14:41.000Z</time>
      </trkpt>
      <trkpt lat="46.6955" lon="-2.34682">
        <ele>15.4</ele>
        <time>2018-09-20T11:14:42.000Z</time>
      </trkpt>
      <trkpt lat="46.6955" lon="-2.34681">
        <ele>15.3</ele>
        <time>2018-09-20T11:14:43.000Z</time>
      </trkpt>
      <trkpt lat="46.6955" lon="-2.3468">
        <ele>15.3</ele>
        <time>2018-09-20T11:14:44.000Z</time>
      </trkpt>
      <trkpt lat="46.6955" lon="-2.34679">
        <ele>15.2</ele>
        <time>2018-09-20T11:14:45.000Z</time>
      </trkpt>
      <trkpt lat="46.69549" lon="-2.34678">
        <ele>15.1</ele>
        <time>2018-09-20T11:14:46.000Z</time>
      </trkpt>
      <trkpt lat="46.69549" lon="-2.34677">
        <ele>15.1</ele>
        <time>2018-09-20T11:14:47.000Z</time>
      </trkpt>
      <trkpt lat="46.69549" lon="-2.34675">
        <ele>15</ele>
        <time>2018-09-20T11:14:48.000Z</time>
      </trkpt>
      <trkpt lat="46.69549" lon="-2.34674">
        <ele>14.9</ele>
        <time>2018-09-20T11:14:49.000Z</time>
      </trkpt>
      <trkpt lat="46.69548" lon="-2.34673">
        <ele>14.9</ele>
        <time>2018-09-20T11:14:50.000Z</time>
      </trkpt>
      <trkpt lat="46.69548" lon="-2.34672">
        <ele>14.8</ele>
        <time>2018-09-20T11:14:51.000Z</time>
      </trkpt>
      <trkpt lat="46.69548" lon="-2.34671">
        <ele>14.7</ele>
        <time>2018-09-20T11:14:52.000Z</time>
      </trkpt>
      <trkpt lat="46.69548" lon="-2.3467">
        <ele>14.7</ele>
        <time>2018-09-20T11:14:53.000Z</time>
      </trkpt>
      <trkpt lat="46.69548" lon="-2.34669">
        <ele>14.6</ele>
        <time>2018-09-20T11:14:54.000Z</time>
      </trkpt>
      <trkpt lat="46.69549" lon="-2.34668">
        <ele>14.5</ele>
        <time>2018-09-20T11:14:55.000Z</time>
      </trkpt>
      <trkpt lat="46.69549" lon="-2.34667">
        <ele>14.4</ele>
        <time>2018-09-20T11:14:56.000Z</time>
      </trkpt>
      <trkpt lat="46.69549" lon="-2.34666">
        <ele>14.4</ele>
        <time>2018-09-20T11:14:57.000Z</time>
      </trkpt>
      <trkpt lat="46.6955" lon="-2.34665">
        <ele>14.3</ele>
        <time>2018-09-20T11:14:58.000Z</time>
      </trkpt>
      <trkpt lat="46.6955" lon="-2.34664">
        <ele>14.2</ele>
        <time>2018-09-20T11:14:59.000Z</time>
      </trkpt>
      <trkpt lat="46.6955" lon="-2.34663">
        <ele>14.2</ele>
        <time>2018-09-20T11:15:00.000Z</time>
      </trkpt>
      <trkpt lat="46.69551" lon="-2.34662">
        <ele>14.1</ele>
        <time>2018-09-20T11:15:01.000Z</time>
      </trkpt>
      <trkpt lat="46.69551" lon="-2.34661">
        <ele>14</ele>
        <time>2018-09-20T11:15:02.000Z</time>
      </trkpt>
      <trkpt lat="46.69552" lon="-2.3466">
        <ele>13.9</ele>
        <time>2018-09-20T11:15:03.000Z</time>
      </trkpt>
      <trkpt lat="46.69552" lon="-2.3466">
        <ele>13.9</ele>
        <time>2018-09-20T11:15:04.000Z</time>
      </trkpt>
      <trkpt lat="46.69552" lon="-2.34659">
        <ele>13.8</ele>
        <time>2018-09-20T11:15:05.000Z</time>
      </trkpt>
      <trkpt lat="46.69552" lon="-2.34658">
        <ele>13.7</ele>
        <time>2018-09-20T11:15:06.000Z</time>
      </trkpt>
      <trkpt lat="46.69552" lon="-2.34657">
        <ele>13.7</ele>
        <time>2018-09-20T11:15:07.000Z</time>
      </trkpt>
      <trkpt lat="46.69553" lon="-2.34656">
        <ele>13.6</ele>
        <time>2018-09-20T11:15:08.000Z</time>
      </trkpt>
      <trkpt lat="46.69553" lon="-2.34655">
        <ele>13.6</ele>
        <time>2018-09-20T11:15:09.000Z</time>
      </trkpt>
      <trkpt lat="46.69553" lon="-2.34654">
        <ele>13.5</ele>
        <time>2018-09-20T11:15:10.000Z</time>
      </trkpt>
      <trkpt lat="46.69553" lon="-2.34653">
        <ele>13.4</ele>
        <time>2018-09-20T11:15:11.000Z</time>
      </trkpt>
      <trkpt lat="46.69553" lon="-2.34652">
        <ele>13.4</ele>
        <time>2018-09-20T11:15:12.000Z</time>
      </trkpt>
      <trkpt lat="46.69553" lon="-2.34651">
        <ele>13.3</ele>
        <time>2018-09-20T11:15:13.000Z</time>
      </trkpt>
      <trkpt lat="46.69553" lon="-2.3465">
        <ele>13.2</ele>
        <time>2018-09-20T11:15:14.000Z</time>
      </trkpt>
      <trkpt lat="46.69553" lon="-2.34649">
        <ele>13.2</ele>
        <time>2018-09-20T11:15:15.000Z</time>
      </trkpt>
      <trkpt lat="46.69553" lon="-2.34648">
        <ele>13.1</ele>
        <time>2018-09-20T11:15:16.000Z</time>
      </trkpt>
      <trkpt lat="46.69554" lon="-2.34647">
        <ele>13</ele>
        <time>2018-09-20T11:15:17.000Z</time>
      </trkpt>
      <trkpt lat="46.69554" lon="-2.34646">
        <ele>13</ele>
        <time>2018-09-20T11:15:18.000Z</time>
      </trkpt>
      <trkpt lat="46.69554" lon="-2.34645">
        <ele>12.9</ele>
        <time>2018-09-20T11:15:19.000Z</time>
      </trkpt>
      <trkpt lat="46.69554" lon="-2.34644">
        <ele>12.8</ele>
        <time>2018-09-20T11:15:20.000Z</time>
      </trkpt>
      <trkpt lat="46.69554" lon="-2.34644">
        <ele>12.8</ele>
        <time>2018-09-20T11:15:21.000Z</time>
      </trkpt>
      <trkpt lat="46.69554" lon="-2.34643">
        <ele>12.7</ele>
        <time>2018-09-20T11:15:22.000Z</time>
      </trkpt>
      <trkpt lat="46.69554" lon="-2.34642">
        <ele>12.6</ele>
        <time>2018-09-20T11:15:23.000Z</time>
      </trkpt>
      <trkpt lat="46.69554" lon="-2.34641">
        <ele>12.6</ele>
        <time>2018-09-20T11:15:24.000Z</time>
      </trkpt>
      <trkpt lat="46.69554" lon="-2.3464">
        <ele>12.5</ele>
        <time>2018-09-20T11:15:25.000Z</time>
      </trkpt>
      <trkpt lat="46.69554" lon="-2.34639">
        <ele>12.5</ele>
        <time>2018-09-20T11:15:26.000Z</time>
      </trkpt>
      <trkpt lat="46.69554" lon="-2.34639">
        <ele>12.4</ele>
        <time>2018-09-20T11:15:27.000Z</time>
      </trkpt>
      <trkpt lat="46.69554" lon="-2.34638">
        <ele>12.4</ele>
        <time>2018-09-20T11:15:28.000Z</time>
      </trkpt>
      <trkpt lat="46.69554" lon="-2.34637">
        <ele>12.3</ele>
        <time>2018-09-20T11:15:29.000Z</time>
      </trkpt>
      <trkpt lat="46.69554" lon="-2.34637">
        <ele>12.3</ele>
        <time>2018-09-20T11:15:30.000Z</time>
      </trkpt>
      <trkpt lat="46.69555" lon="-2.34636">
        <ele>12.3</ele>
        <time>2018-09-20T11:15:31.000Z</time>
      </trkpt>
      <trkpt lat="46.69555" lon="-2.34635">
        <ele>12.2</ele>
        <time>2018-09-20T11:15:32.000Z</time>
      </trkpt>
      <trkpt lat="46.69555" lon="-2.34635">
        <ele>12.1</ele>
        <time>2018-09-20T11:15:33.000Z</time>
      </trkpt>
      <trkpt lat="46.69555" lon="-2.34634">
        <ele>12.1</ele>
        <time>2018-09-20T11:15:34.000Z</time>
      </trkpt>
      <trkpt lat="46.69555" lon="-2.34633">
        <ele>12</ele>
        <time>2018-09-20T11:15:35.000Z</time>
      </trkpt>
      <trkpt lat="46.69555" lon="-2.34632">
        <ele>12</ele>
        <time>2018-09-20T11:15:36.000Z</time>
      </trkpt>
      <trkpt lat="46.69555" lon="-2.34631">
        <ele>11.9</ele>
        <time>2018-09-20T11:15:37.000Z</time>
      </trkpt>
      <trkpt lat="46.69555" lon="-2.3463">
        <ele>11.8</ele>
        <time>2018-09-20T11:15:38.000Z</time>
      </trkpt>
      <trkpt lat="46.69556" lon="-2.34629">
        <ele>11.7</ele>
        <time>2018-09-20T11:15:39.000Z</time>
      </trkpt>
      <trkpt lat="46.69556" lon="-2.34627">
        <ele>11.7</ele>
        <time>2018-09-20T11:15:40.000Z</time>
      </trkpt>
      <trkpt lat="46.69556" lon="-2.34626">
        <ele>11.6</ele>
        <time>2018-09-20T11:15:41.000Z</time>
      </trkpt>
      <trkpt lat="46.69557" lon="-2.34625">
        <ele>11.5</ele>
        <time>2018-09-20T11:15:42.000Z</time>
      </trkpt>
      <trkpt lat="46.69557" lon="-2.34624">
        <ele>11.4</ele>
        <time>2018-09-20T11:15:43.000Z</time>
      </trkpt>
      <trkpt lat="46.69558" lon="-2.34623">
        <ele>11.3</ele>
        <time>2018-09-20T11:15:44.000Z</time>
      </trkpt>
      <trkpt lat="46.69558" lon="-2.34622">
        <ele>11.3</ele>
        <time>2018-09-20T11:15:45.000Z</time>
      </trkpt>
      <trkpt lat="46.69559" lon="-2.34621">
        <ele>11.2</ele>
        <time>2018-09-20T11:15:46.000Z</time>
      </trkpt>
      <trkpt lat="46.69559" lon="-2.3462">
        <ele>11.2</ele>
        <time>2018-09-20T11:15:47.000Z</time>
      </trkpt>
      <trkpt lat="46.6956" lon="-2.34619">
        <ele>11.1</ele>
        <time>2018-09-20T11:15:48.000Z</time>
      </trkpt>
      <trkpt lat="46.69561" lon="-2.34618">
        <ele>11.1</ele>
        <time>2018-09-20T11:15:49.000Z</time>
      </trkpt>
      <trkpt lat="46.69561" lon="-2.34618">
        <ele>11</ele>
        <time>2018-09-20T11:15:50.000Z</time>
      </trkpt>
      <trkpt lat="46.69562" lon="-2.34617">
        <ele>11</ele>
        <time>2018-09-20T11:15:51.000Z</time>
      </trkpt>
      <trkpt lat="46.69562" lon="-2.34617">
        <ele>11</ele>
        <time>2018-09-20T11:15:52.000Z</time>
      </trkpt>
      <trkpt lat="46.69563" lon="-2.34616">
        <ele>10.9</ele>
        <time>2018-09-20T11:15:53.000Z</time>
      </trkpt>
      <trkpt lat="46.69564" lon="-2.34616">
        <ele>10.9</ele>
        <time>2018-09-20T11:15:54.000Z</time>
      </trkpt>
      <trkpt lat="46.69564" lon="-2.34615">
        <ele>10.9</ele>
        <time>2018-09-20T11:15:55.000Z</time>
      </trkpt>
      <trkpt lat="46.69564" lon="-2.34615">
        <ele>10.8</ele>
        <time>2018-09-20T11:15:56.000Z</time>
      </trkpt>
      <trkpt lat="46.69565" lon="-2.34614">
        <ele>10.8</ele>
        <time>2018-09-20T11:15:57.000Z</time>
      </trkpt>
      <trkpt lat="46.69565" lon="-2.34613">
        <ele>10.7</ele>
        <time>2018-09-20T11:15:58.000Z</time>
      </trkpt>
      <trkpt lat="46.69565" lon="-2.34612">
        <ele>10.7</ele>
        <time>2018-09-20T11:15:59.000Z</time>
      </trkpt>
      <trkpt lat="46.69565" lon="-2.34611">
        <ele>10.6</ele>
        <time>2018-09-20T11:16:00.000Z</time>
      </trkpt>
      <trkpt lat="46.69565" lon="-2.3461">
        <ele>10.5</ele>
        <time>2018-09-20T11:16:01.000Z</time>
      </trkpt>
      <trkpt lat="46.69565" lon="-2.34609">
        <ele>10.5</ele>
        <time>2018-09-20T11:16:02.000Z</time>
      </trkpt>
      <trkpt lat="46.69565" lon="-2.34608">
        <ele>10.4</ele>
        <time>2018-09-20T11:16:03.000Z</time>
      </trkpt>
      <trkpt lat="46.69565" lon="-2.34607">
        <ele>10.4</ele>
        <time>2018-09-20T11:16:04.000Z</time>
      </trkpt>
      <trkpt lat="46.69565" lon="-2.34606">
        <ele>10.3</ele>
        <time>2018-09-20T11:16:05.000Z</time>
      </trkpt>
      <trkpt lat="46.69566" lon="-2.34606">
        <ele>10.2</ele>
        <time>2018-09-20T11:16:06.000Z</time>
      </trkpt>
      <trkpt lat="46.69566" lon="-2.34605">
        <ele>10.2</ele>
        <time>2018-09-20T11:16:07.000Z</time>
      </trkpt>
      <trkpt lat="46.69566" lon="-2.34604">
        <ele>10.1</ele>
        <time>2018-09-20T11:16:08.000Z</time>
      </trkpt>
      <trkpt lat="46.69566" lon="-2.34603">
        <ele>10.1</ele>
        <time>2018-09-20T11:16:09.000Z</time>
      </trkpt>
      <trkpt lat="46.69567" lon="-2.34603">
        <ele>10</ele>
        <time>2018-09-20T11:16:10.000Z</time>
      </trkpt>
      <trkpt lat="46.69567" lon="-2.34602">
        <ele>10</ele>
        <time>2018-09-20T11:16:11.000Z</time>
      </trkpt>
      <trkpt lat="46.69567" lon="-2.34602">
        <ele>10</ele>
        <time>2018-09-20T11:16:12.000Z</time>
      </trkpt>
      <trkpt lat="46.69568" lon="-2.34601">
        <ele>9.9</ele>
        <time>2018-09-20T11:16:13.000Z</time>
      </trkpt>
      <trkpt lat="46.69568" lon="-2.346">
        <ele>9.9</ele>
        <time>2018-09-20T11:16:14.000Z</time>
      </trkpt>
      <trkpt lat="46.69569" lon="-2.346">
        <ele>9.9</ele>
        <time>2018-09-20T11:16:15.000Z</time>
      </trkpt>
      <trkpt lat="46.69569" lon="-2.34599">
        <ele>9.8</ele>
        <time>2018-09-20T11:16:16.000Z</time>
      </trkpt>
      <trkpt lat="46.69569" lon="-2.34598">
        <ele>9.8</ele>
        <time>2018-09-20T11:16:17.000Z</time>
      </trkpt>
      <trkpt lat="46.6957" lon="-2.34598">
        <ele>9.8</ele>
        <time>2018-09-20T11:16:18.000Z</time>
      </trkpt>
      <trkpt lat="46.6957" lon="-2.34597">
        <ele>9.7</ele>
        <time>2018-09-20T11:16:19.000Z</time>
      </trkpt>
      <trkpt lat="46.6957" lon="-2.34597">
        <ele>9.7</ele>
        <time>2018-09-20T11:16:20.000Z</time>
      </trkpt>
      <trkpt lat="46.69571" lon="-2.34597">
        <ele>9.7</ele>
        <time>2018-09-20T11:16:21.000Z</time>
      </trkpt>
      <trkpt lat="46.69571" lon="-2.34597">
        <ele>9.7</ele>
        <time>2018-09-20T11:16:22.000Z</time>
      </trkpt>
      <trkpt lat="46.69572" lon="-2.34598">
        <ele>9.8</ele>
        <time>2018-09-20T11:16:23.000Z</time>
      </trkpt>
      <trkpt lat="46.69573" lon="-2.34598">
        <ele>9.8</ele>
        <time>2018-09-20T11:16:24.000Z</time>
      </trkpt>
      <trkpt lat="46.69573" lon="-2.34598">
        <ele>9.8</ele>
        <time>2018-09-20T11:16:25.000Z</time>
      </trkpt>
      <trkpt lat="46.69574" lon="-2.34599">
        <ele>9.8</ele>
        <time>2018-09-20T11:16:26.000Z</time>
      </trkpt>
      <trkpt lat="46.69574" lon="-2.34599">
        <ele>9.9</ele>
        <time>2018-09-20T11:16:27.000Z</time>
      </trkpt>
      <trkpt lat="46.69575" lon="-2.346">
        <ele>9.9</ele>
        <time>2018-09-20T11:16:28.000Z</time>
      </trkpt>
      <trkpt lat="46.69575" lon="-2.346">
        <ele>9.9</ele>
        <time>2018-09-20T11:16:29.000Z</time>
      </trkpt>
      <trkpt lat="46.69575" lon="-2.346">
        <ele>10</ele>
        <time>2018-09-20T11:16:30.000Z</time>
      </trkpt>
      <trkpt lat="46.69576" lon="-2.34601">
        <ele>10</ele>
        <time>2018-09-20T11:16:31.000Z</time>
      </trkpt>
      <trkpt lat="46.69576" lon="-2.34601">
        <ele>10</ele>
        <time>2018-09-20T11:16:32.000Z</time>
      </trkpt>
      <trkpt lat="46.69576" lon="-2.34601">
        <ele>10</ele>
        <time>2018-09-20T11:16:33.000Z</time>
      </trkpt>
      <trkpt lat="46.69576" lon="-2.34601">
        <ele>10</ele>
        <time>2018-09-20T11:16:34.000Z</time>
      </trkpt>
      <trkpt lat="46.69577" lon="-2.34602">
        <ele>10</ele>
        <time>2018-09-20T11:16:35.000Z</time>
      </trkpt>
      <trkpt lat="46.69577" lon="-2.34602">
        <ele>10.1</ele>
        <time>2018-09-20T11:16:36.000Z</time>
      </trkpt>
      <trkpt lat="46.69577" lon="-2.34602">
        <ele>10.1</ele>
        <time>2018-09-20T11:16:37.000Z</time>
      </trkpt>
      <trkpt lat="46.69577" lon="-2.34602">
        <ele>10.1</ele>
        <time>2018-09-20T11:16:38.000Z</time>
      </trkpt>
      <trkpt lat="46.69577" lon="-2.34602">
        <ele>10.1</ele>
        <time>2018-09-20T11:16:39.000Z</time>
      </trkpt>
      <trkpt lat="46.69577" lon="-2.34602">
        <ele>10.1</ele>
        <time>2018-09-20T11:16:40.000Z</time>
      </trkpt>
      <trkpt lat="46.69577" lon="-2.34602">
        <ele>10.1</ele>
        <time>2018-09-20T11:16:41.000Z</time>
      </trkpt>
      <trkpt lat="46.69577" lon="-2.34602">
        <ele>10.1</ele>
        <time>2018-09-20T11:16:42.000Z</time>
      </trkpt>
      <trkpt lat="46.69577" lon="-2.34602">
        <ele>10.1</ele>
        <time>2018-09-20T11:16:43.000Z</time>
      </trkpt>
      <trkpt lat="46.69577" lon="-2.34602">
        <ele>10.1</ele>
        <time>2018-09-20T11:16:44.000Z</time>
      </trkpt>
      <trkpt lat="46.69577" lon="-2.34602">
        <ele>10.1</ele>
        <time>2018-09-20T11:16:45.000Z</time>
      </trkpt>
      <trkpt lat="46.69577" lon="-2.34602">
        <ele>10.1</ele>
        <time>2018-09-20T11:16:46.000Z</time>
      </trkpt>
      <trkpt lat="46.69577" lon="-2.34602">
        <ele>10.1</ele>
        <time>2018-09-20T11:16:47.000Z</time>
      </trkpt>
      <trkpt lat="46.69577" lon="-2.34602">
        <ele>10.1</ele>
        <time>2018-09-20T11:16:48.000Z</time>
      </trkpt>
      <trkpt lat="46.69577" lon="-2.34602">
        <ele>10.1</ele>
        <time>2018-09-20T11:16:49.000Z</time>
      </trkpt>
      <trkpt lat="46.69577" lon="-2.34602">
        <ele>10</ele>
        <time>2018-09-20T11:16:50.000Z</time>
      </trkpt>
      <trkpt lat="46.69577" lon="-2.34602">
        <ele>10</ele>
        <time>2018-09-20T11:16:51.000Z</time>
      </trkpt>
      <trkpt lat="46.69577" lon="-2.34602">
        <ele>10</ele>
        <time>2018-09-20T11:16:52.000Z</time>
      </trkpt>
      <trkpt lat="46.69577" lon="-2.34602">
        <ele>10</ele>
        <time>2018-09-20T11:16:53.000Z</time>
      </trkpt>
      <trkpt lat="46.69577" lon="-2.34602">
        <ele>10</ele>
        <time>2018-09-20T11:16:54.000Z</time>
      </trkpt>
      <trkpt lat="46.69577" lon="-2.34602">
        <ele>10</ele>
        <time>2018-09-20T11:16:55.000Z</time>
      </trkpt>
      <trkpt lat="46.69577" lon="-2.34602">
        <ele>10.1</ele>
        <time>2018-09-20T11:16:56.000Z</time>
      </trkpt>
      <trkpt lat="46.69577" lon="-2.34602">
        <ele>10.1</ele>
        <time>2018-09-20T11:16:57.000Z</time>
      </trkpt>
      <trkpt lat="46.69577" lon="-2.34602">
        <ele>10.1</ele>
        <time>2018-09-20T11:16:58.000Z</time>
      </trkpt>
      <trkpt lat="46.69577" lon="-2.34602">
        <ele>10.1</ele>
        <time>2018-09-20T11:16:59.000Z</time>
      </trkpt>
      <trkpt lat="46.69577" lon="-2.34602">
        <ele>10.1</ele>
        <time>2018-09-20T11:17:00.000Z</time>
      </trkpt>
      <trkpt lat="46.69577" lon="-2.34602">
        <ele>10.1</ele>
        <time>2018-09-20T11:17:01.000Z</time>
      </trkpt>
      <trkpt lat="46.69577" lon="-2.34602">
        <ele>10.1</ele>
        <time>2018-09-20T11:17:02.000Z</time>
      </trkpt>
      <trkpt lat="46.69577" lon="-2.34602">
        <ele>10.1</ele>
        <time>2018-09-20T11:17:03.000Z</time>
      </trkpt>
      <trkpt lat="46.69577" lon="-2.34602">
        <ele>10</ele>
        <time>2018-09-20T11:17:04.000Z</time>
      </trkpt>
      <trkpt lat="46.69577" lon="-2.34602">
        <ele>10</ele>
        <time>2018-09-20T11:17:05.000Z</time>
      </trkpt>
      <trkpt lat="46.69577" lon="-2.34601">
        <ele>10</ele>
        <time>2018-09-20T11:17:06.000Z</time>
      </trkpt>
      <trkpt lat="46.69577" lon="-2.34601">
        <ele>10</ele>
        <time>2018-09-20T11:17:07.000Z</time>
      </trkpt>
      <trkpt lat="46.69577" lon="-2.34601">
        <ele>10</ele>
        <time>2018-09-20T11:17:08.000Z</time>
      </trkpt>
      <trkpt lat="46.69576" lon="-2.34601">
        <ele>10</ele>
        <time>2018-09-20T11:17:09.000Z</time>
      </trkpt>
      <trkpt lat="46.69576" lon="-2.34601">
        <ele>10</ele>
        <time>2018-09-20T11:17:10.000Z</time>
      </trkpt>
      <trkpt lat="46.69576" lon="-2.34601">
        <ele>10</ele>
        <time>2018-09-20T11:17:11.000Z</time>
      </trkpt>
      <trkpt lat="46.69576" lon="-2.346">
        <ele>10</ele>
        <time>2018-09-20T11:17:12.000Z</time>
      </trkpt>
      <trkpt lat="46.69576" lon="-2.346">
        <ele>9.9</ele>
        <time>2018-09-20T11:17:13.000Z</time>
      </trkpt>
      <trkpt lat="46.69575" lon="-2.34599">
        <ele>9.9</ele>
        <time>2018-09-20T11:17:14.000Z</time>
      </trkpt>
      <trkpt lat="46.69575" lon="-2.34599">
        <ele>9.9</ele>
        <time>2018-09-20T11:17:15.000Z</time>
      </trkpt>
      <trkpt lat="46.69575" lon="-2.34599">
        <ele>9.8</ele>
        <time>2018-09-20T11:17:16.000Z</time>
      </trkpt>
      <trkpt lat="46.69575" lon="-2.34598">
        <ele>9.8</ele>
        <time>2018-09-20T11:17:17.000Z</time>
      </trkpt>
      <trkpt lat="46.69574" lon="-2.34598">
        <ele>9.8</ele>
        <time>2018-09-20T11:17:18.000Z</time>
      </trkpt>
      <trkpt lat="46.69574" lon="-2.34597">
        <ele>9.7</ele>
        <time>2018-09-20T11:17:19.000Z</time>
      </trkpt>
      <trkpt lat="46.69573" lon="-2.34596">
        <ele>9.7</ele>
        <time>2018-09-20T11:17:20.000Z</time>
      </trkpt>
      <trkpt lat="46.69573" lon="-2.34596">
        <ele>9.6</ele>
        <time>2018-09-20T11:17:21.000Z</time>
      </trkpt>
      <trkpt lat="46.69572" lon="-2.34595">
        <ele>9.6</ele>
        <time>2018-09-20T11:17:22.000Z</time>
      </trkpt>
      <trkpt lat="46.69572" lon="-2.34594">
        <ele>9.5</ele>
        <time>2018-09-20T11:17:23.000Z</time>
      </trkpt>
      <trkpt lat="46.69571" lon="-2.34593">
        <ele>9.5</ele>
        <time>2018-09-20T11:17:24.000Z</time>
      </trkpt>
      <trkpt lat="46.69571" lon="-2.34593">
        <ele>9.4</ele>
        <time>2018-09-20T11:17:25.000Z</time>
      </trkpt>
      <trkpt lat="46.6957" lon="-2.34592">
        <ele>9.4</ele>
        <time>2018-09-20T11:17:26.000Z</time>
      </trkpt>
      <trkpt lat="46.6957" lon="-2.34591">
        <ele>9.3</ele>
        <time>2018-09-20T11:17:27.000Z</time>
      </trkpt>
      <trkpt lat="46.69569" lon="-2.3459">
        <ele>9.2</ele>
        <time>2018-09-20T11:17:28.000Z</time>
      </trkpt>
      <trkpt lat="46.69568" lon="-2.34589">
        <ele>9.2</ele>
        <time>2018-09-20T11:17:29.000Z</time>
      </trkpt>
      <trkpt lat="46.69568" lon="-2.34588">
        <ele>9.1</ele>
        <time>2018-09-20T11:17:30.000Z</time>
      </trkpt>
      <trkpt lat="46.69567" lon="-2.34587">
        <ele>9.1</ele>
        <time>2018-09-20T11:17:31.000Z</time>
      </trkpt>
      <trkpt lat="46.69566" lon="-2.34586">
        <ele>9</ele>
        <time>2018-09-20T11:17:32.000Z</time>
      </trkpt>
      <trkpt lat="46.69566" lon="-2.34586">
        <ele>8.9</ele>
        <time>2018-09-20T11:17:33.000Z</time>
      </trkpt>
      <trkpt lat="46.69565" lon="-2.34585">
        <ele>8.9</ele>
        <time>2018-09-20T11:17:34.000Z</time>
      </trkpt>
      <trkpt lat="46.69564" lon="-2.34584">
        <ele>8.8</ele>
        <time>2018-09-20T11:17:35.000Z</time>
      </trkpt>
      <trkpt lat="46.69563" lon="-2.34584">
        <ele>8.8</ele>
        <time>2018-09-20T11:17:36.000Z</time>
      </trkpt>
      <trkpt lat="46.69563" lon="-2.34583">
        <ele>8.8</ele>
        <time>2018-09-20T11:17:37.000Z</time>
      </trkpt>
      <trkpt lat="46.69562" lon="-2.34583">
        <ele>8.8</ele>
        <time>2018-09-20T11:17:38.000Z</time>
      </trkpt>
      <trkpt lat="46.69561" lon="-2.34582">
        <ele>8.9</ele>
        <time>2018-09-20T11:17:39.000Z</time>
      </trkpt>
      <trkpt lat="46.69561" lon="-2.34582">
        <ele>8.9</ele>
        <time>2018-09-20T11:17:40.000Z</time>
      </trkpt>
      <trkpt lat="46.6956" lon="-2.34581">
        <ele>8.9</ele>
        <time>2018-09-20T11:17:41.000Z</time>
      </trkpt>
      <trkpt lat="46.69559" lon="-2.34581">
        <ele>9</ele>
        <time>2018-09-20T11:17:42.000Z</time>
      </trkpt>
      <trkpt lat="46.69559" lon="-2.34581">
        <ele>9</ele>
        <time>2018-09-20T11:17:43.000Z</time>
      </trkpt>
      <trkpt lat="46.69558" lon="-2.3458">
        <ele>9</ele>
        <time>2018-09-20T11:17:44.000Z</time>
      </trkpt>
      <trkpt lat="46.69557" lon="-2.3458">
        <ele>9</ele>
        <time>2018-09-20T11:17:45.000Z</time>
      </trkpt>
      <trkpt lat="46.69557" lon="-2.3458">
        <ele>9</ele>
        <time>2018-09-20T11:17:46.000Z</time>
      </trkpt>
      <trkpt lat="46.69556" lon="-2.3458">
        <ele>9</ele>
        <time>2018-09-20T11:17:47.000Z</time>
      </trkpt>
      <trkpt lat="46.69555" lon="-2.3458">
        <ele>9</ele>
        <time>2018-09-20T11:17:48.000Z</time>
      </trkpt>
      <trkpt lat="46.69555" lon="-2.3458">
        <ele>9</ele>
        <time>2018-09-20T11:17:49.000Z</time>
      </trkpt>
      <trkpt lat="46.69554" lon="-2.3458">
        <ele>9</ele>
        <time>2018-09-20T11:17:50.000Z</time>
      </trkpt>
      <trkpt lat="46.69553" lon="-2.3458">
        <ele>9</ele>
        <time>2018-09-20T11:17:51.000Z</time>
      </trkpt>
      <trkpt lat="46.69553" lon="-2.3458">
        <ele>9</ele>
        <time>2018-09-20T11:17:52.000Z</time>
      </trkpt>
      <trkpt lat="46.69552" lon="-2.3458">
        <ele>8.9</ele>
        <time>2018-09-20T11:17:53.000Z</time>
      </trkpt>
      <trkpt lat="46.69552" lon="-2.3458">
        <ele>8.9</ele>
        <time>2018-09-20T11:17:54.000Z</time>
      </trkpt>
      <trkpt lat="46.69551" lon="-2.34581">
        <ele>8.9</ele>
        <time>2018-09-20T11:17:55.000Z</time>
      </trkpt>
      <trkpt lat="46.69572" lon="-2.34561">
        <ele>11.5</ele>
        <time>2018-09-20T11:58:24.000Z</time>
      </trkpt>
      <trkpt lat="46.69572" lon="-2.34561">
        <ele>11.5</ele>
        <time>2018-09-20T11:58:24.000Z</time>
      </trkpt>
      <trkpt lat="46.69572" lon="-2.34561">
        <ele>11.5</ele>
        <time>2018-09-20T11:58:25.000Z</time>
      </trkpt>
      <trkpt lat="46.69572" lon="-2.34561">
        <ele>11.5</ele>
        <time>2018-09-20T11:58:26.000Z</time>
      </trkpt>
      <trkpt lat="46.69572" lon="-2.34561">
        <ele>11.5</ele>
        <time>2018-09-20T11:58:27.000Z</time>
      </trkpt>
      <trkpt lat="46.69572" lon="-2.34561">
        <ele>11.5</ele>
        <time>2018-09-20T11:58:28.000Z</time>
      </trkpt>
      <trkpt lat="46.69572" lon="-2.34561">
        <ele>11.6</ele>
        <time>2018-09-20T11:58:29.000Z</time>
      </trkpt>
      <trkpt lat="46.69573" lon="-2.34561">
        <ele>11.6</ele>
        <time>2018-09-20T11:58:30.000Z</time>
      </trkpt>
      <trkpt lat="46.69573" lon="-2.34561">
        <ele>11.6</ele>
        <time>2018-09-20T11:58:31.000Z</time>
      </trkpt>
      <trkpt lat="46.69574" lon="-2.34561">
        <ele>11.6</ele>
        <time>2018-09-20T11:58:32.000Z</time>
      </trkpt>
      <trkpt lat="46.69575" lon="-2.34561">
        <ele>11.6</ele>
        <time>2018-09-20T11:58:33.000Z</time>
      </trkpt>
      <trkpt lat="46.69575" lon="-2.34561">
        <ele>11.6</ele>
        <time>2018-09-20T11:58:34.000Z</time>
      </trkpt>
      <trkpt lat="46.69576" lon="-2.34561">
        <ele>11.6</ele>
        <time>2018-09-20T11:58:35.000Z</time>
      </trkpt>
      <trkpt lat="46.69577" lon="-2.34562">
        <ele>11.6</ele>
        <time>2018-09-20T11:58:36.000Z</time>
      </trkpt>
      <trkpt lat="46.69578" lon="-2.34562">
        <ele>11.6</ele>
        <time>2018-09-20T11:58:37.000Z</time>
      </trkpt>
      <trkpt lat="46.69578" lon="-2.34563">
        <ele>11.6</ele>
        <time>2018-09-20T11:58:38.000Z</time>
      </trkpt>
      <trkpt lat="46.69579" lon="-2.34563">
        <ele>11.5</ele>
        <time>2018-09-20T11:58:39.000Z</time>
      </trkpt>
      <trkpt lat="46.6958" lon="-2.34564">
        <ele>11.5</ele>
        <time>2018-09-20T11:58:40.000Z</time>
      </trkpt>
      <trkpt lat="46.69581" lon="-2.34564">
        <ele>11.4</ele>
        <time>2018-09-20T11:58:41.000Z</time>
      </trkpt>
      <trkpt lat="46.69582" lon="-2.34565">
        <ele>11.4</ele>
        <time>2018-09-20T11:58:42.000Z</time>
      </trkpt>
      <trkpt lat="46.69583" lon="-2.34566">
        <ele>11.3</ele>
        <time>2018-09-20T11:58:43.000Z</time>
      </trkpt>
      <trkpt lat="46.69584" lon="-2.34567">
        <ele>11.2</ele>
        <time>2018-09-20T11:58:44.000Z</time>
      </trkpt>
      <trkpt lat="46.69586" lon="-2.34568">
        <ele>11.2</ele>
        <time>2018-09-20T11:58:45.000Z</time>
      </trkpt>
      <trkpt lat="46.69587" lon="-2.34568">
        <ele>11.1</ele>
        <time>2018-09-20T11:58:46.000Z</time>
      </trkpt>
      <trkpt lat="46.69588" lon="-2.34569">
        <ele>11</ele>
        <time>2018-09-20T11:58:47.000Z</time>
      </trkpt>
      <trkpt lat="46.69589" lon="-2.3457">
        <ele>10.9</ele>
        <time>2018-09-20T11:58:48.000Z</time>
      </trkpt>
      <trkpt lat="46.69591" lon="-2.34571">
        <ele>10.8</ele>
        <time>2018-09-20T11:58:49.000Z</time>
      </trkpt>
      <trkpt lat="46.69592" lon="-2.34572">
        <ele>10.8</ele>
        <time>2018-09-20T11:58:50.000Z</time>
      </trkpt>
      <trkpt lat="46.69593" lon="-2.34573">
        <ele>10.7</ele>
        <time>2018-09-20T11:58:51.000Z</time>
      </trkpt>
      <trkpt lat="46.69595" lon="-2.34574">
        <ele>10.6</ele>
        <time>2018-09-20T11:58:52.000Z</time>
      </trkpt>
      <trkpt lat="46.69596" lon="-2.34575">
        <ele>10.6</ele>
        <time>2018-09-20T11:58:53.000Z</time>
      </trkpt>
      <trkpt lat="46.69597" lon="-2.34575">
        <ele>10.5</ele>
        <time>2018-09-20T11:58:54.000Z</time>
      </trkpt>
      <trkpt lat="46.69598" lon="-2.34576">
        <ele>10.4</ele>
        <time>2018-09-20T11:58:55.000Z</time>
      </trkpt>
      <trkpt lat="46.696" lon="-2.34577">
        <ele>10.4</ele>
        <time>2018-09-20T11:58:56.000Z</time>
      </trkpt>
      <trkpt lat="46.69601" lon="-2.34577">
        <ele>10.4</ele>
        <time>2018-09-20T11:58:57.000Z</time>
      </trkpt>
      <trkpt lat="46.69602" lon="-2.34578">
        <ele>10.3</ele>
        <time>2018-09-20T11:58:58.000Z</time>
      </trkpt>
      <trkpt lat="46.69603" lon="-2.34579">
        <ele>10.3</ele>
        <time>2018-09-20T11:58:59.000Z</time>
      </trkpt>
      <trkpt lat="46.69604" lon="-2.34579">
        <ele>10.3</ele>
        <time>2018-09-20T11:59:00.000Z</time>
      </trkpt>
      <trkpt lat="46.69605" lon="-2.3458">
        <ele>10.3</ele>
        <time>2018-09-20T11:59:01.000Z</time>
      </trkpt>
      <trkpt lat="46.69606" lon="-2.3458">
        <ele>10.2</ele>
        <time>2018-09-20T11:59:02.000Z</time>
      </trkpt>
      <trkpt lat="46.69607" lon="-2.3458">
        <ele>10.2</ele>
        <time>2018-09-20T11:59:03.000Z</time>
      </trkpt>
      <trkpt lat="46.69608" lon="-2.34581">
        <ele>10.2</ele>
        <time>2018-09-20T11:59:04.000Z</time>
      </trkpt>
      <trkpt lat="46.69609" lon="-2.34581">
        <ele>10.2</ele>
        <time>2018-09-20T11:59:05.000Z</time>
      </trkpt>
      <trkpt lat="46.6961" lon="-2.34582">
        <ele>10.2</ele>
        <time>2018-09-20T11:59:06.000Z</time>
      </trkpt>
      <trkpt lat="46.69611" lon="-2.34582">
        <ele>10.1</ele>
        <time>2018-09-20T11:59:07.000Z</time>
      </trkpt>
      <trkpt lat="46.69612" lon="-2.34583">
        <ele>10.1</ele>
        <time>2018-09-20T11:59:08.000Z</time>
      </trkpt>
      <trkpt lat="46.69613" lon="-2.34583">
        <ele>10.1</ele>
        <time>2018-09-20T11:59:09.000Z</time>
      </trkpt>
      <trkpt lat="46.69614" lon="-2.34584">
        <ele>10.1</ele>
        <time>2018-09-20T11:59:10.000Z</time>
      </trkpt>
      <trkpt lat="46.69615" lon="-2.34585">
        <ele>10.2</ele>
        <time>2018-09-20T11:59:11.000Z</time>
      </trkpt>
      <trkpt lat="46.69616" lon="-2.34586">
        <ele>10.3</ele>
        <time>2018-09-20T11:59:12.000Z</time>
      </trkpt>
      <trkpt lat="46.69618" lon="-2.34586">
        <ele>10.4</ele>
        <time>2018-09-20T11:59:13.000Z</time>
      </trkpt>
      <trkpt lat="46.69619" lon="-2.34587">
        <ele>10.5</ele>
        <time>2018-09-20T11:59:14.000Z</time>
      </trkpt>
      <trkpt lat="46.6962" lon="-2.34588">
        <ele>10.5</ele>
        <time>2018-09-20T11:59:15.000Z</time>
      </trkpt>
      <trkpt lat="46.69621" lon="-2.34588">
        <ele>10.6</ele>
        <time>2018-09-20T11:59:16.000Z</time>
      </trkpt>
      <trkpt lat="46.69622" lon="-2.34589">
        <ele>10.7</ele>
        <time>2018-09-20T11:59:17.000Z</time>
      </trkpt>
      <trkpt lat="46.69624" lon="-2.3459">
        <ele>10.7</ele>
        <time>2018-09-20T11:59:18.000Z</time>
      </trkpt>
      <trkpt lat="46.69625" lon="-2.3459">
        <ele>10.8</ele>
        <time>2018-09-20T11:59:19.000Z</time>
      </trkpt>
      <trkpt lat="46.69626" lon="-2.34591">
        <ele>10.9</ele>
        <time>2018-09-20T11:59:20.000Z</time>
      </trkpt>
      <trkpt lat="46.69627" lon="-2.34591">
        <ele>10.9</ele>
        <time>2018-09-20T11:59:21.000Z</time>
      </trkpt>
      <trkpt lat="46.69628" lon="-2.34591">
        <ele>11</ele>
        <time>2018-09-20T11:59:22.000Z</time>
      </trkpt>
      <trkpt lat="46.69629" lon="-2.34591">
        <ele>11</ele>
        <time>2018-09-20T11:59:23.000Z</time>
      </trkpt>
      <trkpt lat="46.6963" lon="-2.34591">
        <ele>11</ele>
        <time>2018-09-20T11:59:24.000Z</time>
      </trkpt>
      <trkpt lat="46.69631" lon="-2.34592">
        <ele>11.1</ele>
        <time>2018-09-20T11:59:25.000Z</time>
      </trkpt>
      <trkpt lat="46.69632" lon="-2.34592">
        <ele>11.1</ele>
        <time>2018-09-20T11:59:26.000Z</time>
      </trkpt>
      <trkpt lat="46.69633" lon="-2.34592">
        <ele>11.2</ele>
        <time>2018-09-20T11:59:27.000Z</time>
      </trkpt>
      <trkpt lat="46.69634" lon="-2.34592">
        <ele>11.2</ele>
        <time>2018-09-20T11:59:28.000Z</time>
      </trkpt>
      <trkpt lat="46.69635" lon="-2.34592">
        <ele>11.2</ele>
        <time>2018-09-20T11:59:29.000Z</time>
      </trkpt>
      <trkpt lat="46.69636" lon="-2.34592">
        <ele>11.3</ele>
        <time>2018-09-20T11:59:30.000Z</time>
      </trkpt>
      <trkpt lat="46.69637" lon="-2.34591">
        <ele>11.3</ele>
        <time>2018-09-20T11:59:31.000Z</time>
      </trkpt>
      <trkpt lat="46.69638" lon="-2.34591">
        <ele>11.3</ele>
        <time>2018-09-20T11:59:32.000Z</time>
      </trkpt>
      <trkpt lat="46.69639" lon="-2.34591">
        <ele>11.4</ele>
        <time>2018-09-20T11:59:33.000Z</time>
      </trkpt>
      <trkpt lat="46.6964" lon="-2.34591">
        <ele>11.4</ele>
        <time>2018-09-20T11:59:34.000Z</time>
      </trkpt>
      <trkpt lat="46.69642" lon="-2.34591">
        <ele>11.4</ele>
        <time>2018-09-20T11:59:35.000Z</time>
      </trkpt>
      <trkpt lat="46.69643" lon="-2.34591">
        <ele>11.5</ele>
        <time>2018-09-20T11:59:36.000Z</time>
      </trkpt>
      <trkpt lat="46.69644" lon="-2.34591">
        <ele>11.5</ele>
        <time>2018-09-20T11:59:37.000Z</time>
      </trkpt>
      <trkpt lat="46.69645" lon="-2.34591">
        <ele>11.5</ele>
        <time>2018-09-20T11:59:38.000Z</time>
      </trkpt>
      <trkpt lat="46.69646" lon="-2.34591">
        <ele>11.6</ele>
        <time>2018-09-20T11:59:39.000Z</time>
      </trkpt>
      <trkpt lat="46.69647" lon="-2.34591">
        <ele>11.6</ele>
        <time>2018-09-20T11:59:40.000Z</time>
      </trkpt>
      <trkpt lat="46.69648" lon="-2.34591">
        <ele>11.7</ele>
        <time>2018-09-20T11:59:41.000Z</time>
      </trkpt>
      <trkpt lat="46.69649" lon="-2.34592">
        <ele>11.7</ele>
        <time>2018-09-20T11:59:42.000Z</time>
      </trkpt>
      <trkpt lat="46.6965" lon="-2.34592">
        <ele>11.8</ele>
        <time>2018-09-20T11:59:43.000Z</time>
      </trkpt>
      <trkpt lat="46.69651" lon="-2.34592">
        <ele>11.8</ele>
        <time>2018-09-20T11:59:44.000Z</time>
      </trkpt>
      <trkpt lat="46.69653" lon="-2.34592">
        <ele>11.9</ele>
        <time>2018-09-20T11:59:45.000Z</time>
      </trkpt>
      <trkpt lat="46.69654" lon="-2.34593">
        <ele>11.9</ele>
        <time>2018-09-20T11:59:46.000Z</time>
      </trkpt>
      <trkpt lat="46.69655" lon="-2.34593">
        <ele>12</ele>
        <time>2018-09-20T11:59:47.000Z</time>
      </trkpt>
      <trkpt lat="46.69656" lon="-2.34593">
        <ele>12</ele>
        <time>2018-09-20T11:59:48.000Z</time>
      </trkpt>
      <trkpt lat="46.69658" lon="-2.34594">
        <ele>12.1</ele>
        <time>2018-09-20T11:59:49.000Z</time>
      </trkpt>
      <trkpt lat="46.69659" lon="-2.34594">
        <ele>12.1</ele>
        <time>2018-09-20T11:59:50.000Z</time>
      </trkpt>
      <trkpt lat="46.69661" lon="-2.34594">
        <ele>12.2</ele>
        <time>2018-09-20T11:59:51.000Z</time>
      </trkpt>
      <trkpt lat="46.69662" lon="-2.34595">
        <ele>12.3</ele>
        <time>2018-09-20T11:59:52.000Z</time>
      </trkpt>
      <trkpt lat="46.69663" lon="-2.34595">
        <ele>12.3</ele>
        <time>2018-09-20T11:59:53.000Z</time>
      </trkpt>
      <trkpt lat="46.69665" lon="-2.34595">
        <ele>12.3</ele>
        <time>2018-09-20T11:59:54.000Z</time>
      </trkpt>
      <trkpt lat="46.69666" lon="-2.34594">
        <ele>12.4</ele>
        <time>2018-09-20T11:59:55.000Z</time>
      </trkpt>
      <trkpt lat="46.69667" lon="-2.34594">
        <ele>12.4</ele>
        <time>2018-09-20T11:59:56.000Z</time>
      </trkpt>
      <trkpt lat="46.69668" lon="-2.34594">
        <ele>12.4</ele>
        <time>2018-09-20T11:59:57.000Z</time>
      </trkpt>
      <trkpt lat="46.69669" lon="-2.34594">
        <ele>12.4</ele>
        <time>2018-09-20T11:59:58.000Z</time>
      </trkpt>
      <trkpt lat="46.6967" lon="-2.34594">
        <ele>12.4</ele>
        <time>2018-09-20T11:59:59.000Z</time>
      </trkpt>
      <trkpt lat="46.69671" lon="-2.34594">
        <ele>12.4</ele>
        <time>2018-09-20T12:00:00.000Z</time>
      </trkpt>
      <trkpt lat="46.69672" lon="-2.34595">
        <ele>12.4</ele>
        <time>2018-09-20T12:00:01.000Z</time>
      </trkpt>
      <trkpt lat="46.69674" lon="-2.34595">
        <ele>12.4</ele>
        <time>2018-09-20T12:00:02.000Z</time>
      </trkpt>
      <trkpt lat="46.69675" lon="-2.34595">
        <ele>12.4</ele>
        <time>2018-09-20T12:00:03.000Z</time>
      </trkpt>
      <trkpt lat="46.69676" lon="-2.34595">
        <ele>12.4</ele>
        <time>2018-09-20T12:00:04.000Z</time>
      </trkpt>
      <trkpt lat="46.69677" lon="-2.34596">
        <ele>12.4</ele>
        <time>2018-09-20T12:00:05.000Z</time>
      </trkpt>
      <trkpt lat="46.69678" lon="-2.34596">
        <ele>12.4</ele>
        <time>2018-09-20T12:00:06.000Z</time>
      </trkpt>
      <trkpt lat="46.69679" lon="-2.34596">
        <ele>12.4</ele>
        <time>2018-09-20T12:00:07.000Z</time>
      </trkpt>
      <trkpt lat="46.6968" lon="-2.34596">
        <ele>12.4</ele>
        <time>2018-09-20T12:00:08.000Z</time>
      </trkpt>
      <trkpt lat="46.69681" lon="-2.34597">
        <ele>12.4</ele>
        <time>2018-09-20T12:00:09.000Z</time>
      </trkpt>
      <trkpt lat="46.69682" lon="-2.34597">
        <ele>12.4</ele>
        <time>2018-09-20T12:00:10.000Z</time>
      </trkpt>
      <trkpt lat="46.69684" lon="-2.34597">
        <ele>12.4</ele>
        <time>2018-09-20T12:00:11.000Z</time>
      </trkpt>
      <trkpt lat="46.69685" lon="-2.34597">
        <ele>12.4</ele>
        <time>2018-09-20T12:00:12.000Z</time>
      </trkpt>
      <trkpt lat="46.69686" lon="-2.34597">
        <ele>12.4</ele>
        <time>2018-09-20T12:00:13.000Z</time>
      </trkpt>
      <trkpt lat="46.69687" lon="-2.34597">
        <ele>12.4</ele>
        <time>2018-09-20T12:00:14.000Z</time>
      </trkpt>
      <trkpt lat="46.69688" lon="-2.34597">
        <ele>12.4</ele>
        <time>2018-09-20T12:00:15.000Z</time>
      </trkpt>
      <trkpt lat="46.69689" lon="-2.34598">
        <ele>12.4</ele>
        <time>2018-09-20T12:00:16.000Z</time>
      </trkpt>
      <trkpt lat="46.6969" lon="-2.34598">
        <ele>12.4</ele>
        <time>2018-09-20T12:00:17.000Z</time>
      </trkpt>
      <trkpt lat="46.69691" lon="-2.34598">
        <ele>12.4</ele>
        <time>2018-09-20T12:00:18.000Z</time>
      </trkpt>
      <trkpt lat="46.69693" lon="-2.34598">
        <ele>12.4</ele>
        <time>2018-09-20T12:00:19.000Z</time>
      </trkpt>
      <trkpt lat="46.69694" lon="-2.34598">
        <ele>12.4</ele>
        <time>2018-09-20T12:00:20.000Z</time>
      </trkpt>
      <trkpt lat="46.69695" lon="-2.34598">
        <ele>12.3</ele>
        <time>2018-09-20T12:00:21.000Z</time>
      </trkpt>
      <trkpt lat="46.69696" lon="-2.34598">
        <ele>12.3</ele>
        <time>2018-09-20T12:00:22.000Z</time>
      </trkpt>
      <trkpt lat="46.69697" lon="-2.34598">
        <ele>12.3</ele>
        <time>2018-09-20T12:00:23.000Z</time>
      </trkpt>
      <trkpt lat="46.69698" lon="-2.34598">
        <ele>12.3</ele>
        <time>2018-09-20T12:00:24.000Z</time>
      </trkpt>
      <trkpt lat="46.69699" lon="-2.34598">
        <ele>12.3</ele>
        <time>2018-09-20T12:00:25.000Z</time>
      </trkpt>
      <trkpt lat="46.69701" lon="-2.34598">
        <ele>12.3</ele>
        <time>2018-09-20T12:00:26.000Z</time>
      </trkpt>
      <trkpt lat="46.69702" lon="-2.34598">
        <ele>12.3</ele>
        <time>2018-09-20T12:00:27.000Z</time>
      </trkpt>
      <trkpt lat="46.69703" lon="-2.34598">
        <ele>12.3</ele>
        <time>2018-09-20T12:00:28.000Z</time>
      </trkpt>
      <trkpt lat="46.69704" lon="-2.34598">
        <ele>12.3</ele>
        <time>2018-09-20T12:00:29.000Z</time>
      </trkpt>
      <trkpt lat="46.69705" lon="-2.34598">
        <ele>12.3</ele>
        <time>2018-09-20T12:00:30.000Z</time>
      </trkpt>
      <trkpt lat="46.69706" lon="-2.34598">
        <ele>12.3</ele>
        <time>2018-09-20T12:00:31.000Z</time>
      </trkpt>
      <trkpt lat="46.69707" lon="-2.34598">
        <ele>12.3</ele>
        <time>2018-09-20T12:00:32.000Z</time>
      </trkpt>
      <trkpt lat="46.69709" lon="-2.34598">
        <ele>12.3</ele>
        <time>2018-09-20T12:00:33.000Z</time>
      </trkpt>
      <trkpt lat="46.6971" lon="-2.34598">
        <ele>12.3</ele>
        <time>2018-09-20T12:00:34.000Z</time>
      </trkpt>
      <trkpt lat="46.69711" lon="-2.34598">
        <ele>12.3</ele>
        <time>2018-09-20T12:00:35.000Z</time>
      </trkpt>
      <trkpt lat="46.69712" lon="-2.34598">
        <ele>12.2</ele>
        <time>2018-09-20T12:00:36.000Z</time>
      </trkpt>
      <trkpt lat="46.69713" lon="-2.34598">
        <ele>12.2</ele>
        <time>2018-09-20T12:00:37.000Z</time>
      </trkpt>
      <trkpt lat="46.69714" lon="-2.34598">
        <ele>12.2</ele>
        <time>2018-09-20T12:00:38.000Z</time>
      </trkpt>
      <trkpt lat="46.69715" lon="-2.34598">
        <ele>12.2</ele>
        <time>2018-09-20T12:00:39.000Z</time>
      </trkpt>
      <trkpt lat="46.69716" lon="-2.34598">
        <ele>12.2</ele>
        <time>2018-09-20T12:00:40.000Z</time>
      </trkpt>
      <trkpt lat="46.69718" lon="-2.34598">
        <ele>12.2</ele>
        <time>2018-09-20T12:00:41.000Z</time>
      </trkpt>
      <trkpt lat="46.69719" lon="-2.34598">
        <ele>12.2</ele>
        <time>2018-09-20T12:00:42.000Z</time>
      </trkpt>
      <trkpt lat="46.6972" lon="-2.34598">
        <ele>12.2</ele>
        <time>2018-09-20T12:00:43.000Z</time>
      </trkpt>
      <trkpt lat="46.69721" lon="-2.34598">
        <ele>12.2</ele>
        <time>2018-09-20T12:00:44.000Z</time>
      </trkpt>
      <trkpt lat="46.69722" lon="-2.34598">
        <ele>12.2</ele>
        <time>2018-09-20T12:00:45.000Z</time>
      </trkpt>
      <trkpt lat="46.69723" lon="-2.34598">
        <ele>12.2</ele>
        <time>2018-09-20T12:00:46.000Z</time>
      </trkpt>
      <trkpt lat="46.69724" lon="-2.34598">
        <ele>12.2</ele>
        <time>2018-09-20T12:00:47.000Z</time>
      </trkpt>
      <trkpt lat="46.69725" lon="-2.34598">
        <ele>12.2</ele>
        <time>2018-09-20T12:00:48.000Z</time>
      </trkpt>
      <trkpt lat="46.69726" lon="-2.34598">
        <ele>12.1</ele>
        <time>2018-09-20T12:00:49.000Z</time>
      </trkpt>
      <trkpt lat="46.69727" lon="-2.34598">
        <ele>12.1</ele>
        <time>2018-09-20T12:00:50.000Z</time>
      </trkpt>
      <trkpt lat="46.69728" lon="-2.34597">
        <ele>12.1</ele>
        <time>2018-09-20T12:00:51.000Z</time>
      </trkpt>
      <trkpt lat="46.6973" lon="-2.34597">
        <ele>12.1</ele>
        <time>2018-09-20T12:00:52.000Z</time>
      </trkpt>
      <trkpt lat="46.69731" lon="-2.34597">
        <ele>12.1</ele>
        <time>2018-09-20T12:00:53.000Z</time>
      </trkpt>
      <trkpt lat="46.69732" lon="-2.34597">
        <ele>12.1</ele>
        <time>2018-09-20T12:00:54.000Z</time>
      </trkpt>
      <trkpt lat="46.69733" lon="-2.34597">
        <ele>12.1</ele>
        <time>2018-09-20T12:00:55.000Z</time>
      </trkpt>
      <trkpt lat="46.69734" lon="-2.34596">
        <ele>12.1</ele>
        <time>2018-09-20T12:00:56.000Z</time>
      </trkpt>
      <trkpt lat="46.69735" lon="-2.34596">
        <ele>12.1</ele>
        <time>2018-09-20T12:00:57.000Z</time>
      </trkpt>
      <trkpt lat="46.69736" lon="-2.34596">
        <ele>12.1</ele>
        <time>2018-09-20T12:00:58.000Z</time>
      </trkpt>
      <trkpt lat="46.69737" lon="-2.34595">
        <ele>12.1</ele>
        <time>2018-09-20T12:00:59.000Z</time>
      </trkpt>
      <trkpt lat="46.69738" lon="-2.34595">
        <ele>12.1</ele>
        <time>2018-09-20T12:01:00.000Z</time>
      </trkpt>
      <trkpt lat="46.69739" lon="-2.34594">
        <ele>12.1</ele>
        <time>2018-09-20T12:01:01.000Z</time>
      </trkpt>
      <trkpt lat="46.6974" lon="-2.34594">
        <ele>12</ele>
        <time>2018-09-20T12:01:02.000Z</time>
      </trkpt>
      <trkpt lat="46.69741" lon="-2.34594">
        <ele>12</ele>
        <time>2018-09-20T12:01:03.000Z</time>
      </trkpt>
      <trkpt lat="46.69742" lon="-2.34593">
        <ele>12</ele>
        <time>2018-09-20T12:01:04.000Z</time>
      </trkpt>
      <trkpt lat="46.69743" lon="-2.34593">
        <ele>12</ele>
        <time>2018-09-20T12:01:05.000Z</time>
      </trkpt>
      <trkpt lat="46.69745" lon="-2.34592">
        <ele>12</ele>
        <time>2018-09-20T12:01:06.000Z</time>
      </trkpt>
      <trkpt lat="46.69746" lon="-2.34592">
        <ele>12</ele>
        <time>2018-09-20T12:01:07.000Z</time>
      </trkpt>
      <trkpt lat="46.69747" lon="-2.34591">
        <ele>12</ele>
        <time>2018-09-20T12:01:08.000Z</time>
      </trkpt>
      <trkpt lat="46.69748" lon="-2.34591">
        <ele>12</ele>
        <time>2018-09-20T12:01:09.000Z</time>
      </trkpt>
      <trkpt lat="46.69749" lon="-2.34591">
        <ele>12</ele>
        <time>2018-09-20T12:01:10.000Z</time>
      </trkpt>
      <trkpt lat="46.6975" lon="-2.3459">
        <ele>12</ele>
        <time>2018-09-20T12:01:11.000Z</time>
      </trkpt>
      <trkpt lat="46.69751" lon="-2.3459">
        <ele>12</ele>
        <time>2018-09-20T12:01:12.000Z</time>
      </trkpt>
      <trkpt lat="46.69752" lon="-2.34589">
        <ele>12.1</ele>
        <time>2018-09-20T12:01:13.000Z</time>
      </trkpt>
      <trkpt lat="46.69753" lon="-2.34589">
        <ele>12.1</ele>
        <time>2018-09-20T12:01:14.000Z</time>
      </trkpt>
      <trkpt lat="46.69754" lon="-2.34589">
        <ele>12.1</ele>
        <time>2018-09-20T12:01:15.000Z</time>
      </trkpt>
      <trkpt lat="46.69755" lon="-2.34588">
        <ele>12.2</ele>
        <time>2018-09-20T12:01:16.000Z</time>
      </trkpt>
      <trkpt lat="46.69756" lon="-2.34588">
        <ele>12.2</ele>
        <time>2018-09-20T12:01:17.000Z</time>
      </trkpt>
      <trkpt lat="46.69757" lon="-2.34588">
        <ele>12.3</ele>
        <time>2018-09-20T12:01:18.000Z</time>
      </trkpt>
      <trkpt lat="46.69758" lon="-2.34588">
        <ele>12.3</ele>
        <time>2018-09-20T12:01:19.000Z</time>
      </trkpt>
      <trkpt lat="46.6976" lon="-2.34587">
        <ele>12.3</ele>
        <time>2018-09-20T12:01:20.000Z</time>
      </trkpt>
      <trkpt lat="46.69761" lon="-2.34587">
        <ele>12.4</ele>
        <time>2018-09-20T12:01:21.000Z</time>
      </trkpt>
      <trkpt lat="46.69762" lon="-2.34587">
        <ele>12.4</ele>
        <time>2018-09-20T12:01:22.000Z</time>
      </trkpt>
      <trkpt lat="46.69763" lon="-2.34587">
        <ele>12.4</ele>
        <time>2018-09-20T12:01:23.000Z</time>
      </trkpt>
      <trkpt lat="46.69764" lon="-2.34587">
        <ele>12.5</ele>
        <time>2018-09-20T12:01:24.000Z</time>
      </trkpt>
      <trkpt lat="46.69765" lon="-2.34587">
        <ele>12.5</ele>
        <time>2018-09-20T12:01:25.000Z</time>
      </trkpt>
      <trkpt lat="46.69766" lon="-2.34587">
        <ele>12.6</ele>
        <time>2018-09-20T12:01:26.000Z</time>
      </trkpt>
      <trkpt lat="46.69767" lon="-2.34587">
        <ele>12.6</ele>
        <time>2018-09-20T12:01:27.000Z</time>
      </trkpt>
      <trkpt lat="46.69768" lon="-2.34588">
        <ele>12.6</ele>
        <time>2018-09-20T12:01:28.000Z</time>
      </trkpt>
      <trkpt lat="46.69769" lon="-2.34588">
        <ele>12.7</ele>
        <time>2018-09-20T12:01:29.000Z</time>
      </trkpt>
      <trkpt lat="46.6977" lon="-2.34588">
        <ele>12.7</ele>
        <time>2018-09-20T12:01:30.000Z</time>
      </trkpt>
      <trkpt lat="46.69771" lon="-2.34589">
        <ele>12.7</ele>
        <time>2018-09-20T12:01:31.000Z</time>
      </trkpt>
      <trkpt lat="46.69772" lon="-2.34589">
        <ele>12.8</ele>
        <time>2018-09-20T12:01:32.000Z</time>
      </trkpt>
      <trkpt lat="46.69773" lon="-2.3459">
        <ele>12.8</ele>
        <time>2018-09-20T12:01:33.000Z</time>
      </trkpt>
      <trkpt lat="46.69774" lon="-2.34591">
        <ele>12.8</ele>
        <time>2018-09-20T12:01:34.000Z</time>
      </trkpt>
      <trkpt lat="46.69775" lon="-2.34591">
        <ele>12.8</ele>
        <time>2018-09-20T12:01:35.000Z</time>
      </trkpt>
      <trkpt lat="46.69776" lon="-2.34592">
        <ele>12.9</ele>
        <time>2018-09-20T12:01:36.000Z</time>
      </trkpt>
      <trkpt lat="46.69776" lon="-2.34593">
        <ele>12.9</ele>
        <time>2018-09-20T12:01:37.000Z</time>
      </trkpt>
      <trkpt lat="46.69777" lon="-2.34593">
        <ele>12.9</ele>
        <time>2018-09-20T12:01:38.000Z</time>
      </trkpt>
      <trkpt lat="46.69778" lon="-2.34594">
        <ele>12.9</ele>
        <time>2018-09-20T12:01:39.000Z</time>
      </trkpt>
      <trkpt lat="46.69779" lon="-2.34595">
        <ele>12.9</ele>
        <time>2018-09-20T12:01:40.000Z</time>
      </trkpt>
      <trkpt lat="46.6978" lon="-2.34596">
        <ele>13</ele>
        <time>2018-09-20T12:01:41.000Z</time>
      </trkpt>
      <trkpt lat="46.69781" lon="-2.34597">
        <ele>13</ele>
        <time>2018-09-20T12:01:42.000Z</time>
      </trkpt>
      <trkpt lat="46.69782" lon="-2.34598">
        <ele>13</ele>
        <time>2018-09-20T12:01:43.000Z</time>
      </trkpt>
      <trkpt lat="46.69783" lon="-2.34598">
        <ele>13</ele>
        <time>2018-09-20T12:01:44.000Z</time>
      </trkpt>
      <trkpt lat="46.69784" lon="-2.34599">
        <ele>13.1</ele>
        <time>2018-09-20T12:01:45.000Z</time>
      </trkpt>
      <trkpt lat="46.69785" lon="-2.346">
        <ele>13.1</ele>
        <time>2018-09-20T12:01:46.000Z</time>
      </trkpt>
      <trkpt lat="46.69786" lon="-2.34601">
        <ele>13.1</ele>
        <time>2018-09-20T12:01:47.000Z</time>
      </trkpt>
      <trkpt lat="46.69787" lon="-2.34602">
        <ele>13.1</ele>
        <time>2018-09-20T12:01:48.000Z</time>
      </trkpt>
      <trkpt lat="46.69788" lon="-2.34603">
        <ele>13.1</ele>
        <time>2018-09-20T12:01:49.000Z</time>
      </trkpt>
      <trkpt lat="46.69789" lon="-2.34603">
        <ele>13.2</ele>
        <time>2018-09-20T12:01:50.000Z</time>
      </trkpt>
      <trkpt lat="46.6979" lon="-2.34604">
        <ele>13.2</ele>
        <time>2018-09-20T12:01:51.000Z</time>
      </trkpt>
      <trkpt lat="46.69791" lon="-2.34605">
        <ele>13.2</ele>
        <time>2018-09-20T12:01:52.000Z</time>
      </trkpt>
      <trkpt lat="46.69792" lon="-2.34606">
        <ele>13.2</ele>
        <time>2018-09-20T12:01:53.000Z</time>
      </trkpt>
      <trkpt lat="46.69793" lon="-2.34607">
        <ele>13.3</ele>
        <time>2018-09-20T12:01:54.000Z</time>
      </trkpt>
      <trkpt lat="46.69794" lon="-2.34608">
        <ele>13.3</ele>
        <time>2018-09-20T12:01:55.000Z</time>
      </trkpt>
      <trkpt lat="46.69795" lon="-2.34608">
        <ele>13.3</ele>
        <time>2018-09-20T12:01:56.000Z</time>
      </trkpt>
      <trkpt lat="46.69796" lon="-2.34609">
        <ele>13.3</ele>
        <time>2018-09-20T12:01:57.000Z</time>
      </trkpt>
      <trkpt lat="46.69797" lon="-2.3461">
        <ele>13.3</ele>
        <time>2018-09-20T12:01:58.000Z</time>
      </trkpt>
      <trkpt lat="46.69799" lon="-2.34611">
        <ele>13.4</ele>
        <time>2018-09-20T12:01:59.000Z</time>
      </trkpt>
      <trkpt lat="46.698" lon="-2.34611">
        <ele>13.4</ele>
        <time>2018-09-20T12:02:00.000Z</time>
      </trkpt>
      <trkpt lat="46.69801" lon="-2.34612">
        <ele>13.4</ele>
        <time>2018-09-20T12:02:01.000Z</time>
      </trkpt>
      <trkpt lat="46.69802" lon="-2.34613">
        <ele>13.4</ele>
        <time>2018-09-20T12:02:02.000Z</time>
      </trkpt>
      <trkpt lat="46.69803" lon="-2.34613">
        <ele>13.4</ele>
        <time>2018-09-20T12:02:03.000Z</time>
      </trkpt>
      <trkpt lat="46.69804" lon="-2.34614">
        <ele>13.5</ele>
        <time>2018-09-20T12:02:04.000Z</time>
      </trkpt>
      <trkpt lat="46.69805" lon="-2.34614">
        <ele>13.5</ele>
        <time>2018-09-20T12:02:05.000Z</time>
      </trkpt>
      <trkpt lat="46.69806" lon="-2.34615">
        <ele>13.5</ele>
        <time>2018-09-20T12:02:06.000Z</time>
      </trkpt>
      <trkpt lat="46.69806" lon="-2.34616">
        <ele>13.5</ele>
        <time>2018-09-20T12:02:07.000Z</time>
      </trkpt>
      <trkpt lat="46.69807" lon="-2.34616">
        <ele>13.5</ele>
        <time>2018-09-20T12:02:08.000Z</time>
      </trkpt>
      <trkpt lat="46.69808" lon="-2.34617">
        <ele>13.5</ele>
        <time>2018-09-20T12:02:09.000Z</time>
      </trkpt>
      <trkpt lat="46.69809" lon="-2.34617">
        <ele>13.5</ele>
        <time>2018-09-20T12:02:10.000Z</time>
      </trkpt>
      <trkpt lat="46.6981" lon="-2.34618">
        <ele>13.5</ele>
        <time>2018-09-20T12:02:11.000Z</time>
      </trkpt>
      <trkpt lat="46.6981" lon="-2.34619">
        <ele>13.6</ele>
        <time>2018-09-20T12:02:12.000Z</time>
      </trkpt>
      <trkpt lat="46.69811" lon="-2.3462">
        <ele>13.6</ele>
        <time>2018-09-20T12:02:13.000Z</time>
      </trkpt>
      <trkpt lat="46.69812" lon="-2.34621">
        <ele>13.6</ele>
        <time>2018-09-20T12:02:14.000Z</time>
      </trkpt>
      <trkpt lat="46.69812" lon="-2.34622">
        <ele>13.6</ele>
        <time>2018-09-20T12:02:15.000Z</time>
      </trkpt>
      <trkpt lat="46.69813" lon="-2.34623">
        <ele>13.6</ele>
        <time>2018-09-20T12:02:16.000Z</time>
      </trkpt>
      <trkpt lat="46.69814" lon="-2.34624">
        <ele>13.6</ele>
        <time>2018-09-20T12:02:17.000Z</time>
      </trkpt>
      <trkpt lat="46.69815" lon="-2.34625">
        <ele>13.6</ele>
        <time>2018-09-20T12:02:18.000Z</time>
      </trkpt>
      <trkpt lat="46.69815" lon="-2.34626">
        <ele>13.6</ele>
        <time>2018-09-20T12:02:19.000Z</time>
      </trkpt>
      <trkpt lat="46.69816" lon="-2.34627">
        <ele>13.5</ele>
        <time>2018-09-20T12:02:20.000Z</time>
      </trkpt>
      <trkpt lat="46.69817" lon="-2.34628">
        <ele>13.5</ele>
        <time>2018-09-20T12:02:21.000Z</time>
      </trkpt>
      <trkpt lat="46.69818" lon="-2.34629">
        <ele>13.5</ele>
        <time>2018-09-20T12:02:22.000Z</time>
      </trkpt>
      <trkpt lat="46.69818" lon="-2.34631">
        <ele>13.5</ele>
        <time>2018-09-20T12:02:23.000Z</time>
      </trkpt>
      <trkpt lat="46.69819" lon="-2.34632">
        <ele>13.5</ele>
        <time>2018-09-20T12:02:24.000Z</time>
      </trkpt>
      <trkpt lat="46.6982" lon="-2.34633">
        <ele>13.5</ele>
        <time>2018-09-20T12:02:25.000Z</time>
      </trkpt>
      <trkpt lat="46.69821" lon="-2.34634">
        <ele>13.5</ele>
        <time>2018-09-20T12:02:26.000Z</time>
      </trkpt>
      <trkpt lat="46.69821" lon="-2.34635">
        <ele>13.5</ele>
        <time>2018-09-20T12:02:27.000Z</time>
      </trkpt>
      <trkpt lat="46.69822" lon="-2.34636">
        <ele>13.5</ele>
        <time>2018-09-20T12:02:28.000Z</time>
      </trkpt>
      <trkpt lat="46.69823" lon="-2.34637">
        <ele>13.5</ele>
        <time>2018-09-20T12:02:29.000Z</time>
      </trkpt>
      <trkpt lat="46.69823" lon="-2.34639">
        <ele>13.5</ele>
        <time>2018-09-20T12:02:30.000Z</time>
      </trkpt>
      <trkpt lat="46.69824" lon="-2.3464">
        <ele>13.5</ele>
        <time>2018-09-20T12:02:31.000Z</time>
      </trkpt>
      <trkpt lat="46.69825" lon="-2.34641">
        <ele>13.4</ele>
        <time>2018-09-20T12:02:32.000Z</time>
      </trkpt>
      <trkpt lat="46.69825" lon="-2.34642">
        <ele>13.4</ele>
        <time>2018-09-20T12:02:33.000Z</time>
      </trkpt>
      <trkpt lat="46.69826" lon="-2.34643">
        <ele>13.4</ele>
        <time>2018-09-20T12:02:34.000Z</time>
      </trkpt>
      <trkpt lat="46.69827" lon="-2.34644">
        <ele>13.4</ele>
        <time>2018-09-20T12:02:35.000Z</time>
      </trkpt>
      <trkpt lat="46.69827" lon="-2.34646">
        <ele>13.4</ele>
        <time>2018-09-20T12:02:36.000Z</time>
      </trkpt>
      <trkpt lat="46.69828" lon="-2.34647">
        <ele>13.4</ele>
        <time>2018-09-20T12:02:37.000Z</time>
      </trkpt>
      <trkpt lat="46.69828" lon="-2.34648">
        <ele>13.4</ele>
        <time>2018-09-20T12:02:38.000Z</time>
      </trkpt>
      <trkpt lat="46.69829" lon="-2.34649">
        <ele>13.3</ele>
        <time>2018-09-20T12:02:39.000Z</time>
      </trkpt>
      <trkpt lat="46.6983" lon="-2.3465">
        <ele>13.3</ele>
        <time>2018-09-20T12:02:40.000Z</time>
      </trkpt>
      <trkpt lat="46.6983" lon="-2.34651">
        <ele>13.3</ele>
        <time>2018-09-20T12:02:41.000Z</time>
      </trkpt>
      <trkpt lat="46.69831" lon="-2.34653">
        <ele>13.3</ele>
        <time>2018-09-20T12:02:42.000Z</time>
      </trkpt>
      <trkpt lat="46.69832" lon="-2.34654">
        <ele>13.3</ele>
        <time>2018-09-20T12:02:43.000Z</time>
      </trkpt>
      <trkpt lat="46.69832" lon="-2.34655">
        <ele>13.3</ele>
        <time>2018-09-20T12:02:44.000Z</time>
      </trkpt>
      <trkpt lat="46.69833" lon="-2.34656">
        <ele>13.2</ele>
        <time>2018-09-20T12:02:45.000Z</time>
      </trkpt>
      <trkpt lat="46.69834" lon="-2.34657">
        <ele>13.2</ele>
        <time>2018-09-20T12:02:46.000Z</time>
      </trkpt>
      <trkpt lat="46.69834" lon="-2.34659">
        <ele>13.2</ele>
        <time>2018-09-20T12:02:47.000Z</time>
      </trkpt>
      <trkpt lat="46.69835" lon="-2.3466">
        <ele>13.3</ele>
        <time>2018-09-20T12:02:48.000Z</time>
      </trkpt>
      <trkpt lat="46.69836" lon="-2.34661">
        <ele>13.3</ele>
        <time>2018-09-20T12:02:49.000Z</time>
      </trkpt>
      <trkpt lat="46.69837" lon="-2.34662">
        <ele>13.3</ele>
        <time>2018-09-20T12:02:50.000Z</time>
      </trkpt>
      <trkpt lat="46.69838" lon="-2.34664">
        <ele>13.3</ele>
        <time>2018-09-20T12:02:51.000Z</time>
      </trkpt>
      <trkpt lat="46.69838" lon="-2.34665">
        <ele>13.3</ele>
        <time>2018-09-20T12:02:52.000Z</time>
      </trkpt>
      <trkpt lat="46.69839" lon="-2.34666">
        <ele>13.3</ele>
        <time>2018-09-20T12:02:53.000Z</time>
      </trkpt>
      <trkpt lat="46.6984" lon="-2.34667">
        <ele>13.3</ele>
        <time>2018-09-20T12:02:54.000Z</time>
      </trkpt>
      <trkpt lat="46.69841" lon="-2.34669">
        <ele>13.4</ele>
        <time>2018-09-20T12:02:55.000Z</time>
      </trkpt>
      <trkpt lat="46.69842" lon="-2.3467">
        <ele>13.4</ele>
        <time>2018-09-20T12:02:56.000Z</time>
      </trkpt>
      <trkpt lat="46.69843" lon="-2.34671">
        <ele>13.5</ele>
        <time>2018-09-20T12:02:57.000Z</time>
      </trkpt>
      <trkpt lat="46.69844" lon="-2.34672">
        <ele>13.5</ele>
        <time>2018-09-20T12:02:58.000Z</time>
      </trkpt>
      <trkpt lat="46.69845" lon="-2.34673">
        <ele>13.6</ele>
        <time>2018-09-20T12:02:59.000Z</time>
      </trkpt>
      <trkpt lat="46.69845" lon="-2.34675">
        <ele>13.6</ele>
        <time>2018-09-20T12:03:00.000Z</time>
      </trkpt>
      <trkpt lat="46.69846" lon="-2.34676">
        <ele>13.7</ele>
        <time>2018-09-20T12:03:01.000Z</time>
      </trkpt>
      <trkpt lat="46.69847" lon="-2.34677">
        <ele>13.7</ele>
        <time>2018-09-20T12:03:02.000Z</time>
      </trkpt>
      <trkpt lat="46.69848" lon="-2.34678">
        <ele>13.8</ele>
        <time>2018-09-20T12:03:03.000Z</time>
      </trkpt>
      <trkpt lat="46.69849" lon="-2.34679">
        <ele>13.8</ele>
        <time>2018-09-20T12:03:04.000Z</time>
      </trkpt>
      <trkpt lat="46.6985" lon="-2.3468">
        <ele>13.9</ele>
        <time>2018-09-20T12:03:05.000Z</time>
      </trkpt>
      <trkpt lat="46.69851" lon="-2.34681">
        <ele>13.9</ele>
        <time>2018-09-20T12:03:06.000Z</time>
      </trkpt>
      <trkpt lat="46.69852" lon="-2.34681">
        <ele>14</ele>
        <time>2018-09-20T12:03:07.000Z</time>
      </trkpt>
      <trkpt lat="46.69853" lon="-2.34682">
        <ele>14</ele>
        <time>2018-09-20T12:03:08.000Z</time>
      </trkpt>
      <trkpt lat="46.69854" lon="-2.34683">
        <ele>14.1</ele>
        <time>2018-09-20T12:03:09.000Z</time>
      </trkpt>
      <trkpt lat="46.69855" lon="-2.34684">
        <ele>14.1</ele>
        <time>2018-09-20T12:03:10.000Z</time>
      </trkpt>
      <trkpt lat="46.69856" lon="-2.34685">
        <ele>14.1</ele>
        <time>2018-09-20T12:03:11.000Z</time>
      </trkpt>
      <trkpt lat="46.69858" lon="-2.34685">
        <ele>14.2</ele>
        <time>2018-09-20T12:03:12.000Z</time>
      </trkpt>
      <trkpt lat="46.69859" lon="-2.34686">
        <ele>14.2</ele>
        <time>2018-09-20T12:03:13.000Z</time>
      </trkpt>
      <trkpt lat="46.6986" lon="-2.34686">
        <ele>14.3</ele>
        <time>2018-09-20T12:03:14.000Z</time>
      </trkpt>
      <trkpt lat="46.69861" lon="-2.34687">
        <ele>14.3</ele>
        <time>2018-09-20T12:03:15.000Z</time>
      </trkpt>
      <trkpt lat="46.69862" lon="-2.34688">
        <ele>14.4</ele>
        <time>2018-09-20T12:03:16.000Z</time>
      </trkpt>
      <trkpt lat="46.69863" lon="-2.34689">
        <ele>14.4</ele>
        <time>2018-09-20T12:03:17.000Z</time>
      </trkpt>
      <trkpt lat="46.69864" lon="-2.34689">
        <ele>14.4</ele>
        <time>2018-09-20T12:03:18.000Z</time>
      </trkpt>
      <trkpt lat="46.69865" lon="-2.3469">
        <ele>14.5</ele>
        <time>2018-09-20T12:03:19.000Z</time>
      </trkpt>
      <trkpt lat="46.69866" lon="-2.34691">
        <ele>14.5</ele>
        <time>2018-09-20T12:03:20.000Z</time>
      </trkpt>
      <trkpt lat="46.69867" lon="-2.34692">
        <ele>14.5</ele>
        <time>2018-09-20T12:03:21.000Z</time>
      </trkpt>
      <trkpt lat="46.69868" lon="-2.34692">
        <ele>14.6</ele>
        <time>2018-09-20T12:03:22.000Z</time>
      </trkpt>
      <trkpt lat="46.69869" lon="-2.34693">
        <ele>14.6</ele>
        <time>2018-09-20T12:03:23.000Z</time>
      </trkpt>
      <trkpt lat="46.6987" lon="-2.34694">
        <ele>14.7</ele>
        <time>2018-09-20T12:03:24.000Z</time>
      </trkpt>
      <trkpt lat="46.69871" lon="-2.34695">
        <ele>14.7</ele>
        <time>2018-09-20T12:03:25.000Z</time>
      </trkpt>
      <trkpt lat="46.69872" lon="-2.34696">
        <ele>14.7</ele>
        <time>2018-09-20T12:03:26.000Z</time>
      </trkpt>
      <trkpt lat="46.69873" lon="-2.34697">
        <ele>14.7</ele>
        <time>2018-09-20T12:03:27.000Z</time>
      </trkpt>
      <trkpt lat="46.69874" lon="-2.34698">
        <ele>14.8</ele>
        <time>2018-09-20T12:03:28.000Z</time>
      </trkpt>
      <trkpt lat="46.69875" lon="-2.34699">
        <ele>14.8</ele>
        <time>2018-09-20T12:03:29.000Z</time>
      </trkpt>
      <trkpt lat="46.69876" lon="-2.347">
        <ele>14.8</ele>
        <time>2018-09-20T12:03:30.000Z</time>
      </trkpt>
      <trkpt lat="46.69877" lon="-2.34701">
        <ele>14.8</ele>
        <time>2018-09-20T12:03:31.000Z</time>
      </trkpt>
      <trkpt lat="46.69877" lon="-2.34702">
        <ele>14.9</ele>
        <time>2018-09-20T12:03:32.000Z</time>
      </trkpt>
      <trkpt lat="46.69878" lon="-2.34703">
        <ele>14.9</ele>
        <time>2018-09-20T12:03:33.000Z</time>
      </trkpt>
      <trkpt lat="46.69879" lon="-2.34704">
        <ele>14.9</ele>
        <time>2018-09-20T12:03:34.000Z</time>
      </trkpt>
      <trkpt lat="46.6988" lon="-2.34705">
        <ele>14.9</ele>
        <time>2018-09-20T12:03:35.000Z</time>
      </trkpt>
      <trkpt lat="46.69881" lon="-2.34706">
        <ele>14.9</ele>
        <time>2018-09-20T12:03:36.000Z</time>
      </trkpt>
      <trkpt lat="46.69882" lon="-2.34707">
        <ele>15</ele>
        <time>2018-09-20T12:03:37.000Z</time>
      </trkpt>
      <trkpt lat="46.69883" lon="-2.34708">
        <ele>15</ele>
        <time>2018-09-20T12:03:38.000Z</time>
      </trkpt>
      <trkpt lat="46.69884" lon="-2.34709">
        <ele>15</ele>
        <time>2018-09-20T12:03:39.000Z</time>
      </trkpt>
      <trkpt lat="46.69885" lon="-2.3471">
        <ele>15</ele>
        <time>2018-09-20T12:03:40.000Z</time>
      </trkpt>
      <trkpt lat="46.69886" lon="-2.34711">
        <ele>15</ele>
        <time>2018-09-20T12:03:41.000Z</time>
      </trkpt>
      <trkpt lat="46.69887" lon="-2.34712">
        <ele>15.1</ele>
        <time>2018-09-20T12:03:42.000Z</time>
      </trkpt>
      <trkpt lat="46.69888" lon="-2.34712">
        <ele>15.1</ele>
        <time>2018-09-20T12:03:43.000Z</time>
      </trkpt>
      <trkpt lat="46.69889" lon="-2.34713">
        <ele>15.1</ele>
        <time>2018-09-20T12:03:44.000Z</time>
      </trkpt>
      <trkpt lat="46.6989" lon="-2.34714">
        <ele>15.1</ele>
        <time>2018-09-20T12:03:45.000Z</time>
      </trkpt>
      <trkpt lat="46.69891" lon="-2.34714">
        <ele>15.1</ele>
        <time>2018-09-20T12:03:46.000Z</time>
      </trkpt>
      <trkpt lat="46.69892" lon="-2.34715">
        <ele>15.2</ele>
        <time>2018-09-20T12:03:47.000Z</time>
      </trkpt>
      <trkpt lat="46.69893" lon="-2.34716">
        <ele>15.2</ele>
        <time>2018-09-20T12:03:48.000Z</time>
      </trkpt>
      <trkpt lat="46.69894" lon="-2.34716">
        <ele>15.2</ele>
        <time>2018-09-20T12:03:49.000Z</time>
      </trkpt>
      <trkpt lat="46.69895" lon="-2.34717">
        <ele>15.2</ele>
        <time>2018-09-20T12:03:50.000Z</time>
      </trkpt>
      <trkpt lat="46.69896" lon="-2.34718">
        <ele>15.2</ele>
        <time>2018-09-20T12:03:51.000Z</time>
      </trkpt>
      <trkpt lat="46.69897" lon="-2.34718">
        <ele>15.3</ele>
        <time>2018-09-20T12:03:52.000Z</time>
      </trkpt>
      <trkpt lat="46.69898" lon="-2.34719">
        <ele>15.3</ele>
        <time>2018-09-20T12:03:53.000Z</time>
      </trkpt>
      <trkpt lat="46.69899" lon="-2.3472">
        <ele>15.3</ele>
        <time>2018-09-20T12:03:54.000Z</time>
      </trkpt>
      <trkpt lat="46.699" lon="-2.3472">
        <ele>15.3</ele>
        <time>2018-09-20T12:03:55.000Z</time>
      </trkpt>
      <trkpt lat="46.69901" lon="-2.34721">
        <ele>15.3</ele>
        <time>2018-09-20T12:03:56.000Z</time>
      </trkpt>
      <trkpt lat="46.69902" lon="-2.34722">
        <ele>15.3</ele>
        <time>2018-09-20T12:03:57.000Z</time>
      </trkpt>
      <trkpt lat="46.69903" lon="-2.34722">
        <ele>15.3</ele>
        <time>2018-09-20T12:03:58.000Z</time>
      </trkpt>
      <trkpt lat="46.69904" lon="-2.34723">
        <ele>15.3</ele>
        <time>2018-09-20T12:03:59.000Z</time>
      </trkpt>
      <trkpt lat="46.69905" lon="-2.34723">
        <ele>15.4</ele>
        <time>2018-09-20T12:04:00.000Z</time>
      </trkpt>
      <trkpt lat="46.69906" lon="-2.34724">
        <ele>15.4</ele>
        <time>2018-09-20T12:04:01.000Z</time>
      </trkpt>
      <trkpt lat="46.69906" lon="-2.34724">
        <ele>15.4</ele>
        <time>2018-09-20T12:04:02.000Z</time>
      </trkpt>
      <trkpt lat="46.69907" lon="-2.34725">
        <ele>15.4</ele>
        <time>2018-09-20T12:04:03.000Z</time>
      </trkpt>
      <trkpt lat="46.69908" lon="-2.34725">
        <ele>15.4</ele>
        <time>2018-09-20T12:04:04.000Z</time>
      </trkpt>
      <trkpt lat="46.69909" lon="-2.34726">
        <ele>15.4</ele>
        <time>2018-09-20T12:04:05.000Z</time>
      </trkpt>
      <trkpt lat="46.6991" lon="-2.34726">
        <ele>15.4</ele>
        <time>2018-09-20T12:04:06.000Z</time>
      </trkpt>
      <trkpt lat="46.69911" lon="-2.34727">
        <ele>15.4</ele>
        <time>2018-09-20T12:04:07.000Z</time>
      </trkpt>
      <trkpt lat="46.69911" lon="-2.34728">
        <ele>15.4</ele>
        <time>2018-09-20T12:04:08.000Z</time>
      </trkpt>
      <trkpt lat="46.69912" lon="-2.34729">
        <ele>15.4</ele>
        <time>2018-09-20T12:04:09.000Z</time>
      </trkpt>
      <trkpt lat="46.69913" lon="-2.3473">
        <ele>15.4</ele>
        <time>2018-09-20T12:04:10.000Z</time>
      </trkpt>
      <trkpt lat="46.69914" lon="-2.34731">
        <ele>15.4</ele>
        <time>2018-09-20T12:04:11.000Z</time>
      </trkpt>
      <trkpt lat="46.69914" lon="-2.34732">
        <ele>15.4</ele>
        <time>2018-09-20T12:04:12.000Z</time>
      </trkpt>
      <trkpt lat="46.69915" lon="-2.34733">
        <ele>15.4</ele>
        <time>2018-09-20T12:04:13.000Z</time>
      </trkpt>
      <trkpt lat="46.69916" lon="-2.34735">
        <ele>15.3</ele>
        <time>2018-09-20T12:04:14.000Z</time>
      </trkpt>
      <trkpt lat="46.69916" lon="-2.34736">
        <ele>15.3</ele>
        <time>2018-09-20T12:04:15.000Z</time>
      </trkpt>
      <trkpt lat="46.69917" lon="-2.34738">
        <ele>15.3</ele>
        <time>2018-09-20T12:04:16.000Z</time>
      </trkpt>
      <trkpt lat="46.69918" lon="-2.3474">
        <ele>15.3</ele>
        <time>2018-09-20T12:04:17.000Z</time>
      </trkpt>
      <trkpt lat="46.69919" lon="-2.34741">
        <ele>15.3</ele>
        <time>2018-09-20T12:04:18.000Z</time>
      </trkpt>
      <trkpt lat="46.6992" lon="-2.34743">
        <ele>15.3</ele>
        <time>2018-09-20T12:04:19.000Z</time>
      </trkpt>
      <trkpt lat="46.69921" lon="-2.34744">
        <ele>15.3</ele>
        <time>2018-09-20T12:04:20.000Z</time>
      </trkpt>
      <trkpt lat="46.69922" lon="-2.34745">
        <ele>15.3</ele>
        <time>2018-09-20T12:04:21.000Z</time>
      </trkpt>
      <trkpt lat="46.69923" lon="-2.34746">
        <ele>15.3</ele>
        <time>2018-09-20T12:04:22.000Z</time>
      </trkpt>
      <trkpt lat="46.69924" lon="-2.34747">
        <ele>15.4</ele>
        <time>2018-09-20T12:04:23.000Z</time>
      </trkpt>
      <trkpt lat="46.69925" lon="-2.34748">
        <ele>15.4</ele>
        <time>2018-09-20T12:04:24.000Z</time>
      </trkpt>
      <trkpt lat="46.69926" lon="-2.34749">
        <ele>15.4</ele>
        <time>2018-09-20T12:04:25.000Z</time>
      </trkpt>
      <trkpt lat="46.69927" lon="-2.3475">
        <ele>15.4</ele>
        <time>2018-09-20T12:04:26.000Z</time>
      </trkpt>
      <trkpt lat="46.69928" lon="-2.34751">
        <ele>15.4</ele>
        <time>2018-09-20T12:04:27.000Z</time>
      </trkpt>
      <trkpt lat="46.69929" lon="-2.34752">
        <ele>15.4</ele>
        <time>2018-09-20T12:04:28.000Z</time>
      </trkpt>
      <trkpt lat="46.6993" lon="-2.34753">
        <ele>15.4</ele>
        <time>2018-09-20T12:04:29.000Z</time>
      </trkpt>
      <trkpt lat="46.69931" lon="-2.34754">
        <ele>15.4</ele>
        <time>2018-09-20T12:04:30.000Z</time>
      </trkpt>
      <trkpt lat="46.69931" lon="-2.34756">
        <ele>15.5</ele>
        <time>2018-09-20T12:04:31.000Z</time>
      </trkpt>
      <trkpt lat="46.69932" lon="-2.34757">
        <ele>15.5</ele>
        <time>2018-09-20T12:04:32.000Z</time>
      </trkpt>
      <trkpt lat="46.69933" lon="-2.34758">
        <ele>15.5</ele>
        <time>2018-09-20T12:04:33.000Z</time>
      </trkpt>
      <trkpt lat="46.69934" lon="-2.34759">
        <ele>15.5</ele>
        <time>2018-09-20T12:04:34.000Z</time>
      </trkpt>
      <trkpt lat="46.69935" lon="-2.3476">
        <ele>15.5</ele>
        <time>2018-09-20T12:04:35.000Z</time>
      </trkpt>
      <trkpt lat="46.69935" lon="-2.34761">
        <ele>15.5</ele>
        <time>2018-09-20T12:04:36.000Z</time>
      </trkpt>
      <trkpt lat="46.69936" lon="-2.34762">
        <ele>15.6</ele>
        <time>2018-09-20T12:04:37.000Z</time>
      </trkpt>
      <trkpt lat="46.69937" lon="-2.34763">
        <ele>15.6</ele>
        <time>2018-09-20T12:04:38.000Z</time>
      </trkpt>
      <trkpt lat="46.69939" lon="-2.34764">
        <ele>15.6</ele>
        <time>2018-09-20T12:04:39.000Z</time>
      </trkpt>
      <trkpt lat="46.6994" lon="-2.34765">
        <ele>15.6</ele>
        <time>2018-09-20T12:04:40.000Z</time>
      </trkpt>
      <trkpt lat="46.69941" lon="-2.34766">
        <ele>15.7</ele>
        <time>2018-09-20T12:04:41.000Z</time>
      </trkpt>
      <trkpt lat="46.69942" lon="-2.34767">
        <ele>15.7</ele>
        <time>2018-09-20T12:04:42.000Z</time>
      </trkpt>
      <trkpt lat="46.69943" lon="-2.34768">
        <ele>15.7</ele>
        <time>2018-09-20T12:04:43.000Z</time>
      </trkpt>
      <trkpt lat="46.69944" lon="-2.34769">
        <ele>15.8</ele>
        <time>2018-09-20T12:04:44.000Z</time>
      </trkpt>
      <trkpt lat="46.69946" lon="-2.3477">
        <ele>15.8</ele>
        <time>2018-09-20T12:04:45.000Z</time>
      </trkpt>
      <trkpt lat="46.69947" lon="-2.34771">
        <ele>15.8</ele>
        <time>2018-09-20T12:04:46.000Z</time>
      </trkpt>
      <trkpt lat="46.69948" lon="-2.34772">
        <ele>15.9</ele>
        <time>2018-09-20T12:04:47.000Z</time>
      </trkpt>
      <trkpt lat="46.69949" lon="-2.34772">
        <ele>15.9</ele>
        <time>2018-09-20T12:04:48.000Z</time>
      </trkpt>
      <trkpt lat="46.6995" lon="-2.34773">
        <ele>15.9</ele>
        <time>2018-09-20T12:04:49.000Z</time>
      </trkpt>
      <trkpt lat="46.69951" lon="-2.34774">
        <ele>16</ele>
        <time>2018-09-20T12:04:50.000Z</time>
      </trkpt>
      <trkpt lat="46.69953" lon="-2.34775">
        <ele>16</ele>
        <time>2018-09-20T12:04:51.000Z</time>
      </trkpt>
      <trkpt lat="46.69954" lon="-2.34775">
        <ele>16</ele>
        <time>2018-09-20T12:04:52.000Z</time>
      </trkpt>
      <trkpt lat="46.69955" lon="-2.34776">
        <ele>16.1</ele>
        <time>2018-09-20T12:04:53.000Z</time>
      </trkpt>
      <trkpt lat="46.69956" lon="-2.34777">
        <ele>16.1</ele>
        <time>2018-09-20T12:04:54.000Z</time>
      </trkpt>
      <trkpt lat="46.69957" lon="-2.34777">
        <ele>16.1</ele>
        <time>2018-09-20T12:04:55.000Z</time>
      </trkpt>
      <trkpt lat="46.69958" lon="-2.34778">
        <ele>16.2</ele>
        <time>2018-09-20T12:04:56.000Z</time>
      </trkpt>
      <trkpt lat="46.69959" lon="-2.34778">
        <ele>16.2</ele>
        <time>2018-09-20T12:04:57.000Z</time>
      </trkpt>
      <trkpt lat="46.6996" lon="-2.34779">
        <ele>16.2</ele>
        <time>2018-09-20T12:04:58.000Z</time>
      </trkpt>
      <trkpt lat="46.69962" lon="-2.34779">
        <ele>16.3</ele>
        <time>2018-09-20T12:04:59.000Z</time>
      </trkpt>
      <trkpt lat="46.69963" lon="-2.3478">
        <ele>16.3</ele>
        <time>2018-09-20T12:05:00.000Z</time>
      </trkpt>
      <trkpt lat="46.69964" lon="-2.3478">
        <ele>16.3</ele>
        <time>2018-09-20T12:05:01.000Z</time>
      </trkpt>
      <trkpt lat="46.69965" lon="-2.3478">
        <ele>16.4</ele>
        <time>2018-09-20T12:05:02.000Z</time>
      </trkpt>
      <trkpt lat="46.69966" lon="-2.3478">
        <ele>16.4</ele>
        <time>2018-09-20T12:05:03.000Z</time>
      </trkpt>
      <trkpt lat="46.69967" lon="-2.34781">
        <ele>16.4</ele>
        <time>2018-09-20T12:05:04.000Z</time>
      </trkpt>
      <trkpt lat="46.69968" lon="-2.34781">
        <ele>16.5</ele>
        <time>2018-09-20T12:05:05.000Z</time>
      </trkpt>
      <trkpt lat="46.69969" lon="-2.34781">
        <ele>16.5</ele>
        <time>2018-09-20T12:05:06.000Z</time>
      </trkpt>
      <trkpt lat="46.6997" lon="-2.34781">
        <ele>16.5</ele>
        <time>2018-09-20T12:05:07.000Z</time>
      </trkpt>
      <trkpt lat="46.69971" lon="-2.34782">
        <ele>16.6</ele>
        <time>2018-09-20T12:05:08.000Z</time>
      </trkpt>
      <trkpt lat="46.69972" lon="-2.34782">
        <ele>16.6</ele>
        <time>2018-09-20T12:05:09.000Z</time>
      </trkpt>
      <trkpt lat="46.69973" lon="-2.34783">
        <ele>16.6</ele>
        <time>2018-09-20T12:05:10.000Z</time>
      </trkpt>
      <trkpt lat="46.69974" lon="-2.34783">
        <ele>16.7</ele>
        <time>2018-09-20T12:05:11.000Z</time>
      </trkpt>
      <trkpt lat="46.69975" lon="-2.34784">
        <ele>16.7</ele>
        <time>2018-09-20T12:05:12.000Z</time>
      </trkpt>
      <trkpt lat="46.69976" lon="-2.34784">
        <ele>16.7</ele>
        <time>2018-09-20T12:05:13.000Z</time>
      </trkpt>
      <trkpt lat="46.69977" lon="-2.34785">
        <ele>16.8</ele>
        <time>2018-09-20T12:05:14.000Z</time>
      </trkpt>
      <trkpt lat="46.69978" lon="-2.34785">
        <ele>16.8</ele>
        <time>2018-09-20T12:05:15.000Z</time>
      </trkpt>
      <trkpt lat="46.69979" lon="-2.34786">
        <ele>16.8</ele>
        <time>2018-09-20T12:05:16.000Z</time>
      </trkpt>
      <trkpt lat="46.6998" lon="-2.34786">
        <ele>16.8</ele>
        <time>2018-09-20T12:05:17.000Z</time>
      </trkpt>
      <trkpt lat="46.69981" lon="-2.34787">
        <ele>16.9</ele>
        <time>2018-09-20T12:05:18.000Z</time>
      </trkpt>
      <trkpt lat="46.69982" lon="-2.34787">
        <ele>16.9</ele>
        <time>2018-09-20T12:05:19.000Z</time>
      </trkpt>
      <trkpt lat="46.69983" lon="-2.34788">
        <ele>16.9</ele>
        <time>2018-09-20T12:05:20.000Z</time>
      </trkpt>
      <trkpt lat="46.69984" lon="-2.34788">
        <ele>17</ele>
        <time>2018-09-20T12:05:21.000Z</time>
      </trkpt>
      <trkpt lat="46.69985" lon="-2.34789">
        <ele>17</ele>
        <time>2018-09-20T12:05:22.000Z</time>
      </trkpt>
      <trkpt lat="46.69986" lon="-2.34789">
        <ele>17</ele>
        <time>2018-09-20T12:05:23.000Z</time>
      </trkpt>
      <trkpt lat="46.69987" lon="-2.3479">
        <ele>17.1</ele>
        <time>2018-09-20T12:05:24.000Z</time>
      </trkpt>
      <trkpt lat="46.69988" lon="-2.3479">
        <ele>17.1</ele>
        <time>2018-09-20T12:05:25.000Z</time>
      </trkpt>
      <trkpt lat="46.69989" lon="-2.34791">
        <ele>17.1</ele>
        <time>2018-09-20T12:05:26.000Z</time>
      </trkpt>
      <trkpt lat="46.69991" lon="-2.34791">
        <ele>17.2</ele>
        <time>2018-09-20T12:05:27.000Z</time>
      </trkpt>
      <trkpt lat="46.69992" lon="-2.34792">
        <ele>17.2</ele>
        <time>2018-09-20T12:05:28.000Z</time>
      </trkpt>
      <trkpt lat="46.69993" lon="-2.34792">
        <ele>17.2</ele>
        <time>2018-09-20T12:05:29.000Z</time>
      </trkpt>
      <trkpt lat="46.69994" lon="-2.34793">
        <ele>17.3</ele>
        <time>2018-09-20T12:05:30.000Z</time>
      </trkpt>
      <trkpt lat="46.69995" lon="-2.34793">
        <ele>17.3</ele>
        <time>2018-09-20T12:05:31.000Z</time>
      </trkpt>
      <trkpt lat="46.69996" lon="-2.34794">
        <ele>17.3</ele>
        <time>2018-09-20T12:05:32.000Z</time>
      </trkpt>
      <trkpt lat="46.69997" lon="-2.34794">
        <ele>17.4</ele>
        <time>2018-09-20T12:05:33.000Z</time>
      </trkpt>
      <trkpt lat="46.69998" lon="-2.34795">
        <ele>17.4</ele>
        <time>2018-09-20T12:05:34.000Z</time>
      </trkpt>
      <trkpt lat="46.69999" lon="-2.34795">
        <ele>17.4</ele>
        <time>2018-09-20T12:05:35.000Z</time>
      </trkpt>
      <trkpt lat="46.7" lon="-2.34796">
        <ele>17.5</ele>
        <time>2018-09-20T12:05:36.000Z</time>
      </trkpt>
      <trkpt lat="46.70001" lon="-2.34796">
        <ele>17.5</ele>
        <time>2018-09-20T12:05:37.000Z</time>
      </trkpt>
      <trkpt lat="46.70002" lon="-2.34797">
        <ele>17.5</ele>
        <time>2018-09-20T12:05:38.000Z</time>
      </trkpt>
      <trkpt lat="46.70004" lon="-2.34797">
        <ele>17.5</ele>
        <time>2018-09-20T12:05:39.000Z</time>
      </trkpt>
      <trkpt lat="46.70005" lon="-2.34798">
        <ele>17.6</ele>
        <time>2018-09-20T12:05:40.000Z</time>
      </trkpt>
      <trkpt lat="46.70006" lon="-2.34799">
        <ele>17.6</ele>
        <time>2018-09-20T12:05:41.000Z</time>
      </trkpt>
      <trkpt lat="46.70007" lon="-2.34799">
        <ele>17.6</ele>
        <time>2018-09-20T12:05:42.000Z</time>
      </trkpt>
      <trkpt lat="46.70008" lon="-2.348">
        <ele>17.6</ele>
        <time>2018-09-20T12:05:43.000Z</time>
      </trkpt>
      <trkpt lat="46.70009" lon="-2.348">
        <ele>17.7</ele>
        <time>2018-09-20T12:05:44.000Z</time>
      </trkpt>
      <trkpt lat="46.7001" lon="-2.34801">
        <ele>17.7</ele>
        <time>2018-09-20T12:05:45.000Z</time>
      </trkpt>
      <trkpt lat="46.70011" lon="-2.34802">
        <ele>17.7</ele>
        <time>2018-09-20T12:05:46.000Z</time>
      </trkpt>
      <trkpt lat="46.70012" lon="-2.34802">
        <ele>17.7</ele>
        <time>2018-09-20T12:05:47.000Z</time>
      </trkpt>
      <trkpt lat="46.70013" lon="-2.34803">
        <ele>17.8</ele>
        <time>2018-09-20T12:05:48.000Z</time>
      </trkpt>
      <trkpt lat="46.70014" lon="-2.34804">
        <ele>17.8</ele>
        <time>2018-09-20T12:05:49.000Z</time>
      </trkpt>
      <trkpt lat="46.70015" lon="-2.34805">
        <ele>17.8</ele>
        <time>2018-09-20T12:05:50.000Z</time>
      </trkpt>
      <trkpt lat="46.70016" lon="-2.34806">
        <ele>17.8</ele>
        <time>2018-09-20T12:05:51.000Z</time>
      </trkpt>
      <trkpt lat="46.70017" lon="-2.34806">
        <ele>17.9</ele>
        <time>2018-09-20T12:05:52.000Z</time>
      </trkpt>
      <trkpt lat="46.70018" lon="-2.34807">
        <ele>17.9</ele>
        <time>2018-09-20T12:05:53.000Z</time>
      </trkpt>
      <trkpt lat="46.70019" lon="-2.34808">
        <ele>17.9</ele>
        <time>2018-09-20T12:05:54.000Z</time>
      </trkpt>
      <trkpt lat="46.7002" lon="-2.34809">
        <ele>17.9</ele>
        <time>2018-09-20T12:05:55.000Z</time>
      </trkpt>
      <trkpt lat="46.7002" lon="-2.3481">
        <ele>17.9</ele>
        <time>2018-09-20T12:05:56.000Z</time>
      </trkpt>
      <trkpt lat="46.70021" lon="-2.34811">
        <ele>18</ele>
        <time>2018-09-20T12:05:57.000Z</time>
      </trkpt>
      <trkpt lat="46.70022" lon="-2.34812">
        <ele>18</ele>
        <time>2018-09-20T12:05:58.000Z</time>
      </trkpt>
      <trkpt lat="46.70023" lon="-2.34813">
        <ele>18</ele>
        <time>2018-09-20T12:05:59.000Z</time>
      </trkpt>
      <trkpt lat="46.70024" lon="-2.34814">
        <ele>18</ele>
        <time>2018-09-20T12:06:00.000Z</time>
      </trkpt>
      <trkpt lat="46.70024" lon="-2.34815">
        <ele>18</ele>
        <time>2018-09-20T12:06:01.000Z</time>
      </trkpt>
      <trkpt lat="46.70025" lon="-2.34816">
        <ele>18</ele>
        <time>2018-09-20T12:06:02.000Z</time>
      </trkpt>
      <trkpt lat="46.70026" lon="-2.34818">
        <ele>18.1</ele>
        <time>2018-09-20T12:06:03.000Z</time>
      </trkpt>
      <trkpt lat="46.70027" lon="-2.34819">
        <ele>18.1</ele>
        <time>2018-09-20T12:06:04.000Z</time>
      </trkpt>
      <trkpt lat="46.70027" lon="-2.3482">
        <ele>18.1</ele>
        <time>2018-09-20T12:06:05.000Z</time>
      </trkpt>
      <trkpt lat="46.70028" lon="-2.34821">
        <ele>18.1</ele>
        <time>2018-09-20T12:06:06.000Z</time>
      </trkpt>
      <trkpt lat="46.70028" lon="-2.34823">
        <ele>18.1</ele>
        <time>2018-09-20T12:06:07.000Z</time>
      </trkpt>
      <trkpt lat="46.70029" lon="-2.34824">
        <ele>18.1</ele>
        <time>2018-09-20T12:06:08.000Z</time>
      </trkpt>
      <trkpt lat="46.7003" lon="-2.34825">
        <ele>18.1</ele>
        <time>2018-09-20T12:06:09.000Z</time>
      </trkpt>
      <trkpt lat="46.7003" lon="-2.34827">
        <ele>18.1</ele>
        <time>2018-09-20T12:06:10.000Z</time>
      </trkpt>
      <trkpt lat="46.70031" lon="-2.34828">
        <ele>18.2</ele>
        <time>2018-09-20T12:06:11.000Z</time>
      </trkpt>
      <trkpt lat="46.70032" lon="-2.34829">
        <ele>18.2</ele>
        <time>2018-09-20T12:06:12.000Z</time>
      </trkpt>
      <trkpt lat="46.70032" lon="-2.34831">
        <ele>18.2</ele>
        <time>2018-09-20T12:06:13.000Z</time>
      </trkpt>
      <trkpt lat="46.70033" lon="-2.34832">
        <ele>18.2</ele>
        <time>2018-09-20T12:06:14.000Z</time>
      </trkpt>
      <trkpt lat="46.70034" lon="-2.34833">
        <ele>18.2</ele>
        <time>2018-09-20T12:06:15.000Z</time>
      </trkpt>
      <trkpt lat="46.70034" lon="-2.34834">
        <ele>18.2</ele>
        <time>2018-09-20T12:06:16.000Z</time>
      </trkpt>
      <trkpt lat="46.70035" lon="-2.34835">
        <ele>18.3</ele>
        <time>2018-09-20T12:06:17.000Z</time>
      </trkpt>
      <trkpt lat="46.70036" lon="-2.34837">
        <ele>18.3</ele>
        <time>2018-09-20T12:06:18.000Z</time>
      </trkpt>
      <trkpt lat="46.70037" lon="-2.34838">
        <ele>18.3</ele>
        <time>2018-09-20T12:06:19.000Z</time>
      </trkpt>
      <trkpt lat="46.70037" lon="-2.34839">
        <ele>18.3</ele>
        <time>2018-09-20T12:06:20.000Z</time>
      </trkpt>
      <trkpt lat="46.70038" lon="-2.3484">
        <ele>18.3</ele>
        <time>2018-09-20T12:06:21.000Z</time>
      </trkpt>
      <trkpt lat="46.70039" lon="-2.34841">
        <ele>18.4</ele>
        <time>2018-09-20T12:06:22.000Z</time>
      </trkpt>
      <trkpt lat="46.7004" lon="-2.34842">
        <ele>18.4</ele>
        <time>2018-09-20T12:06:23.000Z</time>
      </trkpt>
      <trkpt lat="46.70041" lon="-2.34844">
        <ele>18.4</ele>
        <time>2018-09-20T12:06:24.000Z</time>
      </trkpt>
      <trkpt lat="46.70041" lon="-2.34845">
        <ele>18.4</ele>
        <time>2018-09-20T12:06:25.000Z</time>
      </trkpt>
      <trkpt lat="46.70042" lon="-2.34846">
        <ele>18.4</ele>
        <time>2018-09-20T12:06:26.000Z</time>
      </trkpt>
      <trkpt lat="46.70043" lon="-2.34848">
        <ele>18.5</ele>
        <time>2018-09-20T12:06:27.000Z</time>
      </trkpt>
      <trkpt lat="46.70044" lon="-2.34849">
        <ele>18.5</ele>
        <time>2018-09-20T12:06:28.000Z</time>
      </trkpt>
      <trkpt lat="46.70045" lon="-2.3485">
        <ele>18.5</ele>
        <time>2018-09-20T12:06:29.000Z</time>
      </trkpt>
      <trkpt lat="46.70045" lon="-2.34852">
        <ele>18.5</ele>
        <time>2018-09-20T12:06:30.000Z</time>
      </trkpt>
      <trkpt lat="46.70046" lon="-2.34853">
        <ele>18.5</ele>
        <time>2018-09-20T12:06:31.000Z</time>
      </trkpt>
      <trkpt lat="46.70047" lon="-2.34855">
        <ele>18.5</ele>
        <time>2018-09-20T12:06:32.000Z</time>
      </trkpt>
      <trkpt lat="46.70048" lon="-2.34856">
        <ele>18.6</ele>
        <time>2018-09-20T12:06:33.000Z</time>
      </trkpt>
      <trkpt lat="46.70048" lon="-2.34858">
        <ele>18.6</ele>
        <time>2018-09-20T12:06:34.000Z</time>
      </trkpt>
      <trkpt lat="46.70049" lon="-2.34859">
        <ele>18.6</ele>
        <time>2018-09-20T12:06:35.000Z</time>
      </trkpt>
      <trkpt lat="46.7005" lon="-2.34861">
        <ele>18.6</ele>
        <time>2018-09-20T12:06:36.000Z</time>
      </trkpt>
      <trkpt lat="46.7005" lon="-2.34862">
        <ele>18.6</ele>
        <time>2018-09-20T12:06:37.000Z</time>
      </trkpt>
      <trkpt lat="46.70051" lon="-2.34864">
        <ele>18.6</ele>
        <time>2018-09-20T12:06:38.000Z</time>
      </trkpt>
      <trkpt lat="46.70052" lon="-2.34865">
        <ele>18.6</ele>
        <time>2018-09-20T12:06:39.000Z</time>
      </trkpt>
      <trkpt lat="46.70052" lon="-2.34867">
        <ele>18.6</ele>
        <time>2018-09-20T12:06:40.000Z</time>
      </trkpt>
      <trkpt lat="46.70053" lon="-2.34869">
        <ele>18.6</ele>
        <time>2018-09-20T12:06:41.000Z</time>
      </trkpt>
      <trkpt lat="46.70053" lon="-2.3487">
        <ele>18.6</ele>
        <time>2018-09-20T12:06:42.000Z</time>
      </trkpt>
      <trkpt lat="46.70054" lon="-2.34872">
        <ele>18.6</ele>
        <time>2018-09-20T12:06:43.000Z</time>
      </trkpt>
      <trkpt lat="46.70055" lon="-2.34873">
        <ele>18.6</ele>
        <time>2018-09-20T12:06:44.000Z</time>
      </trkpt>
      <trkpt lat="46.70055" lon="-2.34875">
        <ele>18.7</ele>
        <time>2018-09-20T12:06:45.000Z</time>
      </trkpt>
      <trkpt lat="46.70056" lon="-2.34876">
        <ele>18.7</ele>
        <time>2018-09-20T12:06:46.000Z</time>
      </trkpt>
      <trkpt lat="46.70056" lon="-2.34878">
        <ele>18.7</ele>
        <time>2018-09-20T12:06:47.000Z</time>
      </trkpt>
      <trkpt lat="46.70057" lon="-2.34879">
        <ele>18.7</ele>
        <time>2018-09-20T12:06:48.000Z</time>
      </trkpt>
      <trkpt lat="46.70058" lon="-2.3488">
        <ele>18.7</ele>
        <time>2018-09-20T12:06:49.000Z</time>
      </trkpt>
      <trkpt lat="46.70059" lon="-2.34882">
        <ele>18.7</ele>
        <time>2018-09-20T12:06:50.000Z</time>
      </trkpt>
      <trkpt lat="46.70059" lon="-2.34883">
        <ele>18.7</ele>
        <time>2018-09-20T12:06:51.000Z</time>
      </trkpt>
      <trkpt lat="46.7006" lon="-2.34884">
        <ele>18.7</ele>
        <time>2018-09-20T12:06:52.000Z</time>
      </trkpt>
      <trkpt lat="46.70061" lon="-2.34886">
        <ele>18.7</ele>
        <time>2018-09-20T12:06:53.000Z</time>
      </trkpt>
      <trkpt lat="46.70062" lon="-2.34887">
        <ele>18.7</ele>
        <time>2018-09-20T12:06:54.000Z</time>
      </trkpt>
      <trkpt lat="46.70062" lon="-2.34888">
        <ele>18.8</ele>
        <time>2018-09-20T12:06:55.000Z</time>
      </trkpt>
      <trkpt lat="46.70063" lon="-2.3489">
        <ele>18.8</ele>
        <time>2018-09-20T12:06:56.000Z</time>
      </trkpt>
      <trkpt lat="46.70064" lon="-2.34891">
        <ele>18.8</ele>
        <time>2018-09-20T12:06:57.000Z</time>
      </trkpt>
      <trkpt lat="46.70065" lon="-2.34892">
        <ele>18.8</ele>
        <time>2018-09-20T12:06:58.000Z</time>
      </trkpt>
      <trkpt lat="46.70066" lon="-2.34894">
        <ele>18.8</ele>
        <time>2018-09-20T12:06:59.000Z</time>
      </trkpt>
      <trkpt lat="46.70066" lon="-2.34895">
        <ele>18.8</ele>
        <time>2018-09-20T12:07:00.000Z</time>
      </trkpt>
      <trkpt lat="46.70067" lon="-2.34896">
        <ele>18.8</ele>
        <time>2018-09-20T12:07:01.000Z</time>
      </trkpt>
      <trkpt lat="46.70068" lon="-2.34898">
        <ele>18.8</ele>
        <time>2018-09-20T12:07:02.000Z</time>
      </trkpt>
      <trkpt lat="46.70069" lon="-2.34899">
        <ele>18.8</ele>
        <time>2018-09-20T12:07:03.000Z</time>
      </trkpt>
      <trkpt lat="46.70069" lon="-2.349">
        <ele>18.8</ele>
        <time>2018-09-20T12:07:04.000Z</time>
      </trkpt>
      <trkpt lat="46.7007" lon="-2.34902">
        <ele>18.8</ele>
        <time>2018-09-20T12:07:05.000Z</time>
      </trkpt>
      <trkpt lat="46.70071" lon="-2.34903">
        <ele>18.8</ele>
        <time>2018-09-20T12:07:06.000Z</time>
      </trkpt>
      <trkpt lat="46.70072" lon="-2.34904">
        <ele>18.8</ele>
        <time>2018-09-20T12:07:07.000Z</time>
      </trkpt>
      <trkpt lat="46.70072" lon="-2.34906">
        <ele>18.9</ele>
        <time>2018-09-20T12:07:08.000Z</time>
      </trkpt>
      <trkpt lat="46.70073" lon="-2.34907">
        <ele>18.9</ele>
        <time>2018-09-20T12:07:09.000Z</time>
      </trkpt>
      <trkpt lat="46.70074" lon="-2.34908">
        <ele>18.9</ele>
        <time>2018-09-20T12:07:10.000Z</time>
      </trkpt>
      <trkpt lat="46.70074" lon="-2.3491">
        <ele>18.9</ele>
        <time>2018-09-20T12:07:11.000Z</time>
      </trkpt>
      <trkpt lat="46.70075" lon="-2.34911">
        <ele>18.9</ele>
        <time>2018-09-20T12:07:12.000Z</time>
      </trkpt>
      <trkpt lat="46.70076" lon="-2.34912">
        <ele>18.9</ele>
        <time>2018-09-20T12:07:13.000Z</time>
      </trkpt>
      <trkpt lat="46.70077" lon="-2.34913">
        <ele>18.9</ele>
        <time>2018-09-20T12:07:14.000Z</time>
      </trkpt>
      <trkpt lat="46.70077" lon="-2.34915">
        <ele>18.9</ele>
        <time>2018-09-20T12:07:15.000Z</time>
      </trkpt>
      <trkpt lat="46.70078" lon="-2.34916">
        <ele>18.9</ele>
        <time>2018-09-20T12:07:16.000Z</time>
      </trkpt>
      <trkpt lat="46.70079" lon="-2.34917">
        <ele>18.9</ele>
        <time>2018-09-20T12:07:17.000Z</time>
      </trkpt>
      <trkpt lat="46.70079" lon="-2.34918">
        <ele>18.9</ele>
        <time>2018-09-20T12:07:18.000Z</time>
      </trkpt>
      <trkpt lat="46.7008" lon="-2.34919">
        <ele>18.9</ele>
        <time>2018-09-20T12:07:19.000Z</time>
      </trkpt>
      <trkpt lat="46.70081" lon="-2.34921">
        <ele>18.9</ele>
        <time>2018-09-20T12:07:20.000Z</time>
      </trkpt>
      <trkpt lat="46.70082" lon="-2.34922">
        <ele>19</ele>
        <time>2018-09-20T12:07:21.000Z</time>
      </trkpt>
      <trkpt lat="46.70082" lon="-2.34923">
        <ele>19</ele>
        <time>2018-09-20T12:07:22.000Z</time>
      </trkpt>
      <trkpt lat="46.70083" lon="-2.34924">
        <ele>19</ele>
        <time>2018-09-20T12:07:23.000Z</time>
      </trkpt>
      <trkpt lat="46.70084" lon="-2.34925">
        <ele>19</ele>
        <time>2018-09-20T12:07:24.000Z</time>
      </trkpt>
      <trkpt lat="46.70085" lon="-2.34926">
        <ele>19</ele>
        <time>2018-09-20T12:07:25.000Z</time>
      </trkpt>
      <trkpt lat="46.70086" lon="-2.34926">
        <ele>19.1</ele>
        <time>2018-09-20T12:07:26.000Z</time>
      </trkpt>
      <trkpt lat="46.70087" lon="-2.34927">
        <ele>19.1</ele>
        <time>2018-09-20T12:07:27.000Z</time>
      </trkpt>
      <trkpt lat="46.70088" lon="-2.34928">
        <ele>19.1</ele>
        <time>2018-09-20T12:07:28.000Z</time>
      </trkpt>
      <trkpt lat="46.70089" lon="-2.34929">
        <ele>19.1</ele>
        <time>2018-09-20T12:07:29.000Z</time>
      </trkpt>
      <trkpt lat="46.7009" lon="-2.34929">
        <ele>19.2</ele>
        <time>2018-09-20T12:07:30.000Z</time>
      </trkpt>
      <trkpt lat="46.70091" lon="-2.3493">
        <ele>19.2</ele>
        <time>2018-09-20T12:07:31.000Z</time>
      </trkpt>
      <trkpt lat="46.70093" lon="-2.34931">
        <ele>19.2</ele>
        <time>2018-09-20T12:07:32.000Z</time>
      </trkpt>
      <trkpt lat="46.70094" lon="-2.34931">
        <ele>19.3</ele>
        <time>2018-09-20T12:07:33.000Z</time>
      </trkpt>
      <trkpt lat="46.70095" lon="-2.34932">
        <ele>19.3</ele>
        <time>2018-09-20T12:07:34.000Z</time>
      </trkpt>
      <trkpt lat="46.70096" lon="-2.34932">
        <ele>19.3</ele>
        <time>2018-09-20T12:07:35.000Z</time>
      </trkpt>
      <trkpt lat="46.70097" lon="-2.34932">
        <ele>19.4</ele>
        <time>2018-09-20T12:07:36.000Z</time>
      </trkpt>
      <trkpt lat="46.70099" lon="-2.34933">
        <ele>19.4</ele>
        <time>2018-09-20T12:07:37.000Z</time>
      </trkpt>
      <trkpt lat="46.701" lon="-2.34933">
        <ele>19.4</ele>
        <time>2018-09-20T12:07:38.000Z</time>
      </trkpt>
      <trkpt lat="46.70101" lon="-2.34933">
        <ele>19.5</ele>
        <time>2018-09-20T12:07:39.000Z</time>
      </trkpt>
      <trkpt lat="46.70102" lon="-2.34933">
        <ele>19.5</ele>
        <time>2018-09-20T12:07:40.000Z</time>
      </trkpt>
      <trkpt lat="46.70103" lon="-2.34933">
        <ele>19.5</ele>
        <time>2018-09-20T12:07:41.000Z</time>
      </trkpt>
      <trkpt lat="46.70104" lon="-2.34933">
        <ele>19.6</ele>
        <time>2018-09-20T12:07:42.000Z</time>
      </trkpt>
      <trkpt lat="46.70105" lon="-2.34932">
        <ele>19.6</ele>
        <time>2018-09-20T12:07:43.000Z</time>
      </trkpt>
      <trkpt lat="46.70106" lon="-2.34932">
        <ele>19.6</ele>
        <time>2018-09-20T12:07:44.000Z</time>
      </trkpt>
      <trkpt lat="46.70107" lon="-2.34932">
        <ele>19.6</ele>
        <time>2018-09-20T12:07:45.000Z</time>
      </trkpt>
      <trkpt lat="46.70108" lon="-2.34931">
        <ele>19.7</ele>
        <time>2018-09-20T12:07:46.000Z</time>
      </trkpt>
      <trkpt lat="46.70109" lon="-2.34931">
        <ele>19.7</ele>
        <time>2018-09-20T12:07:47.000Z</time>
      </trkpt>
      <trkpt lat="46.7011" lon="-2.3493">
        <ele>19.7</ele>
        <time>2018-09-20T12:07:48.000Z</time>
      </trkpt>
      <trkpt lat="46.70111" lon="-2.3493">
        <ele>19.7</ele>
        <time>2018-09-20T12:07:49.000Z</time>
      </trkpt>
      <trkpt lat="46.70112" lon="-2.34929">
        <ele>19.7</ele>
        <time>2018-09-20T12:07:50.000Z</time>
      </trkpt>
      <trkpt lat="46.70113" lon="-2.34929">
        <ele>19.8</ele>
        <time>2018-09-20T12:07:51.000Z</time>
      </trkpt>
      <trkpt lat="46.70114" lon="-2.34928">
        <ele>19.8</ele>
        <time>2018-09-20T12:07:52.000Z</time>
      </trkpt>
      <trkpt lat="46.70115" lon="-2.34927">
        <ele>19.8</ele>
        <time>2018-09-20T12:07:53.000Z</time>
      </trkpt>
      <trkpt lat="46.70117" lon="-2.34927">
        <ele>19.8</ele>
        <time>2018-09-20T12:07:54.000Z</time>
      </trkpt>
      <trkpt lat="46.70118" lon="-2.34926">
        <ele>19.9</ele>
        <time>2018-09-20T12:07:55.000Z</time>
      </trkpt>
      <trkpt lat="46.70119" lon="-2.34925">
        <ele>19.9</ele>
        <time>2018-09-20T12:07:56.000Z</time>
      </trkpt>
      <trkpt lat="46.7012" lon="-2.34924">
        <ele>19.9</ele>
        <time>2018-09-20T12:07:57.000Z</time>
      </trkpt>
      <trkpt lat="46.70121" lon="-2.34924">
        <ele>19.9</ele>
        <time>2018-09-20T12:07:58.000Z</time>
      </trkpt>
      <trkpt lat="46.70122" lon="-2.34923">
        <ele>20</ele>
        <time>2018-09-20T12:07:59.000Z</time>
      </trkpt>
      <trkpt lat="46.70123" lon="-2.34922">
        <ele>20</ele>
        <time>2018-09-20T12:08:00.000Z</time>
      </trkpt>
      <trkpt lat="46.70124" lon="-2.34921">
        <ele>20</ele>
        <time>2018-09-20T12:08:01.000Z</time>
      </trkpt>
      <trkpt lat="46.70125" lon="-2.34921">
        <ele>20</ele>
        <time>2018-09-20T12:08:02.000Z</time>
      </trkpt>
      <trkpt lat="46.70126" lon="-2.3492">
        <ele>20</ele>
        <time>2018-09-20T12:08:03.000Z</time>
      </trkpt>
      <trkpt lat="46.70127" lon="-2.34919">
        <ele>20.1</ele>
        <time>2018-09-20T12:08:04.000Z</time>
      </trkpt>
      <trkpt lat="46.70128" lon="-2.34919">
        <ele>20.1</ele>
        <time>2018-09-20T12:08:05.000Z</time>
      </trkpt>
      <trkpt lat="46.70129" lon="-2.34918">
        <ele>20.1</ele>
        <time>2018-09-20T12:08:06.000Z</time>
      </trkpt>
      <trkpt lat="46.7013" lon="-2.34918">
        <ele>20.1</ele>
        <time>2018-09-20T12:08:07.000Z</time>
      </trkpt>
      <trkpt lat="46.70131" lon="-2.34917">
        <ele>20.1</ele>
        <time>2018-09-20T12:08:08.000Z</time>
      </trkpt>
      <trkpt lat="46.70132" lon="-2.34916">
        <ele>20.2</ele>
        <time>2018-09-20T12:08:09.000Z</time>
      </trkpt>
      <trkpt lat="46.70133" lon="-2.34916">
        <ele>20.2</ele>
        <time>2018-09-20T12:08:10.000Z</time>
      </trkpt>
      <trkpt lat="46.70134" lon="-2.34915">
        <ele>20.2</ele>
        <time>2018-09-20T12:08:11.000Z</time>
      </trkpt>
      <trkpt lat="46.70135" lon="-2.34914">
        <ele>20.3</ele>
        <time>2018-09-20T12:08:12.000Z</time>
      </trkpt>
      <trkpt lat="46.70136" lon="-2.34914">
        <ele>20.3</ele>
        <time>2018-09-20T12:08:13.000Z</time>
      </trkpt>
      <trkpt lat="46.70138" lon="-2.34913">
        <ele>20.3</ele>
        <time>2018-09-20T12:08:14.000Z</time>
      </trkpt>
      <trkpt lat="46.70139" lon="-2.34913">
        <ele>20.3</ele>
        <time>2018-09-20T12:08:15.000Z</time>
      </trkpt>
      <trkpt lat="46.7014" lon="-2.34912">
        <ele>20.4</ele>
        <time>2018-09-20T12:08:16.000Z</time>
      </trkpt>
      <trkpt lat="46.70141" lon="-2.34911">
        <ele>20.4</ele>
        <time>2018-09-20T12:08:17.000Z</time>
      </trkpt>
      <trkpt lat="46.70143" lon="-2.34911">
        <ele>20.4</ele>
        <time>2018-09-20T12:08:18.000Z</time>
      </trkpt>
      <trkpt lat="46.70144" lon="-2.3491">
        <ele>20.5</ele>
        <time>2018-09-20T12:08:19.000Z</time>
      </trkpt>
      <trkpt lat="46.70145" lon="-2.34909">
        <ele>20.5</ele>
        <time>2018-09-20T12:08:20.000Z</time>
      </trkpt>
      <trkpt lat="46.70147" lon="-2.34909">
        <ele>20.5</ele>
        <time>2018-09-20T12:08:21.000Z</time>
      </trkpt>
      <trkpt lat="46.70148" lon="-2.34908">
        <ele>20.6</ele>
        <time>2018-09-20T12:08:22.000Z</time>
      </trkpt>
      <trkpt lat="46.70149" lon="-2.34907">
        <ele>20.6</ele>
        <time>2018-09-20T12:08:23.000Z</time>
      </trkpt>
      <trkpt lat="46.7015" lon="-2.34906">
        <ele>20.6</ele>
        <time>2018-09-20T12:08:24.000Z</time>
      </trkpt>
      <trkpt lat="46.70151" lon="-2.34906">
        <ele>20.7</ele>
        <time>2018-09-20T12:08:25.000Z</time>
      </trkpt>
      <trkpt lat="46.70152" lon="-2.34905">
        <ele>20.7</ele>
        <time>2018-09-20T12:08:26.000Z</time>
      </trkpt>
      <trkpt lat="46.70153" lon="-2.34904">
        <ele>20.7</ele>
        <time>2018-09-20T12:08:27.000Z</time>
      </trkpt>
      <trkpt lat="46.70154" lon="-2.34904">
        <ele>20.7</ele>
        <time>2018-09-20T12:08:28.000Z</time>
      </trkpt>
      <trkpt lat="46.70155" lon="-2.34903">
        <ele>20.7</ele>
        <time>2018-09-20T12:08:29.000Z</time>
      </trkpt>
      <trkpt lat="46.70156" lon="-2.34902">
        <ele>20.8</ele>
        <time>2018-09-20T12:08:30.000Z</time>
      </trkpt>
      <trkpt lat="46.70157" lon="-2.34901">
        <ele>20.8</ele>
        <time>2018-09-20T12:08:31.000Z</time>
      </trkpt>
      <trkpt lat="46.70158" lon="-2.34901">
        <ele>20.8</ele>
        <time>2018-09-20T12:08:32.000Z</time>
      </trkpt>
      <trkpt lat="46.70158" lon="-2.349">
        <ele>20.8</ele>
        <time>2018-09-20T12:08:33.000Z</time>
      </trkpt>
      <trkpt lat="46.70159" lon="-2.34899">
        <ele>20.8</ele>
        <time>2018-09-20T12:08:34.000Z</time>
      </trkpt>
      <trkpt lat="46.7016" lon="-2.34899">
        <ele>20.9</ele>
        <time>2018-09-20T12:08:35.000Z</time>
      </trkpt>
      <trkpt lat="46.70161" lon="-2.34898">
        <ele>20.9</ele>
        <time>2018-09-20T12:08:36.000Z</time>
      </trkpt>
      <trkpt lat="46.70162" lon="-2.34897">
        <ele>20.9</ele>
        <time>2018-09-20T12:08:37.000Z</time>
      </trkpt>
      <trkpt lat="46.70163" lon="-2.34897">
        <ele>20.9</ele>
        <time>2018-09-20T12:08:38.000Z</time>
      </trkpt>
      <trkpt lat="46.70164" lon="-2.34896">
        <ele>20.9</ele>
        <time>2018-09-20T12:08:39.000Z</time>
      </trkpt>
      <trkpt lat="46.70165" lon="-2.34895">
        <ele>21</ele>
        <time>2018-09-20T12:08:40.000Z</time>
      </trkpt>
      <trkpt lat="46.70166" lon="-2.34895">
        <ele>21</ele>
        <time>2018-09-20T12:08:41.000Z</time>
      </trkpt>
      <trkpt lat="46.70167" lon="-2.34894">
        <ele>21</ele>
        <time>2018-09-20T12:08:42.000Z</time>
      </trkpt>
      <trkpt lat="46.70168" lon="-2.34893">
        <ele>21</ele>
        <time>2018-09-20T12:08:43.000Z</time>
      </trkpt>
      <trkpt lat="46.70169" lon="-2.34892">
        <ele>21.1</ele>
        <time>2018-09-20T12:08:44.000Z</time>
      </trkpt>
      <trkpt lat="46.7017" lon="-2.34891">
        <ele>21.1</ele>
        <time>2018-09-20T12:08:45.000Z</time>
      </trkpt>
      <trkpt lat="46.70171" lon="-2.3489">
        <ele>21.1</ele>
        <time>2018-09-20T12:08:46.000Z</time>
      </trkpt>
      <trkpt lat="46.70171" lon="-2.34889">
        <ele>21.1</ele>
        <time>2018-09-20T12:08:47.000Z</time>
      </trkpt>
      <trkpt lat="46.70172" lon="-2.34887">
        <ele>21.2</ele>
        <time>2018-09-20T12:08:48.000Z</time>
      </trkpt>
      <trkpt lat="46.70173" lon="-2.34886">
        <ele>21.2</ele>
        <time>2018-09-20T12:08:49.000Z</time>
      </trkpt>
      <trkpt lat="46.70174" lon="-2.34884">
        <ele>21.2</ele>
        <time>2018-09-20T12:08:50.000Z</time>
      </trkpt>
      <trkpt lat="46.70175" lon="-2.34883">
        <ele>21.2</ele>
        <time>2018-09-20T12:08:51.000Z</time>
      </trkpt>
      <trkpt lat="46.70176" lon="-2.34882">
        <ele>21.2</ele>
        <time>2018-09-20T12:08:52.000Z</time>
      </trkpt>
      <trkpt lat="46.70177" lon="-2.3488">
        <ele>21.3</ele>
        <time>2018-09-20T12:08:53.000Z</time>
      </trkpt>
      <trkpt lat="46.70177" lon="-2.34879">
        <ele>21.3</ele>
        <time>2018-09-20T12:08:54.000Z</time>
      </trkpt>
      <trkpt lat="46.70178" lon="-2.34877">
        <ele>21.3</ele>
        <time>2018-09-20T12:08:55.000Z</time>
      </trkpt>
      <trkpt lat="46.70179" lon="-2.34876">
        <ele>21.3</ele>
        <time>2018-09-20T12:08:56.000Z</time>
      </trkpt>
      <trkpt lat="46.7018" lon="-2.34874">
        <ele>21.3</ele>
        <time>2018-09-20T12:08:57.000Z</time>
      </trkpt>
      <trkpt lat="46.70181" lon="-2.34873">
        <ele>21.3</ele>
        <time>2018-09-20T12:08:58.000Z</time>
      </trkpt>
      <trkpt lat="46.70182" lon="-2.34872">
        <ele>21.3</ele>
        <time>2018-09-20T12:08:59.000Z</time>
      </trkpt>
      <trkpt lat="46.70182" lon="-2.34871">
        <ele>21.4</ele>
        <time>2018-09-20T12:09:00.000Z</time>
      </trkpt>
      <trkpt lat="46.70183" lon="-2.34869">
        <ele>21.4</ele>
        <time>2018-09-20T12:09:01.000Z</time>
      </trkpt>
      <trkpt lat="46.70184" lon="-2.34868">
        <ele>21.4</ele>
        <time>2018-09-20T12:09:02.000Z</time>
      </trkpt>
      <trkpt lat="46.70185" lon="-2.34867">
        <ele>21.4</ele>
        <time>2018-09-20T12:09:03.000Z</time>
      </trkpt>
      <trkpt lat="46.70186" lon="-2.34865">
        <ele>21.4</ele>
        <time>2018-09-20T12:09:04.000Z</time>
      </trkpt>
      <trkpt lat="46.70187" lon="-2.34864">
        <ele>21.4</ele>
        <time>2018-09-20T12:09:05.000Z</time>
      </trkpt>
      <trkpt lat="46.70188" lon="-2.34863">
        <ele>21.4</ele>
        <time>2018-09-20T12:09:06.000Z</time>
      </trkpt>
      <trkpt lat="46.70188" lon="-2.34861">
        <ele>21.4</ele>
        <time>2018-09-20T12:09:07.000Z</time>
      </trkpt>
      <trkpt lat="46.70189" lon="-2.34859">
        <ele>21.4</ele>
        <time>2018-09-20T12:09:08.000Z</time>
      </trkpt>
      <trkpt lat="46.7019" lon="-2.34858">
        <ele>21.4</ele>
        <time>2018-09-20T12:09:09.000Z</time>
      </trkpt>
      <trkpt lat="46.70191" lon="-2.34856">
        <ele>21.5</ele>
        <time>2018-09-20T12:09:10.000Z</time>
      </trkpt>
      <trkpt lat="46.70192" lon="-2.34855">
        <ele>21.5</ele>
        <time>2018-09-20T12:09:11.000Z</time>
      </trkpt>
      <trkpt lat="46.70193" lon="-2.34853">
        <ele>21.5</ele>
        <time>2018-09-20T12:09:12.000Z</time>
      </trkpt>
      <trkpt lat="46.70193" lon="-2.34852">
        <ele>21.5</ele>
        <time>2018-09-20T12:09:13.000Z</time>
      </trkpt>
      <trkpt lat="46.70194" lon="-2.34851">
        <ele>21.5</ele>
        <time>2018-09-20T12:09:14.000Z</time>
      </trkpt>
      <trkpt lat="46.70195" lon="-2.3485">
        <ele>21.5</ele>
        <time>2018-09-20T12:09:15.000Z</time>
      </trkpt>
      <trkpt lat="46.70196" lon="-2.3485">
        <ele>21.5</ele>
        <time>2018-09-20T12:09:16.000Z</time>
      </trkpt>
      <trkpt lat="46.70196" lon="-2.34849">
        <ele>21.5</ele>
        <time>2018-09-20T12:09:17.000Z</time>
      </trkpt>
      <trkpt lat="46.70197" lon="-2.34849">
        <ele>21.5</ele>
        <time>2018-09-20T12:09:18.000Z</time>
      </trkpt>
      <trkpt lat="46.70198" lon="-2.34848">
        <ele>21.5</ele>
        <time>2018-09-20T12:09:19.000Z</time>
      </trkpt>
      <trkpt lat="46.70199" lon="-2.34848">
        <ele>21.5</ele>
        <time>2018-09-20T12:09:20.000Z</time>
      </trkpt>
      <trkpt lat="46.702" lon="-2.34848">
        <ele>21.5</ele>
        <time>2018-09-20T12:09:21.000Z</time>
      </trkpt>
      <trkpt lat="46.70201" lon="-2.34847">
        <ele>21.6</ele>
        <time>2018-09-20T12:09:22.000Z</time>
      </trkpt>
      <trkpt lat="46.70203" lon="-2.34847">
        <ele>21.6</ele>
        <time>2018-09-20T12:09:23.000Z</time>
      </trkpt>
      <trkpt lat="46.70204" lon="-2.34847">
        <ele>21.6</ele>
        <time>2018-09-20T12:09:24.000Z</time>
      </trkpt>
      <trkpt lat="46.70205" lon="-2.34846">
        <ele>21.6</ele>
        <time>2018-09-20T12:09:25.000Z</time>
      </trkpt>
      <trkpt lat="46.70207" lon="-2.34846">
        <ele>21.6</ele>
        <time>2018-09-20T12:09:26.000Z</time>
      </trkpt>
      <trkpt lat="46.70208" lon="-2.34846">
        <ele>21.6</ele>
        <time>2018-09-20T12:09:27.000Z</time>
      </trkpt>
      <trkpt lat="46.70209" lon="-2.34846">
        <ele>21.7</ele>
        <time>2018-09-20T12:09:28.000Z</time>
      </trkpt>
      <trkpt lat="46.7021" lon="-2.34846">
        <ele>21.7</ele>
        <time>2018-09-20T12:09:29.000Z</time>
      </trkpt>
      <trkpt lat="46.70212" lon="-2.34845">
        <ele>21.7</ele>
        <time>2018-09-20T12:09:30.000Z</time>
      </trkpt>
      <trkpt lat="46.70213" lon="-2.34845">
        <ele>21.7</ele>
        <time>2018-09-20T12:09:31.000Z</time>
      </trkpt>
      <trkpt lat="46.70214" lon="-2.34845">
        <ele>21.7</ele>
        <time>2018-09-20T12:09:32.000Z</time>
      </trkpt>
      <trkpt lat="46.70215" lon="-2.34845">
        <ele>21.7</ele>
        <time>2018-09-20T12:09:33.000Z</time>
      </trkpt>
      <trkpt lat="46.70216" lon="-2.34845">
        <ele>21.8</ele>
        <time>2018-09-20T12:09:34.000Z</time>
      </trkpt>
      <trkpt lat="46.70217" lon="-2.34845">
        <ele>21.8</ele>
        <time>2018-09-20T12:09:35.000Z</time>
      </trkpt>
      <trkpt lat="46.70218" lon="-2.34845">
        <ele>21.8</ele>
        <time>2018-09-20T12:09:36.000Z</time>
      </trkpt>
      <trkpt lat="46.70219" lon="-2.34845">
        <ele>21.8</ele>
        <time>2018-09-20T12:09:37.000Z</time>
      </trkpt>
      <trkpt lat="46.7022" lon="-2.34845">
        <ele>21.8</ele>
        <time>2018-09-20T12:09:38.000Z</time>
      </trkpt>
      <trkpt lat="46.70221" lon="-2.34845">
        <ele>21.8</ele>
        <time>2018-09-20T12:09:39.000Z</time>
      </trkpt>
      <trkpt lat="46.70222" lon="-2.34845">
        <ele>21.8</ele>
        <time>2018-09-20T12:09:40.000Z</time>
      </trkpt>
      <trkpt lat="46.70223" lon="-2.34845">
        <ele>21.9</ele>
        <time>2018-09-20T12:09:41.000Z</time>
      </trkpt>
      <trkpt lat="46.70224" lon="-2.34845">
        <ele>21.9</ele>
        <time>2018-09-20T12:09:42.000Z</time>
      </trkpt>
      <trkpt lat="46.70225" lon="-2.34845">
        <ele>21.9</ele>
        <time>2018-09-20T12:09:43.000Z</time>
      </trkpt>
      <trkpt lat="46.70227" lon="-2.34845">
        <ele>21.9</ele>
        <time>2018-09-20T12:09:44.000Z</time>
      </trkpt>
      <trkpt lat="46.70228" lon="-2.34846">
        <ele>21.9</ele>
        <time>2018-09-20T12:09:45.000Z</time>
      </trkpt>
      <trkpt lat="46.70229" lon="-2.34846">
        <ele>22</ele>
        <time>2018-09-20T12:09:46.000Z</time>
      </trkpt>
      <trkpt lat="46.7023" lon="-2.34846">
        <ele>22</ele>
        <time>2018-09-20T12:09:47.000Z</time>
      </trkpt>
      <trkpt lat="46.70231" lon="-2.34846">
        <ele>22</ele>
        <time>2018-09-20T12:09:48.000Z</time>
      </trkpt>
      <trkpt lat="46.70233" lon="-2.34846">
        <ele>22</ele>
        <time>2018-09-20T12:09:49.000Z</time>
      </trkpt>
      <trkpt lat="46.70234" lon="-2.34847">
        <ele>22.1</ele>
        <time>2018-09-20T12:09:50.000Z</time>
      </trkpt>
      <trkpt lat="46.70235" lon="-2.34847">
        <ele>22.1</ele>
        <time>2018-09-20T12:09:51.000Z</time>
      </trkpt>
      <trkpt lat="46.70236" lon="-2.34847">
        <ele>22.1</ele>
        <time>2018-09-20T12:09:52.000Z</time>
      </trkpt>
      <trkpt lat="46.70238" lon="-2.34847">
        <ele>22.1</ele>
        <time>2018-09-20T12:09:53.000Z</time>
      </trkpt>
      <trkpt lat="46.70239" lon="-2.34848">
        <ele>22.2</ele>
        <time>2018-09-20T12:09:54.000Z</time>
      </trkpt>
      <trkpt lat="46.7024" lon="-2.34848">
        <ele>22.2</ele>
        <time>2018-09-20T12:09:55.000Z</time>
      </trkpt>
      <trkpt lat="46.70241" lon="-2.34848">
        <ele>22.2</ele>
        <time>2018-09-20T12:09:56.000Z</time>
      </trkpt>
      <trkpt lat="46.70243" lon="-2.34848">
        <ele>22.2</ele>
        <time>2018-09-20T12:09:57.000Z</time>
      </trkpt>
      <trkpt lat="46.70244" lon="-2.34849">
        <ele>22.3</ele>
        <time>2018-09-20T12:09:58.000Z</time>
      </trkpt>
      <trkpt lat="46.70245" lon="-2.34849">
        <ele>22.3</ele>
        <time>2018-09-20T12:09:59.000Z</time>
      </trkpt>
      <trkpt lat="46.70246" lon="-2.3485">
        <ele>22.3</ele>
        <time>2018-09-20T12:10:00.000Z</time>
      </trkpt>
      <trkpt lat="46.70247" lon="-2.3485">
        <ele>22.4</ele>
        <time>2018-09-20T12:10:01.000Z</time>
      </trkpt>
      <trkpt lat="46.70248" lon="-2.34851">
        <ele>22.4</ele>
        <time>2018-09-20T12:10:02.000Z</time>
      </trkpt>
      <trkpt lat="46.70249" lon="-2.34852">
        <ele>22.4</ele>
        <time>2018-09-20T12:10:03.000Z</time>
      </trkpt>
      <trkpt lat="46.7025" lon="-2.34852">
        <ele>22.5</ele>
        <time>2018-09-20T12:10:04.000Z</time>
      </trkpt>
      <trkpt lat="46.70251" lon="-2.34853">
        <ele>22.5</ele>
        <time>2018-09-20T12:10:05.000Z</time>
      </trkpt>
      <trkpt lat="46.70252" lon="-2.34854">
        <ele>22.6</ele>
        <time>2018-09-20T12:10:06.000Z</time>
      </trkpt>
      <trkpt lat="46.70253" lon="-2.34855">
        <ele>22.6</ele>
        <time>2018-09-20T12:10:07.000Z</time>
      </trkpt>
      <trkpt lat="46.70254" lon="-2.34856">
        <ele>22.7</ele>
        <time>2018-09-20T12:10:08.000Z</time>
      </trkpt>
      <trkpt lat="46.70255" lon="-2.34857">
        <ele>22.7</ele>
        <time>2018-09-20T12:10:09.000Z</time>
      </trkpt>
      <trkpt lat="46.70256" lon="-2.34858">
        <ele>22.8</ele>
        <time>2018-09-20T12:10:10.000Z</time>
      </trkpt>
      <trkpt lat="46.70257" lon="-2.34859">
        <ele>22.8</ele>
        <time>2018-09-20T12:10:11.000Z</time>
      </trkpt>
      <trkpt lat="46.70257" lon="-2.3486">
        <ele>22.9</ele>
        <time>2018-09-20T12:10:12.000Z</time>
      </trkpt>
      <trkpt lat="46.70258" lon="-2.34861">
        <ele>23</ele>
        <time>2018-09-20T12:10:13.000Z</time>
      </trkpt>
      <trkpt lat="46.70259" lon="-2.34862">
        <ele>23</ele>
        <time>2018-09-20T12:10:14.000Z</time>
      </trkpt>
      <trkpt lat="46.7026" lon="-2.34863">
        <ele>23.1</ele>
        <time>2018-09-20T12:10:15.000Z</time>
      </trkpt>
      <trkpt lat="46.70261" lon="-2.34864">
        <ele>23.1</ele>
        <time>2018-09-20T12:10:16.000Z</time>
      </trkpt>
      <trkpt lat="46.70261" lon="-2.34865">
        <ele>23.2</ele>
        <time>2018-09-20T12:10:17.000Z</time>
      </trkpt>
      <trkpt lat="46.70262" lon="-2.34867">
        <ele>23.2</ele>
        <time>2018-09-20T12:10:18.000Z</time>
      </trkpt>
      <trkpt lat="46.70263" lon="-2.34868">
        <ele>23.3</ele>
        <time>2018-09-20T12:10:19.000Z</time>
      </trkpt>
      <trkpt lat="46.70264" lon="-2.34869">
        <ele>23.3</ele>
        <time>2018-09-20T12:10:20.000Z</time>
      </trkpt>
      <trkpt lat="46.70265" lon="-2.3487">
        <ele>23.4</ele>
        <time>2018-09-20T12:10:21.000Z</time>
      </trkpt>
      <trkpt lat="46.70266" lon="-2.34871">
        <ele>23.4</ele>
        <time>2018-09-20T12:10:22.000Z</time>
      </trkpt>
      <trkpt lat="46.70266" lon="-2.34872">
        <ele>23.4</ele>
        <time>2018-09-20T12:10:23.000Z</time>
      </trkpt>
      <trkpt lat="46.70267" lon="-2.34873">
        <ele>23.5</ele>
        <time>2018-09-20T12:10:24.000Z</time>
      </trkpt>
      <trkpt lat="46.70268" lon="-2.34874">
        <ele>23.5</ele>
        <time>2018-09-20T12:10:25.000Z</time>
      </trkpt>
      <trkpt lat="46.70269" lon="-2.34875">
        <ele>23.6</ele>
        <time>2018-09-20T12:10:26.000Z</time>
      </trkpt>
      <trkpt lat="46.7027" lon="-2.34876">
        <ele>23.6</ele>
        <time>2018-09-20T12:10:27.000Z</time>
      </trkpt>
      <trkpt lat="46.70271" lon="-2.34878">
        <ele>23.7</ele>
        <time>2018-09-20T12:10:28.000Z</time>
      </trkpt>
      <trkpt lat="46.70272" lon="-2.34879">
        <ele>23.7</ele>
        <time>2018-09-20T12:10:29.000Z</time>
      </trkpt>
      <trkpt lat="46.70273" lon="-2.3488">
        <ele>23.8</ele>
        <time>2018-09-20T12:10:30.000Z</time>
      </trkpt>
      <trkpt lat="46.70274" lon="-2.34881">
        <ele>23.8</ele>
        <time>2018-09-20T12:10:31.000Z</time>
      </trkpt>
      <trkpt lat="46.70275" lon="-2.34882">
        <ele>23.8</ele>
        <time>2018-09-20T12:10:32.000Z</time>
      </trkpt>
      <trkpt lat="46.70276" lon="-2.34884">
        <ele>23.9</ele>
        <time>2018-09-20T12:10:33.000Z</time>
      </trkpt>
      <trkpt lat="46.70276" lon="-2.34885">
        <ele>23.9</ele>
        <time>2018-09-20T12:10:34.000Z</time>
      </trkpt>
      <trkpt lat="46.70277" lon="-2.34886">
        <ele>24</ele>
        <time>2018-09-20T12:10:35.000Z</time>
      </trkpt>
      <trkpt lat="46.70278" lon="-2.34888">
        <ele>24</ele>
        <time>2018-09-20T12:10:36.000Z</time>
      </trkpt>
      <trkpt lat="46.70279" lon="-2.34889">
        <ele>24</ele>
        <time>2018-09-20T12:10:37.000Z</time>
      </trkpt>
      <trkpt lat="46.70279" lon="-2.3489">
        <ele>24.1</ele>
        <time>2018-09-20T12:10:38.000Z</time>
      </trkpt>
      <trkpt lat="46.7028" lon="-2.34891">
        <ele>24.1</ele>
        <time>2018-09-20T12:10:39.000Z</time>
      </trkpt>
      <trkpt lat="46.70281" lon="-2.34893">
        <ele>24.1</ele>
        <time>2018-09-20T12:10:40.000Z</time>
      </trkpt>
      <trkpt lat="46.70282" lon="-2.34894">
        <ele>24.1</ele>
        <time>2018-09-20T12:10:41.000Z</time>
      </trkpt>
      <trkpt lat="46.70283" lon="-2.34895">
        <ele>24.2</ele>
        <time>2018-09-20T12:10:42.000Z</time>
      </trkpt>
      <trkpt lat="46.70284" lon="-2.34896">
        <ele>24.2</ele>
        <time>2018-09-20T12:10:43.000Z</time>
      </trkpt>
      <trkpt lat="46.70285" lon="-2.34896">
        <ele>24.2</ele>
        <time>2018-09-20T12:10:44.000Z</time>
      </trkpt>
      <trkpt lat="46.70286" lon="-2.34897">
        <ele>24.3</ele>
        <time>2018-09-20T12:10:45.000Z</time>
      </trkpt>
      <trkpt lat="46.70287" lon="-2.34898">
        <ele>24.3</ele>
        <time>2018-09-20T12:10:46.000Z</time>
      </trkpt>
      <trkpt lat="46.70288" lon="-2.34899">
        <ele>24.3</ele>
        <time>2018-09-20T12:10:47.000Z</time>
      </trkpt>
      <trkpt lat="46.70289" lon="-2.349">
        <ele>24.4</ele>
        <time>2018-09-20T12:10:48.000Z</time>
      </trkpt>
      <trkpt lat="46.70291" lon="-2.349">
        <ele>24.4</ele>
        <time>2018-09-20T12:10:49.000Z</time>
      </trkpt>
      <trkpt lat="46.70292" lon="-2.34901">
        <ele>24.4</ele>
        <time>2018-09-20T12:10:50.000Z</time>
      </trkpt>
      <trkpt lat="46.70293" lon="-2.34902">
        <ele>24.4</ele>
        <time>2018-09-20T12:10:51.000Z</time>
      </trkpt>
      <trkpt lat="46.70294" lon="-2.34902">
        <ele>24.5</ele>
        <time>2018-09-20T12:10:52.000Z</time>
      </trkpt>
      <trkpt lat="46.70295" lon="-2.34903">
        <ele>24.5</ele>
        <time>2018-09-20T12:10:53.000Z</time>
      </trkpt>
      <trkpt lat="46.70296" lon="-2.34904">
        <ele>24.5</ele>
        <time>2018-09-20T12:10:54.000Z</time>
      </trkpt>
      <trkpt lat="46.70298" lon="-2.34904">
        <ele>24.5</ele>
        <time>2018-09-20T12:10:55.000Z</time>
      </trkpt>
      <trkpt lat="46.70299" lon="-2.34905">
        <ele>24.5</ele>
        <time>2018-09-20T12:10:56.000Z</time>
      </trkpt>
      <trkpt lat="46.703" lon="-2.34906">
        <ele>24.6</ele>
        <time>2018-09-20T12:10:57.000Z</time>
      </trkpt>
      <trkpt lat="46.70301" lon="-2.34906">
        <ele>24.6</ele>
        <time>2018-09-20T12:10:58.000Z</time>
      </trkpt>
      <trkpt lat="46.70302" lon="-2.34907">
        <ele>24.6</ele>
        <time>2018-09-20T12:10:59.000Z</time>
      </trkpt>
      <trkpt lat="46.70303" lon="-2.34907">
        <ele>24.6</ele>
        <time>2018-09-20T12:11:00.000Z</time>
      </trkpt>
      <trkpt lat="46.70305" lon="-2.34908">
        <ele>24.6</ele>
        <time>2018-09-20T12:11:01.000Z</time>
      </trkpt>
      <trkpt lat="46.70306" lon="-2.34908">
        <ele>24.7</ele>
        <time>2018-09-20T12:11:02.000Z</time>
      </trkpt>
      <trkpt lat="46.70307" lon="-2.34909">
        <ele>24.7</ele>
        <time>2018-09-20T12:11:03.000Z</time>
      </trkpt>
      <trkpt lat="46.70308" lon="-2.34909">
        <ele>24.7</ele>
        <time>2018-09-20T12:11:04.000Z</time>
      </trkpt>
      <trkpt lat="46.70309" lon="-2.3491">
        <ele>24.7</ele>
        <time>2018-09-20T12:11:05.000Z</time>
      </trkpt>
      <trkpt lat="46.7031" lon="-2.3491">
        <ele>24.7</ele>
        <time>2018-09-20T12:11:06.000Z</time>
      </trkpt>
      <trkpt lat="46.70311" lon="-2.34911">
        <ele>24.7</ele>
        <time>2018-09-20T12:11:07.000Z</time>
      </trkpt>
      <trkpt lat="46.70312" lon="-2.34911">
        <ele>24.8</ele>
        <time>2018-09-20T12:11:08.000Z</time>
      </trkpt>
      <trkpt lat="46.70313" lon="-2.34911">
        <ele>24.8</ele>
        <time>2018-09-20T12:11:09.000Z</time>
      </trkpt>
      <trkpt lat="46.70314" lon="-2.34912">
        <ele>24.8</ele>
        <time>2018-09-20T12:11:10.000Z</time>
      </trkpt>
      <trkpt lat="46.70315" lon="-2.34912">
        <ele>24.8</ele>
        <time>2018-09-20T12:11:11.000Z</time>
      </trkpt>
      <trkpt lat="46.70316" lon="-2.34912">
        <ele>24.8</ele>
        <time>2018-09-20T12:11:12.000Z</time>
      </trkpt>
      <trkpt lat="46.70317" lon="-2.34913">
        <ele>24.8</ele>
        <time>2018-09-20T12:11:13.000Z</time>
      </trkpt>
      <trkpt lat="46.70318" lon="-2.34913">
        <ele>24.8</ele>
        <time>2018-09-20T12:11:14.000Z</time>
      </trkpt>
      <trkpt lat="46.70319" lon="-2.34913">
        <ele>24.8</ele>
        <time>2018-09-20T12:11:15.000Z</time>
      </trkpt>
      <trkpt lat="46.70319" lon="-2.34913">
        <ele>24.9</ele>
        <time>2018-09-20T12:11:16.000Z</time>
      </trkpt>
      <trkpt lat="46.7032" lon="-2.34914">
        <ele>24.9</ele>
        <time>2018-09-20T12:11:17.000Z</time>
      </trkpt>
      <trkpt lat="46.70321" lon="-2.34914">
        <ele>24.9</ele>
        <time>2018-09-20T12:11:18.000Z</time>
      </trkpt>
      <trkpt lat="46.70322" lon="-2.34914">
        <ele>24.9</ele>
        <time>2018-09-20T12:11:19.000Z</time>
      </trkpt>
      <trkpt lat="46.70323" lon="-2.34914">
        <ele>24.9</ele>
        <time>2018-09-20T12:11:20.000Z</time>
      </trkpt>
      <trkpt lat="46.70324" lon="-2.34914">
        <ele>24.9</ele>
        <time>2018-09-20T12:11:21.000Z</time>
      </trkpt>
      <trkpt lat="46.70325" lon="-2.34915">
        <ele>24.9</ele>
        <time>2018-09-20T12:11:22.000Z</time>
      </trkpt>
      <trkpt lat="46.70326" lon="-2.34915">
        <ele>24.9</ele>
        <time>2018-09-20T12:11:23.000Z</time>
      </trkpt>
      <trkpt lat="46.70326" lon="-2.34915">
        <ele>24.9</ele>
        <time>2018-09-20T12:11:24.000Z</time>
      </trkpt>
      <trkpt lat="46.70327" lon="-2.34915">
        <ele>24.9</ele>
        <time>2018-09-20T12:11:25.000Z</time>
      </trkpt>
      <trkpt lat="46.70328" lon="-2.34915">
        <ele>25</ele>
        <time>2018-09-20T12:11:26.000Z</time>
      </trkpt>
      <trkpt lat="46.70329" lon="-2.34915">
        <ele>25</ele>
        <time>2018-09-20T12:11:27.000Z</time>
      </trkpt>
      <trkpt lat="46.7033" lon="-2.34915">
        <ele>25</ele>
        <time>2018-09-20T12:11:28.000Z</time>
      </trkpt>
      <trkpt lat="46.70331" lon="-2.34915">
        <ele>25</ele>
        <time>2018-09-20T12:11:29.000Z</time>
      </trkpt>
      <trkpt lat="46.70331" lon="-2.34916">
        <ele>25</ele>
        <time>2018-09-20T12:11:30.000Z</time>
      </trkpt>
      <trkpt lat="46.70332" lon="-2.34916">
        <ele>25</ele>
        <time>2018-09-20T12:11:31.000Z</time>
      </trkpt>
      <trkpt lat="46.70333" lon="-2.34916">
        <ele>25</ele>
        <time>2018-09-20T12:11:32.000Z</time>
      </trkpt>
      <trkpt lat="46.70334" lon="-2.34916">
        <ele>25</ele>
        <time>2018-09-20T12:11:33.000Z</time>
      </trkpt>
      <trkpt lat="46.70335" lon="-2.34916">
        <ele>25</ele>
        <time>2018-09-20T12:11:34.000Z</time>
      </trkpt>
      <trkpt lat="46.70335" lon="-2.34916">
        <ele>25</ele>
        <time>2018-09-20T12:11:35.000Z</time>
      </trkpt>
      <trkpt lat="46.70336" lon="-2.34917">
        <ele>25</ele>
        <time>2018-09-20T12:11:36.000Z</time>
      </trkpt>
      <trkpt lat="46.70337" lon="-2.34917">
        <ele>25</ele>
        <time>2018-09-20T12:11:37.000Z</time>
      </trkpt>
      <trkpt lat="46.70338" lon="-2.34917">
        <ele>25</ele>
        <time>2018-09-20T12:11:38.000Z</time>
      </trkpt>
      <trkpt lat="46.70339" lon="-2.34917">
        <ele>25.1</ele>
        <time>2018-09-20T12:11:39.000Z</time>
      </trkpt>
      <trkpt lat="46.7034" lon="-2.34917">
        <ele>25.1</ele>
        <time>2018-09-20T12:11:40.000Z</time>
      </trkpt>
      <trkpt lat="46.7034" lon="-2.34918">
        <ele>25.1</ele>
        <time>2018-09-20T12:11:41.000Z</time>
      </trkpt>
      <trkpt lat="46.70341" lon="-2.34918">
        <ele>25.1</ele>
        <time>2018-09-20T12:11:42.000Z</time>
      </trkpt>
      <trkpt lat="46.70342" lon="-2.34918">
        <ele>25.1</ele>
        <time>2018-09-20T12:11:43.000Z</time>
      </trkpt>
      <trkpt lat="46.70343" lon="-2.34918">
        <ele>25.1</ele>
        <time>2018-09-20T12:11:44.000Z</time>
      </trkpt>
      <trkpt lat="46.70344" lon="-2.34919">
        <ele>25.1</ele>
        <time>2018-09-20T12:11:45.000Z</time>
      </trkpt>
      <trkpt lat="46.70345" lon="-2.34919">
        <ele>25.1</ele>
        <time>2018-09-20T12:11:46.000Z</time>
      </trkpt>
      <trkpt lat="46.70346" lon="-2.34919">
        <ele>25.1</ele>
        <time>2018-09-20T12:11:47.000Z</time>
      </trkpt>
      <trkpt lat="46.70347" lon="-2.3492">
        <ele>25.1</ele>
        <time>2018-09-20T12:11:48.000Z</time>
      </trkpt>
      <trkpt lat="46.70347" lon="-2.3492">
        <ele>25.1</ele>
        <time>2018-09-20T12:11:49.000Z</time>
      </trkpt>
      <trkpt lat="46.70348" lon="-2.3492">
        <ele>25.1</ele>
        <time>2018-09-20T12:11:50.000Z</time>
      </trkpt>
      <trkpt lat="46.70349" lon="-2.34921">
        <ele>25.1</ele>
        <time>2018-09-20T12:11:51.000Z</time>
      </trkpt>
      <trkpt lat="46.7035" lon="-2.34921">
        <ele>25.2</ele>
        <time>2018-09-20T12:11:52.000Z</time>
      </trkpt>
      <trkpt lat="46.70352" lon="-2.34921">
        <ele>25.2</ele>
        <time>2018-09-20T12:11:53.000Z</time>
      </trkpt>
      <trkpt lat="46.70353" lon="-2.34922">
        <ele>25.2</ele>
        <time>2018-09-20T12:11:54.000Z</time>
      </trkpt>
      <trkpt lat="46.70354" lon="-2.34922">
        <ele>25.2</ele>
        <time>2018-09-20T12:11:55.000Z</time>
      </trkpt>
      <trkpt lat="46.70355" lon="-2.34922">
        <ele>25.2</ele>
        <time>2018-09-20T12:11:56.000Z</time>
      </trkpt>
      <trkpt lat="46.70356" lon="-2.34923">
        <ele>25.2</ele>
        <time>2018-09-20T12:11:57.000Z</time>
      </trkpt>
      <trkpt lat="46.70357" lon="-2.34923">
        <ele>25.2</ele>
        <time>2018-09-20T12:11:58.000Z</time>
      </trkpt>
      <trkpt lat="46.70358" lon="-2.34924">
        <ele>25.2</ele>
        <time>2018-09-20T12:11:59.000Z</time>
      </trkpt>
      <trkpt lat="46.70359" lon="-2.34924">
        <ele>25.2</ele>
        <time>2018-09-20T12:12:00.000Z</time>
      </trkpt>
      <trkpt lat="46.7036" lon="-2.34925">
        <ele>25.2</ele>
        <time>2018-09-20T12:12:01.000Z</time>
      </trkpt>
      <trkpt lat="46.70361" lon="-2.34925">
        <ele>25.2</ele>
        <time>2018-09-20T12:12:02.000Z</time>
      </trkpt>
      <trkpt lat="46.70363" lon="-2.34926">
        <ele>25.2</ele>
        <time>2018-09-20T12:12:03.000Z</time>
      </trkpt>
      <trkpt lat="46.70364" lon="-2.34926">
        <ele>25.2</ele>
        <time>2018-09-20T12:12:04.000Z</time>
      </trkpt>
      <trkpt lat="46.70365" lon="-2.34927">
        <ele>25.3</ele>
        <time>2018-09-20T12:12:05.000Z</time>
      </trkpt>
      <trkpt lat="46.70366" lon="-2.34928">
        <ele>25.3</ele>
        <time>2018-09-20T12:12:06.000Z</time>
      </trkpt>
      <trkpt lat="46.70367" lon="-2.34928">
        <ele>25.3</ele>
        <time>2018-09-20T12:12:07.000Z</time>
      </trkpt>
      <trkpt lat="46.70368" lon="-2.34929">
        <ele>25.3</ele>
        <time>2018-09-20T12:12:08.000Z</time>
      </trkpt>
      <trkpt lat="46.70369" lon="-2.3493">
        <ele>25.3</ele>
        <time>2018-09-20T12:12:09.000Z</time>
      </trkpt>
      <trkpt lat="46.7037" lon="-2.34931">
        <ele>25.3</ele>
        <time>2018-09-20T12:12:10.000Z</time>
      </trkpt>
      <trkpt lat="46.70371" lon="-2.34932">
        <ele>25.3</ele>
        <time>2018-09-20T12:12:11.000Z</time>
      </trkpt>
      <trkpt lat="46.70372" lon="-2.34933">
        <ele>25.3</ele>
        <time>2018-09-20T12:12:12.000Z</time>
      </trkpt>
      <trkpt lat="46.70373" lon="-2.34934">
        <ele>25.3</ele>
        <time>2018-09-20T12:12:13.000Z</time>
      </trkpt>
      <trkpt lat="46.70374" lon="-2.34935">
        <ele>25.3</ele>
        <time>2018-09-20T12:12:14.000Z</time>
      </trkpt>
      <trkpt lat="46.70375" lon="-2.34936">
        <ele>25.3</ele>
        <time>2018-09-20T12:12:15.000Z</time>
      </trkpt>
      <trkpt lat="46.70376" lon="-2.34937">
        <ele>25.3</ele>
        <time>2018-09-20T12:12:16.000Z</time>
      </trkpt>
      <trkpt lat="46.70377" lon="-2.34938">
        <ele>25.3</ele>
        <time>2018-09-20T12:12:17.000Z</time>
      </trkpt>
      <trkpt lat="46.70377" lon="-2.3494">
        <ele>25.3</ele>
        <time>2018-09-20T12:12:18.000Z</time>
      </trkpt>
      <trkpt lat="46.70378" lon="-2.34941">
        <ele>25.3</ele>
        <time>2018-09-20T12:12:19.000Z</time>
      </trkpt>
      <trkpt lat="46.70379" lon="-2.34942">
        <ele>25.2</ele>
        <time>2018-09-20T12:12:20.000Z</time>
      </trkpt>
      <trkpt lat="46.7038" lon="-2.34943">
        <ele>25.2</ele>
        <time>2018-09-20T12:12:21.000Z</time>
      </trkpt>
      <trkpt lat="46.7038" lon="-2.34944">
        <ele>25.2</ele>
        <time>2018-09-20T12:12:22.000Z</time>
      </trkpt>
      <trkpt lat="46.70381" lon="-2.34945">
        <ele>25.2</ele>
        <time>2018-09-20T12:12:23.000Z</time>
      </trkpt>
      <trkpt lat="46.70381" lon="-2.34946">
        <ele>25.2</ele>
        <time>2018-09-20T12:12:24.000Z</time>
      </trkpt>
      <trkpt lat="46.70382" lon="-2.34947">
        <ele>25.2</ele>
        <time>2018-09-20T12:12:25.000Z</time>
      </trkpt>
      <trkpt lat="46.70383" lon="-2.34948">
        <ele>25.2</ele>
        <time>2018-09-20T12:12:26.000Z</time>
      </trkpt>
      <trkpt lat="46.70383" lon="-2.34948">
        <ele>25.2</ele>
        <time>2018-09-20T12:12:27.000Z</time>
      </trkpt>
      <trkpt lat="46.70384" lon="-2.34949">
        <ele>25.2</ele>
        <time>2018-09-20T12:12:28.000Z</time>
      </trkpt>
      <trkpt lat="46.70385" lon="-2.3495">
        <ele>25.2</ele>
        <time>2018-09-20T12:12:29.000Z</time>
      </trkpt>
      <trkpt lat="46.70386" lon="-2.34951">
        <ele>25.2</ele>
        <time>2018-09-20T12:12:30.000Z</time>
      </trkpt>
      <trkpt lat="46.70387" lon="-2.34952">
        <ele>25.2</ele>
        <time>2018-09-20T12:12:31.000Z</time>
      </trkpt>
      <trkpt lat="46.70388" lon="-2.34953">
        <ele>25.2</ele>
        <time>2018-09-20T12:12:32.000Z</time>
      </trkpt>
      <trkpt lat="46.70389" lon="-2.34954">
        <ele>25.2</ele>
        <time>2018-09-20T12:12:33.000Z</time>
      </trkpt>
      <trkpt lat="46.7039" lon="-2.34954">
        <ele>25.2</ele>
        <time>2018-09-20T12:12:34.000Z</time>
      </trkpt>
      <trkpt lat="46.7039" lon="-2.34955">
        <ele>25.2</ele>
        <time>2018-09-20T12:12:35.000Z</time>
      </trkpt>
      <trkpt lat="46.7039" lon="-2.34955">
        <ele>25.2</ele>
        <time>2018-09-20T12:12:36.000Z</time>
      </trkpt>
      <trkpt lat="46.7039" lon="-2.34955">
        <ele>25.2</ele>
        <time>2018-09-20T12:12:37.000Z</time>
      </trkpt>
      <trkpt lat="46.7039" lon="-2.34956">
        <ele>25.2</ele>
        <time>2018-09-20T12:12:38.000Z</time>
      </trkpt>
      <trkpt lat="46.70391" lon="-2.34956">
        <ele>25.2</ele>
        <time>2018-09-20T12:12:39.000Z</time>
      </trkpt>
      <trkpt lat="46.70391" lon="-2.34956">
        <ele>25.2</ele>
        <time>2018-09-20T12:12:40.000Z</time>
      </trkpt>
      <trkpt lat="46.70392" lon="-2.34957">
        <ele>25.2</ele>
        <time>2018-09-20T12:12:41.000Z</time>
      </trkpt>
      <trkpt lat="46.70393" lon="-2.34957">
        <ele>25.2</ele>
        <time>2018-09-20T12:12:42.000Z</time>
      </trkpt>
      <trkpt lat="46.70394" lon="-2.34958">
        <ele>25.2</ele>
        <time>2018-09-20T12:12:43.000Z</time>
      </trkpt>
      <trkpt lat="46.70396" lon="-2.34959">
        <ele>25.2</ele>
        <time>2018-09-20T12:12:44.000Z</time>
      </trkpt>
      <trkpt lat="46.70397" lon="-2.3496">
        <ele>25.2</ele>
        <time>2018-09-20T12:12:45.000Z</time>
      </trkpt>
      <trkpt lat="46.70398" lon="-2.34961">
        <ele>25.3</ele>
        <time>2018-09-20T12:12:46.000Z</time>
      </trkpt>
      <trkpt lat="46.704" lon="-2.34961">
        <ele>25.3</ele>
        <time>2018-09-20T12:12:47.000Z</time>
      </trkpt>
      <trkpt lat="46.70401" lon="-2.34962">
        <ele>25.3</ele>
        <time>2018-09-20T12:12:48.000Z</time>
      </trkpt>
      <trkpt lat="46.70402" lon="-2.34963">
        <ele>25.3</ele>
        <time>2018-09-20T12:12:49.000Z</time>
      </trkpt>
      <trkpt lat="46.70403" lon="-2.34964">
        <ele>25.3</ele>
        <time>2018-09-20T12:12:50.000Z</time>
      </trkpt>
      <trkpt lat="46.70405" lon="-2.34965">
        <ele>25.3</ele>
        <time>2018-09-20T12:12:51.000Z</time>
      </trkpt>
      <trkpt lat="46.70406" lon="-2.34966">
        <ele>25.3</ele>
        <time>2018-09-20T12:12:52.000Z</time>
      </trkpt>
      <trkpt lat="46.70407" lon="-2.34967">
        <ele>25.3</ele>
        <time>2018-09-20T12:12:53.000Z</time>
      </trkpt>
      <trkpt lat="46.70408" lon="-2.34967">
        <ele>25.3</ele>
        <time>2018-09-20T12:12:54.000Z</time>
      </trkpt>
      <trkpt lat="46.70409" lon="-2.34968">
        <ele>25.3</ele>
        <time>2018-09-20T12:12:55.000Z</time>
      </trkpt>
      <trkpt lat="46.70411" lon="-2.34969">
        <ele>25.3</ele>
        <time>2018-09-20T12:12:56.000Z</time>
      </trkpt>
      <trkpt lat="46.70412" lon="-2.3497">
        <ele>25.3</ele>
        <time>2018-09-20T12:12:57.000Z</time>
      </trkpt>
      <trkpt lat="46.70413" lon="-2.3497">
        <ele>25.3</ele>
        <time>2018-09-20T12:12:58.000Z</time>
      </trkpt>
      <trkpt lat="46.70414" lon="-2.34971">
        <ele>25.3</ele>
        <time>2018-09-20T12:12:59.000Z</time>
      </trkpt>
      <trkpt lat="46.70416" lon="-2.34972">
        <ele>25.3</ele>
        <time>2018-09-20T12:13:00.000Z</time>
      </trkpt>
      <trkpt lat="46.70417" lon="-2.34972">
        <ele>25.3</ele>
        <time>2018-09-20T12:13:01.000Z</time>
      </trkpt>
      <trkpt lat="46.70418" lon="-2.34973">
        <ele>25.3</ele>
        <time>2018-09-20T12:13:02.000Z</time>
      </trkpt>
      <trkpt lat="46.70419" lon="-2.34974">
        <ele>25.3</ele>
        <time>2018-09-20T12:13:03.000Z</time>
      </trkpt>
      <trkpt lat="46.7042" lon="-2.34974">
        <ele>25.3</ele>
        <time>2018-09-20T12:13:04.000Z</time>
      </trkpt>
      <trkpt lat="46.70422" lon="-2.34975">
        <ele>25.3</ele>
        <time>2018-09-20T12:13:05.000Z</time>
      </trkpt>
      <trkpt lat="46.70423" lon="-2.34975">
        <ele>25.3</ele>
        <time>2018-09-20T12:13:06.000Z</time>
      </trkpt>
      <trkpt lat="46.70424" lon="-2.34976">
        <ele>25.3</ele>
        <time>2018-09-20T12:13:07.000Z</time>
      </trkpt>
      <trkpt lat="46.70425" lon="-2.34976">
        <ele>25.3</ele>
        <time>2018-09-20T12:13:08.000Z</time>
      </trkpt>
      <trkpt lat="46.70427" lon="-2.34977">
        <ele>25.3</ele>
        <time>2018-09-20T12:13:09.000Z</time>
      </trkpt>
      <trkpt lat="46.70428" lon="-2.34977">
        <ele>25.3</ele>
        <time>2018-09-20T12:13:10.000Z</time>
      </trkpt>
      <trkpt lat="46.70429" lon="-2.34978">
        <ele>25.3</ele>
        <time>2018-09-20T12:13:11.000Z</time>
      </trkpt>
      <trkpt lat="46.7043" lon="-2.34978">
        <ele>25.3</ele>
        <time>2018-09-20T12:13:12.000Z</time>
      </trkpt>
      <trkpt lat="46.70431" lon="-2.34979">
        <ele>25.3</ele>
        <time>2018-09-20T12:13:13.000Z</time>
      </trkpt>
      <trkpt lat="46.70433" lon="-2.34979">
        <ele>25.3</ele>
        <time>2018-09-20T12:13:14.000Z</time>
      </trkpt>
      <trkpt lat="46.70434" lon="-2.34979">
        <ele>25.3</ele>
        <time>2018-09-20T12:13:15.000Z</time>
      </trkpt>
      <trkpt lat="46.70435" lon="-2.3498">
        <ele>25.3</ele>
        <time>2018-09-20T12:13:16.000Z</time>
      </trkpt>
      <trkpt lat="46.70436" lon="-2.3498">
        <ele>25.3</ele>
        <time>2018-09-20T12:13:17.000Z</time>
      </trkpt>
      <trkpt lat="46.70437" lon="-2.3498">
        <ele>25.3</ele>
        <time>2018-09-20T12:13:18.000Z</time>
      </trkpt>
      <trkpt lat="46.70438" lon="-2.34981">
        <ele>25.3</ele>
        <time>2018-09-20T12:13:19.000Z</time>
      </trkpt>
      <trkpt lat="46.70439" lon="-2.34981">
        <ele>25.3</ele>
        <time>2018-09-20T12:13:20.000Z</time>
      </trkpt>
      <trkpt lat="46.7044" lon="-2.34981">
        <ele>25.3</ele>
        <time>2018-09-20T12:13:21.000Z</time>
      </trkpt>
      <trkpt lat="46.70441" lon="-2.34982">
        <ele>25.3</ele>
        <time>2018-09-20T12:13:22.000Z</time>
      </trkpt>
      <trkpt lat="46.70442" lon="-2.34982">
        <ele>25.3</ele>
        <time>2018-09-20T12:13:23.000Z</time>
      </trkpt>
      <trkpt lat="46.70443" lon="-2.34982">
        <ele>25.3</ele>
        <time>2018-09-20T12:13:24.000Z</time>
      </trkpt>
      <trkpt lat="46.70444" lon="-2.34982">
        <ele>25.3</ele>
        <time>2018-09-20T12:13:25.000Z</time>
      </trkpt>
      <trkpt lat="46.70445" lon="-2.34983">
        <ele>25.3</ele>
        <time>2018-09-20T12:13:26.000Z</time>
      </trkpt>
      <trkpt lat="46.70446" lon="-2.34983">
        <ele>25.3</ele>
        <time>2018-09-20T12:13:27.000Z</time>
      </trkpt>
      <trkpt lat="46.70447" lon="-2.34983">
        <ele>25.3</ele>
        <time>2018-09-20T12:13:28.000Z</time>
      </trkpt>
      <trkpt lat="46.70448" lon="-2.34983">
        <ele>25.3</ele>
        <time>2018-09-20T12:13:29.000Z</time>
      </trkpt>
      <trkpt lat="46.70449" lon="-2.34983">
        <ele>25.3</ele>
        <time>2018-09-20T12:13:30.000Z</time>
      </trkpt>
      <trkpt lat="46.7045" lon="-2.34984">
        <ele>25.3</ele>
        <time>2018-09-20T12:13:31.000Z</time>
      </trkpt>
      <trkpt lat="46.70451" lon="-2.34984">
        <ele>25.3</ele>
        <time>2018-09-20T12:13:32.000Z</time>
      </trkpt>
      <trkpt lat="46.70452" lon="-2.34984">
        <ele>25.3</ele>
        <time>2018-09-20T12:13:33.000Z</time>
      </trkpt>
      <trkpt lat="46.70453" lon="-2.34984">
        <ele>25.3</ele>
        <time>2018-09-20T12:13:34.000Z</time>
      </trkpt>
      <trkpt lat="46.70454" lon="-2.34984">
        <ele>25.3</ele>
        <time>2018-09-20T12:13:35.000Z</time>
      </trkpt>
      <trkpt lat="46.70455" lon="-2.34984">
        <ele>25.3</ele>
        <time>2018-09-20T12:13:36.000Z</time>
      </trkpt>
      <trkpt lat="46.70456" lon="-2.34984">
        <ele>25.3</ele>
        <time>2018-09-20T12:13:37.000Z</time>
      </trkpt>
      <trkpt lat="46.70457" lon="-2.34984">
        <ele>25.3</ele>
        <time>2018-09-20T12:13:38.000Z</time>
      </trkpt>
      <trkpt lat="46.70458" lon="-2.34984">
        <ele>25.3</ele>
        <time>2018-09-20T12:13:39.000Z</time>
      </trkpt>
      <trkpt lat="46.70459" lon="-2.34984">
        <ele>25.3</ele>
        <time>2018-09-20T12:13:40.000Z</time>
      </trkpt>
      <trkpt lat="46.7046" lon="-2.34984">
        <ele>25.3</ele>
        <time>2018-09-20T12:13:41.000Z</time>
      </trkpt>
      <trkpt lat="46.70461" lon="-2.34984">
        <ele>25.3</ele>
        <time>2018-09-20T12:13:42.000Z</time>
      </trkpt>
      <trkpt lat="46.70462" lon="-2.34984">
        <ele>25.3</ele>
        <time>2018-09-20T12:13:43.000Z</time>
      </trkpt>
      <trkpt lat="46.70463" lon="-2.34984">
        <ele>25.3</ele>
        <time>2018-09-20T12:13:44.000Z</time>
      </trkpt>
      <trkpt lat="46.70464" lon="-2.34984">
        <ele>25.3</ele>
        <time>2018-09-20T12:13:45.000Z</time>
      </trkpt>
      <trkpt lat="46.70466" lon="-2.34984">
        <ele>25.3</ele>
        <time>2018-09-20T12:13:46.000Z</time>
      </trkpt>
      <trkpt lat="46.70467" lon="-2.34984">
        <ele>25.3</ele>
        <time>2018-09-20T12:13:47.000Z</time>
      </trkpt>
      <trkpt lat="46.70469" lon="-2.34984">
        <ele>25.3</ele>
        <time>2018-09-20T12:13:48.000Z</time>
      </trkpt>
      <trkpt lat="46.70471" lon="-2.34984">
        <ele>25.3</ele>
        <time>2018-09-20T12:13:49.000Z</time>
      </trkpt>
      <trkpt lat="46.70472" lon="-2.34984">
        <ele>25.3</ele>
        <time>2018-09-20T12:13:50.000Z</time>
      </trkpt>
      <trkpt lat="46.70473" lon="-2.34984">
        <ele>25.3</ele>
        <time>2018-09-20T12:13:51.000Z</time>
      </trkpt>
      <trkpt lat="46.70474" lon="-2.34984">
        <ele>25.3</ele>
        <time>2018-09-20T12:13:52.000Z</time>
      </trkpt>
      <trkpt lat="46.70475" lon="-2.34984">
        <ele>25.3</ele>
        <time>2018-09-20T12:13:53.000Z</time>
      </trkpt>
      <trkpt lat="46.70476" lon="-2.34984">
        <ele>25.3</ele>
        <time>2018-09-20T12:13:54.000Z</time>
      </trkpt>
      <trkpt lat="46.70477" lon="-2.34984">
        <ele>25.3</ele>
        <time>2018-09-20T12:13:55.000Z</time>
      </trkpt>
      <trkpt lat="46.70478" lon="-2.34984">
        <ele>25.3</ele>
        <time>2018-09-20T12:13:56.000Z</time>
      </trkpt>
      <trkpt lat="46.70479" lon="-2.34984">
        <ele>25.3</ele>
        <time>2018-09-20T12:13:57.000Z</time>
      </trkpt>
      <trkpt lat="46.7048" lon="-2.34984">
        <ele>25.3</ele>
        <time>2018-09-20T12:13:58.000Z</time>
      </trkpt>
      <trkpt lat="46.70481" lon="-2.34984">
        <ele>25.3</ele>
        <time>2018-09-20T12:13:59.000Z</time>
      </trkpt>
      <trkpt lat="46.70482" lon="-2.34984">
        <ele>25.3</ele>
        <time>2018-09-20T12:14:00.000Z</time>
      </trkpt>
      <trkpt lat="46.70483" lon="-2.34984">
        <ele>25.3</ele>
        <time>2018-09-20T12:14:01.000Z</time>
      </trkpt>
      <trkpt lat="46.70484" lon="-2.34984">
        <ele>25.4</ele>
        <time>2018-09-20T12:14:02.000Z</time>
      </trkpt>
      <trkpt lat="46.70486" lon="-2.34984">
        <ele>25.4</ele>
        <time>2018-09-20T12:14:03.000Z</time>
      </trkpt>
      <trkpt lat="46.70487" lon="-2.34984">
        <ele>25.4</ele>
        <time>2018-09-20T12:14:04.000Z</time>
      </trkpt>
      <trkpt lat="46.70488" lon="-2.34984">
        <ele>25.3</ele>
        <time>2018-09-20T12:14:05.000Z</time>
      </trkpt>
      <trkpt lat="46.70489" lon="-2.34985">
        <ele>25.3</ele>
        <time>2018-09-20T12:14:06.000Z</time>
      </trkpt>
      <trkpt lat="46.70491" lon="-2.34985">
        <ele>25.3</ele>
        <time>2018-09-20T12:14:07.000Z</time>
      </trkpt>
      <trkpt lat="46.70492" lon="-2.34985">
        <ele>25.3</ele>
        <time>2018-09-20T12:14:08.000Z</time>
      </trkpt>
      <trkpt lat="46.70493" lon="-2.34985">
        <ele>25.3</ele>
        <time>2018-09-20T12:14:09.000Z</time>
      </trkpt>
      <trkpt lat="46.70494" lon="-2.34985">
        <ele>25.3</ele>
        <time>2018-09-20T12:14:10.000Z</time>
      </trkpt>
      <trkpt lat="46.70496" lon="-2.34985">
        <ele>25.3</ele>
        <time>2018-09-20T12:14:11.000Z</time>
      </trkpt>
      <trkpt lat="46.70497" lon="-2.34986">
        <ele>25.3</ele>
        <time>2018-09-20T12:14:12.000Z</time>
      </trkpt>
      <trkpt lat="46.70498" lon="-2.34986">
        <ele>25.3</ele>
        <time>2018-09-20T12:14:13.000Z</time>
      </trkpt>
      <trkpt lat="46.70499" lon="-2.34986">
        <ele>25.3</ele>
        <time>2018-09-20T12:14:14.000Z</time>
      </trkpt>
      <trkpt lat="46.70501" lon="-2.34986">
        <ele>25.3</ele>
        <time>2018-09-20T12:14:15.000Z</time>
      </trkpt>
      <trkpt lat="46.70502" lon="-2.34986">
        <ele>25.3</ele>
        <time>2018-09-20T12:14:16.000Z</time>
      </trkpt>
      <trkpt lat="46.70503" lon="-2.34987">
        <ele>25.4</ele>
        <time>2018-09-20T12:14:17.000Z</time>
      </trkpt>
      <trkpt lat="46.70504" lon="-2.34987">
        <ele>25.4</ele>
        <time>2018-09-20T12:14:18.000Z</time>
      </trkpt>
      <trkpt lat="46.70505" lon="-2.34987">
        <ele>25.4</ele>
        <time>2018-09-20T12:14:19.000Z</time>
      </trkpt>
      <trkpt lat="46.70506" lon="-2.34987">
        <ele>25.4</ele>
        <time>2018-09-20T12:14:20.000Z</time>
      </trkpt>
      <trkpt lat="46.70507" lon="-2.34987">
        <ele>25.4</ele>
        <time>2018-09-20T12:14:21.000Z</time>
      </trkpt>
      <trkpt lat="46.70508" lon="-2.34988">
        <ele>25.4</ele>
        <time>2018-09-20T12:14:22.000Z</time>
      </trkpt>
      <trkpt lat="46.70509" lon="-2.34988">
        <ele>25.4</ele>
        <time>2018-09-20T12:14:23.000Z</time>
      </trkpt>
      <trkpt lat="46.7051" lon="-2.34988">
        <ele>25.4</ele>
        <time>2018-09-20T12:14:24.000Z</time>
      </trkpt>
      <trkpt lat="46.70511" lon="-2.34988">
        <ele>25.4</ele>
        <time>2018-09-20T12:14:25.000Z</time>
      </trkpt>
      <trkpt lat="46.70512" lon="-2.34988">
        <ele>25.4</ele>
        <time>2018-09-20T12:14:26.000Z</time>
      </trkpt>
      <trkpt lat="46.70514" lon="-2.34989">
        <ele>25.4</ele>
        <time>2018-09-20T12:14:27.000Z</time>
      </trkpt>
      <trkpt lat="46.70515" lon="-2.34989">
        <ele>25.4</ele>
        <time>2018-09-20T12:14:28.000Z</time>
      </trkpt>
      <trkpt lat="46.70517" lon="-2.3499">
        <ele>25.4</ele>
        <time>2018-09-20T12:14:29.000Z</time>
      </trkpt>
      <trkpt lat="46.70518" lon="-2.34991">
        <ele>25.4</ele>
        <time>2018-09-20T12:14:30.000Z</time>
      </trkpt>
      <trkpt lat="46.7052" lon="-2.34991">
        <ele>25.4</ele>
        <time>2018-09-20T12:14:31.000Z</time>
      </trkpt>
      <trkpt lat="46.70522" lon="-2.34992">
        <ele>25.4</ele>
        <time>2018-09-20T12:14:32.000Z</time>
      </trkpt>
      <trkpt lat="46.70523" lon="-2.34993">
        <ele>25.4</ele>
        <time>2018-09-20T12:14:33.000Z</time>
      </trkpt>
      <trkpt lat="46.70524" lon="-2.34993">
        <ele>25.4</ele>
        <time>2018-09-20T12:14:34.000Z</time>
      </trkpt>
      <trkpt lat="46.70525" lon="-2.34993">
        <ele>25.4</ele>
        <time>2018-09-20T12:14:35.000Z</time>
      </trkpt>
      <trkpt lat="46.70525" lon="-2.34994">
        <ele>25.4</ele>
        <time>2018-09-20T12:14:36.000Z</time>
      </trkpt>
      <trkpt lat="46.70525" lon="-2.34994">
        <ele>25.4</ele>
        <time>2018-09-20T12:14:37.000Z</time>
      </trkpt>
      <trkpt lat="46.70526" lon="-2.34994">
        <ele>25.4</ele>
        <time>2018-09-20T12:14:38.000Z</time>
      </trkpt>
      <trkpt lat="46.70526" lon="-2.34994">
        <ele>25.4</ele>
        <time>2018-09-20T12:14:39.000Z</time>
      </trkpt>
      <trkpt lat="46.70526" lon="-2.34994">
        <ele>25.4</ele>
        <time>2018-09-20T12:14:40.000Z</time>
      </trkpt>
      <trkpt lat="46.70526" lon="-2.34994">
        <ele>25.4</ele>
        <time>2018-09-20T12:14:41.000Z</time>
      </trkpt>
      <trkpt lat="46.70526" lon="-2.34994">
        <ele>25.4</ele>
        <time>2018-09-20T12:14:42.000Z</time>
      </trkpt>
      <trkpt lat="46.70526" lon="-2.34994">
        <ele>25.4</ele>
        <time>2018-09-20T12:14:43.000Z</time>
      </trkpt>
      <trkpt lat="46.70526" lon="-2.34994">
        <ele>25.4</ele>
        <time>2018-09-20T12:14:44.000Z</time>
      </trkpt>
      <trkpt lat="46.70527" lon="-2.34994">
        <ele>25.4</ele>
        <time>2018-09-20T12:14:45.000Z</time>
      </trkpt>
      <trkpt lat="46.70528" lon="-2.34995">
        <ele>25.4</ele>
        <time>2018-09-20T12:14:46.000Z</time>
      </trkpt>
      <trkpt lat="46.70529" lon="-2.34995">
        <ele>25.4</ele>
        <time>2018-09-20T12:14:47.000Z</time>
      </trkpt>
      <trkpt lat="46.7053" lon="-2.34995">
        <ele>25.5</ele>
        <time>2018-09-20T12:14:48.000Z</time>
      </trkpt>
      <trkpt lat="46.70531" lon="-2.34996">
        <ele>25.5</ele>
        <time>2018-09-20T12:14:49.000Z</time>
      </trkpt>
      <trkpt lat="46.70532" lon="-2.34996">
        <ele>25.5</ele>
        <time>2018-09-20T12:14:50.000Z</time>
      </trkpt>
      <trkpt lat="46.70534" lon="-2.34996">
        <ele>25.5</ele>
        <time>2018-09-20T12:14:51.000Z</time>
      </trkpt>
      <trkpt lat="46.70535" lon="-2.34997">
        <ele>25.5</ele>
        <time>2018-09-20T12:14:52.000Z</time>
      </trkpt>
      <trkpt lat="46.70536" lon="-2.34997">
        <ele>25.5</ele>
        <time>2018-09-20T12:14:53.000Z</time>
      </trkpt>
      <trkpt lat="46.70537" lon="-2.34997">
        <ele>25.5</ele>
        <time>2018-09-20T12:14:54.000Z</time>
      </trkpt>
      <trkpt lat="46.70538" lon="-2.34998">
        <ele>25.5</ele>
        <time>2018-09-20T12:14:55.000Z</time>
      </trkpt>
      <trkpt lat="46.70539" lon="-2.34998">
        <ele>25.5</ele>
        <time>2018-09-20T12:14:56.000Z</time>
      </trkpt>
      <trkpt lat="46.7054" lon="-2.34998">
        <ele>25.5</ele>
        <time>2018-09-20T12:14:57.000Z</time>
      </trkpt>
      <trkpt lat="46.70541" lon="-2.34999">
        <ele>25.5</ele>
        <time>2018-09-20T12:14:58.000Z</time>
      </trkpt>
      <trkpt lat="46.70542" lon="-2.35">
        <ele>25.5</ele>
        <time>2018-09-20T12:14:59.000Z</time>
      </trkpt>
      <trkpt lat="46.70543" lon="-2.35">
        <ele>25.5</ele>
        <time>2018-09-20T12:15:00.000Z</time>
      </trkpt>
      <trkpt lat="46.70544" lon="-2.35001">
        <ele>25.5</ele>
        <time>2018-09-20T12:15:01.000Z</time>
      </trkpt>
      <trkpt lat="46.70545" lon="-2.35002">
        <ele>25.5</ele>
        <time>2018-09-20T12:15:02.000Z</time>
      </trkpt>
      <trkpt lat="46.70546" lon="-2.35002">
        <ele>25.6</ele>
        <time>2018-09-20T12:15:03.000Z</time>
      </trkpt>
      <trkpt lat="46.70548" lon="-2.35003">
        <ele>25.6</ele>
        <time>2018-09-20T12:15:04.000Z</time>
      </trkpt>
      <trkpt lat="46.70549" lon="-2.35004">
        <ele>25.6</ele>
        <time>2018-09-20T12:15:05.000Z</time>
      </trkpt>
      <trkpt lat="46.7055" lon="-2.35004">
        <ele>25.6</ele>
        <time>2018-09-20T12:15:06.000Z</time>
      </trkpt>
      <trkpt lat="46.70551" lon="-2.35005">
        <ele>25.6</ele>
        <time>2018-09-20T12:15:07.000Z</time>
      </trkpt>
      <trkpt lat="46.70552" lon="-2.35006">
        <ele>25.6</ele>
        <time>2018-09-20T12:15:08.000Z</time>
      </trkpt>
      <trkpt lat="46.70553" lon="-2.35007">
        <ele>25.6</ele>
        <time>2018-09-20T12:15:09.000Z</time>
      </trkpt>
      <trkpt lat="46.70555" lon="-2.35007">
        <ele>25.7</ele>
        <time>2018-09-20T12:15:10.000Z</time>
      </trkpt>
      <trkpt lat="46.70556" lon="-2.35008">
        <ele>25.7</ele>
        <time>2018-09-20T12:15:11.000Z</time>
      </trkpt>
      <trkpt lat="46.70557" lon="-2.35008">
        <ele>25.7</ele>
        <time>2018-09-20T12:15:12.000Z</time>
      </trkpt>
      <trkpt lat="46.70557" lon="-2.35009">
        <ele>25.7</ele>
        <time>2018-09-20T12:15:13.000Z</time>
      </trkpt>
      <trkpt lat="46.70558" lon="-2.35009">
        <ele>25.7</ele>
        <time>2018-09-20T12:15:14.000Z</time>
      </trkpt>
      <trkpt lat="46.70559" lon="-2.3501">
        <ele>25.7</ele>
        <time>2018-09-20T12:15:15.000Z</time>
      </trkpt>
      <trkpt lat="46.7056" lon="-2.3501">
        <ele>25.7</ele>
        <time>2018-09-20T12:15:16.000Z</time>
      </trkpt>
      <trkpt lat="46.7056" lon="-2.35011">
        <ele>25.7</ele>
        <time>2018-09-20T12:15:17.000Z</time>
      </trkpt>
      <trkpt lat="46.7056" lon="-2.35011">
        <ele>25.7</ele>
        <time>2018-09-20T12:15:18.000Z</time>
      </trkpt>
      <trkpt lat="46.70561" lon="-2.35011">
        <ele>25.7</ele>
        <time>2018-09-20T12:15:19.000Z</time>
      </trkpt>
      <trkpt lat="46.70561" lon="-2.35011">
        <ele>25.7</ele>
        <time>2018-09-20T12:15:20.000Z</time>
      </trkpt>
      <trkpt lat="46.70561" lon="-2.35011">
        <ele>25.7</ele>
        <time>2018-09-20T12:15:21.000Z</time>
      </trkpt>
      <trkpt lat="46.70561" lon="-2.35012">
        <ele>25.7</ele>
        <time>2018-09-20T12:15:22.000Z</time>
      </trkpt>
      <trkpt lat="46.70561" lon="-2.35012">
        <ele>25.7</ele>
        <time>2018-09-20T12:15:23.000Z</time>
      </trkpt>
      <trkpt lat="46.70562" lon="-2.35012">
        <ele>25.7</ele>
        <time>2018-09-20T12:15:24.000Z</time>
      </trkpt>
      <trkpt lat="46.70563" lon="-2.35012">
        <ele>25.8</ele>
        <time>2018-09-20T12:15:25.000Z</time>
      </trkpt>
      <trkpt lat="46.70564" lon="-2.35013">
        <ele>25.8</ele>
        <time>2018-09-20T12:15:26.000Z</time>
      </trkpt>
      <trkpt lat="46.70564" lon="-2.35013">
        <ele>25.8</ele>
        <time>2018-09-20T12:15:27.000Z</time>
      </trkpt>
      <trkpt lat="46.70565" lon="-2.35014">
        <ele>25.8</ele>
        <time>2018-09-20T12:15:28.000Z</time>
      </trkpt>
      <trkpt lat="46.70566" lon="-2.35014">
        <ele>25.8</ele>
        <time>2018-09-20T12:15:29.000Z</time>
      </trkpt>
      <trkpt lat="46.70567" lon="-2.35015">
        <ele>25.8</ele>
        <time>2018-09-20T12:15:30.000Z</time>
      </trkpt>
      <trkpt lat="46.70569" lon="-2.35015">
        <ele>25.8</ele>
        <time>2018-09-20T12:15:31.000Z</time>
      </trkpt>
      <trkpt lat="46.7057" lon="-2.35016">
        <ele>25.8</ele>
        <time>2018-09-20T12:15:32.000Z</time>
      </trkpt>
      <trkpt lat="46.70571" lon="-2.35017">
        <ele>25.8</ele>
        <time>2018-09-20T12:15:33.000Z</time>
      </trkpt>
      <trkpt lat="46.70572" lon="-2.35017">
        <ele>25.9</ele>
        <time>2018-09-20T12:15:34.000Z</time>
      </trkpt>
      <trkpt lat="46.70573" lon="-2.35018">
        <ele>25.9</ele>
        <time>2018-09-20T12:15:35.000Z</time>
      </trkpt>
      <trkpt lat="46.70574" lon="-2.35019">
        <ele>25.9</ele>
        <time>2018-09-20T12:15:36.000Z</time>
      </trkpt>
      <trkpt lat="46.70575" lon="-2.3502">
        <ele>25.9</ele>
        <time>2018-09-20T12:15:37.000Z</time>
      </trkpt>
      <trkpt lat="46.70576" lon="-2.3502">
        <ele>25.9</ele>
        <time>2018-09-20T12:15:38.000Z</time>
      </trkpt>
      <trkpt lat="46.70577" lon="-2.35021">
        <ele>25.9</ele>
        <time>2018-09-20T12:15:39.000Z</time>
      </trkpt>
      <trkpt lat="46.70578" lon="-2.35022">
        <ele>25.9</ele>
        <time>2018-09-20T12:15:40.000Z</time>
      </trkpt>
      <trkpt lat="46.70579" lon="-2.35023">
        <ele>26</ele>
        <time>2018-09-20T12:15:41.000Z</time>
      </trkpt>
      <trkpt lat="46.70581" lon="-2.35024">
        <ele>26</ele>
        <time>2018-09-20T12:15:42.000Z</time>
      </trkpt>
      <trkpt lat="46.70582" lon="-2.35024">
        <ele>26</ele>
        <time>2018-09-20T12:15:43.000Z</time>
      </trkpt>
      <trkpt lat="46.70583" lon="-2.35025">
        <ele>26</ele>
        <time>2018-09-20T12:15:44.000Z</time>
      </trkpt>
      <trkpt lat="46.70584" lon="-2.35026">
        <ele>26</ele>
        <time>2018-09-20T12:15:45.000Z</time>
      </trkpt>
      <trkpt lat="46.70585" lon="-2.35027">
        <ele>26</ele>
        <time>2018-09-20T12:15:46.000Z</time>
      </trkpt>
      <trkpt lat="46.70586" lon="-2.35027">
        <ele>26</ele>
        <time>2018-09-20T12:15:47.000Z</time>
      </trkpt>
      <trkpt lat="46.70587" lon="-2.35028">
        <ele>26</ele>
        <time>2018-09-20T12:15:48.000Z</time>
      </trkpt>
      <trkpt lat="46.70588" lon="-2.35029">
        <ele>26</ele>
        <time>2018-09-20T12:15:49.000Z</time>
      </trkpt>
      <trkpt lat="46.70589" lon="-2.35029">
        <ele>26</ele>
        <time>2018-09-20T12:15:50.000Z</time>
      </trkpt>
      <trkpt lat="46.7059" lon="-2.3503">
        <ele>26.1</ele>
        <time>2018-09-20T12:15:51.000Z</time>
      </trkpt>
      <trkpt lat="46.70591" lon="-2.3503">
        <ele>26.1</ele>
        <time>2018-09-20T12:15:52.000Z</time>
      </trkpt>
      <trkpt lat="46.70592" lon="-2.35031">
        <ele>26.1</ele>
        <time>2018-09-20T12:15:53.000Z</time>
      </trkpt>
      <trkpt lat="46.70593" lon="-2.35031">
        <ele>26.1</ele>
        <time>2018-09-20T12:15:54.000Z</time>
      </trkpt>
      <trkpt lat="46.70594" lon="-2.35032">
        <ele>26.1</ele>
        <time>2018-09-20T12:15:55.000Z</time>
      </trkpt>
      <trkpt lat="46.70595" lon="-2.35032">
        <ele>26.1</ele>
        <time>2018-09-20T12:15:56.000Z</time>
      </trkpt>
      <trkpt lat="46.70595" lon="-2.35032">
        <ele>26.1</ele>
        <time>2018-09-20T12:15:57.000Z</time>
      </trkpt>
      <trkpt lat="46.70596" lon="-2.35033">
        <ele>26.1</ele>
        <time>2018-09-20T12:15:58.000Z</time>
      </trkpt>
      <trkpt lat="46.70597" lon="-2.35033">
        <ele>26.1</ele>
        <time>2018-09-20T12:15:59.000Z</time>
      </trkpt>
      <trkpt lat="46.70598" lon="-2.35034">
        <ele>26.1</ele>
        <time>2018-09-20T12:16:00.000Z</time>
      </trkpt>
      <trkpt lat="46.70599" lon="-2.35034">
        <ele>26.1</ele>
        <time>2018-09-20T12:16:01.000Z</time>
      </trkpt>
      <trkpt lat="46.706" lon="-2.35034">
        <ele>26.1</ele>
        <time>2018-09-20T12:16:02.000Z</time>
      </trkpt>
      <trkpt lat="46.70601" lon="-2.35035">
        <ele>26.1</ele>
        <time>2018-09-20T12:16:03.000Z</time>
      </trkpt>
      <trkpt lat="46.70602" lon="-2.35035">
        <ele>26.1</ele>
        <time>2018-09-20T12:16:04.000Z</time>
      </trkpt>
      <trkpt lat="46.70602" lon="-2.35036">
        <ele>26.1</ele>
        <time>2018-09-20T12:16:05.000Z</time>
      </trkpt>
      <trkpt lat="46.70603" lon="-2.35036">
        <ele>26.1</ele>
        <time>2018-09-20T12:16:06.000Z</time>
      </trkpt>
      <trkpt lat="46.70604" lon="-2.35037">
        <ele>26.1</ele>
        <time>2018-09-20T12:16:07.000Z</time>
      </trkpt>
      <trkpt lat="46.70605" lon="-2.35037">
        <ele>26.1</ele>
        <time>2018-09-20T12:16:08.000Z</time>
      </trkpt>
      <trkpt lat="46.70606" lon="-2.35038">
        <ele>26.2</ele>
        <time>2018-09-20T12:16:09.000Z</time>
      </trkpt>
      <trkpt lat="46.70607" lon="-2.35038">
        <ele>26.2</ele>
        <time>2018-09-20T12:16:10.000Z</time>
      </trkpt>
      <trkpt lat="46.70608" lon="-2.35039">
        <ele>26.2</ele>
        <time>2018-09-20T12:16:11.000Z</time>
      </trkpt>
      <trkpt lat="46.70609" lon="-2.35039">
        <ele>26.2</ele>
        <time>2018-09-20T12:16:12.000Z</time>
      </trkpt>
      <trkpt lat="46.7061" lon="-2.3504">
        <ele>26.2</ele>
        <time>2018-09-20T12:16:13.000Z</time>
      </trkpt>
      <trkpt lat="46.70611" lon="-2.3504">
        <ele>26.2</ele>
        <time>2018-09-20T12:16:14.000Z</time>
      </trkpt>
      <trkpt lat="46.70612" lon="-2.35041">
        <ele>26.2</ele>
        <time>2018-09-20T12:16:15.000Z</time>
      </trkpt>
      <trkpt lat="46.70613" lon="-2.35042">
        <ele>26.2</ele>
        <time>2018-09-20T12:16:16.000Z</time>
      </trkpt>
      <trkpt lat="46.70614" lon="-2.35042">
        <ele>26.2</ele>
        <time>2018-09-20T12:16:17.000Z</time>
      </trkpt>
      <trkpt lat="46.70615" lon="-2.35043">
        <ele>26.2</ele>
        <time>2018-09-20T12:16:18.000Z</time>
      </trkpt>
      <trkpt lat="46.70616" lon="-2.35044">
        <ele>26.2</ele>
        <time>2018-09-20T12:16:19.000Z</time>
      </trkpt>
      <trkpt lat="46.70617" lon="-2.35044">
        <ele>26.2</ele>
        <time>2018-09-20T12:16:20.000Z</time>
      </trkpt>
      <trkpt lat="46.70618" lon="-2.35045">
        <ele>26.2</ele>
        <time>2018-09-20T12:16:21.000Z</time>
      </trkpt>
      <trkpt lat="46.70619" lon="-2.35046">
        <ele>26.2</ele>
        <time>2018-09-20T12:16:22.000Z</time>
      </trkpt>
      <trkpt lat="46.7062" lon="-2.35046">
        <ele>26.2</ele>
        <time>2018-09-20T12:16:23.000Z</time>
      </trkpt>
      <trkpt lat="46.70621" lon="-2.35047">
        <ele>26.2</ele>
        <time>2018-09-20T12:16:24.000Z</time>
      </trkpt>
      <trkpt lat="46.70621" lon="-2.35047">
        <ele>26.2</ele>
        <time>2018-09-20T12:16:25.000Z</time>
      </trkpt>
      <trkpt lat="46.70622" lon="-2.35048">
        <ele>26.2</ele>
        <time>2018-09-20T12:16:26.000Z</time>
      </trkpt>
      <trkpt lat="46.70622" lon="-2.35048">
        <ele>26.2</ele>
        <time>2018-09-20T12:16:27.000Z</time>
      </trkpt>
      <trkpt lat="46.70623" lon="-2.35048">
        <ele>26.2</ele>
        <time>2018-09-20T12:16:28.000Z</time>
      </trkpt>
      <trkpt lat="46.70623" lon="-2.35048">
        <ele>26.2</ele>
        <time>2018-09-20T12:16:29.000Z</time>
      </trkpt>
      <trkpt lat="46.70623" lon="-2.35048">
        <ele>26.2</ele>
        <time>2018-09-20T12:16:30.000Z</time>
      </trkpt>
      <trkpt lat="46.70623" lon="-2.35048">
        <ele>26.2</ele>
        <time>2018-09-20T12:16:31.000Z</time>
      </trkpt>
      <trkpt lat="46.70623" lon="-2.35048">
        <ele>26.2</ele>
        <time>2018-09-20T12:16:32.000Z</time>
      </trkpt>
      <trkpt lat="46.70623" lon="-2.35048">
        <ele>26.2</ele>
        <time>2018-09-20T12:16:33.000Z</time>
      </trkpt>
      <trkpt lat="46.70624" lon="-2.35049">
        <ele>26.2</ele>
        <time>2018-09-20T12:16:34.000Z</time>
      </trkpt>
      <trkpt lat="46.70624" lon="-2.35049">
        <ele>26.2</ele>
        <time>2018-09-20T12:16:35.000Z</time>
      </trkpt>
      <trkpt lat="46.70625" lon="-2.3505">
        <ele>26.2</ele>
        <time>2018-09-20T12:16:36.000Z</time>
      </trkpt>
      <trkpt lat="46.70626" lon="-2.35051">
        <ele>26.2</ele>
        <time>2018-09-20T12:16:37.000Z</time>
      </trkpt>
      <trkpt lat="46.70628" lon="-2.35051">
        <ele>26.2</ele>
        <time>2018-09-20T12:16:38.000Z</time>
      </trkpt>
      <trkpt lat="46.70629" lon="-2.35052">
        <ele>26.2</ele>
        <time>2018-09-20T12:16:39.000Z</time>
      </trkpt>
      <trkpt lat="46.7063" lon="-2.35053">
        <ele>26.2</ele>
        <time>2018-09-20T12:16:40.000Z</time>
      </trkpt>
      <trkpt lat="46.70632" lon="-2.35054">
        <ele>26.2</ele>
        <time>2018-09-20T12:16:41.000Z</time>
      </trkpt>
      <trkpt lat="46.70633" lon="-2.35055">
        <ele>26.2</ele>
        <time>2018-09-20T12:16:42.000Z</time>
      </trkpt>
      <trkpt lat="46.70635" lon="-2.35056">
        <ele>26.2</ele>
        <time>2018-09-20T12:16:43.000Z</time>
      </trkpt>
      <trkpt lat="46.70636" lon="-2.35057">
        <ele>26.2</ele>
        <time>2018-09-20T12:16:44.000Z</time>
      </trkpt>
      <trkpt lat="46.70637" lon="-2.35057">
        <ele>26.2</ele>
        <time>2018-09-20T12:16:45.000Z</time>
      </trkpt>
      <trkpt lat="46.70639" lon="-2.35058">
        <ele>26.2</ele>
        <time>2018-09-20T12:16:46.000Z</time>
      </trkpt>
      <trkpt lat="46.7064" lon="-2.35059">
        <ele>26.2</ele>
        <time>2018-09-20T12:16:47.000Z</time>
      </trkpt>
      <trkpt lat="46.70641" lon="-2.35059">
        <ele>26.2</ele>
        <time>2018-09-20T12:16:48.000Z</time>
      </trkpt>
      <trkpt lat="46.70642" lon="-2.3506">
        <ele>26.2</ele>
        <time>2018-09-20T12:16:49.000Z</time>
      </trkpt>
      <trkpt lat="46.70643" lon="-2.3506">
        <ele>26.2</ele>
        <time>2018-09-20T12:16:50.000Z</time>
      </trkpt>
      <trkpt lat="46.70644" lon="-2.3506">
        <ele>26.2</ele>
        <time>2018-09-20T12:16:51.000Z</time>
      </trkpt>
      <trkpt lat="46.70645" lon="-2.35061">
        <ele>26.2</ele>
        <time>2018-09-20T12:16:52.000Z</time>
      </trkpt>
      <trkpt lat="46.70646" lon="-2.35061">
        <ele>26.2</ele>
        <time>2018-09-20T12:16:53.000Z</time>
      </trkpt>
      <trkpt lat="46.70647" lon="-2.35061">
        <ele>26.2</ele>
        <time>2018-09-20T12:16:54.000Z</time>
      </trkpt>
      <trkpt lat="46.70648" lon="-2.35062">
        <ele>26.2</ele>
        <time>2018-09-20T12:16:55.000Z</time>
      </trkpt>
      <trkpt lat="46.70649" lon="-2.35062">
        <ele>26.2</ele>
        <time>2018-09-20T12:16:56.000Z</time>
      </trkpt>
      <trkpt lat="46.70651" lon="-2.35063">
        <ele>26.2</ele>
        <time>2018-09-20T12:16:57.000Z</time>
      </trkpt>
      <trkpt lat="46.70652" lon="-2.35063">
        <ele>26.2</ele>
        <time>2018-09-20T12:16:58.000Z</time>
      </trkpt>
      <trkpt lat="46.70653" lon="-2.35064">
        <ele>26.2</ele>
        <time>2018-09-20T12:16:59.000Z</time>
      </trkpt>
      <trkpt lat="46.70654" lon="-2.35064">
        <ele>26.2</ele>
        <time>2018-09-20T12:17:00.000Z</time>
      </trkpt>
      <trkpt lat="46.70655" lon="-2.35065">
        <ele>26.2</ele>
        <time>2018-09-20T12:17:01.000Z</time>
      </trkpt>
      <trkpt lat="46.70656" lon="-2.35065">
        <ele>26.2</ele>
        <time>2018-09-20T12:17:02.000Z</time>
      </trkpt>
      <trkpt lat="46.70657" lon="-2.35066">
        <ele>26.2</ele>
        <time>2018-09-20T12:17:03.000Z</time>
      </trkpt>
      <trkpt lat="46.70659" lon="-2.35067">
        <ele>26.2</ele>
        <time>2018-09-20T12:17:04.000Z</time>
      </trkpt>
      <trkpt lat="46.7066" lon="-2.35067">
        <ele>26.2</ele>
        <time>2018-09-20T12:17:05.000Z</time>
      </trkpt>
      <trkpt lat="46.70661" lon="-2.35068">
        <ele>26.2</ele>
        <time>2018-09-20T12:17:06.000Z</time>
      </trkpt>
      <trkpt lat="46.70662" lon="-2.35069">
        <ele>26.2</ele>
        <time>2018-09-20T12:17:07.000Z</time>
      </trkpt>
      <trkpt lat="46.70663" lon="-2.35069">
        <ele>26.2</ele>
        <time>2018-09-20T12:17:08.000Z</time>
      </trkpt>
      <trkpt lat="46.70664" lon="-2.3507">
        <ele>26.2</ele>
        <time>2018-09-20T12:17:09.000Z</time>
      </trkpt>
      <trkpt lat="46.70665" lon="-2.35071">
        <ele>26.1</ele>
        <time>2018-09-20T12:17:10.000Z</time>
      </trkpt>
      <trkpt lat="46.70666" lon="-2.35071">
        <ele>26.1</ele>
        <time>2018-09-20T12:17:11.000Z</time>
      </trkpt>
      <trkpt lat="46.70667" lon="-2.35072">
        <ele>26.1</ele>
        <time>2018-09-20T12:17:12.000Z</time>
      </trkpt>
      <trkpt lat="46.70668" lon="-2.35073">
        <ele>26.2</ele>
        <time>2018-09-20T12:17:13.000Z</time>
      </trkpt>
      <trkpt lat="46.70669" lon="-2.35074">
        <ele>26.2</ele>
        <time>2018-09-20T12:17:14.000Z</time>
      </trkpt>
      <trkpt lat="46.7067" lon="-2.35075">
        <ele>26.2</ele>
        <time>2018-09-20T12:17:15.000Z</time>
      </trkpt>
      <trkpt lat="46.70671" lon="-2.35075">
        <ele>26.2</ele>
        <time>2018-09-20T12:17:16.000Z</time>
      </trkpt>
      <trkpt lat="46.70673" lon="-2.35076">
        <ele>26.2</ele>
        <time>2018-09-20T12:17:17.000Z</time>
      </trkpt>
      <trkpt lat="46.70674" lon="-2.35077">
        <ele>26.2</ele>
        <time>2018-09-20T12:17:18.000Z</time>
      </trkpt>
      <trkpt lat="46.70675" lon="-2.35078">
        <ele>26.3</ele>
        <time>2018-09-20T12:17:19.000Z</time>
      </trkpt>
      <trkpt lat="46.70677" lon="-2.35079">
        <ele>26.3</ele>
        <time>2018-09-20T12:17:20.000Z</time>
      </trkpt>
      <trkpt lat="46.70678" lon="-2.3508">
        <ele>26.3</ele>
        <time>2018-09-20T12:17:21.000Z</time>
      </trkpt>
      <trkpt lat="46.7068" lon="-2.35081">
        <ele>26.3</ele>
        <time>2018-09-20T12:17:22.000Z</time>
      </trkpt>
      <trkpt lat="46.70681" lon="-2.35082">
        <ele>26.4</ele>
        <time>2018-09-20T12:17:23.000Z</time>
      </trkpt>
      <trkpt lat="46.70683" lon="-2.35082">
        <ele>26.4</ele>
        <time>2018-09-20T12:17:24.000Z</time>
      </trkpt>
      <trkpt lat="46.70684" lon="-2.35083">
        <ele>26.4</ele>
        <time>2018-09-20T12:17:25.000Z</time>
      </trkpt>
      <trkpt lat="46.70685" lon="-2.35084">
        <ele>26.5</ele>
        <time>2018-09-20T12:17:26.000Z</time>
      </trkpt>
      <trkpt lat="46.70687" lon="-2.35084">
        <ele>26.5</ele>
        <time>2018-09-20T12:17:27.000Z</time>
      </trkpt>
      <trkpt lat="46.70688" lon="-2.35085">
        <ele>26.5</ele>
        <time>2018-09-20T12:17:28.000Z</time>
      </trkpt>
      <trkpt lat="46.7069" lon="-2.35085">
        <ele>26.6</ele>
        <time>2018-09-20T12:17:29.000Z</time>
      </trkpt>
      <trkpt lat="46.70691" lon="-2.35085">
        <ele>26.6</ele>
        <time>2018-09-20T12:17:30.000Z</time>
      </trkpt>
      <trkpt lat="46.70692" lon="-2.35085">
        <ele>26.6</ele>
        <time>2018-09-20T12:17:31.000Z</time>
      </trkpt>
      <trkpt lat="46.70694" lon="-2.35086">
        <ele>26.7</ele>
        <time>2018-09-20T12:17:32.000Z</time>
      </trkpt>
      <trkpt lat="46.70695" lon="-2.35086">
        <ele>26.7</ele>
        <time>2018-09-20T12:17:33.000Z</time>
      </trkpt>
      <trkpt lat="46.70696" lon="-2.35086">
        <ele>26.7</ele>
        <time>2018-09-20T12:17:34.000Z</time>
      </trkpt>
      <trkpt lat="46.70697" lon="-2.35085">
        <ele>26.7</ele>
        <time>2018-09-20T12:17:35.000Z</time>
      </trkpt>
      <trkpt lat="46.70699" lon="-2.35085">
        <ele>26.8</ele>
        <time>2018-09-20T12:17:36.000Z</time>
      </trkpt>
      <trkpt lat="46.707" lon="-2.35085">
        <ele>26.8</ele>
        <time>2018-09-20T12:17:37.000Z</time>
      </trkpt>
      <trkpt lat="46.70701" lon="-2.35085">
        <ele>26.8</ele>
        <time>2018-09-20T12:17:38.000Z</time>
      </trkpt>
      <trkpt lat="46.70702" lon="-2.35085">
        <ele>26.9</ele>
        <time>2018-09-20T12:17:39.000Z</time>
      </trkpt>
      <trkpt lat="46.70703" lon="-2.35084">
        <ele>26.9</ele>
        <time>2018-09-20T12:17:40.000Z</time>
      </trkpt>
      <trkpt lat="46.70704" lon="-2.35084">
        <ele>26.9</ele>
        <time>2018-09-20T12:17:41.000Z</time>
      </trkpt>
      <trkpt lat="46.70705" lon="-2.35084">
        <ele>26.9</ele>
        <time>2018-09-20T12:17:42.000Z</time>
      </trkpt>
      <trkpt lat="46.70706" lon="-2.35083">
        <ele>26.9</ele>
        <time>2018-09-20T12:17:43.000Z</time>
      </trkpt>
      <trkpt lat="46.70707" lon="-2.35083">
        <ele>27</ele>
        <time>2018-09-20T12:17:44.000Z</time>
      </trkpt>
      <trkpt lat="46.70708" lon="-2.35083">
        <ele>27</ele>
        <time>2018-09-20T12:17:45.000Z</time>
      </trkpt>
      <trkpt lat="46.70709" lon="-2.35082">
        <ele>27</ele>
        <time>2018-09-20T12:17:46.000Z</time>
      </trkpt>
      <trkpt lat="46.7071" lon="-2.35082">
        <ele>27.1</ele>
        <time>2018-09-20T12:17:47.000Z</time>
      </trkpt>
      <trkpt lat="46.70711" lon="-2.35082">
        <ele>27.1</ele>
        <time>2018-09-20T12:17:48.000Z</time>
      </trkpt>
      <trkpt lat="46.70712" lon="-2.35081">
        <ele>27.1</ele>
        <time>2018-09-20T12:17:49.000Z</time>
      </trkpt>
      <trkpt lat="46.70713" lon="-2.35081">
        <ele>27.1</ele>
        <time>2018-09-20T12:17:50.000Z</time>
      </trkpt>
      <trkpt lat="46.70714" lon="-2.35081">
        <ele>27.2</ele>
        <time>2018-09-20T12:17:51.000Z</time>
      </trkpt>
      <trkpt lat="46.70715" lon="-2.3508">
        <ele>27.2</ele>
        <time>2018-09-20T12:17:52.000Z</time>
      </trkpt>
      <trkpt lat="46.70716" lon="-2.3508">
        <ele>27.2</ele>
        <time>2018-09-20T12:17:53.000Z</time>
      </trkpt>
      <trkpt lat="46.70717" lon="-2.3508">
        <ele>27.2</ele>
        <time>2018-09-20T12:17:54.000Z</time>
      </trkpt>
      <trkpt lat="46.70718" lon="-2.3508">
        <ele>27.2</ele>
        <time>2018-09-20T12:17:55.000Z</time>
      </trkpt>
      <trkpt lat="46.70718" lon="-2.3508">
        <ele>27.2</ele>
        <time>2018-09-20T12:17:56.000Z</time>
      </trkpt>
      <trkpt lat="46.70718" lon="-2.3508">
        <ele>27.2</ele>
        <time>2018-09-20T12:17:57.000Z</time>
      </trkpt>
      <trkpt lat="46.70718" lon="-2.3508">
        <ele>27.2</ele>
        <time>2018-09-20T12:17:58.000Z</time>
      </trkpt>
      <trkpt lat="46.70718" lon="-2.3508">
        <ele>27.2</ele>
        <time>2018-09-20T12:17:59.000Z</time>
      </trkpt>
      <trkpt lat="46.70718" lon="-2.3508">
        <ele>27.2</ele>
        <time>2018-09-20T12:18:00.000Z</time>
      </trkpt>
      <trkpt lat="46.70718" lon="-2.3508">
        <ele>27.2</ele>
        <time>2018-09-20T12:18:01.000Z</time>
      </trkpt>
      <trkpt lat="46.70718" lon="-2.3508">
        <ele>27.3</ele>
        <time>2018-09-20T12:18:02.000Z</time>
      </trkpt>
      <trkpt lat="46.70719" lon="-2.3508">
        <ele>27.3</ele>
        <time>2018-09-20T12:18:03.000Z</time>
      </trkpt>
      <trkpt lat="46.70719" lon="-2.35079">
        <ele>27.3</ele>
        <time>2018-09-20T12:18:04.000Z</time>
      </trkpt>
      <trkpt lat="46.7072" lon="-2.35079">
        <ele>27.3</ele>
        <time>2018-09-20T12:18:05.000Z</time>
      </trkpt>
      <trkpt lat="46.70721" lon="-2.35079">
        <ele>27.3</ele>
        <time>2018-09-20T12:18:06.000Z</time>
      </trkpt>
      <trkpt lat="46.70722" lon="-2.35079">
        <ele>27.3</ele>
        <time>2018-09-20T12:18:07.000Z</time>
      </trkpt>
      <trkpt lat="46.70723" lon="-2.35078">
        <ele>27.4</ele>
        <time>2018-09-20T12:18:08.000Z</time>
      </trkpt>
      <trkpt lat="46.70724" lon="-2.35078">
        <ele>27.4</ele>
        <time>2018-09-20T12:18:09.000Z</time>
      </trkpt>
      <trkpt lat="46.70725" lon="-2.35077">
        <ele>27.4</ele>
        <time>2018-09-20T12:18:10.000Z</time>
      </trkpt>
      <trkpt lat="46.70727" lon="-2.35077">
        <ele>27.5</ele>
        <time>2018-09-20T12:18:11.000Z</time>
      </trkpt>
      <trkpt lat="46.70728" lon="-2.35076">
        <ele>27.5</ele>
        <time>2018-09-20T12:18:12.000Z</time>
      </trkpt>
      <trkpt lat="46.70729" lon="-2.35076">
        <ele>27.5</ele>
        <time>2018-09-20T12:18:13.000Z</time>
      </trkpt>
      <trkpt lat="46.7073" lon="-2.35075">
        <ele>27.5</ele>
        <time>2018-09-20T12:18:14.000Z</time>
      </trkpt>
      <trkpt lat="46.70731" lon="-2.35074">
        <ele>27.6</ele>
        <time>2018-09-20T12:18:15.000Z</time>
      </trkpt>
      <trkpt lat="46.70732" lon="-2.35074">
        <ele>27.6</ele>
        <time>2018-09-20T12:18:16.000Z</time>
      </trkpt>
      <trkpt lat="46.70733" lon="-2.35073">
        <ele>27.6</ele>
        <time>2018-09-20T12:18:17.000Z</time>
      </trkpt>
      <trkpt lat="46.70734" lon="-2.35073">
        <ele>27.6</ele>
        <time>2018-09-20T12:18:18.000Z</time>
      </trkpt>
      <trkpt lat="46.70735" lon="-2.35072">
        <ele>27.7</ele>
        <time>2018-09-20T12:18:19.000Z</time>
      </trkpt>
      <trkpt lat="46.70736" lon="-2.35071">
        <ele>27.7</ele>
        <time>2018-09-20T12:18:20.000Z</time>
      </trkpt>
      <trkpt lat="46.70737" lon="-2.35071">
        <ele>27.7</ele>
        <time>2018-09-20T12:18:21.000Z</time>
      </trkpt>
      <trkpt lat="46.70738" lon="-2.3507">
        <ele>27.7</ele>
        <time>2018-09-20T12:18:22.000Z</time>
      </trkpt>
      <trkpt lat="46.70739" lon="-2.35069">
        <ele>27.8</ele>
        <time>2018-09-20T12:18:23.000Z</time>
      </trkpt>
      <trkpt lat="46.7074" lon="-2.35069">
        <ele>27.8</ele>
        <time>2018-09-20T12:18:24.000Z</time>
      </trkpt>
      <trkpt lat="46.70741" lon="-2.35068">
        <ele>27.8</ele>
        <time>2018-09-20T12:18:25.000Z</time>
      </trkpt>
      <trkpt lat="46.70742" lon="-2.35067">
        <ele>27.8</ele>
        <time>2018-09-20T12:18:26.000Z</time>
      </trkpt>
      <trkpt lat="46.70743" lon="-2.35067">
        <ele>27.8</ele>
        <time>2018-09-20T12:18:27.000Z</time>
      </trkpt>
      <trkpt lat="46.70744" lon="-2.35066">
        <ele>27.9</ele>
        <time>2018-09-20T12:18:28.000Z</time>
      </trkpt>
      <trkpt lat="46.70745" lon="-2.35065">
        <ele>27.9</ele>
        <time>2018-09-20T12:18:29.000Z</time>
      </trkpt>
      <trkpt lat="46.70746" lon="-2.35064">
        <ele>27.9</ele>
        <time>2018-09-20T12:18:30.000Z</time>
      </trkpt>
      <trkpt lat="46.70747" lon="-2.35064">
        <ele>27.9</ele>
        <time>2018-09-20T12:18:31.000Z</time>
      </trkpt>
      <trkpt lat="46.70748" lon="-2.35063">
        <ele>28</ele>
        <time>2018-09-20T12:18:32.000Z</time>
      </trkpt>
      <trkpt lat="46.70749" lon="-2.35063">
        <ele>28</ele>
        <time>2018-09-20T12:18:33.000Z</time>
      </trkpt>
      <trkpt lat="46.70749" lon="-2.35062">
        <ele>28</ele>
        <time>2018-09-20T12:18:34.000Z</time>
      </trkpt>
      <trkpt lat="46.7075" lon="-2.35061">
        <ele>28</ele>
        <time>2018-09-20T12:18:35.000Z</time>
      </trkpt>
      <trkpt lat="46.70751" lon="-2.35061">
        <ele>28</ele>
        <time>2018-09-20T12:18:36.000Z</time>
      </trkpt>
      <trkpt lat="46.70752" lon="-2.3506">
        <ele>28</ele>
        <time>2018-09-20T12:18:37.000Z</time>
      </trkpt>
      <trkpt lat="46.70753" lon="-2.35059">
        <ele>28</ele>
        <time>2018-09-20T12:18:38.000Z</time>
      </trkpt>
      <trkpt lat="46.70754" lon="-2.35059">
        <ele>27.9</ele>
        <time>2018-09-20T12:18:39.000Z</time>
      </trkpt>
      <trkpt lat="46.70756" lon="-2.35058">
        <ele>27.9</ele>
        <time>2018-09-20T12:18:40.000Z</time>
      </trkpt>
      <trkpt lat="46.70757" lon="-2.35057">
        <ele>27.9</ele>
        <time>2018-09-20T12:18:41.000Z</time>
      </trkpt>
      <trkpt lat="46.70759" lon="-2.35056">
        <ele>27.9</ele>
        <time>2018-09-20T12:18:42.000Z</time>
      </trkpt>
      <trkpt lat="46.7076" lon="-2.35055">
        <ele>27.9</ele>
        <time>2018-09-20T12:18:43.000Z</time>
      </trkpt>
      <trkpt lat="46.70762" lon="-2.35055">
        <ele>27.9</ele>
        <time>2018-09-20T12:18:44.000Z</time>
      </trkpt>
      <trkpt lat="46.70763" lon="-2.35054">
        <ele>27.8</ele>
        <time>2018-09-20T12:18:45.000Z</time>
      </trkpt>
      <trkpt lat="46.70764" lon="-2.35053">
        <ele>27.8</ele>
        <time>2018-09-20T12:18:46.000Z</time>
      </trkpt>
      <trkpt lat="46.70765" lon="-2.35052">
        <ele>27.8</ele>
        <time>2018-09-20T12:18:47.000Z</time>
      </trkpt>
      <trkpt lat="46.70766" lon="-2.35052">
        <ele>27.8</ele>
        <time>2018-09-20T12:18:48.000Z</time>
      </trkpt>
      <trkpt lat="46.70767" lon="-2.35051">
        <ele>27.8</ele>
        <time>2018-09-20T12:18:49.000Z</time>
      </trkpt>
      <trkpt lat="46.70768" lon="-2.3505">
        <ele>27.8</ele>
        <time>2018-09-20T12:18:50.000Z</time>
      </trkpt>
      <trkpt lat="46.70769" lon="-2.3505">
        <ele>27.8</ele>
        <time>2018-09-20T12:18:51.000Z</time>
      </trkpt>
      <trkpt lat="46.7077" lon="-2.35049">
        <ele>27.8</ele>
        <time>2018-09-20T12:18:52.000Z</time>
      </trkpt>
      <trkpt lat="46.70771" lon="-2.35048">
        <ele>27.7</ele>
        <time>2018-09-20T12:18:53.000Z</time>
      </trkpt>
      <trkpt lat="46.70772" lon="-2.35048">
        <ele>27.7</ele>
        <time>2018-09-20T12:18:54.000Z</time>
      </trkpt>
      <trkpt lat="46.70773" lon="-2.35047">
        <ele>27.7</ele>
        <time>2018-09-20T12:18:55.000Z</time>
      </trkpt>
      <trkpt lat="46.70774" lon="-2.35046">
        <ele>27.7</ele>
        <time>2018-09-20T12:18:56.000Z</time>
      </trkpt>
      <trkpt lat="46.70776" lon="-2.35045">
        <ele>27.7</ele>
        <time>2018-09-20T12:18:57.000Z</time>
      </trkpt>
      <trkpt lat="46.70777" lon="-2.35045">
        <ele>27.7</ele>
        <time>2018-09-20T12:18:58.000Z</time>
      </trkpt>
      <trkpt lat="46.70778" lon="-2.35044">
        <ele>27.7</ele>
        <time>2018-09-20T12:18:59.000Z</time>
      </trkpt>
      <trkpt lat="46.70779" lon="-2.35043">
        <ele>27.6</ele>
        <time>2018-09-20T12:19:00.000Z</time>
      </trkpt>
      <trkpt lat="46.7078" lon="-2.35043">
        <ele>27.6</ele>
        <time>2018-09-20T12:19:01.000Z</time>
      </trkpt>
      <trkpt lat="46.70781" lon="-2.35042">
        <ele>27.6</ele>
        <time>2018-09-20T12:19:02.000Z</time>
      </trkpt>
      <trkpt lat="46.70782" lon="-2.35042">
        <ele>27.6</ele>
        <time>2018-09-20T12:19:03.000Z</time>
      </trkpt>
      <trkpt lat="46.70783" lon="-2.35041">
        <ele>27.6</ele>
        <time>2018-09-20T12:19:04.000Z</time>
      </trkpt>
      <trkpt lat="46.70784" lon="-2.35041">
        <ele>27.6</ele>
        <time>2018-09-20T12:19:05.000Z</time>
      </trkpt>
      <trkpt lat="46.70785" lon="-2.35041">
        <ele>27.6</ele>
        <time>2018-09-20T12:19:06.000Z</time>
      </trkpt>
      <trkpt lat="46.70786" lon="-2.3504">
        <ele>27.6</ele>
        <time>2018-09-20T12:19:07.000Z</time>
      </trkpt>
      <trkpt lat="46.70787" lon="-2.3504">
        <ele>27.6</ele>
        <time>2018-09-20T12:19:08.000Z</time>
      </trkpt>
      <trkpt lat="46.70788" lon="-2.35039">
        <ele>27.5</ele>
        <time>2018-09-20T12:19:09.000Z</time>
      </trkpt>
      <trkpt lat="46.70789" lon="-2.35039">
        <ele>27.5</ele>
        <time>2018-09-20T12:19:10.000Z</time>
      </trkpt>
      <trkpt lat="46.7079" lon="-2.35038">
        <ele>27.5</ele>
        <time>2018-09-20T12:19:11.000Z</time>
      </trkpt>
      <trkpt lat="46.70791" lon="-2.35038">
        <ele>27.5</ele>
        <time>2018-09-20T12:19:12.000Z</time>
      </trkpt>
      <trkpt lat="46.70792" lon="-2.35037">
        <ele>27.5</ele>
        <time>2018-09-20T12:19:13.000Z</time>
      </trkpt>
      <trkpt lat="46.70793" lon="-2.35037">
        <ele>27.5</ele>
        <time>2018-09-20T12:19:14.000Z</time>
      </trkpt>
      <trkpt lat="46.70793" lon="-2.35036">
        <ele>27.5</ele>
        <time>2018-09-20T12:19:15.000Z</time>
      </trkpt>
      <trkpt lat="46.70794" lon="-2.35035">
        <ele>27.5</ele>
        <time>2018-09-20T12:19:16.000Z</time>
      </trkpt>
      <trkpt lat="46.70795" lon="-2.35035">
        <ele>27.5</ele>
        <time>2018-09-20T12:19:17.000Z</time>
      </trkpt>
      <trkpt lat="46.70796" lon="-2.35034">
        <ele>27.4</ele>
        <time>2018-09-20T12:19:18.000Z</time>
      </trkpt>
      <trkpt lat="46.70797" lon="-2.35034">
        <ele>27.4</ele>
        <time>2018-09-20T12:19:19.000Z</time>
      </trkpt>
      <trkpt lat="46.70798" lon="-2.35033">
        <ele>27.4</ele>
        <time>2018-09-20T12:19:20.000Z</time>
      </trkpt>
      <trkpt lat="46.70799" lon="-2.35033">
        <ele>27.4</ele>
        <time>2018-09-20T12:19:21.000Z</time>
      </trkpt>
      <trkpt lat="46.708" lon="-2.35032">
        <ele>27.4</ele>
        <time>2018-09-20T12:19:22.000Z</time>
      </trkpt>
      <trkpt lat="46.70801" lon="-2.35031">
        <ele>27.4</ele>
        <time>2018-09-20T12:19:23.000Z</time>
      </trkpt>
      <trkpt lat="46.70802" lon="-2.35031">
        <ele>27.4</ele>
        <time>2018-09-20T12:19:24.000Z</time>
      </trkpt>
      <trkpt lat="46.70803" lon="-2.3503">
        <ele>27.4</ele>
        <time>2018-09-20T12:19:25.000Z</time>
      </trkpt>
      <trkpt lat="46.70805" lon="-2.35029">
        <ele>27.3</ele>
        <time>2018-09-20T12:19:26.000Z</time>
      </trkpt>
      <trkpt lat="46.70806" lon="-2.35029">
        <ele>27.3</ele>
        <time>2018-09-20T12:19:27.000Z</time>
      </trkpt>
      <trkpt lat="46.70807" lon="-2.35028">
        <ele>27.3</ele>
        <time>2018-09-20T12:19:28.000Z</time>
      </trkpt>
      <trkpt lat="46.70808" lon="-2.35027">
        <ele>27.3</ele>
        <time>2018-09-20T12:19:29.000Z</time>
      </trkpt>
      <trkpt lat="46.70809" lon="-2.35027">
        <ele>27.3</ele>
        <time>2018-09-20T12:19:30.000Z</time>
      </trkpt>
      <trkpt lat="46.7081" lon="-2.35026">
        <ele>27.3</ele>
        <time>2018-09-20T12:19:31.000Z</time>
      </trkpt>
      <trkpt lat="46.70811" lon="-2.35025">
        <ele>27.3</ele>
        <time>2018-09-20T12:19:32.000Z</time>
      </trkpt>
      <trkpt lat="46.70812" lon="-2.35024">
        <ele>27.3</ele>
        <time>2018-09-20T12:19:33.000Z</time>
      </trkpt>
      <trkpt lat="46.70813" lon="-2.35024">
        <ele>27.2</ele>
        <time>2018-09-20T12:19:34.000Z</time>
      </trkpt>
      <trkpt lat="46.70814" lon="-2.35023">
        <ele>27.2</ele>
        <time>2018-09-20T12:19:35.000Z</time>
      </trkpt>
      <trkpt lat="46.70816" lon="-2.35022">
        <ele>27.2</ele>
        <time>2018-09-20T12:19:36.000Z</time>
      </trkpt>
      <trkpt lat="46.70817" lon="-2.35022">
        <ele>27.2</ele>
        <time>2018-09-20T12:19:37.000Z</time>
      </trkpt>
      <trkpt lat="46.70818" lon="-2.35021">
        <ele>27.2</ele>
        <time>2018-09-20T12:19:38.000Z</time>
      </trkpt>
      <trkpt lat="46.70819" lon="-2.3502">
        <ele>27.2</ele>
        <time>2018-09-20T12:19:39.000Z</time>
      </trkpt>
      <trkpt lat="46.7082" lon="-2.3502">
        <ele>27.2</ele>
        <time>2018-09-20T12:19:40.000Z</time>
      </trkpt>
      <trkpt lat="46.70822" lon="-2.35019">
        <ele>27.1</ele>
        <time>2018-09-20T12:19:41.000Z</time>
      </trkpt>
      <trkpt lat="46.70823" lon="-2.35019">
        <ele>27.1</ele>
        <time>2018-09-20T12:19:42.000Z</time>
      </trkpt>
      <trkpt lat="46.70824" lon="-2.35018">
        <ele>27.1</ele>
        <time>2018-09-20T12:19:43.000Z</time>
      </trkpt>
      <trkpt lat="46.70825" lon="-2.35018">
        <ele>27.1</ele>
        <time>2018-09-20T12:19:44.000Z</time>
      </trkpt>
      <trkpt lat="46.70826" lon="-2.35017">
        <ele>27.1</ele>
        <time>2018-09-20T12:19:45.000Z</time>
      </trkpt>
      <trkpt lat="46.70827" lon="-2.35017">
        <ele>27.1</ele>
        <time>2018-09-20T12:19:46.000Z</time>
      </trkpt>
      <trkpt lat="46.70829" lon="-2.35016">
        <ele>27.1</ele>
        <time>2018-09-20T12:19:47.000Z</time>
      </trkpt>
      <trkpt lat="46.7083" lon="-2.35016">
        <ele>27</ele>
        <time>2018-09-20T12:19:48.000Z</time>
      </trkpt>
      <trkpt lat="46.70831" lon="-2.35015">
        <ele>27</ele>
        <time>2018-09-20T12:19:49.000Z</time>
      </trkpt>
      <trkpt lat="46.70832" lon="-2.35015">
        <ele>27</ele>
        <time>2018-09-20T12:19:50.000Z</time>
      </trkpt>
      <trkpt lat="46.70832" lon="-2.35014">
        <ele>27</ele>
        <time>2018-09-20T12:19:51.000Z</time>
      </trkpt>
      <trkpt lat="46.70833" lon="-2.35013">
        <ele>27</ele>
        <time>2018-09-20T12:19:52.000Z</time>
      </trkpt>
      <trkpt lat="46.70834" lon="-2.35013">
        <ele>27</ele>
        <time>2018-09-20T12:19:53.000Z</time>
      </trkpt>
      <trkpt lat="46.70835" lon="-2.35012">
        <ele>27</ele>
        <time>2018-09-20T12:19:54.000Z</time>
      </trkpt>
      <trkpt lat="46.70836" lon="-2.35011">
        <ele>27</ele>
        <time>2018-09-20T12:19:55.000Z</time>
      </trkpt>
      <trkpt lat="46.70837" lon="-2.35011">
        <ele>27</ele>
        <time>2018-09-20T12:19:56.000Z</time>
      </trkpt>
      <trkpt lat="46.70838" lon="-2.3501">
        <ele>27.1</ele>
        <time>2018-09-20T12:19:57.000Z</time>
      </trkpt>
      <trkpt lat="46.70839" lon="-2.35009">
        <ele>27.1</ele>
        <time>2018-09-20T12:19:58.000Z</time>
      </trkpt>
      <trkpt lat="46.70841" lon="-2.35008">
        <ele>27.1</ele>
        <time>2018-09-20T12:19:59.000Z</time>
      </trkpt>
      <trkpt lat="46.70842" lon="-2.35007">
        <ele>27.1</ele>
        <time>2018-09-20T12:20:00.000Z</time>
      </trkpt>
      <trkpt lat="46.70844" lon="-2.35007">
        <ele>27.1</ele>
        <time>2018-09-20T12:20:01.000Z</time>
      </trkpt>
      <trkpt lat="46.70845" lon="-2.35006">
        <ele>27.1</ele>
        <time>2018-09-20T12:20:02.000Z</time>
      </trkpt>
      <trkpt lat="46.70847" lon="-2.35005">
        <ele>27.2</ele>
        <time>2018-09-20T12:20:03.000Z</time>
      </trkpt>
      <trkpt lat="46.70849" lon="-2.35004">
        <ele>27.2</ele>
        <time>2018-09-20T12:20:04.000Z</time>
      </trkpt>
      <trkpt lat="46.7085" lon="-2.35003">
        <ele>27.2</ele>
        <time>2018-09-20T12:20:05.000Z</time>
      </trkpt>
      <trkpt lat="46.70852" lon="-2.35003">
        <ele>27.2</ele>
        <time>2018-09-20T12:20:06.000Z</time>
      </trkpt>
      <trkpt lat="46.70853" lon="-2.35002">
        <ele>27.2</ele>
        <time>2018-09-20T12:20:07.000Z</time>
      </trkpt>
      <trkpt lat="46.70854" lon="-2.35002">
        <ele>27.2</ele>
        <time>2018-09-20T12:20:08.000Z</time>
      </trkpt>
      <trkpt lat="46.70855" lon="-2.35002">
        <ele>27.3</ele>
        <time>2018-09-20T12:20:09.000Z</time>
      </trkpt>
      <trkpt lat="46.70856" lon="-2.35001">
        <ele>27.3</ele>
        <time>2018-09-20T12:20:10.000Z</time>
      </trkpt>
      <trkpt lat="46.70857" lon="-2.35001">
        <ele>27.3</ele>
        <time>2018-09-20T12:20:11.000Z</time>
      </trkpt>
      <trkpt lat="46.70858" lon="-2.35001">
        <ele>27.3</ele>
        <time>2018-09-20T12:20:12.000Z</time>
      </trkpt>
      <trkpt lat="46.70859" lon="-2.35">
        <ele>27.3</ele>
        <time>2018-09-20T12:20:13.000Z</time>
      </trkpt>
      <trkpt lat="46.7086" lon="-2.35">
        <ele>27.3</ele>
        <time>2018-09-20T12:20:14.000Z</time>
      </trkpt>
      <trkpt lat="46.70862" lon="-2.34999">
        <ele>27.3</ele>
        <time>2018-09-20T12:20:15.000Z</time>
      </trkpt>
      <trkpt lat="46.70863" lon="-2.34999">
        <ele>27.3</ele>
        <time>2018-09-20T12:20:16.000Z</time>
      </trkpt>
      <trkpt lat="46.70864" lon="-2.34998">
        <ele>27.3</ele>
        <time>2018-09-20T12:20:17.000Z</time>
      </trkpt>
      <trkpt lat="46.70865" lon="-2.34998">
        <ele>27.4</ele>
        <time>2018-09-20T12:20:18.000Z</time>
      </trkpt>
      <trkpt lat="46.70867" lon="-2.34997">
        <ele>27.4</ele>
        <time>2018-09-20T12:20:19.000Z</time>
      </trkpt>
      <trkpt lat="46.70868" lon="-2.34997">
        <ele>27.4</ele>
        <time>2018-09-20T12:20:20.000Z</time>
      </trkpt>
      <trkpt lat="46.70869" lon="-2.34996">
        <ele>27.4</ele>
        <time>2018-09-20T12:20:21.000Z</time>
      </trkpt>
      <trkpt lat="46.7087" lon="-2.34996">
        <ele>27.4</ele>
        <time>2018-09-20T12:20:22.000Z</time>
      </trkpt>
      <trkpt lat="46.70871" lon="-2.34996">
        <ele>27.4</ele>
        <time>2018-09-20T12:20:23.000Z</time>
      </trkpt>
      <trkpt lat="46.70872" lon="-2.34995">
        <ele>27.4</ele>
        <time>2018-09-20T12:20:24.000Z</time>
      </trkpt>
      <trkpt lat="46.70873" lon="-2.34995">
        <ele>27.4</ele>
        <time>2018-09-20T12:20:25.000Z</time>
      </trkpt>
      <trkpt lat="46.70874" lon="-2.34994">
        <ele>27.4</ele>
        <time>2018-09-20T12:20:26.000Z</time>
      </trkpt>
      <trkpt lat="46.70875" lon="-2.34994">
        <ele>27.4</ele>
        <time>2018-09-20T12:20:27.000Z</time>
      </trkpt>
      <trkpt lat="46.70876" lon="-2.34994">
        <ele>27.4</ele>
        <time>2018-09-20T12:20:28.000Z</time>
      </trkpt>
      <trkpt lat="46.70877" lon="-2.34994">
        <ele>27.4</ele>
        <time>2018-09-20T12:20:29.000Z</time>
      </trkpt>
      <trkpt lat="46.70878" lon="-2.34993">
        <ele>27.5</ele>
        <time>2018-09-20T12:20:30.000Z</time>
      </trkpt>
      <trkpt lat="46.70879" lon="-2.34993">
        <ele>27.5</ele>
        <time>2018-09-20T12:20:31.000Z</time>
      </trkpt>
      <trkpt lat="46.7088" lon="-2.34993">
        <ele>27.5</ele>
        <time>2018-09-20T12:20:32.000Z</time>
      </trkpt>
      <trkpt lat="46.70881" lon="-2.34993">
        <ele>27.5</ele>
        <time>2018-09-20T12:20:33.000Z</time>
      </trkpt>
      <trkpt lat="46.70882" lon="-2.34993">
        <ele>27.5</ele>
        <time>2018-09-20T12:20:34.000Z</time>
      </trkpt>
      <trkpt lat="46.70883" lon="-2.34992">
        <ele>27.5</ele>
        <time>2018-09-20T12:20:35.000Z</time>
      </trkpt>
      <trkpt lat="46.70885" lon="-2.34992">
        <ele>27.5</ele>
        <time>2018-09-20T12:20:36.000Z</time>
      </trkpt>
      <trkpt lat="46.70886" lon="-2.34992">
        <ele>27.5</ele>
        <time>2018-09-20T12:20:37.000Z</time>
      </trkpt>
      <trkpt lat="46.70887" lon="-2.34992">
        <ele>27.5</ele>
        <time>2018-09-20T12:20:38.000Z</time>
      </trkpt>
      <trkpt lat="46.70888" lon="-2.34992">
        <ele>27.6</ele>
        <time>2018-09-20T12:20:39.000Z</time>
      </trkpt>
      <trkpt lat="46.70889" lon="-2.34992">
        <ele>27.6</ele>
        <time>2018-09-20T12:20:40.000Z</time>
      </trkpt>
      <trkpt lat="46.7089" lon="-2.34991">
        <ele>27.6</ele>
        <time>2018-09-20T12:20:41.000Z</time>
      </trkpt>
      <trkpt lat="46.70891" lon="-2.34991">
        <ele>27.6</ele>
        <time>2018-09-20T12:20:42.000Z</time>
      </trkpt>
      <trkpt lat="46.70893" lon="-2.34991">
        <ele>27.6</ele>
        <time>2018-09-20T12:20:43.000Z</time>
      </trkpt>
      <trkpt lat="46.70894" lon="-2.34991">
        <ele>27.6</ele>
        <time>2018-09-20T12:20:44.000Z</time>
      </trkpt>
      <trkpt lat="46.70895" lon="-2.34991">
        <ele>27.6</ele>
        <time>2018-09-20T12:20:45.000Z</time>
      </trkpt>
      <trkpt lat="46.70896" lon="-2.34991">
        <ele>27.6</ele>
        <time>2018-09-20T12:20:46.000Z</time>
      </trkpt>
      <trkpt lat="46.70897" lon="-2.3499">
        <ele>27.6</ele>
        <time>2018-09-20T12:20:47.000Z</time>
      </trkpt>
      <trkpt lat="46.70898" lon="-2.3499">
        <ele>27.7</ele>
        <time>2018-09-20T12:20:48.000Z</time>
      </trkpt>
      <trkpt lat="46.70899" lon="-2.3499">
        <ele>27.7</ele>
        <time>2018-09-20T12:20:49.000Z</time>
      </trkpt>
      <trkpt lat="46.709" lon="-2.3499">
        <ele>27.7</ele>
        <time>2018-09-20T12:20:50.000Z</time>
      </trkpt>
      <trkpt lat="46.70901" lon="-2.3499">
        <ele>27.7</ele>
        <time>2018-09-20T12:20:51.000Z</time>
      </trkpt>
      <trkpt lat="46.70902" lon="-2.34989">
        <ele>27.7</ele>
        <time>2018-09-20T12:20:52.000Z</time>
      </trkpt>
      <trkpt lat="46.70903" lon="-2.34989">
        <ele>27.7</ele>
        <time>2018-09-20T12:20:53.000Z</time>
      </trkpt>
      <trkpt lat="46.70904" lon="-2.34989">
        <ele>27.7</ele>
        <time>2018-09-20T12:20:54.000Z</time>
      </trkpt>
      <trkpt lat="46.70905" lon="-2.34989">
        <ele>27.7</ele>
        <time>2018-09-20T12:20:55.000Z</time>
      </trkpt>
      <trkpt lat="46.70906" lon="-2.34988">
        <ele>27.7</ele>
        <time>2018-09-20T12:20:56.000Z</time>
      </trkpt>
      <trkpt lat="46.70906" lon="-2.34988">
        <ele>27.7</ele>
        <time>2018-09-20T12:20:57.000Z</time>
      </trkpt>
      <trkpt lat="46.70907" lon="-2.34988">
        <ele>27.7</ele>
        <time>2018-09-20T12:20:58.000Z</time>
      </trkpt>
      <trkpt lat="46.70908" lon="-2.34987">
        <ele>27.7</ele>
        <time>2018-09-20T12:20:59.000Z</time>
      </trkpt>
      <trkpt lat="46.70909" lon="-2.34987">
        <ele>27.7</ele>
        <time>2018-09-20T12:21:00.000Z</time>
      </trkpt>
      <trkpt lat="46.7091" lon="-2.34986">
        <ele>27.8</ele>
        <time>2018-09-20T12:21:01.000Z</time>
      </trkpt>
      <trkpt lat="46.70911" lon="-2.34986">
        <ele>27.8</ele>
        <time>2018-09-20T12:21:02.000Z</time>
      </trkpt>
      <trkpt lat="46.70912" lon="-2.34985">
        <ele>27.8</ele>
        <time>2018-09-20T12:21:03.000Z</time>
      </trkpt>
      <trkpt lat="46.70913" lon="-2.34985">
        <ele>27.8</ele>
        <time>2018-09-20T12:21:04.000Z</time>
      </trkpt>
      <trkpt lat="46.70913" lon="-2.34985">
        <ele>27.8</ele>
        <time>2018-09-20T12:21:05.000Z</time>
      </trkpt>
      <trkpt lat="46.70913" lon="-2.34985">
        <ele>27.8</ele>
        <time>2018-09-20T12:21:06.000Z</time>
      </trkpt>
      <trkpt lat="46.70913" lon="-2.34985">
        <ele>27.8</ele>
        <time>2018-09-20T12:21:07.000Z</time>
      </trkpt>
      <trkpt lat="46.70913" lon="-2.34985">
        <ele>27.8</ele>
        <time>2018-09-20T12:21:08.000Z</time>
      </trkpt>
      <trkpt lat="46.70913" lon="-2.34985">
        <ele>27.8</ele>
        <time>2018-09-20T12:21:09.000Z</time>
      </trkpt>
      <trkpt lat="46.70913" lon="-2.34985">
        <ele>27.8</ele>
        <time>2018-09-20T12:21:10.000Z</time>
      </trkpt>
      <trkpt lat="46.70914" lon="-2.34984">
        <ele>27.8</ele>
        <time>2018-09-20T12:21:11.000Z</time>
      </trkpt>
      <trkpt lat="46.70914" lon="-2.34984">
        <ele>27.8</ele>
        <time>2018-09-20T12:21:12.000Z</time>
      </trkpt>
      <trkpt lat="46.70915" lon="-2.34983">
        <ele>27.8</ele>
        <time>2018-09-20T12:21:13.000Z</time>
      </trkpt>
      <trkpt lat="46.70915" lon="-2.34982">
        <ele>27.8</ele>
        <time>2018-09-20T12:21:14.000Z</time>
      </trkpt>
      <trkpt lat="46.70916" lon="-2.34981">
        <ele>27.8</ele>
        <time>2018-09-20T12:21:15.000Z</time>
      </trkpt>
      <trkpt lat="46.70916" lon="-2.34979">
        <ele>27.7</ele>
        <time>2018-09-20T12:21:16.000Z</time>
      </trkpt>
      <trkpt lat="46.70916" lon="-2.34978">
        <ele>27.7</ele>
        <time>2018-09-20T12:21:17.000Z</time>
      </trkpt>
      <trkpt lat="46.70916" lon="-2.34976">
        <ele>27.7</ele>
        <time>2018-09-20T12:21:18.000Z</time>
      </trkpt>
      <trkpt lat="46.70916" lon="-2.34975">
        <ele>27.7</ele>
        <time>2018-09-20T12:21:19.000Z</time>
      </trkpt>
      <trkpt lat="46.70916" lon="-2.34975">
        <ele>27.7</ele>
        <time>2018-09-20T12:21:20.000Z</time>
      </trkpt>
      <trkpt lat="46.70916" lon="-2.34974">
        <ele>27.7</ele>
        <time>2018-09-20T12:21:21.000Z</time>
      </trkpt>
      <trkpt lat="46.70916" lon="-2.34974">
        <ele>27.7</ele>
        <time>2018-09-20T12:21:22.000Z</time>
      </trkpt>
      <trkpt lat="46.70916" lon="-2.34974">
        <ele>27.7</ele>
        <time>2018-09-20T12:21:23.000Z</time>
      </trkpt>
      <trkpt lat="46.70916" lon="-2.34974">
        <ele>27.7</ele>
        <time>2018-09-20T12:21:24.000Z</time>
      </trkpt>
      <trkpt lat="46.70916" lon="-2.34974">
        <ele>27.7</ele>
        <time>2018-09-20T12:21:25.000Z</time>
      </trkpt>
      <trkpt lat="46.70915" lon="-2.34974">
        <ele>27.7</ele>
        <time>2018-09-20T12:21:26.000Z</time>
      </trkpt>
      <trkpt lat="46.70915" lon="-2.34973">
        <ele>27.7</ele>
        <time>2018-09-20T12:21:27.000Z</time>
      </trkpt>
      <trkpt lat="46.70915" lon="-2.34973">
        <ele>27.7</ele>
        <time>2018-09-20T12:21:28.000Z</time>
      </trkpt>
      <trkpt lat="46.70916" lon="-2.34972">
        <ele>27.6</ele>
        <time>2018-09-20T12:21:29.000Z</time>
      </trkpt>
      <trkpt lat="46.70916" lon="-2.34971">
        <ele>27.6</ele>
        <time>2018-09-20T12:21:30.000Z</time>
      </trkpt>
      <trkpt lat="46.70916" lon="-2.34969">
        <ele>27.6</ele>
        <time>2018-09-20T12:21:31.000Z</time>
      </trkpt>
      <trkpt lat="46.70916" lon="-2.34968">
        <ele>27.6</ele>
        <time>2018-09-20T12:21:32.000Z</time>
      </trkpt>
      <trkpt lat="46.70917" lon="-2.34967">
        <ele>27.6</ele>
        <time>2018-09-20T12:21:33.000Z</time>
      </trkpt>
      <trkpt lat="46.70917" lon="-2.34965">
        <ele>27.6</ele>
        <time>2018-09-20T12:21:34.000Z</time>
      </trkpt>
      <trkpt lat="46.70918" lon="-2.34964">
        <ele>27.6</ele>
        <time>2018-09-20T12:21:35.000Z</time>
      </trkpt>
      <trkpt lat="46.70918" lon="-2.34962">
        <ele>27.5</ele>
        <time>2018-09-20T12:21:36.000Z</time>
      </trkpt>
      <trkpt lat="46.70918" lon="-2.3496">
        <ele>27.5</ele>
        <time>2018-09-20T12:21:37.000Z</time>
      </trkpt>
      <trkpt lat="46.70919" lon="-2.34959">
        <ele>27.5</ele>
        <time>2018-09-20T12:21:38.000Z</time>
      </trkpt>
      <trkpt lat="46.70919" lon="-2.34957">
        <ele>27.5</ele>
        <time>2018-09-20T12:21:39.000Z</time>
      </trkpt>
      <trkpt lat="46.7092" lon="-2.34956">
        <ele>27.5</ele>
        <time>2018-09-20T12:21:40.000Z</time>
      </trkpt>
      <trkpt lat="46.7092" lon="-2.34954">
        <ele>27.4</ele>
        <time>2018-09-20T12:21:41.000Z</time>
      </trkpt>
      <trkpt lat="46.7092" lon="-2.34952">
        <ele>27.4</ele>
        <time>2018-09-20T12:21:42.000Z</time>
      </trkpt>
      <trkpt lat="46.7092" lon="-2.34951">
        <ele>27.4</ele>
        <time>2018-09-20T12:21:43.000Z</time>
      </trkpt>
      <trkpt lat="46.70921" lon="-2.34949">
        <ele>27.4</ele>
        <time>2018-09-20T12:21:44.000Z</time>
      </trkpt>
      <trkpt lat="46.70921" lon="-2.34947">
        <ele>27.3</ele>
        <time>2018-09-20T12:21:45.000Z</time>
      </trkpt>
      <trkpt lat="46.70921" lon="-2.34946">
        <ele>27.3</ele>
        <time>2018-09-20T12:21:46.000Z</time>
      </trkpt>
      <trkpt lat="46.70922" lon="-2.34944">
        <ele>27.3</ele>
        <time>2018-09-20T12:21:47.000Z</time>
      </trkpt>
      <trkpt lat="46.70922" lon="-2.34943">
        <ele>27.3</ele>
        <time>2018-09-20T12:21:48.000Z</time>
      </trkpt>
      <trkpt lat="46.70922" lon="-2.34941">
        <ele>27.3</ele>
        <time>2018-09-20T12:21:49.000Z</time>
      </trkpt>
      <trkpt lat="46.70922" lon="-2.34939">
        <ele>27.3</ele>
        <time>2018-09-20T12:21:50.000Z</time>
      </trkpt>
      <trkpt lat="46.70922" lon="-2.34938">
        <ele>27.2</ele>
        <time>2018-09-20T12:21:51.000Z</time>
      </trkpt>
      <trkpt lat="46.70923" lon="-2.34936">
        <ele>27.2</ele>
        <time>2018-09-20T12:21:52.000Z</time>
      </trkpt>
      <trkpt lat="46.70923" lon="-2.34935">
        <ele>27.2</ele>
        <time>2018-09-20T12:21:53.000Z</time>
      </trkpt>
      <trkpt lat="46.70923" lon="-2.34933">
        <ele>27.2</ele>
        <time>2018-09-20T12:21:54.000Z</time>
      </trkpt>
      <trkpt lat="46.70923" lon="-2.34932">
        <ele>27.2</ele>
        <time>2018-09-20T12:21:55.000Z</time>
      </trkpt>
      <trkpt lat="46.70923" lon="-2.3493">
        <ele>27.1</ele>
        <time>2018-09-20T12:21:56.000Z</time>
      </trkpt>
      <trkpt lat="46.70924" lon="-2.34929">
        <ele>27.1</ele>
        <time>2018-09-20T12:21:57.000Z</time>
      </trkpt>
      <trkpt lat="46.70924" lon="-2.34927">
        <ele>27.1</ele>
        <time>2018-09-20T12:21:58.000Z</time>
      </trkpt>
      <trkpt lat="46.70924" lon="-2.34925">
        <ele>27.1</ele>
        <time>2018-09-20T12:21:59.000Z</time>
      </trkpt>
      <trkpt lat="46.70924" lon="-2.34924">
        <ele>27.1</ele>
        <time>2018-09-20T12:22:00.000Z</time>
      </trkpt>
      <trkpt lat="46.70925" lon="-2.34922">
        <ele>27.1</ele>
        <time>2018-09-20T12:22:01.000Z</time>
      </trkpt>
      <trkpt lat="46.70925" lon="-2.34921">
        <ele>27</ele>
        <time>2018-09-20T12:22:02.000Z</time>
      </trkpt>
      <trkpt lat="46.70925" lon="-2.34919">
        <ele>27</ele>
        <time>2018-09-20T12:22:03.000Z</time>
      </trkpt>
      <trkpt lat="46.70925" lon="-2.34918">
        <ele>27</ele>
        <time>2018-09-20T12:22:04.000Z</time>
      </trkpt>
      <trkpt lat="46.70926" lon="-2.34917">
        <ele>27</ele>
        <time>2018-09-20T12:22:05.000Z</time>
      </trkpt>
      <trkpt lat="46.70926" lon="-2.34915">
        <ele>27</ele>
        <time>2018-09-20T12:22:06.000Z</time>
      </trkpt>
      <trkpt lat="46.70926" lon="-2.34914">
        <ele>27</ele>
        <time>2018-09-20T12:22:07.000Z</time>
      </trkpt>
      <trkpt lat="46.70926" lon="-2.34912">
        <ele>27</ele>
        <time>2018-09-20T12:22:08.000Z</time>
      </trkpt>
      <trkpt lat="46.70927" lon="-2.34911">
        <ele>27</ele>
        <time>2018-09-20T12:22:09.000Z</time>
      </trkpt>
      <trkpt lat="46.70927" lon="-2.34909">
        <ele>27</ele>
        <time>2018-09-20T12:22:10.000Z</time>
      </trkpt>
      <trkpt lat="46.70927" lon="-2.34908">
        <ele>27</ele>
        <time>2018-09-20T12:22:11.000Z</time>
      </trkpt>
      <trkpt lat="46.70928" lon="-2.34906">
        <ele>27</ele>
        <time>2018-09-20T12:22:12.000Z</time>
      </trkpt>
      <trkpt lat="46.70928" lon="-2.34905">
        <ele>27</ele>
        <time>2018-09-20T12:22:13.000Z</time>
      </trkpt>
      <trkpt lat="46.70928" lon="-2.34903">
        <ele>27</ele>
        <time>2018-09-20T12:22:14.000Z</time>
      </trkpt>
      <trkpt lat="46.70929" lon="-2.34902">
        <ele>27</ele>
        <time>2018-09-20T12:22:15.000Z</time>
      </trkpt>
      <trkpt lat="46.70929" lon="-2.349">
        <ele>27</ele>
        <time>2018-09-20T12:22:16.000Z</time>
      </trkpt>
      <trkpt lat="46.70929" lon="-2.34899">
        <ele>27</ele>
        <time>2018-09-20T12:22:17.000Z</time>
      </trkpt>
      <trkpt lat="46.70929" lon="-2.34897">
        <ele>27</ele>
        <time>2018-09-20T12:22:18.000Z</time>
      </trkpt>
      <trkpt lat="46.7093" lon="-2.34895">
        <ele>27</ele>
        <time>2018-09-20T12:22:19.000Z</time>
      </trkpt>
      <trkpt lat="46.7093" lon="-2.34894">
        <ele>27</ele>
        <time>2018-09-20T12:22:20.000Z</time>
      </trkpt>
      <trkpt lat="46.7093" lon="-2.34892">
        <ele>27</ele>
        <time>2018-09-20T12:22:21.000Z</time>
      </trkpt>
      <trkpt lat="46.70931" lon="-2.34891">
        <ele>27</ele>
        <time>2018-09-20T12:22:22.000Z</time>
      </trkpt>
      <trkpt lat="46.70931" lon="-2.34889">
        <ele>27</ele>
        <time>2018-09-20T12:22:23.000Z</time>
      </trkpt>
      <trkpt lat="46.70931" lon="-2.34888">
        <ele>27</ele>
        <time>2018-09-20T12:22:24.000Z</time>
      </trkpt>
      <trkpt lat="46.70932" lon="-2.34886">
        <ele>27</ele>
        <time>2018-09-20T12:22:25.000Z</time>
      </trkpt>
      <trkpt lat="46.70932" lon="-2.34884">
        <ele>27</ele>
        <time>2018-09-20T12:22:26.000Z</time>
      </trkpt>
      <trkpt lat="46.70932" lon="-2.34883">
        <ele>27</ele>
        <time>2018-09-20T12:22:27.000Z</time>
      </trkpt>
      <trkpt lat="46.70933" lon="-2.34881">
        <ele>27</ele>
        <time>2018-09-20T12:22:28.000Z</time>
      </trkpt>
      <trkpt lat="46.70933" lon="-2.34879">
        <ele>27</ele>
        <time>2018-09-20T12:22:29.000Z</time>
      </trkpt>
      <trkpt lat="46.70933" lon="-2.34878">
        <ele>27</ele>
        <time>2018-09-20T12:22:30.000Z</time>
      </trkpt>
      <trkpt lat="46.70933" lon="-2.34876">
        <ele>27</ele>
        <time>2018-09-20T12:22:31.000Z</time>
      </trkpt>
      <trkpt lat="46.70934" lon="-2.34874">
        <ele>27</ele>
        <time>2018-09-20T12:22:32.000Z</time>
      </trkpt>
      <trkpt lat="46.70934" lon="-2.34873">
        <ele>27</ele>
        <time>2018-09-20T12:22:33.000Z</time>
      </trkpt>
      <trkpt lat="46.70934" lon="-2.34871">
        <ele>27</ele>
        <time>2018-09-20T12:22:34.000Z</time>
      </trkpt>
      <trkpt lat="46.70934" lon="-2.34869">
        <ele>27</ele>
        <time>2018-09-20T12:22:35.000Z</time>
      </trkpt>
      <trkpt lat="46.70935" lon="-2.34868">
        <ele>27</ele>
        <time>2018-09-20T12:22:36.000Z</time>
      </trkpt>
      <trkpt lat="46.70935" lon="-2.34866">
        <ele>27</ele>
        <time>2018-09-20T12:22:37.000Z</time>
      </trkpt>
      <trkpt lat="46.70935" lon="-2.34864">
        <ele>27</ele>
        <time>2018-09-20T12:22:38.000Z</time>
      </trkpt>
      <trkpt lat="46.70935" lon="-2.34863">
        <ele>27</ele>
        <time>2018-09-20T12:22:39.000Z</time>
      </trkpt>
      <trkpt lat="46.70936" lon="-2.34861">
        <ele>27</ele>
        <time>2018-09-20T12:22:40.000Z</time>
      </trkpt>
      <trkpt lat="46.70936" lon="-2.3486">
        <ele>27</ele>
        <time>2018-09-20T12:22:41.000Z</time>
      </trkpt>
      <trkpt lat="46.70936" lon="-2.34858">
        <ele>27</ele>
        <time>2018-09-20T12:22:42.000Z</time>
      </trkpt>
      <trkpt lat="46.70936" lon="-2.34857">
        <ele>27</ele>
        <time>2018-09-20T12:22:43.000Z</time>
      </trkpt>
      <trkpt lat="46.70936" lon="-2.34855">
        <ele>27</ele>
        <time>2018-09-20T12:22:44.000Z</time>
      </trkpt>
      <trkpt lat="46.70936" lon="-2.34854">
        <ele>27</ele>
        <time>2018-09-20T12:22:45.000Z</time>
      </trkpt>
      <trkpt lat="46.70937" lon="-2.34852">
        <ele>27</ele>
        <time>2018-09-20T12:22:46.000Z</time>
      </trkpt>
      <trkpt lat="46.70937" lon="-2.34851">
        <ele>27</ele>
        <time>2018-09-20T12:22:47.000Z</time>
      </trkpt>
      <trkpt lat="46.70937" lon="-2.34849">
        <ele>27</ele>
        <time>2018-09-20T12:22:48.000Z</time>
      </trkpt>
      <trkpt lat="46.70937" lon="-2.34848">
        <ele>27</ele>
        <time>2018-09-20T12:22:49.000Z</time>
      </trkpt>
      <trkpt lat="46.70937" lon="-2.34846">
        <ele>27</ele>
        <time>2018-09-20T12:22:50.000Z</time>
      </trkpt>
      <trkpt lat="46.70937" lon="-2.34845">
        <ele>27</ele>
        <time>2018-09-20T12:22:51.000Z</time>
      </trkpt>
      <trkpt lat="46.70937" lon="-2.34843">
        <ele>27</ele>
        <time>2018-09-20T12:22:52.000Z</time>
      </trkpt>
      <trkpt lat="46.70937" lon="-2.34842">
        <ele>27</ele>
        <time>2018-09-20T12:22:53.000Z</time>
      </trkpt>
      <trkpt lat="46.70938" lon="-2.3484">
        <ele>27</ele>
        <time>2018-09-20T12:22:54.000Z</time>
      </trkpt>
      <trkpt lat="46.70938" lon="-2.34839">
        <ele>27</ele>
        <time>2018-09-20T12:22:55.000Z</time>
      </trkpt>
      <trkpt lat="46.70938" lon="-2.34837">
        <ele>27</ele>
        <time>2018-09-20T12:22:56.000Z</time>
      </trkpt>
      <trkpt lat="46.70938" lon="-2.34835">
        <ele>27</ele>
        <time>2018-09-20T12:22:57.000Z</time>
      </trkpt>
      <trkpt lat="46.70938" lon="-2.34834">
        <ele>27</ele>
        <time>2018-09-20T12:22:58.000Z</time>
      </trkpt>
      <trkpt lat="46.70939" lon="-2.34832">
        <ele>27</ele>
        <time>2018-09-20T12:22:59.000Z</time>
      </trkpt>
      <trkpt lat="46.70939" lon="-2.3483">
        <ele>27</ele>
        <time>2018-09-20T12:23:00.000Z</time>
      </trkpt>
      <trkpt lat="46.70939" lon="-2.34829">
        <ele>27</ele>
        <time>2018-09-20T12:23:01.000Z</time>
      </trkpt>
      <trkpt lat="46.70939" lon="-2.34827">
        <ele>27</ele>
        <time>2018-09-20T12:23:02.000Z</time>
      </trkpt>
      <trkpt lat="46.70939" lon="-2.34825">
        <ele>27</ele>
        <time>2018-09-20T12:23:03.000Z</time>
      </trkpt>
      <trkpt lat="46.7094" lon="-2.34824">
        <ele>27</ele>
        <time>2018-09-20T12:23:04.000Z</time>
      </trkpt>
      <trkpt lat="46.7094" lon="-2.34822">
        <ele>27</ele>
        <time>2018-09-20T12:23:05.000Z</time>
      </trkpt>
      <trkpt lat="46.7094" lon="-2.3482">
        <ele>27</ele>
        <time>2018-09-20T12:23:06.000Z</time>
      </trkpt>
      <trkpt lat="46.7094" lon="-2.34818">
        <ele>26.9</ele>
        <time>2018-09-20T12:23:07.000Z</time>
      </trkpt>
      <trkpt lat="46.70941" lon="-2.34817">
        <ele>26.9</ele>
        <time>2018-09-20T12:23:08.000Z</time>
      </trkpt>
      <trkpt lat="46.70941" lon="-2.34815">
        <ele>26.9</ele>
        <time>2018-09-20T12:23:09.000Z</time>
      </trkpt>
      <trkpt lat="46.70941" lon="-2.34813">
        <ele>26.9</ele>
        <time>2018-09-20T12:23:10.000Z</time>
      </trkpt>
      <trkpt lat="46.70941" lon="-2.34811">
        <ele>26.9</ele>
        <time>2018-09-20T12:23:11.000Z</time>
      </trkpt>
      <trkpt lat="46.70942" lon="-2.3481">
        <ele>26.9</ele>
        <time>2018-09-20T12:23:12.000Z</time>
      </trkpt>
      <trkpt lat="46.70942" lon="-2.34808">
        <ele>26.9</ele>
        <time>2018-09-20T12:23:13.000Z</time>
      </trkpt>
      <trkpt lat="46.70942" lon="-2.34806">
        <ele>26.9</ele>
        <time>2018-09-20T12:23:14.000Z</time>
      </trkpt>
      <trkpt lat="46.70942" lon="-2.34804">
        <ele>26.9</ele>
        <time>2018-09-20T12:23:15.000Z</time>
      </trkpt>
      <trkpt lat="46.70943" lon="-2.34802">
        <ele>26.9</ele>
        <time>2018-09-20T12:23:16.000Z</time>
      </trkpt>
      <trkpt lat="46.70943" lon="-2.34801">
        <ele>26.9</ele>
        <time>2018-09-20T12:23:17.000Z</time>
      </trkpt>
      <trkpt lat="46.70943" lon="-2.34799">
        <ele>26.9</ele>
        <time>2018-09-20T12:23:18.000Z</time>
      </trkpt>
      <trkpt lat="46.70943" lon="-2.34797">
        <ele>26.9</ele>
        <time>2018-09-20T12:23:19.000Z</time>
      </trkpt>
      <trkpt lat="46.70944" lon="-2.34795">
        <ele>26.9</ele>
        <time>2018-09-20T12:23:20.000Z</time>
      </trkpt>
      <trkpt lat="46.70944" lon="-2.34793">
        <ele>26.8</ele>
        <time>2018-09-20T12:23:21.000Z</time>
      </trkpt>
      <trkpt lat="46.70944" lon="-2.34792">
        <ele>26.8</ele>
        <time>2018-09-20T12:23:22.000Z</time>
      </trkpt>
      <trkpt lat="46.70944" lon="-2.3479">
        <ele>26.8</ele>
        <time>2018-09-20T12:23:23.000Z</time>
      </trkpt>
      <trkpt lat="46.70945" lon="-2.34788">
        <ele>26.8</ele>
        <time>2018-09-20T12:23:24.000Z</time>
      </trkpt>
      <trkpt lat="46.70945" lon="-2.34786">
        <ele>26.8</ele>
        <time>2018-09-20T12:23:25.000Z</time>
      </trkpt>
      <trkpt lat="46.70945" lon="-2.34784">
        <ele>26.8</ele>
        <time>2018-09-20T12:23:26.000Z</time>
      </trkpt>
      <trkpt lat="46.70945" lon="-2.34783">
        <ele>26.8</ele>
        <time>2018-09-20T12:23:27.000Z</time>
      </trkpt>
      <trkpt lat="46.70946" lon="-2.34781">
        <ele>26.8</ele>
        <time>2018-09-20T12:23:28.000Z</time>
      </trkpt>
      <trkpt lat="46.70946" lon="-2.34779">
        <ele>26.8</ele>
        <time>2018-09-20T12:23:29.000Z</time>
      </trkpt>
      <trkpt lat="46.70946" lon="-2.34777">
        <ele>26.8</ele>
        <time>2018-09-20T12:23:30.000Z</time>
      </trkpt>
      <trkpt lat="46.70946" lon="-2.34775">
        <ele>26.8</ele>
        <time>2018-09-20T12:23:31.000Z</time>
      </trkpt>
      <trkpt lat="46.70947" lon="-2.34774">
        <ele>26.7</ele>
        <time>2018-09-20T12:23:32.000Z</time>
      </trkpt>
      <trkpt lat="46.70947" lon="-2.34772">
        <ele>26.7</ele>
        <time>2018-09-20T12:23:33.000Z</time>
      </trkpt>
      <trkpt lat="46.70947" lon="-2.3477">
        <ele>26.7</ele>
        <time>2018-09-20T12:23:34.000Z</time>
      </trkpt>
      <trkpt lat="46.70947" lon="-2.34768">
        <ele>26.7</ele>
        <time>2018-09-20T12:23:35.000Z</time>
      </trkpt>
      <trkpt lat="46.70948" lon="-2.34767">
        <ele>26.7</ele>
        <time>2018-09-20T12:23:36.000Z</time>
      </trkpt>
      <trkpt lat="46.70948" lon="-2.34765">
        <ele>26.7</ele>
        <time>2018-09-20T12:23:37.000Z</time>
      </trkpt>
      <trkpt lat="46.70948" lon="-2.34763">
        <ele>26.7</ele>
        <time>2018-09-20T12:23:38.000Z</time>
      </trkpt>
      <trkpt lat="46.70948" lon="-2.34761">
        <ele>26.7</ele>
        <time>2018-09-20T12:23:39.000Z</time>
      </trkpt>
      <trkpt lat="46.70948" lon="-2.3476">
        <ele>26.7</ele>
        <time>2018-09-20T12:23:40.000Z</time>
      </trkpt>
      <trkpt lat="46.70949" lon="-2.34758">
        <ele>26.7</ele>
        <time>2018-09-20T12:23:41.000Z</time>
      </trkpt>
      <trkpt lat="46.70949" lon="-2.34756">
        <ele>26.6</ele>
        <time>2018-09-20T12:23:42.000Z</time>
      </trkpt>
      <trkpt lat="46.70949" lon="-2.34755">
        <ele>26.6</ele>
        <time>2018-09-20T12:23:43.000Z</time>
      </trkpt>
      <trkpt lat="46.70949" lon="-2.34753">
        <ele>26.6</ele>
        <time>2018-09-20T12:23:44.000Z</time>
      </trkpt>
      <trkpt lat="46.70949" lon="-2.34752">
        <ele>26.6</ele>
        <time>2018-09-20T12:23:45.000Z</time>
      </trkpt>
      <trkpt lat="46.7095" lon="-2.3475">
        <ele>26.6</ele>
        <time>2018-09-20T12:23:46.000Z</time>
      </trkpt>
      <trkpt lat="46.7095" lon="-2.34749">
        <ele>26.6</ele>
        <time>2018-09-20T12:23:47.000Z</time>
      </trkpt>
      <trkpt lat="46.7095" lon="-2.34747">
        <ele>26.6</ele>
        <time>2018-09-20T12:23:48.000Z</time>
      </trkpt>
      <trkpt lat="46.7095" lon="-2.34746">
        <ele>26.6</ele>
        <time>2018-09-20T12:23:49.000Z</time>
      </trkpt>
      <trkpt lat="46.7095" lon="-2.34744">
        <ele>26.6</ele>
        <time>2018-09-20T12:23:50.000Z</time>
      </trkpt>
      <trkpt lat="46.70951" lon="-2.34743">
        <ele>26.5</ele>
        <time>2018-09-20T12:23:51.000Z</time>
      </trkpt>
      <trkpt lat="46.70951" lon="-2.34741">
        <ele>26.5</ele>
        <time>2018-09-20T12:23:52.000Z</time>
      </trkpt>
      <trkpt lat="46.70951" lon="-2.3474">
        <ele>26.5</ele>
        <time>2018-09-20T12:23:53.000Z</time>
      </trkpt>
      <trkpt lat="46.70951" lon="-2.34738">
        <ele>26.5</ele>
        <time>2018-09-20T12:23:54.000Z</time>
      </trkpt>
      <trkpt lat="46.70951" lon="-2.34737">
        <ele>26.5</ele>
        <time>2018-09-20T12:23:55.000Z</time>
      </trkpt>
      <trkpt lat="46.70951" lon="-2.34735">
        <ele>26.5</ele>
        <time>2018-09-20T12:23:56.000Z</time>
      </trkpt>
      <trkpt lat="46.70952" lon="-2.34734">
        <ele>26.5</ele>
        <time>2018-09-20T12:23:57.000Z</time>
      </trkpt>
      <trkpt lat="46.70952" lon="-2.34733">
        <ele>26.5</ele>
        <time>2018-09-20T12:23:58.000Z</time>
      </trkpt>
      <trkpt lat="46.70952" lon="-2.34731">
        <ele>26.4</ele>
        <time>2018-09-20T12:23:59.000Z</time>
      </trkpt>
      <trkpt lat="46.70952" lon="-2.34729">
        <ele>26.4</ele>
        <time>2018-09-20T12:24:00.000Z</time>
      </trkpt>
      <trkpt lat="46.70952" lon="-2.34728">
        <ele>26.4</ele>
        <time>2018-09-20T12:24:01.000Z</time>
      </trkpt>
      <trkpt lat="46.70953" lon="-2.34726">
        <ele>26.4</ele>
        <time>2018-09-20T12:24:02.000Z</time>
      </trkpt>
      <trkpt lat="46.70953" lon="-2.34725">
        <ele>26.4</ele>
        <time>2018-09-20T12:24:03.000Z</time>
      </trkpt>
      <trkpt lat="46.70953" lon="-2.34723">
        <ele>26.4</ele>
        <time>2018-09-20T12:24:04.000Z</time>
      </trkpt>
      <trkpt lat="46.70953" lon="-2.34721">
        <ele>26.4</ele>
        <time>2018-09-20T12:24:05.000Z</time>
      </trkpt>
      <trkpt lat="46.70954" lon="-2.3472">
        <ele>26.4</ele>
        <time>2018-09-20T12:24:06.000Z</time>
      </trkpt>
      <trkpt lat="46.70954" lon="-2.34718">
        <ele>26.3</ele>
        <time>2018-09-20T12:24:07.000Z</time>
      </trkpt>
      <trkpt lat="46.70954" lon="-2.34716">
        <ele>26.3</ele>
        <time>2018-09-20T12:24:08.000Z</time>
      </trkpt>
      <trkpt lat="46.70954" lon="-2.34715">
        <ele>26.3</ele>
        <time>2018-09-20T12:24:09.000Z</time>
      </trkpt>
      <trkpt lat="46.70955" lon="-2.34713">
        <ele>26.3</ele>
        <time>2018-09-20T12:24:10.000Z</time>
      </trkpt>
      <trkpt lat="46.70955" lon="-2.34712">
        <ele>26.3</ele>
        <time>2018-09-20T12:24:11.000Z</time>
      </trkpt>
      <trkpt lat="46.70955" lon="-2.34711">
        <ele>26.3</ele>
        <time>2018-09-20T12:24:12.000Z</time>
      </trkpt>
      <trkpt lat="46.70956" lon="-2.34709">
        <ele>26.3</ele>
        <time>2018-09-20T12:24:13.000Z</time>
      </trkpt>
      <trkpt lat="46.70956" lon="-2.34708">
        <ele>26.3</ele>
        <time>2018-09-20T12:24:14.000Z</time>
      </trkpt>
      <trkpt lat="46.70956" lon="-2.34707">
        <ele>26.3</ele>
        <time>2018-09-20T12:24:15.000Z</time>
      </trkpt>
      <trkpt lat="46.70957" lon="-2.34706">
        <ele>26.2</ele>
        <time>2018-09-20T12:24:16.000Z</time>
      </trkpt>
      <trkpt lat="46.70957" lon="-2.34705">
        <ele>26.2</ele>
        <time>2018-09-20T12:24:17.000Z</time>
      </trkpt>
      <trkpt lat="46.70957" lon="-2.34704">
        <ele>26.2</ele>
        <time>2018-09-20T12:24:18.000Z</time>
      </trkpt>
      <trkpt lat="46.70958" lon="-2.34703">
        <ele>26.2</ele>
        <time>2018-09-20T12:24:19.000Z</time>
      </trkpt>
      <trkpt lat="46.70958" lon="-2.34702">
        <ele>26.2</ele>
        <time>2018-09-20T12:24:20.000Z</time>
      </trkpt>
      <trkpt lat="46.70958" lon="-2.34701">
        <ele>26.2</ele>
        <time>2018-09-20T12:24:21.000Z</time>
      </trkpt>
      <trkpt lat="46.70958" lon="-2.347">
        <ele>26.2</ele>
        <time>2018-09-20T12:24:22.000Z</time>
      </trkpt>
      <trkpt lat="46.70959" lon="-2.34699">
        <ele>26.2</ele>
        <time>2018-09-20T12:24:23.000Z</time>
      </trkpt>
      <trkpt lat="46.70959" lon="-2.34698">
        <ele>26.2</ele>
        <time>2018-09-20T12:24:24.000Z</time>
      </trkpt>
      <trkpt lat="46.70959" lon="-2.34697">
        <ele>26.2</ele>
        <time>2018-09-20T12:24:25.000Z</time>
      </trkpt>
      <trkpt lat="46.70959" lon="-2.34696">
        <ele>26.2</ele>
        <time>2018-09-20T12:24:26.000Z</time>
      </trkpt>
      <trkpt lat="46.7096" lon="-2.34695">
        <ele>26.2</ele>
        <time>2018-09-20T12:24:27.000Z</time>
      </trkpt>
      <trkpt lat="46.7096" lon="-2.34694">
        <ele>26.2</ele>
        <time>2018-09-20T12:24:28.000Z</time>
      </trkpt>
      <trkpt lat="46.7096" lon="-2.34693">
        <ele>26.1</ele>
        <time>2018-09-20T12:24:29.000Z</time>
      </trkpt>
      <trkpt lat="46.7096" lon="-2.34691">
        <ele>26.1</ele>
        <time>2018-09-20T12:24:30.000Z</time>
      </trkpt>
      <trkpt lat="46.7096" lon="-2.3469">
        <ele>26.1</ele>
        <time>2018-09-20T12:24:31.000Z</time>
      </trkpt>
      <trkpt lat="46.7096" lon="-2.34689">
        <ele>26.1</ele>
        <time>2018-09-20T12:24:32.000Z</time>
      </trkpt>
      <trkpt lat="46.70961" lon="-2.34687">
        <ele>26.1</ele>
        <time>2018-09-20T12:24:33.000Z</time>
      </trkpt>
      <trkpt lat="46.70961" lon="-2.34686">
        <ele>26.1</ele>
        <time>2018-09-20T12:24:34.000Z</time>
      </trkpt>
      <trkpt lat="46.70961" lon="-2.34684">
        <ele>26.1</ele>
        <time>2018-09-20T12:24:35.000Z</time>
      </trkpt>
      <trkpt lat="46.70961" lon="-2.34683">
        <ele>26.1</ele>
        <time>2018-09-20T12:24:36.000Z</time>
      </trkpt>
      <trkpt lat="46.70961" lon="-2.34681">
        <ele>26.1</ele>
        <time>2018-09-20T12:24:37.000Z</time>
      </trkpt>
      <trkpt lat="46.70962" lon="-2.3468">
        <ele>26.1</ele>
        <time>2018-09-20T12:24:38.000Z</time>
      </trkpt>
      <trkpt lat="46.70962" lon="-2.34678">
        <ele>26.1</ele>
        <time>2018-09-20T12:24:39.000Z</time>
      </trkpt>
      <trkpt lat="46.70962" lon="-2.34677">
        <ele>26.1</ele>
        <time>2018-09-20T12:24:40.000Z</time>
      </trkpt>
      <trkpt lat="46.70962" lon="-2.34675">
        <ele>26</ele>
        <time>2018-09-20T12:24:41.000Z</time>
      </trkpt>
      <trkpt lat="46.70962" lon="-2.34674">
        <ele>26</ele>
        <time>2018-09-20T12:24:42.000Z</time>
      </trkpt>
      <trkpt lat="46.70963" lon="-2.34672">
        <ele>26</ele>
        <time>2018-09-20T12:24:43.000Z</time>
      </trkpt>
      <trkpt lat="46.70963" lon="-2.34671">
        <ele>26</ele>
        <time>2018-09-20T12:24:44.000Z</time>
      </trkpt>
      <trkpt lat="46.70963" lon="-2.34669">
        <ele>26</ele>
        <time>2018-09-20T12:24:45.000Z</time>
      </trkpt>
      <trkpt lat="46.70963" lon="-2.34668">
        <ele>26</ele>
        <time>2018-09-20T12:24:46.000Z</time>
      </trkpt>
      <trkpt lat="46.70963" lon="-2.34667">
        <ele>26</ele>
        <time>2018-09-20T12:24:47.000Z</time>
      </trkpt>
      <trkpt lat="46.70964" lon="-2.34665">
        <ele>26</ele>
        <time>2018-09-20T12:24:48.000Z</time>
      </trkpt>
      <trkpt lat="46.70964" lon="-2.34664">
        <ele>26</ele>
        <time>2018-09-20T12:24:49.000Z</time>
      </trkpt>
      <trkpt lat="46.70964" lon="-2.34663">
        <ele>26</ele>
        <time>2018-09-20T12:24:50.000Z</time>
      </trkpt>
      <trkpt lat="46.70964" lon="-2.34661">
        <ele>26</ele>
        <time>2018-09-20T12:24:51.000Z</time>
      </trkpt>
      <trkpt lat="46.70964" lon="-2.3466">
        <ele>26</ele>
        <time>2018-09-20T12:24:52.000Z</time>
      </trkpt>
      <trkpt lat="46.70964" lon="-2.34659">
        <ele>26</ele>
        <time>2018-09-20T12:24:53.000Z</time>
      </trkpt>
      <trkpt lat="46.70964" lon="-2.34657">
        <ele>26</ele>
        <time>2018-09-20T12:24:54.000Z</time>
      </trkpt>
      <trkpt lat="46.70964" lon="-2.34656">
        <ele>26.1</ele>
        <time>2018-09-20T12:24:55.000Z</time>
      </trkpt>
      <trkpt lat="46.70963" lon="-2.34655">
        <ele>26.1</ele>
        <time>2018-09-20T12:24:56.000Z</time>
      </trkpt>
      <trkpt lat="46.70963" lon="-2.34653">
        <ele>26.1</ele>
        <time>2018-09-20T12:24:57.000Z</time>
      </trkpt>
      <trkpt lat="46.70963" lon="-2.34652">
        <ele>26.1</ele>
        <time>2018-09-20T12:24:58.000Z</time>
      </trkpt>
      <trkpt lat="46.70963" lon="-2.3465">
        <ele>26.1</ele>
        <time>2018-09-20T12:24:59.000Z</time>
      </trkpt>
      <trkpt lat="46.70962" lon="-2.34649">
        <ele>26.1</ele>
        <time>2018-09-20T12:25:00.000Z</time>
      </trkpt>
      <trkpt lat="46.70962" lon="-2.34647">
        <ele>26.1</ele>
        <time>2018-09-20T12:25:01.000Z</time>
      </trkpt>
      <trkpt lat="46.70962" lon="-2.34645">
        <ele>26.1</ele>
        <time>2018-09-20T12:25:02.000Z</time>
      </trkpt>
      <trkpt lat="46.70962" lon="-2.34644">
        <ele>26.1</ele>
        <time>2018-09-20T12:25:03.000Z</time>
      </trkpt>
      <trkpt lat="46.70962" lon="-2.34642">
        <ele>26.1</ele>
        <time>2018-09-20T12:25:04.000Z</time>
      </trkpt>
      <trkpt lat="46.70962" lon="-2.3464">
        <ele>26.1</ele>
        <time>2018-09-20T12:25:05.000Z</time>
      </trkpt>
      <trkpt lat="46.70962" lon="-2.34639">
        <ele>26.2</ele>
        <time>2018-09-20T12:25:06.000Z</time>
      </trkpt>
      <trkpt lat="46.70962" lon="-2.34637">
        <ele>26.2</ele>
        <time>2018-09-20T12:25:07.000Z</time>
      </trkpt>
      <trkpt lat="46.70962" lon="-2.34635">
        <ele>26.2</ele>
        <time>2018-09-20T12:25:08.000Z</time>
      </trkpt>
      <trkpt lat="46.70962" lon="-2.34634">
        <ele>26.2</ele>
        <time>2018-09-20T12:25:09.000Z</time>
      </trkpt>
      <trkpt lat="46.70962" lon="-2.34632">
        <ele>26.2</ele>
        <time>2018-09-20T12:25:10.000Z</time>
      </trkpt>
      <trkpt lat="46.70962" lon="-2.34631">
        <ele>26.2</ele>
        <time>2018-09-20T12:25:11.000Z</time>
      </trkpt>
      <trkpt lat="46.70961" lon="-2.34629">
        <ele>26.2</ele>
        <time>2018-09-20T12:25:12.000Z</time>
      </trkpt>
      <trkpt lat="46.70961" lon="-2.34628">
        <ele>26.2</ele>
        <time>2018-09-20T12:25:13.000Z</time>
      </trkpt>
      <trkpt lat="46.70961" lon="-2.34626">
        <ele>26.2</ele>
        <time>2018-09-20T12:25:14.000Z</time>
      </trkpt>
      <trkpt lat="46.70961" lon="-2.34625">
        <ele>26.2</ele>
        <time>2018-09-20T12:25:15.000Z</time>
      </trkpt>
      <trkpt lat="46.7096" lon="-2.34623">
        <ele>26.2</ele>
        <time>2018-09-20T12:25:16.000Z</time>
      </trkpt>
      <trkpt lat="46.7096" lon="-2.34622">
        <ele>26.3</ele>
        <time>2018-09-20T12:25:17.000Z</time>
      </trkpt>
      <trkpt lat="46.7096" lon="-2.3462">
        <ele>26.3</ele>
        <time>2018-09-20T12:25:18.000Z</time>
      </trkpt>
      <trkpt lat="46.7096" lon="-2.34619">
        <ele>26.3</ele>
        <time>2018-09-20T12:25:19.000Z</time>
      </trkpt>
      <trkpt lat="46.7096" lon="-2.34618">
        <ele>26.3</ele>
        <time>2018-09-20T12:25:20.000Z</time>
      </trkpt>
      <trkpt lat="46.70959" lon="-2.34616">
        <ele>26.3</ele>
        <time>2018-09-20T12:25:21.000Z</time>
      </trkpt>
      <trkpt lat="46.70959" lon="-2.34615">
        <ele>26.3</ele>
        <time>2018-09-20T12:25:22.000Z</time>
      </trkpt>
      <trkpt lat="46.70959" lon="-2.34613">
        <ele>26.3</ele>
        <time>2018-09-20T12:25:23.000Z</time>
      </trkpt>
      <trkpt lat="46.70959" lon="-2.34612">
        <ele>26.3</ele>
        <time>2018-09-20T12:25:24.000Z</time>
      </trkpt>
      <trkpt lat="46.70959" lon="-2.34611">
        <ele>26.3</ele>
        <time>2018-09-20T12:25:25.000Z</time>
      </trkpt>
      <trkpt lat="46.70959" lon="-2.34609">
        <ele>26.3</ele>
        <time>2018-09-20T12:25:26.000Z</time>
      </trkpt>
      <trkpt lat="46.70959" lon="-2.34608">
        <ele>26.3</ele>
        <time>2018-09-20T12:25:27.000Z</time>
      </trkpt>
      <trkpt lat="46.7096" lon="-2.34607">
        <ele>26.3</ele>
        <time>2018-09-20T12:25:28.000Z</time>
      </trkpt>
      <trkpt lat="46.7096" lon="-2.34606">
        <ele>26.4</ele>
        <time>2018-09-20T12:25:29.000Z</time>
      </trkpt>
      <trkpt lat="46.7096" lon="-2.34605">
        <ele>26.4</ele>
        <time>2018-09-20T12:25:30.000Z</time>
      </trkpt>
      <trkpt lat="46.70961" lon="-2.34604">
        <ele>26.4</ele>
        <time>2018-09-20T12:25:31.000Z</time>
      </trkpt>
      <trkpt lat="46.70962" lon="-2.34603">
        <ele>26.4</ele>
        <time>2018-09-20T12:25:32.000Z</time>
      </trkpt>
      <trkpt lat="46.70962" lon="-2.34602">
        <ele>26.4</ele>
        <time>2018-09-20T12:25:33.000Z</time>
      </trkpt>
      <trkpt lat="46.70963" lon="-2.34601">
        <ele>26.4</ele>
        <time>2018-09-20T12:25:34.000Z</time>
      </trkpt>
      <trkpt lat="46.70964" lon="-2.346">
        <ele>26.3</ele>
        <time>2018-09-20T12:25:35.000Z</time>
      </trkpt>
      <trkpt lat="46.70965" lon="-2.34599">
        <ele>26.3</ele>
        <time>2018-09-20T12:25:36.000Z</time>
      </trkpt>
      <trkpt lat="46.70966" lon="-2.34598">
        <ele>26.3</ele>
        <time>2018-09-20T12:25:37.000Z</time>
      </trkpt>
      <trkpt lat="46.70967" lon="-2.34598">
        <ele>26.3</ele>
        <time>2018-09-20T12:25:38.000Z</time>
      </trkpt>
      <trkpt lat="46.70968" lon="-2.34597">
        <ele>26.3</ele>
        <time>2018-09-20T12:25:39.000Z</time>
      </trkpt>
      <trkpt lat="46.70969" lon="-2.34597">
        <ele>26.3</ele>
        <time>2018-09-20T12:25:40.000Z</time>
      </trkpt>
      <trkpt lat="46.7097" lon="-2.34596">
        <ele>26.3</ele>
        <time>2018-09-20T12:25:41.000Z</time>
      </trkpt>
      <trkpt lat="46.70971" lon="-2.34595">
        <ele>26.3</ele>
        <time>2018-09-20T12:25:42.000Z</time>
      </trkpt>
      <trkpt lat="46.70972" lon="-2.34595">
        <ele>26.3</ele>
        <time>2018-09-20T12:25:43.000Z</time>
      </trkpt>
      <trkpt lat="46.70973" lon="-2.34594">
        <ele>26.3</ele>
        <time>2018-09-20T12:25:44.000Z</time>
      </trkpt>
      <trkpt lat="46.70974" lon="-2.34594">
        <ele>26.3</ele>
        <time>2018-09-20T12:25:45.000Z</time>
      </trkpt>
      <trkpt lat="46.70975" lon="-2.34593">
        <ele>26.3</ele>
        <time>2018-09-20T12:25:46.000Z</time>
      </trkpt>
      <trkpt lat="46.70976" lon="-2.34593">
        <ele>26.3</ele>
        <time>2018-09-20T12:25:47.000Z</time>
      </trkpt>
      <trkpt lat="46.70977" lon="-2.34592">
        <ele>26.2</ele>
        <time>2018-09-20T12:25:48.000Z</time>
      </trkpt>
      <trkpt lat="46.70978" lon="-2.34591">
        <ele>26.2</ele>
        <time>2018-09-20T12:25:49.000Z</time>
      </trkpt>
      <trkpt lat="46.70979" lon="-2.34591">
        <ele>26.2</ele>
        <time>2018-09-20T12:25:50.000Z</time>
      </trkpt>
      <trkpt lat="46.70981" lon="-2.3459">
        <ele>26.2</ele>
        <time>2018-09-20T12:25:51.000Z</time>
      </trkpt>
      <trkpt lat="46.70982" lon="-2.34589">
        <ele>26.2</ele>
        <time>2018-09-20T12:25:52.000Z</time>
      </trkpt>
      <trkpt lat="46.70983" lon="-2.34589">
        <ele>26.2</ele>
        <time>2018-09-20T12:25:53.000Z</time>
      </trkpt>
      <trkpt lat="46.70983" lon="-2.34588">
        <ele>26.2</ele>
        <time>2018-09-20T12:25:54.000Z</time>
      </trkpt>
      <trkpt lat="46.70984" lon="-2.34587">
        <ele>26.2</ele>
        <time>2018-09-20T12:25:55.000Z</time>
      </trkpt>
      <trkpt lat="46.70985" lon="-2.34587">
        <ele>26.2</ele>
        <time>2018-09-20T12:25:56.000Z</time>
      </trkpt>
      <trkpt lat="46.70986" lon="-2.34586">
        <ele>26.2</ele>
        <time>2018-09-20T12:25:57.000Z</time>
      </trkpt>
      <trkpt lat="46.70987" lon="-2.34586">
        <ele>26.2</ele>
        <time>2018-09-20T12:25:58.000Z</time>
      </trkpt>
      <trkpt lat="46.70987" lon="-2.34585">
        <ele>26.2</ele>
        <time>2018-09-20T12:25:59.000Z</time>
      </trkpt>
      <trkpt lat="46.70988" lon="-2.34585">
        <ele>26.1</ele>
        <time>2018-09-20T12:26:00.000Z</time>
      </trkpt>
      <trkpt lat="46.70988" lon="-2.34585">
        <ele>26.1</ele>
        <time>2018-09-20T12:26:01.000Z</time>
      </trkpt>
      <trkpt lat="46.70988" lon="-2.34585">
        <ele>26.1</ele>
        <time>2018-09-20T12:26:02.000Z</time>
      </trkpt>
      <trkpt lat="46.70989" lon="-2.34584">
        <ele>26.1</ele>
        <time>2018-09-20T12:26:03.000Z</time>
      </trkpt>
      <trkpt lat="46.70989" lon="-2.34584">
        <ele>26.1</ele>
        <time>2018-09-20T12:26:04.000Z</time>
      </trkpt>
      <trkpt lat="46.7099" lon="-2.34584">
        <ele>26.1</ele>
        <time>2018-09-20T12:26:05.000Z</time>
      </trkpt>
      <trkpt lat="46.70991" lon="-2.34584">
        <ele>26.1</ele>
        <time>2018-09-20T12:26:06.000Z</time>
      </trkpt>
      <trkpt lat="46.70992" lon="-2.34584">
        <ele>26.1</ele>
        <time>2018-09-20T12:26:07.000Z</time>
      </trkpt>
      <trkpt lat="46.70993" lon="-2.34584">
        <ele>26.1</ele>
        <time>2018-09-20T12:26:08.000Z</time>
      </trkpt>
      <trkpt lat="46.70993" lon="-2.34584">
        <ele>26.1</ele>
        <time>2018-09-20T12:26:09.000Z</time>
      </trkpt>
      <trkpt lat="46.70994" lon="-2.34583">
        <ele>26.1</ele>
        <time>2018-09-20T12:26:10.000Z</time>
      </trkpt>
      <trkpt lat="46.70995" lon="-2.34583">
        <ele>26.1</ele>
        <time>2018-09-20T12:26:11.000Z</time>
      </trkpt>
      <trkpt lat="46.70996" lon="-2.34583">
        <ele>26.1</ele>
        <time>2018-09-20T12:26:12.000Z</time>
      </trkpt>
      <trkpt lat="46.70997" lon="-2.34583">
        <ele>26</ele>
        <time>2018-09-20T12:26:13.000Z</time>
      </trkpt>
      <trkpt lat="46.70998" lon="-2.34582">
        <ele>26</ele>
        <time>2018-09-20T12:26:14.000Z</time>
      </trkpt>
      <trkpt lat="46.70999" lon="-2.34582">
        <ele>26</ele>
        <time>2018-09-20T12:26:15.000Z</time>
      </trkpt>
      <trkpt lat="46.71" lon="-2.34581">
        <ele>26</ele>
        <time>2018-09-20T12:26:16.000Z</time>
      </trkpt>
      <trkpt lat="46.71001" lon="-2.34581">
        <ele>26</ele>
        <time>2018-09-20T12:26:17.000Z</time>
      </trkpt>
      <trkpt lat="46.71002" lon="-2.3458">
        <ele>26</ele>
        <time>2018-09-20T12:26:18.000Z</time>
      </trkpt>
      <trkpt lat="46.71003" lon="-2.3458">
        <ele>26</ele>
        <time>2018-09-20T12:26:19.000Z</time>
      </trkpt>
      <trkpt lat="46.71005" lon="-2.34579">
        <ele>26</ele>
        <time>2018-09-20T12:26:20.000Z</time>
      </trkpt>
      <trkpt lat="46.71006" lon="-2.34578">
        <ele>26</ele>
        <time>2018-09-20T12:26:21.000Z</time>
      </trkpt>
      <trkpt lat="46.71008" lon="-2.34578">
        <ele>26</ele>
        <time>2018-09-20T12:26:22.000Z</time>
      </trkpt>
      <trkpt lat="46.71009" lon="-2.34577">
        <ele>26</ele>
        <time>2018-09-20T12:26:23.000Z</time>
      </trkpt>
      <trkpt lat="46.7101" lon="-2.34577">
        <ele>26</ele>
        <time>2018-09-20T12:26:24.000Z</time>
      </trkpt>
      <trkpt lat="46.71012" lon="-2.34576">
        <ele>26</ele>
        <time>2018-09-20T12:26:25.000Z</time>
      </trkpt>
      <trkpt lat="46.71013" lon="-2.34576">
        <ele>25.9</ele>
        <time>2018-09-20T12:26:26.000Z</time>
      </trkpt>
      <trkpt lat="46.71014" lon="-2.34576">
        <ele>25.9</ele>
        <time>2018-09-20T12:26:27.000Z</time>
      </trkpt>
      <trkpt lat="46.71015" lon="-2.34575">
        <ele>25.9</ele>
        <time>2018-09-20T12:26:28.000Z</time>
      </trkpt>
      <trkpt lat="46.71017" lon="-2.34575">
        <ele>25.9</ele>
        <time>2018-09-20T12:26:29.000Z</time>
      </trkpt>
      <trkpt lat="46.71018" lon="-2.34575">
        <ele>25.9</ele>
        <time>2018-09-20T12:26:30.000Z</time>
      </trkpt>
      <trkpt lat="46.71019" lon="-2.34575">
        <ele>25.9</ele>
        <time>2018-09-20T12:26:31.000Z</time>
      </trkpt>
      <trkpt lat="46.7102" lon="-2.34575">
        <ele>25.9</ele>
        <time>2018-09-20T12:26:32.000Z</time>
      </trkpt>
      <trkpt lat="46.71021" lon="-2.34575">
        <ele>25.9</ele>
        <time>2018-09-20T12:26:33.000Z</time>
      </trkpt>
      <trkpt lat="46.71022" lon="-2.34574">
        <ele>25.9</ele>
        <time>2018-09-20T12:26:34.000Z</time>
      </trkpt>
      <trkpt lat="46.71023" lon="-2.34574">
        <ele>25.9</ele>
        <time>2018-09-20T12:26:35.000Z</time>
      </trkpt>
      <trkpt lat="46.71024" lon="-2.34574">
        <ele>25.9</ele>
        <time>2018-09-20T12:26:36.000Z</time>
      </trkpt>
      <trkpt lat="46.71025" lon="-2.34573">
        <ele>25.9</ele>
        <time>2018-09-20T12:26:37.000Z</time>
      </trkpt>
      <trkpt lat="46.71026" lon="-2.34573">
        <ele>25.9</ele>
        <time>2018-09-20T12:26:38.000Z</time>
      </trkpt>
      <trkpt lat="46.71028" lon="-2.34572">
        <ele>25.9</ele>
        <time>2018-09-20T12:26:39.000Z</time>
      </trkpt>
      <trkpt lat="46.71029" lon="-2.34571">
        <ele>25.8</ele>
        <time>2018-09-20T12:26:40.000Z</time>
      </trkpt>
      <trkpt lat="46.7103" lon="-2.34571">
        <ele>25.8</ele>
        <time>2018-09-20T12:26:41.000Z</time>
      </trkpt>
      <trkpt lat="46.71031" lon="-2.34571">
        <ele>25.8</ele>
        <time>2018-09-20T12:26:42.000Z</time>
      </trkpt>
      <trkpt lat="46.71033" lon="-2.34571">
        <ele>25.8</ele>
        <time>2018-09-20T12:26:43.000Z</time>
      </trkpt>
      <trkpt lat="46.71034" lon="-2.3457">
        <ele>25.8</ele>
        <time>2018-09-20T12:26:44.000Z</time>
      </trkpt>
      <trkpt lat="46.71035" lon="-2.3457">
        <ele>25.8</ele>
        <time>2018-09-20T12:26:45.000Z</time>
      </trkpt>
      <trkpt lat="46.71036" lon="-2.3457">
        <ele>25.8</ele>
        <time>2018-09-20T12:26:46.000Z</time>
      </trkpt>
      <trkpt lat="46.71038" lon="-2.3457">
        <ele>25.8</ele>
        <time>2018-09-20T12:26:47.000Z</time>
      </trkpt>
      <trkpt lat="46.71039" lon="-2.34569">
        <ele>25.8</ele>
        <time>2018-09-20T12:26:48.000Z</time>
      </trkpt>
      <trkpt lat="46.7104" lon="-2.34569">
        <ele>25.8</ele>
        <time>2018-09-20T12:26:49.000Z</time>
      </trkpt>
      <trkpt lat="46.71041" lon="-2.34568">
        <ele>25.8</ele>
        <time>2018-09-20T12:26:50.000Z</time>
      </trkpt>
      <trkpt lat="46.71042" lon="-2.34568">
        <ele>25.8</ele>
        <time>2018-09-20T12:26:51.000Z</time>
      </trkpt>
      <trkpt lat="46.71043" lon="-2.34568">
        <ele>25.8</ele>
        <time>2018-09-20T12:26:52.000Z</time>
      </trkpt>
      <trkpt lat="46.71044" lon="-2.34567">
        <ele>25.8</ele>
        <time>2018-09-20T12:26:53.000Z</time>
      </trkpt>
      <trkpt lat="46.71045" lon="-2.34567">
        <ele>25.8</ele>
        <time>2018-09-20T12:26:54.000Z</time>
      </trkpt>
      <trkpt lat="46.71046" lon="-2.34566">
        <ele>25.8</ele>
        <time>2018-09-20T12:26:55.000Z</time>
      </trkpt>
      <trkpt lat="46.71047" lon="-2.34566">
        <ele>25.8</ele>
        <time>2018-09-20T12:26:56.000Z</time>
      </trkpt>
      <trkpt lat="46.71048" lon="-2.34565">
        <ele>25.8</ele>
        <time>2018-09-20T12:26:57.000Z</time>
      </trkpt>
      <trkpt lat="46.71049" lon="-2.34565">
        <ele>25.8</ele>
        <time>2018-09-20T12:26:58.000Z</time>
      </trkpt>
      <trkpt lat="46.7105" lon="-2.34564">
        <ele>25.8</ele>
        <time>2018-09-20T12:26:59.000Z</time>
      </trkpt>
      <trkpt lat="46.71051" lon="-2.34564">
        <ele>25.8</ele>
        <time>2018-09-20T12:27:00.000Z</time>
      </trkpt>
      <trkpt lat="46.71052" lon="-2.34563">
        <ele>25.8</ele>
        <time>2018-09-20T12:27:01.000Z</time>
      </trkpt>
      <trkpt lat="46.71053" lon="-2.34563">
        <ele>25.8</ele>
        <time>2018-09-20T12:27:02.000Z</time>
      </trkpt>
      <trkpt lat="46.71054" lon="-2.34563">
        <ele>25.8</ele>
        <time>2018-09-20T12:27:03.000Z</time>
      </trkpt>
      <trkpt lat="46.71055" lon="-2.34562">
        <ele>25.8</ele>
        <time>2018-09-20T12:27:04.000Z</time>
      </trkpt>
      <trkpt lat="46.71056" lon="-2.34562">
        <ele>25.8</ele>
        <time>2018-09-20T12:27:05.000Z</time>
      </trkpt>
      <trkpt lat="46.71057" lon="-2.34562">
        <ele>25.8</ele>
        <time>2018-09-20T12:27:06.000Z</time>
      </trkpt>
      <trkpt lat="46.71059" lon="-2.34561">
        <ele>25.7</ele>
        <time>2018-09-20T12:27:07.000Z</time>
      </trkpt>
      <trkpt lat="46.7106" lon="-2.34561">
        <ele>25.7</ele>
        <time>2018-09-20T12:27:08.000Z</time>
      </trkpt>
      <trkpt lat="46.71061" lon="-2.34561">
        <ele>25.7</ele>
        <time>2018-09-20T12:27:09.000Z</time>
      </trkpt>
      <trkpt lat="46.71062" lon="-2.34561">
        <ele>25.7</ele>
        <time>2018-09-20T12:27:10.000Z</time>
      </trkpt>
      <trkpt lat="46.71063" lon="-2.34561">
        <ele>25.7</ele>
        <time>2018-09-20T12:27:11.000Z</time>
      </trkpt>
      <trkpt lat="46.71064" lon="-2.34561">
        <ele>25.7</ele>
        <time>2018-09-20T12:27:12.000Z</time>
      </trkpt>
      <trkpt lat="46.71065" lon="-2.34561">
        <ele>25.7</ele>
        <time>2018-09-20T12:27:13.000Z</time>
      </trkpt>
      <trkpt lat="46.71066" lon="-2.34561">
        <ele>25.7</ele>
        <time>2018-09-20T12:27:14.000Z</time>
      </trkpt>
      <trkpt lat="46.71068" lon="-2.34561">
        <ele>25.7</ele>
        <time>2018-09-20T12:27:15.000Z</time>
      </trkpt>
      <trkpt lat="46.71069" lon="-2.34561">
        <ele>25.7</ele>
        <time>2018-09-20T12:27:16.000Z</time>
      </trkpt>
      <trkpt lat="46.7107" lon="-2.34562">
        <ele>25.6</ele>
        <time>2018-09-20T12:27:17.000Z</time>
      </trkpt>
      <trkpt lat="46.71071" lon="-2.34562">
        <ele>25.6</ele>
        <time>2018-09-20T12:27:18.000Z</time>
      </trkpt>
      <trkpt lat="46.71073" lon="-2.34562">
        <ele>25.6</ele>
        <time>2018-09-20T12:27:19.000Z</time>
      </trkpt>
      <trkpt lat="46.71074" lon="-2.34562">
        <ele>25.6</ele>
        <time>2018-09-20T12:27:20.000Z</time>
      </trkpt>
      <trkpt lat="46.71075" lon="-2.34562">
        <ele>25.6</ele>
        <time>2018-09-20T12:27:21.000Z</time>
      </trkpt>
      <trkpt lat="46.71076" lon="-2.34563">
        <ele>25.6</ele>
        <time>2018-09-20T12:27:22.000Z</time>
      </trkpt>
      <trkpt lat="46.71078" lon="-2.34563">
        <ele>25.5</ele>
        <time>2018-09-20T12:27:23.000Z</time>
      </trkpt>
      <trkpt lat="46.71079" lon="-2.34563">
        <ele>25.5</ele>
        <time>2018-09-20T12:27:24.000Z</time>
      </trkpt>
      <trkpt lat="46.7108" lon="-2.34563">
        <ele>25.5</ele>
        <time>2018-09-20T12:27:25.000Z</time>
      </trkpt>
      <trkpt lat="46.71082" lon="-2.34563">
        <ele>25.5</ele>
        <time>2018-09-20T12:27:26.000Z</time>
      </trkpt>
      <trkpt lat="46.71083" lon="-2.34564">
        <ele>25.5</ele>
        <time>2018-09-20T12:27:27.000Z</time>
      </trkpt>
      <trkpt lat="46.71084" lon="-2.34564">
        <ele>25.4</ele>
        <time>2018-09-20T12:27:28.000Z</time>
      </trkpt>
      <trkpt lat="46.71085" lon="-2.34564">
        <ele>25.4</ele>
        <time>2018-09-20T12:27:29.000Z</time>
      </trkpt>
      <trkpt lat="46.71086" lon="-2.34564">
        <ele>25.3</ele>
        <time>2018-09-20T12:27:30.000Z</time>
      </trkpt>
      <trkpt lat="46.71088" lon="-2.34564">
        <ele>25.3</ele>
        <time>2018-09-20T12:27:31.000Z</time>
      </trkpt>
      <trkpt lat="46.71089" lon="-2.34564">
        <ele>25.2</ele>
        <time>2018-09-20T12:27:32.000Z</time>
      </trkpt>
      <trkpt lat="46.7109" lon="-2.34564">
        <ele>25.2</ele>
        <time>2018-09-20T12:27:33.000Z</time>
      </trkpt>
      <trkpt lat="46.71091" lon="-2.34564">
        <ele>25.1</ele>
        <time>2018-09-20T12:27:34.000Z</time>
      </trkpt>
      <trkpt lat="46.71092" lon="-2.34564">
        <ele>25.1</ele>
        <time>2018-09-20T12:27:35.000Z</time>
      </trkpt>
      <trkpt lat="46.71093" lon="-2.34564">
        <ele>25</ele>
        <time>2018-09-20T12:27:36.000Z</time>
      </trkpt>
      <trkpt lat="46.71095" lon="-2.34564">
        <ele>25</ele>
        <time>2018-09-20T12:27:37.000Z</time>
      </trkpt>
      <trkpt lat="46.71096" lon="-2.34564">
        <ele>25</ele>
        <time>2018-09-20T12:27:38.000Z</time>
      </trkpt>
      <trkpt lat="46.71097" lon="-2.34563">
        <ele>24.9</ele>
        <time>2018-09-20T12:27:39.000Z</time>
      </trkpt>
      <trkpt lat="46.71098" lon="-2.34563">
        <ele>24.9</ele>
        <time>2018-09-20T12:27:40.000Z</time>
      </trkpt>
      <trkpt lat="46.71099" lon="-2.34563">
        <ele>24.8</ele>
        <time>2018-09-20T12:27:41.000Z</time>
      </trkpt>
      <trkpt lat="46.71101" lon="-2.34562">
        <ele>24.8</ele>
        <time>2018-09-20T12:27:42.000Z</time>
      </trkpt>
      <trkpt lat="46.71102" lon="-2.34562">
        <ele>24.7</ele>
        <time>2018-09-20T12:27:43.000Z</time>
      </trkpt>
      <trkpt lat="46.71103" lon="-2.34561">
        <ele>24.7</ele>
        <time>2018-09-20T12:27:44.000Z</time>
      </trkpt>
      <trkpt lat="46.71104" lon="-2.34561">
        <ele>24.7</ele>
        <time>2018-09-20T12:27:45.000Z</time>
      </trkpt>
      <trkpt lat="46.71105" lon="-2.3456">
        <ele>24.6</ele>
        <time>2018-09-20T12:27:46.000Z</time>
      </trkpt>
      <trkpt lat="46.71106" lon="-2.34559">
        <ele>24.6</ele>
        <time>2018-09-20T12:27:47.000Z</time>
      </trkpt>
      <trkpt lat="46.71107" lon="-2.34558">
        <ele>24.6</ele>
        <time>2018-09-20T12:27:48.000Z</time>
      </trkpt>
      <trkpt lat="46.71108" lon="-2.34558">
        <ele>24.5</ele>
        <time>2018-09-20T12:27:49.000Z</time>
      </trkpt>
      <trkpt lat="46.71109" lon="-2.34557">
        <ele>24.5</ele>
        <time>2018-09-20T12:27:50.000Z</time>
      </trkpt>
      <trkpt lat="46.7111" lon="-2.34556">
        <ele>24.5</ele>
        <time>2018-09-20T12:27:51.000Z</time>
      </trkpt>
      <trkpt lat="46.71111" lon="-2.34555">
        <ele>24.5</ele>
        <time>2018-09-20T12:27:52.000Z</time>
      </trkpt>
      <trkpt lat="46.71111" lon="-2.34554">
        <ele>24.5</ele>
        <time>2018-09-20T12:27:53.000Z</time>
      </trkpt>
      <trkpt lat="46.71112" lon="-2.34553">
        <ele>24.4</ele>
        <time>2018-09-20T12:27:54.000Z</time>
      </trkpt>
      <trkpt lat="46.71113" lon="-2.34552">
        <ele>24.4</ele>
        <time>2018-09-20T12:27:55.000Z</time>
      </trkpt>
      <trkpt lat="46.71114" lon="-2.34551">
        <ele>24.4</ele>
        <time>2018-09-20T12:27:56.000Z</time>
      </trkpt>
      <trkpt lat="46.71115" lon="-2.3455">
        <ele>24.4</ele>
        <time>2018-09-20T12:27:57.000Z</time>
      </trkpt>
      <trkpt lat="46.71115" lon="-2.34549">
        <ele>24.4</ele>
        <time>2018-09-20T12:27:58.000Z</time>
      </trkpt>
      <trkpt lat="46.71116" lon="-2.34548">
        <ele>24.3</ele>
        <time>2018-09-20T12:27:59.000Z</time>
      </trkpt>
      <trkpt lat="46.71117" lon="-2.34547">
        <ele>24.3</ele>
        <time>2018-09-20T12:28:00.000Z</time>
      </trkpt>
      <trkpt lat="46.71118" lon="-2.34546">
        <ele>24.3</ele>
        <time>2018-09-20T12:28:01.000Z</time>
      </trkpt>
      <trkpt lat="46.71119" lon="-2.34545">
        <ele>24.3</ele>
        <time>2018-09-20T12:28:02.000Z</time>
      </trkpt>
      <trkpt lat="46.7112" lon="-2.34544">
        <ele>24.2</ele>
        <time>2018-09-20T12:28:03.000Z</time>
      </trkpt>
      <trkpt lat="46.71121" lon="-2.34543">
        <ele>24.2</ele>
        <time>2018-09-20T12:28:04.000Z</time>
      </trkpt>
      <trkpt lat="46.71122" lon="-2.34543">
        <ele>24.2</ele>
        <time>2018-09-20T12:28:05.000Z</time>
      </trkpt>
      <trkpt lat="46.71123" lon="-2.34542">
        <ele>24.1</ele>
        <time>2018-09-20T12:28:06.000Z</time>
      </trkpt>
      <trkpt lat="46.71124" lon="-2.34541">
        <ele>24.1</ele>
        <time>2018-09-20T12:28:07.000Z</time>
      </trkpt>
      <trkpt lat="46.71125" lon="-2.3454">
        <ele>24</ele>
        <time>2018-09-20T12:28:08.000Z</time>
      </trkpt>
      <trkpt lat="46.71126" lon="-2.3454">
        <ele>24</ele>
        <time>2018-09-20T12:28:09.000Z</time>
      </trkpt>
      <trkpt lat="46.71127" lon="-2.34539">
        <ele>23.9</ele>
        <time>2018-09-20T12:28:10.000Z</time>
      </trkpt>
      <trkpt lat="46.71128" lon="-2.34538">
        <ele>23.9</ele>
        <time>2018-09-20T12:28:11.000Z</time>
      </trkpt>
      <trkpt lat="46.7113" lon="-2.34538">
        <ele>23.8</ele>
        <time>2018-09-20T12:28:12.000Z</time>
      </trkpt>
      <trkpt lat="46.71131" lon="-2.34537">
        <ele>23.8</ele>
        <time>2018-09-20T12:28:13.000Z</time>
      </trkpt>
      <trkpt lat="46.71132" lon="-2.34536">
        <ele>23.7</ele>
        <time>2018-09-20T12:28:14.000Z</time>
      </trkpt>
      <trkpt lat="46.71133" lon="-2.34536">
        <ele>23.7</ele>
        <time>2018-09-20T12:28:15.000Z</time>
      </trkpt>
      <trkpt lat="46.71134" lon="-2.34535">
        <ele>23.6</ele>
        <time>2018-09-20T12:28:16.000Z</time>
      </trkpt>
      <trkpt lat="46.71135" lon="-2.34535">
        <ele>23.6</ele>
        <time>2018-09-20T12:28:17.000Z</time>
      </trkpt>
      <trkpt lat="46.71136" lon="-2.34534">
        <ele>23.5</ele>
        <time>2018-09-20T12:28:18.000Z</time>
      </trkpt>
      <trkpt lat="46.71137" lon="-2.34534">
        <ele>23.5</ele>
        <time>2018-09-20T12:28:19.000Z</time>
      </trkpt>
      <trkpt lat="46.71137" lon="-2.34533">
        <ele>23.5</ele>
        <time>2018-09-20T12:28:20.000Z</time>
      </trkpt>
      <trkpt lat="46.71138" lon="-2.34532">
        <ele>23.4</ele>
        <time>2018-09-20T12:28:21.000Z</time>
      </trkpt>
      <trkpt lat="46.71139" lon="-2.34532">
        <ele>23.4</ele>
        <time>2018-09-20T12:28:22.000Z</time>
      </trkpt>
      <trkpt lat="46.7114" lon="-2.34531">
        <ele>23.3</ele>
        <time>2018-09-20T12:28:23.000Z</time>
      </trkpt>
      <trkpt lat="46.71141" lon="-2.3453">
        <ele>23.3</ele>
        <time>2018-09-20T12:28:24.000Z</time>
      </trkpt>
      <trkpt lat="46.71143" lon="-2.34529">
        <ele>23.2</ele>
        <time>2018-09-20T12:28:25.000Z</time>
      </trkpt>
      <trkpt lat="46.71144" lon="-2.34528">
        <ele>23.2</ele>
        <time>2018-09-20T12:28:26.000Z</time>
      </trkpt>
      <trkpt lat="46.71145" lon="-2.34527">
        <ele>23.1</ele>
        <time>2018-09-20T12:28:27.000Z</time>
      </trkpt>
      <trkpt lat="46.71146" lon="-2.34526">
        <ele>23.1</ele>
        <time>2018-09-20T12:28:28.000Z</time>
      </trkpt>
      <trkpt lat="46.71147" lon="-2.34525">
        <ele>23.1</ele>
        <time>2018-09-20T12:28:29.000Z</time>
      </trkpt>
      <trkpt lat="46.71147" lon="-2.34524">
        <ele>23</ele>
        <time>2018-09-20T12:28:30.000Z</time>
      </trkpt>
      <trkpt lat="46.71148" lon="-2.34523">
        <ele>23</ele>
        <time>2018-09-20T12:28:31.000Z</time>
      </trkpt>
      <trkpt lat="46.71149" lon="-2.34522">
        <ele>23</ele>
        <time>2018-09-20T12:28:32.000Z</time>
      </trkpt>
      <trkpt lat="46.7115" lon="-2.34521">
        <ele>22.9</ele>
        <time>2018-09-20T12:28:33.000Z</time>
      </trkpt>
      <trkpt lat="46.71151" lon="-2.3452">
        <ele>22.9</ele>
        <time>2018-09-20T12:28:34.000Z</time>
      </trkpt>
      <trkpt lat="46.71152" lon="-2.34519">
        <ele>22.8</ele>
        <time>2018-09-20T12:28:35.000Z</time>
      </trkpt>
      <trkpt lat="46.71153" lon="-2.34518">
        <ele>22.8</ele>
        <time>2018-09-20T12:28:36.000Z</time>
      </trkpt>
      <trkpt lat="46.71154" lon="-2.34517">
        <ele>22.7</ele>
        <time>2018-09-20T12:28:37.000Z</time>
      </trkpt>
      <trkpt lat="46.71155" lon="-2.34516">
        <ele>22.6</ele>
        <time>2018-09-20T12:28:38.000Z</time>
      </trkpt>
      <trkpt lat="46.71156" lon="-2.34515">
        <ele>22.6</ele>
        <time>2018-09-20T12:28:39.000Z</time>
      </trkpt>
      <trkpt lat="46.71157" lon="-2.34514">
        <ele>22.5</ele>
        <time>2018-09-20T12:28:40.000Z</time>
      </trkpt>
      <trkpt lat="46.71158" lon="-2.34513">
        <ele>22.5</ele>
        <time>2018-09-20T12:28:41.000Z</time>
      </trkpt>
      <trkpt lat="46.7116" lon="-2.34512">
        <ele>22.4</ele>
        <time>2018-09-20T12:28:42.000Z</time>
      </trkpt>
      <trkpt lat="46.71161" lon="-2.34511">
        <ele>22.3</ele>
        <time>2018-09-20T12:28:43.000Z</time>
      </trkpt>
      <trkpt lat="46.71162" lon="-2.3451">
        <ele>22.3</ele>
        <time>2018-09-20T12:28:44.000Z</time>
      </trkpt>
      <trkpt lat="46.71163" lon="-2.3451">
        <ele>22.2</ele>
        <time>2018-09-20T12:28:45.000Z</time>
      </trkpt>
      <trkpt lat="46.71164" lon="-2.34509">
        <ele>22.2</ele>
        <time>2018-09-20T12:28:46.000Z</time>
      </trkpt>
      <trkpt lat="46.71165" lon="-2.34508">
        <ele>22.1</ele>
        <time>2018-09-20T12:28:47.000Z</time>
      </trkpt>
      <trkpt lat="46.71166" lon="-2.34507">
        <ele>22.1</ele>
        <time>2018-09-20T12:28:48.000Z</time>
      </trkpt>
      <trkpt lat="46.71167" lon="-2.34506">
        <ele>22</ele>
        <time>2018-09-20T12:28:49.000Z</time>
      </trkpt>
      <trkpt lat="46.71168" lon="-2.34505">
        <ele>22</ele>
        <time>2018-09-20T12:28:50.000Z</time>
      </trkpt>
      <trkpt lat="46.71169" lon="-2.34504">
        <ele>22</ele>
        <time>2018-09-20T12:28:51.000Z</time>
      </trkpt>
      <trkpt lat="46.71169" lon="-2.34503">
        <ele>21.9</ele>
        <time>2018-09-20T12:28:52.000Z</time>
      </trkpt>
      <trkpt lat="46.7117" lon="-2.34502">
        <ele>21.9</ele>
        <time>2018-09-20T12:28:53.000Z</time>
      </trkpt>
      <trkpt lat="46.71171" lon="-2.34501">
        <ele>21.9</ele>
        <time>2018-09-20T12:28:54.000Z</time>
      </trkpt>
      <trkpt lat="46.71172" lon="-2.345">
        <ele>21.9</ele>
        <time>2018-09-20T12:28:55.000Z</time>
      </trkpt>
      <trkpt lat="46.71173" lon="-2.34499">
        <ele>21.9</ele>
        <time>2018-09-20T12:28:56.000Z</time>
      </trkpt>
      <trkpt lat="46.71174" lon="-2.34499">
        <ele>21.8</ele>
        <time>2018-09-20T12:28:57.000Z</time>
      </trkpt>
      <trkpt lat="46.71175" lon="-2.34498">
        <ele>21.8</ele>
        <time>2018-09-20T12:28:58.000Z</time>
      </trkpt>
      <trkpt lat="46.71176" lon="-2.34497">
        <ele>21.8</ele>
        <time>2018-09-20T12:28:59.000Z</time>
      </trkpt>
      <trkpt lat="46.71176" lon="-2.34496">
        <ele>21.8</ele>
        <time>2018-09-20T12:29:00.000Z</time>
      </trkpt>
      <trkpt lat="46.71177" lon="-2.34495">
        <ele>21.8</ele>
        <time>2018-09-20T12:29:01.000Z</time>
      </trkpt>
      <trkpt lat="46.71178" lon="-2.34494">
        <ele>21.8</ele>
        <time>2018-09-20T12:29:02.000Z</time>
      </trkpt>
      <trkpt lat="46.71179" lon="-2.34494">
        <ele>21.8</ele>
        <time>2018-09-20T12:29:03.000Z</time>
      </trkpt>
      <trkpt lat="46.7118" lon="-2.34493">
        <ele>21.8</ele>
        <time>2018-09-20T12:29:04.000Z</time>
      </trkpt>
      <trkpt lat="46.71181" lon="-2.34492">
        <ele>21.8</ele>
        <time>2018-09-20T12:29:05.000Z</time>
      </trkpt>
      <trkpt lat="46.71182" lon="-2.34492">
        <ele>21.7</ele>
        <time>2018-09-20T12:29:06.000Z</time>
      </trkpt>
      <trkpt lat="46.71183" lon="-2.34491">
        <ele>21.7</ele>
        <time>2018-09-20T12:29:07.000Z</time>
      </trkpt>
      <trkpt lat="46.71184" lon="-2.3449">
        <ele>21.7</ele>
        <time>2018-09-20T12:29:08.000Z</time>
      </trkpt>
      <trkpt lat="46.71185" lon="-2.3449">
        <ele>21.7</ele>
        <time>2018-09-20T12:29:09.000Z</time>
      </trkpt>
      <trkpt lat="46.71186" lon="-2.34489">
        <ele>21.7</ele>
        <time>2018-09-20T12:29:10.000Z</time>
      </trkpt>
      <trkpt lat="46.71187" lon="-2.34489">
        <ele>21.7</ele>
        <time>2018-09-20T12:29:11.000Z</time>
      </trkpt>
      <trkpt lat="46.71188" lon="-2.34488">
        <ele>21.6</ele>
        <time>2018-09-20T12:29:12.000Z</time>
      </trkpt>
      <trkpt lat="46.71189" lon="-2.34488">
        <ele>21.6</ele>
        <time>2018-09-20T12:29:13.000Z</time>
      </trkpt>
      <trkpt lat="46.7119" lon="-2.34487">
        <ele>21.6</ele>
        <time>2018-09-20T12:29:14.000Z</time>
      </trkpt>
      <trkpt lat="46.71191" lon="-2.34487">
        <ele>21.6</ele>
        <time>2018-09-20T12:29:15.000Z</time>
      </trkpt>
      <trkpt lat="46.71192" lon="-2.34486">
        <ele>21.6</ele>
        <time>2018-09-20T12:29:16.000Z</time>
      </trkpt>
      <trkpt lat="46.71193" lon="-2.34486">
        <ele>21.5</ele>
        <time>2018-09-20T12:29:17.000Z</time>
      </trkpt>
      <trkpt lat="46.71194" lon="-2.34486">
        <ele>21.5</ele>
        <time>2018-09-20T12:29:18.000Z</time>
      </trkpt>
      <trkpt lat="46.71196" lon="-2.34485">
        <ele>21.5</ele>
        <time>2018-09-20T12:29:19.000Z</time>
      </trkpt>
      <trkpt lat="46.71197" lon="-2.34485">
        <ele>21.5</ele>
        <time>2018-09-20T12:29:20.000Z</time>
      </trkpt>
      <trkpt lat="46.71198" lon="-2.34485">
        <ele>21.4</ele>
        <time>2018-09-20T12:29:21.000Z</time>
      </trkpt>
      <trkpt lat="46.71199" lon="-2.34484">
        <ele>21.4</ele>
        <time>2018-09-20T12:29:22.000Z</time>
      </trkpt>
      <trkpt lat="46.712" lon="-2.34484">
        <ele>21.4</ele>
        <time>2018-09-20T12:29:23.000Z</time>
      </trkpt>
      <trkpt lat="46.71202" lon="-2.34484">
        <ele>21.4</ele>
        <time>2018-09-20T12:29:24.000Z</time>
      </trkpt>
      <trkpt lat="46.71203" lon="-2.34484">
        <ele>21.3</ele>
        <time>2018-09-20T12:29:25.000Z</time>
      </trkpt>
      <trkpt lat="46.71204" lon="-2.34484">
        <ele>21.3</ele>
        <time>2018-09-20T12:29:26.000Z</time>
      </trkpt>
      <trkpt lat="46.71206" lon="-2.34483">
        <ele>21.3</ele>
        <time>2018-09-20T12:29:27.000Z</time>
      </trkpt>
      <trkpt lat="46.71207" lon="-2.34483">
        <ele>21.2</ele>
        <time>2018-09-20T12:29:28.000Z</time>
      </trkpt>
      <trkpt lat="46.71208" lon="-2.34483">
        <ele>21.2</ele>
        <time>2018-09-20T12:29:29.000Z</time>
      </trkpt>
      <trkpt lat="46.71209" lon="-2.34482">
        <ele>21.2</ele>
        <time>2018-09-20T12:29:30.000Z</time>
      </trkpt>
      <trkpt lat="46.7121" lon="-2.34482">
        <ele>21.2</ele>
        <time>2018-09-20T12:29:31.000Z</time>
      </trkpt>
      <trkpt lat="46.71211" lon="-2.34481">
        <ele>21.2</ele>
        <time>2018-09-20T12:29:32.000Z</time>
      </trkpt>
      <trkpt lat="46.71211" lon="-2.34479">
        <ele>21.2</ele>
        <time>2018-09-20T12:29:33.000Z</time>
      </trkpt>
      <trkpt lat="46.71212" lon="-2.34477">
        <ele>21.2</ele>
        <time>2018-09-20T12:29:34.000Z</time>
      </trkpt>
      <trkpt lat="46.71212" lon="-2.34476">
        <ele>21.2</ele>
        <time>2018-09-20T12:29:35.000Z</time>
      </trkpt>
      <trkpt lat="46.71212" lon="-2.34474">
        <ele>21.2</ele>
        <time>2018-09-20T12:29:36.000Z</time>
      </trkpt>
      <trkpt lat="46.71212" lon="-2.34472">
        <ele>21.3</ele>
        <time>2018-09-20T12:29:37.000Z</time>
      </trkpt>
      <trkpt lat="46.71212" lon="-2.3447">
        <ele>21.3</ele>
        <time>2018-09-20T12:29:38.000Z</time>
      </trkpt>
      <trkpt lat="46.71211" lon="-2.34469">
        <ele>21.3</ele>
        <time>2018-09-20T12:29:39.000Z</time>
      </trkpt>
      <trkpt lat="46.71211" lon="-2.34467">
        <ele>21.3</ele>
        <time>2018-09-20T12:29:40.000Z</time>
      </trkpt>
      <trkpt lat="46.71211" lon="-2.34466">
        <ele>21.3</ele>
        <time>2018-09-20T12:29:41.000Z</time>
      </trkpt>
      <trkpt lat="46.71211" lon="-2.34464">
        <ele>21.4</ele>
        <time>2018-09-20T12:29:42.000Z</time>
      </trkpt>
      <trkpt lat="46.7121" lon="-2.34463">
        <ele>21.4</ele>
        <time>2018-09-20T12:29:43.000Z</time>
      </trkpt>
      <trkpt lat="46.7121" lon="-2.34462">
        <ele>21.4</ele>
        <time>2018-09-20T12:29:44.000Z</time>
      </trkpt>
      <trkpt lat="46.7121" lon="-2.3446">
        <ele>21.4</ele>
        <time>2018-09-20T12:29:45.000Z</time>
      </trkpt>
      <trkpt lat="46.7121" lon="-2.34459">
        <ele>21.5</ele>
        <time>2018-09-20T12:29:46.000Z</time>
      </trkpt>
      <trkpt lat="46.71209" lon="-2.34458">
        <ele>21.5</ele>
        <time>2018-09-20T12:29:47.000Z</time>
      </trkpt>
      <trkpt lat="46.71209" lon="-2.34456">
        <ele>21.5</ele>
        <time>2018-09-20T12:29:48.000Z</time>
      </trkpt>
      <trkpt lat="46.71209" lon="-2.34455">
        <ele>21.5</ele>
        <time>2018-09-20T12:29:49.000Z</time>
      </trkpt>
      <trkpt lat="46.71209" lon="-2.34453">
        <ele>21.6</ele>
        <time>2018-09-20T12:29:50.000Z</time>
      </trkpt>
      <trkpt lat="46.71209" lon="-2.34452">
        <ele>21.6</ele>
        <time>2018-09-20T12:29:51.000Z</time>
      </trkpt>
      <trkpt lat="46.71208" lon="-2.3445">
        <ele>21.6</ele>
        <time>2018-09-20T12:29:52.000Z</time>
      </trkpt>
      <trkpt lat="46.71208" lon="-2.34449">
        <ele>21.6</ele>
        <time>2018-09-20T12:29:53.000Z</time>
      </trkpt>
      <trkpt lat="46.71208" lon="-2.34447">
        <ele>21.6</ele>
        <time>2018-09-20T12:29:54.000Z</time>
      </trkpt>
      <trkpt lat="46.71208" lon="-2.34446">
        <ele>21.7</ele>
        <time>2018-09-20T12:29:55.000Z</time>
      </trkpt>
      <trkpt lat="46.71208" lon="-2.34444">
        <ele>21.7</ele>
        <time>2018-09-20T12:29:56.000Z</time>
      </trkpt>
      <trkpt lat="46.71208" lon="-2.34443">
        <ele>21.7</ele>
        <time>2018-09-20T12:29:57.000Z</time>
      </trkpt>
      <trkpt lat="46.71208" lon="-2.34441">
        <ele>21.7</ele>
        <time>2018-09-20T12:29:58.000Z</time>
      </trkpt>
      <trkpt lat="46.71208" lon="-2.3444">
        <ele>21.7</ele>
        <time>2018-09-20T12:29:59.000Z</time>
      </trkpt>
      <trkpt lat="46.71208" lon="-2.34438">
        <ele>21.8</ele>
        <time>2018-09-20T12:30:00.000Z</time>
      </trkpt>
      <trkpt lat="46.71208" lon="-2.34437">
        <ele>21.8</ele>
        <time>2018-09-20T12:30:01.000Z</time>
      </trkpt>
      <trkpt lat="46.71207" lon="-2.34435">
        <ele>21.8</ele>
        <time>2018-09-20T12:30:02.000Z</time>
      </trkpt>
      <trkpt lat="46.71207" lon="-2.34434">
        <ele>21.8</ele>
        <time>2018-09-20T12:30:03.000Z</time>
      </trkpt>
      <trkpt lat="46.71207" lon="-2.34432">
        <ele>21.8</ele>
        <time>2018-09-20T12:30:04.000Z</time>
      </trkpt>
      <trkpt lat="46.71207" lon="-2.34431">
        <ele>21.9</ele>
        <time>2018-09-20T12:30:05.000Z</time>
      </trkpt>
      <trkpt lat="46.71207" lon="-2.34429">
        <ele>21.9</ele>
        <time>2018-09-20T12:30:06.000Z</time>
      </trkpt>
      <trkpt lat="46.71207" lon="-2.34428">
        <ele>21.9</ele>
        <time>2018-09-20T12:30:07.000Z</time>
      </trkpt>
      <trkpt lat="46.71207" lon="-2.34426">
        <ele>21.9</ele>
        <time>2018-09-20T12:30:08.000Z</time>
      </trkpt>
      <trkpt lat="46.71207" lon="-2.34425">
        <ele>21.9</ele>
        <time>2018-09-20T12:30:09.000Z</time>
      </trkpt>
      <trkpt lat="46.71207" lon="-2.34423">
        <ele>22</ele>
        <time>2018-09-20T12:30:10.000Z</time>
      </trkpt>
      <trkpt lat="46.71207" lon="-2.34421">
        <ele>22</ele>
        <time>2018-09-20T12:30:11.000Z</time>
      </trkpt>
      <trkpt lat="46.71206" lon="-2.3442">
        <ele>22</ele>
        <time>2018-09-20T12:30:12.000Z</time>
      </trkpt>
      <trkpt lat="46.71206" lon="-2.34418">
        <ele>22</ele>
        <time>2018-09-20T12:30:13.000Z</time>
      </trkpt>
      <trkpt lat="46.71206" lon="-2.34416">
        <ele>22.1</ele>
        <time>2018-09-20T12:30:14.000Z</time>
      </trkpt>
      <trkpt lat="46.71206" lon="-2.34415">
        <ele>22.1</ele>
        <time>2018-09-20T12:30:15.000Z</time>
      </trkpt>
      <trkpt lat="46.71206" lon="-2.34413">
        <ele>22.1</ele>
        <time>2018-09-20T12:30:16.000Z</time>
      </trkpt>
      <trkpt lat="46.71206" lon="-2.34411">
        <ele>22.1</ele>
        <time>2018-09-20T12:30:17.000Z</time>
      </trkpt>
      <trkpt lat="46.71205" lon="-2.34409">
        <ele>22.1</ele>
        <time>2018-09-20T12:30:18.000Z</time>
      </trkpt>
      <trkpt lat="46.71205" lon="-2.34408">
        <ele>22.1</ele>
        <time>2018-09-20T12:30:19.000Z</time>
      </trkpt>
      <trkpt lat="46.71205" lon="-2.34406">
        <ele>22.1</ele>
        <time>2018-09-20T12:30:20.000Z</time>
      </trkpt>
      <trkpt lat="46.71205" lon="-2.34404">
        <ele>22.1</ele>
        <time>2018-09-20T12:30:21.000Z</time>
      </trkpt>
      <trkpt lat="46.71205" lon="-2.34403">
        <ele>22.2</ele>
        <time>2018-09-20T12:30:22.000Z</time>
      </trkpt>
      <trkpt lat="46.71205" lon="-2.34401">
        <ele>22.2</ele>
        <time>2018-09-20T12:30:23.000Z</time>
      </trkpt>
      <trkpt lat="46.71205" lon="-2.34399">
        <ele>22.2</ele>
        <time>2018-09-20T12:30:24.000Z</time>
      </trkpt>
      <trkpt lat="46.71205" lon="-2.34398">
        <ele>22.2</ele>
        <time>2018-09-20T12:30:25.000Z</time>
      </trkpt>
      <trkpt lat="46.71205" lon="-2.34396">
        <ele>22.2</ele>
        <time>2018-09-20T12:30:26.000Z</time>
      </trkpt>
      <trkpt lat="46.71205" lon="-2.34394">
        <ele>22.2</ele>
        <time>2018-09-20T12:30:27.000Z</time>
      </trkpt>
      <trkpt lat="46.71205" lon="-2.34393">
        <ele>22.2</ele>
        <time>2018-09-20T12:30:28.000Z</time>
      </trkpt>
      <trkpt lat="46.71205" lon="-2.34391">
        <ele>22.2</ele>
        <time>2018-09-20T12:30:29.000Z</time>
      </trkpt>
      <trkpt lat="46.71205" lon="-2.3439">
        <ele>22.2</ele>
        <time>2018-09-20T12:30:30.000Z</time>
      </trkpt>
      <trkpt lat="46.71205" lon="-2.34388">
        <ele>22.2</ele>
        <time>2018-09-20T12:30:31.000Z</time>
      </trkpt>
      <trkpt lat="46.71205" lon="-2.34387">
        <ele>22.3</ele>
        <time>2018-09-20T12:30:32.000Z</time>
      </trkpt>
      <trkpt lat="46.71205" lon="-2.34385">
        <ele>22.3</ele>
        <time>2018-09-20T12:30:33.000Z</time>
      </trkpt>
      <trkpt lat="46.71205" lon="-2.34384">
        <ele>22.3</ele>
        <time>2018-09-20T12:30:34.000Z</time>
      </trkpt>
      <trkpt lat="46.71205" lon="-2.34382">
        <ele>22.3</ele>
        <time>2018-09-20T12:30:35.000Z</time>
      </trkpt>
      <trkpt lat="46.71205" lon="-2.34381">
        <ele>22.3</ele>
        <time>2018-09-20T12:30:36.000Z</time>
      </trkpt>
      <trkpt lat="46.71205" lon="-2.34379">
        <ele>22.3</ele>
        <time>2018-09-20T12:30:37.000Z</time>
      </trkpt>
      <trkpt lat="46.71205" lon="-2.34378">
        <ele>22.3</ele>
        <time>2018-09-20T12:30:38.000Z</time>
      </trkpt>
      <trkpt lat="46.71205" lon="-2.34377">
        <ele>22.3</ele>
        <time>2018-09-20T12:30:39.000Z</time>
      </trkpt>
      <trkpt lat="46.71204" lon="-2.34375">
        <ele>22.3</ele>
        <time>2018-09-20T12:30:40.000Z</time>
      </trkpt>
      <trkpt lat="46.71204" lon="-2.34374">
        <ele>22.3</ele>
        <time>2018-09-20T12:30:41.000Z</time>
      </trkpt>
      <trkpt lat="46.71204" lon="-2.34373">
        <ele>22.3</ele>
        <time>2018-09-20T12:30:42.000Z</time>
      </trkpt>
      <trkpt lat="46.71204" lon="-2.34371">
        <ele>22.3</ele>
        <time>2018-09-20T12:30:43.000Z</time>
      </trkpt>
      <trkpt lat="46.71204" lon="-2.3437">
        <ele>22.4</ele>
        <time>2018-09-20T12:30:44.000Z</time>
      </trkpt>
      <trkpt lat="46.71204" lon="-2.34369">
        <ele>22.4</ele>
        <time>2018-09-20T12:30:45.000Z</time>
      </trkpt>
      <trkpt lat="46.71204" lon="-2.34368">
        <ele>22.4</ele>
        <time>2018-09-20T12:30:46.000Z</time>
      </trkpt>
      <trkpt lat="46.71204" lon="-2.34367">
        <ele>22.4</ele>
        <time>2018-09-20T12:30:47.000Z</time>
      </trkpt>
      <trkpt lat="46.71204" lon="-2.34367">
        <ele>22.4</ele>
        <time>2018-09-20T12:30:48.000Z</time>
      </trkpt>
      <trkpt lat="46.71204" lon="-2.34366">
        <ele>22.4</ele>
        <time>2018-09-20T12:30:49.000Z</time>
      </trkpt>
      <trkpt lat="46.71204" lon="-2.34366">
        <ele>22.4</ele>
        <time>2018-09-20T12:30:50.000Z</time>
      </trkpt>
      <trkpt lat="46.71204" lon="-2.34366">
        <ele>22.4</ele>
        <time>2018-09-20T12:30:51.000Z</time>
      </trkpt>
      <trkpt lat="46.71204" lon="-2.34367">
        <ele>22.4</ele>
        <time>2018-09-20T12:30:52.000Z</time>
      </trkpt>
      <trkpt lat="46.71204" lon="-2.34367">
        <ele>22.4</ele>
        <time>2018-09-20T12:30:53.000Z</time>
      </trkpt>
      <trkpt lat="46.71204" lon="-2.34367">
        <ele>22.4</ele>
        <time>2018-09-20T12:30:54.000Z</time>
      </trkpt>
      <trkpt lat="46.71204" lon="-2.34367">
        <ele>22.4</ele>
        <time>2018-09-20T12:30:55.000Z</time>
      </trkpt>
      <trkpt lat="46.71204" lon="-2.34367">
        <ele>22.4</ele>
        <time>2018-09-20T12:30:56.000Z</time>
      </trkpt>
      <trkpt lat="46.71204" lon="-2.34367">
        <ele>22.4</ele>
        <time>2018-09-20T12:30:57.000Z</time>
      </trkpt>
      <trkpt lat="46.71204" lon="-2.34367">
        <ele>22.4</ele>
        <time>2018-09-20T12:30:58.000Z</time>
      </trkpt>
      <trkpt lat="46.71204" lon="-2.34366">
        <ele>22.4</ele>
        <time>2018-09-20T12:30:59.000Z</time>
      </trkpt>
      <trkpt lat="46.71203" lon="-2.34366">
        <ele>22.4</ele>
        <time>2018-09-20T12:31:00.000Z</time>
      </trkpt>
      <trkpt lat="46.71203" lon="-2.34365">
        <ele>22.4</ele>
        <time>2018-09-20T12:31:01.000Z</time>
      </trkpt>
      <trkpt lat="46.71203" lon="-2.34364">
        <ele>22.4</ele>
        <time>2018-09-20T12:31:02.000Z</time>
      </trkpt>
      <trkpt lat="46.71203" lon="-2.34362">
        <ele>22.4</ele>
        <time>2018-09-20T12:31:03.000Z</time>
      </trkpt>
      <trkpt lat="46.71203" lon="-2.34361">
        <ele>22.4</ele>
        <time>2018-09-20T12:31:04.000Z</time>
      </trkpt>
      <trkpt lat="46.71203" lon="-2.34359">
        <ele>22.4</ele>
        <time>2018-09-20T12:31:05.000Z</time>
      </trkpt>
      <trkpt lat="46.71203" lon="-2.34358">
        <ele>22.4</ele>
        <time>2018-09-20T12:31:06.000Z</time>
      </trkpt>
      <trkpt lat="46.71203" lon="-2.34356">
        <ele>22.4</ele>
        <time>2018-09-20T12:31:07.000Z</time>
      </trkpt>
      <trkpt lat="46.71203" lon="-2.34354">
        <ele>22.4</ele>
        <time>2018-09-20T12:31:08.000Z</time>
      </trkpt>
      <trkpt lat="46.71203" lon="-2.34352">
        <ele>22.5</ele>
        <time>2018-09-20T12:31:09.000Z</time>
      </trkpt>
      <trkpt lat="46.71203" lon="-2.34351">
        <ele>22.5</ele>
        <time>2018-09-20T12:31:10.000Z</time>
      </trkpt>
      <trkpt lat="46.71203" lon="-2.34349">
        <ele>22.5</ele>
        <time>2018-09-20T12:31:11.000Z</time>
      </trkpt>
      <trkpt lat="46.71203" lon="-2.34347">
        <ele>22.5</ele>
        <time>2018-09-20T12:31:12.000Z</time>
      </trkpt>
      <trkpt lat="46.71203" lon="-2.34345">
        <ele>22.5</ele>
        <time>2018-09-20T12:31:13.000Z</time>
      </trkpt>
      <trkpt lat="46.71203" lon="-2.34343">
        <ele>22.5</ele>
        <time>2018-09-20T12:31:14.000Z</time>
      </trkpt>
      <trkpt lat="46.71203" lon="-2.34341">
        <ele>22.5</ele>
        <time>2018-09-20T12:31:15.000Z</time>
      </trkpt>
      <trkpt lat="46.71203" lon="-2.34339">
        <ele>22.5</ele>
        <time>2018-09-20T12:31:16.000Z</time>
      </trkpt>
      <trkpt lat="46.71203" lon="-2.34338">
        <ele>22.5</ele>
        <time>2018-09-20T12:31:17.000Z</time>
      </trkpt>
      <trkpt lat="46.71202" lon="-2.34336">
        <ele>22.6</ele>
        <time>2018-09-20T12:31:18.000Z</time>
      </trkpt>
      <trkpt lat="46.71202" lon="-2.34334">
        <ele>22.6</ele>
        <time>2018-09-20T12:31:19.000Z</time>
      </trkpt>
      <trkpt lat="46.71202" lon="-2.34333">
        <ele>22.6</ele>
        <time>2018-09-20T12:31:20.000Z</time>
      </trkpt>
      <trkpt lat="46.71201" lon="-2.34331">
        <ele>22.6</ele>
        <time>2018-09-20T12:31:21.000Z</time>
      </trkpt>
      <trkpt lat="46.71201" lon="-2.34329">
        <ele>22.5</ele>
        <time>2018-09-20T12:31:22.000Z</time>
      </trkpt>
      <trkpt lat="46.712" lon="-2.34328">
        <ele>22.5</ele>
        <time>2018-09-20T12:31:23.000Z</time>
      </trkpt>
      <trkpt lat="46.712" lon="-2.34326">
        <ele>22.5</ele>
        <time>2018-09-20T12:31:24.000Z</time>
      </trkpt>
      <trkpt lat="46.712" lon="-2.34325">
        <ele>22.5</ele>
        <time>2018-09-20T12:31:25.000Z</time>
      </trkpt>
      <trkpt lat="46.71199" lon="-2.34323">
        <ele>22.5</ele>
        <time>2018-09-20T12:31:26.000Z</time>
      </trkpt>
      <trkpt lat="46.71199" lon="-2.34322">
        <ele>22.5</ele>
        <time>2018-09-20T12:31:27.000Z</time>
      </trkpt>
      <trkpt lat="46.71199" lon="-2.3432">
        <ele>22.5</ele>
        <time>2018-09-20T12:31:28.000Z</time>
      </trkpt>
      <trkpt lat="46.71198" lon="-2.34319">
        <ele>22.4</ele>
        <time>2018-09-20T12:31:29.000Z</time>
      </trkpt>
      <trkpt lat="46.71198" lon="-2.34317">
        <ele>22.4</ele>
        <time>2018-09-20T12:31:30.000Z</time>
      </trkpt>
      <trkpt lat="46.71198" lon="-2.34316">
        <ele>22.4</ele>
        <time>2018-09-20T12:31:31.000Z</time>
      </trkpt>
      <trkpt lat="46.71197" lon="-2.34314">
        <ele>22.4</ele>
        <time>2018-09-20T12:31:32.000Z</time>
      </trkpt>
      <trkpt lat="46.71197" lon="-2.34313">
        <ele>22.4</ele>
        <time>2018-09-20T12:31:33.000Z</time>
      </trkpt>
      <trkpt lat="46.71197" lon="-2.34312">
        <ele>22.4</ele>
        <time>2018-09-20T12:31:34.000Z</time>
      </trkpt>
      <trkpt lat="46.71197" lon="-2.3431">
        <ele>22.4</ele>
        <time>2018-09-20T12:31:35.000Z</time>
      </trkpt>
      <trkpt lat="46.71196" lon="-2.34309">
        <ele>22.4</ele>
        <time>2018-09-20T12:31:36.000Z</time>
      </trkpt>
      <trkpt lat="46.71196" lon="-2.34308">
        <ele>22.3</ele>
        <time>2018-09-20T12:31:37.000Z</time>
      </trkpt>
      <trkpt lat="46.71196" lon="-2.34306">
        <ele>22.3</ele>
        <time>2018-09-20T12:31:38.000Z</time>
      </trkpt>
      <trkpt lat="46.71195" lon="-2.34305">
        <ele>22.3</ele>
        <time>2018-09-20T12:31:39.000Z</time>
      </trkpt>
      <trkpt lat="46.71195" lon="-2.34304">
        <ele>22.3</ele>
        <time>2018-09-20T12:31:40.000Z</time>
      </trkpt>
      <trkpt lat="46.71194" lon="-2.34303">
        <ele>22.3</ele>
        <time>2018-09-20T12:31:41.000Z</time>
      </trkpt>
      <trkpt lat="46.71194" lon="-2.34301">
        <ele>22.3</ele>
        <time>2018-09-20T12:31:42.000Z</time>
      </trkpt>
      <trkpt lat="46.71194" lon="-2.343">
        <ele>22.3</ele>
        <time>2018-09-20T12:31:43.000Z</time>
      </trkpt>
      <trkpt lat="46.71193" lon="-2.34299">
        <ele>22.3</ele>
        <time>2018-09-20T12:31:44.000Z</time>
      </trkpt>
      <trkpt lat="46.71193" lon="-2.34298">
        <ele>22.3</ele>
        <time>2018-09-20T12:31:45.000Z</time>
      </trkpt>
      <trkpt lat="46.71192" lon="-2.34296">
        <ele>22.2</ele>
        <time>2018-09-20T12:31:46.000Z</time>
      </trkpt>
      <trkpt lat="46.71192" lon="-2.34295">
        <ele>22.2</ele>
        <time>2018-09-20T12:31:47.000Z</time>
      </trkpt>
      <trkpt lat="46.71192" lon="-2.34294">
        <ele>22.2</ele>
        <time>2018-09-20T12:31:48.000Z</time>
      </trkpt>
      <trkpt lat="46.71191" lon="-2.34292">
        <ele>22.2</ele>
        <time>2018-09-20T12:31:49.000Z</time>
      </trkpt>
      <trkpt lat="46.71191" lon="-2.34291">
        <ele>22.2</ele>
        <time>2018-09-20T12:31:50.000Z</time>
      </trkpt>
      <trkpt lat="46.71191" lon="-2.3429">
        <ele>22.2</ele>
        <time>2018-09-20T12:31:51.000Z</time>
      </trkpt>
      <trkpt lat="46.71191" lon="-2.34288">
        <ele>22.2</ele>
        <time>2018-09-20T12:31:52.000Z</time>
      </trkpt>
      <trkpt lat="46.7119" lon="-2.34287">
        <ele>22.2</ele>
        <time>2018-09-20T12:31:53.000Z</time>
      </trkpt>
      <trkpt lat="46.7119" lon="-2.34285">
        <ele>22.1</ele>
        <time>2018-09-20T12:31:54.000Z</time>
      </trkpt>
      <trkpt lat="46.7119" lon="-2.34284">
        <ele>22.1</ele>
        <time>2018-09-20T12:31:55.000Z</time>
      </trkpt>
      <trkpt lat="46.7119" lon="-2.34282">
        <ele>22.1</ele>
        <time>2018-09-20T12:31:56.000Z</time>
      </trkpt>
      <trkpt lat="46.7119" lon="-2.3428">
        <ele>22.1</ele>
        <time>2018-09-20T12:31:57.000Z</time>
      </trkpt>
      <trkpt lat="46.7119" lon="-2.34279">
        <ele>22.1</ele>
        <time>2018-09-20T12:31:58.000Z</time>
      </trkpt>
      <trkpt lat="46.7119" lon="-2.34277">
        <ele>22</ele>
        <time>2018-09-20T12:31:59.000Z</time>
      </trkpt>
      <trkpt lat="46.7119" lon="-2.34275">
        <ele>22</ele>
        <time>2018-09-20T12:32:00.000Z</time>
      </trkpt>
      <trkpt lat="46.7119" lon="-2.34274">
        <ele>22</ele>
        <time>2018-09-20T12:32:01.000Z</time>
      </trkpt>
      <trkpt lat="46.71191" lon="-2.34272">
        <ele>22</ele>
        <time>2018-09-20T12:32:02.000Z</time>
      </trkpt>
      <trkpt lat="46.71191" lon="-2.3427">
        <ele>22</ele>
        <time>2018-09-20T12:32:03.000Z</time>
      </trkpt>
      <trkpt lat="46.71191" lon="-2.34269">
        <ele>21.9</ele>
        <time>2018-09-20T12:32:04.000Z</time>
      </trkpt>
      <trkpt lat="46.71191" lon="-2.34267">
        <ele>21.9</ele>
        <time>2018-09-20T12:32:05.000Z</time>
      </trkpt>
      <trkpt lat="46.71191" lon="-2.34265">
        <ele>21.9</ele>
        <time>2018-09-20T12:32:06.000Z</time>
      </trkpt>
      <trkpt lat="46.71191" lon="-2.34264">
        <ele>21.9</ele>
        <time>2018-09-20T12:32:07.000Z</time>
      </trkpt>
      <trkpt lat="46.71191" lon="-2.34262">
        <ele>21.8</ele>
        <time>2018-09-20T12:32:08.000Z</time>
      </trkpt>
      <trkpt lat="46.71191" lon="-2.34261">
        <ele>21.8</ele>
        <time>2018-09-20T12:32:09.000Z</time>
      </trkpt>
      <trkpt lat="46.71191" lon="-2.34259">
        <ele>21.8</ele>
        <time>2018-09-20T12:32:10.000Z</time>
      </trkpt>
      <trkpt lat="46.71191" lon="-2.34258">
        <ele>21.8</ele>
        <time>2018-09-20T12:32:11.000Z</time>
      </trkpt>
      <trkpt lat="46.71191" lon="-2.34256">
        <ele>21.8</ele>
        <time>2018-09-20T12:32:12.000Z</time>
      </trkpt>
      <trkpt lat="46.7119" lon="-2.34255">
        <ele>21.8</ele>
        <time>2018-09-20T12:32:13.000Z</time>
      </trkpt>
      <trkpt lat="46.7119" lon="-2.34254">
        <ele>21.8</ele>
        <time>2018-09-20T12:32:14.000Z</time>
      </trkpt>
      <trkpt lat="46.7119" lon="-2.34252">
        <ele>21.7</ele>
        <time>2018-09-20T12:32:15.000Z</time>
      </trkpt>
      <trkpt lat="46.7119" lon="-2.34251">
        <ele>21.7</ele>
        <time>2018-09-20T12:32:16.000Z</time>
      </trkpt>
      <trkpt lat="46.7119" lon="-2.3425">
        <ele>21.7</ele>
        <time>2018-09-20T12:32:17.000Z</time>
      </trkpt>
      <trkpt lat="46.71191" lon="-2.34248">
        <ele>21.7</ele>
        <time>2018-09-20T12:32:18.000Z</time>
      </trkpt>
      <trkpt lat="46.71191" lon="-2.34247">
        <ele>21.7</ele>
        <time>2018-09-20T12:32:19.000Z</time>
      </trkpt>
      <trkpt lat="46.71192" lon="-2.34246">
        <ele>21.8</ele>
        <time>2018-09-20T12:32:20.000Z</time>
      </trkpt>
      <trkpt lat="46.71192" lon="-2.34245">
        <ele>21.8</ele>
        <time>2018-09-20T12:32:21.000Z</time>
      </trkpt>
      <trkpt lat="46.71193" lon="-2.34244">
        <ele>21.8</ele>
        <time>2018-09-20T12:32:22.000Z</time>
      </trkpt>
      <trkpt lat="46.71194" lon="-2.34243">
        <ele>21.8</ele>
        <time>2018-09-20T12:32:23.000Z</time>
      </trkpt>
      <trkpt lat="46.71195" lon="-2.34242">
        <ele>21.8</ele>
        <time>2018-09-20T12:32:24.000Z</time>
      </trkpt>
      <trkpt lat="46.71196" lon="-2.34241">
        <ele>21.8</ele>
        <time>2018-09-20T12:32:25.000Z</time>
      </trkpt>
      <trkpt lat="46.71197" lon="-2.3424">
        <ele>21.8</ele>
        <time>2018-09-20T12:32:26.000Z</time>
      </trkpt>
      <trkpt lat="46.71198" lon="-2.34239">
        <ele>21.8</ele>
        <time>2018-09-20T12:32:27.000Z</time>
      </trkpt>
      <trkpt lat="46.71199" lon="-2.34238">
        <ele>21.8</ele>
        <time>2018-09-20T12:32:28.000Z</time>
      </trkpt>
      <trkpt lat="46.712" lon="-2.34237">
        <ele>21.8</ele>
        <time>2018-09-20T12:32:29.000Z</time>
      </trkpt>
      <trkpt lat="46.71201" lon="-2.34236">
        <ele>21.8</ele>
        <time>2018-09-20T12:32:30.000Z</time>
      </trkpt>
      <trkpt lat="46.71202" lon="-2.34236">
        <ele>21.8</ele>
        <time>2018-09-20T12:32:31.000Z</time>
      </trkpt>
      <trkpt lat="46.71203" lon="-2.34235">
        <ele>21.7</ele>
        <time>2018-09-20T12:32:32.000Z</time>
      </trkpt>
      <trkpt lat="46.71204" lon="-2.34234">
        <ele>21.7</ele>
        <time>2018-09-20T12:32:33.000Z</time>
      </trkpt>
      <trkpt lat="46.71205" lon="-2.34233">
        <ele>21.7</ele>
        <time>2018-09-20T12:32:34.000Z</time>
      </trkpt>
      <trkpt lat="46.71206" lon="-2.34232">
        <ele>21.7</ele>
        <time>2018-09-20T12:32:35.000Z</time>
      </trkpt>
      <trkpt lat="46.71207" lon="-2.34231">
        <ele>21.7</ele>
        <time>2018-09-20T12:32:36.000Z</time>
      </trkpt>
      <trkpt lat="46.71208" lon="-2.34231">
        <ele>21.7</ele>
        <time>2018-09-20T12:32:37.000Z</time>
      </trkpt>
      <trkpt lat="46.71209" lon="-2.3423">
        <ele>21.7</ele>
        <time>2018-09-20T12:32:38.000Z</time>
      </trkpt>
      <trkpt lat="46.7121" lon="-2.34229">
        <ele>21.7</ele>
        <time>2018-09-20T12:32:39.000Z</time>
      </trkpt>
      <trkpt lat="46.71211" lon="-2.34228">
        <ele>21.7</ele>
        <time>2018-09-20T12:32:40.000Z</time>
      </trkpt>
      <trkpt lat="46.71212" lon="-2.34227">
        <ele>21.7</ele>
        <time>2018-09-20T12:32:41.000Z</time>
      </trkpt>
      <trkpt lat="46.71213" lon="-2.34226">
        <ele>21.7</ele>
        <time>2018-09-20T12:32:42.000Z</time>
      </trkpt>
      <trkpt lat="46.71214" lon="-2.34226">
        <ele>21.7</ele>
        <time>2018-09-20T12:32:43.000Z</time>
      </trkpt>
      <trkpt lat="46.71215" lon="-2.34225">
        <ele>21.7</ele>
        <time>2018-09-20T12:32:44.000Z</time>
      </trkpt>
      <trkpt lat="46.71216" lon="-2.34224">
        <ele>21.7</ele>
        <time>2018-09-20T12:32:45.000Z</time>
      </trkpt>
      <trkpt lat="46.71217" lon="-2.34223">
        <ele>21.7</ele>
        <time>2018-09-20T12:32:46.000Z</time>
      </trkpt>
      <trkpt lat="46.71218" lon="-2.34223">
        <ele>21.7</ele>
        <time>2018-09-20T12:32:47.000Z</time>
      </trkpt>
      <trkpt lat="46.71219" lon="-2.34222">
        <ele>21.7</ele>
        <time>2018-09-20T12:32:48.000Z</time>
      </trkpt>
      <trkpt lat="46.7122" lon="-2.34221">
        <ele>21.7</ele>
        <time>2018-09-20T12:32:49.000Z</time>
      </trkpt>
      <trkpt lat="46.71221" lon="-2.34221">
        <ele>21.7</ele>
        <time>2018-09-20T12:32:50.000Z</time>
      </trkpt>
      <trkpt lat="46.71222" lon="-2.3422">
        <ele>21.7</ele>
        <time>2018-09-20T12:32:51.000Z</time>
      </trkpt>
      <trkpt lat="46.71223" lon="-2.34219">
        <ele>21.7</ele>
        <time>2018-09-20T12:32:52.000Z</time>
      </trkpt>
      <trkpt lat="46.71224" lon="-2.34219">
        <ele>21.7</ele>
        <time>2018-09-20T12:32:53.000Z</time>
      </trkpt>
      <trkpt lat="46.71224" lon="-2.34218">
        <ele>21.7</ele>
        <time>2018-09-20T12:32:54.000Z</time>
      </trkpt>
      <trkpt lat="46.71225" lon="-2.34218">
        <ele>21.7</ele>
        <time>2018-09-20T12:32:55.000Z</time>
      </trkpt>
      <trkpt lat="46.71226" lon="-2.34217">
        <ele>21.7</ele>
        <time>2018-09-20T12:32:56.000Z</time>
      </trkpt>
      <trkpt lat="46.71227" lon="-2.34217">
        <ele>21.7</ele>
        <time>2018-09-20T12:32:57.000Z</time>
      </trkpt>
      <trkpt lat="46.71228" lon="-2.34216">
        <ele>21.7</ele>
        <time>2018-09-20T12:32:58.000Z</time>
      </trkpt>
      <trkpt lat="46.71229" lon="-2.34216">
        <ele>21.7</ele>
        <time>2018-09-20T12:32:59.000Z</time>
      </trkpt>
      <trkpt lat="46.7123" lon="-2.34215">
        <ele>21.7</ele>
        <time>2018-09-20T12:33:00.000Z</time>
      </trkpt>
      <trkpt lat="46.71231" lon="-2.34215">
        <ele>21.7</ele>
        <time>2018-09-20T12:33:01.000Z</time>
      </trkpt>
      <trkpt lat="46.71232" lon="-2.34214">
        <ele>21.6</ele>
        <time>2018-09-20T12:33:02.000Z</time>
      </trkpt>
      <trkpt lat="46.71233" lon="-2.34213">
        <ele>21.6</ele>
        <time>2018-09-20T12:33:03.000Z</time>
      </trkpt>
      <trkpt lat="46.71234" lon="-2.34213">
        <ele>21.6</ele>
        <time>2018-09-20T12:33:04.000Z</time>
      </trkpt>
      <trkpt lat="46.71235" lon="-2.34212">
        <ele>21.6</ele>
        <time>2018-09-20T12:33:05.000Z</time>
      </trkpt>
      <trkpt lat="46.71236" lon="-2.34211">
        <ele>21.6</ele>
        <time>2018-09-20T12:33:06.000Z</time>
      </trkpt>
      <trkpt lat="46.71236" lon="-2.3421">
        <ele>21.6</ele>
        <time>2018-09-20T12:33:07.000Z</time>
      </trkpt>
      <trkpt lat="46.71237" lon="-2.34209">
        <ele>21.6</ele>
        <time>2018-09-20T12:33:08.000Z</time>
      </trkpt>
      <trkpt lat="46.71238" lon="-2.34209">
        <ele>21.6</ele>
        <time>2018-09-20T12:33:09.000Z</time>
      </trkpt>
      <trkpt lat="46.71239" lon="-2.34208">
        <ele>21.6</ele>
        <time>2018-09-20T12:33:10.000Z</time>
      </trkpt>
      <trkpt lat="46.7124" lon="-2.34207">
        <ele>21.6</ele>
        <time>2018-09-20T12:33:11.000Z</time>
      </trkpt>
      <trkpt lat="46.71241" lon="-2.34206">
        <ele>21.6</ele>
        <time>2018-09-20T12:33:12.000Z</time>
      </trkpt>
      <trkpt lat="46.71242" lon="-2.34205">
        <ele>21.6</ele>
        <time>2018-09-20T12:33:13.000Z</time>
      </trkpt>
      <trkpt lat="46.71243" lon="-2.34204">
        <ele>21.6</ele>
        <time>2018-09-20T12:33:14.000Z</time>
      </trkpt>
      <trkpt lat="46.71244" lon="-2.34203">
        <ele>21.6</ele>
        <time>2018-09-20T12:33:15.000Z</time>
      </trkpt>
      <trkpt lat="46.71245" lon="-2.34202">
        <ele>21.6</ele>
        <time>2018-09-20T12:33:16.000Z</time>
      </trkpt>
      <trkpt lat="46.71246" lon="-2.34201">
        <ele>21.6</ele>
        <time>2018-09-20T12:33:17.000Z</time>
      </trkpt>
      <trkpt lat="46.71247" lon="-2.34201">
        <ele>21.6</ele>
        <time>2018-09-20T12:33:18.000Z</time>
      </trkpt>
      <trkpt lat="46.71247" lon="-2.342">
        <ele>21.6</ele>
        <time>2018-09-20T12:33:19.000Z</time>
      </trkpt>
      <trkpt lat="46.71248" lon="-2.34199">
        <ele>21.6</ele>
        <time>2018-09-20T12:33:20.000Z</time>
      </trkpt>
      <trkpt lat="46.71249" lon="-2.34198">
        <ele>21.6</ele>
        <time>2018-09-20T12:33:21.000Z</time>
      </trkpt>
      <trkpt lat="46.7125" lon="-2.34197">
        <ele>21.6</ele>
        <time>2018-09-20T12:33:22.000Z</time>
      </trkpt>
      <trkpt lat="46.71251" lon="-2.34197">
        <ele>21.6</ele>
        <time>2018-09-20T12:33:23.000Z</time>
      </trkpt>
      <trkpt lat="46.71252" lon="-2.34196">
        <ele>21.7</ele>
        <time>2018-09-20T12:33:24.000Z</time>
      </trkpt>
      <trkpt lat="46.71253" lon="-2.34195">
        <ele>21.7</ele>
        <time>2018-09-20T12:33:25.000Z</time>
      </trkpt>
      <trkpt lat="46.71254" lon="-2.34194">
        <ele>21.7</ele>
        <time>2018-09-20T12:33:26.000Z</time>
      </trkpt>
      <trkpt lat="46.71255" lon="-2.34194">
        <ele>21.7</ele>
        <time>2018-09-20T12:33:27.000Z</time>
      </trkpt>
      <trkpt lat="46.71256" lon="-2.34193">
        <ele>21.7</ele>
        <time>2018-09-20T12:33:28.000Z</time>
      </trkpt>
      <trkpt lat="46.71258" lon="-2.34192">
        <ele>21.7</ele>
        <time>2018-09-20T12:33:29.000Z</time>
      </trkpt>
      <trkpt lat="46.71259" lon="-2.34191">
        <ele>21.7</ele>
        <time>2018-09-20T12:33:30.000Z</time>
      </trkpt>
      <trkpt lat="46.7126" lon="-2.34191">
        <ele>21.7</ele>
        <time>2018-09-20T12:33:31.000Z</time>
      </trkpt>
      <trkpt lat="46.71261" lon="-2.3419">
        <ele>21.7</ele>
        <time>2018-09-20T12:33:32.000Z</time>
      </trkpt>
      <trkpt lat="46.71262" lon="-2.34189">
        <ele>21.7</ele>
        <time>2018-09-20T12:33:33.000Z</time>
      </trkpt>
      <trkpt lat="46.71263" lon="-2.34188">
        <ele>21.7</ele>
        <time>2018-09-20T12:33:34.000Z</time>
      </trkpt>
      <trkpt lat="46.71264" lon="-2.34187">
        <ele>21.8</ele>
        <time>2018-09-20T12:33:35.000Z</time>
      </trkpt>
      <trkpt lat="46.71265" lon="-2.34187">
        <ele>21.8</ele>
        <time>2018-09-20T12:33:36.000Z</time>
      </trkpt>
      <trkpt lat="46.71266" lon="-2.34186">
        <ele>21.8</ele>
        <time>2018-09-20T12:33:37.000Z</time>
      </trkpt>
      <trkpt lat="46.71267" lon="-2.34185">
        <ele>21.8</ele>
        <time>2018-09-20T12:33:38.000Z</time>
      </trkpt>
      <trkpt lat="46.71267" lon="-2.34184">
        <ele>21.8</ele>
        <time>2018-09-20T12:33:39.000Z</time>
      </trkpt>
      <trkpt lat="46.71268" lon="-2.34183">
        <ele>21.8</ele>
        <time>2018-09-20T12:33:40.000Z</time>
      </trkpt>
      <trkpt lat="46.71269" lon="-2.34182">
        <ele>21.8</ele>
        <time>2018-09-20T12:33:41.000Z</time>
      </trkpt>
      <trkpt lat="46.7127" lon="-2.34182">
        <ele>21.8</ele>
        <time>2018-09-20T12:33:42.000Z</time>
      </trkpt>
      <trkpt lat="46.71271" lon="-2.34181">
        <ele>21.8</ele>
        <time>2018-09-20T12:33:43.000Z</time>
      </trkpt>
      <trkpt lat="46.71272" lon="-2.3418">
        <ele>21.8</ele>
        <time>2018-09-20T12:33:44.000Z</time>
      </trkpt>
      <trkpt lat="46.71273" lon="-2.34179">
        <ele>21.9</ele>
        <time>2018-09-20T12:33:45.000Z</time>
      </trkpt>
      <trkpt lat="46.71274" lon="-2.34178">
        <ele>21.9</ele>
        <time>2018-09-20T12:33:46.000Z</time>
      </trkpt>
      <trkpt lat="46.71275" lon="-2.34177">
        <ele>21.9</ele>
        <time>2018-09-20T12:33:47.000Z</time>
      </trkpt>
      <trkpt lat="46.71276" lon="-2.34176">
        <ele>21.9</ele>
        <time>2018-09-20T12:33:48.000Z</time>
      </trkpt>
      <trkpt lat="46.71277" lon="-2.34176">
        <ele>21.9</ele>
        <time>2018-09-20T12:33:49.000Z</time>
      </trkpt>
      <trkpt lat="46.71278" lon="-2.34175">
        <ele>21.9</ele>
        <time>2018-09-20T12:33:50.000Z</time>
      </trkpt>
      <trkpt lat="46.71279" lon="-2.34174">
        <ele>21.9</ele>
        <time>2018-09-20T12:33:51.000Z</time>
      </trkpt>
      <trkpt lat="46.7128" lon="-2.34173">
        <ele>21.9</ele>
        <time>2018-09-20T12:33:52.000Z</time>
      </trkpt>
      <trkpt lat="46.71281" lon="-2.34172">
        <ele>21.9</ele>
        <time>2018-09-20T12:33:53.000Z</time>
      </trkpt>
      <trkpt lat="46.71282" lon="-2.34172">
        <ele>21.9</ele>
        <time>2018-09-20T12:33:54.000Z</time>
      </trkpt>
      <trkpt lat="46.71283" lon="-2.34171">
        <ele>21.9</ele>
        <time>2018-09-20T12:33:55.000Z</time>
      </trkpt>
      <trkpt lat="46.71284" lon="-2.3417">
        <ele>22</ele>
        <time>2018-09-20T12:33:56.000Z</time>
      </trkpt>
      <trkpt lat="46.71285" lon="-2.3417">
        <ele>22</ele>
        <time>2018-09-20T12:33:57.000Z</time>
      </trkpt>
      <trkpt lat="46.71286" lon="-2.34169">
        <ele>22</ele>
        <time>2018-09-20T12:33:58.000Z</time>
      </trkpt>
      <trkpt lat="46.71287" lon="-2.34168">
        <ele>22</ele>
        <time>2018-09-20T12:33:59.000Z</time>
      </trkpt>
      <trkpt lat="46.71288" lon="-2.34168">
        <ele>22</ele>
        <time>2018-09-20T12:34:00.000Z</time>
      </trkpt>
      <trkpt lat="46.71289" lon="-2.34167">
        <ele>22</ele>
        <time>2018-09-20T12:34:01.000Z</time>
      </trkpt>
      <trkpt lat="46.7129" lon="-2.34167">
        <ele>22</ele>
        <time>2018-09-20T12:34:02.000Z</time>
      </trkpt>
      <trkpt lat="46.71292" lon="-2.34166">
        <ele>22</ele>
        <time>2018-09-20T12:34:03.000Z</time>
      </trkpt>
      <trkpt lat="46.71293" lon="-2.34165">
        <ele>22</ele>
        <time>2018-09-20T12:34:04.000Z</time>
      </trkpt>
      <trkpt lat="46.71294" lon="-2.34165">
        <ele>22</ele>
        <time>2018-09-20T12:34:05.000Z</time>
      </trkpt>
      <trkpt lat="46.71295" lon="-2.34164">
        <ele>22</ele>
        <time>2018-09-20T12:34:06.000Z</time>
      </trkpt>
      <trkpt lat="46.71296" lon="-2.34164">
        <ele>22</ele>
        <time>2018-09-20T12:34:07.000Z</time>
      </trkpt>
      <trkpt lat="46.71297" lon="-2.34163">
        <ele>22</ele>
        <time>2018-09-20T12:34:08.000Z</time>
      </trkpt>
      <trkpt lat="46.71298" lon="-2.34162">
        <ele>22</ele>
        <time>2018-09-20T12:34:09.000Z</time>
      </trkpt>
      <trkpt lat="46.71299" lon="-2.34162">
        <ele>22</ele>
        <time>2018-09-20T12:34:10.000Z</time>
      </trkpt>
      <trkpt lat="46.713" lon="-2.34161">
        <ele>22</ele>
        <time>2018-09-20T12:34:11.000Z</time>
      </trkpt>
      <trkpt lat="46.71301" lon="-2.3416">
        <ele>22</ele>
        <time>2018-09-20T12:34:12.000Z</time>
      </trkpt>
      <trkpt lat="46.71302" lon="-2.34159">
        <ele>22</ele>
        <time>2018-09-20T12:34:13.000Z</time>
      </trkpt>
      <trkpt lat="46.71303" lon="-2.34158">
        <ele>22</ele>
        <time>2018-09-20T12:34:14.000Z</time>
      </trkpt>
      <trkpt lat="46.71304" lon="-2.34157">
        <ele>22</ele>
        <time>2018-09-20T12:34:15.000Z</time>
      </trkpt>
      <trkpt lat="46.71305" lon="-2.34157">
        <ele>22</ele>
        <time>2018-09-20T12:34:16.000Z</time>
      </trkpt>
      <trkpt lat="46.71306" lon="-2.34156">
        <ele>22</ele>
        <time>2018-09-20T12:34:17.000Z</time>
      </trkpt>
      <trkpt lat="46.71307" lon="-2.34155">
        <ele>21.9</ele>
        <time>2018-09-20T12:34:18.000Z</time>
      </trkpt>
      <trkpt lat="46.71308" lon="-2.34154">
        <ele>21.9</ele>
        <time>2018-09-20T12:34:19.000Z</time>
      </trkpt>
      <trkpt lat="46.71309" lon="-2.34153">
        <ele>21.9</ele>
        <time>2018-09-20T12:34:20.000Z</time>
      </trkpt>
      <trkpt lat="46.7131" lon="-2.34152">
        <ele>21.9</ele>
        <time>2018-09-20T12:34:21.000Z</time>
      </trkpt>
      <trkpt lat="46.71311" lon="-2.34151">
        <ele>21.9</ele>
        <time>2018-09-20T12:34:22.000Z</time>
      </trkpt>
      <trkpt lat="46.71312" lon="-2.3415">
        <ele>21.9</ele>
        <time>2018-09-20T12:34:23.000Z</time>
      </trkpt>
      <trkpt lat="46.71313" lon="-2.34149">
        <ele>21.9</ele>
        <time>2018-09-20T12:34:24.000Z</time>
      </trkpt>
      <trkpt lat="46.71314" lon="-2.34149">
        <ele>21.9</ele>
        <time>2018-09-20T12:34:25.000Z</time>
      </trkpt>
      <trkpt lat="46.71315" lon="-2.34148">
        <ele>21.9</ele>
        <time>2018-09-20T12:34:26.000Z</time>
      </trkpt>
      <trkpt lat="46.71316" lon="-2.34147">
        <ele>21.9</ele>
        <time>2018-09-20T12:34:27.000Z</time>
      </trkpt>
      <trkpt lat="46.71317" lon="-2.34146">
        <ele>21.8</ele>
        <time>2018-09-20T12:34:28.000Z</time>
      </trkpt>
      <trkpt lat="46.71318" lon="-2.34145">
        <ele>21.8</ele>
        <time>2018-09-20T12:34:29.000Z</time>
      </trkpt>
      <trkpt lat="46.71319" lon="-2.34144">
        <ele>21.8</ele>
        <time>2018-09-20T12:34:30.000Z</time>
      </trkpt>
      <trkpt lat="46.7132" lon="-2.34143">
        <ele>21.8</ele>
        <time>2018-09-20T12:34:31.000Z</time>
      </trkpt>
      <trkpt lat="46.71321" lon="-2.34143">
        <ele>21.8</ele>
        <time>2018-09-20T12:34:32.000Z</time>
      </trkpt>
      <trkpt lat="46.71322" lon="-2.34142">
        <ele>21.8</ele>
        <time>2018-09-20T12:34:33.000Z</time>
      </trkpt>
      <trkpt lat="46.71323" lon="-2.34141">
        <ele>21.8</ele>
        <time>2018-09-20T12:34:34.000Z</time>
      </trkpt>
      <trkpt lat="46.71323" lon="-2.3414">
        <ele>21.8</ele>
        <time>2018-09-20T12:34:35.000Z</time>
      </trkpt>
      <trkpt lat="46.71324" lon="-2.34139">
        <ele>21.7</ele>
        <time>2018-09-20T12:34:36.000Z</time>
      </trkpt>
      <trkpt lat="46.71325" lon="-2.34138">
        <ele>21.7</ele>
        <time>2018-09-20T12:34:37.000Z</time>
      </trkpt>
      <trkpt lat="46.71326" lon="-2.34137">
        <ele>21.7</ele>
        <time>2018-09-20T12:34:38.000Z</time>
      </trkpt>
      <trkpt lat="46.71327" lon="-2.34136">
        <ele>21.7</ele>
        <time>2018-09-20T12:34:39.000Z</time>
      </trkpt>
      <trkpt lat="46.71328" lon="-2.34136">
        <ele>21.7</ele>
        <time>2018-09-20T12:34:40.000Z</time>
      </trkpt>
      <trkpt lat="46.71329" lon="-2.34135">
        <ele>21.7</ele>
        <time>2018-09-20T12:34:41.000Z</time>
      </trkpt>
      <trkpt lat="46.71329" lon="-2.34134">
        <ele>21.6</ele>
        <time>2018-09-20T12:34:42.000Z</time>
      </trkpt>
      <trkpt lat="46.7133" lon="-2.34133">
        <ele>21.6</ele>
        <time>2018-09-20T12:34:43.000Z</time>
      </trkpt>
      <trkpt lat="46.71331" lon="-2.34132">
        <ele>21.6</ele>
        <time>2018-09-20T12:34:44.000Z</time>
      </trkpt>
      <trkpt lat="46.71332" lon="-2.34131">
        <ele>21.6</ele>
        <time>2018-09-20T12:34:45.000Z</time>
      </trkpt>
      <trkpt lat="46.71333" lon="-2.3413">
        <ele>21.6</ele>
        <time>2018-09-20T12:34:46.000Z</time>
      </trkpt>
      <trkpt lat="46.71334" lon="-2.3413">
        <ele>21.6</ele>
        <time>2018-09-20T12:34:47.000Z</time>
      </trkpt>
      <trkpt lat="46.71334" lon="-2.34129">
        <ele>21.5</ele>
        <time>2018-09-20T12:34:48.000Z</time>
      </trkpt>
      <trkpt lat="46.71335" lon="-2.34128">
        <ele>21.5</ele>
        <time>2018-09-20T12:34:49.000Z</time>
      </trkpt>
      <trkpt lat="46.71336" lon="-2.34127">
        <ele>21.5</ele>
        <time>2018-09-20T12:34:50.000Z</time>
      </trkpt>
      <trkpt lat="46.71337" lon="-2.34126">
        <ele>21.4</ele>
        <time>2018-09-20T12:34:51.000Z</time>
      </trkpt>
      <trkpt lat="46.71338" lon="-2.34126">
        <ele>21.4</ele>
        <time>2018-09-20T12:34:52.000Z</time>
      </trkpt>
      <trkpt lat="46.71339" lon="-2.34125">
        <ele>21.4</ele>
        <time>2018-09-20T12:34:53.000Z</time>
      </trkpt>
      <trkpt lat="46.7134" lon="-2.34124">
        <ele>21.4</ele>
        <time>2018-09-20T12:34:54.000Z</time>
      </trkpt>
      <trkpt lat="46.71341" lon="-2.34124">
        <ele>21.3</ele>
        <time>2018-09-20T12:34:55.000Z</time>
      </trkpt>
      <trkpt lat="46.71342" lon="-2.34123">
        <ele>21.3</ele>
        <time>2018-09-20T12:34:56.000Z</time>
      </trkpt>
      <trkpt lat="46.71343" lon="-2.34122">
        <ele>21.3</ele>
        <time>2018-09-20T12:34:57.000Z</time>
      </trkpt>
      <trkpt lat="46.71344" lon="-2.34122">
        <ele>21.3</ele>
        <time>2018-09-20T12:34:58.000Z</time>
      </trkpt>
      <trkpt lat="46.71345" lon="-2.34121">
        <ele>21.2</ele>
        <time>2018-09-20T12:34:59.000Z</time>
      </trkpt>
      <trkpt lat="46.71346" lon="-2.3412">
        <ele>21.2</ele>
        <time>2018-09-20T12:35:00.000Z</time>
      </trkpt>
      <trkpt lat="46.71348" lon="-2.3412">
        <ele>21.2</ele>
        <time>2018-09-20T12:35:01.000Z</time>
      </trkpt>
      <trkpt lat="46.71349" lon="-2.34119">
        <ele>21.1</ele>
        <time>2018-09-20T12:35:02.000Z</time>
      </trkpt>
      <trkpt lat="46.7135" lon="-2.34118">
        <ele>21.1</ele>
        <time>2018-09-20T12:35:03.000Z</time>
      </trkpt>
      <trkpt lat="46.71351" lon="-2.34118">
        <ele>21.1</ele>
        <time>2018-09-20T12:35:04.000Z</time>
      </trkpt>
      <trkpt lat="46.71352" lon="-2.34117">
        <ele>21</ele>
        <time>2018-09-20T12:35:05.000Z</time>
      </trkpt>
      <trkpt lat="46.71353" lon="-2.34116">
        <ele>21</ele>
        <time>2018-09-20T12:35:06.000Z</time>
      </trkpt>
      <trkpt lat="46.71355" lon="-2.34115">
        <ele>21</ele>
        <time>2018-09-20T12:35:07.000Z</time>
      </trkpt>
      <trkpt lat="46.71356" lon="-2.34114">
        <ele>20.9</ele>
        <time>2018-09-20T12:35:08.000Z</time>
      </trkpt>
      <trkpt lat="46.71357" lon="-2.34114">
        <ele>20.9</ele>
        <time>2018-09-20T12:35:09.000Z</time>
      </trkpt>
      <trkpt lat="46.71358" lon="-2.34113">
        <ele>20.9</ele>
        <time>2018-09-20T12:35:10.000Z</time>
      </trkpt>
      <trkpt lat="46.71359" lon="-2.34112">
        <ele>20.8</ele>
        <time>2018-09-20T12:35:11.000Z</time>
      </trkpt>
      <trkpt lat="46.7136" lon="-2.34111">
        <ele>20.8</ele>
        <time>2018-09-20T12:35:12.000Z</time>
      </trkpt>
      <trkpt lat="46.71361" lon="-2.34111">
        <ele>20.8</ele>
        <time>2018-09-20T12:35:13.000Z</time>
      </trkpt>
      <trkpt lat="46.71363" lon="-2.3411">
        <ele>20.7</ele>
        <time>2018-09-20T12:35:14.000Z</time>
      </trkpt>
      <trkpt lat="46.71364" lon="-2.34109">
        <ele>20.7</ele>
        <time>2018-09-20T12:35:15.000Z</time>
      </trkpt>
      <trkpt lat="46.71365" lon="-2.34109">
        <ele>20.7</ele>
        <time>2018-09-20T12:35:16.000Z</time>
      </trkpt>
      <trkpt lat="46.71366" lon="-2.34108">
        <ele>20.6</ele>
        <time>2018-09-20T12:35:17.000Z</time>
      </trkpt>
      <trkpt lat="46.71367" lon="-2.34107">
        <ele>20.6</ele>
        <time>2018-09-20T12:35:18.000Z</time>
      </trkpt>
      <trkpt lat="46.71368" lon="-2.34107">
        <ele>20.6</ele>
        <time>2018-09-20T12:35:19.000Z</time>
      </trkpt>
      <trkpt lat="46.71369" lon="-2.34106">
        <ele>20.5</ele>
        <time>2018-09-20T12:35:20.000Z</time>
      </trkpt>
      <trkpt lat="46.7137" lon="-2.34106">
        <ele>20.5</ele>
        <time>2018-09-20T12:35:21.000Z</time>
      </trkpt>
      <trkpt lat="46.71371" lon="-2.34106">
        <ele>20.5</ele>
        <time>2018-09-20T12:35:22.000Z</time>
      </trkpt>
      <trkpt lat="46.71372" lon="-2.34105">
        <ele>20.5</ele>
        <time>2018-09-20T12:35:23.000Z</time>
      </trkpt>
      <trkpt lat="46.71373" lon="-2.34105">
        <ele>20.4</ele>
        <time>2018-09-20T12:35:24.000Z</time>
      </trkpt>
      <trkpt lat="46.71374" lon="-2.34105">
        <ele>20.4</ele>
        <time>2018-09-20T12:35:25.000Z</time>
      </trkpt>
      <trkpt lat="46.71376" lon="-2.34104">
        <ele>20.4</ele>
        <time>2018-09-20T12:35:26.000Z</time>
      </trkpt>
      <trkpt lat="46.71377" lon="-2.34104">
        <ele>20.3</ele>
        <time>2018-09-20T12:35:27.000Z</time>
      </trkpt>
      <trkpt lat="46.71378" lon="-2.34104">
        <ele>20.3</ele>
        <time>2018-09-20T12:35:28.000Z</time>
      </trkpt>
      <trkpt lat="46.71379" lon="-2.34104">
        <ele>20.3</ele>
        <time>2018-09-20T12:35:29.000Z</time>
      </trkpt>
      <trkpt lat="46.7138" lon="-2.34103">
        <ele>20.2</ele>
        <time>2018-09-20T12:35:30.000Z</time>
      </trkpt>
      <trkpt lat="46.71382" lon="-2.34103">
        <ele>20.2</ele>
        <time>2018-09-20T12:35:31.000Z</time>
      </trkpt>
      <trkpt lat="46.71383" lon="-2.34103">
        <ele>20.2</ele>
        <time>2018-09-20T12:35:32.000Z</time>
      </trkpt>
      <trkpt lat="46.71384" lon="-2.34103">
        <ele>20.2</ele>
        <time>2018-09-20T12:35:33.000Z</time>
      </trkpt>
      <trkpt lat="46.71385" lon="-2.34103">
        <ele>20.1</ele>
        <time>2018-09-20T12:35:34.000Z</time>
      </trkpt>
      <trkpt lat="46.71386" lon="-2.34103">
        <ele>20.1</ele>
        <time>2018-09-20T12:35:35.000Z</time>
      </trkpt>
      <trkpt lat="46.71388" lon="-2.34103">
        <ele>20.1</ele>
        <time>2018-09-20T12:35:36.000Z</time>
      </trkpt>
      <trkpt lat="46.71389" lon="-2.34103">
        <ele>20.1</ele>
        <time>2018-09-20T12:35:37.000Z</time>
      </trkpt>
      <trkpt lat="46.7139" lon="-2.34103">
        <ele>20</ele>
        <time>2018-09-20T12:35:38.000Z</time>
      </trkpt>
      <trkpt lat="46.71391" lon="-2.34102">
        <ele>20</ele>
        <time>2018-09-20T12:35:39.000Z</time>
      </trkpt>
      <trkpt lat="46.71392" lon="-2.34102">
        <ele>20</ele>
        <time>2018-09-20T12:35:40.000Z</time>
      </trkpt>
      <trkpt lat="46.71393" lon="-2.34102">
        <ele>20</ele>
        <time>2018-09-20T12:35:41.000Z</time>
      </trkpt>
      <trkpt lat="46.71395" lon="-2.34102">
        <ele>19.9</ele>
        <time>2018-09-20T12:35:42.000Z</time>
      </trkpt>
      <trkpt lat="46.71396" lon="-2.34102">
        <ele>19.9</ele>
        <time>2018-09-20T12:35:43.000Z</time>
      </trkpt>
      <trkpt lat="46.71397" lon="-2.34102">
        <ele>19.9</ele>
        <time>2018-09-20T12:35:44.000Z</time>
      </trkpt>
      <trkpt lat="46.71398" lon="-2.34102">
        <ele>19.9</ele>
        <time>2018-09-20T12:35:45.000Z</time>
      </trkpt>
      <trkpt lat="46.71399" lon="-2.34102">
        <ele>19.8</ele>
        <time>2018-09-20T12:35:46.000Z</time>
      </trkpt>
      <trkpt lat="46.714" lon="-2.34102">
        <ele>19.8</ele>
        <time>2018-09-20T12:35:47.000Z</time>
      </trkpt>
      <trkpt lat="46.71402" lon="-2.34102">
        <ele>19.8</ele>
        <time>2018-09-20T12:35:48.000Z</time>
      </trkpt>
      <trkpt lat="46.71403" lon="-2.34102">
        <ele>19.8</ele>
        <time>2018-09-20T12:35:49.000Z</time>
      </trkpt>
      <trkpt lat="46.71404" lon="-2.34102">
        <ele>19.7</ele>
        <time>2018-09-20T12:35:50.000Z</time>
      </trkpt>
      <trkpt lat="46.71405" lon="-2.34102">
        <ele>19.7</ele>
        <time>2018-09-20T12:35:51.000Z</time>
      </trkpt>
      <trkpt lat="46.71406" lon="-2.34102">
        <ele>19.7</ele>
        <time>2018-09-20T12:35:52.000Z</time>
      </trkpt>
      <trkpt lat="46.71407" lon="-2.34102">
        <ele>19.7</ele>
        <time>2018-09-20T12:35:53.000Z</time>
      </trkpt>
      <trkpt lat="46.71408" lon="-2.34102">
        <ele>19.6</ele>
        <time>2018-09-20T12:35:54.000Z</time>
      </trkpt>
      <trkpt lat="46.71409" lon="-2.34102">
        <ele>19.6</ele>
        <time>2018-09-20T12:35:55.000Z</time>
      </trkpt>
      <trkpt lat="46.7141" lon="-2.34102">
        <ele>19.6</ele>
        <time>2018-09-20T12:35:56.000Z</time>
      </trkpt>
      <trkpt lat="46.71411" lon="-2.34102">
        <ele>19.6</ele>
        <time>2018-09-20T12:35:57.000Z</time>
      </trkpt>
      <trkpt lat="46.71412" lon="-2.34101">
        <ele>19.5</ele>
        <time>2018-09-20T12:35:58.000Z</time>
      </trkpt>
      <trkpt lat="46.71413" lon="-2.34101">
        <ele>19.5</ele>
        <time>2018-09-20T12:35:59.000Z</time>
      </trkpt>
      <trkpt lat="46.71414" lon="-2.34101">
        <ele>19.5</ele>
        <time>2018-09-20T12:36:00.000Z</time>
      </trkpt>
      <trkpt lat="46.71415" lon="-2.34101">
        <ele>19.5</ele>
        <time>2018-09-20T12:36:01.000Z</time>
      </trkpt>
      <trkpt lat="46.71416" lon="-2.341">
        <ele>19.4</ele>
        <time>2018-09-20T12:36:02.000Z</time>
      </trkpt>
      <trkpt lat="46.71417" lon="-2.341">
        <ele>19.4</ele>
        <time>2018-09-20T12:36:03.000Z</time>
      </trkpt>
      <trkpt lat="46.71417" lon="-2.341">
        <ele>19.4</ele>
        <time>2018-09-20T12:36:04.000Z</time>
      </trkpt>
      <trkpt lat="46.71418" lon="-2.34099">
        <ele>19.4</ele>
        <time>2018-09-20T12:36:05.000Z</time>
      </trkpt>
      <trkpt lat="46.71419" lon="-2.34099">
        <ele>19.4</ele>
        <time>2018-09-20T12:36:06.000Z</time>
      </trkpt>
      <trkpt lat="46.7142" lon="-2.34099">
        <ele>19.4</ele>
        <time>2018-09-20T12:36:07.000Z</time>
      </trkpt>
      <trkpt lat="46.71421" lon="-2.34098">
        <ele>19.4</ele>
        <time>2018-09-20T12:36:08.000Z</time>
      </trkpt>
      <trkpt lat="46.71422" lon="-2.34098">
        <ele>19.4</ele>
        <time>2018-09-20T12:36:09.000Z</time>
      </trkpt>
      <trkpt lat="46.71422" lon="-2.34098">
        <ele>19.4</ele>
        <time>2018-09-20T12:36:10.000Z</time>
      </trkpt>
      <trkpt lat="46.71423" lon="-2.34098">
        <ele>19.4</ele>
        <time>2018-09-20T12:36:11.000Z</time>
      </trkpt>
      <trkpt lat="46.71424" lon="-2.34098">
        <ele>19.4</ele>
        <time>2018-09-20T12:36:12.000Z</time>
      </trkpt>
      <trkpt lat="46.71426" lon="-2.34098">
        <ele>19.4</ele>
        <time>2018-09-20T12:36:13.000Z</time>
      </trkpt>
      <trkpt lat="46.71427" lon="-2.34098">
        <ele>19.4</ele>
        <time>2018-09-20T12:36:14.000Z</time>
      </trkpt>
      <trkpt lat="46.71428" lon="-2.34097">
        <ele>19.4</ele>
        <time>2018-09-20T12:36:15.000Z</time>
      </trkpt>
      <trkpt lat="46.71429" lon="-2.34097">
        <ele>19.4</ele>
        <time>2018-09-20T12:36:16.000Z</time>
      </trkpt>
      <trkpt lat="46.7143" lon="-2.34097">
        <ele>19.4</ele>
        <time>2018-09-20T12:36:17.000Z</time>
      </trkpt>
      <trkpt lat="46.71431" lon="-2.34097">
        <ele>19.4</ele>
        <time>2018-09-20T12:36:18.000Z</time>
      </trkpt>
      <trkpt lat="46.71432" lon="-2.34097">
        <ele>19.4</ele>
        <time>2018-09-20T12:36:19.000Z</time>
      </trkpt>
      <trkpt lat="46.71433" lon="-2.34096">
        <ele>19.4</ele>
        <time>2018-09-20T12:36:20.000Z</time>
      </trkpt>
      <trkpt lat="46.71434" lon="-2.34096">
        <ele>19.4</ele>
        <time>2018-09-20T12:36:21.000Z</time>
      </trkpt>
      <trkpt lat="46.71435" lon="-2.34095">
        <ele>19.4</ele>
        <time>2018-09-20T12:36:22.000Z</time>
      </trkpt>
      <trkpt lat="46.71436" lon="-2.34095">
        <ele>19.4</ele>
        <time>2018-09-20T12:36:23.000Z</time>
      </trkpt>
      <trkpt lat="46.71437" lon="-2.34095">
        <ele>19.4</ele>
        <time>2018-09-20T12:36:24.000Z</time>
      </trkpt>
      <trkpt lat="46.71438" lon="-2.34094">
        <ele>19.4</ele>
        <time>2018-09-20T12:36:25.000Z</time>
      </trkpt>
      <trkpt lat="46.71438" lon="-2.34094">
        <ele>19.4</ele>
        <time>2018-09-20T12:36:26.000Z</time>
      </trkpt>
      <trkpt lat="46.71439" lon="-2.34094">
        <ele>19.4</ele>
        <time>2018-09-20T12:36:27.000Z</time>
      </trkpt>
      <trkpt lat="46.71439" lon="-2.34093">
        <ele>19.4</ele>
        <time>2018-09-20T12:36:28.000Z</time>
      </trkpt>
      <trkpt lat="46.71439" lon="-2.34093">
        <ele>19.4</ele>
        <time>2018-09-20T12:36:29.000Z</time>
      </trkpt>
      <trkpt lat="46.7144" lon="-2.34093">
        <ele>19.4</ele>
        <time>2018-09-20T12:36:30.000Z</time>
      </trkpt>
      <trkpt lat="46.71441" lon="-2.34093">
        <ele>19.5</ele>
        <time>2018-09-20T12:36:31.000Z</time>
      </trkpt>
      <trkpt lat="46.71442" lon="-2.34093">
        <ele>19.5</ele>
        <time>2018-09-20T12:36:32.000Z</time>
      </trkpt>
      <trkpt lat="46.71443" lon="-2.34092">
        <ele>19.5</ele>
        <time>2018-09-20T12:36:33.000Z</time>
      </trkpt>
      <trkpt lat="46.71444" lon="-2.34092">
        <ele>19.5</ele>
        <time>2018-09-20T12:36:34.000Z</time>
      </trkpt>
      <trkpt lat="46.71444" lon="-2.34092">
        <ele>19.5</ele>
        <time>2018-09-20T12:36:35.000Z</time>
      </trkpt>
      <trkpt lat="46.71445" lon="-2.34092">
        <ele>19.5</ele>
        <time>2018-09-20T12:36:36.000Z</time>
      </trkpt>
      <trkpt lat="46.71446" lon="-2.34092">
        <ele>19.5</ele>
        <time>2018-09-20T12:36:37.000Z</time>
      </trkpt>
      <trkpt lat="46.71446" lon="-2.34092">
        <ele>19.5</ele>
        <time>2018-09-20T12:36:38.000Z</time>
      </trkpt>
      <trkpt lat="46.71446" lon="-2.34092">
        <ele>19.5</ele>
        <time>2018-09-20T12:36:39.000Z</time>
      </trkpt>
      <trkpt lat="46.71446" lon="-2.34092">
        <ele>19.5</ele>
        <time>2018-09-20T12:36:40.000Z</time>
      </trkpt>
      <trkpt lat="46.71447" lon="-2.34091">
        <ele>19.5</ele>
        <time>2018-09-20T12:36:41.000Z</time>
      </trkpt>
      <trkpt lat="46.71447" lon="-2.34091">
        <ele>19.5</ele>
        <time>2018-09-20T12:36:42.000Z</time>
      </trkpt>
      <trkpt lat="46.71448" lon="-2.34091">
        <ele>19.5</ele>
        <time>2018-09-20T12:36:43.000Z</time>
      </trkpt>
      <trkpt lat="46.71448" lon="-2.34091">
        <ele>19.5</ele>
        <time>2018-09-20T12:36:44.000Z</time>
      </trkpt>
      <trkpt lat="46.71449" lon="-2.34091">
        <ele>19.5</ele>
        <time>2018-09-20T12:36:45.000Z</time>
      </trkpt>
      <trkpt lat="46.7145" lon="-2.34091">
        <ele>19.5</ele>
        <time>2018-09-20T12:36:46.000Z</time>
      </trkpt>
      <trkpt lat="46.71451" lon="-2.3409">
        <ele>19.5</ele>
        <time>2018-09-20T12:36:47.000Z</time>
      </trkpt>
      <trkpt lat="46.71452" lon="-2.3409">
        <ele>19.5</ele>
        <time>2018-09-20T12:36:48.000Z</time>
      </trkpt>
      <trkpt lat="46.71454" lon="-2.3409">
        <ele>19.5</ele>
        <time>2018-09-20T12:36:49.000Z</time>
      </trkpt>
      <trkpt lat="46.71455" lon="-2.3409">
        <ele>19.5</ele>
        <time>2018-09-20T12:36:50.000Z</time>
      </trkpt>
      <trkpt lat="46.71456" lon="-2.34089">
        <ele>19.5</ele>
        <time>2018-09-20T12:36:51.000Z</time>
      </trkpt>
      <trkpt lat="46.71457" lon="-2.34089">
        <ele>19.6</ele>
        <time>2018-09-20T12:36:52.000Z</time>
      </trkpt>
      <trkpt lat="46.71459" lon="-2.34089">
        <ele>19.6</ele>
        <time>2018-09-20T12:36:53.000Z</time>
      </trkpt>
      <trkpt lat="46.7146" lon="-2.34089">
        <ele>19.6</ele>
        <time>2018-09-20T12:36:54.000Z</time>
      </trkpt>
      <trkpt lat="46.71461" lon="-2.34088">
        <ele>19.6</ele>
        <time>2018-09-20T12:36:55.000Z</time>
      </trkpt>
      <trkpt lat="46.71463" lon="-2.34088">
        <ele>19.6</ele>
        <time>2018-09-20T12:36:56.000Z</time>
      </trkpt>
      <trkpt lat="46.71464" lon="-2.34088">
        <ele>19.6</ele>
        <time>2018-09-20T12:36:57.000Z</time>
      </trkpt>
      <trkpt lat="46.71466" lon="-2.34088">
        <ele>19.6</ele>
        <time>2018-09-20T12:36:58.000Z</time>
      </trkpt>
      <trkpt lat="46.71467" lon="-2.34088">
        <ele>19.6</ele>
        <time>2018-09-20T12:36:59.000Z</time>
      </trkpt>
      <trkpt lat="46.71468" lon="-2.34087">
        <ele>19.7</ele>
        <time>2018-09-20T12:37:00.000Z</time>
      </trkpt>
      <trkpt lat="46.7147" lon="-2.34087">
        <ele>19.7</ele>
        <time>2018-09-20T12:37:01.000Z</time>
      </trkpt>
      <trkpt lat="46.71471" lon="-2.34087">
        <ele>19.7</ele>
        <time>2018-09-20T12:37:02.000Z</time>
      </trkpt>
      <trkpt lat="46.71472" lon="-2.34087">
        <ele>19.7</ele>
        <time>2018-09-20T12:37:03.000Z</time>
      </trkpt>
      <trkpt lat="46.71473" lon="-2.34087">
        <ele>19.7</ele>
        <time>2018-09-20T12:37:04.000Z</time>
      </trkpt>
      <trkpt lat="46.71474" lon="-2.34086">
        <ele>19.7</ele>
        <time>2018-09-20T12:37:05.000Z</time>
      </trkpt>
      <trkpt lat="46.71476" lon="-2.34086">
        <ele>19.7</ele>
        <time>2018-09-20T12:37:06.000Z</time>
      </trkpt>
      <trkpt lat="46.71477" lon="-2.34086">
        <ele>19.7</ele>
        <time>2018-09-20T12:37:07.000Z</time>
      </trkpt>
      <trkpt lat="46.71478" lon="-2.34086">
        <ele>19.7</ele>
        <time>2018-09-20T12:37:08.000Z</time>
      </trkpt>
      <trkpt lat="46.71479" lon="-2.34086">
        <ele>19.8</ele>
        <time>2018-09-20T12:37:09.000Z</time>
      </trkpt>
      <trkpt lat="46.7148" lon="-2.34085">
        <ele>19.8</ele>
        <time>2018-09-20T12:37:10.000Z</time>
      </trkpt>
      <trkpt lat="46.71481" lon="-2.34085">
        <ele>19.8</ele>
        <time>2018-09-20T12:37:11.000Z</time>
      </trkpt>
      <trkpt lat="46.71482" lon="-2.34085">
        <ele>19.8</ele>
        <time>2018-09-20T12:37:12.000Z</time>
      </trkpt>
      <trkpt lat="46.71483" lon="-2.34084">
        <ele>19.8</ele>
        <time>2018-09-20T12:37:13.000Z</time>
      </trkpt>
      <trkpt lat="46.71484" lon="-2.34084">
        <ele>19.8</ele>
        <time>2018-09-20T12:37:14.000Z</time>
      </trkpt>
      <trkpt lat="46.71485" lon="-2.34083">
        <ele>19.8</ele>
        <time>2018-09-20T12:37:15.000Z</time>
      </trkpt>
      <trkpt lat="46.71487" lon="-2.34083">
        <ele>19.8</ele>
        <time>2018-09-20T12:37:16.000Z</time>
      </trkpt>
      <trkpt lat="46.71488" lon="-2.34082">
        <ele>19.9</ele>
        <time>2018-09-20T12:37:17.000Z</time>
      </trkpt>
      <trkpt lat="46.71489" lon="-2.34082">
        <ele>19.9</ele>
        <time>2018-09-20T12:37:18.000Z</time>
      </trkpt>
      <trkpt lat="46.7149" lon="-2.34082">
        <ele>19.9</ele>
        <time>2018-09-20T12:37:19.000Z</time>
      </trkpt>
      <trkpt lat="46.71492" lon="-2.34081">
        <ele>19.9</ele>
        <time>2018-09-20T12:37:20.000Z</time>
      </trkpt>
      <trkpt lat="46.71493" lon="-2.34081">
        <ele>19.9</ele>
        <time>2018-09-20T12:37:21.000Z</time>
      </trkpt>
      <trkpt lat="46.71494" lon="-2.34081">
        <ele>19.9</ele>
        <time>2018-09-20T12:37:22.000Z</time>
      </trkpt>
      <trkpt lat="46.71496" lon="-2.34081">
        <ele>20</ele>
        <time>2018-09-20T12:37:23.000Z</time>
      </trkpt>
      <trkpt lat="46.71497" lon="-2.34082">
        <ele>20</ele>
        <time>2018-09-20T12:37:24.000Z</time>
      </trkpt>
      <trkpt lat="46.71499" lon="-2.34082">
        <ele>20</ele>
        <time>2018-09-20T12:37:25.000Z</time>
      </trkpt>
      <trkpt lat="46.715" lon="-2.34082">
        <ele>20</ele>
        <time>2018-09-20T12:37:26.000Z</time>
      </trkpt>
      <trkpt lat="46.71501" lon="-2.34081">
        <ele>20</ele>
        <time>2018-09-20T12:37:27.000Z</time>
      </trkpt>
      <trkpt lat="46.71503" lon="-2.34081">
        <ele>19.9</ele>
        <time>2018-09-20T12:37:28.000Z</time>
      </trkpt>
      <trkpt lat="46.71504" lon="-2.34081">
        <ele>19.9</ele>
        <time>2018-09-20T12:37:29.000Z</time>
      </trkpt>
      <trkpt lat="46.71505" lon="-2.34081">
        <ele>19.9</ele>
        <time>2018-09-20T12:37:30.000Z</time>
      </trkpt>
      <trkpt lat="46.71506" lon="-2.3408">
        <ele>19.9</ele>
        <time>2018-09-20T12:37:31.000Z</time>
      </trkpt>
      <trkpt lat="46.71507" lon="-2.3408">
        <ele>19.8</ele>
        <time>2018-09-20T12:37:32.000Z</time>
      </trkpt>
      <trkpt lat="46.71509" lon="-2.34079">
        <ele>19.8</ele>
        <time>2018-09-20T12:37:33.000Z</time>
      </trkpt>
      <trkpt lat="46.7151" lon="-2.34079">
        <ele>19.8</ele>
        <time>2018-09-20T12:37:34.000Z</time>
      </trkpt>
      <trkpt lat="46.71511" lon="-2.34079">
        <ele>19.7</ele>
        <time>2018-09-20T12:37:35.000Z</time>
      </trkpt>
      <trkpt lat="46.71512" lon="-2.34079">
        <ele>19.7</ele>
        <time>2018-09-20T12:37:36.000Z</time>
      </trkpt>
      <trkpt lat="46.71513" lon="-2.34078">
        <ele>19.7</ele>
        <time>2018-09-20T12:37:37.000Z</time>
      </trkpt>
      <trkpt lat="46.71514" lon="-2.34078">
        <ele>19.7</ele>
        <time>2018-09-20T12:37:38.000Z</time>
      </trkpt>
      <trkpt lat="46.71515" lon="-2.34078">
        <ele>19.6</ele>
        <time>2018-09-20T12:37:39.000Z</time>
      </trkpt>
      <trkpt lat="46.71516" lon="-2.34078">
        <ele>19.6</ele>
        <time>2018-09-20T12:37:40.000Z</time>
      </trkpt>
      <trkpt lat="46.71517" lon="-2.34078">
        <ele>19.6</ele>
        <time>2018-09-20T12:37:41.000Z</time>
      </trkpt>
      <trkpt lat="46.71519" lon="-2.34078">
        <ele>19.6</ele>
        <time>2018-09-20T12:37:42.000Z</time>
      </trkpt>
      <trkpt lat="46.7152" lon="-2.34078">
        <ele>19.5</ele>
        <time>2018-09-20T12:37:43.000Z</time>
      </trkpt>
      <trkpt lat="46.71521" lon="-2.34078">
        <ele>19.5</ele>
        <time>2018-09-20T12:37:44.000Z</time>
      </trkpt>
      <trkpt lat="46.71522" lon="-2.34078">
        <ele>19.5</ele>
        <time>2018-09-20T12:37:45.000Z</time>
      </trkpt>
      <trkpt lat="46.71523" lon="-2.34078">
        <ele>19.5</ele>
        <time>2018-09-20T12:37:46.000Z</time>
      </trkpt>
      <trkpt lat="46.71524" lon="-2.34078">
        <ele>19.4</ele>
        <time>2018-09-20T12:37:47.000Z</time>
      </trkpt>
      <trkpt lat="46.71525" lon="-2.34078">
        <ele>19.4</ele>
        <time>2018-09-20T12:37:48.000Z</time>
      </trkpt>
      <trkpt lat="46.71526" lon="-2.34078">
        <ele>19.4</ele>
        <time>2018-09-20T12:37:49.000Z</time>
      </trkpt>
      <trkpt lat="46.71527" lon="-2.34078">
        <ele>19.3</ele>
        <time>2018-09-20T12:37:50.000Z</time>
      </trkpt>
      <trkpt lat="46.71528" lon="-2.34078">
        <ele>19.3</ele>
        <time>2018-09-20T12:37:51.000Z</time>
      </trkpt>
      <trkpt lat="46.71529" lon="-2.34078">
        <ele>19.3</ele>
        <time>2018-09-20T12:37:52.000Z</time>
      </trkpt>
      <trkpt lat="46.7153" lon="-2.34078">
        <ele>19.3</ele>
        <time>2018-09-20T12:37:53.000Z</time>
      </trkpt>
      <trkpt lat="46.71532" lon="-2.34078">
        <ele>19.2</ele>
        <time>2018-09-20T12:37:54.000Z</time>
      </trkpt>
      <trkpt lat="46.71533" lon="-2.34078">
        <ele>19.2</ele>
        <time>2018-09-20T12:37:55.000Z</time>
      </trkpt>
      <trkpt lat="46.71534" lon="-2.34078">
        <ele>19.2</ele>
        <time>2018-09-20T12:37:56.000Z</time>
      </trkpt>
      <trkpt lat="46.71535" lon="-2.34078">
        <ele>19.2</ele>
        <time>2018-09-20T12:37:57.000Z</time>
      </trkpt>
      <trkpt lat="46.71536" lon="-2.34078">
        <ele>19.1</ele>
        <time>2018-09-20T12:37:58.000Z</time>
      </trkpt>
      <trkpt lat="46.71537" lon="-2.34078">
        <ele>19.1</ele>
        <time>2018-09-20T12:37:59.000Z</time>
      </trkpt>
      <trkpt lat="46.71538" lon="-2.34078">
        <ele>19.1</ele>
        <time>2018-09-20T12:38:00.000Z</time>
      </trkpt>
      <trkpt lat="46.7154" lon="-2.34077">
        <ele>19.1</ele>
        <time>2018-09-20T12:38:01.000Z</time>
      </trkpt>
      <trkpt lat="46.71541" lon="-2.34077">
        <ele>19</ele>
        <time>2018-09-20T12:38:02.000Z</time>
      </trkpt>
      <trkpt lat="46.71542" lon="-2.34077">
        <ele>19</ele>
        <time>2018-09-20T12:38:03.000Z</time>
      </trkpt>
      <trkpt lat="46.71543" lon="-2.34077">
        <ele>19</ele>
        <time>2018-09-20T12:38:04.000Z</time>
      </trkpt>
      <trkpt lat="46.71544" lon="-2.34077">
        <ele>18.9</ele>
        <time>2018-09-20T12:38:05.000Z</time>
      </trkpt>
      <trkpt lat="46.71545" lon="-2.34077">
        <ele>18.9</ele>
        <time>2018-09-20T12:38:06.000Z</time>
      </trkpt>
      <trkpt lat="46.71546" lon="-2.34077">
        <ele>18.9</ele>
        <time>2018-09-20T12:38:07.000Z</time>
      </trkpt>
      <trkpt lat="46.71547" lon="-2.34077">
        <ele>18.9</ele>
        <time>2018-09-20T12:38:08.000Z</time>
      </trkpt>
      <trkpt lat="46.71548" lon="-2.34077">
        <ele>18.8</ele>
        <time>2018-09-20T12:38:09.000Z</time>
      </trkpt>
      <trkpt lat="46.71549" lon="-2.34077">
        <ele>18.8</ele>
        <time>2018-09-20T12:38:10.000Z</time>
      </trkpt>
      <trkpt lat="46.7155" lon="-2.34078">
        <ele>18.8</ele>
        <time>2018-09-20T12:38:11.000Z</time>
      </trkpt>
      <trkpt lat="46.71551" lon="-2.34078">
        <ele>18.8</ele>
        <time>2018-09-20T12:38:12.000Z</time>
      </trkpt>
      <trkpt lat="46.71552" lon="-2.34078">
        <ele>18.8</ele>
        <time>2018-09-20T12:38:13.000Z</time>
      </trkpt>
      <trkpt lat="46.71553" lon="-2.34078">
        <ele>18.7</ele>
        <time>2018-09-20T12:38:14.000Z</time>
      </trkpt>
      <trkpt lat="46.71554" lon="-2.34078">
        <ele>18.7</ele>
        <time>2018-09-20T12:38:15.000Z</time>
      </trkpt>
      <trkpt lat="46.71555" lon="-2.34078">
        <ele>18.7</ele>
        <time>2018-09-20T12:38:16.000Z</time>
      </trkpt>
      <trkpt lat="46.71556" lon="-2.34078">
        <ele>18.7</ele>
        <time>2018-09-20T12:38:17.000Z</time>
      </trkpt>
      <trkpt lat="46.71557" lon="-2.34078">
        <ele>18.6</ele>
        <time>2018-09-20T12:38:18.000Z</time>
      </trkpt>
      <trkpt lat="46.71558" lon="-2.34077">
        <ele>18.6</ele>
        <time>2018-09-20T12:38:19.000Z</time>
      </trkpt>
      <trkpt lat="46.71559" lon="-2.34077">
        <ele>18.6</ele>
        <time>2018-09-20T12:38:20.000Z</time>
      </trkpt>
      <trkpt lat="46.7156" lon="-2.34076">
        <ele>18.6</ele>
        <time>2018-09-20T12:38:21.000Z</time>
      </trkpt>
      <trkpt lat="46.71562" lon="-2.34076">
        <ele>18.5</ele>
        <time>2018-09-20T12:38:22.000Z</time>
      </trkpt>
      <trkpt lat="46.71563" lon="-2.34075">
        <ele>18.5</ele>
        <time>2018-09-20T12:38:23.000Z</time>
      </trkpt>
      <trkpt lat="46.71565" lon="-2.34074">
        <ele>18.5</ele>
        <time>2018-09-20T12:38:24.000Z</time>
      </trkpt>
      <trkpt lat="46.71566" lon="-2.34073">
        <ele>18.4</ele>
        <time>2018-09-20T12:38:25.000Z</time>
      </trkpt>
      <trkpt lat="46.71567" lon="-2.34072">
        <ele>18.4</ele>
        <time>2018-09-20T12:38:26.000Z</time>
      </trkpt>
      <trkpt lat="46.71569" lon="-2.34071">
        <ele>18.4</ele>
        <time>2018-09-20T12:38:27.000Z</time>
      </trkpt>
      <trkpt lat="46.7157" lon="-2.3407">
        <ele>18.3</ele>
        <time>2018-09-20T12:38:28.000Z</time>
      </trkpt>
      <trkpt lat="46.71571" lon="-2.34069">
        <ele>18.3</ele>
        <time>2018-09-20T12:38:29.000Z</time>
      </trkpt>
      <trkpt lat="46.71572" lon="-2.34068">
        <ele>18.3</ele>
        <time>2018-09-20T12:38:30.000Z</time>
      </trkpt>
      <trkpt lat="46.71573" lon="-2.34067">
        <ele>18.2</ele>
        <time>2018-09-20T12:38:31.000Z</time>
      </trkpt>
      <trkpt lat="46.71574" lon="-2.34066">
        <ele>18.2</ele>
        <time>2018-09-20T12:38:32.000Z</time>
      </trkpt>
      <trkpt lat="46.71575" lon="-2.34064">
        <ele>18.2</ele>
        <time>2018-09-20T12:38:33.000Z</time>
      </trkpt>
      <trkpt lat="46.71576" lon="-2.34063">
        <ele>18.2</ele>
        <time>2018-09-20T12:38:34.000Z</time>
      </trkpt>
      <trkpt lat="46.71577" lon="-2.34062">
        <ele>18.2</ele>
        <time>2018-09-20T12:38:35.000Z</time>
      </trkpt>
      <trkpt lat="46.71578" lon="-2.34061">
        <ele>18.1</ele>
        <time>2018-09-20T12:38:36.000Z</time>
      </trkpt>
      <trkpt lat="46.71579" lon="-2.3406">
        <ele>18.1</ele>
        <time>2018-09-20T12:38:37.000Z</time>
      </trkpt>
      <trkpt lat="46.7158" lon="-2.34059">
        <ele>18.1</ele>
        <time>2018-09-20T12:38:38.000Z</time>
      </trkpt>
      <trkpt lat="46.71581" lon="-2.34058">
        <ele>18.1</ele>
        <time>2018-09-20T12:38:39.000Z</time>
      </trkpt>
      <trkpt lat="46.71582" lon="-2.34057">
        <ele>18</ele>
        <time>2018-09-20T12:38:40.000Z</time>
      </trkpt>
      <trkpt lat="46.71583" lon="-2.34056">
        <ele>18</ele>
        <time>2018-09-20T12:38:41.000Z</time>
      </trkpt>
      <trkpt lat="46.71584" lon="-2.34055">
        <ele>18</ele>
        <time>2018-09-20T12:38:42.000Z</time>
      </trkpt>
      <trkpt lat="46.71585" lon="-2.34054">
        <ele>18</ele>
        <time>2018-09-20T12:38:43.000Z</time>
      </trkpt>
      <trkpt lat="46.71585" lon="-2.34053">
        <ele>18</ele>
        <time>2018-09-20T12:38:44.000Z</time>
      </trkpt>
      <trkpt lat="46.71586" lon="-2.34052">
        <ele>17.9</ele>
        <time>2018-09-20T12:38:45.000Z</time>
      </trkpt>
      <trkpt lat="46.71587" lon="-2.34051">
        <ele>17.9</ele>
        <time>2018-09-20T12:38:46.000Z</time>
      </trkpt>
      <trkpt lat="46.71588" lon="-2.34049">
        <ele>17.9</ele>
        <time>2018-09-20T12:38:47.000Z</time>
      </trkpt>
      <trkpt lat="46.71589" lon="-2.34048">
        <ele>17.9</ele>
        <time>2018-09-20T12:38:48.000Z</time>
      </trkpt>
      <trkpt lat="46.71589" lon="-2.34047">
        <ele>17.9</ele>
        <time>2018-09-20T12:38:49.000Z</time>
      </trkpt>
      <trkpt lat="46.7159" lon="-2.34046">
        <ele>17.8</ele>
        <time>2018-09-20T12:38:50.000Z</time>
      </trkpt>
      <trkpt lat="46.71591" lon="-2.34044">
        <ele>17.8</ele>
        <time>2018-09-20T12:38:51.000Z</time>
      </trkpt>
      <trkpt lat="46.71591" lon="-2.34043">
        <ele>17.8</ele>
        <time>2018-09-20T12:38:52.000Z</time>
      </trkpt>
      <trkpt lat="46.71592" lon="-2.34042">
        <ele>17.8</ele>
        <time>2018-09-20T12:38:53.000Z</time>
      </trkpt>
      <trkpt lat="46.71593" lon="-2.34041">
        <ele>17.8</ele>
        <time>2018-09-20T12:38:54.000Z</time>
      </trkpt>
      <trkpt lat="46.71593" lon="-2.34039">
        <ele>17.8</ele>
        <time>2018-09-20T12:38:55.000Z</time>
      </trkpt>
      <trkpt lat="46.71594" lon="-2.34038">
        <ele>17.7</ele>
        <time>2018-09-20T12:38:56.000Z</time>
      </trkpt>
      <trkpt lat="46.71595" lon="-2.34037">
        <ele>17.7</ele>
        <time>2018-09-20T12:38:57.000Z</time>
      </trkpt>
      <trkpt lat="46.71595" lon="-2.34035">
        <ele>17.7</ele>
        <time>2018-09-20T12:38:58.000Z</time>
      </trkpt>
      <trkpt lat="46.71596" lon="-2.34034">
        <ele>17.7</ele>
        <time>2018-09-20T12:38:59.000Z</time>
      </trkpt>
      <trkpt lat="46.71596" lon="-2.34033">
        <ele>17.7</ele>
        <time>2018-09-20T12:39:00.000Z</time>
      </trkpt>
      <trkpt lat="46.71597" lon="-2.34031">
        <ele>17.6</ele>
        <time>2018-09-20T12:39:01.000Z</time>
      </trkpt>
      <trkpt lat="46.71598" lon="-2.3403">
        <ele>17.6</ele>
        <time>2018-09-20T12:39:02.000Z</time>
      </trkpt>
      <trkpt lat="46.71598" lon="-2.34029">
        <ele>17.6</ele>
        <time>2018-09-20T12:39:03.000Z</time>
      </trkpt>
      <trkpt lat="46.71599" lon="-2.34027">
        <ele>17.6</ele>
        <time>2018-09-20T12:39:04.000Z</time>
      </trkpt>
      <trkpt lat="46.716" lon="-2.34026">
        <ele>17.5</ele>
        <time>2018-09-20T12:39:05.000Z</time>
      </trkpt>
      <trkpt lat="46.71601" lon="-2.34025">
        <ele>17.5</ele>
        <time>2018-09-20T12:39:06.000Z</time>
      </trkpt>
      <trkpt lat="46.71601" lon="-2.34023">
        <ele>17.5</ele>
        <time>2018-09-20T12:39:07.000Z</time>
      </trkpt>
      <trkpt lat="46.71602" lon="-2.34022">
        <ele>17.4</ele>
        <time>2018-09-20T12:39:08.000Z</time>
      </trkpt>
      <trkpt lat="46.71603" lon="-2.34021">
        <ele>17.4</ele>
        <time>2018-09-20T12:39:09.000Z</time>
      </trkpt>
      <trkpt lat="46.71604" lon="-2.3402">
        <ele>17.4</ele>
        <time>2018-09-20T12:39:10.000Z</time>
      </trkpt>
      <trkpt lat="46.71605" lon="-2.34018">
        <ele>17.3</ele>
        <time>2018-09-20T12:39:11.000Z</time>
      </trkpt>
      <trkpt lat="46.71605" lon="-2.34017">
        <ele>17.3</ele>
        <time>2018-09-20T12:39:12.000Z</time>
      </trkpt>
      <trkpt lat="46.71606" lon="-2.34016">
        <ele>17.3</ele>
        <time>2018-09-20T12:39:13.000Z</time>
      </trkpt>
      <trkpt lat="46.71607" lon="-2.34015">
        <ele>17.2</ele>
        <time>2018-09-20T12:39:14.000Z</time>
      </trkpt>
      <trkpt lat="46.71608" lon="-2.34014">
        <ele>17.2</ele>
        <time>2018-09-20T12:39:15.000Z</time>
      </trkpt>
      <trkpt lat="46.71609" lon="-2.34013">
        <ele>17.2</ele>
        <time>2018-09-20T12:39:16.000Z</time>
      </trkpt>
      <trkpt lat="46.7161" lon="-2.34012">
        <ele>17.1</ele>
        <time>2018-09-20T12:39:17.000Z</time>
      </trkpt>
      <trkpt lat="46.71611" lon="-2.34011">
        <ele>17.1</ele>
        <time>2018-09-20T12:39:18.000Z</time>
      </trkpt>
      <trkpt lat="46.71611" lon="-2.3401">
        <ele>17.1</ele>
        <time>2018-09-20T12:39:19.000Z</time>
      </trkpt>
      <trkpt lat="46.71612" lon="-2.3401">
        <ele>17</ele>
        <time>2018-09-20T12:39:20.000Z</time>
      </trkpt>
      <trkpt lat="46.71613" lon="-2.34009">
        <ele>17</ele>
        <time>2018-09-20T12:39:21.000Z</time>
      </trkpt>
      <trkpt lat="46.71614" lon="-2.34008">
        <ele>17</ele>
        <time>2018-09-20T12:39:22.000Z</time>
      </trkpt>
      <trkpt lat="46.71615" lon="-2.34007">
        <ele>16.9</ele>
        <time>2018-09-20T12:39:23.000Z</time>
      </trkpt>
      <trkpt lat="46.71616" lon="-2.34006">
        <ele>16.9</ele>
        <time>2018-09-20T12:39:24.000Z</time>
      </trkpt>
      <trkpt lat="46.71616" lon="-2.34005">
        <ele>16.9</ele>
        <time>2018-09-20T12:39:25.000Z</time>
      </trkpt>
      <trkpt lat="46.71617" lon="-2.34004">
        <ele>16.8</ele>
        <time>2018-09-20T12:39:26.000Z</time>
      </trkpt>
      <trkpt lat="46.71618" lon="-2.34003">
        <ele>16.8</ele>
        <time>2018-09-20T12:39:27.000Z</time>
      </trkpt>
      <trkpt lat="46.71619" lon="-2.34002">
        <ele>16.7</ele>
        <time>2018-09-20T12:39:28.000Z</time>
      </trkpt>
      <trkpt lat="46.7162" lon="-2.34001">
        <ele>16.7</ele>
        <time>2018-09-20T12:39:29.000Z</time>
      </trkpt>
      <trkpt lat="46.71621" lon="-2.34">
        <ele>16.7</ele>
        <time>2018-09-20T12:39:30.000Z</time>
      </trkpt>
      <trkpt lat="46.71621" lon="-2.33999">
        <ele>16.6</ele>
        <time>2018-09-20T12:39:31.000Z</time>
      </trkpt>
      <trkpt lat="46.71622" lon="-2.33998">
        <ele>16.5</ele>
        <time>2018-09-20T12:39:32.000Z</time>
      </trkpt>
      <trkpt lat="46.71623" lon="-2.33997">
        <ele>16.5</ele>
        <time>2018-09-20T12:39:33.000Z</time>
      </trkpt>
      <trkpt lat="46.71624" lon="-2.33996">
        <ele>16.4</ele>
        <time>2018-09-20T12:39:34.000Z</time>
      </trkpt>
      <trkpt lat="46.71625" lon="-2.33995">
        <ele>16.3</ele>
        <time>2018-09-20T12:39:35.000Z</time>
      </trkpt>
      <trkpt lat="46.71626" lon="-2.33994">
        <ele>16.3</ele>
        <time>2018-09-20T12:39:36.000Z</time>
      </trkpt>
      <trkpt lat="46.71627" lon="-2.33993">
        <ele>16.2</ele>
        <time>2018-09-20T12:39:37.000Z</time>
      </trkpt>
      <trkpt lat="46.71628" lon="-2.33992">
        <ele>16.1</ele>
        <time>2018-09-20T12:39:38.000Z</time>
      </trkpt>
      <trkpt lat="46.71628" lon="-2.33991">
        <ele>16.1</ele>
        <time>2018-09-20T12:39:39.000Z</time>
      </trkpt>
      <trkpt lat="46.71629" lon="-2.33991">
        <ele>16</ele>
        <time>2018-09-20T12:39:40.000Z</time>
      </trkpt>
      <trkpt lat="46.7163" lon="-2.3399">
        <ele>15.9</ele>
        <time>2018-09-20T12:39:41.000Z</time>
      </trkpt>
      <trkpt lat="46.71631" lon="-2.33989">
        <ele>15.9</ele>
        <time>2018-09-20T12:39:42.000Z</time>
      </trkpt>
      <trkpt lat="46.71632" lon="-2.33988">
        <ele>15.8</ele>
        <time>2018-09-20T12:39:43.000Z</time>
      </trkpt>
      <trkpt lat="46.71633" lon="-2.33988">
        <ele>15.7</ele>
        <time>2018-09-20T12:39:44.000Z</time>
      </trkpt>
      <trkpt lat="46.71635" lon="-2.33987">
        <ele>15.7</ele>
        <time>2018-09-20T12:39:45.000Z</time>
      </trkpt>
      <trkpt lat="46.71636" lon="-2.33987">
        <ele>15.6</ele>
        <time>2018-09-20T12:39:46.000Z</time>
      </trkpt>
      <trkpt lat="46.71637" lon="-2.33986">
        <ele>15.5</ele>
        <time>2018-09-20T12:39:47.000Z</time>
      </trkpt>
      <trkpt lat="46.71638" lon="-2.33986">
        <ele>15.5</ele>
        <time>2018-09-20T12:39:48.000Z</time>
      </trkpt>
      <trkpt lat="46.71639" lon="-2.33985">
        <ele>15.4</ele>
        <time>2018-09-20T12:39:49.000Z</time>
      </trkpt>
      <trkpt lat="46.7164" lon="-2.33985">
        <ele>15.3</ele>
        <time>2018-09-20T12:39:50.000Z</time>
      </trkpt>
      <trkpt lat="46.71641" lon="-2.33985">
        <ele>15.3</ele>
        <time>2018-09-20T12:39:51.000Z</time>
      </trkpt>
      <trkpt lat="46.71643" lon="-2.33984">
        <ele>15.2</ele>
        <time>2018-09-20T12:39:52.000Z</time>
      </trkpt>
      <trkpt lat="46.71644" lon="-2.33984">
        <ele>15.2</ele>
        <time>2018-09-20T12:39:53.000Z</time>
      </trkpt>
      <trkpt lat="46.71645" lon="-2.33983">
        <ele>15.1</ele>
        <time>2018-09-20T12:39:54.000Z</time>
      </trkpt>
      <trkpt lat="46.71646" lon="-2.33983">
        <ele>15</ele>
        <time>2018-09-20T12:39:55.000Z</time>
      </trkpt>
      <trkpt lat="46.71647" lon="-2.33982">
        <ele>15</ele>
        <time>2018-09-20T12:39:56.000Z</time>
      </trkpt>
      <trkpt lat="46.71648" lon="-2.33982">
        <ele>14.9</ele>
        <time>2018-09-20T12:39:57.000Z</time>
      </trkpt>
      <trkpt lat="46.71649" lon="-2.33981">
        <ele>14.8</ele>
        <time>2018-09-20T12:39:58.000Z</time>
      </trkpt>
      <trkpt lat="46.7165" lon="-2.3398">
        <ele>14.7</ele>
        <time>2018-09-20T12:39:59.000Z</time>
      </trkpt>
      <trkpt lat="46.71651" lon="-2.3398">
        <ele>14.7</ele>
        <time>2018-09-20T12:40:00.000Z</time>
      </trkpt>
      <trkpt lat="46.71652" lon="-2.33979">
        <ele>14.6</ele>
        <time>2018-09-20T12:40:01.000Z</time>
      </trkpt>
      <trkpt lat="46.71653" lon="-2.33978">
        <ele>14.5</ele>
        <time>2018-09-20T12:40:02.000Z</time>
      </trkpt>
      <trkpt lat="46.71654" lon="-2.33977">
        <ele>14.4</ele>
        <time>2018-09-20T12:40:03.000Z</time>
      </trkpt>
      <trkpt lat="46.71655" lon="-2.33976">
        <ele>14.4</ele>
        <time>2018-09-20T12:40:04.000Z</time>
      </trkpt>
      <trkpt lat="46.71656" lon="-2.33975">
        <ele>14.3</ele>
        <time>2018-09-20T12:40:05.000Z</time>
      </trkpt>
      <trkpt lat="46.71657" lon="-2.33975">
        <ele>14.2</ele>
        <time>2018-09-20T12:40:06.000Z</time>
      </trkpt>
      <trkpt lat="46.71658" lon="-2.33974">
        <ele>14.1</ele>
        <time>2018-09-20T12:40:07.000Z</time>
      </trkpt>
      <trkpt lat="46.71659" lon="-2.33973">
        <ele>14.1</ele>
        <time>2018-09-20T12:40:08.000Z</time>
      </trkpt>
      <trkpt lat="46.7166" lon="-2.33973">
        <ele>14</ele>
        <time>2018-09-20T12:40:09.000Z</time>
      </trkpt>
      <trkpt lat="46.7166" lon="-2.33972">
        <ele>13.9</ele>
        <time>2018-09-20T12:40:10.000Z</time>
      </trkpt>
      <trkpt lat="46.71661" lon="-2.33971">
        <ele>13.9</ele>
        <time>2018-09-20T12:40:11.000Z</time>
      </trkpt>
      <trkpt lat="46.71662" lon="-2.33971">
        <ele>13.8</ele>
        <time>2018-09-20T12:40:12.000Z</time>
      </trkpt>
      <trkpt lat="46.71663" lon="-2.33971">
        <ele>13.7</ele>
        <time>2018-09-20T12:40:13.000Z</time>
      </trkpt>
      <trkpt lat="46.71664" lon="-2.3397">
        <ele>13.7</ele>
        <time>2018-09-20T12:40:14.000Z</time>
      </trkpt>
      <trkpt lat="46.71665" lon="-2.3397">
        <ele>13.6</ele>
        <time>2018-09-20T12:40:15.000Z</time>
      </trkpt>
      <trkpt lat="46.71666" lon="-2.33969">
        <ele>13.6</ele>
        <time>2018-09-20T12:40:16.000Z</time>
      </trkpt>
      <trkpt lat="46.71667" lon="-2.33969">
        <ele>13.5</ele>
        <time>2018-09-20T12:40:17.000Z</time>
      </trkpt>
      <trkpt lat="46.71668" lon="-2.33969">
        <ele>13.4</ele>
        <time>2018-09-20T12:40:18.000Z</time>
      </trkpt>
      <trkpt lat="46.71669" lon="-2.33969">
        <ele>13.4</ele>
        <time>2018-09-20T12:40:19.000Z</time>
      </trkpt>
      <trkpt lat="46.7167" lon="-2.33968">
        <ele>13.3</ele>
        <time>2018-09-20T12:40:20.000Z</time>
      </trkpt>
      <trkpt lat="46.71672" lon="-2.33968">
        <ele>13.3</ele>
        <time>2018-09-20T12:40:21.000Z</time>
      </trkpt>
      <trkpt lat="46.71673" lon="-2.33968">
        <ele>13.2</ele>
        <time>2018-09-20T12:40:22.000Z</time>
      </trkpt>
      <trkpt lat="46.71674" lon="-2.33967">
        <ele>13.2</ele>
        <time>2018-09-20T12:40:23.000Z</time>
      </trkpt>
      <trkpt lat="46.71675" lon="-2.33967">
        <ele>13.1</ele>
        <time>2018-09-20T12:40:24.000Z</time>
      </trkpt>
      <trkpt lat="46.71676" lon="-2.33967">
        <ele>13</ele>
        <time>2018-09-20T12:40:25.000Z</time>
      </trkpt>
      <trkpt lat="46.71677" lon="-2.33966">
        <ele>13</ele>
        <time>2018-09-20T12:40:26.000Z</time>
      </trkpt>
      <trkpt lat="46.71678" lon="-2.33966">
        <ele>12.9</ele>
        <time>2018-09-20T12:40:27.000Z</time>
      </trkpt>
      <trkpt lat="46.7168" lon="-2.33966">
        <ele>12.9</ele>
        <time>2018-09-20T12:40:28.000Z</time>
      </trkpt>
      <trkpt lat="46.71681" lon="-2.33965">
        <ele>12.8</ele>
        <time>2018-09-20T12:40:29.000Z</time>
      </trkpt>
      <trkpt lat="46.71682" lon="-2.33965">
        <ele>12.7</ele>
        <time>2018-09-20T12:40:30.000Z</time>
      </trkpt>
      <trkpt lat="46.71683" lon="-2.33965">
        <ele>12.7</ele>
        <time>2018-09-20T12:40:31.000Z</time>
      </trkpt>
      <trkpt lat="46.71684" lon="-2.33964">
        <ele>12.6</ele>
        <time>2018-09-20T12:40:32.000Z</time>
      </trkpt>
      <trkpt lat="46.71685" lon="-2.33964">
        <ele>12.6</ele>
        <time>2018-09-20T12:40:33.000Z</time>
      </trkpt>
      <trkpt lat="46.71686" lon="-2.33964">
        <ele>12.5</ele>
        <time>2018-09-20T12:40:34.000Z</time>
      </trkpt>
      <trkpt lat="46.71687" lon="-2.33964">
        <ele>12.5</ele>
        <time>2018-09-20T12:40:35.000Z</time>
      </trkpt>
      <trkpt lat="46.71688" lon="-2.33964">
        <ele>12.4</ele>
        <time>2018-09-20T12:40:36.000Z</time>
      </trkpt>
      <trkpt lat="46.71689" lon="-2.33963">
        <ele>12.4</ele>
        <time>2018-09-20T12:40:37.000Z</time>
      </trkpt>
      <trkpt lat="46.7169" lon="-2.33963">
        <ele>12.3</ele>
        <time>2018-09-20T12:40:38.000Z</time>
      </trkpt>
      <trkpt lat="46.71691" lon="-2.33963">
        <ele>12.3</ele>
        <time>2018-09-20T12:40:39.000Z</time>
      </trkpt>
      <trkpt lat="46.71692" lon="-2.33963">
        <ele>12.3</ele>
        <time>2018-09-20T12:40:40.000Z</time>
      </trkpt>
      <trkpt lat="46.71693" lon="-2.33963">
        <ele>12.2</ele>
        <time>2018-09-20T12:40:41.000Z</time>
      </trkpt>
      <trkpt lat="46.71694" lon="-2.33963">
        <ele>12.2</ele>
        <time>2018-09-20T12:40:42.000Z</time>
      </trkpt>
      <trkpt lat="46.71696" lon="-2.33963">
        <ele>12.1</ele>
        <time>2018-09-20T12:40:43.000Z</time>
      </trkpt>
      <trkpt lat="46.71697" lon="-2.33963">
        <ele>12.1</ele>
        <time>2018-09-20T12:40:44.000Z</time>
      </trkpt>
      <trkpt lat="46.71698" lon="-2.33963">
        <ele>12.1</ele>
        <time>2018-09-20T12:40:45.000Z</time>
      </trkpt>
      <trkpt lat="46.71699" lon="-2.33963">
        <ele>12</ele>
        <time>2018-09-20T12:40:46.000Z</time>
      </trkpt>
      <trkpt lat="46.717" lon="-2.33963">
        <ele>12</ele>
        <time>2018-09-20T12:40:47.000Z</time>
      </trkpt>
      <trkpt lat="46.71701" lon="-2.33963">
        <ele>11.9</ele>
        <time>2018-09-20T12:40:48.000Z</time>
      </trkpt>
      <trkpt lat="46.71702" lon="-2.33963">
        <ele>11.9</ele>
        <time>2018-09-20T12:40:49.000Z</time>
      </trkpt>
      <trkpt lat="46.71703" lon="-2.33963">
        <ele>11.9</ele>
        <time>2018-09-20T12:40:50.000Z</time>
      </trkpt>
      <trkpt lat="46.71704" lon="-2.33963">
        <ele>11.8</ele>
        <time>2018-09-20T12:40:51.000Z</time>
      </trkpt>
      <trkpt lat="46.71705" lon="-2.33964">
        <ele>11.8</ele>
        <time>2018-09-20T12:40:52.000Z</time>
      </trkpt>
      <trkpt lat="46.71706" lon="-2.33964">
        <ele>11.8</ele>
        <time>2018-09-20T12:40:53.000Z</time>
      </trkpt>
      <trkpt lat="46.71707" lon="-2.33964">
        <ele>11.8</ele>
        <time>2018-09-20T12:40:54.000Z</time>
      </trkpt>
      <trkpt lat="46.71709" lon="-2.33965">
        <ele>11.7</ele>
        <time>2018-09-20T12:40:55.000Z</time>
      </trkpt>
      <trkpt lat="46.7171" lon="-2.33965">
        <ele>11.7</ele>
        <time>2018-09-20T12:40:56.000Z</time>
      </trkpt>
      <trkpt lat="46.71711" lon="-2.33966">
        <ele>11.7</ele>
        <time>2018-09-20T12:40:57.000Z</time>
      </trkpt>
      <trkpt lat="46.71712" lon="-2.33966">
        <ele>11.6</ele>
        <time>2018-09-20T12:40:58.000Z</time>
      </trkpt>
      <trkpt lat="46.71713" lon="-2.33966">
        <ele>11.6</ele>
        <time>2018-09-20T12:40:59.000Z</time>
      </trkpt>
      <trkpt lat="46.71714" lon="-2.33967">
        <ele>11.6</ele>
        <time>2018-09-20T12:41:00.000Z</time>
      </trkpt>
      <trkpt lat="46.71716" lon="-2.33967">
        <ele>11.5</ele>
        <time>2018-09-20T12:41:01.000Z</time>
      </trkpt>
      <trkpt lat="46.71717" lon="-2.33967">
        <ele>11.5</ele>
        <time>2018-09-20T12:41:02.000Z</time>
      </trkpt>
      <trkpt lat="46.71718" lon="-2.33968">
        <ele>11.5</ele>
        <time>2018-09-20T12:41:03.000Z</time>
      </trkpt>
      <trkpt lat="46.71719" lon="-2.33968">
        <ele>11.4</ele>
        <time>2018-09-20T12:41:04.000Z</time>
      </trkpt>
      <trkpt lat="46.7172" lon="-2.33968">
        <ele>11.4</ele>
        <time>2018-09-20T12:41:05.000Z</time>
      </trkpt>
      <trkpt lat="46.71721" lon="-2.33968">
        <ele>11.3</ele>
        <time>2018-09-20T12:41:06.000Z</time>
      </trkpt>
      <trkpt lat="46.71723" lon="-2.33968">
        <ele>11.3</ele>
        <time>2018-09-20T12:41:07.000Z</time>
      </trkpt>
      <trkpt lat="46.71724" lon="-2.33968">
        <ele>11.2</ele>
        <time>2018-09-20T12:41:08.000Z</time>
      </trkpt>
      <trkpt lat="46.71725" lon="-2.33968">
        <ele>11.2</ele>
        <time>2018-09-20T12:41:09.000Z</time>
      </trkpt>
      <trkpt lat="46.71726" lon="-2.33968">
        <ele>11.2</ele>
        <time>2018-09-20T12:41:10.000Z</time>
      </trkpt>
      <trkpt lat="46.71727" lon="-2.33967">
        <ele>11.1</ele>
        <time>2018-09-20T12:41:11.000Z</time>
      </trkpt>
      <trkpt lat="46.71728" lon="-2.33967">
        <ele>11</ele>
        <time>2018-09-20T12:41:12.000Z</time>
      </trkpt>
      <trkpt lat="46.71729" lon="-2.33966">
        <ele>11</ele>
        <time>2018-09-20T12:41:13.000Z</time>
      </trkpt>
      <trkpt lat="46.7173" lon="-2.33966">
        <ele>10.9</ele>
        <time>2018-09-20T12:41:14.000Z</time>
      </trkpt>
      <trkpt lat="46.71731" lon="-2.33965">
        <ele>10.9</ele>
        <time>2018-09-20T12:41:15.000Z</time>
      </trkpt>
      <trkpt lat="46.71732" lon="-2.33965">
        <ele>10.8</ele>
        <time>2018-09-20T12:41:16.000Z</time>
      </trkpt>
      <trkpt lat="46.71734" lon="-2.33964">
        <ele>10.8</ele>
        <time>2018-09-20T12:41:17.000Z</time>
      </trkpt>
      <trkpt lat="46.71735" lon="-2.33963">
        <ele>10.7</ele>
        <time>2018-09-20T12:41:18.000Z</time>
      </trkpt>
      <trkpt lat="46.71736" lon="-2.33962">
        <ele>10.6</ele>
        <time>2018-09-20T12:41:19.000Z</time>
      </trkpt>
      <trkpt lat="46.71737" lon="-2.33961">
        <ele>10.6</ele>
        <time>2018-09-20T12:41:20.000Z</time>
      </trkpt>
      <trkpt lat="46.71738" lon="-2.3396">
        <ele>10.5</ele>
        <time>2018-09-20T12:41:21.000Z</time>
      </trkpt>
      <trkpt lat="46.71739" lon="-2.33959">
        <ele>10.4</ele>
        <time>2018-09-20T12:41:22.000Z</time>
      </trkpt>
      <trkpt lat="46.7174" lon="-2.33958">
        <ele>10.4</ele>
        <time>2018-09-20T12:41:23.000Z</time>
      </trkpt>
      <trkpt lat="46.71741" lon="-2.33957">
        <ele>10.3</ele>
        <time>2018-09-20T12:41:24.000Z</time>
      </trkpt>
      <trkpt lat="46.71742" lon="-2.33956">
        <ele>10.2</ele>
        <time>2018-09-20T12:41:25.000Z</time>
      </trkpt>
      <trkpt lat="46.71743" lon="-2.33955">
        <ele>10.2</ele>
        <time>2018-09-20T12:41:26.000Z</time>
      </trkpt>
      <trkpt lat="46.71744" lon="-2.33954">
        <ele>10.1</ele>
        <time>2018-09-20T12:41:27.000Z</time>
      </trkpt>
      <trkpt lat="46.71745" lon="-2.33953">
        <ele>10.1</ele>
        <time>2018-09-20T12:41:28.000Z</time>
      </trkpt>
      <trkpt lat="46.71746" lon="-2.33952">
        <ele>10</ele>
        <time>2018-09-20T12:41:29.000Z</time>
      </trkpt>
      <trkpt lat="46.71747" lon="-2.33951">
        <ele>9.9</ele>
        <time>2018-09-20T12:41:30.000Z</time>
      </trkpt>
      <trkpt lat="46.71748" lon="-2.3395">
        <ele>9.9</ele>
        <time>2018-09-20T12:41:31.000Z</time>
      </trkpt>
      <trkpt lat="46.71749" lon="-2.33949">
        <ele>9.8</ele>
        <time>2018-09-20T12:41:32.000Z</time>
      </trkpt>
      <trkpt lat="46.7175" lon="-2.33948">
        <ele>9.8</ele>
        <time>2018-09-20T12:41:33.000Z</time>
      </trkpt>
      <trkpt lat="46.71751" lon="-2.33947">
        <ele>9.7</ele>
        <time>2018-09-20T12:41:34.000Z</time>
      </trkpt>
      <trkpt lat="46.71752" lon="-2.33946">
        <ele>9.7</ele>
        <time>2018-09-20T12:41:35.000Z</time>
      </trkpt>
      <trkpt lat="46.71753" lon="-2.33946">
        <ele>9.6</ele>
        <time>2018-09-20T12:41:36.000Z</time>
      </trkpt>
      <trkpt lat="46.71754" lon="-2.33945">
        <ele>9.5</ele>
        <time>2018-09-20T12:41:37.000Z</time>
      </trkpt>
      <trkpt lat="46.71755" lon="-2.33944">
        <ele>9.5</ele>
        <time>2018-09-20T12:41:38.000Z</time>
      </trkpt>
      <trkpt lat="46.71755" lon="-2.33943">
        <ele>9.4</ele>
        <time>2018-09-20T12:41:39.000Z</time>
      </trkpt>
      <trkpt lat="46.71756" lon="-2.33943">
        <ele>9.4</ele>
        <time>2018-09-20T12:41:40.000Z</time>
      </trkpt>
      <trkpt lat="46.71757" lon="-2.33942">
        <ele>9.4</ele>
        <time>2018-09-20T12:41:41.000Z</time>
      </trkpt>
      <trkpt lat="46.71758" lon="-2.33941">
        <ele>9.3</ele>
        <time>2018-09-20T12:41:42.000Z</time>
      </trkpt>
      <trkpt lat="46.71759" lon="-2.33941">
        <ele>9.3</ele>
        <time>2018-09-20T12:41:43.000Z</time>
      </trkpt>
      <trkpt lat="46.7176" lon="-2.3394">
        <ele>9.2</ele>
        <time>2018-09-20T12:41:44.000Z</time>
      </trkpt>
      <trkpt lat="46.71761" lon="-2.3394">
        <ele>9.2</ele>
        <time>2018-09-20T12:41:45.000Z</time>
      </trkpt>
      <trkpt lat="46.71762" lon="-2.33939">
        <ele>9.1</ele>
        <time>2018-09-20T12:41:46.000Z</time>
      </trkpt>
      <trkpt lat="46.71763" lon="-2.33938">
        <ele>9.1</ele>
        <time>2018-09-20T12:41:47.000Z</time>
      </trkpt>
      <trkpt lat="46.71764" lon="-2.33938">
        <ele>9.1</ele>
        <time>2018-09-20T12:41:48.000Z</time>
      </trkpt>
      <trkpt lat="46.71765" lon="-2.33937">
        <ele>9</ele>
        <time>2018-09-20T12:41:49.000Z</time>
      </trkpt>
      <trkpt lat="46.71766" lon="-2.33936">
        <ele>9</ele>
        <time>2018-09-20T12:41:50.000Z</time>
      </trkpt>
      <trkpt lat="46.71767" lon="-2.33936">
        <ele>8.9</ele>
        <time>2018-09-20T12:41:51.000Z</time>
      </trkpt>
      <trkpt lat="46.71768" lon="-2.33935">
        <ele>8.9</ele>
        <time>2018-09-20T12:41:52.000Z</time>
      </trkpt>
      <trkpt lat="46.71769" lon="-2.33934">
        <ele>8.8</ele>
        <time>2018-09-20T12:41:53.000Z</time>
      </trkpt>
      <trkpt lat="46.7177" lon="-2.33933">
        <ele>8.8</ele>
        <time>2018-09-20T12:41:54.000Z</time>
      </trkpt>
      <trkpt lat="46.71771" lon="-2.33932">
        <ele>8.7</ele>
        <time>2018-09-20T12:41:55.000Z</time>
      </trkpt>
      <trkpt lat="46.71772" lon="-2.33931">
        <ele>8.7</ele>
        <time>2018-09-20T12:41:56.000Z</time>
      </trkpt>
      <trkpt lat="46.71773" lon="-2.3393">
        <ele>8.6</ele>
        <time>2018-09-20T12:41:57.000Z</time>
      </trkpt>
      <trkpt lat="46.71774" lon="-2.33929">
        <ele>8.6</ele>
        <time>2018-09-20T12:41:58.000Z</time>
      </trkpt>
      <trkpt lat="46.71775" lon="-2.33928">
        <ele>8.5</ele>
        <time>2018-09-20T12:41:59.000Z</time>
      </trkpt>
      <trkpt lat="46.71776" lon="-2.33927">
        <ele>8.5</ele>
        <time>2018-09-20T12:42:00.000Z</time>
      </trkpt>
      <trkpt lat="46.71777" lon="-2.33926">
        <ele>8.5</ele>
        <time>2018-09-20T12:42:01.000Z</time>
      </trkpt>
      <trkpt lat="46.71778" lon="-2.33925">
        <ele>8.4</ele>
        <time>2018-09-20T12:42:02.000Z</time>
      </trkpt>
      <trkpt lat="46.71779" lon="-2.33924">
        <ele>8.4</ele>
        <time>2018-09-20T12:42:03.000Z</time>
      </trkpt>
      <trkpt lat="46.7178" lon="-2.33923">
        <ele>8.3</ele>
        <time>2018-09-20T12:42:04.000Z</time>
      </trkpt>
      <trkpt lat="46.71781" lon="-2.33922">
        <ele>8.3</ele>
        <time>2018-09-20T12:42:05.000Z</time>
      </trkpt>
      <trkpt lat="46.71782" lon="-2.33921">
        <ele>8.3</ele>
        <time>2018-09-20T12:42:06.000Z</time>
      </trkpt>
      <trkpt lat="46.71783" lon="-2.3392">
        <ele>8.3</ele>
        <time>2018-09-20T12:42:07.000Z</time>
      </trkpt>
      <trkpt lat="46.71783" lon="-2.33919">
        <ele>8.2</ele>
        <time>2018-09-20T12:42:08.000Z</time>
      </trkpt>
      <trkpt lat="46.71784" lon="-2.33918">
        <ele>8.2</ele>
        <time>2018-09-20T12:42:09.000Z</time>
      </trkpt>
      <trkpt lat="46.71785" lon="-2.33917">
        <ele>8.2</ele>
        <time>2018-09-20T12:42:10.000Z</time>
      </trkpt>
      <trkpt lat="46.71786" lon="-2.33916">
        <ele>8.1</ele>
        <time>2018-09-20T12:42:11.000Z</time>
      </trkpt>
      <trkpt lat="46.71787" lon="-2.33916">
        <ele>8.1</ele>
        <time>2018-09-20T12:42:12.000Z</time>
      </trkpt>
      <trkpt lat="46.71788" lon="-2.33915">
        <ele>8.1</ele>
        <time>2018-09-20T12:42:13.000Z</time>
      </trkpt>
      <trkpt lat="46.71789" lon="-2.33914">
        <ele>8.1</ele>
        <time>2018-09-20T12:42:14.000Z</time>
      </trkpt>
      <trkpt lat="46.71791" lon="-2.33913">
        <ele>8</ele>
        <time>2018-09-20T12:42:15.000Z</time>
      </trkpt>
      <trkpt lat="46.71792" lon="-2.33913">
        <ele>8</ele>
        <time>2018-09-20T12:42:16.000Z</time>
      </trkpt>
      <trkpt lat="46.71793" lon="-2.33912">
        <ele>8</ele>
        <time>2018-09-20T12:42:17.000Z</time>
      </trkpt>
      <trkpt lat="46.71794" lon="-2.33912">
        <ele>8</ele>
        <time>2018-09-20T12:42:18.000Z</time>
      </trkpt>
      <trkpt lat="46.71795" lon="-2.33911">
        <ele>7.9</ele>
        <time>2018-09-20T12:42:19.000Z</time>
      </trkpt>
      <trkpt lat="46.71795" lon="-2.33911">
        <ele>7.9</ele>
        <time>2018-09-20T12:42:20.000Z</time>
      </trkpt>
      <trkpt lat="46.71796" lon="-2.3391">
        <ele>7.9</ele>
        <time>2018-09-20T12:42:21.000Z</time>
      </trkpt>
      <trkpt lat="46.71797" lon="-2.3391">
        <ele>7.9</ele>
        <time>2018-09-20T12:42:22.000Z</time>
      </trkpt>
      <trkpt lat="46.71798" lon="-2.3391">
        <ele>7.9</ele>
        <time>2018-09-20T12:42:23.000Z</time>
      </trkpt>
      <trkpt lat="46.71799" lon="-2.33909">
        <ele>7.8</ele>
        <time>2018-09-20T12:42:24.000Z</time>
      </trkpt>
      <trkpt lat="46.71799" lon="-2.33908">
        <ele>7.8</ele>
        <time>2018-09-20T12:42:25.000Z</time>
      </trkpt>
      <trkpt lat="46.718" lon="-2.33907">
        <ele>7.8</ele>
        <time>2018-09-20T12:42:26.000Z</time>
      </trkpt>
      <trkpt lat="46.71801" lon="-2.33906">
        <ele>7.8</ele>
        <time>2018-09-20T12:42:27.000Z</time>
      </trkpt>
      <trkpt lat="46.71801" lon="-2.33905">
        <ele>7.8</ele>
        <time>2018-09-20T12:42:28.000Z</time>
      </trkpt>
      <trkpt lat="46.71802" lon="-2.33904">
        <ele>7.7</ele>
        <time>2018-09-20T12:42:29.000Z</time>
      </trkpt>
      <trkpt lat="46.71803" lon="-2.33903">
        <ele>7.7</ele>
        <time>2018-09-20T12:42:30.000Z</time>
      </trkpt>
      <trkpt lat="46.71804" lon="-2.33902">
        <ele>7.7</ele>
        <time>2018-09-20T12:42:31.000Z</time>
      </trkpt>
      <trkpt lat="46.71805" lon="-2.33901">
        <ele>7.7</ele>
        <time>2018-09-20T12:42:32.000Z</time>
      </trkpt>
      <trkpt lat="46.71806" lon="-2.33901">
        <ele>7.7</ele>
        <time>2018-09-20T12:42:33.000Z</time>
      </trkpt>
      <trkpt lat="46.71807" lon="-2.339">
        <ele>7.6</ele>
        <time>2018-09-20T12:42:34.000Z</time>
      </trkpt>
      <trkpt lat="46.71809" lon="-2.33899">
        <ele>7.6</ele>
        <time>2018-09-20T12:42:35.000Z</time>
      </trkpt>
      <trkpt lat="46.7181" lon="-2.33898">
        <ele>7.6</ele>
        <time>2018-09-20T12:42:36.000Z</time>
      </trkpt>
      <trkpt lat="46.71811" lon="-2.33897">
        <ele>7.5</ele>
        <time>2018-09-20T12:42:37.000Z</time>
      </trkpt>
      <trkpt lat="46.71812" lon="-2.33896">
        <ele>7.5</ele>
        <time>2018-09-20T12:42:38.000Z</time>
      </trkpt>
      <trkpt lat="46.71813" lon="-2.33895">
        <ele>7.5</ele>
        <time>2018-09-20T12:42:39.000Z</time>
      </trkpt>
      <trkpt lat="46.71814" lon="-2.33894">
        <ele>7.5</ele>
        <time>2018-09-20T12:42:40.000Z</time>
      </trkpt>
      <trkpt lat="46.71816" lon="-2.33893">
        <ele>7.4</ele>
        <time>2018-09-20T12:42:41.000Z</time>
      </trkpt>
      <trkpt lat="46.71817" lon="-2.33892">
        <ele>7.4</ele>
        <time>2018-09-20T12:42:42.000Z</time>
      </trkpt>
      <trkpt lat="46.71818" lon="-2.33891">
        <ele>7.4</ele>
        <time>2018-09-20T12:42:43.000Z</time>
      </trkpt>
      <trkpt lat="46.71818" lon="-2.3389">
        <ele>7.4</ele>
        <time>2018-09-20T12:42:44.000Z</time>
      </trkpt>
      <trkpt lat="46.71819" lon="-2.33889">
        <ele>7.3</ele>
        <time>2018-09-20T12:42:45.000Z</time>
      </trkpt>
      <trkpt lat="46.7182" lon="-2.33888">
        <ele>7.3</ele>
        <time>2018-09-20T12:42:46.000Z</time>
      </trkpt>
      <trkpt lat="46.71821" lon="-2.33886">
        <ele>7.3</ele>
        <time>2018-09-20T12:42:47.000Z</time>
      </trkpt>
      <trkpt lat="46.71822" lon="-2.33885">
        <ele>7.3</ele>
        <time>2018-09-20T12:42:48.000Z</time>
      </trkpt>
      <trkpt lat="46.71823" lon="-2.33884">
        <ele>7.3</ele>
        <time>2018-09-20T12:42:49.000Z</time>
      </trkpt>
      <trkpt lat="46.71824" lon="-2.33883">
        <ele>7.2</ele>
        <time>2018-09-20T12:42:50.000Z</time>
      </trkpt>
      <trkpt lat="46.71825" lon="-2.33882">
        <ele>7.2</ele>
        <time>2018-09-20T12:42:51.000Z</time>
      </trkpt>
      <trkpt lat="46.71826" lon="-2.33882">
        <ele>7.2</ele>
        <time>2018-09-20T12:42:52.000Z</time>
      </trkpt>
      <trkpt lat="46.71827" lon="-2.33881">
        <ele>7.2</ele>
        <time>2018-09-20T12:42:53.000Z</time>
      </trkpt>
      <trkpt lat="46.71828" lon="-2.3388">
        <ele>7.1</ele>
        <time>2018-09-20T12:42:54.000Z</time>
      </trkpt>
      <trkpt lat="46.71829" lon="-2.33879">
        <ele>7.1</ele>
        <time>2018-09-20T12:42:55.000Z</time>
      </trkpt>
      <trkpt lat="46.7183" lon="-2.33879">
        <ele>7.1</ele>
        <time>2018-09-20T12:42:56.000Z</time>
      </trkpt>
      <trkpt lat="46.71831" lon="-2.33878">
        <ele>7.1</ele>
        <time>2018-09-20T12:42:57.000Z</time>
      </trkpt>
      <trkpt lat="46.71831" lon="-2.33877">
        <ele>7</ele>
        <time>2018-09-20T12:42:58.000Z</time>
      </trkpt>
      <trkpt lat="46.71832" lon="-2.33876">
        <ele>7</ele>
        <time>2018-09-20T12:42:59.000Z</time>
      </trkpt>
      <trkpt lat="46.71833" lon="-2.33875">
        <ele>7</ele>
        <time>2018-09-20T12:43:00.000Z</time>
      </trkpt>
      <trkpt lat="46.71834" lon="-2.33874">
        <ele>7</ele>
        <time>2018-09-20T12:43:01.000Z</time>
      </trkpt>
      <trkpt lat="46.71835" lon="-2.33873">
        <ele>7</ele>
        <time>2018-09-20T12:43:02.000Z</time>
      </trkpt>
      <trkpt lat="46.71836" lon="-2.33872">
        <ele>6.9</ele>
        <time>2018-09-20T12:43:03.000Z</time>
      </trkpt>
      <trkpt lat="46.71837" lon="-2.3387">
        <ele>6.9</ele>
        <time>2018-09-20T12:43:04.000Z</time>
      </trkpt>
      <trkpt lat="46.71837" lon="-2.33869">
        <ele>6.9</ele>
        <time>2018-09-20T12:43:05.000Z</time>
      </trkpt>
      <trkpt lat="46.71838" lon="-2.33868">
        <ele>6.9</ele>
        <time>2018-09-20T12:43:06.000Z</time>
      </trkpt>
      <trkpt lat="46.71839" lon="-2.33866">
        <ele>6.9</ele>
        <time>2018-09-20T12:43:07.000Z</time>
      </trkpt>
      <trkpt lat="46.71839" lon="-2.33866">
        <ele>6.9</ele>
        <time>2018-09-20T12:43:08.000Z</time>
      </trkpt>
      <trkpt lat="46.7184" lon="-2.33865">
        <ele>6.9</ele>
        <time>2018-09-20T12:43:09.000Z</time>
      </trkpt>
      <trkpt lat="46.7184" lon="-2.33864">
        <ele>6.8</ele>
        <time>2018-09-20T12:43:10.000Z</time>
      </trkpt>
      <trkpt lat="46.71841" lon="-2.33864">
        <ele>6.8</ele>
        <time>2018-09-20T12:43:11.000Z</time>
      </trkpt>
      <trkpt lat="46.71841" lon="-2.33864">
        <ele>6.8</ele>
        <time>2018-09-20T12:43:12.000Z</time>
      </trkpt>
      <trkpt lat="46.71842" lon="-2.33863">
        <ele>6.8</ele>
        <time>2018-09-20T12:43:13.000Z</time>
      </trkpt>
      <trkpt lat="46.71843" lon="-2.33863">
        <ele>6.8</ele>
        <time>2018-09-20T12:43:14.000Z</time>
      </trkpt>
      <trkpt lat="46.71844" lon="-2.33862">
        <ele>6.7</ele>
        <time>2018-09-20T12:43:15.000Z</time>
      </trkpt>
      <trkpt lat="46.71845" lon="-2.33861">
        <ele>6.7</ele>
        <time>2018-09-20T12:43:16.000Z</time>
      </trkpt>
      <trkpt lat="46.71846" lon="-2.3386">
        <ele>6.7</ele>
        <time>2018-09-20T12:43:17.000Z</time>
      </trkpt>
      <trkpt lat="46.71847" lon="-2.33858">
        <ele>6.7</ele>
        <time>2018-09-20T12:43:18.000Z</time>
      </trkpt>
      <trkpt lat="46.71849" lon="-2.33857">
        <ele>6.6</ele>
        <time>2018-09-20T12:43:19.000Z</time>
      </trkpt>
      <trkpt lat="46.7185" lon="-2.33856">
        <ele>6.6</ele>
        <time>2018-09-20T12:43:20.000Z</time>
      </trkpt>
      <trkpt lat="46.71852" lon="-2.33855">
        <ele>6.6</ele>
        <time>2018-09-20T12:43:21.000Z</time>
      </trkpt>
      <trkpt lat="46.71853" lon="-2.33854">
        <ele>6.5</ele>
        <time>2018-09-20T12:43:22.000Z</time>
      </trkpt>
      <trkpt lat="46.71854" lon="-2.33853">
        <ele>6.5</ele>
        <time>2018-09-20T12:43:23.000Z</time>
      </trkpt>
      <trkpt lat="46.71855" lon="-2.33852">
        <ele>6.5</ele>
        <time>2018-09-20T12:43:24.000Z</time>
      </trkpt>
      <trkpt lat="46.71857" lon="-2.33851">
        <ele>6.4</ele>
        <time>2018-09-20T12:43:25.000Z</time>
      </trkpt>
      <trkpt lat="46.71858" lon="-2.3385">
        <ele>6.4</ele>
        <time>2018-09-20T12:43:26.000Z</time>
      </trkpt>
      <trkpt lat="46.71859" lon="-2.33849">
        <ele>6.4</ele>
        <time>2018-09-20T12:43:27.000Z</time>
      </trkpt>
      <trkpt lat="46.7186" lon="-2.33849">
        <ele>6.4</ele>
        <time>2018-09-20T12:43:28.000Z</time>
      </trkpt>
      <trkpt lat="46.71861" lon="-2.33848">
        <ele>6.3</ele>
        <time>2018-09-20T12:43:29.000Z</time>
      </trkpt>
      <trkpt lat="46.71862" lon="-2.33847">
        <ele>6.3</ele>
        <time>2018-09-20T12:43:30.000Z</time>
      </trkpt>
      <trkpt lat="46.71863" lon="-2.33847">
        <ele>6.3</ele>
        <time>2018-09-20T12:43:31.000Z</time>
      </trkpt>
      <trkpt lat="46.71864" lon="-2.33846">
        <ele>6.3</ele>
        <time>2018-09-20T12:43:32.000Z</time>
      </trkpt>
      <trkpt lat="46.71865" lon="-2.33846">
        <ele>6.2</ele>
        <time>2018-09-20T12:43:33.000Z</time>
      </trkpt>
      <trkpt lat="46.71866" lon="-2.33845">
        <ele>6.2</ele>
        <time>2018-09-20T12:43:34.000Z</time>
      </trkpt>
      <trkpt lat="46.71867" lon="-2.33844">
        <ele>6.2</ele>
        <time>2018-09-20T12:43:35.000Z</time>
      </trkpt>
      <trkpt lat="46.71868" lon="-2.33844">
        <ele>6.2</ele>
        <time>2018-09-20T12:43:36.000Z</time>
      </trkpt>
      <trkpt lat="46.71869" lon="-2.33843">
        <ele>6.1</ele>
        <time>2018-09-20T12:43:37.000Z</time>
      </trkpt>
      <trkpt lat="46.7187" lon="-2.33842">
        <ele>6.1</ele>
        <time>2018-09-20T12:43:38.000Z</time>
      </trkpt>
      <trkpt lat="46.71871" lon="-2.33841">
        <ele>6.1</ele>
        <time>2018-09-20T12:43:39.000Z</time>
      </trkpt>
      <trkpt lat="46.71872" lon="-2.33841">
        <ele>6.1</ele>
        <time>2018-09-20T12:43:40.000Z</time>
      </trkpt>
      <trkpt lat="46.71873" lon="-2.3384">
        <ele>6.1</ele>
        <time>2018-09-20T12:43:41.000Z</time>
      </trkpt>
      <trkpt lat="46.71874" lon="-2.3384">
        <ele>6</ele>
        <time>2018-09-20T12:43:42.000Z</time>
      </trkpt>
      <trkpt lat="46.71875" lon="-2.33839">
        <ele>6</ele>
        <time>2018-09-20T12:43:43.000Z</time>
      </trkpt>
      <trkpt lat="46.71876" lon="-2.33839">
        <ele>6</ele>
        <time>2018-09-20T12:43:44.000Z</time>
      </trkpt>
      <trkpt lat="46.71877" lon="-2.33839">
        <ele>6</ele>
        <time>2018-09-20T12:43:45.000Z</time>
      </trkpt>
      <trkpt lat="46.71878" lon="-2.33839">
        <ele>5.9</ele>
        <time>2018-09-20T12:43:46.000Z</time>
      </trkpt>
      <trkpt lat="46.71879" lon="-2.33839">
        <ele>5.9</ele>
        <time>2018-09-20T12:43:47.000Z</time>
      </trkpt>
      <trkpt lat="46.7188" lon="-2.33839">
        <ele>5.9</ele>
        <time>2018-09-20T12:43:48.000Z</time>
      </trkpt>
      <trkpt lat="46.71881" lon="-2.3384">
        <ele>5.9</ele>
        <time>2018-09-20T12:43:49.000Z</time>
      </trkpt>
      <trkpt lat="46.71882" lon="-2.3384">
        <ele>5.8</ele>
        <time>2018-09-20T12:43:50.000Z</time>
      </trkpt>
      <trkpt lat="46.71883" lon="-2.33841">
        <ele>5.8</ele>
        <time>2018-09-20T12:43:51.000Z</time>
      </trkpt>
      <trkpt lat="46.71884" lon="-2.33841">
        <ele>5.8</ele>
        <time>2018-09-20T12:43:52.000Z</time>
      </trkpt>
      <trkpt lat="46.71885" lon="-2.33842">
        <ele>5.8</ele>
        <time>2018-09-20T12:43:53.000Z</time>
      </trkpt>
      <trkpt lat="46.71886" lon="-2.33842">
        <ele>5.7</ele>
        <time>2018-09-20T12:43:54.000Z</time>
      </trkpt>
      <trkpt lat="46.71887" lon="-2.33842">
        <ele>5.7</ele>
        <time>2018-09-20T12:43:55.000Z</time>
      </trkpt>
      <trkpt lat="46.71888" lon="-2.33842">
        <ele>5.7</ele>
        <time>2018-09-20T12:43:56.000Z</time>
      </trkpt>
      <trkpt lat="46.71889" lon="-2.33842">
        <ele>5.7</ele>
        <time>2018-09-20T12:43:57.000Z</time>
      </trkpt>
      <trkpt lat="46.7189" lon="-2.33842">
        <ele>5.6</ele>
        <time>2018-09-20T12:43:58.000Z</time>
      </trkpt>
      <trkpt lat="46.71891" lon="-2.33842">
        <ele>5.6</ele>
        <time>2018-09-20T12:43:59.000Z</time>
      </trkpt>
      <trkpt lat="46.71892" lon="-2.33842">
        <ele>5.6</ele>
        <time>2018-09-20T12:44:00.000Z</time>
      </trkpt>
      <trkpt lat="46.71893" lon="-2.33842">
        <ele>5.6</ele>
        <time>2018-09-20T12:44:01.000Z</time>
      </trkpt>
      <trkpt lat="46.71894" lon="-2.33843">
        <ele>5.6</ele>
        <time>2018-09-20T12:44:02.000Z</time>
      </trkpt>
      <trkpt lat="46.71894" lon="-2.33843">
        <ele>5.5</ele>
        <time>2018-09-20T12:44:03.000Z</time>
      </trkpt>
      <trkpt lat="46.71895" lon="-2.33844">
        <ele>5.5</ele>
        <time>2018-09-20T12:44:04.000Z</time>
      </trkpt>
      <trkpt lat="46.71896" lon="-2.33846">
        <ele>5.5</ele>
        <time>2018-09-20T12:44:05.000Z</time>
      </trkpt>
      <trkpt lat="46.71896" lon="-2.33847">
        <ele>5.5</ele>
        <time>2018-09-20T12:44:06.000Z</time>
      </trkpt>
      <trkpt lat="46.71897" lon="-2.33847">
        <ele>5.5</ele>
        <time>2018-09-20T12:44:07.000Z</time>
      </trkpt>
      <trkpt lat="46.71898" lon="-2.33848">
        <ele>5.5</ele>
        <time>2018-09-20T12:44:08.000Z</time>
      </trkpt>
      <trkpt lat="46.71898" lon="-2.33848">
        <ele>5.4</ele>
        <time>2018-09-20T12:44:09.000Z</time>
      </trkpt>
      <trkpt lat="46.71899" lon="-2.33847">
        <ele>5.4</ele>
        <time>2018-09-20T12:44:10.000Z</time>
      </trkpt>
      <trkpt lat="46.71899" lon="-2.33847">
        <ele>5.4</ele>
        <time>2018-09-20T12:44:11.000Z</time>
      </trkpt>
      <trkpt lat="46.719" lon="-2.33846">
        <ele>5.4</ele>
        <time>2018-09-20T12:44:12.000Z</time>
      </trkpt>
      <trkpt lat="46.719" lon="-2.33845">
        <ele>5.4</ele>
        <time>2018-09-20T12:44:13.000Z</time>
      </trkpt>
      <trkpt lat="46.71901" lon="-2.33844">
        <ele>5.4</ele>
        <time>2018-09-20T12:44:14.000Z</time>
      </trkpt>
      <trkpt lat="46.71901" lon="-2.33843">
        <ele>5.4</ele>
        <time>2018-09-20T12:44:15.000Z</time>
      </trkpt>
      <trkpt lat="46.71902" lon="-2.33841">
        <ele>5.4</ele>
        <time>2018-09-20T12:44:16.000Z</time>
      </trkpt>
      <trkpt lat="46.71902" lon="-2.3384">
        <ele>5.3</ele>
        <time>2018-09-20T12:44:17.000Z</time>
      </trkpt>
      <trkpt lat="46.71903" lon="-2.33839">
        <ele>5.3</ele>
        <time>2018-09-20T12:44:18.000Z</time>
      </trkpt>
      <trkpt lat="46.71903" lon="-2.33838">
        <ele>5.3</ele>
        <time>2018-09-20T12:44:19.000Z</time>
      </trkpt>
      <trkpt lat="46.71904" lon="-2.33837">
        <ele>5.3</ele>
        <time>2018-09-20T12:44:20.000Z</time>
      </trkpt>
      <trkpt lat="46.71904" lon="-2.33836">
        <ele>5.3</ele>
        <time>2018-09-20T12:44:21.000Z</time>
      </trkpt>
      <trkpt lat="46.71905" lon="-2.33836">
        <ele>5.3</ele>
        <time>2018-09-20T12:44:22.000Z</time>
      </trkpt>
      <trkpt lat="46.71905" lon="-2.33835">
        <ele>5.3</ele>
        <time>2018-09-20T12:44:23.000Z</time>
      </trkpt>
      <trkpt lat="46.71905" lon="-2.33835">
        <ele>5.3</ele>
        <time>2018-09-20T12:44:24.000Z</time>
      </trkpt>
      <trkpt lat="46.71906" lon="-2.33834">
        <ele>5.3</ele>
        <time>2018-09-20T12:44:25.000Z</time>
      </trkpt>
      <trkpt lat="46.71906" lon="-2.33834">
        <ele>5.3</ele>
        <time>2018-09-20T12:44:26.000Z</time>
      </trkpt>
      <trkpt lat="46.71906" lon="-2.33834">
        <ele>5.3</ele>
        <time>2018-09-20T12:44:27.000Z</time>
      </trkpt>
      <trkpt lat="46.71906" lon="-2.33834">
        <ele>5.3</ele>
        <time>2018-09-20T12:44:28.000Z</time>
      </trkpt>
      <trkpt lat="46.71906" lon="-2.33833">
        <ele>5.3</ele>
        <time>2018-09-20T12:44:29.000Z</time>
      </trkpt>
      <trkpt lat="46.71906" lon="-2.33834">
        <ele>5.3</ele>
        <time>2018-09-20T12:44:30.000Z</time>
      </trkpt>
      <trkpt lat="46.71906" lon="-2.33834">
        <ele>5.2</ele>
        <time>2018-09-20T12:44:31.000Z</time>
      </trkpt>
      <trkpt lat="46.71907" lon="-2.33834">
        <ele>5.2</ele>
        <time>2018-09-20T12:44:32.000Z</time>
      </trkpt>
      <trkpt lat="46.71907" lon="-2.33834">
        <ele>5.2</ele>
        <time>2018-09-20T12:44:33.000Z</time>
      </trkpt>
      <trkpt lat="46.71908" lon="-2.33835">
        <ele>5.2</ele>
        <time>2018-09-20T12:44:34.000Z</time>
      </trkpt>
      <trkpt lat="46.71909" lon="-2.33835">
        <ele>5.2</ele>
        <time>2018-09-20T12:44:35.000Z</time>
      </trkpt>
      <trkpt lat="46.7191" lon="-2.33835">
        <ele>5.2</ele>
        <time>2018-09-20T12:44:36.000Z</time>
      </trkpt>
      <trkpt lat="46.7191" lon="-2.33836">
        <ele>5.2</ele>
        <time>2018-09-20T12:44:37.000Z</time>
      </trkpt>
      <trkpt lat="46.71911" lon="-2.33836">
        <ele>5.1</ele>
        <time>2018-09-20T12:44:38.000Z</time>
      </trkpt>
      <trkpt lat="46.71911" lon="-2.33836">
        <ele>5.1</ele>
        <time>2018-09-20T12:44:39.000Z</time>
      </trkpt>
      <trkpt lat="46.71911" lon="-2.33836">
        <ele>5.1</ele>
        <time>2018-09-20T12:44:40.000Z</time>
      </trkpt>
      <trkpt lat="46.71912" lon="-2.33836">
        <ele>5.1</ele>
        <time>2018-09-20T12:44:41.000Z</time>
      </trkpt>
      <trkpt lat="46.71912" lon="-2.33836">
        <ele>5.1</ele>
        <time>2018-09-20T12:44:42.000Z</time>
      </trkpt>
      <trkpt lat="46.71912" lon="-2.33836">
        <ele>5.1</ele>
        <time>2018-09-20T12:44:43.000Z</time>
      </trkpt>
      <trkpt lat="46.71912" lon="-2.33836">
        <ele>5.1</ele>
        <time>2018-09-20T12:44:44.000Z</time>
      </trkpt>
      <trkpt lat="46.71912" lon="-2.33836">
        <ele>5.1</ele>
        <time>2018-09-20T12:44:45.000Z</time>
      </trkpt>
      <trkpt lat="46.71913" lon="-2.33837">
        <ele>5.1</ele>
        <time>2018-09-20T12:44:46.000Z</time>
      </trkpt>
      <trkpt lat="46.71913" lon="-2.33837">
        <ele>5.1</ele>
        <time>2018-09-20T12:44:47.000Z</time>
      </trkpt>
      <trkpt lat="46.71913" lon="-2.33837">
        <ele>5.1</ele>
        <time>2018-09-20T12:44:48.000Z</time>
      </trkpt>
      <trkpt lat="46.71914" lon="-2.33838">
        <ele>5.1</ele>
        <time>2018-09-20T12:44:49.000Z</time>
      </trkpt>
      <trkpt lat="46.71914" lon="-2.33839">
        <ele>5.1</ele>
        <time>2018-09-20T12:44:50.000Z</time>
      </trkpt>
      <trkpt lat="46.71924" lon="-2.33845">
        <ele>5</ele>
        <time>2018-09-20T15:57:12.000Z</time>
      </trkpt>
      <trkpt lat="46.71924" lon="-2.33845">
        <ele>5</ele>
        <time>2018-09-20T15:57:12.000Z</time>
      </trkpt>
      <trkpt lat="46.71925" lon="-2.33846">
        <ele>5</ele>
        <time>2018-09-20T15:57:13.000Z</time>
      </trkpt>
      <trkpt lat="46.71925" lon="-2.33848">
        <ele>5</ele>
        <time>2018-09-20T15:57:14.000Z</time>
      </trkpt>
      <trkpt lat="46.71926" lon="-2.33849">
        <ele>5</ele>
        <time>2018-09-20T15:57:15.000Z</time>
      </trkpt>
      <trkpt lat="46.71926" lon="-2.3385">
        <ele>5</ele>
        <time>2018-09-20T15:57:16.000Z</time>
      </trkpt>
      <trkpt lat="46.71926" lon="-2.33851">
        <ele>5</ele>
        <time>2018-09-20T15:57:17.000Z</time>
      </trkpt>
      <trkpt lat="46.71927" lon="-2.33853">
        <ele>5</ele>
        <time>2018-09-20T15:57:18.000Z</time>
      </trkpt>
      <trkpt lat="46.71927" lon="-2.33854">
        <ele>5</ele>
        <time>2018-09-20T15:57:19.000Z</time>
      </trkpt>
      <trkpt lat="46.71928" lon="-2.33855">
        <ele>5</ele>
        <time>2018-09-20T15:57:20.000Z</time>
      </trkpt>
      <trkpt lat="46.71928" lon="-2.33856">
        <ele>5</ele>
        <time>2018-09-20T15:57:21.000Z</time>
      </trkpt>
      <trkpt lat="46.71929" lon="-2.33857">
        <ele>5</ele>
        <time>2018-09-20T15:57:22.000Z</time>
      </trkpt>
      <trkpt lat="46.7193" lon="-2.33858">
        <ele>5</ele>
        <time>2018-09-20T15:57:23.000Z</time>
      </trkpt>
      <trkpt lat="46.7193" lon="-2.33859">
        <ele>5</ele>
        <time>2018-09-20T15:57:24.000Z</time>
      </trkpt>
      <trkpt lat="46.71931" lon="-2.3386">
        <ele>5</ele>
        <time>2018-09-20T15:57:25.000Z</time>
      </trkpt>
      <trkpt lat="46.71932" lon="-2.33861">
        <ele>5</ele>
        <time>2018-09-20T15:57:26.000Z</time>
      </trkpt>
      <trkpt lat="46.71933" lon="-2.33862">
        <ele>5</ele>
        <time>2018-09-20T15:57:27.000Z</time>
      </trkpt>
      <trkpt lat="46.71933" lon="-2.33863">
        <ele>5</ele>
        <time>2018-09-20T15:57:28.000Z</time>
      </trkpt>
      <trkpt lat="46.71934" lon="-2.33864">
        <ele>5</ele>
        <time>2018-09-20T15:57:29.000Z</time>
      </trkpt>
      <trkpt lat="46.71935" lon="-2.33865">
        <ele>5</ele>
        <time>2018-09-20T15:57:30.000Z</time>
      </trkpt>
      <trkpt lat="46.71936" lon="-2.33866">
        <ele>5</ele>
        <time>2018-09-20T15:57:31.000Z</time>
      </trkpt>
      <trkpt lat="46.71937" lon="-2.33867">
        <ele>5</ele>
        <time>2018-09-20T15:57:32.000Z</time>
      </trkpt>
      <trkpt lat="46.71937" lon="-2.33868">
        <ele>5</ele>
        <time>2018-09-20T15:57:33.000Z</time>
      </trkpt>
      <trkpt lat="46.71938" lon="-2.33869">
        <ele>5</ele>
        <time>2018-09-20T15:57:34.000Z</time>
      </trkpt>
      <trkpt lat="46.71939" lon="-2.3387">
        <ele>5</ele>
        <time>2018-09-20T15:57:35.000Z</time>
      </trkpt>
      <trkpt lat="46.71939" lon="-2.33871">
        <ele>5</ele>
        <time>2018-09-20T15:57:36.000Z</time>
      </trkpt>
      <trkpt lat="46.7194" lon="-2.33872">
        <ele>5</ele>
        <time>2018-09-20T15:57:37.000Z</time>
      </trkpt>
      <trkpt lat="46.7194" lon="-2.33873">
        <ele>5</ele>
        <time>2018-09-20T15:57:38.000Z</time>
      </trkpt>
      <trkpt lat="46.71941" lon="-2.33874">
        <ele>5</ele>
        <time>2018-09-20T15:57:39.000Z</time>
      </trkpt>
      <trkpt lat="46.71941" lon="-2.33875">
        <ele>5</ele>
        <time>2018-09-20T15:57:40.000Z</time>
      </trkpt>
      <trkpt lat="46.71942" lon="-2.33876">
        <ele>5</ele>
        <time>2018-09-20T15:57:41.000Z</time>
      </trkpt>
      <trkpt lat="46.71942" lon="-2.33877">
        <ele>5</ele>
        <time>2018-09-20T15:57:42.000Z</time>
      </trkpt>
      <trkpt lat="46.71943" lon="-2.33878">
        <ele>5</ele>
        <time>2018-09-20T15:57:43.000Z</time>
      </trkpt>
      <trkpt lat="46.71943" lon="-2.33879">
        <ele>5</ele>
        <time>2018-09-20T15:57:44.000Z</time>
      </trkpt>
      <trkpt lat="46.71944" lon="-2.3388">
        <ele>5</ele>
        <time>2018-09-20T15:57:45.000Z</time>
      </trkpt>
      <trkpt lat="46.71945" lon="-2.33881">
        <ele>5</ele>
        <time>2018-09-20T15:57:46.000Z</time>
      </trkpt>
      <trkpt lat="46.71946" lon="-2.33882">
        <ele>5</ele>
        <time>2018-09-20T15:57:47.000Z</time>
      </trkpt>
      <trkpt lat="46.71947" lon="-2.33884">
        <ele>5</ele>
        <time>2018-09-20T15:57:48.000Z</time>
      </trkpt>
      <trkpt lat="46.71947" lon="-2.33885">
        <ele>5</ele>
        <time>2018-09-20T15:57:49.000Z</time>
      </trkpt>
      <trkpt lat="46.71948" lon="-2.33886">
        <ele>5</ele>
        <time>2018-09-20T15:57:50.000Z</time>
      </trkpt>
      <trkpt lat="46.71949" lon="-2.33887">
        <ele>5</ele>
        <time>2018-09-20T15:57:51.000Z</time>
      </trkpt>
      <trkpt lat="46.7195" lon="-2.33888">
        <ele>5</ele>
        <time>2018-09-20T15:57:52.000Z</time>
      </trkpt>
      <trkpt lat="46.71951" lon="-2.33889">
        <ele>5</ele>
        <time>2018-09-20T15:57:53.000Z</time>
      </trkpt>
      <trkpt lat="46.71952" lon="-2.33891">
        <ele>5</ele>
        <time>2018-09-20T15:57:54.000Z</time>
      </trkpt>
      <trkpt lat="46.71952" lon="-2.33892">
        <ele>5</ele>
        <time>2018-09-20T15:57:55.000Z</time>
      </trkpt>
      <trkpt lat="46.71953" lon="-2.33894">
        <ele>5</ele>
        <time>2018-09-20T15:57:56.000Z</time>
      </trkpt>
      <trkpt lat="46.71953" lon="-2.33895">
        <ele>5</ele>
        <time>2018-09-20T15:57:57.000Z</time>
      </trkpt>
      <trkpt lat="46.71954" lon="-2.33896">
        <ele>5</ele>
        <time>2018-09-20T15:57:58.000Z</time>
      </trkpt>
      <trkpt lat="46.71954" lon="-2.33898">
        <ele>5</ele>
        <time>2018-09-20T15:57:59.000Z</time>
      </trkpt>
      <trkpt lat="46.71954" lon="-2.33899">
        <ele>5</ele>
        <time>2018-09-20T15:58:00.000Z</time>
      </trkpt>
      <trkpt lat="46.71955" lon="-2.339">
        <ele>5</ele>
        <time>2018-09-20T15:58:01.000Z</time>
      </trkpt>
      <trkpt lat="46.71955" lon="-2.33902">
        <ele>5</ele>
        <time>2018-09-20T15:58:02.000Z</time>
      </trkpt>
      <trkpt lat="46.71956" lon="-2.33903">
        <ele>5</ele>
        <time>2018-09-20T15:58:03.000Z</time>
      </trkpt>
      <trkpt lat="46.71956" lon="-2.33904">
        <ele>5</ele>
        <time>2018-09-20T15:58:04.000Z</time>
      </trkpt>
      <trkpt lat="46.71957" lon="-2.33905">
        <ele>5</ele>
        <time>2018-09-20T15:58:05.000Z</time>
      </trkpt>
      <trkpt lat="46.71957" lon="-2.33906">
        <ele>5</ele>
        <time>2018-09-20T15:58:06.000Z</time>
      </trkpt>
      <trkpt lat="46.71958" lon="-2.33907">
        <ele>5</ele>
        <time>2018-09-20T15:58:07.000Z</time>
      </trkpt>
      <trkpt lat="46.71959" lon="-2.33908">
        <ele>5</ele>
        <time>2018-09-20T15:58:08.000Z</time>
      </trkpt>
      <trkpt lat="46.71959" lon="-2.33909">
        <ele>5</ele>
        <time>2018-09-20T15:58:09.000Z</time>
      </trkpt>
      <trkpt lat="46.7196" lon="-2.3391">
        <ele>5</ele>
        <time>2018-09-20T15:58:10.000Z</time>
      </trkpt>
      <trkpt lat="46.7196" lon="-2.33911">
        <ele>5</ele>
        <time>2018-09-20T15:58:11.000Z</time>
      </trkpt>
      <trkpt lat="46.71961" lon="-2.33912">
        <ele>5</ele>
        <time>2018-09-20T15:58:12.000Z</time>
      </trkpt>
      <trkpt lat="46.71962" lon="-2.33913">
        <ele>5</ele>
        <time>2018-09-20T15:58:13.000Z</time>
      </trkpt>
      <trkpt lat="46.71962" lon="-2.33914">
        <ele>5</ele>
        <time>2018-09-20T15:58:14.000Z</time>
      </trkpt>
      <trkpt lat="46.71963" lon="-2.33915">
        <ele>5</ele>
        <time>2018-09-20T15:58:15.000Z</time>
      </trkpt>
      <trkpt lat="46.71964" lon="-2.33916">
        <ele>5</ele>
        <time>2018-09-20T15:58:16.000Z</time>
      </trkpt>
      <trkpt lat="46.71964" lon="-2.33917">
        <ele>5</ele>
        <time>2018-09-20T15:58:17.000Z</time>
      </trkpt>
      <trkpt lat="46.71965" lon="-2.33919">
        <ele>5</ele>
        <time>2018-09-20T15:58:18.000Z</time>
      </trkpt>
      <trkpt lat="46.71965" lon="-2.3392">
        <ele>5</ele>
        <time>2018-09-20T15:58:19.000Z</time>
      </trkpt>
      <trkpt lat="46.71966" lon="-2.33921">
        <ele>5</ele>
        <time>2018-09-20T15:58:20.000Z</time>
      </trkpt>
      <trkpt lat="46.71967" lon="-2.33923">
        <ele>5</ele>
        <time>2018-09-20T15:58:21.000Z</time>
      </trkpt>
      <trkpt lat="46.71967" lon="-2.33924">
        <ele>5</ele>
        <time>2018-09-20T15:58:22.000Z</time>
      </trkpt>
      <trkpt lat="46.71968" lon="-2.33925">
        <ele>5</ele>
        <time>2018-09-20T15:58:23.000Z</time>
      </trkpt>
      <trkpt lat="46.71968" lon="-2.33926">
        <ele>5</ele>
        <time>2018-09-20T15:58:24.000Z</time>
      </trkpt>
      <trkpt lat="46.71968" lon="-2.33927">
        <ele>5</ele>
        <time>2018-09-20T15:58:25.000Z</time>
      </trkpt>
      <trkpt lat="46.71968" lon="-2.33927">
        <ele>5</ele>
        <time>2018-09-20T15:58:26.000Z</time>
      </trkpt>
      <trkpt lat="46.71968" lon="-2.33928">
        <ele>5</ele>
        <time>2018-09-20T15:58:27.000Z</time>
      </trkpt>
      <trkpt lat="46.71968" lon="-2.33929">
        <ele>5</ele>
        <time>2018-09-20T15:58:28.000Z</time>
      </trkpt>
      <trkpt lat="46.71969" lon="-2.3393">
        <ele>5</ele>
        <time>2018-09-20T15:58:29.000Z</time>
      </trkpt>
      <trkpt lat="46.7197" lon="-2.33932">
        <ele>5</ele>
        <time>2018-09-20T15:58:30.000Z</time>
      </trkpt>
      <trkpt lat="46.7197" lon="-2.33933">
        <ele>5</ele>
        <time>2018-09-20T15:58:31.000Z</time>
      </trkpt>
      <trkpt lat="46.71971" lon="-2.33935">
        <ele>5</ele>
        <time>2018-09-20T15:58:32.000Z</time>
      </trkpt>
      <trkpt lat="46.71972" lon="-2.33937">
        <ele>5</ele>
        <time>2018-09-20T15:58:33.000Z</time>
      </trkpt>
      <trkpt lat="46.71972" lon="-2.33939">
        <ele>5</ele>
        <time>2018-09-20T15:58:34.000Z</time>
      </trkpt>
      <trkpt lat="46.71973" lon="-2.33941">
        <ele>5</ele>
        <time>2018-09-20T15:58:35.000Z</time>
      </trkpt>
      <trkpt lat="46.71974" lon="-2.33942">
        <ele>5</ele>
        <time>2018-09-20T15:58:36.000Z</time>
      </trkpt>
      <trkpt lat="46.71974" lon="-2.33944">
        <ele>5</ele>
        <time>2018-09-20T15:58:37.000Z</time>
      </trkpt>
      <trkpt lat="46.71975" lon="-2.33945">
        <ele>5</ele>
        <time>2018-09-20T15:58:38.000Z</time>
      </trkpt>
      <trkpt lat="46.71975" lon="-2.33946">
        <ele>5</ele>
        <time>2018-09-20T15:58:39.000Z</time>
      </trkpt>
      <trkpt lat="46.71976" lon="-2.33948">
        <ele>5</ele>
        <time>2018-09-20T15:58:40.000Z</time>
      </trkpt>
      <trkpt lat="46.71976" lon="-2.33949">
        <ele>5</ele>
        <time>2018-09-20T15:58:41.000Z</time>
      </trkpt>
      <trkpt lat="46.71977" lon="-2.3395">
        <ele>5</ele>
        <time>2018-09-20T15:58:42.000Z</time>
      </trkpt>
      <trkpt lat="46.71977" lon="-2.33952">
        <ele>5</ele>
        <time>2018-09-20T15:58:43.000Z</time>
      </trkpt>
      <trkpt lat="46.71978" lon="-2.33953">
        <ele>5</ele>
        <time>2018-09-20T15:58:44.000Z</time>
      </trkpt>
      <trkpt lat="46.71978" lon="-2.33954">
        <ele>5</ele>
        <time>2018-09-20T15:58:45.000Z</time>
      </trkpt>
      <trkpt lat="46.71979" lon="-2.33956">
        <ele>5</ele>
        <time>2018-09-20T15:58:46.000Z</time>
      </trkpt>
      <trkpt lat="46.7198" lon="-2.33957">
        <ele>5</ele>
        <time>2018-09-20T15:58:47.000Z</time>
      </trkpt>
      <trkpt lat="46.7198" lon="-2.33958">
        <ele>5</ele>
        <time>2018-09-20T15:58:48.000Z</time>
      </trkpt>
      <trkpt lat="46.71981" lon="-2.33959">
        <ele>5</ele>
        <time>2018-09-20T15:58:49.000Z</time>
      </trkpt>
      <trkpt lat="46.71981" lon="-2.33961">
        <ele>5</ele>
        <time>2018-09-20T15:58:50.000Z</time>
      </trkpt>
      <trkpt lat="46.71982" lon="-2.33962">
        <ele>5</ele>
        <time>2018-09-20T15:58:51.000Z</time>
      </trkpt>
      <trkpt lat="46.71982" lon="-2.33963">
        <ele>5</ele>
        <time>2018-09-20T15:58:52.000Z</time>
      </trkpt>
      <trkpt lat="46.71983" lon="-2.33964">
        <ele>5</ele>
        <time>2018-09-20T15:58:53.000Z</time>
      </trkpt>
      <trkpt lat="46.71984" lon="-2.33966">
        <ele>5</ele>
        <time>2018-09-20T15:58:54.000Z</time>
      </trkpt>
      <trkpt lat="46.71984" lon="-2.33967">
        <ele>5</ele>
        <time>2018-09-20T15:58:55.000Z</time>
      </trkpt>
      <trkpt lat="46.71985" lon="-2.33968">
        <ele>5</ele>
        <time>2018-09-20T15:58:56.000Z</time>
      </trkpt>
      <trkpt lat="46.71985" lon="-2.33969">
        <ele>5</ele>
        <time>2018-09-20T15:58:57.000Z</time>
      </trkpt>
      <trkpt lat="46.71986" lon="-2.33971">
        <ele>5</ele>
        <time>2018-09-20T15:58:58.000Z</time>
      </trkpt>
      <trkpt lat="46.71987" lon="-2.33972">
        <ele>5</ele>
        <time>2018-09-20T15:58:59.000Z</time>
      </trkpt>
      <trkpt lat="46.71987" lon="-2.33973">
        <ele>5</ele>
        <time>2018-09-20T15:59:00.000Z</time>
      </trkpt>
      <trkpt lat="46.71988" lon="-2.33974">
        <ele>5</ele>
        <time>2018-09-20T15:59:01.000Z</time>
      </trkpt>
      <trkpt lat="46.71988" lon="-2.33976">
        <ele>5</ele>
        <time>2018-09-20T15:59:02.000Z</time>
      </trkpt>
      <trkpt lat="46.71989" lon="-2.33977">
        <ele>5</ele>
        <time>2018-09-20T15:59:03.000Z</time>
      </trkpt>
      <trkpt lat="46.7199" lon="-2.33978">
        <ele>5</ele>
        <time>2018-09-20T15:59:04.000Z</time>
      </trkpt>
      <trkpt lat="46.7199" lon="-2.33979">
        <ele>5</ele>
        <time>2018-09-20T15:59:05.000Z</time>
      </trkpt>
      <trkpt lat="46.71991" lon="-2.3398">
        <ele>5</ele>
        <time>2018-09-20T15:59:06.000Z</time>
      </trkpt>
      <trkpt lat="46.71992" lon="-2.33982">
        <ele>5</ele>
        <time>2018-09-20T15:59:07.000Z</time>
      </trkpt>
      <trkpt lat="46.71992" lon="-2.33983">
        <ele>5</ele>
        <time>2018-09-20T15:59:08.000Z</time>
      </trkpt>
      <trkpt lat="46.71993" lon="-2.33984">
        <ele>5</ele>
        <time>2018-09-20T15:59:09.000Z</time>
      </trkpt>
      <trkpt lat="46.71993" lon="-2.33985">
        <ele>5</ele>
        <time>2018-09-20T15:59:10.000Z</time>
      </trkpt>
      <trkpt lat="46.71994" lon="-2.33987">
        <ele>5</ele>
        <time>2018-09-20T15:59:11.000Z</time>
      </trkpt>
      <trkpt lat="46.71995" lon="-2.33988">
        <ele>5</ele>
        <time>2018-09-20T15:59:12.000Z</time>
      </trkpt>
      <trkpt lat="46.71995" lon="-2.33989">
        <ele>5</ele>
        <time>2018-09-20T15:59:13.000Z</time>
      </trkpt>
      <trkpt lat="46.71996" lon="-2.3399">
        <ele>5</ele>
        <time>2018-09-20T15:59:14.000Z</time>
      </trkpt>
      <trkpt lat="46.71997" lon="-2.3399">
        <ele>5</ele>
        <time>2018-09-20T15:59:15.000Z</time>
      </trkpt>
      <trkpt lat="46.71997" lon="-2.33991">
        <ele>5</ele>
        <time>2018-09-20T15:59:16.000Z</time>
      </trkpt>
      <trkpt lat="46.71998" lon="-2.33992">
        <ele>5</ele>
        <time>2018-09-20T15:59:17.000Z</time>
      </trkpt>
      <trkpt lat="46.71998" lon="-2.33993">
        <ele>5</ele>
        <time>2018-09-20T15:59:18.000Z</time>
      </trkpt>
      <trkpt lat="46.71999" lon="-2.33993">
        <ele>5</ele>
        <time>2018-09-20T15:59:19.000Z</time>
      </trkpt>
      <trkpt lat="46.71999" lon="-2.33993">
        <ele>5</ele>
        <time>2018-09-20T15:59:20.000Z</time>
      </trkpt>
      <trkpt lat="46.71999" lon="-2.33994">
        <ele>5</ele>
        <time>2018-09-20T15:59:21.000Z</time>
      </trkpt>
      <trkpt lat="46.71999" lon="-2.33994">
        <ele>5</ele>
        <time>2018-09-20T15:59:22.000Z</time>
      </trkpt>
      <trkpt lat="46.71999" lon="-2.33994">
        <ele>5</ele>
        <time>2018-09-20T15:59:23.000Z</time>
      </trkpt>
      <trkpt lat="46.71999" lon="-2.33994">
        <ele>5</ele>
        <time>2018-09-20T15:59:24.000Z</time>
      </trkpt>
      <trkpt lat="46.71999" lon="-2.33994">
        <ele>5</ele>
        <time>2018-09-20T15:59:25.000Z</time>
      </trkpt>
      <trkpt lat="46.72" lon="-2.33994">
        <ele>5</ele>
        <time>2018-09-20T15:59:26.000Z</time>
      </trkpt>
      <trkpt lat="46.72" lon="-2.33995">
        <ele>5</ele>
        <time>2018-09-20T15:59:27.000Z</time>
      </trkpt>
      <trkpt lat="46.72001" lon="-2.33996">
        <ele>5</ele>
        <time>2018-09-20T15:59:28.000Z</time>
      </trkpt>
      <trkpt lat="46.72002" lon="-2.33997">
        <ele>5</ele>
        <time>2018-09-20T15:59:29.000Z</time>
      </trkpt>
      <trkpt lat="46.72003" lon="-2.33998">
        <ele>5</ele>
        <time>2018-09-20T15:59:30.000Z</time>
      </trkpt>
      <trkpt lat="46.72004" lon="-2.33999">
        <ele>5</ele>
        <time>2018-09-20T15:59:31.000Z</time>
      </trkpt>
      <trkpt lat="46.72006" lon="-2.34001">
        <ele>4.7</ele>
        <time>2018-09-20T15:59:32.000Z</time>
      </trkpt>
      <trkpt lat="46.72007" lon="-2.34002">
        <ele>4.7</ele>
        <time>2018-09-20T15:59:33.000Z</time>
      </trkpt>
      <trkpt lat="46.72008" lon="-2.34004">
        <ele>4.6</ele>
        <time>2018-09-20T15:59:34.000Z</time>
      </trkpt>
      <trkpt lat="46.72009" lon="-2.34005">
        <ele>4.6</ele>
        <time>2018-09-20T15:59:35.000Z</time>
      </trkpt>
      <trkpt lat="46.72009" lon="-2.34005">
        <ele>4.5</ele>
        <time>2018-09-20T15:59:36.000Z</time>
      </trkpt>
      <trkpt lat="46.72009" lon="-2.34005">
        <ele>4.5</ele>
        <time>2018-09-20T15:59:37.000Z</time>
      </trkpt>
      <trkpt lat="46.72009" lon="-2.34005">
        <ele>4.5</ele>
        <time>2018-09-20T15:59:38.000Z</time>
      </trkpt>
      <trkpt lat="46.7201" lon="-2.34006">
        <ele>4.5</ele>
        <time>2018-09-20T15:59:39.000Z</time>
      </trkpt>
      <trkpt lat="46.7201" lon="-2.34007">
        <ele>4.5</ele>
        <time>2018-09-20T15:59:40.000Z</time>
      </trkpt>
      <trkpt lat="46.72011" lon="-2.34009">
        <ele>4.4</ele>
        <time>2018-09-20T15:59:41.000Z</time>
      </trkpt>
      <trkpt lat="46.72012" lon="-2.3401">
        <ele>4.3</ele>
        <time>2018-09-20T15:59:42.000Z</time>
      </trkpt>
      <trkpt lat="46.72013" lon="-2.34012">
        <ele>4.3</ele>
        <time>2018-09-20T15:59:43.000Z</time>
      </trkpt>
      <trkpt lat="46.72015" lon="-2.34014">
        <ele>4.2</ele>
        <time>2018-09-20T15:59:44.000Z</time>
      </trkpt>
      <trkpt lat="46.72016" lon="-2.34015">
        <ele>4.2</ele>
        <time>2018-09-20T15:59:45.000Z</time>
      </trkpt>
      <trkpt lat="46.72017" lon="-2.34017">
        <ele>4.1</ele>
        <time>2018-09-20T15:59:46.000Z</time>
      </trkpt>
      <trkpt lat="46.72018" lon="-2.34018">
        <ele>4</ele>
        <time>2018-09-20T15:59:47.000Z</time>
      </trkpt>
      <trkpt lat="46.7202" lon="-2.3402">
        <ele>4</ele>
        <time>2018-09-20T15:59:48.000Z</time>
      </trkpt>
      <trkpt lat="46.72021" lon="-2.34021">
        <ele>3.9</ele>
        <time>2018-09-20T15:59:49.000Z</time>
      </trkpt>
      <trkpt lat="46.72022" lon="-2.34023">
        <ele>3.9</ele>
        <time>2018-09-20T15:59:50.000Z</time>
      </trkpt>
      <trkpt lat="46.72023" lon="-2.34024">
        <ele>3.8</ele>
        <time>2018-09-20T15:59:51.000Z</time>
      </trkpt>
      <trkpt lat="46.72024" lon="-2.34026">
        <ele>3.8</ele>
        <time>2018-09-20T15:59:52.000Z</time>
      </trkpt>
      <trkpt lat="46.72025" lon="-2.34027">
        <ele>3.8</ele>
        <time>2018-09-20T15:59:53.000Z</time>
      </trkpt>
      <trkpt lat="46.72026" lon="-2.34029">
        <ele>3.7</ele>
        <time>2018-09-20T15:59:54.000Z</time>
      </trkpt>
      <trkpt lat="46.72027" lon="-2.3403">
        <ele>3.7</ele>
        <time>2018-09-20T15:59:55.000Z</time>
      </trkpt>
      <trkpt lat="46.72028" lon="-2.34032">
        <ele>3.6</ele>
        <time>2018-09-20T15:59:56.000Z</time>
      </trkpt>
      <trkpt lat="46.72029" lon="-2.34033">
        <ele>3.6</ele>
        <time>2018-09-20T15:59:57.000Z</time>
      </trkpt>
      <trkpt lat="46.7203" lon="-2.34035">
        <ele>3.6</ele>
        <time>2018-09-20T15:59:58.000Z</time>
      </trkpt>
      <trkpt lat="46.72031" lon="-2.34037">
        <ele>3.6</ele>
        <time>2018-09-20T15:59:59.000Z</time>
      </trkpt>
      <trkpt lat="46.72032" lon="-2.34038">
        <ele>3.5</ele>
        <time>2018-09-20T16:00:00.000Z</time>
      </trkpt>
      <trkpt lat="46.72032" lon="-2.3404">
        <ele>3.5</ele>
        <time>2018-09-20T16:00:01.000Z</time>
      </trkpt>
      <trkpt lat="46.72033" lon="-2.34041">
        <ele>3.5</ele>
        <time>2018-09-20T16:00:02.000Z</time>
      </trkpt>
      <trkpt lat="46.72034" lon="-2.34043">
        <ele>3.5</ele>
        <time>2018-09-20T16:00:03.000Z</time>
      </trkpt>
      <trkpt lat="46.72035" lon="-2.34044">
        <ele>3.5</ele>
        <time>2018-09-20T16:00:04.000Z</time>
      </trkpt>
      <trkpt lat="46.72035" lon="-2.34045">
        <ele>3.5</ele>
        <time>2018-09-20T16:00:05.000Z</time>
      </trkpt>
      <trkpt lat="46.72036" lon="-2.34047">
        <ele>3.4</ele>
        <time>2018-09-20T16:00:06.000Z</time>
      </trkpt>
      <trkpt lat="46.72036" lon="-2.34048">
        <ele>3.4</ele>
        <time>2018-09-20T16:00:07.000Z</time>
      </trkpt>
      <trkpt lat="46.72037" lon="-2.34049">
        <ele>3.4</ele>
        <time>2018-09-20T16:00:08.000Z</time>
      </trkpt>
      <trkpt lat="46.72038" lon="-2.3405">
        <ele>3.4</ele>
        <time>2018-09-20T16:00:09.000Z</time>
      </trkpt>
      <trkpt lat="46.72038" lon="-2.34051">
        <ele>3.4</ele>
        <time>2018-09-20T16:00:10.000Z</time>
      </trkpt>
      <trkpt lat="46.72038" lon="-2.34052">
        <ele>3.4</ele>
        <time>2018-09-20T16:00:11.000Z</time>
      </trkpt>
      <trkpt lat="46.72039" lon="-2.34052">
        <ele>3.4</ele>
        <time>2018-09-20T16:00:12.000Z</time>
      </trkpt>
      <trkpt lat="46.72039" lon="-2.34053">
        <ele>3.4</ele>
        <time>2018-09-20T16:00:13.000Z</time>
      </trkpt>
      <trkpt lat="46.72039" lon="-2.34053">
        <ele>3.4</ele>
        <time>2018-09-20T16:00:14.000Z</time>
      </trkpt>
      <trkpt lat="46.7204" lon="-2.34054">
        <ele>3.4</ele>
        <time>2018-09-20T16:00:15.000Z</time>
      </trkpt>
      <trkpt lat="46.7204" lon="-2.34054">
        <ele>3.4</ele>
        <time>2018-09-20T16:00:16.000Z</time>
      </trkpt>
      <trkpt lat="46.7204" lon="-2.34055">
        <ele>3.4</ele>
        <time>2018-09-20T16:00:17.000Z</time>
      </trkpt>
      <trkpt lat="46.72041" lon="-2.34057">
        <ele>3.4</ele>
        <time>2018-09-20T16:00:18.000Z</time>
      </trkpt>
      <trkpt lat="46.72041" lon="-2.34058">
        <ele>3.4</ele>
        <time>2018-09-20T16:00:19.000Z</time>
      </trkpt>
      <trkpt lat="46.72042" lon="-2.3406">
        <ele>3.4</ele>
        <time>2018-09-20T16:00:20.000Z</time>
      </trkpt>
      <trkpt lat="46.72042" lon="-2.34062">
        <ele>3.4</ele>
        <time>2018-09-20T16:00:21.000Z</time>
      </trkpt>
      <trkpt lat="46.72043" lon="-2.34063">
        <ele>3.4</ele>
        <time>2018-09-20T16:00:22.000Z</time>
      </trkpt>
      <trkpt lat="46.72044" lon="-2.34065">
        <ele>3.4</ele>
        <time>2018-09-20T16:00:23.000Z</time>
      </trkpt>
      <trkpt lat="46.72044" lon="-2.34066">
        <ele>3.3</ele>
        <time>2018-09-20T16:00:24.000Z</time>
      </trkpt>
      <trkpt lat="46.72045" lon="-2.34067">
        <ele>3.3</ele>
        <time>2018-09-20T16:00:25.000Z</time>
      </trkpt>
      <trkpt lat="46.72046" lon="-2.34068">
        <ele>3.3</ele>
        <time>2018-09-20T16:00:26.000Z</time>
      </trkpt>
      <trkpt lat="46.72047" lon="-2.34069">
        <ele>3.3</ele>
        <time>2018-09-20T16:00:27.000Z</time>
      </trkpt>
      <trkpt lat="46.72048" lon="-2.3407">
        <ele>3.3</ele>
        <time>2018-09-20T16:00:28.000Z</time>
      </trkpt>
      <trkpt lat="46.72049" lon="-2.34071">
        <ele>3.3</ele>
        <time>2018-09-20T16:00:29.000Z</time>
      </trkpt>
      <trkpt lat="46.7205" lon="-2.34071">
        <ele>3.3</ele>
        <time>2018-09-20T16:00:30.000Z</time>
      </trkpt>
      <trkpt lat="46.7205" lon="-2.34072">
        <ele>3.3</ele>
        <time>2018-09-20T16:00:31.000Z</time>
      </trkpt>
      <trkpt lat="46.72051" lon="-2.34073">
        <ele>3.3</ele>
        <time>2018-09-20T16:00:32.000Z</time>
      </trkpt>
      <trkpt lat="46.72052" lon="-2.34074">
        <ele>3.3</ele>
        <time>2018-09-20T16:00:33.000Z</time>
      </trkpt>
      <trkpt lat="46.72052" lon="-2.34075">
        <ele>3.3</ele>
        <time>2018-09-20T16:00:34.000Z</time>
      </trkpt>
      <trkpt lat="46.72053" lon="-2.34075">
        <ele>3.3</ele>
        <time>2018-09-20T16:00:35.000Z</time>
      </trkpt>
      <trkpt lat="46.72053" lon="-2.34076">
        <ele>3.3</ele>
        <time>2018-09-20T16:00:36.000Z</time>
      </trkpt>
      <trkpt lat="46.72054" lon="-2.34077">
        <ele>3.3</ele>
        <time>2018-09-20T16:00:37.000Z</time>
      </trkpt>
      <trkpt lat="46.72054" lon="-2.34078">
        <ele>3.3</ele>
        <time>2018-09-20T16:00:38.000Z</time>
      </trkpt>
      <trkpt lat="46.72055" lon="-2.34078">
        <ele>3.3</ele>
        <time>2018-09-20T16:00:39.000Z</time>
      </trkpt>
      <trkpt lat="46.72056" lon="-2.34079">
        <ele>3.3</ele>
        <time>2018-09-20T16:00:40.000Z</time>
      </trkpt>
      <trkpt lat="46.72056" lon="-2.3408">
        <ele>3.3</ele>
        <time>2018-09-20T16:00:41.000Z</time>
      </trkpt>
      <trkpt lat="46.72057" lon="-2.3408">
        <ele>3.3</ele>
        <time>2018-09-20T16:00:42.000Z</time>
      </trkpt>
      <trkpt lat="46.72058" lon="-2.34081">
        <ele>3.3</ele>
        <time>2018-09-20T16:00:43.000Z</time>
      </trkpt>
      <trkpt lat="46.72059" lon="-2.34082">
        <ele>3.3</ele>
        <time>2018-09-20T16:00:44.000Z</time>
      </trkpt>
      <trkpt lat="46.7206" lon="-2.34082">
        <ele>3.3</ele>
        <time>2018-09-20T16:00:45.000Z</time>
      </trkpt>
      <trkpt lat="46.72061" lon="-2.34082">
        <ele>3.3</ele>
        <time>2018-09-20T16:00:46.000Z</time>
      </trkpt>
      <trkpt lat="46.72061" lon="-2.34083">
        <ele>3.3</ele>
        <time>2018-09-20T16:00:47.000Z</time>
      </trkpt>
      <trkpt lat="46.72062" lon="-2.34083">
        <ele>3.2</ele>
        <time>2018-09-20T16:00:48.000Z</time>
      </trkpt>
      <trkpt lat="46.72063" lon="-2.34083">
        <ele>3.2</ele>
        <time>2018-09-20T16:00:49.000Z</time>
      </trkpt>
      <trkpt lat="46.72064" lon="-2.34083">
        <ele>3.2</ele>
        <time>2018-09-20T16:00:50.000Z</time>
      </trkpt>
      <trkpt lat="46.72065" lon="-2.34083">
        <ele>3.2</ele>
        <time>2018-09-20T16:00:51.000Z</time>
      </trkpt>
      <trkpt lat="46.72065" lon="-2.34083">
        <ele>3.2</ele>
        <time>2018-09-20T16:00:52.000Z</time>
      </trkpt>
      <trkpt lat="46.72066" lon="-2.34083">
        <ele>3.2</ele>
        <time>2018-09-20T16:00:53.000Z</time>
      </trkpt>
      <trkpt lat="46.72067" lon="-2.34082">
        <ele>3.2</ele>
        <time>2018-09-20T16:00:54.000Z</time>
      </trkpt>
      <trkpt lat="46.72068" lon="-2.34082">
        <ele>3.2</ele>
        <time>2018-09-20T16:00:55.000Z</time>
      </trkpt>
      <trkpt lat="46.72068" lon="-2.34081">
        <ele>3.1</ele>
        <time>2018-09-20T16:00:56.000Z</time>
      </trkpt>
      <trkpt lat="46.72069" lon="-2.34081">
        <ele>3.1</ele>
        <time>2018-09-20T16:00:57.000Z</time>
      </trkpt>
      <trkpt lat="46.72069" lon="-2.3408">
        <ele>3.1</ele>
        <time>2018-09-20T16:00:58.000Z</time>
      </trkpt>
      <trkpt lat="46.7207" lon="-2.34079">
        <ele>3.1</ele>
        <time>2018-09-20T16:00:59.000Z</time>
      </trkpt>
      <trkpt lat="46.72071" lon="-2.34079">
        <ele>3.1</ele>
        <time>2018-09-20T16:01:00.000Z</time>
      </trkpt>
      <trkpt lat="46.72072" lon="-2.34078">
        <ele>3</ele>
        <time>2018-09-20T16:01:01.000Z</time>
      </trkpt>
      <trkpt lat="46.72072" lon="-2.34078">
        <ele>3</ele>
        <time>2018-09-20T16:01:02.000Z</time>
      </trkpt>
      <trkpt lat="46.72073" lon="-2.34077">
        <ele>3</ele>
        <time>2018-09-20T16:01:03.000Z</time>
      </trkpt>
      <trkpt lat="46.72074" lon="-2.34077">
        <ele>3</ele>
        <time>2018-09-20T16:01:04.000Z</time>
      </trkpt>
      <trkpt lat="46.72075" lon="-2.34076">
        <ele>3</ele>
        <time>2018-09-20T16:01:05.000Z</time>
      </trkpt>
      <trkpt lat="46.72076" lon="-2.34076">
        <ele>2.9</ele>
        <time>2018-09-20T16:01:06.000Z</time>
      </trkpt>
      <trkpt lat="46.72077" lon="-2.34076">
        <ele>2.9</ele>
        <time>2018-09-20T16:01:07.000Z</time>
      </trkpt>
      <trkpt lat="46.72078" lon="-2.34075">
        <ele>2.9</ele>
        <time>2018-09-20T16:01:08.000Z</time>
      </trkpt>
      <trkpt lat="46.72079" lon="-2.34075">
        <ele>2.9</ele>
        <time>2018-09-20T16:01:09.000Z</time>
      </trkpt>
      <trkpt lat="46.72081" lon="-2.34075">
        <ele>2.8</ele>
        <time>2018-09-20T16:01:10.000Z</time>
      </trkpt>
      <trkpt lat="46.72082" lon="-2.34075">
        <ele>2.8</ele>
        <time>2018-09-20T16:01:11.000Z</time>
      </trkpt>
      <trkpt lat="46.72083" lon="-2.34074">
        <ele>2.8</ele>
        <time>2018-09-20T16:01:12.000Z</time>
      </trkpt>
      <trkpt lat="46.72084" lon="-2.34074">
        <ele>3</ele>
        <time>2018-09-20T16:01:13.000Z</time>
      </trkpt>
      <trkpt lat="46.72085" lon="-2.34074">
        <ele>3</ele>
        <time>2018-09-20T16:01:14.000Z</time>
      </trkpt>
      <trkpt lat="46.72086" lon="-2.34073">
        <ele>3</ele>
        <time>2018-09-20T16:01:15.000Z</time>
      </trkpt>
      <trkpt lat="46.72087" lon="-2.34073">
        <ele>3</ele>
        <time>2018-09-20T16:01:16.000Z</time>
      </trkpt>
      <trkpt lat="46.72088" lon="-2.34073">
        <ele>3</ele>
        <time>2018-09-20T16:01:17.000Z</time>
      </trkpt>
      <trkpt lat="46.72089" lon="-2.34072">
        <ele>3</ele>
        <time>2018-09-20T16:01:18.000Z</time>
      </trkpt>
      <trkpt lat="46.7209" lon="-2.34072">
        <ele>3</ele>
        <time>2018-09-20T16:01:19.000Z</time>
      </trkpt>
      <trkpt lat="46.72091" lon="-2.34072">
        <ele>3</ele>
        <time>2018-09-20T16:01:20.000Z</time>
      </trkpt>
      <trkpt lat="46.72092" lon="-2.34071">
        <ele>3</ele>
        <time>2018-09-20T16:01:21.000Z</time>
      </trkpt>
      <trkpt lat="46.72093" lon="-2.34071">
        <ele>3</ele>
        <time>2018-09-20T16:01:22.000Z</time>
      </trkpt>
      <trkpt lat="46.72094" lon="-2.34071">
        <ele>3</ele>
        <time>2018-09-20T16:01:23.000Z</time>
      </trkpt>
      <trkpt lat="46.72095" lon="-2.34071">
        <ele>3</ele>
        <time>2018-09-20T16:01:24.000Z</time>
      </trkpt>
      <trkpt lat="46.72096" lon="-2.34071">
        <ele>3</ele>
        <time>2018-09-20T16:01:25.000Z</time>
      </trkpt>
      <trkpt lat="46.72097" lon="-2.34072">
        <ele>3</ele>
        <time>2018-09-20T16:01:26.000Z</time>
      </trkpt>
      <trkpt lat="46.72098" lon="-2.34072">
        <ele>3</ele>
        <time>2018-09-20T16:01:27.000Z</time>
      </trkpt>
      <trkpt lat="46.72099" lon="-2.34072">
        <ele>3</ele>
        <time>2018-09-20T16:01:28.000Z</time>
      </trkpt>
      <trkpt lat="46.721" lon="-2.34073">
        <ele>3</ele>
        <time>2018-09-20T16:01:29.000Z</time>
      </trkpt>
      <trkpt lat="46.72101" lon="-2.34074">
        <ele>3</ele>
        <time>2018-09-20T16:01:30.000Z</time>
      </trkpt>
      <trkpt lat="46.72102" lon="-2.34074">
        <ele>3</ele>
        <time>2018-09-20T16:01:31.000Z</time>
      </trkpt>
      <trkpt lat="46.72103" lon="-2.34075">
        <ele>3</ele>
        <time>2018-09-20T16:01:32.000Z</time>
      </trkpt>
      <trkpt lat="46.72104" lon="-2.34076">
        <ele>3</ele>
        <time>2018-09-20T16:01:33.000Z</time>
      </trkpt>
      <trkpt lat="46.72105" lon="-2.34076">
        <ele>3</ele>
        <time>2018-09-20T16:01:34.000Z</time>
      </trkpt>
      <trkpt lat="46.72106" lon="-2.34077">
        <ele>3</ele>
        <time>2018-09-20T16:01:35.000Z</time>
      </trkpt>
      <trkpt lat="46.72107" lon="-2.34078">
        <ele>3</ele>
        <time>2018-09-20T16:01:36.000Z</time>
      </trkpt>
      <trkpt lat="46.72108" lon="-2.34079">
        <ele>3</ele>
        <time>2018-09-20T16:01:37.000Z</time>
      </trkpt>
      <trkpt lat="46.72109" lon="-2.34079">
        <ele>3</ele>
        <time>2018-09-20T16:01:38.000Z</time>
      </trkpt>
      <trkpt lat="46.7211" lon="-2.3408">
        <ele>3</ele>
        <time>2018-09-20T16:01:39.000Z</time>
      </trkpt>
      <trkpt lat="46.72111" lon="-2.34081">
        <ele>3</ele>
        <time>2018-09-20T16:01:40.000Z</time>
      </trkpt>
      <trkpt lat="46.72112" lon="-2.34081">
        <ele>3</ele>
        <time>2018-09-20T16:01:41.000Z</time>
      </trkpt>
      <trkpt lat="46.72113" lon="-2.34082">
        <ele>3</ele>
        <time>2018-09-20T16:01:42.000Z</time>
      </trkpt>
      <trkpt lat="46.72114" lon="-2.34083">
        <ele>3</ele>
        <time>2018-09-20T16:01:43.000Z</time>
      </trkpt>
      <trkpt lat="46.72115" lon="-2.34083">
        <ele>3</ele>
        <time>2018-09-20T16:01:44.000Z</time>
      </trkpt>
      <trkpt lat="46.72116" lon="-2.34084">
        <ele>2.6</ele>
        <time>2018-09-20T16:01:45.000Z</time>
      </trkpt>
      <trkpt lat="46.72117" lon="-2.34085">
        <ele>2.6</ele>
        <time>2018-09-20T16:01:46.000Z</time>
      </trkpt>
      <trkpt lat="46.72118" lon="-2.34085">
        <ele>2.6</ele>
        <time>2018-09-20T16:01:47.000Z</time>
      </trkpt>
      <trkpt lat="46.72119" lon="-2.34086">
        <ele>2.6</ele>
        <time>2018-09-20T16:01:48.000Z</time>
      </trkpt>
      <trkpt lat="46.7212" lon="-2.34086">
        <ele>2.6</ele>
        <time>2018-09-20T16:01:49.000Z</time>
      </trkpt>
      <trkpt lat="46.72122" lon="-2.34087">
        <ele>2.6</ele>
        <time>2018-09-20T16:01:50.000Z</time>
      </trkpt>
      <trkpt lat="46.72123" lon="-2.34087">
        <ele>2.6</ele>
        <time>2018-09-20T16:01:51.000Z</time>
      </trkpt>
      <trkpt lat="46.72124" lon="-2.34088">
        <ele>2.6</ele>
        <time>2018-09-20T16:01:52.000Z</time>
      </trkpt>
      <trkpt lat="46.72125" lon="-2.34088">
        <ele>2.6</ele>
        <time>2018-09-20T16:01:53.000Z</time>
      </trkpt>
      <trkpt lat="46.72126" lon="-2.34089">
        <ele>2.7</ele>
        <time>2018-09-20T16:01:54.000Z</time>
      </trkpt>
      <trkpt lat="46.72127" lon="-2.34089">
        <ele>2.7</ele>
        <time>2018-09-20T16:01:55.000Z</time>
      </trkpt>
      <trkpt lat="46.72128" lon="-2.3409">
        <ele>2.7</ele>
        <time>2018-09-20T16:01:56.000Z</time>
      </trkpt>
      <trkpt lat="46.72129" lon="-2.3409">
        <ele>2.7</ele>
        <time>2018-09-20T16:01:57.000Z</time>
      </trkpt>
      <trkpt lat="46.7213" lon="-2.3409">
        <ele>2.7</ele>
        <time>2018-09-20T16:01:58.000Z</time>
      </trkpt>
      <trkpt lat="46.72131" lon="-2.34091">
        <ele>2.7</ele>
        <time>2018-09-20T16:01:59.000Z</time>
      </trkpt>
      <trkpt lat="46.72132" lon="-2.34091">
        <ele>2.7</ele>
        <time>2018-09-20T16:02:00.000Z</time>
      </trkpt>
      <trkpt lat="46.72133" lon="-2.34092">
        <ele>2.7</ele>
        <time>2018-09-20T16:02:01.000Z</time>
      </trkpt>
      <trkpt lat="46.72134" lon="-2.34092">
        <ele>2.7</ele>
        <time>2018-09-20T16:02:02.000Z</time>
      </trkpt>
      <trkpt lat="46.72135" lon="-2.34093">
        <ele>2.7</ele>
        <time>2018-09-20T16:02:03.000Z</time>
      </trkpt>
      <trkpt lat="46.72136" lon="-2.34093">
        <ele>2.7</ele>
        <time>2018-09-20T16:02:04.000Z</time>
      </trkpt>
      <trkpt lat="46.72136" lon="-2.34094">
        <ele>2.7</ele>
        <time>2018-09-20T16:02:05.000Z</time>
      </trkpt>
      <trkpt lat="46.72137" lon="-2.34094">
        <ele>2.7</ele>
        <time>2018-09-20T16:02:06.000Z</time>
      </trkpt>
      <trkpt lat="46.72138" lon="-2.34095">
        <ele>2.7</ele>
        <time>2018-09-20T16:02:07.000Z</time>
      </trkpt>
      <trkpt lat="46.72139" lon="-2.34095">
        <ele>2.7</ele>
        <time>2018-09-20T16:02:08.000Z</time>
      </trkpt>
      <trkpt lat="46.7214" lon="-2.34096">
        <ele>2.7</ele>
        <time>2018-09-20T16:02:09.000Z</time>
      </trkpt>
      <trkpt lat="46.72141" lon="-2.34096">
        <ele>2.7</ele>
        <time>2018-09-20T16:02:10.000Z</time>
      </trkpt>
      <trkpt lat="46.72142" lon="-2.34096">
        <ele>2.7</ele>
        <time>2018-09-20T16:02:11.000Z</time>
      </trkpt>
      <trkpt lat="46.72143" lon="-2.34097">
        <ele>2.7</ele>
        <time>2018-09-20T16:02:12.000Z</time>
      </trkpt>
      <trkpt lat="46.72144" lon="-2.34097">
        <ele>2.7</ele>
        <time>2018-09-20T16:02:13.000Z</time>
      </trkpt>
      <trkpt lat="46.72145" lon="-2.34098">
        <ele>2.7</ele>
        <time>2018-09-20T16:02:14.000Z</time>
      </trkpt>
      <trkpt lat="46.72147" lon="-2.34098">
        <ele>2.7</ele>
        <time>2018-09-20T16:02:15.000Z</time>
      </trkpt>
      <trkpt lat="46.72148" lon="-2.34099">
        <ele>2.7</ele>
        <time>2018-09-20T16:02:16.000Z</time>
      </trkpt>
      <trkpt lat="46.72149" lon="-2.34099">
        <ele>2.7</ele>
        <time>2018-09-20T16:02:17.000Z</time>
      </trkpt>
      <trkpt lat="46.7215" lon="-2.34099">
        <ele>2.7</ele>
        <time>2018-09-20T16:02:18.000Z</time>
      </trkpt>
      <trkpt lat="46.72151" lon="-2.341">
        <ele>2.7</ele>
        <time>2018-09-20T16:02:19.000Z</time>
      </trkpt>
      <trkpt lat="46.72152" lon="-2.34101">
        <ele>2.8</ele>
        <time>2018-09-20T16:02:20.000Z</time>
      </trkpt>
      <trkpt lat="46.72153" lon="-2.34101">
        <ele>2.8</ele>
        <time>2018-09-20T16:02:21.000Z</time>
      </trkpt>
      <trkpt lat="46.72154" lon="-2.34102">
        <ele>2.8</ele>
        <time>2018-09-20T16:02:22.000Z</time>
      </trkpt>
      <trkpt lat="46.72155" lon="-2.34103">
        <ele>2.8</ele>
        <time>2018-09-20T16:02:23.000Z</time>
      </trkpt>
      <trkpt lat="46.72156" lon="-2.34104">
        <ele>2.8</ele>
        <time>2018-09-20T16:02:24.000Z</time>
      </trkpt>
      <trkpt lat="46.72157" lon="-2.34104">
        <ele>2.8</ele>
        <time>2018-09-20T16:02:25.000Z</time>
      </trkpt>
      <trkpt lat="46.72158" lon="-2.34105">
        <ele>2.9</ele>
        <time>2018-09-20T16:02:26.000Z</time>
      </trkpt>
      <trkpt lat="46.72159" lon="-2.34107">
        <ele>2.9</ele>
        <time>2018-09-20T16:02:27.000Z</time>
      </trkpt>
      <trkpt lat="46.72159" lon="-2.34108">
        <ele>2.9</ele>
        <time>2018-09-20T16:02:28.000Z</time>
      </trkpt>
      <trkpt lat="46.7216" lon="-2.34109">
        <ele>3</ele>
        <time>2018-09-20T16:02:29.000Z</time>
      </trkpt>
      <trkpt lat="46.72161" lon="-2.3411">
        <ele>3</ele>
        <time>2018-09-20T16:02:30.000Z</time>
      </trkpt>
      <trkpt lat="46.72162" lon="-2.34111">
        <ele>3</ele>
        <time>2018-09-20T16:02:31.000Z</time>
      </trkpt>
      <trkpt lat="46.72162" lon="-2.34112">
        <ele>3.1</ele>
        <time>2018-09-20T16:02:32.000Z</time>
      </trkpt>
      <trkpt lat="46.72163" lon="-2.34114">
        <ele>3.1</ele>
        <time>2018-09-20T16:02:33.000Z</time>
      </trkpt>
      <trkpt lat="46.72164" lon="-2.34115">
        <ele>3.2</ele>
        <time>2018-09-20T16:02:34.000Z</time>
      </trkpt>
      <trkpt lat="46.72165" lon="-2.34116">
        <ele>3.2</ele>
        <time>2018-09-20T16:02:35.000Z</time>
      </trkpt>
      <trkpt lat="46.72166" lon="-2.34117">
        <ele>3.2</ele>
        <time>2018-09-20T16:02:36.000Z</time>
      </trkpt>
      <trkpt lat="46.72167" lon="-2.34119">
        <ele>3.3</ele>
        <time>2018-09-20T16:02:37.000Z</time>
      </trkpt>
      <trkpt lat="46.72167" lon="-2.3412">
        <ele>2</ele>
        <time>2018-09-20T16:02:38.000Z</time>
      </trkpt>
      <trkpt lat="46.72168" lon="-2.34121">
        <ele>2</ele>
        <time>2018-09-20T16:02:39.000Z</time>
      </trkpt>
      <trkpt lat="46.72169" lon="-2.34122">
        <ele>2</ele>
        <time>2018-09-20T16:02:40.000Z</time>
      </trkpt>
      <trkpt lat="46.72169" lon="-2.34123">
        <ele>2</ele>
        <time>2018-09-20T16:02:41.000Z</time>
      </trkpt>
      <trkpt lat="46.72169" lon="-2.34124">
        <ele>2</ele>
        <time>2018-09-20T16:02:42.000Z</time>
      </trkpt>
      <trkpt lat="46.72169" lon="-2.34125">
        <ele>2</ele>
        <time>2018-09-20T16:02:43.000Z</time>
      </trkpt>
      <trkpt lat="46.7217" lon="-2.34126">
        <ele>5</ele>
        <time>2018-09-20T16:02:44.000Z</time>
      </trkpt>
      <trkpt lat="46.7217" lon="-2.34126">
        <ele>5</ele>
        <time>2018-09-20T16:02:45.000Z</time>
      </trkpt>
      <trkpt lat="46.7217" lon="-2.34127">
        <ele>5</ele>
        <time>2018-09-20T16:02:46.000Z</time>
      </trkpt>
      <trkpt lat="46.72171" lon="-2.34128">
        <ele>5</ele>
        <time>2018-09-20T16:02:47.000Z</time>
      </trkpt>
      <trkpt lat="46.72171" lon="-2.34129">
        <ele>5</ele>
        <time>2018-09-20T16:02:48.000Z</time>
      </trkpt>
      <trkpt lat="46.72172" lon="-2.3413">
        <ele>5</ele>
        <time>2018-09-20T16:02:49.000Z</time>
      </trkpt>
      <trkpt lat="46.72173" lon="-2.34132">
        <ele>5</ele>
        <time>2018-09-20T16:02:50.000Z</time>
      </trkpt>
      <trkpt lat="46.72173" lon="-2.34133">
        <ele>5</ele>
        <time>2018-09-20T16:02:51.000Z</time>
      </trkpt>
      <trkpt lat="46.72174" lon="-2.34135">
        <ele>5</ele>
        <time>2018-09-20T16:02:52.000Z</time>
      </trkpt>
      <trkpt lat="46.72175" lon="-2.34136">
        <ele>5</ele>
        <time>2018-09-20T16:02:53.000Z</time>
      </trkpt>
      <trkpt lat="46.72175" lon="-2.34138">
        <ele>5</ele>
        <time>2018-09-20T16:02:54.000Z</time>
      </trkpt>
      <trkpt lat="46.72176" lon="-2.34139">
        <ele>5</ele>
        <time>2018-09-20T16:02:55.000Z</time>
      </trkpt>
      <trkpt lat="46.72176" lon="-2.34141">
        <ele>5</ele>
        <time>2018-09-20T16:02:56.000Z</time>
      </trkpt>
      <trkpt lat="46.72177" lon="-2.34142">
        <ele>5</ele>
        <time>2018-09-20T16:02:57.000Z</time>
      </trkpt>
      <trkpt lat="46.72178" lon="-2.34144">
        <ele>5</ele>
        <time>2018-09-20T16:02:58.000Z</time>
      </trkpt>
      <trkpt lat="46.72178" lon="-2.34145">
        <ele>5</ele>
        <time>2018-09-20T16:02:59.000Z</time>
      </trkpt>
      <trkpt lat="46.72179" lon="-2.34146">
        <ele>5</ele>
        <time>2018-09-20T16:03:00.000Z</time>
      </trkpt>
      <trkpt lat="46.7218" lon="-2.34148">
        <ele>5</ele>
        <time>2018-09-20T16:03:01.000Z</time>
      </trkpt>
      <trkpt lat="46.7218" lon="-2.34149">
        <ele>5</ele>
        <time>2018-09-20T16:03:02.000Z</time>
      </trkpt>
      <trkpt lat="46.72181" lon="-2.34151">
        <ele>5</ele>
        <time>2018-09-20T16:03:03.000Z</time>
      </trkpt>
      <trkpt lat="46.72181" lon="-2.34152">
        <ele>5</ele>
        <time>2018-09-20T16:03:04.000Z</time>
      </trkpt>
      <trkpt lat="46.72182" lon="-2.34153">
        <ele>5</ele>
        <time>2018-09-20T16:03:05.000Z</time>
      </trkpt>
      <trkpt lat="46.72183" lon="-2.34155">
        <ele>5</ele>
        <time>2018-09-20T16:03:06.000Z</time>
      </trkpt>
      <trkpt lat="46.72183" lon="-2.34156">
        <ele>5</ele>
        <time>2018-09-20T16:03:07.000Z</time>
      </trkpt>
      <trkpt lat="46.72184" lon="-2.34158">
        <ele>5</ele>
        <time>2018-09-20T16:03:08.000Z</time>
      </trkpt>
      <trkpt lat="46.72184" lon="-2.34159">
        <ele>5</ele>
        <time>2018-09-20T16:03:09.000Z</time>
      </trkpt>
      <trkpt lat="46.72185" lon="-2.34161">
        <ele>5</ele>
        <time>2018-09-20T16:03:10.000Z</time>
      </trkpt>
      <trkpt lat="46.72186" lon="-2.34162">
        <ele>5</ele>
        <time>2018-09-20T16:03:11.000Z</time>
      </trkpt>
      <trkpt lat="46.72186" lon="-2.34164">
        <ele>5</ele>
        <time>2018-09-20T16:03:12.000Z</time>
      </trkpt>
      <trkpt lat="46.72187" lon="-2.34165">
        <ele>5</ele>
        <time>2018-09-20T16:03:13.000Z</time>
      </trkpt>
      <trkpt lat="46.72187" lon="-2.34167">
        <ele>5</ele>
        <time>2018-09-20T16:03:14.000Z</time>
      </trkpt>
      <trkpt lat="46.72188" lon="-2.34168">
        <ele>4</ele>
        <time>2018-09-20T16:03:15.000Z</time>
      </trkpt>
      <trkpt lat="46.72189" lon="-2.3417">
        <ele>4</ele>
        <time>2018-09-20T16:03:16.000Z</time>
      </trkpt>
      <trkpt lat="46.72189" lon="-2.34171">
        <ele>4</ele>
        <time>2018-09-20T16:03:17.000Z</time>
      </trkpt>
      <trkpt lat="46.7219" lon="-2.34173">
        <ele>4</ele>
        <time>2018-09-20T16:03:18.000Z</time>
      </trkpt>
      <trkpt lat="46.7219" lon="-2.34174">
        <ele>3.9</ele>
        <time>2018-09-20T16:03:19.000Z</time>
      </trkpt>
      <trkpt lat="46.72191" lon="-2.34176">
        <ele>3.9</ele>
        <time>2018-09-20T16:03:20.000Z</time>
      </trkpt>
      <trkpt lat="46.72192" lon="-2.34177">
        <ele>3.9</ele>
        <time>2018-09-20T16:03:21.000Z</time>
      </trkpt>
      <trkpt lat="46.72192" lon="-2.34178">
        <ele>3.9</ele>
        <time>2018-09-20T16:03:22.000Z</time>
      </trkpt>
      <trkpt lat="46.72193" lon="-2.3418">
        <ele>3.9</ele>
        <time>2018-09-20T16:03:23.000Z</time>
      </trkpt>
      <trkpt lat="46.72194" lon="-2.34181">
        <ele>3.9</ele>
        <time>2018-09-20T16:03:24.000Z</time>
      </trkpt>
      <trkpt lat="46.72194" lon="-2.34182">
        <ele>3.9</ele>
        <time>2018-09-20T16:03:25.000Z</time>
      </trkpt>
      <trkpt lat="46.72195" lon="-2.34183">
        <ele>3.9</ele>
        <time>2018-09-20T16:03:26.000Z</time>
      </trkpt>
      <trkpt lat="46.72195" lon="-2.34185">
        <ele>3.8</ele>
        <time>2018-09-20T16:03:27.000Z</time>
      </trkpt>
      <trkpt lat="46.72196" lon="-2.34186">
        <ele>3.8</ele>
        <time>2018-09-20T16:03:28.000Z</time>
      </trkpt>
      <trkpt lat="46.72197" lon="-2.34187">
        <ele>3.8</ele>
        <time>2018-09-20T16:03:29.000Z</time>
      </trkpt>
      <trkpt lat="46.72197" lon="-2.34188">
        <ele>3.8</ele>
        <time>2018-09-20T16:03:30.000Z</time>
      </trkpt>
      <trkpt lat="46.72198" lon="-2.34189">
        <ele>3.8</ele>
        <time>2018-09-20T16:03:31.000Z</time>
      </trkpt>
      <trkpt lat="46.72198" lon="-2.34191">
        <ele>3.8</ele>
        <time>2018-09-20T16:03:32.000Z</time>
      </trkpt>
      <trkpt lat="46.72199" lon="-2.34192">
        <ele>3.8</ele>
        <time>2018-09-20T16:03:33.000Z</time>
      </trkpt>
      <trkpt lat="46.722" lon="-2.34193">
        <ele>3.8</ele>
        <time>2018-09-20T16:03:34.000Z</time>
      </trkpt>
      <trkpt lat="46.722" lon="-2.34194">
        <ele>3.8</ele>
        <time>2018-09-20T16:03:35.000Z</time>
      </trkpt>
      <trkpt lat="46.72201" lon="-2.34195">
        <ele>3.8</ele>
        <time>2018-09-20T16:03:36.000Z</time>
      </trkpt>
      <trkpt lat="46.72201" lon="-2.34197">
        <ele>3.8</ele>
        <time>2018-09-20T16:03:37.000Z</time>
      </trkpt>
      <trkpt lat="46.72202" lon="-2.34198">
        <ele>3.8</ele>
        <time>2018-09-20T16:03:38.000Z</time>
      </trkpt>
      <trkpt lat="46.72202" lon="-2.34199">
        <ele>3.8</ele>
        <time>2018-09-20T16:03:39.000Z</time>
      </trkpt>
      <trkpt lat="46.72203" lon="-2.342">
        <ele>3.8</ele>
        <time>2018-09-20T16:03:40.000Z</time>
      </trkpt>
      <trkpt lat="46.72203" lon="-2.34202">
        <ele>3.8</ele>
        <time>2018-09-20T16:03:41.000Z</time>
      </trkpt>
      <trkpt lat="46.72204" lon="-2.34203">
        <ele>3.8</ele>
        <time>2018-09-20T16:03:42.000Z</time>
      </trkpt>
      <trkpt lat="46.72204" lon="-2.34204">
        <ele>3.8</ele>
        <time>2018-09-20T16:03:43.000Z</time>
      </trkpt>
      <trkpt lat="46.72205" lon="-2.34205">
        <ele>3.8</ele>
        <time>2018-09-20T16:03:44.000Z</time>
      </trkpt>
      <trkpt lat="46.72206" lon="-2.34207">
        <ele>3.8</ele>
        <time>2018-09-20T16:03:45.000Z</time>
      </trkpt>
      <trkpt lat="46.72206" lon="-2.34208">
        <ele>3.8</ele>
        <time>2018-09-20T16:03:46.000Z</time>
      </trkpt>
      <trkpt lat="46.72207" lon="-2.34209">
        <ele>3.8</ele>
        <time>2018-09-20T16:03:47.000Z</time>
      </trkpt>
      <trkpt lat="46.72208" lon="-2.34211">
        <ele>3.8</ele>
        <time>2018-09-20T16:03:48.000Z</time>
      </trkpt>
      <trkpt lat="46.72208" lon="-2.34212">
        <ele>3.8</ele>
        <time>2018-09-20T16:03:49.000Z</time>
      </trkpt>
      <trkpt lat="46.72209" lon="-2.34213">
        <ele>3.8</ele>
        <time>2018-09-20T16:03:50.000Z</time>
      </trkpt>
      <trkpt lat="46.7221" lon="-2.34214">
        <ele>3.8</ele>
        <time>2018-09-20T16:03:51.000Z</time>
      </trkpt>
      <trkpt lat="46.72211" lon="-2.34216">
        <ele>3.8</ele>
        <time>2018-09-20T16:03:52.000Z</time>
      </trkpt>
      <trkpt lat="46.72212" lon="-2.34217">
        <ele>3.8</ele>
        <time>2018-09-20T16:03:53.000Z</time>
      </trkpt>
      <trkpt lat="46.72212" lon="-2.34218">
        <ele>3.8</ele>
        <time>2018-09-20T16:03:54.000Z</time>
      </trkpt>
      <trkpt lat="46.72213" lon="-2.34219">
        <ele>3.8</ele>
        <time>2018-09-20T16:03:55.000Z</time>
      </trkpt>
      <trkpt lat="46.72214" lon="-2.3422">
        <ele>3.8</ele>
        <time>2018-09-20T16:03:56.000Z</time>
      </trkpt>
      <trkpt lat="46.72215" lon="-2.34221">
        <ele>3.8</ele>
        <time>2018-09-20T16:03:57.000Z</time>
      </trkpt>
      <trkpt lat="46.72216" lon="-2.34222">
        <ele>3.8</ele>
        <time>2018-09-20T16:03:58.000Z</time>
      </trkpt>
      <trkpt lat="46.72217" lon="-2.34223">
        <ele>3.8</ele>
        <time>2018-09-20T16:03:59.000Z</time>
      </trkpt>
      <trkpt lat="46.72218" lon="-2.34224">
        <ele>3.8</ele>
        <time>2018-09-20T16:04:00.000Z</time>
      </trkpt>
      <trkpt lat="46.72219" lon="-2.34225">
        <ele>3.8</ele>
        <time>2018-09-20T16:04:01.000Z</time>
      </trkpt>
      <trkpt lat="46.7222" lon="-2.34226">
        <ele>3.8</ele>
        <time>2018-09-20T16:04:02.000Z</time>
      </trkpt>
      <trkpt lat="46.7222" lon="-2.34227">
        <ele>3.8</ele>
        <time>2018-09-20T16:04:03.000Z</time>
      </trkpt>
      <trkpt lat="46.72221" lon="-2.34228">
        <ele>3.8</ele>
        <time>2018-09-20T16:04:04.000Z</time>
      </trkpt>
      <trkpt lat="46.72222" lon="-2.34228">
        <ele>3.8</ele>
        <time>2018-09-20T16:04:05.000Z</time>
      </trkpt>
      <trkpt lat="46.72223" lon="-2.34229">
        <ele>3.8</ele>
        <time>2018-09-20T16:04:06.000Z</time>
      </trkpt>
      <trkpt lat="46.72224" lon="-2.3423">
        <ele>3.8</ele>
        <time>2018-09-20T16:04:07.000Z</time>
      </trkpt>
      <trkpt lat="46.72226" lon="-2.3423">
        <ele>3.8</ele>
        <time>2018-09-20T16:04:08.000Z</time>
      </trkpt>
      <trkpt lat="46.72227" lon="-2.34231">
        <ele>3.8</ele>
        <time>2018-09-20T16:04:09.000Z</time>
      </trkpt>
      <trkpt lat="46.72228" lon="-2.34231">
        <ele>3.8</ele>
        <time>2018-09-20T16:04:10.000Z</time>
      </trkpt>
      <trkpt lat="46.72229" lon="-2.34232">
        <ele>3.8</ele>
        <time>2018-09-20T16:04:11.000Z</time>
      </trkpt>
      <trkpt lat="46.7223" lon="-2.34232">
        <ele>3.8</ele>
        <time>2018-09-20T16:04:12.000Z</time>
      </trkpt>
      <trkpt lat="46.72231" lon="-2.34233">
        <ele>3.8</ele>
        <time>2018-09-20T16:04:13.000Z</time>
      </trkpt>
      <trkpt lat="46.72232" lon="-2.34233">
        <ele>3.7</ele>
        <time>2018-09-20T16:04:14.000Z</time>
      </trkpt>
      <trkpt lat="46.72233" lon="-2.34234">
        <ele>3.7</ele>
        <time>2018-09-20T16:04:15.000Z</time>
      </trkpt>
      <trkpt lat="46.72234" lon="-2.34234">
        <ele>3.7</ele>
        <time>2018-09-20T16:04:16.000Z</time>
      </trkpt>
      <trkpt lat="46.72235" lon="-2.34235">
        <ele>3.7</ele>
        <time>2018-09-20T16:04:17.000Z</time>
      </trkpt>
      <trkpt lat="46.72236" lon="-2.34235">
        <ele>3.7</ele>
        <time>2018-09-20T16:04:18.000Z</time>
      </trkpt>
      <trkpt lat="46.72237" lon="-2.34236">
        <ele>3.7</ele>
        <time>2018-09-20T16:04:19.000Z</time>
      </trkpt>
      <trkpt lat="46.72238" lon="-2.34236">
        <ele>3.7</ele>
        <time>2018-09-20T16:04:20.000Z</time>
      </trkpt>
      <trkpt lat="46.72239" lon="-2.34237">
        <ele>3.7</ele>
        <time>2018-09-20T16:04:21.000Z</time>
      </trkpt>
      <trkpt lat="46.7224" lon="-2.34238">
        <ele>3.7</ele>
        <time>2018-09-20T16:04:22.000Z</time>
      </trkpt>
      <trkpt lat="46.72241" lon="-2.34238">
        <ele>3.7</ele>
        <time>2018-09-20T16:04:23.000Z</time>
      </trkpt>
      <trkpt lat="46.72242" lon="-2.34239">
        <ele>3.7</ele>
        <time>2018-09-20T16:04:24.000Z</time>
      </trkpt>
      <trkpt lat="46.72243" lon="-2.3424">
        <ele>3.7</ele>
        <time>2018-09-20T16:04:25.000Z</time>
      </trkpt>
      <trkpt lat="46.72244" lon="-2.3424">
        <ele>3.8</ele>
        <time>2018-09-20T16:04:26.000Z</time>
      </trkpt>
      <trkpt lat="46.72245" lon="-2.34241">
        <ele>3.8</ele>
        <time>2018-09-20T16:04:27.000Z</time>
      </trkpt>
      <trkpt lat="46.72246" lon="-2.34242">
        <ele>3.8</ele>
        <time>2018-09-20T16:04:28.000Z</time>
      </trkpt>
      <trkpt lat="46.72247" lon="-2.34242">
        <ele>3.8</ele>
        <time>2018-09-20T16:04:29.000Z</time>
      </trkpt>
      <trkpt lat="46.72248" lon="-2.34243">
        <ele>3.8</ele>
        <time>2018-09-20T16:04:30.000Z</time>
      </trkpt>
      <trkpt lat="46.72249" lon="-2.34243">
        <ele>3.8</ele>
        <time>2018-09-20T16:04:31.000Z</time>
      </trkpt>
      <trkpt lat="46.7225" lon="-2.34244">
        <ele>4</ele>
        <time>2018-09-20T16:04:32.000Z</time>
      </trkpt>
      <trkpt lat="46.72251" lon="-2.34245">
        <ele>4</ele>
        <time>2018-09-20T16:04:33.000Z</time>
      </trkpt>
      <trkpt lat="46.72252" lon="-2.34245">
        <ele>4</ele>
        <time>2018-09-20T16:04:34.000Z</time>
      </trkpt>
      <trkpt lat="46.72253" lon="-2.34246">
        <ele>4</ele>
        <time>2018-09-20T16:04:35.000Z</time>
      </trkpt>
      <trkpt lat="46.72254" lon="-2.34246">
        <ele>4</ele>
        <time>2018-09-20T16:04:36.000Z</time>
      </trkpt>
      <trkpt lat="46.72255" lon="-2.34247">
        <ele>4</ele>
        <time>2018-09-20T16:04:37.000Z</time>
      </trkpt>
      <trkpt lat="46.72256" lon="-2.34247">
        <ele>4</ele>
        <time>2018-09-20T16:04:38.000Z</time>
      </trkpt>
      <trkpt lat="46.72257" lon="-2.34248">
        <ele>4</ele>
        <time>2018-09-20T16:04:39.000Z</time>
      </trkpt>
      <trkpt lat="46.72258" lon="-2.34248">
        <ele>4</ele>
        <time>2018-09-20T16:04:40.000Z</time>
      </trkpt>
      <trkpt lat="46.72259" lon="-2.34249">
        <ele>4</ele>
        <time>2018-09-20T16:04:41.000Z</time>
      </trkpt>
      <trkpt lat="46.7226" lon="-2.3425">
        <ele>4</ele>
        <time>2018-09-20T16:04:42.000Z</time>
      </trkpt>
      <trkpt lat="46.72261" lon="-2.3425">
        <ele>4</ele>
        <time>2018-09-20T16:04:43.000Z</time>
      </trkpt>
      <trkpt lat="46.72262" lon="-2.34251">
        <ele>4</ele>
        <time>2018-09-20T16:04:44.000Z</time>
      </trkpt>
      <trkpt lat="46.72263" lon="-2.34252">
        <ele>4</ele>
        <time>2018-09-20T16:04:45.000Z</time>
      </trkpt>
      <trkpt lat="46.72264" lon="-2.34253">
        <ele>4</ele>
        <time>2018-09-20T16:04:46.000Z</time>
      </trkpt>
      <trkpt lat="46.72265" lon="-2.34254">
        <ele>4</ele>
        <time>2018-09-20T16:04:47.000Z</time>
      </trkpt>
      <trkpt lat="46.72266" lon="-2.34255">
        <ele>4</ele>
        <time>2018-09-20T16:04:48.000Z</time>
      </trkpt>
      <trkpt lat="46.72267" lon="-2.34256">
        <ele>4</ele>
        <time>2018-09-20T16:04:49.000Z</time>
      </trkpt>
      <trkpt lat="46.72269" lon="-2.34257">
        <ele>4</ele>
        <time>2018-09-20T16:04:50.000Z</time>
      </trkpt>
      <trkpt lat="46.7227" lon="-2.34257">
        <ele>4</ele>
        <time>2018-09-20T16:04:51.000Z</time>
      </trkpt>
      <trkpt lat="46.72271" lon="-2.34258">
        <ele>4</ele>
        <time>2018-09-20T16:04:52.000Z</time>
      </trkpt>
      <trkpt lat="46.72272" lon="-2.34259">
        <ele>4</ele>
        <time>2018-09-20T16:04:53.000Z</time>
      </trkpt>
      <trkpt lat="46.72274" lon="-2.3426">
        <ele>4</ele>
        <time>2018-09-20T16:04:54.000Z</time>
      </trkpt>
      <trkpt lat="46.72275" lon="-2.3426">
        <ele>4</ele>
        <time>2018-09-20T16:04:55.000Z</time>
      </trkpt>
      <trkpt lat="46.72276" lon="-2.34261">
        <ele>4</ele>
        <time>2018-09-20T16:04:56.000Z</time>
      </trkpt>
      <trkpt lat="46.72277" lon="-2.34262">
        <ele>4</ele>
        <time>2018-09-20T16:04:57.000Z</time>
      </trkpt>
      <trkpt lat="46.72278" lon="-2.34262">
        <ele>4</ele>
        <time>2018-09-20T16:04:58.000Z</time>
      </trkpt>
      <trkpt lat="46.72279" lon="-2.34263">
        <ele>4</ele>
        <time>2018-09-20T16:04:59.000Z</time>
      </trkpt>
      <trkpt lat="46.72279" lon="-2.34264">
        <ele>4</ele>
        <time>2018-09-20T16:05:00.000Z</time>
      </trkpt>
      <trkpt lat="46.7228" lon="-2.34265">
        <ele>4</ele>
        <time>2018-09-20T16:05:01.000Z</time>
      </trkpt>
      <trkpt lat="46.7228" lon="-2.34266">
        <ele>4</ele>
        <time>2018-09-20T16:05:02.000Z</time>
      </trkpt>
      <trkpt lat="46.72281" lon="-2.34267">
        <ele>4</ele>
        <time>2018-09-20T16:05:03.000Z</time>
      </trkpt>
      <trkpt lat="46.72282" lon="-2.34268">
        <ele>4</ele>
        <time>2018-09-20T16:05:04.000Z</time>
      </trkpt>
      <trkpt lat="46.72282" lon="-2.34269">
        <ele>4</ele>
        <time>2018-09-20T16:05:05.000Z</time>
      </trkpt>
      <trkpt lat="46.72283" lon="-2.3427">
        <ele>4</ele>
        <time>2018-09-20T16:05:06.000Z</time>
      </trkpt>
      <trkpt lat="46.72284" lon="-2.34271">
        <ele>4</ele>
        <time>2018-09-20T16:05:07.000Z</time>
      </trkpt>
      <trkpt lat="46.72285" lon="-2.34272">
        <ele>4</ele>
        <time>2018-09-20T16:05:08.000Z</time>
      </trkpt>
      <trkpt lat="46.72286" lon="-2.34272">
        <ele>4</ele>
        <time>2018-09-20T16:05:09.000Z</time>
      </trkpt>
      <trkpt lat="46.72286" lon="-2.34273">
        <ele>4</ele>
        <time>2018-09-20T16:05:10.000Z</time>
      </trkpt>
      <trkpt lat="46.72288" lon="-2.34273">
        <ele>4</ele>
        <time>2018-09-20T16:05:11.000Z</time>
      </trkpt>
      <trkpt lat="46.72289" lon="-2.34274">
        <ele>4</ele>
        <time>2018-09-20T16:05:12.000Z</time>
      </trkpt>
      <trkpt lat="46.7229" lon="-2.34274">
        <ele>4</ele>
        <time>2018-09-20T16:05:13.000Z</time>
      </trkpt>
      <trkpt lat="46.72291" lon="-2.34275">
        <ele>4</ele>
        <time>2018-09-20T16:05:14.000Z</time>
      </trkpt>
      <trkpt lat="46.72292" lon="-2.34275">
        <ele>4</ele>
        <time>2018-09-20T16:05:15.000Z</time>
      </trkpt>
      <trkpt lat="46.72293" lon="-2.34275">
        <ele>4</ele>
        <time>2018-09-20T16:05:16.000Z</time>
      </trkpt>
      <trkpt lat="46.72294" lon="-2.34276">
        <ele>4</ele>
        <time>2018-09-20T16:05:17.000Z</time>
      </trkpt>
      <trkpt lat="46.72295" lon="-2.34276">
        <ele>4</ele>
        <time>2018-09-20T16:05:18.000Z</time>
      </trkpt>
      <trkpt lat="46.72297" lon="-2.34276">
        <ele>4</ele>
        <time>2018-09-20T16:05:19.000Z</time>
      </trkpt>
      <trkpt lat="46.72298" lon="-2.34277">
        <ele>4</ele>
        <time>2018-09-20T16:05:20.000Z</time>
      </trkpt>
      <trkpt lat="46.72299" lon="-2.34277">
        <ele>4</ele>
        <time>2018-09-20T16:05:21.000Z</time>
      </trkpt>
      <trkpt lat="46.723" lon="-2.34278">
        <ele>4</ele>
        <time>2018-09-20T16:05:22.000Z</time>
      </trkpt>
      <trkpt lat="46.72301" lon="-2.34278">
        <ele>4</ele>
        <time>2018-09-20T16:05:23.000Z</time>
      </trkpt>
      <trkpt lat="46.72302" lon="-2.34278">
        <ele>4</ele>
        <time>2018-09-20T16:05:24.000Z</time>
      </trkpt>
      <trkpt lat="46.72303" lon="-2.34279">
        <ele>4</ele>
        <time>2018-09-20T16:05:25.000Z</time>
      </trkpt>
      <trkpt lat="46.72305" lon="-2.34279">
        <ele>7</ele>
        <time>2018-09-20T16:05:26.000Z</time>
      </trkpt>
      <trkpt lat="46.72306" lon="-2.3428">
        <ele>7</ele>
        <time>2018-09-20T16:05:27.000Z</time>
      </trkpt>
      <trkpt lat="46.72307" lon="-2.3428">
        <ele>7</ele>
        <time>2018-09-20T16:05:28.000Z</time>
      </trkpt>
      <trkpt lat="46.72308" lon="-2.34281">
        <ele>7</ele>
        <time>2018-09-20T16:05:29.000Z</time>
      </trkpt>
      <trkpt lat="46.72309" lon="-2.34281">
        <ele>7</ele>
        <time>2018-09-20T16:05:30.000Z</time>
      </trkpt>
      <trkpt lat="46.7231" lon="-2.34282">
        <ele>7</ele>
        <time>2018-09-20T16:05:31.000Z</time>
      </trkpt>
      <trkpt lat="46.72312" lon="-2.34282">
        <ele>7</ele>
        <time>2018-09-20T16:05:32.000Z</time>
      </trkpt>
      <trkpt lat="46.72313" lon="-2.34283">
        <ele>7</ele>
        <time>2018-09-20T16:05:33.000Z</time>
      </trkpt>
      <trkpt lat="46.72314" lon="-2.34283">
        <ele>7</ele>
        <time>2018-09-20T16:05:34.000Z</time>
      </trkpt>
      <trkpt lat="46.72315" lon="-2.34284">
        <ele>7</ele>
        <time>2018-09-20T16:05:35.000Z</time>
      </trkpt>
      <trkpt lat="46.72316" lon="-2.34284">
        <ele>7</ele>
        <time>2018-09-20T16:05:36.000Z</time>
      </trkpt>
      <trkpt lat="46.72317" lon="-2.34285">
        <ele>7</ele>
        <time>2018-09-20T16:05:37.000Z</time>
      </trkpt>
      <trkpt lat="46.72318" lon="-2.34286">
        <ele>7</ele>
        <time>2018-09-20T16:05:38.000Z</time>
      </trkpt>
      <trkpt lat="46.72319" lon="-2.34287">
        <ele>7</ele>
        <time>2018-09-20T16:05:39.000Z</time>
      </trkpt>
      <trkpt lat="46.7232" lon="-2.34288">
        <ele>7</ele>
        <time>2018-09-20T16:05:40.000Z</time>
      </trkpt>
      <trkpt lat="46.72321" lon="-2.34288">
        <ele>7</ele>
        <time>2018-09-20T16:05:41.000Z</time>
      </trkpt>
      <trkpt lat="46.72321" lon="-2.34289">
        <ele>7</ele>
        <time>2018-09-20T16:05:42.000Z</time>
      </trkpt>
      <trkpt lat="46.72322" lon="-2.34291">
        <ele>7</ele>
        <time>2018-09-20T16:05:43.000Z</time>
      </trkpt>
      <trkpt lat="46.72323" lon="-2.34292">
        <ele>7</ele>
        <time>2018-09-20T16:05:44.000Z</time>
      </trkpt>
      <trkpt lat="46.72324" lon="-2.34293">
        <ele>7</ele>
        <time>2018-09-20T16:05:45.000Z</time>
      </trkpt>
      <trkpt lat="46.72324" lon="-2.34294">
        <ele>7</ele>
        <time>2018-09-20T16:05:46.000Z</time>
      </trkpt>
      <trkpt lat="46.72325" lon="-2.34295">
        <ele>7</ele>
        <time>2018-09-20T16:05:47.000Z</time>
      </trkpt>
      <trkpt lat="46.72326" lon="-2.34296">
        <ele>7</ele>
        <time>2018-09-20T16:05:48.000Z</time>
      </trkpt>
      <trkpt lat="46.72326" lon="-2.34298">
        <ele>7</ele>
        <time>2018-09-20T16:05:49.000Z</time>
      </trkpt>
      <trkpt lat="46.72327" lon="-2.34299">
        <ele>7</ele>
        <time>2018-09-20T16:05:50.000Z</time>
      </trkpt>
      <trkpt lat="46.72328" lon="-2.343">
        <ele>7</ele>
        <time>2018-09-20T16:05:51.000Z</time>
      </trkpt>
      <trkpt lat="46.72328" lon="-2.34301">
        <ele>7</ele>
        <time>2018-09-20T16:05:52.000Z</time>
      </trkpt>
      <trkpt lat="46.72329" lon="-2.34303">
        <ele>7</ele>
        <time>2018-09-20T16:05:53.000Z</time>
      </trkpt>
      <trkpt lat="46.72329" lon="-2.34304">
        <ele>7</ele>
        <time>2018-09-20T16:05:54.000Z</time>
      </trkpt>
      <trkpt lat="46.7233" lon="-2.34305">
        <ele>7</ele>
        <time>2018-09-20T16:05:55.000Z</time>
      </trkpt>
      <trkpt lat="46.7233" lon="-2.34306">
        <ele>7</ele>
        <time>2018-09-20T16:05:56.000Z</time>
      </trkpt>
      <trkpt lat="46.72331" lon="-2.34308">
        <ele>7</ele>
        <time>2018-09-20T16:05:57.000Z</time>
      </trkpt>
      <trkpt lat="46.72331" lon="-2.34309">
        <ele>7</ele>
        <time>2018-09-20T16:05:58.000Z</time>
      </trkpt>
      <trkpt lat="46.72331" lon="-2.3431">
        <ele>7</ele>
        <time>2018-09-20T16:05:59.000Z</time>
      </trkpt>
      <trkpt lat="46.72331" lon="-2.34311">
        <ele>7</ele>
        <time>2018-09-20T16:06:00.000Z</time>
      </trkpt>
      <trkpt lat="46.72332" lon="-2.34313">
        <ele>7</ele>
        <time>2018-09-20T16:06:01.000Z</time>
      </trkpt>
      <trkpt lat="46.72332" lon="-2.34314">
        <ele>7</ele>
        <time>2018-09-20T16:06:02.000Z</time>
      </trkpt>
      <trkpt lat="46.72332" lon="-2.34315">
        <ele>7</ele>
        <time>2018-09-20T16:06:03.000Z</time>
      </trkpt>
      <trkpt lat="46.72333" lon="-2.34317">
        <ele>7</ele>
        <time>2018-09-20T16:06:04.000Z</time>
      </trkpt>
      <trkpt lat="46.72334" lon="-2.34318">
        <ele>7</ele>
        <time>2018-09-20T16:06:05.000Z</time>
      </trkpt>
      <trkpt lat="46.72334" lon="-2.3432">
        <ele>7</ele>
        <time>2018-09-20T16:06:06.000Z</time>
      </trkpt>
      <trkpt lat="46.72335" lon="-2.34321">
        <ele>7</ele>
        <time>2018-09-20T16:06:07.000Z</time>
      </trkpt>
      <trkpt lat="46.72336" lon="-2.34323">
        <ele>7</ele>
        <time>2018-09-20T16:06:08.000Z</time>
      </trkpt>
      <trkpt lat="46.72336" lon="-2.34324">
        <ele>7</ele>
        <time>2018-09-20T16:06:09.000Z</time>
      </trkpt>
      <trkpt lat="46.72337" lon="-2.34326">
        <ele>7</ele>
        <time>2018-09-20T16:06:10.000Z</time>
      </trkpt>
      <trkpt lat="46.72338" lon="-2.34327">
        <ele>7</ele>
        <time>2018-09-20T16:06:11.000Z</time>
      </trkpt>
      <trkpt lat="46.72339" lon="-2.34328">
        <ele>7</ele>
        <time>2018-09-20T16:06:12.000Z</time>
      </trkpt>
      <trkpt lat="46.72339" lon="-2.3433">
        <ele>7</ele>
        <time>2018-09-20T16:06:13.000Z</time>
      </trkpt>
      <trkpt lat="46.7234" lon="-2.34331">
        <ele>7</ele>
        <time>2018-09-20T16:06:14.000Z</time>
      </trkpt>
      <trkpt lat="46.72341" lon="-2.34332">
        <ele>7</ele>
        <time>2018-09-20T16:06:15.000Z</time>
      </trkpt>
      <trkpt lat="46.72342" lon="-2.34334">
        <ele>7</ele>
        <time>2018-09-20T16:06:16.000Z</time>
      </trkpt>
      <trkpt lat="46.72342" lon="-2.34335">
        <ele>7</ele>
        <time>2018-09-20T16:06:17.000Z</time>
      </trkpt>
      <trkpt lat="46.72343" lon="-2.34336">
        <ele>7</ele>
        <time>2018-09-20T16:06:18.000Z</time>
      </trkpt>
      <trkpt lat="46.72344" lon="-2.34337">
        <ele>7</ele>
        <time>2018-09-20T16:06:19.000Z</time>
      </trkpt>
      <trkpt lat="46.72344" lon="-2.34338">
        <ele>7</ele>
        <time>2018-09-20T16:06:20.000Z</time>
      </trkpt>
      <trkpt lat="46.72345" lon="-2.3434">
        <ele>7</ele>
        <time>2018-09-20T16:06:21.000Z</time>
      </trkpt>
      <trkpt lat="46.72346" lon="-2.34341">
        <ele>7</ele>
        <time>2018-09-20T16:06:22.000Z</time>
      </trkpt>
      <trkpt lat="46.72347" lon="-2.34342">
        <ele>7</ele>
        <time>2018-09-20T16:06:23.000Z</time>
      </trkpt>
      <trkpt lat="46.72347" lon="-2.34343">
        <ele>7</ele>
        <time>2018-09-20T16:06:24.000Z</time>
      </trkpt>
      <trkpt lat="46.72348" lon="-2.34345">
        <ele>7</ele>
        <time>2018-09-20T16:06:25.000Z</time>
      </trkpt>
      <trkpt lat="46.72349" lon="-2.34346">
        <ele>7</ele>
        <time>2018-09-20T16:06:26.000Z</time>
      </trkpt>
      <trkpt lat="46.7235" lon="-2.34347">
        <ele>7</ele>
        <time>2018-09-20T16:06:27.000Z</time>
      </trkpt>
      <trkpt lat="46.72351" lon="-2.34348">
        <ele>7</ele>
        <time>2018-09-20T16:06:28.000Z</time>
      </trkpt>
      <trkpt lat="46.72352" lon="-2.3435">
        <ele>7</ele>
        <time>2018-09-20T16:06:29.000Z</time>
      </trkpt>
      <trkpt lat="46.72353" lon="-2.34351">
        <ele>7</ele>
        <time>2018-09-20T16:06:30.000Z</time>
      </trkpt>
      <trkpt lat="46.72353" lon="-2.34352">
        <ele>7</ele>
        <time>2018-09-20T16:06:31.000Z</time>
      </trkpt>
      <trkpt lat="46.72354" lon="-2.34353">
        <ele>7</ele>
        <time>2018-09-20T16:06:32.000Z</time>
      </trkpt>
      <trkpt lat="46.72355" lon="-2.34355">
        <ele>7</ele>
        <time>2018-09-20T16:06:33.000Z</time>
      </trkpt>
      <trkpt lat="46.72356" lon="-2.34356">
        <ele>7</ele>
        <time>2018-09-20T16:06:34.000Z</time>
      </trkpt>
      <trkpt lat="46.72357" lon="-2.34357">
        <ele>7</ele>
        <time>2018-09-20T16:06:35.000Z</time>
      </trkpt>
      <trkpt lat="46.72357" lon="-2.34358">
        <ele>7</ele>
        <time>2018-09-20T16:06:36.000Z</time>
      </trkpt>
      <trkpt lat="46.72358" lon="-2.34359">
        <ele>7</ele>
        <time>2018-09-20T16:06:37.000Z</time>
      </trkpt>
      <trkpt lat="46.72359" lon="-2.34361">
        <ele>7</ele>
        <time>2018-09-20T16:06:38.000Z</time>
      </trkpt>
      <trkpt lat="46.7236" lon="-2.34362">
        <ele>7</ele>
        <time>2018-09-20T16:06:39.000Z</time>
      </trkpt>
      <trkpt lat="46.72361" lon="-2.34363">
        <ele>7</ele>
        <time>2018-09-20T16:06:40.000Z</time>
      </trkpt>
      <trkpt lat="46.72361" lon="-2.34364">
        <ele>7</ele>
        <time>2018-09-20T16:06:41.000Z</time>
      </trkpt>
      <trkpt lat="46.72362" lon="-2.34365">
        <ele>7</ele>
        <time>2018-09-20T16:06:42.000Z</time>
      </trkpt>
      <trkpt lat="46.72363" lon="-2.34367">
        <ele>7</ele>
        <time>2018-09-20T16:06:43.000Z</time>
      </trkpt>
      <trkpt lat="46.72364" lon="-2.34368">
        <ele>7</ele>
        <time>2018-09-20T16:06:44.000Z</time>
      </trkpt>
      <trkpt lat="46.72365" lon="-2.34369">
        <ele>7</ele>
        <time>2018-09-20T16:06:45.000Z</time>
      </trkpt>
      <trkpt lat="46.72365" lon="-2.3437">
        <ele>7</ele>
        <time>2018-09-20T16:06:46.000Z</time>
      </trkpt>
      <trkpt lat="46.72366" lon="-2.34371">
        <ele>7</ele>
        <time>2018-09-20T16:06:47.000Z</time>
      </trkpt>
      <trkpt lat="46.72367" lon="-2.34372">
        <ele>7</ele>
        <time>2018-09-20T16:06:48.000Z</time>
      </trkpt>
      <trkpt lat="46.72368" lon="-2.34373">
        <ele>7</ele>
        <time>2018-09-20T16:06:49.000Z</time>
      </trkpt>
      <trkpt lat="46.72369" lon="-2.34374">
        <ele>7</ele>
        <time>2018-09-20T16:06:50.000Z</time>
      </trkpt>
      <trkpt lat="46.72369" lon="-2.34375">
        <ele>7</ele>
        <time>2018-09-20T16:06:51.000Z</time>
      </trkpt>
      <trkpt lat="46.7237" lon="-2.34376">
        <ele>7</ele>
        <time>2018-09-20T16:06:52.000Z</time>
      </trkpt>
      <trkpt lat="46.72371" lon="-2.34377">
        <ele>7</ele>
        <time>2018-09-20T16:06:53.000Z</time>
      </trkpt>
      <trkpt lat="46.72372" lon="-2.34378">
        <ele>7</ele>
        <time>2018-09-20T16:06:54.000Z</time>
      </trkpt>
      <trkpt lat="46.72373" lon="-2.34379">
        <ele>7</ele>
        <time>2018-09-20T16:06:55.000Z</time>
      </trkpt>
      <trkpt lat="46.72373" lon="-2.3438">
        <ele>7</ele>
        <time>2018-09-20T16:06:56.000Z</time>
      </trkpt>
      <trkpt lat="46.72374" lon="-2.34381">
        <ele>7</ele>
        <time>2018-09-20T16:06:57.000Z</time>
      </trkpt>
      <trkpt lat="46.72375" lon="-2.34381">
        <ele>7</ele>
        <time>2018-09-20T16:06:58.000Z</time>
      </trkpt>
      <trkpt lat="46.72375" lon="-2.34382">
        <ele>5</ele>
        <time>2018-09-20T16:06:59.000Z</time>
      </trkpt>
      <trkpt lat="46.72376" lon="-2.34383">
        <ele>5</ele>
        <time>2018-09-20T16:07:00.000Z</time>
      </trkpt>
      <trkpt lat="46.72377" lon="-2.34384">
        <ele>5</ele>
        <time>2018-09-20T16:07:01.000Z</time>
      </trkpt>
      <trkpt lat="46.72378" lon="-2.34385">
        <ele>5</ele>
        <time>2018-09-20T16:07:02.000Z</time>
      </trkpt>
      <trkpt lat="46.72379" lon="-2.34387">
        <ele>5</ele>
        <time>2018-09-20T16:07:03.000Z</time>
      </trkpt>
      <trkpt lat="46.7238" lon="-2.34388">
        <ele>5</ele>
        <time>2018-09-20T16:07:04.000Z</time>
      </trkpt>
      <trkpt lat="46.72381" lon="-2.34389">
        <ele>5</ele>
        <time>2018-09-20T16:07:05.000Z</time>
      </trkpt>
      <trkpt lat="46.72382" lon="-2.3439">
        <ele>5</ele>
        <time>2018-09-20T16:07:06.000Z</time>
      </trkpt>
      <trkpt lat="46.72383" lon="-2.34391">
        <ele>5</ele>
        <time>2018-09-20T16:07:07.000Z</time>
      </trkpt>
      <trkpt lat="46.72383" lon="-2.34392">
        <ele>5</ele>
        <time>2018-09-20T16:07:08.000Z</time>
      </trkpt>
      <trkpt lat="46.72384" lon="-2.34393">
        <ele>5</ele>
        <time>2018-09-20T16:07:09.000Z</time>
      </trkpt>
      <trkpt lat="46.72384" lon="-2.34394">
        <ele>5</ele>
        <time>2018-09-20T16:07:10.000Z</time>
      </trkpt>
      <trkpt lat="46.72384" lon="-2.34394">
        <ele>5</ele>
        <time>2018-09-20T16:07:11.000Z</time>
      </trkpt>
      <trkpt lat="46.72384" lon="-2.34395">
        <ele>5</ele>
        <time>2018-09-20T16:07:12.000Z</time>
      </trkpt>
      <trkpt lat="46.72383" lon="-2.34395">
        <ele>5</ele>
        <time>2018-09-20T16:07:13.000Z</time>
      </trkpt>
      <trkpt lat="46.72383" lon="-2.34396">
        <ele>5</ele>
        <time>2018-09-20T16:07:14.000Z</time>
      </trkpt>
      <trkpt lat="46.72382" lon="-2.34396">
        <ele>5</ele>
        <time>2018-09-20T16:07:15.000Z</time>
      </trkpt>
      <trkpt lat="46.72382" lon="-2.34397">
        <ele>5</ele>
        <time>2018-09-20T16:07:16.000Z</time>
      </trkpt>
      <trkpt lat="46.72381" lon="-2.34397">
        <ele>5</ele>
        <time>2018-09-20T16:07:17.000Z</time>
      </trkpt>
      <trkpt lat="46.72381" lon="-2.34397">
        <ele>5</ele>
        <time>2018-09-20T16:07:18.000Z</time>
      </trkpt>
      <trkpt lat="46.72381" lon="-2.34397">
        <ele>5</ele>
        <time>2018-09-20T16:07:19.000Z</time>
      </trkpt>
      <trkpt lat="46.72381" lon="-2.34397">
        <ele>5</ele>
        <time>2018-09-20T16:07:20.000Z</time>
      </trkpt>
      <trkpt lat="46.72381" lon="-2.34396">
        <ele>5</ele>
        <time>2018-09-20T16:07:21.000Z</time>
      </trkpt>
      <trkpt lat="46.72381" lon="-2.34396">
        <ele>5</ele>
        <time>2018-09-20T16:07:22.000Z</time>
      </trkpt>
      <trkpt lat="46.72381" lon="-2.34396">
        <ele>5</ele>
        <time>2018-09-20T16:07:23.000Z</time>
      </trkpt>
      <trkpt lat="46.72381" lon="-2.34396">
        <ele>5</ele>
        <time>2018-09-20T16:07:24.000Z</time>
      </trkpt>
      <trkpt lat="46.72381" lon="-2.34396">
        <ele>5</ele>
        <time>2018-09-20T16:07:25.000Z</time>
      </trkpt>
      <trkpt lat="46.72381" lon="-2.34396">
        <ele>5</ele>
        <time>2018-09-20T16:07:26.000Z</time>
      </trkpt>
      <trkpt lat="46.72381" lon="-2.34396">
        <ele>5</ele>
        <time>2018-09-20T16:07:27.000Z</time>
      </trkpt>
      <trkpt lat="46.72381" lon="-2.34396">
        <ele>5</ele>
        <time>2018-09-20T16:07:28.000Z</time>
      </trkpt>
      <trkpt lat="46.72381" lon="-2.34396">
        <ele>5</ele>
        <time>2018-09-20T16:07:29.000Z</time>
      </trkpt>
      <trkpt lat="46.72381" lon="-2.34396">
        <ele>5</ele>
        <time>2018-09-20T16:07:30.000Z</time>
      </trkpt>
      <trkpt lat="46.72381" lon="-2.34396">
        <ele>5</ele>
        <time>2018-09-20T16:07:31.000Z</time>
      </trkpt>
      <trkpt lat="46.72381" lon="-2.34396">
        <ele>5</ele>
        <time>2018-09-20T16:07:32.000Z</time>
      </trkpt>
      <trkpt lat="46.72381" lon="-2.34396">
        <ele>5</ele>
        <time>2018-09-20T16:07:33.000Z</time>
      </trkpt>
      <trkpt lat="46.72381" lon="-2.34396">
        <ele>5</ele>
        <time>2018-09-20T16:07:34.000Z</time>
      </trkpt>
      <trkpt lat="46.72381" lon="-2.34396">
        <ele>5</ele>
        <time>2018-09-20T16:07:35.000Z</time>
      </trkpt>
      <trkpt lat="46.72381" lon="-2.34396">
        <ele>5</ele>
        <time>2018-09-20T16:07:36.000Z</time>
      </trkpt>
      <trkpt lat="46.72381" lon="-2.34397">
        <ele>5</ele>
        <time>2018-09-20T16:07:37.000Z</time>
      </trkpt>
      <trkpt lat="46.72381" lon="-2.34397">
        <ele>5</ele>
        <time>2018-09-20T16:07:38.000Z</time>
      </trkpt>
      <trkpt lat="46.72381" lon="-2.34397">
        <ele>5</ele>
        <time>2018-09-20T16:07:39.000Z</time>
      </trkpt>
      <trkpt lat="46.72381" lon="-2.34398">
        <ele>5</ele>
        <time>2018-09-20T16:07:40.000Z</time>
      </trkpt>
      <trkpt lat="46.72381" lon="-2.34399">
        <ele>5</ele>
        <time>2018-09-20T16:07:41.000Z</time>
      </trkpt>
      <trkpt lat="46.72381" lon="-2.34399">
        <ele>5</ele>
        <time>2018-09-20T16:07:42.000Z</time>
      </trkpt>
      <trkpt lat="46.72381" lon="-2.344">
        <ele>5</ele>
        <time>2018-09-20T16:07:43.000Z</time>
      </trkpt>
      <trkpt lat="46.72381" lon="-2.34401">
        <ele>5</ele>
        <time>2018-09-20T16:07:44.000Z</time>
      </trkpt>
      <trkpt lat="46.72381" lon="-2.34402">
        <ele>5</ele>
        <time>2018-09-20T16:07:45.000Z</time>
      </trkpt>
      <trkpt lat="46.72381" lon="-2.34402">
        <ele>5</ele>
        <time>2018-09-20T16:07:46.000Z</time>
      </trkpt>
      <trkpt lat="46.72381" lon="-2.34403">
        <ele>5</ele>
        <time>2018-09-20T16:07:47.000Z</time>
      </trkpt>
      <trkpt lat="46.72381" lon="-2.34403">
        <ele>5</ele>
        <time>2018-09-20T16:07:48.000Z</time>
      </trkpt>
      <trkpt lat="46.72381" lon="-2.34403">
        <ele>5</ele>
        <time>2018-09-20T16:07:49.000Z</time>
      </trkpt>
      <trkpt lat="46.72381" lon="-2.34403">
        <ele>5</ele>
        <time>2018-09-20T16:07:50.000Z</time>
      </trkpt>
      <trkpt lat="46.72381" lon="-2.34403">
        <ele>5</ele>
        <time>2018-09-20T16:07:51.000Z</time>
      </trkpt>
      <trkpt lat="46.72381" lon="-2.34403">
        <ele>5</ele>
        <time>2018-09-20T16:07:52.000Z</time>
      </trkpt>
      <trkpt lat="46.72381" lon="-2.34403">
        <ele>5</ele>
        <time>2018-09-20T16:07:53.000Z</time>
      </trkpt>
      <trkpt lat="46.72381" lon="-2.34403">
        <ele>5</ele>
        <time>2018-09-20T16:07:54.000Z</time>
      </trkpt>
      <trkpt lat="46.72381" lon="-2.34403">
        <ele>5</ele>
        <time>2018-09-20T16:07:55.000Z</time>
      </trkpt>
      <trkpt lat="46.72382" lon="-2.34402">
        <ele>5</ele>
        <time>2018-09-20T16:07:56.000Z</time>
      </trkpt>
      <trkpt lat="46.72382" lon="-2.34402">
        <ele>5</ele>
        <time>2018-09-20T16:07:57.000Z</time>
      </trkpt>
      <trkpt lat="46.72382" lon="-2.34402">
        <ele>5</ele>
        <time>2018-09-20T16:07:58.000Z</time>
      </trkpt>
      <trkpt lat="46.72383" lon="-2.34402">
        <ele>5</ele>
        <time>2018-09-20T16:07:59.000Z</time>
      </trkpt>
      <trkpt lat="46.72384" lon="-2.34402">
        <ele>5</ele>
        <time>2018-09-20T16:08:00.000Z</time>
      </trkpt>
      <trkpt lat="46.72384" lon="-2.34402">
        <ele>5</ele>
        <time>2018-09-20T16:08:01.000Z</time>
      </trkpt>
      <trkpt lat="46.72385" lon="-2.34403">
        <ele>5</ele>
        <time>2018-09-20T16:08:02.000Z</time>
      </trkpt>
      <trkpt lat="46.72385" lon="-2.34403">
        <ele>5</ele>
        <time>2018-09-20T16:08:03.000Z</time>
      </trkpt>
      <trkpt lat="46.72386" lon="-2.34404">
        <ele>5</ele>
        <time>2018-09-20T16:08:04.000Z</time>
      </trkpt>
      <trkpt lat="46.72387" lon="-2.34405">
        <ele>5</ele>
        <time>2018-09-20T16:08:05.000Z</time>
      </trkpt>
      <trkpt lat="46.72387" lon="-2.34406">
        <ele>5</ele>
        <time>2018-09-20T16:08:06.000Z</time>
      </trkpt>
      <trkpt lat="46.72388" lon="-2.34407">
        <ele>5</ele>
        <time>2018-09-20T16:08:07.000Z</time>
      </trkpt>
      <trkpt lat="46.72388" lon="-2.34408">
        <ele>5</ele>
        <time>2018-09-20T16:08:08.000Z</time>
      </trkpt>
      <trkpt lat="46.72389" lon="-2.34409">
        <ele>5</ele>
        <time>2018-09-20T16:08:09.000Z</time>
      </trkpt>
      <trkpt lat="46.72389" lon="-2.3441">
        <ele>5</ele>
        <time>2018-09-20T16:08:10.000Z</time>
      </trkpt>
      <trkpt lat="46.72389" lon="-2.34411">
        <ele>5</ele>
        <time>2018-09-20T16:08:11.000Z</time>
      </trkpt>
      <trkpt lat="46.7239" lon="-2.34412">
        <ele>5</ele>
        <time>2018-09-20T16:08:12.000Z</time>
      </trkpt>
      <trkpt lat="46.7239" lon="-2.34413">
        <ele>5</ele>
        <time>2018-09-20T16:08:13.000Z</time>
      </trkpt>
      <trkpt lat="46.72391" lon="-2.34414">
        <ele>5</ele>
        <time>2018-09-20T16:08:14.000Z</time>
      </trkpt>
      <trkpt lat="46.72392" lon="-2.34415">
        <ele>5</ele>
        <time>2018-09-20T16:08:15.000Z</time>
      </trkpt>
      <trkpt lat="46.72393" lon="-2.34416">
        <ele>5</ele>
        <time>2018-09-20T16:08:16.000Z</time>
      </trkpt>
      <trkpt lat="46.72394" lon="-2.34418">
        <ele>5.5</ele>
        <time>2018-09-20T16:08:17.000Z</time>
      </trkpt>
      <trkpt lat="46.72395" lon="-2.34419">
        <ele>5.5</ele>
        <time>2018-09-20T16:08:18.000Z</time>
      </trkpt>
      <trkpt lat="46.72396" lon="-2.3442">
        <ele>5.5</ele>
        <time>2018-09-20T16:08:19.000Z</time>
      </trkpt>
      <trkpt lat="46.72397" lon="-2.34421">
        <ele>5.4</ele>
        <time>2018-09-20T16:08:20.000Z</time>
      </trkpt>
      <trkpt lat="46.72398" lon="-2.34422">
        <ele>5.4</ele>
        <time>2018-09-20T16:08:21.000Z</time>
      </trkpt>
      <trkpt lat="46.72399" lon="-2.34423">
        <ele>5.4</ele>
        <time>2018-09-20T16:08:22.000Z</time>
      </trkpt>
      <trkpt lat="46.72399" lon="-2.34424">
        <ele>5.3</ele>
        <time>2018-09-20T16:08:23.000Z</time>
      </trkpt>
      <trkpt lat="46.724" lon="-2.34425">
        <ele>5.3</ele>
        <time>2018-09-20T16:08:24.000Z</time>
      </trkpt>
      <trkpt lat="46.72401" lon="-2.34426">
        <ele>5.3</ele>
        <time>2018-09-20T16:08:25.000Z</time>
      </trkpt>
      <trkpt lat="46.72401" lon="-2.34427">
        <ele>5.2</ele>
        <time>2018-09-20T16:08:26.000Z</time>
      </trkpt>
      <trkpt lat="46.72402" lon="-2.34428">
        <ele>5.2</ele>
        <time>2018-09-20T16:08:27.000Z</time>
      </trkpt>
      <trkpt lat="46.72402" lon="-2.3443">
        <ele>5.2</ele>
        <time>2018-09-20T16:08:28.000Z</time>
      </trkpt>
      <trkpt lat="46.72403" lon="-2.34431">
        <ele>5.2</ele>
        <time>2018-09-20T16:08:29.000Z</time>
      </trkpt>
      <trkpt lat="46.72403" lon="-2.34432">
        <ele>5.1</ele>
        <time>2018-09-20T16:08:30.000Z</time>
      </trkpt>
      <trkpt lat="46.72404" lon="-2.34433">
        <ele>5.1</ele>
        <time>2018-09-20T16:08:31.000Z</time>
      </trkpt>
      <trkpt lat="46.72405" lon="-2.34434">
        <ele>5.1</ele>
        <time>2018-09-20T16:08:32.000Z</time>
      </trkpt>
      <trkpt lat="46.72405" lon="-2.34435">
        <ele>5.1</ele>
        <time>2018-09-20T16:08:33.000Z</time>
      </trkpt>
      <trkpt lat="46.72406" lon="-2.34436">
        <ele>5</ele>
        <time>2018-09-20T16:08:34.000Z</time>
      </trkpt>
      <trkpt lat="46.72407" lon="-2.34436">
        <ele>5</ele>
        <time>2018-09-20T16:08:35.000Z</time>
      </trkpt>
      <trkpt lat="46.72408" lon="-2.34437">
        <ele>5</ele>
        <time>2018-09-20T16:08:36.000Z</time>
      </trkpt>
      <trkpt lat="46.72409" lon="-2.34437">
        <ele>4.9</ele>
        <time>2018-09-20T16:08:37.000Z</time>
      </trkpt>
      <trkpt lat="46.7241" lon="-2.34438">
        <ele>4.9</ele>
        <time>2018-09-20T16:08:38.000Z</time>
      </trkpt>
      <trkpt lat="46.72411" lon="-2.34438">
        <ele>4.9</ele>
        <time>2018-09-20T16:08:39.000Z</time>
      </trkpt>
      <trkpt lat="46.72412" lon="-2.34439">
        <ele>4.9</ele>
        <time>2018-09-20T16:08:40.000Z</time>
      </trkpt>
      <trkpt lat="46.72412" lon="-2.3444">
        <ele>4.8</ele>
        <time>2018-09-20T16:08:41.000Z</time>
      </trkpt>
      <trkpt lat="46.72413" lon="-2.34441">
        <ele>4.8</ele>
        <time>2018-09-20T16:08:42.000Z</time>
      </trkpt>
      <trkpt lat="46.72413" lon="-2.34442">
        <ele>4.8</ele>
        <time>2018-09-20T16:08:43.000Z</time>
      </trkpt>
      <trkpt lat="46.72413" lon="-2.34443">
        <ele>4.8</ele>
        <time>2018-09-20T16:08:44.000Z</time>
      </trkpt>
      <trkpt lat="46.72413" lon="-2.34445">
        <ele>4.7</ele>
        <time>2018-09-20T16:08:45.000Z</time>
      </trkpt>
      <trkpt lat="46.72413" lon="-2.34446">
        <ele>4.7</ele>
        <time>2018-09-20T16:08:46.000Z</time>
      </trkpt>
      <trkpt lat="46.72413" lon="-2.34448">
        <ele>4.7</ele>
        <time>2018-09-20T16:08:47.000Z</time>
      </trkpt>
      <trkpt lat="46.72413" lon="-2.3445">
        <ele>4.7</ele>
        <time>2018-09-20T16:08:48.000Z</time>
      </trkpt>
      <trkpt lat="46.72413" lon="-2.34451">
        <ele>4.7</ele>
        <time>2018-09-20T16:08:49.000Z</time>
      </trkpt>
      <trkpt lat="46.72412" lon="-2.34453">
        <ele>4.7</ele>
        <time>2018-09-20T16:08:50.000Z</time>
      </trkpt>
      <trkpt lat="46.72412" lon="-2.34455">
        <ele>4.7</ele>
        <time>2018-09-20T16:08:51.000Z</time>
      </trkpt>
      <trkpt lat="46.72411" lon="-2.34456">
        <ele>4.7</ele>
        <time>2018-09-20T16:08:52.000Z</time>
      </trkpt>
      <trkpt lat="46.72411" lon="-2.34458">
        <ele>4.6</ele>
        <time>2018-09-20T16:08:53.000Z</time>
      </trkpt>
      <trkpt lat="46.72411" lon="-2.3446">
        <ele>4.6</ele>
        <time>2018-09-20T16:08:54.000Z</time>
      </trkpt>
      <trkpt lat="46.72411" lon="-2.34461">
        <ele>4.6</ele>
        <time>2018-09-20T16:08:55.000Z</time>
      </trkpt>
      <trkpt lat="46.72411" lon="-2.34463">
        <ele>4.6</ele>
        <time>2018-09-20T16:08:56.000Z</time>
      </trkpt>
      <trkpt lat="46.72411" lon="-2.34464">
        <ele>4.6</ele>
        <time>2018-09-20T16:08:57.000Z</time>
      </trkpt>
      <trkpt lat="46.72411" lon="-2.34466">
        <ele>4.6</ele>
        <time>2018-09-20T16:08:58.000Z</time>
      </trkpt>
      <trkpt lat="46.72411" lon="-2.34467">
        <ele>4.5</ele>
        <time>2018-09-20T16:08:59.000Z</time>
      </trkpt>
      <trkpt lat="46.72411" lon="-2.34469">
        <ele>4.5</ele>
        <time>2018-09-20T16:09:00.000Z</time>
      </trkpt>
      <trkpt lat="46.72411" lon="-2.3447">
        <ele>4.5</ele>
        <time>2018-09-20T16:09:01.000Z</time>
      </trkpt>
      <trkpt lat="46.72412" lon="-2.34472">
        <ele>4.5</ele>
        <time>2018-09-20T16:09:02.000Z</time>
      </trkpt>
      <trkpt lat="46.72412" lon="-2.34473">
        <ele>4.4</ele>
        <time>2018-09-20T16:09:03.000Z</time>
      </trkpt>
      <trkpt lat="46.72412" lon="-2.34475">
        <ele>4.4</ele>
        <time>2018-09-20T16:09:04.000Z</time>
      </trkpt>
      <trkpt lat="46.72413" lon="-2.34476">
        <ele>4.4</ele>
        <time>2018-09-20T16:09:05.000Z</time>
      </trkpt>
      <trkpt lat="46.72413" lon="-2.34478">
        <ele>4.4</ele>
        <time>2018-09-20T16:09:06.000Z</time>
      </trkpt>
      <trkpt lat="46.72413" lon="-2.34479">
        <ele>4.3</ele>
        <time>2018-09-20T16:09:07.000Z</time>
      </trkpt>
      <trkpt lat="46.72413" lon="-2.34481">
        <ele>4.3</ele>
        <time>2018-09-20T16:09:08.000Z</time>
      </trkpt>
      <trkpt lat="46.72413" lon="-2.34483">
        <ele>4.3</ele>
        <time>2018-09-20T16:09:09.000Z</time>
      </trkpt>
      <trkpt lat="46.72413" lon="-2.34484">
        <ele>4.3</ele>
        <time>2018-09-20T16:09:10.000Z</time>
      </trkpt>
      <trkpt lat="46.72413" lon="-2.34485">
        <ele>4.3</ele>
        <time>2018-09-20T16:09:11.000Z</time>
      </trkpt>
      <trkpt lat="46.72414" lon="-2.34486">
        <ele>4.2</ele>
        <time>2018-09-20T16:09:12.000Z</time>
      </trkpt>
      <trkpt lat="46.72414" lon="-2.34488">
        <ele>4.2</ele>
        <time>2018-09-20T16:09:13.000Z</time>
      </trkpt>
      <trkpt lat="46.72414" lon="-2.34489">
        <ele>4.2</ele>
        <time>2018-09-20T16:09:14.000Z</time>
      </trkpt>
      <trkpt lat="46.72415" lon="-2.3449">
        <ele>4.2</ele>
        <time>2018-09-20T16:09:15.000Z</time>
      </trkpt>
      <trkpt lat="46.72415" lon="-2.34491">
        <ele>4.2</ele>
        <time>2018-09-20T16:09:16.000Z</time>
      </trkpt>
      <trkpt lat="46.72415" lon="-2.34493">
        <ele>4.1</ele>
        <time>2018-09-20T16:09:17.000Z</time>
      </trkpt>
      <trkpt lat="46.72416" lon="-2.34494">
        <ele>4.1</ele>
        <time>2018-09-20T16:09:18.000Z</time>
      </trkpt>
      <trkpt lat="46.72416" lon="-2.34496">
        <ele>4.1</ele>
        <time>2018-09-20T16:09:19.000Z</time>
      </trkpt>
      <trkpt lat="46.72416" lon="-2.34498">
        <ele>4</ele>
        <time>2018-09-20T16:09:20.000Z</time>
      </trkpt>
      <trkpt lat="46.72416" lon="-2.345">
        <ele>4</ele>
        <time>2018-09-20T16:09:21.000Z</time>
      </trkpt>
      <trkpt lat="46.72416" lon="-2.34501">
        <ele>4</ele>
        <time>2018-09-20T16:09:22.000Z</time>
      </trkpt>
      <trkpt lat="46.72416" lon="-2.34502">
        <ele>4</ele>
        <time>2018-09-20T16:09:23.000Z</time>
      </trkpt>
      <trkpt lat="46.72416" lon="-2.34503">
        <ele>4</ele>
        <time>2018-09-20T16:09:24.000Z</time>
      </trkpt>
      <trkpt lat="46.72416" lon="-2.34505">
        <ele>4</ele>
        <time>2018-09-20T16:09:25.000Z</time>
      </trkpt>
      <trkpt lat="46.72416" lon="-2.34505">
        <ele>4</ele>
        <time>2018-09-20T16:09:26.000Z</time>
      </trkpt>
      <trkpt lat="46.72416" lon="-2.34506">
        <ele>4</ele>
        <time>2018-09-20T16:09:27.000Z</time>
      </trkpt>
      <trkpt lat="46.72416" lon="-2.34507">
        <ele>4</ele>
        <time>2018-09-20T16:09:28.000Z</time>
      </trkpt>
      <trkpt lat="46.72416" lon="-2.34509">
        <ele>4</ele>
        <time>2018-09-20T16:09:29.000Z</time>
      </trkpt>
      <trkpt lat="46.72416" lon="-2.3451">
        <ele>4</ele>
        <time>2018-09-20T16:09:30.000Z</time>
      </trkpt>
      <trkpt lat="46.72416" lon="-2.34511">
        <ele>4</ele>
        <time>2018-09-20T16:09:31.000Z</time>
      </trkpt>
      <trkpt lat="46.72417" lon="-2.34512">
        <ele>4</ele>
        <time>2018-09-20T16:09:32.000Z</time>
      </trkpt>
      <trkpt lat="46.72417" lon="-2.34513">
        <ele>4</ele>
        <time>2018-09-20T16:09:33.000Z</time>
      </trkpt>
      <trkpt lat="46.72417" lon="-2.34515">
        <ele>4</ele>
        <time>2018-09-20T16:09:34.000Z</time>
      </trkpt>
      <trkpt lat="46.72418" lon="-2.34516">
        <ele>4</ele>
        <time>2018-09-20T16:09:35.000Z</time>
      </trkpt>
      <trkpt lat="46.72418" lon="-2.34517">
        <ele>4</ele>
        <time>2018-09-20T16:09:36.000Z</time>
      </trkpt>
      <trkpt lat="46.72419" lon="-2.34519">
        <ele>3.9</ele>
        <time>2018-09-20T16:09:37.000Z</time>
      </trkpt>
      <trkpt lat="46.72419" lon="-2.3452">
        <ele>3.9</ele>
        <time>2018-09-20T16:09:38.000Z</time>
      </trkpt>
      <trkpt lat="46.7242" lon="-2.34521">
        <ele>3.9</ele>
        <time>2018-09-20T16:09:39.000Z</time>
      </trkpt>
      <trkpt lat="46.72421" lon="-2.34523">
        <ele>3.9</ele>
        <time>2018-09-20T16:09:40.000Z</time>
      </trkpt>
      <trkpt lat="46.72421" lon="-2.34524">
        <ele>3.9</ele>
        <time>2018-09-20T16:09:41.000Z</time>
      </trkpt>
      <trkpt lat="46.72422" lon="-2.34525">
        <ele>3.9</ele>
        <time>2018-09-20T16:09:42.000Z</time>
      </trkpt>
      <trkpt lat="46.72423" lon="-2.34527">
        <ele>3.8</ele>
        <time>2018-09-20T16:09:43.000Z</time>
      </trkpt>
      <trkpt lat="46.72423" lon="-2.34528">
        <ele>3.8</ele>
        <time>2018-09-20T16:09:44.000Z</time>
      </trkpt>
      <trkpt lat="46.72424" lon="-2.34529">
        <ele>3.8</ele>
        <time>2018-09-20T16:09:45.000Z</time>
      </trkpt>
      <trkpt lat="46.72425" lon="-2.34531">
        <ele>3.8</ele>
        <time>2018-09-20T16:09:46.000Z</time>
      </trkpt>
      <trkpt lat="46.72426" lon="-2.34532">
        <ele>3.7</ele>
        <time>2018-09-20T16:09:47.000Z</time>
      </trkpt>
      <trkpt lat="46.72426" lon="-2.34533">
        <ele>3.7</ele>
        <time>2018-09-20T16:09:48.000Z</time>
      </trkpt>
      <trkpt lat="46.72427" lon="-2.34534">
        <ele>3.7</ele>
        <time>2018-09-20T16:09:49.000Z</time>
      </trkpt>
      <trkpt lat="46.72428" lon="-2.34536">
        <ele>3.7</ele>
        <time>2018-09-20T16:09:50.000Z</time>
      </trkpt>
      <trkpt lat="46.72429" lon="-2.34537">
        <ele>3.7</ele>
        <time>2018-09-20T16:09:51.000Z</time>
      </trkpt>
      <trkpt lat="46.72429" lon="-2.34538">
        <ele>3.6</ele>
        <time>2018-09-20T16:09:52.000Z</time>
      </trkpt>
      <trkpt lat="46.7243" lon="-2.34539">
        <ele>3.6</ele>
        <time>2018-09-20T16:09:53.000Z</time>
      </trkpt>
      <trkpt lat="46.72431" lon="-2.3454">
        <ele>3.6</ele>
        <time>2018-09-20T16:09:54.000Z</time>
      </trkpt>
      <trkpt lat="46.72431" lon="-2.34541">
        <ele>3.6</ele>
        <time>2018-09-20T16:09:55.000Z</time>
      </trkpt>
      <trkpt lat="46.72432" lon="-2.34542">
        <ele>3.5</ele>
        <time>2018-09-20T16:09:56.000Z</time>
      </trkpt>
      <trkpt lat="46.72433" lon="-2.34543">
        <ele>3.5</ele>
        <time>2018-09-20T16:09:57.000Z</time>
      </trkpt>
      <trkpt lat="46.72434" lon="-2.34544">
        <ele>3.5</ele>
        <time>2018-09-20T16:09:58.000Z</time>
      </trkpt>
      <trkpt lat="46.72434" lon="-2.34545">
        <ele>3.5</ele>
        <time>2018-09-20T16:09:59.000Z</time>
      </trkpt>
      <trkpt lat="46.72435" lon="-2.34546">
        <ele>3.4</ele>
        <time>2018-09-20T16:10:00.000Z</time>
      </trkpt>
      <trkpt lat="46.72436" lon="-2.34547">
        <ele>3.4</ele>
        <time>2018-09-20T16:10:01.000Z</time>
      </trkpt>
      <trkpt lat="46.72436" lon="-2.34548">
        <ele>3.4</ele>
        <time>2018-09-20T16:10:02.000Z</time>
      </trkpt>
      <trkpt lat="46.72437" lon="-2.34549">
        <ele>3.4</ele>
        <time>2018-09-20T16:10:03.000Z</time>
      </trkpt>
      <trkpt lat="46.72438" lon="-2.34551">
        <ele>3.3</ele>
        <time>2018-09-20T16:10:04.000Z</time>
      </trkpt>
      <trkpt lat="46.72439" lon="-2.34552">
        <ele>3.3</ele>
        <time>2018-09-20T16:10:05.000Z</time>
      </trkpt>
      <trkpt lat="46.72439" lon="-2.34553">
        <ele>3.3</ele>
        <time>2018-09-20T16:10:06.000Z</time>
      </trkpt>
      <trkpt lat="46.7244" lon="-2.34555">
        <ele>3.2</ele>
        <time>2018-09-20T16:10:07.000Z</time>
      </trkpt>
      <trkpt lat="46.72441" lon="-2.34556">
        <ele>3.2</ele>
        <time>2018-09-20T16:10:08.000Z</time>
      </trkpt>
      <trkpt lat="46.72442" lon="-2.34558">
        <ele>3.2</ele>
        <time>2018-09-20T16:10:09.000Z</time>
      </trkpt>
      <trkpt lat="46.72443" lon="-2.34559">
        <ele>3.2</ele>
        <time>2018-09-20T16:10:10.000Z</time>
      </trkpt>
      <trkpt lat="46.72443" lon="-2.3456">
        <ele>3.1</ele>
        <time>2018-09-20T16:10:11.000Z</time>
      </trkpt>
      <trkpt lat="46.72444" lon="-2.34562">
        <ele>3.1</ele>
        <time>2018-09-20T16:10:12.000Z</time>
      </trkpt>
      <trkpt lat="46.72445" lon="-2.34563">
        <ele>3.1</ele>
        <time>2018-09-20T16:10:13.000Z</time>
      </trkpt>
      <trkpt lat="46.72446" lon="-2.34565">
        <ele>3</ele>
        <time>2018-09-20T16:10:14.000Z</time>
      </trkpt>
      <trkpt lat="46.72447" lon="-2.34566">
        <ele>3</ele>
        <time>2018-09-20T16:10:15.000Z</time>
      </trkpt>
      <trkpt lat="46.72447" lon="-2.34567">
        <ele>3</ele>
        <time>2018-09-20T16:10:16.000Z</time>
      </trkpt>
      <trkpt lat="46.72448" lon="-2.34569">
        <ele>2.9</ele>
        <time>2018-09-20T16:10:17.000Z</time>
      </trkpt>
      <trkpt lat="46.72449" lon="-2.3457">
        <ele>2.9</ele>
        <time>2018-09-20T16:10:18.000Z</time>
      </trkpt>
      <trkpt lat="46.72449" lon="-2.34571">
        <ele>2.9</ele>
        <time>2018-09-20T16:10:19.000Z</time>
      </trkpt>
      <trkpt lat="46.7245" lon="-2.34572">
        <ele>2.9</ele>
        <time>2018-09-20T16:10:20.000Z</time>
      </trkpt>
      <trkpt lat="46.72451" lon="-2.34573">
        <ele>2.8</ele>
        <time>2018-09-20T16:10:21.000Z</time>
      </trkpt>
      <trkpt lat="46.72451" lon="-2.34575">
        <ele>2.8</ele>
        <time>2018-09-20T16:10:22.000Z</time>
      </trkpt>
      <trkpt lat="46.72452" lon="-2.34576">
        <ele>2.8</ele>
        <time>2018-09-20T16:10:23.000Z</time>
      </trkpt>
      <trkpt lat="46.72452" lon="-2.34577">
        <ele>2.8</ele>
        <time>2018-09-20T16:10:24.000Z</time>
      </trkpt>
      <trkpt lat="46.72453" lon="-2.34578">
        <ele>2.7</ele>
        <time>2018-09-20T16:10:25.000Z</time>
      </trkpt>
      <trkpt lat="46.72453" lon="-2.3458">
        <ele>2.7</ele>
        <time>2018-09-20T16:10:26.000Z</time>
      </trkpt>
      <trkpt lat="46.72454" lon="-2.34581">
        <ele>2.7</ele>
        <time>2018-09-20T16:10:27.000Z</time>
      </trkpt>
      <trkpt lat="46.72454" lon="-2.34582">
        <ele>2.7</ele>
        <time>2018-09-20T16:10:28.000Z</time>
      </trkpt>
      <trkpt lat="46.72455" lon="-2.34584">
        <ele>2.6</ele>
        <time>2018-09-20T16:10:29.000Z</time>
      </trkpt>
      <trkpt lat="46.72455" lon="-2.34586">
        <ele>2.6</ele>
        <time>2018-09-20T16:10:30.000Z</time>
      </trkpt>
      <trkpt lat="46.72456" lon="-2.34587">
        <ele>2.6</ele>
        <time>2018-09-20T16:10:31.000Z</time>
      </trkpt>
      <trkpt lat="46.72456" lon="-2.34589">
        <ele>2.6</ele>
        <time>2018-09-20T16:10:32.000Z</time>
      </trkpt>
      <trkpt lat="46.72457" lon="-2.3459">
        <ele>2.6</ele>
        <time>2018-09-20T16:10:33.000Z</time>
      </trkpt>
      <trkpt lat="46.72457" lon="-2.34592">
        <ele>2.5</ele>
        <time>2018-09-20T16:10:34.000Z</time>
      </trkpt>
      <trkpt lat="46.72458" lon="-2.34593">
        <ele>2.5</ele>
        <time>2018-09-20T16:10:35.000Z</time>
      </trkpt>
      <trkpt lat="46.72458" lon="-2.34595">
        <ele>2.5</ele>
        <time>2018-09-20T16:10:36.000Z</time>
      </trkpt>
      <trkpt lat="46.72459" lon="-2.34596">
        <ele>2.5</ele>
        <time>2018-09-20T16:10:37.000Z</time>
      </trkpt>
      <trkpt lat="46.72459" lon="-2.34598">
        <ele>2.5</ele>
        <time>2018-09-20T16:10:38.000Z</time>
      </trkpt>
      <trkpt lat="46.7246" lon="-2.34599">
        <ele>2.5</ele>
        <time>2018-09-20T16:10:39.000Z</time>
      </trkpt>
      <trkpt lat="46.7246" lon="-2.346">
        <ele>2.4</ele>
        <time>2018-09-20T16:10:40.000Z</time>
      </trkpt>
      <trkpt lat="46.72461" lon="-2.34601">
        <ele>2.4</ele>
        <time>2018-09-20T16:10:41.000Z</time>
      </trkpt>
      <trkpt lat="46.72461" lon="-2.34602">
        <ele>2.4</ele>
        <time>2018-09-20T16:10:42.000Z</time>
      </trkpt>
      <trkpt lat="46.72462" lon="-2.34604">
        <ele>2.4</ele>
        <time>2018-09-20T16:10:43.000Z</time>
      </trkpt>
      <trkpt lat="46.72462" lon="-2.34605">
        <ele>2.4</ele>
        <time>2018-09-20T16:10:44.000Z</time>
      </trkpt>
      <trkpt lat="46.72463" lon="-2.34606">
        <ele>2.3</ele>
        <time>2018-09-20T16:10:45.000Z</time>
      </trkpt>
      <trkpt lat="46.72463" lon="-2.34607">
        <ele>2.3</ele>
        <time>2018-09-20T16:10:46.000Z</time>
      </trkpt>
      <trkpt lat="46.72464" lon="-2.34608">
        <ele>2.3</ele>
        <time>2018-09-20T16:10:47.000Z</time>
      </trkpt>
      <trkpt lat="46.72464" lon="-2.3461">
        <ele>2.3</ele>
        <time>2018-09-20T16:10:48.000Z</time>
      </trkpt>
      <trkpt lat="46.72465" lon="-2.34611">
        <ele>2.3</ele>
        <time>2018-09-20T16:10:49.000Z</time>
      </trkpt>
      <trkpt lat="46.72465" lon="-2.34612">
        <ele>2.3</ele>
        <time>2018-09-20T16:10:50.000Z</time>
      </trkpt>
      <trkpt lat="46.72466" lon="-2.34614">
        <ele>2.2</ele>
        <time>2018-09-20T16:10:51.000Z</time>
      </trkpt>
      <trkpt lat="46.72466" lon="-2.34615">
        <ele>2.2</ele>
        <time>2018-09-20T16:10:52.000Z</time>
      </trkpt>
      <trkpt lat="46.72466" lon="-2.34617">
        <ele>2.2</ele>
        <time>2018-09-20T16:10:53.000Z</time>
      </trkpt>
      <trkpt lat="46.72467" lon="-2.34618">
        <ele>2.2</ele>
        <time>2018-09-20T16:10:54.000Z</time>
      </trkpt>
      <trkpt lat="46.72467" lon="-2.3462">
        <ele>2.2</ele>
        <time>2018-09-20T16:10:55.000Z</time>
      </trkpt>
      <trkpt lat="46.72467" lon="-2.34622">
        <ele>2.2</ele>
        <time>2018-09-20T16:10:56.000Z</time>
      </trkpt>
      <trkpt lat="46.72468" lon="-2.34623">
        <ele>2.2</ele>
        <time>2018-09-20T16:10:57.000Z</time>
      </trkpt>
      <trkpt lat="46.72468" lon="-2.34625">
        <ele>2.2</ele>
        <time>2018-09-20T16:10:58.000Z</time>
      </trkpt>
      <trkpt lat="46.72468" lon="-2.34626">
        <ele>2.2</ele>
        <time>2018-09-20T16:10:59.000Z</time>
      </trkpt>
      <trkpt lat="46.72468" lon="-2.34628">
        <ele>2.1</ele>
        <time>2018-09-20T16:11:00.000Z</time>
      </trkpt>
      <trkpt lat="46.72468" lon="-2.3463">
        <ele>2.1</ele>
        <time>2018-09-20T16:11:01.000Z</time>
      </trkpt>
      <trkpt lat="46.72469" lon="-2.34631">
        <ele>2.1</ele>
        <time>2018-09-20T16:11:02.000Z</time>
      </trkpt>
      <trkpt lat="46.72469" lon="-2.34633">
        <ele>2.1</ele>
        <time>2018-09-20T16:11:03.000Z</time>
      </trkpt>
      <trkpt lat="46.72469" lon="-2.34635">
        <ele>2.1</ele>
        <time>2018-09-20T16:11:04.000Z</time>
      </trkpt>
      <trkpt lat="46.72469" lon="-2.34636">
        <ele>2.1</ele>
        <time>2018-09-20T16:11:05.000Z</time>
      </trkpt>
      <trkpt lat="46.72469" lon="-2.34638">
        <ele>2.1</ele>
        <time>2018-09-20T16:11:06.000Z</time>
      </trkpt>
      <trkpt lat="46.72469" lon="-2.3464">
        <ele>2.1</ele>
        <time>2018-09-20T16:11:07.000Z</time>
      </trkpt>
      <trkpt lat="46.72469" lon="-2.34641">
        <ele>2.1</ele>
        <time>2018-09-20T16:11:08.000Z</time>
      </trkpt>
      <trkpt lat="46.72469" lon="-2.34643">
        <ele>2.1</ele>
        <time>2018-09-20T16:11:09.000Z</time>
      </trkpt>
      <trkpt lat="46.72469" lon="-2.34644">
        <ele>2.1</ele>
        <time>2018-09-20T16:11:10.000Z</time>
      </trkpt>
      <trkpt lat="46.72469" lon="-2.34646">
        <ele>2.1</ele>
        <time>2018-09-20T16:11:11.000Z</time>
      </trkpt>
      <trkpt lat="46.72469" lon="-2.34648">
        <ele>2.1</ele>
        <time>2018-09-20T16:11:12.000Z</time>
      </trkpt>
      <trkpt lat="46.72469" lon="-2.34649">
        <ele>2.1</ele>
        <time>2018-09-20T16:11:13.000Z</time>
      </trkpt>
      <trkpt lat="46.72469" lon="-2.34651">
        <ele>2.1</ele>
        <time>2018-09-20T16:11:14.000Z</time>
      </trkpt>
      <trkpt lat="46.72469" lon="-2.34653">
        <ele>2.1</ele>
        <time>2018-09-20T16:11:15.000Z</time>
      </trkpt>
      <trkpt lat="46.72469" lon="-2.34654">
        <ele>2.1</ele>
        <time>2018-09-20T16:11:16.000Z</time>
      </trkpt>
      <trkpt lat="46.72469" lon="-2.34656">
        <ele>2.1</ele>
        <time>2018-09-20T16:11:17.000Z</time>
      </trkpt>
      <trkpt lat="46.72469" lon="-2.34657">
        <ele>2.1</ele>
        <time>2018-09-20T16:11:18.000Z</time>
      </trkpt>
      <trkpt lat="46.72469" lon="-2.34659">
        <ele>2.1</ele>
        <time>2018-09-20T16:11:19.000Z</time>
      </trkpt>
      <trkpt lat="46.72469" lon="-2.34661">
        <ele>2.1</ele>
        <time>2018-09-20T16:11:20.000Z</time>
      </trkpt>
      <trkpt lat="46.72469" lon="-2.34662">
        <ele>2.1</ele>
        <time>2018-09-20T16:11:21.000Z</time>
      </trkpt>
      <trkpt lat="46.72469" lon="-2.34664">
        <ele>2.1</ele>
        <time>2018-09-20T16:11:22.000Z</time>
      </trkpt>
      <trkpt lat="46.72469" lon="-2.34665">
        <ele>2.1</ele>
        <time>2018-09-20T16:11:23.000Z</time>
      </trkpt>
      <trkpt lat="46.72468" lon="-2.34667">
        <ele>2.1</ele>
        <time>2018-09-20T16:11:24.000Z</time>
      </trkpt>
      <trkpt lat="46.72468" lon="-2.34668">
        <ele>2.2</ele>
        <time>2018-09-20T16:11:25.000Z</time>
      </trkpt>
      <trkpt lat="46.72468" lon="-2.3467">
        <ele>2.2</ele>
        <time>2018-09-20T16:11:26.000Z</time>
      </trkpt>
      <trkpt lat="46.72468" lon="-2.34672">
        <ele>2.2</ele>
        <time>2018-09-20T16:11:27.000Z</time>
      </trkpt>
      <trkpt lat="46.72468" lon="-2.34673">
        <ele>2.2</ele>
        <time>2018-09-20T16:11:28.000Z</time>
      </trkpt>
      <trkpt lat="46.72468" lon="-2.34675">
        <ele>2.2</ele>
        <time>2018-09-20T16:11:29.000Z</time>
      </trkpt>
      <trkpt lat="46.72467" lon="-2.34676">
        <ele>2.2</ele>
        <time>2018-09-20T16:11:30.000Z</time>
      </trkpt>
      <trkpt lat="46.72467" lon="-2.34678">
        <ele>2.2</ele>
        <time>2018-09-20T16:11:31.000Z</time>
      </trkpt>
      <trkpt lat="46.72467" lon="-2.34679">
        <ele>2.3</ele>
        <time>2018-09-20T16:11:32.000Z</time>
      </trkpt>
      <trkpt lat="46.72467" lon="-2.34681">
        <ele>2.3</ele>
        <time>2018-09-20T16:11:33.000Z</time>
      </trkpt>
      <trkpt lat="46.72466" lon="-2.34682">
        <ele>2.3</ele>
        <time>2018-09-20T16:11:34.000Z</time>
      </trkpt>
      <trkpt lat="46.72466" lon="-2.34684">
        <ele>2.3</ele>
        <time>2018-09-20T16:11:35.000Z</time>
      </trkpt>
      <trkpt lat="46.72466" lon="-2.34685">
        <ele>2.3</ele>
        <time>2018-09-20T16:11:36.000Z</time>
      </trkpt>
      <trkpt lat="46.72466" lon="-2.34686">
        <ele>2.3</ele>
        <time>2018-09-20T16:11:37.000Z</time>
      </trkpt>
      <trkpt lat="46.72465" lon="-2.34688">
        <ele>2.4</ele>
        <time>2018-09-20T16:11:38.000Z</time>
      </trkpt>
      <trkpt lat="46.72465" lon="-2.34689">
        <ele>2.4</ele>
        <time>2018-09-20T16:11:39.000Z</time>
      </trkpt>
      <trkpt lat="46.72465" lon="-2.34691">
        <ele>2.4</ele>
        <time>2018-09-20T16:11:40.000Z</time>
      </trkpt>
      <trkpt lat="46.72464" lon="-2.34692">
        <ele>2.4</ele>
        <time>2018-09-20T16:11:41.000Z</time>
      </trkpt>
      <trkpt lat="46.72464" lon="-2.34693">
        <ele>2.4</ele>
        <time>2018-09-20T16:11:42.000Z</time>
      </trkpt>
      <trkpt lat="46.72464" lon="-2.34695">
        <ele>2.4</ele>
        <time>2018-09-20T16:11:43.000Z</time>
      </trkpt>
      <trkpt lat="46.72464" lon="-2.34696">
        <ele>2.5</ele>
        <time>2018-09-20T16:11:44.000Z</time>
      </trkpt>
      <trkpt lat="46.72463" lon="-2.34697">
        <ele>2.5</ele>
        <time>2018-09-20T16:11:45.000Z</time>
      </trkpt>
      <trkpt lat="46.72463" lon="-2.34699">
        <ele>2.5</ele>
        <time>2018-09-20T16:11:46.000Z</time>
      </trkpt>
      <trkpt lat="46.72462" lon="-2.347">
        <ele>2.5</ele>
        <time>2018-09-20T16:11:47.000Z</time>
      </trkpt>
      <trkpt lat="46.72462" lon="-2.34701">
        <ele>2.6</ele>
        <time>2018-09-20T16:11:48.000Z</time>
      </trkpt>
      <trkpt lat="46.72462" lon="-2.34702">
        <ele>2.6</ele>
        <time>2018-09-20T16:11:49.000Z</time>
      </trkpt>
      <trkpt lat="46.72461" lon="-2.34703">
        <ele>2.6</ele>
        <time>2018-09-20T16:11:50.000Z</time>
      </trkpt>
      <trkpt lat="46.72461" lon="-2.34705">
        <ele>2.6</ele>
        <time>2018-09-20T16:11:51.000Z</time>
      </trkpt>
      <trkpt lat="46.72461" lon="-2.34706">
        <ele>2.6</ele>
        <time>2018-09-20T16:11:52.000Z</time>
      </trkpt>
      <trkpt lat="46.72461" lon="-2.34708">
        <ele>2.7</ele>
        <time>2018-09-20T16:11:53.000Z</time>
      </trkpt>
      <trkpt lat="46.7246" lon="-2.34709">
        <ele>2.7</ele>
        <time>2018-09-20T16:11:54.000Z</time>
      </trkpt>
      <trkpt lat="46.7246" lon="-2.34711">
        <ele>2.7</ele>
        <time>2018-09-20T16:11:55.000Z</time>
      </trkpt>
      <trkpt lat="46.7246" lon="-2.34713">
        <ele>2.7</ele>
        <time>2018-09-20T16:11:56.000Z</time>
      </trkpt>
      <trkpt lat="46.72459" lon="-2.34714">
        <ele>2.7</ele>
        <time>2018-09-20T16:11:57.000Z</time>
      </trkpt>
      <trkpt lat="46.72459" lon="-2.34716">
        <ele>2.8</ele>
        <time>2018-09-20T16:11:58.000Z</time>
      </trkpt>
      <trkpt lat="46.72459" lon="-2.34718">
        <ele>2.8</ele>
        <time>2018-09-20T16:11:59.000Z</time>
      </trkpt>
      <trkpt lat="46.72458" lon="-2.34719">
        <ele>2.8</ele>
        <time>2018-09-20T16:12:00.000Z</time>
      </trkpt>
      <trkpt lat="46.72458" lon="-2.34721">
        <ele>2.9</ele>
        <time>2018-09-20T16:12:01.000Z</time>
      </trkpt>
      <trkpt lat="46.72457" lon="-2.34723">
        <ele>2.9</ele>
        <time>2018-09-20T16:12:02.000Z</time>
      </trkpt>
      <trkpt lat="46.72457" lon="-2.34724">
        <ele>2.9</ele>
        <time>2018-09-20T16:12:03.000Z</time>
      </trkpt>
      <trkpt lat="46.72456" lon="-2.34726">
        <ele>3</ele>
        <time>2018-09-20T16:12:04.000Z</time>
      </trkpt>
      <trkpt lat="46.72456" lon="-2.34727">
        <ele>3</ele>
        <time>2018-09-20T16:12:05.000Z</time>
      </trkpt>
      <trkpt lat="46.72455" lon="-2.34729">
        <ele>3</ele>
        <time>2018-09-20T16:12:06.000Z</time>
      </trkpt>
      <trkpt lat="46.72454" lon="-2.3473">
        <ele>3.1</ele>
        <time>2018-09-20T16:12:07.000Z</time>
      </trkpt>
      <trkpt lat="46.72454" lon="-2.34732">
        <ele>3.1</ele>
        <time>2018-09-20T16:12:08.000Z</time>
      </trkpt>
      <trkpt lat="46.72453" lon="-2.34733">
        <ele>3.2</ele>
        <time>2018-09-20T16:12:09.000Z</time>
      </trkpt>
      <trkpt lat="46.72452" lon="-2.34735">
        <ele>3.2</ele>
        <time>2018-09-20T16:12:10.000Z</time>
      </trkpt>
      <trkpt lat="46.72451" lon="-2.34736">
        <ele>3.2</ele>
        <time>2018-09-20T16:12:11.000Z</time>
      </trkpt>
      <trkpt lat="46.72451" lon="-2.34737">
        <ele>3.3</ele>
        <time>2018-09-20T16:12:12.000Z</time>
      </trkpt>
      <trkpt lat="46.7245" lon="-2.34739">
        <ele>3.3</ele>
        <time>2018-09-20T16:12:13.000Z</time>
      </trkpt>
      <trkpt lat="46.72449" lon="-2.3474">
        <ele>3.4</ele>
        <time>2018-09-20T16:12:14.000Z</time>
      </trkpt>
      <trkpt lat="46.72448" lon="-2.34742">
        <ele>3.4</ele>
        <time>2018-09-20T16:12:15.000Z</time>
      </trkpt>
      <trkpt lat="46.72447" lon="-2.34743">
        <ele>3.5</ele>
        <time>2018-09-20T16:12:16.000Z</time>
      </trkpt>
      <trkpt lat="46.72447" lon="-2.34744">
        <ele>3.5</ele>
        <time>2018-09-20T16:12:17.000Z</time>
      </trkpt>
      <trkpt lat="46.72446" lon="-2.34746">
        <ele>3.6</ele>
        <time>2018-09-20T16:12:18.000Z</time>
      </trkpt>
      <trkpt lat="46.72446" lon="-2.34747">
        <ele>3.6</ele>
        <time>2018-09-20T16:12:19.000Z</time>
      </trkpt>
      <trkpt lat="46.72445" lon="-2.34748">
        <ele>3.6</ele>
        <time>2018-09-20T16:12:20.000Z</time>
      </trkpt>
      <trkpt lat="46.72445" lon="-2.3475">
        <ele>3.7</ele>
        <time>2018-09-20T16:12:21.000Z</time>
      </trkpt>
      <trkpt lat="46.72444" lon="-2.34751">
        <ele>3.7</ele>
        <time>2018-09-20T16:12:22.000Z</time>
      </trkpt>
      <trkpt lat="46.72444" lon="-2.34752">
        <ele>3.7</ele>
        <time>2018-09-20T16:12:23.000Z</time>
      </trkpt>
      <trkpt lat="46.72443" lon="-2.34753">
        <ele>3.8</ele>
        <time>2018-09-20T16:12:24.000Z</time>
      </trkpt>
      <trkpt lat="46.72443" lon="-2.34755">
        <ele>3.8</ele>
        <time>2018-09-20T16:12:25.000Z</time>
      </trkpt>
      <trkpt lat="46.72443" lon="-2.34756">
        <ele>3.8</ele>
        <time>2018-09-20T16:12:26.000Z</time>
      </trkpt>
      <trkpt lat="46.72442" lon="-2.34758">
        <ele>3.9</ele>
        <time>2018-09-20T16:12:27.000Z</time>
      </trkpt>
      <trkpt lat="46.72442" lon="-2.34759">
        <ele>3.9</ele>
        <time>2018-09-20T16:12:28.000Z</time>
      </trkpt>
      <trkpt lat="46.72442" lon="-2.34761">
        <ele>4</ele>
        <time>2018-09-20T16:12:29.000Z</time>
      </trkpt>
      <trkpt lat="46.72441" lon="-2.34762">
        <ele>4</ele>
        <time>2018-09-20T16:12:30.000Z</time>
      </trkpt>
      <trkpt lat="46.72441" lon="-2.34764">
        <ele>4.1</ele>
        <time>2018-09-20T16:12:31.000Z</time>
      </trkpt>
      <trkpt lat="46.7244" lon="-2.34765">
        <ele>4.1</ele>
        <time>2018-09-20T16:12:32.000Z</time>
      </trkpt>
      <trkpt lat="46.7244" lon="-2.34766">
        <ele>4.2</ele>
        <time>2018-09-20T16:12:33.000Z</time>
      </trkpt>
      <trkpt lat="46.72439" lon="-2.34768">
        <ele>4.2</ele>
        <time>2018-09-20T16:12:34.000Z</time>
      </trkpt>
      <trkpt lat="46.72439" lon="-2.34769">
        <ele>4.3</ele>
        <time>2018-09-20T16:12:35.000Z</time>
      </trkpt>
      <trkpt lat="46.72438" lon="-2.3477">
        <ele>4.3</ele>
        <time>2018-09-20T16:12:36.000Z</time>
      </trkpt>
      <trkpt lat="46.72437" lon="-2.34772">
        <ele>4.4</ele>
        <time>2018-09-20T16:12:37.000Z</time>
      </trkpt>
      <trkpt lat="46.72437" lon="-2.34773">
        <ele>4.4</ele>
        <time>2018-09-20T16:12:38.000Z</time>
      </trkpt>
      <trkpt lat="46.72436" lon="-2.34774">
        <ele>4.5</ele>
        <time>2018-09-20T16:12:39.000Z</time>
      </trkpt>
      <trkpt lat="46.72436" lon="-2.34776">
        <ele>4.6</ele>
        <time>2018-09-20T16:12:40.000Z</time>
      </trkpt>
      <trkpt lat="46.72435" lon="-2.34777">
        <ele>4.6</ele>
        <time>2018-09-20T16:12:41.000Z</time>
      </trkpt>
      <trkpt lat="46.72435" lon="-2.34778">
        <ele>4.7</ele>
        <time>2018-09-20T16:12:42.000Z</time>
      </trkpt>
      <trkpt lat="46.72435" lon="-2.3478">
        <ele>4.7</ele>
        <time>2018-09-20T16:12:43.000Z</time>
      </trkpt>
      <trkpt lat="46.72434" lon="-2.34782">
        <ele>4.8</ele>
        <time>2018-09-20T16:12:44.000Z</time>
      </trkpt>
      <trkpt lat="46.72434" lon="-2.34783">
        <ele>4.8</ele>
        <time>2018-09-20T16:12:45.000Z</time>
      </trkpt>
      <trkpt lat="46.72434" lon="-2.34785">
        <ele>4.8</ele>
        <time>2018-09-20T16:12:46.000Z</time>
      </trkpt>
      <trkpt lat="46.72434" lon="-2.34786">
        <ele>4.9</ele>
        <time>2018-09-20T16:12:47.000Z</time>
      </trkpt>
      <trkpt lat="46.72434" lon="-2.34787">
        <ele>4.9</ele>
        <time>2018-09-20T16:12:48.000Z</time>
      </trkpt>
      <trkpt lat="46.72433" lon="-2.34788">
        <ele>4.9</ele>
        <time>2018-09-20T16:12:49.000Z</time>
      </trkpt>
      <trkpt lat="46.72433" lon="-2.34789">
        <ele>4.9</ele>
        <time>2018-09-20T16:12:50.000Z</time>
      </trkpt>
      <trkpt lat="46.72433" lon="-2.34789">
        <ele>4.9</ele>
        <time>2018-09-20T16:12:51.000Z</time>
      </trkpt>
      <trkpt lat="46.72433" lon="-2.34789">
        <ele>5</ele>
        <time>2018-09-20T16:12:52.000Z</time>
      </trkpt>
      <trkpt lat="46.72433" lon="-2.3479">
        <ele>5</ele>
        <time>2018-09-20T16:12:53.000Z</time>
      </trkpt>
      <trkpt lat="46.72433" lon="-2.3479">
        <ele>5</ele>
        <time>2018-09-20T16:12:54.000Z</time>
      </trkpt>
      <trkpt lat="46.72433" lon="-2.34791">
        <ele>5</ele>
        <time>2018-09-20T16:12:55.000Z</time>
      </trkpt>
      <trkpt lat="46.72434" lon="-2.34792">
        <ele>5</ele>
        <time>2018-09-20T16:12:56.000Z</time>
      </trkpt>
      <trkpt lat="46.72434" lon="-2.34793">
        <ele>5</ele>
        <time>2018-09-20T16:12:57.000Z</time>
      </trkpt>
      <trkpt lat="46.72434" lon="-2.34794">
        <ele>5</ele>
        <time>2018-09-20T16:12:58.000Z</time>
      </trkpt>
      <trkpt lat="46.72434" lon="-2.34796">
        <ele>5</ele>
        <time>2018-09-20T16:12:59.000Z</time>
      </trkpt>
      <trkpt lat="46.72434" lon="-2.34797">
        <ele>5.1</ele>
        <time>2018-09-20T16:13:00.000Z</time>
      </trkpt>
      <trkpt lat="46.72434" lon="-2.34799">
        <ele>5.1</ele>
        <time>2018-09-20T16:13:01.000Z</time>
      </trkpt>
      <trkpt lat="46.72434" lon="-2.348">
        <ele>5.1</ele>
        <time>2018-09-20T16:13:02.000Z</time>
      </trkpt>
      <trkpt lat="46.72435" lon="-2.34801">
        <ele>5.1</ele>
        <time>2018-09-20T16:13:03.000Z</time>
      </trkpt>
      <trkpt lat="46.72435" lon="-2.34803">
        <ele>5.1</ele>
        <time>2018-09-20T16:13:04.000Z</time>
      </trkpt>
      <trkpt lat="46.72435" lon="-2.34804">
        <ele>5.1</ele>
        <time>2018-09-20T16:13:05.000Z</time>
      </trkpt>
      <trkpt lat="46.72436" lon="-2.34805">
        <ele>5.1</ele>
        <time>2018-09-20T16:13:06.000Z</time>
      </trkpt>
      <trkpt lat="46.72436" lon="-2.34805">
        <ele>5.1</ele>
        <time>2018-09-20T16:13:07.000Z</time>
      </trkpt>
      <trkpt lat="46.72436" lon="-2.34806">
        <ele>5.1</ele>
        <time>2018-09-20T16:13:08.000Z</time>
      </trkpt>
      <trkpt lat="46.72437" lon="-2.34806">
        <ele>5.1</ele>
        <time>2018-09-20T16:13:09.000Z</time>
      </trkpt>
      <trkpt lat="46.72437" lon="-2.34806">
        <ele>5</ele>
        <time>2018-09-20T16:13:10.000Z</time>
      </trkpt>
      <trkpt lat="46.72437" lon="-2.34807">
        <ele>5</ele>
        <time>2018-09-20T16:13:11.000Z</time>
      </trkpt>
      <trkpt lat="46.72437" lon="-2.34807">
        <ele>5</ele>
        <time>2018-09-20T16:13:12.000Z</time>
      </trkpt>
      <trkpt lat="46.72437" lon="-2.34807">
        <ele>5.1</ele>
        <time>2018-09-20T16:13:13.000Z</time>
      </trkpt>
      <trkpt lat="46.72437" lon="-2.34807">
        <ele>5.1</ele>
        <time>2018-09-20T16:13:14.000Z</time>
      </trkpt>
      <trkpt lat="46.72437" lon="-2.34808">
        <ele>5.1</ele>
        <time>2018-09-20T16:13:15.000Z</time>
      </trkpt>
      <trkpt lat="46.72437" lon="-2.34809">
        <ele>5.1</ele>
        <time>2018-09-20T16:13:16.000Z</time>
      </trkpt>
      <trkpt lat="46.72437" lon="-2.3481">
        <ele>5.1</ele>
        <time>2018-09-20T16:13:17.000Z</time>
      </trkpt>
      <trkpt lat="46.72438" lon="-2.34811">
        <ele>5.1</ele>
        <time>2018-09-20T16:13:18.000Z</time>
      </trkpt>
      <trkpt lat="46.72438" lon="-2.34812">
        <ele>5.1</ele>
        <time>2018-09-20T16:13:19.000Z</time>
      </trkpt>
      <trkpt lat="46.72438" lon="-2.34813">
        <ele>5.1</ele>
        <time>2018-09-20T16:13:20.000Z</time>
      </trkpt>
      <trkpt lat="46.72438" lon="-2.34814">
        <ele>5.1</ele>
        <time>2018-09-20T16:13:21.000Z</time>
      </trkpt>
      <trkpt lat="46.72438" lon="-2.34814">
        <ele>5.1</ele>
        <time>2018-09-20T16:13:22.000Z</time>
      </trkpt>
      <trkpt lat="46.72439" lon="-2.34815">
        <ele>5.1</ele>
        <time>2018-09-20T16:13:23.000Z</time>
      </trkpt>
      <trkpt lat="46.72439" lon="-2.34815">
        <ele>5.1</ele>
        <time>2018-09-20T16:13:24.000Z</time>
      </trkpt>
      <trkpt lat="46.72439" lon="-2.34815">
        <ele>5.1</ele>
        <time>2018-09-20T16:13:25.000Z</time>
      </trkpt>
      <trkpt lat="46.72439" lon="-2.34815">
        <ele>5.1</ele>
        <time>2018-09-20T16:13:26.000Z</time>
      </trkpt>
      <trkpt lat="46.72439" lon="-2.34816">
        <ele>5.1</ele>
        <time>2018-09-20T16:13:27.000Z</time>
      </trkpt>
      <trkpt lat="46.72439" lon="-2.34816">
        <ele>5.1</ele>
        <time>2018-09-20T16:13:28.000Z</time>
      </trkpt>
      <trkpt lat="46.72439" lon="-2.34816">
        <ele>5.1</ele>
        <time>2018-09-20T16:13:29.000Z</time>
      </trkpt>
      <trkpt lat="46.72439" lon="-2.34816">
        <ele>5.1</ele>
        <time>2018-09-20T16:13:30.000Z</time>
      </trkpt>
      <trkpt lat="46.72439" lon="-2.34816">
        <ele>5.1</ele>
        <time>2018-09-20T16:13:31.000Z</time>
      </trkpt>
      <trkpt lat="46.72439" lon="-2.34816">
        <ele>5.1</ele>
        <time>2018-09-20T16:13:32.000Z</time>
      </trkpt>
      <trkpt lat="46.72439" lon="-2.34816">
        <ele>5.1</ele>
        <time>2018-09-20T16:13:33.000Z</time>
      </trkpt>
      <trkpt lat="46.72439" lon="-2.34816">
        <ele>5.1</ele>
        <time>2018-09-20T16:13:34.000Z</time>
      </trkpt>
      <trkpt lat="46.72439" lon="-2.34817">
        <ele>5.1</ele>
        <time>2018-09-20T16:13:35.000Z</time>
      </trkpt>
      <trkpt lat="46.72439" lon="-2.34818">
        <ele>5.1</ele>
        <time>2018-09-20T16:13:36.000Z</time>
      </trkpt>
      <trkpt lat="46.7244" lon="-2.34819">
        <ele>5.1</ele>
        <time>2018-09-20T16:13:37.000Z</time>
      </trkpt>
      <trkpt lat="46.7244" lon="-2.34821">
        <ele>5.1</ele>
        <time>2018-09-20T16:13:38.000Z</time>
      </trkpt>
      <trkpt lat="46.72441" lon="-2.34822">
        <ele>5.1</ele>
        <time>2018-09-20T16:13:39.000Z</time>
      </trkpt>
      <trkpt lat="46.72441" lon="-2.34824">
        <ele>5.1</ele>
        <time>2018-09-20T16:13:40.000Z</time>
      </trkpt>
      <trkpt lat="46.72441" lon="-2.34825">
        <ele>5.1</ele>
        <time>2018-09-20T16:13:41.000Z</time>
      </trkpt>
      <trkpt lat="46.72442" lon="-2.34827">
        <ele>5.1</ele>
        <time>2018-09-20T16:13:42.000Z</time>
      </trkpt>
      <trkpt lat="46.72442" lon="-2.34828">
        <ele>5.1</ele>
        <time>2018-09-20T16:13:43.000Z</time>
      </trkpt>
      <trkpt lat="46.72442" lon="-2.34829">
        <ele>5.1</ele>
        <time>2018-09-20T16:13:44.000Z</time>
      </trkpt>
      <trkpt lat="46.72443" lon="-2.3483">
        <ele>5.1</ele>
        <time>2018-09-20T16:13:45.000Z</time>
      </trkpt>
      <trkpt lat="46.72443" lon="-2.34832">
        <ele>5.1</ele>
        <time>2018-09-20T16:13:46.000Z</time>
      </trkpt>
      <trkpt lat="46.72443" lon="-2.34833">
        <ele>5.1</ele>
        <time>2018-09-20T16:13:47.000Z</time>
      </trkpt>
      <trkpt lat="46.72444" lon="-2.34833">
        <ele>5.1</ele>
        <time>2018-09-20T16:13:48.000Z</time>
      </trkpt>
      <trkpt lat="46.72444" lon="-2.34834">
        <ele>5.1</ele>
        <time>2018-09-20T16:13:49.000Z</time>
      </trkpt>
      <trkpt lat="46.72444" lon="-2.34835">
        <ele>5.1</ele>
        <time>2018-09-20T16:13:50.000Z</time>
      </trkpt>
      <trkpt lat="46.72444" lon="-2.34836">
        <ele>5</ele>
        <time>2018-09-20T16:13:51.000Z</time>
      </trkpt>
      <trkpt lat="46.72445" lon="-2.34836">
        <ele>5</ele>
        <time>2018-09-20T16:13:52.000Z</time>
      </trkpt>
      <trkpt lat="46.72445" lon="-2.34837">
        <ele>5</ele>
        <time>2018-09-20T16:13:53.000Z</time>
      </trkpt>
      <trkpt lat="46.72445" lon="-2.34837">
        <ele>5</ele>
        <time>2018-09-20T16:13:54.000Z</time>
      </trkpt>
      <trkpt lat="46.72445" lon="-2.34837">
        <ele>5</ele>
        <time>2018-09-20T16:13:55.000Z</time>
      </trkpt>
      <trkpt lat="46.72445" lon="-2.34837">
        <ele>5</ele>
        <time>2018-09-20T16:13:56.000Z</time>
      </trkpt>
      <trkpt lat="46.72445" lon="-2.34837">
        <ele>5</ele>
        <time>2018-09-20T16:13:57.000Z</time>
      </trkpt>
      <trkpt lat="46.72445" lon="-2.34837">
        <ele>5</ele>
        <time>2018-09-20T16:13:58.000Z</time>
      </trkpt>
      <trkpt lat="46.72445" lon="-2.34837">
        <ele>5</ele>
        <time>2018-09-20T16:13:59.000Z</time>
      </trkpt>
      <trkpt lat="46.72445" lon="-2.34837">
        <ele>5</ele>
        <time>2018-09-20T16:14:00.000Z</time>
      </trkpt>
      <trkpt lat="46.72445" lon="-2.34837">
        <ele>5</ele>
        <time>2018-09-20T16:14:01.000Z</time>
      </trkpt>
      <trkpt lat="46.72445" lon="-2.34837">
        <ele>5</ele>
        <time>2018-09-20T16:14:02.000Z</time>
      </trkpt>
      <trkpt lat="46.72446" lon="-2.34837">
        <ele>5</ele>
        <time>2018-09-20T16:14:03.000Z</time>
      </trkpt>
      <trkpt lat="46.72446" lon="-2.34837">
        <ele>5</ele>
        <time>2018-09-20T16:14:04.000Z</time>
      </trkpt>
      <trkpt lat="46.72446" lon="-2.34837">
        <ele>5</ele>
        <time>2018-09-20T16:14:05.000Z</time>
      </trkpt>
      <trkpt lat="46.72446" lon="-2.34837">
        <ele>5</ele>
        <time>2018-09-20T16:14:06.000Z</time>
      </trkpt>
      <trkpt lat="46.72446" lon="-2.34837">
        <ele>5</ele>
        <time>2018-09-20T16:14:07.000Z</time>
      </trkpt>
      <trkpt lat="46.72446" lon="-2.34837">
        <ele>5</ele>
        <time>2018-09-20T16:14:08.000Z</time>
      </trkpt>
      <trkpt lat="46.72446" lon="-2.34837">
        <ele>5</ele>
        <time>2018-09-20T16:14:09.000Z</time>
      </trkpt>
      <trkpt lat="46.72446" lon="-2.34837">
        <ele>5</ele>
        <time>2018-09-20T16:14:10.000Z</time>
      </trkpt>
      <trkpt lat="46.72446" lon="-2.34837">
        <ele>5</ele>
        <time>2018-09-20T16:14:11.000Z</time>
      </trkpt>
      <trkpt lat="46.72446" lon="-2.34837">
        <ele>5</ele>
        <time>2018-09-20T16:14:12.000Z</time>
      </trkpt>
      <trkpt lat="46.72446" lon="-2.34837">
        <ele>5</ele>
        <time>2018-09-20T16:14:13.000Z</time>
      </trkpt>
      <trkpt lat="46.72446" lon="-2.34837">
        <ele>5</ele>
        <time>2018-09-20T16:14:14.000Z</time>
      </trkpt>
      <trkpt lat="46.72446" lon="-2.34837">
        <ele>5</ele>
        <time>2018-09-20T16:14:15.000Z</time>
      </trkpt>
      <trkpt lat="46.72446" lon="-2.34837">
        <ele>5</ele>
        <time>2018-09-20T16:14:16.000Z</time>
      </trkpt>
      <trkpt lat="46.72446" lon="-2.34837">
        <ele>5</ele>
        <time>2018-09-20T16:14:17.000Z</time>
      </trkpt>
      <trkpt lat="46.72446" lon="-2.34837">
        <ele>5</ele>
        <time>2018-09-20T16:14:18.000Z</time>
      </trkpt>
      <trkpt lat="46.72447" lon="-2.34837">
        <ele>4.9</ele>
        <time>2018-09-20T16:14:19.000Z</time>
      </trkpt>
      <trkpt lat="46.72447" lon="-2.34837">
        <ele>4.9</ele>
        <time>2018-09-20T16:14:20.000Z</time>
      </trkpt>
      <trkpt lat="46.72448" lon="-2.34838">
        <ele>4.9</ele>
        <time>2018-09-20T16:14:21.000Z</time>
      </trkpt>
      <trkpt lat="46.72448" lon="-2.34838">
        <ele>4.8</ele>
        <time>2018-09-20T16:14:22.000Z</time>
      </trkpt>
      <trkpt lat="46.72448" lon="-2.34839">
        <ele>4.8</ele>
        <time>2018-09-20T16:14:23.000Z</time>
      </trkpt>
      <trkpt lat="46.72449" lon="-2.34839">
        <ele>4.8</ele>
        <time>2018-09-20T16:14:24.000Z</time>
      </trkpt>
      <trkpt lat="46.72449" lon="-2.34839">
        <ele>4.8</ele>
        <time>2018-09-20T16:14:25.000Z</time>
      </trkpt>
      <trkpt lat="46.72449" lon="-2.34839">
        <ele>4.8</ele>
        <time>2018-09-20T16:14:26.000Z</time>
      </trkpt>
      <trkpt lat="46.72449" lon="-2.34839">
        <ele>4.8</ele>
        <time>2018-09-20T16:14:27.000Z</time>
      </trkpt>
      <trkpt lat="46.72449" lon="-2.34839">
        <ele>4.8</ele>
        <time>2018-09-20T16:14:28.000Z</time>
      </trkpt>
      <trkpt lat="46.72449" lon="-2.34839">
        <ele>4.8</ele>
        <time>2018-09-20T16:14:29.000Z</time>
      </trkpt>
      <trkpt lat="46.72449" lon="-2.34839">
        <ele>4.8</ele>
        <time>2018-09-20T16:14:30.000Z</time>
      </trkpt>
      <trkpt lat="46.72449" lon="-2.34839">
        <ele>4.8</ele>
        <time>2018-09-20T16:14:31.000Z</time>
      </trkpt>
      <trkpt lat="46.72449" lon="-2.34839">
        <ele>4.8</ele>
        <time>2018-09-20T16:14:32.000Z</time>
      </trkpt>
      <trkpt lat="46.72449" lon="-2.34839">
        <ele>4.8</ele>
        <time>2018-09-20T16:14:33.000Z</time>
      </trkpt>
      <trkpt lat="46.72449" lon="-2.3484">
        <ele>4.8</ele>
        <time>2018-09-20T16:14:34.000Z</time>
      </trkpt>
      <trkpt lat="46.72449" lon="-2.34841">
        <ele>4.8</ele>
        <time>2018-09-20T16:14:35.000Z</time>
      </trkpt>
      <trkpt lat="46.72449" lon="-2.34842">
        <ele>4.8</ele>
        <time>2018-09-20T16:14:36.000Z</time>
      </trkpt>
      <trkpt lat="46.7245" lon="-2.34842">
        <ele>4.8</ele>
        <time>2018-09-20T16:14:37.000Z</time>
      </trkpt>
      <trkpt lat="46.7245" lon="-2.34843">
        <ele>4.8</ele>
        <time>2018-09-20T16:14:38.000Z</time>
      </trkpt>
      <trkpt lat="46.7245" lon="-2.34844">
        <ele>4.8</ele>
        <time>2018-09-20T16:14:39.000Z</time>
      </trkpt>
      <trkpt lat="46.7245" lon="-2.34845">
        <ele>4.8</ele>
        <time>2018-09-20T16:14:40.000Z</time>
      </trkpt>
      <trkpt lat="46.72451" lon="-2.34846">
        <ele>4.8</ele>
        <time>2018-09-20T16:14:41.000Z</time>
      </trkpt>
      <trkpt lat="46.72451" lon="-2.34847">
        <ele>4.8</ele>
        <time>2018-09-20T16:14:42.000Z</time>
      </trkpt>
      <trkpt lat="46.72451" lon="-2.34848">
        <ele>4.8</ele>
        <time>2018-09-20T16:14:43.000Z</time>
      </trkpt>
      <trkpt lat="46.72452" lon="-2.34849">
        <ele>4.8</ele>
        <time>2018-09-20T16:14:44.000Z</time>
      </trkpt>
      <trkpt lat="46.72452" lon="-2.3485">
        <ele>4.8</ele>
        <time>2018-09-20T16:14:45.000Z</time>
      </trkpt>
      <trkpt lat="46.72453" lon="-2.34851">
        <ele>4.8</ele>
        <time>2018-09-20T16:14:46.000Z</time>
      </trkpt>
      <trkpt lat="46.72453" lon="-2.34852">
        <ele>4.8</ele>
        <time>2018-09-20T16:14:47.000Z</time>
      </trkpt>
      <trkpt lat="46.72453" lon="-2.34853">
        <ele>4.8</ele>
        <time>2018-09-20T16:14:48.000Z</time>
      </trkpt>
      <trkpt lat="46.72454" lon="-2.34855">
        <ele>4.8</ele>
        <time>2018-09-20T16:14:49.000Z</time>
      </trkpt>
      <trkpt lat="46.72454" lon="-2.34856">
        <ele>4.8</ele>
        <time>2018-09-20T16:14:50.000Z</time>
      </trkpt>
      <trkpt lat="46.72455" lon="-2.34857">
        <ele>4.8</ele>
        <time>2018-09-20T16:14:51.000Z</time>
      </trkpt>
      <trkpt lat="46.72455" lon="-2.34858">
        <ele>4.8</ele>
        <time>2018-09-20T16:14:52.000Z</time>
      </trkpt>
      <trkpt lat="46.72456" lon="-2.3486">
        <ele>4.8</ele>
        <time>2018-09-20T16:14:53.000Z</time>
      </trkpt>
      <trkpt lat="46.72456" lon="-2.34861">
        <ele>4.8</ele>
        <time>2018-09-20T16:14:54.000Z</time>
      </trkpt>
      <trkpt lat="46.72456" lon="-2.34862">
        <ele>4.8</ele>
        <time>2018-09-20T16:14:55.000Z</time>
      </trkpt>
      <trkpt lat="46.72457" lon="-2.34863">
        <ele>4.8</ele>
        <time>2018-09-20T16:14:56.000Z</time>
      </trkpt>
      <trkpt lat="46.72457" lon="-2.34865">
        <ele>4.8</ele>
        <time>2018-09-20T16:14:57.000Z</time>
      </trkpt>
      <trkpt lat="46.72458" lon="-2.34866">
        <ele>4.8</ele>
        <time>2018-09-20T16:14:58.000Z</time>
      </trkpt>
      <trkpt lat="46.72458" lon="-2.34867">
        <ele>4.8</ele>
        <time>2018-09-20T16:14:59.000Z</time>
      </trkpt>
      <trkpt lat="46.72458" lon="-2.34868">
        <ele>4.8</ele>
        <time>2018-09-20T16:15:00.000Z</time>
      </trkpt>
      <trkpt lat="46.72458" lon="-2.34868">
        <ele>4.8</ele>
        <time>2018-09-20T16:15:01.000Z</time>
      </trkpt>
      <trkpt lat="46.72459" lon="-2.34869">
        <ele>4.8</ele>
        <time>2018-09-20T16:15:02.000Z</time>
      </trkpt>
      <trkpt lat="46.72459" lon="-2.3487">
        <ele>4.8</ele>
        <time>2018-09-20T16:15:03.000Z</time>
      </trkpt>
      <trkpt lat="46.72459" lon="-2.3487">
        <ele>4.8</ele>
        <time>2018-09-20T16:15:04.000Z</time>
      </trkpt>
      <trkpt lat="46.72459" lon="-2.3487">
        <ele>4.8</ele>
        <time>2018-09-20T16:15:05.000Z</time>
      </trkpt>
      <trkpt lat="46.72459" lon="-2.34871">
        <ele>4.9</ele>
        <time>2018-09-20T16:15:06.000Z</time>
      </trkpt>
      <trkpt lat="46.72459" lon="-2.34871">
        <ele>4.9</ele>
        <time>2018-09-20T16:15:07.000Z</time>
      </trkpt>
      <trkpt lat="46.72459" lon="-2.34871">
        <ele>4.8</ele>
        <time>2018-09-20T16:15:08.000Z</time>
      </trkpt>
      <trkpt lat="46.72459" lon="-2.34871">
        <ele>4.9</ele>
        <time>2018-09-20T16:15:09.000Z</time>
      </trkpt>
      <trkpt lat="46.72459" lon="-2.34871">
        <ele>4.9</ele>
        <time>2018-09-20T16:15:10.000Z</time>
      </trkpt>
      <trkpt lat="46.72459" lon="-2.34872">
        <ele>4.9</ele>
        <time>2018-09-20T16:15:11.000Z</time>
      </trkpt>
      <trkpt lat="46.72459" lon="-2.34872">
        <ele>4.9</ele>
        <time>2018-09-20T16:15:12.000Z</time>
      </trkpt>
      <trkpt lat="46.72459" lon="-2.34872">
        <ele>4.9</ele>
        <time>2018-09-20T16:15:13.000Z</time>
      </trkpt>
      <trkpt lat="46.72459" lon="-2.34872">
        <ele>4.9</ele>
        <time>2018-09-20T16:15:14.000Z</time>
      </trkpt>
      <trkpt lat="46.72459" lon="-2.34872">
        <ele>4.9</ele>
        <time>2018-09-20T16:15:15.000Z</time>
      </trkpt>
      <trkpt lat="46.72459" lon="-2.34872">
        <ele>4.9</ele>
        <time>2018-09-20T16:15:16.000Z</time>
      </trkpt>
      <trkpt lat="46.72459" lon="-2.34872">
        <ele>4.9</ele>
        <time>2018-09-20T16:15:17.000Z</time>
      </trkpt>
      <trkpt lat="46.72459" lon="-2.34872">
        <ele>4.9</ele>
        <time>2018-09-20T16:15:18.000Z</time>
      </trkpt>
      <trkpt lat="46.72459" lon="-2.34872">
        <ele>4.9</ele>
        <time>2018-09-20T16:15:19.000Z</time>
      </trkpt>
      <trkpt lat="46.72459" lon="-2.34872">
        <ele>4.9</ele>
        <time>2018-09-20T16:15:20.000Z</time>
      </trkpt>
      <trkpt lat="46.72459" lon="-2.34872">
        <ele>4.9</ele>
        <time>2018-09-20T16:15:21.000Z</time>
      </trkpt>
      <trkpt lat="46.72459" lon="-2.34872">
        <ele>4.9</ele>
        <time>2018-09-20T16:15:22.000Z</time>
      </trkpt>
      <trkpt lat="46.72459" lon="-2.34872">
        <ele>4.9</ele>
        <time>2018-09-20T16:15:23.000Z</time>
      </trkpt>
      <trkpt lat="46.72459" lon="-2.34872">
        <ele>4.9</ele>
        <time>2018-09-20T16:15:24.000Z</time>
      </trkpt>
      <trkpt lat="46.72459" lon="-2.34872">
        <ele>4.9</ele>
        <time>2018-09-20T16:15:25.000Z</time>
      </trkpt>
      <trkpt lat="46.72459" lon="-2.34872">
        <ele>4.9</ele>
        <time>2018-09-20T16:15:26.000Z</time>
      </trkpt>
      <trkpt lat="46.72459" lon="-2.34872">
        <ele>4.9</ele>
        <time>2018-09-20T16:15:27.000Z</time>
      </trkpt>
      <trkpt lat="46.72459" lon="-2.34872">
        <ele>4.9</ele>
        <time>2018-09-20T16:15:28.000Z</time>
      </trkpt>
      <trkpt lat="46.72459" lon="-2.34872">
        <ele>4.9</ele>
        <time>2018-09-20T16:15:29.000Z</time>
      </trkpt>
      <trkpt lat="46.72459" lon="-2.34872">
        <ele>4.9</ele>
        <time>2018-09-20T16:15:30.000Z</time>
      </trkpt>
      <trkpt lat="46.72459" lon="-2.34872">
        <ele>4.9</ele>
        <time>2018-09-20T16:15:31.000Z</time>
      </trkpt>
      <trkpt lat="46.72459" lon="-2.34872">
        <ele>4.9</ele>
        <time>2018-09-20T16:15:32.000Z</time>
      </trkpt>
      <trkpt lat="46.7246" lon="-2.34872">
        <ele>4.9</ele>
        <time>2018-09-20T16:15:33.000Z</time>
      </trkpt>
      <trkpt lat="46.7246" lon="-2.34872">
        <ele>4.9</ele>
        <time>2018-09-20T16:15:34.000Z</time>
      </trkpt>
      <trkpt lat="46.7246" lon="-2.34872">
        <ele>4.9</ele>
        <time>2018-09-20T16:15:35.000Z</time>
      </trkpt>
      <trkpt lat="46.7246" lon="-2.34872">
        <ele>4.9</ele>
        <time>2018-09-20T16:15:36.000Z</time>
      </trkpt>
      <trkpt lat="46.7246" lon="-2.34872">
        <ele>4.9</ele>
        <time>2018-09-20T16:15:37.000Z</time>
      </trkpt>
      <trkpt lat="46.7246" lon="-2.34873">
        <ele>4.9</ele>
        <time>2018-09-20T16:15:38.000Z</time>
      </trkpt>
      <trkpt lat="46.7246" lon="-2.34873">
        <ele>4.9</ele>
        <time>2018-09-20T16:15:39.000Z</time>
      </trkpt>
      <trkpt lat="46.72461" lon="-2.34874">
        <ele>4.8</ele>
        <time>2018-09-20T16:15:40.000Z</time>
      </trkpt>
      <trkpt lat="46.72461" lon="-2.34875">
        <ele>4.8</ele>
        <time>2018-09-20T16:15:41.000Z</time>
      </trkpt>
      <trkpt lat="46.72462" lon="-2.34876">
        <ele>4.8</ele>
        <time>2018-09-20T16:15:42.000Z</time>
      </trkpt>
      <trkpt lat="46.72463" lon="-2.34877">
        <ele>4.8</ele>
        <time>2018-09-20T16:15:43.000Z</time>
      </trkpt>
      <trkpt lat="46.72463" lon="-2.34878">
        <ele>4.8</ele>
        <time>2018-09-20T16:15:44.000Z</time>
      </trkpt>
      <trkpt lat="46.72464" lon="-2.34879">
        <ele>4.8</ele>
        <time>2018-09-20T16:15:45.000Z</time>
      </trkpt>
      <trkpt lat="46.72465" lon="-2.3488">
        <ele>4.7</ele>
        <time>2018-09-20T16:15:46.000Z</time>
      </trkpt>
      <trkpt lat="46.72465" lon="-2.34881">
        <ele>4.7</ele>
        <time>2018-09-20T16:15:47.000Z</time>
      </trkpt>
      <trkpt lat="46.72466" lon="-2.34882">
        <ele>4.7</ele>
        <time>2018-09-20T16:15:48.000Z</time>
      </trkpt>
      <trkpt lat="46.72467" lon="-2.34883">
        <ele>4.7</ele>
        <time>2018-09-20T16:15:49.000Z</time>
      </trkpt>
      <trkpt lat="46.72467" lon="-2.34884">
        <ele>4.7</ele>
        <time>2018-09-20T16:15:50.000Z</time>
      </trkpt>
      <trkpt lat="46.72468" lon="-2.34885">
        <ele>4.7</ele>
        <time>2018-09-20T16:15:51.000Z</time>
      </trkpt>
      <trkpt lat="46.72468" lon="-2.34887">
        <ele>4.7</ele>
        <time>2018-09-20T16:15:52.000Z</time>
      </trkpt>
      <trkpt lat="46.72469" lon="-2.34888">
        <ele>4.7</ele>
        <time>2018-09-20T16:15:53.000Z</time>
      </trkpt>
      <trkpt lat="46.72469" lon="-2.34889">
        <ele>4.7</ele>
        <time>2018-09-20T16:15:54.000Z</time>
      </trkpt>
      <trkpt lat="46.7247" lon="-2.3489">
        <ele>4.7</ele>
        <time>2018-09-20T16:15:55.000Z</time>
      </trkpt>
      <trkpt lat="46.7247" lon="-2.34891">
        <ele>4.7</ele>
        <time>2018-09-20T16:15:56.000Z</time>
      </trkpt>
      <trkpt lat="46.72471" lon="-2.34892">
        <ele>4.7</ele>
        <time>2018-09-20T16:15:57.000Z</time>
      </trkpt>
      <trkpt lat="46.72471" lon="-2.34893">
        <ele>4.7</ele>
        <time>2018-09-20T16:15:58.000Z</time>
      </trkpt>
      <trkpt lat="46.72472" lon="-2.34894">
        <ele>4.7</ele>
        <time>2018-09-20T16:15:59.000Z</time>
      </trkpt>
      <trkpt lat="46.72472" lon="-2.34894">
        <ele>4.7</ele>
        <time>2018-09-20T16:16:00.000Z</time>
      </trkpt>
      <trkpt lat="46.72472" lon="-2.34895">
        <ele>4.7</ele>
        <time>2018-09-20T16:16:01.000Z</time>
      </trkpt>
      <trkpt lat="46.72472" lon="-2.34895">
        <ele>4.7</ele>
        <time>2018-09-20T16:16:02.000Z</time>
      </trkpt>
      <trkpt lat="46.72473" lon="-2.34895">
        <ele>4.7</ele>
        <time>2018-09-20T16:16:03.000Z</time>
      </trkpt>
      <trkpt lat="46.72473" lon="-2.34895">
        <ele>4.7</ele>
        <time>2018-09-20T16:16:04.000Z</time>
      </trkpt>
      <trkpt lat="46.72473" lon="-2.34895">
        <ele>4.7</ele>
        <time>2018-09-20T16:16:05.000Z</time>
      </trkpt>
      <trkpt lat="46.72473" lon="-2.34895">
        <ele>4.7</ele>
        <time>2018-09-20T16:16:06.000Z</time>
      </trkpt>
      <trkpt lat="46.72473" lon="-2.34895">
        <ele>4.7</ele>
        <time>2018-09-20T16:16:07.000Z</time>
      </trkpt>
      <trkpt lat="46.72473" lon="-2.34895">
        <ele>4.7</ele>
        <time>2018-09-20T16:16:08.000Z</time>
      </trkpt>
      <trkpt lat="46.72473" lon="-2.34895">
        <ele>4.7</ele>
        <time>2018-09-20T16:16:09.000Z</time>
      </trkpt>
      <trkpt lat="46.72473" lon="-2.34895">
        <ele>4.7</ele>
        <time>2018-09-20T16:16:10.000Z</time>
      </trkpt>
      <trkpt lat="46.72473" lon="-2.34896">
        <ele>4.7</ele>
        <time>2018-09-20T16:16:11.000Z</time>
      </trkpt>
      <trkpt lat="46.72473" lon="-2.34896">
        <ele>4.7</ele>
        <time>2018-09-20T16:16:12.000Z</time>
      </trkpt>
      <trkpt lat="46.72473" lon="-2.34896">
        <ele>4.7</ele>
        <time>2018-09-20T16:16:13.000Z</time>
      </trkpt>
      <trkpt lat="46.72473" lon="-2.34896">
        <ele>4.7</ele>
        <time>2018-09-20T16:16:14.000Z</time>
      </trkpt>
      <trkpt lat="46.72473" lon="-2.34897">
        <ele>4.7</ele>
        <time>2018-09-20T16:16:15.000Z</time>
      </trkpt>
      <trkpt lat="46.72473" lon="-2.34897">
        <ele>4.7</ele>
        <time>2018-09-20T16:16:16.000Z</time>
      </trkpt>
      <trkpt lat="46.72473" lon="-2.34897">
        <ele>4.7</ele>
        <time>2018-09-20T16:16:17.000Z</time>
      </trkpt>
      <trkpt lat="46.72473" lon="-2.34898">
        <ele>4.7</ele>
        <time>2018-09-20T16:16:18.000Z</time>
      </trkpt>
      <trkpt lat="46.72473" lon="-2.34898">
        <ele>4.7</ele>
        <time>2018-09-20T16:16:19.000Z</time>
      </trkpt>
      <trkpt lat="46.72473" lon="-2.34898">
        <ele>4.8</ele>
        <time>2018-09-20T16:16:20.000Z</time>
      </trkpt>
      <trkpt lat="46.72473" lon="-2.34898">
        <ele>4.8</ele>
        <time>2018-09-20T16:16:21.000Z</time>
      </trkpt>
      <trkpt lat="46.72473" lon="-2.34898">
        <ele>4.8</ele>
        <time>2018-09-20T16:16:22.000Z</time>
      </trkpt>
      <trkpt lat="46.72474" lon="-2.34898">
        <ele>4.8</ele>
        <time>2018-09-20T16:16:23.000Z</time>
      </trkpt>
      <trkpt lat="46.72474" lon="-2.34898">
        <ele>4.8</ele>
        <time>2018-09-20T16:16:24.000Z</time>
      </trkpt>
      <trkpt lat="46.72474" lon="-2.34898">
        <ele>4.8</ele>
        <time>2018-09-20T16:16:25.000Z</time>
      </trkpt>
      <trkpt lat="46.72474" lon="-2.34898">
        <ele>4.8</ele>
        <time>2018-09-20T16:16:26.000Z</time>
      </trkpt>
      <trkpt lat="46.72474" lon="-2.34898">
        <ele>4.8</ele>
        <time>2018-09-20T16:16:27.000Z</time>
      </trkpt>
      <trkpt lat="46.72474" lon="-2.34898">
        <ele>4.8</ele>
        <time>2018-09-20T16:16:28.000Z</time>
      </trkpt>
      <trkpt lat="46.72474" lon="-2.34899">
        <ele>4.8</ele>
        <time>2018-09-20T16:16:29.000Z</time>
      </trkpt>
      <trkpt lat="46.72474" lon="-2.34899">
        <ele>4.8</ele>
        <time>2018-09-20T16:16:30.000Z</time>
      </trkpt>
      <trkpt lat="46.72474" lon="-2.34899">
        <ele>4.8</ele>
        <time>2018-09-20T16:16:31.000Z</time>
      </trkpt>
      <trkpt lat="46.72474" lon="-2.34899">
        <ele>4.8</ele>
        <time>2018-09-20T16:16:32.000Z</time>
      </trkpt>
      <trkpt lat="46.72474" lon="-2.349">
        <ele>4.8</ele>
        <time>2018-09-20T16:16:33.000Z</time>
      </trkpt>
      <trkpt lat="46.72474" lon="-2.34901">
        <ele>4.8</ele>
        <time>2018-09-20T16:16:34.000Z</time>
      </trkpt>
      <trkpt lat="46.72474" lon="-2.34901">
        <ele>4.8</ele>
        <time>2018-09-20T16:16:35.000Z</time>
      </trkpt>
      <trkpt lat="46.72475" lon="-2.34902">
        <ele>4.8</ele>
        <time>2018-09-20T16:16:36.000Z</time>
      </trkpt>
      <trkpt lat="46.72475" lon="-2.34903">
        <ele>4.8</ele>
        <time>2018-09-20T16:16:37.000Z</time>
      </trkpt>
      <trkpt lat="46.72475" lon="-2.34904">
        <ele>4.8</ele>
        <time>2018-09-20T16:16:38.000Z</time>
      </trkpt>
      <trkpt lat="46.72476" lon="-2.34905">
        <ele>4.8</ele>
        <time>2018-09-20T16:16:39.000Z</time>
      </trkpt>
      <trkpt lat="46.72476" lon="-2.34907">
        <ele>4.9</ele>
        <time>2018-09-20T16:16:40.000Z</time>
      </trkpt>
      <trkpt lat="46.72476" lon="-2.34908">
        <ele>4.9</ele>
        <time>2018-09-20T16:16:41.000Z</time>
      </trkpt>
      <trkpt lat="46.72477" lon="-2.34909">
        <ele>4.9</ele>
        <time>2018-09-20T16:16:42.000Z</time>
      </trkpt>
      <trkpt lat="46.72477" lon="-2.3491">
        <ele>4.9</ele>
        <time>2018-09-20T16:16:43.000Z</time>
      </trkpt>
      <trkpt lat="46.72477" lon="-2.34911">
        <ele>4.9</ele>
        <time>2018-09-20T16:16:44.000Z</time>
      </trkpt>
      <trkpt lat="46.72478" lon="-2.34912">
        <ele>4.9</ele>
        <time>2018-09-20T16:16:45.000Z</time>
      </trkpt>
      <trkpt lat="46.72478" lon="-2.34913">
        <ele>4.9</ele>
        <time>2018-09-20T16:16:46.000Z</time>
      </trkpt>
      <trkpt lat="46.72478" lon="-2.34913">
        <ele>4.9</ele>
        <time>2018-09-20T16:16:47.000Z</time>
      </trkpt>
      <trkpt lat="46.72479" lon="-2.34914">
        <ele>4.9</ele>
        <time>2018-09-20T16:16:48.000Z</time>
      </trkpt>
      <trkpt lat="46.72479" lon="-2.34915">
        <ele>5</ele>
        <time>2018-09-20T16:16:49.000Z</time>
      </trkpt>
      <trkpt lat="46.7248" lon="-2.34916">
        <ele>5</ele>
        <time>2018-09-20T16:16:50.000Z</time>
      </trkpt>
      <trkpt lat="46.7248" lon="-2.34917">
        <ele>5</ele>
        <time>2018-09-20T16:16:51.000Z</time>
      </trkpt>
      <trkpt lat="46.72481" lon="-2.34918">
        <ele>5</ele>
        <time>2018-09-20T16:16:52.000Z</time>
      </trkpt>
      <trkpt lat="46.72481" lon="-2.34919">
        <ele>5</ele>
        <time>2018-09-20T16:16:53.000Z</time>
      </trkpt>
      <trkpt lat="46.72482" lon="-2.3492">
        <ele>5</ele>
        <time>2018-09-20T16:16:54.000Z</time>
      </trkpt>
      <trkpt lat="46.72482" lon="-2.34921">
        <ele>4.9</ele>
        <time>2018-09-20T16:16:55.000Z</time>
      </trkpt>
      <trkpt lat="46.72483" lon="-2.34923">
        <ele>4.9</ele>
        <time>2018-09-20T16:16:56.000Z</time>
      </trkpt>
      <trkpt lat="46.72484" lon="-2.34923">
        <ele>4.9</ele>
        <time>2018-09-20T16:16:57.000Z</time>
      </trkpt>
      <trkpt lat="46.72484" lon="-2.34924">
        <ele>4.9</ele>
        <time>2018-09-20T16:16:58.000Z</time>
      </trkpt>
      <trkpt lat="46.72484" lon="-2.34925">
        <ele>4.9</ele>
        <time>2018-09-20T16:16:59.000Z</time>
      </trkpt>
      <trkpt lat="46.72485" lon="-2.34926">
        <ele>4.9</ele>
        <time>2018-09-20T16:17:00.000Z</time>
      </trkpt>
      <trkpt lat="46.72485" lon="-2.34927">
        <ele>4.9</ele>
        <time>2018-09-20T16:17:01.000Z</time>
      </trkpt>
      <trkpt lat="46.72485" lon="-2.34927">
        <ele>4.9</ele>
        <time>2018-09-20T16:17:02.000Z</time>
      </trkpt>
      <trkpt lat="46.72486" lon="-2.34928">
        <ele>4.9</ele>
        <time>2018-09-20T16:17:03.000Z</time>
      </trkpt>
      <trkpt lat="46.72486" lon="-2.34929">
        <ele>4.9</ele>
        <time>2018-09-20T16:17:04.000Z</time>
      </trkpt>
      <trkpt lat="46.72486" lon="-2.34929">
        <ele>4.9</ele>
        <time>2018-09-20T16:17:05.000Z</time>
      </trkpt>
      <trkpt lat="46.72486" lon="-2.34929">
        <ele>4.9</ele>
        <time>2018-09-20T16:17:06.000Z</time>
      </trkpt>
      <trkpt lat="46.72487" lon="-2.3493">
        <ele>4.9</ele>
        <time>2018-09-20T16:17:07.000Z</time>
      </trkpt>
      <trkpt lat="46.72487" lon="-2.3493">
        <ele>4.9</ele>
        <time>2018-09-20T16:17:08.000Z</time>
      </trkpt>
      <trkpt lat="46.72487" lon="-2.3493">
        <ele>4.9</ele>
        <time>2018-09-20T16:17:09.000Z</time>
      </trkpt>
      <trkpt lat="46.72487" lon="-2.34931">
        <ele>4.9</ele>
        <time>2018-09-20T16:17:10.000Z</time>
      </trkpt>
      <trkpt lat="46.72487" lon="-2.34931">
        <ele>4.9</ele>
        <time>2018-09-20T16:17:11.000Z</time>
      </trkpt>
      <trkpt lat="46.72487" lon="-2.34931">
        <ele>4.9</ele>
        <time>2018-09-20T16:17:12.000Z</time>
      </trkpt>
      <trkpt lat="46.72487" lon="-2.34931">
        <ele>4.9</ele>
        <time>2018-09-20T16:17:13.000Z</time>
      </trkpt>
      <trkpt lat="46.72487" lon="-2.34931">
        <ele>4.9</ele>
        <time>2018-09-20T16:17:14.000Z</time>
      </trkpt>
      <trkpt lat="46.72487" lon="-2.34931">
        <ele>4.9</ele>
        <time>2018-09-20T16:17:15.000Z</time>
      </trkpt>
      <trkpt lat="46.72487" lon="-2.34931">
        <ele>4.9</ele>
        <time>2018-09-20T16:17:16.000Z</time>
      </trkpt>
      <trkpt lat="46.72487" lon="-2.34931">
        <ele>4.9</ele>
        <time>2018-09-20T16:17:17.000Z</time>
      </trkpt>
      <trkpt lat="46.72487" lon="-2.34931">
        <ele>4.9</ele>
        <time>2018-09-20T16:17:18.000Z</time>
      </trkpt>
      <trkpt lat="46.72487" lon="-2.34931">
        <ele>4.9</ele>
        <time>2018-09-20T16:17:19.000Z</time>
      </trkpt>
      <trkpt lat="46.72487" lon="-2.34931">
        <ele>4.9</ele>
        <time>2018-09-20T16:17:20.000Z</time>
      </trkpt>
      <trkpt lat="46.72487" lon="-2.34931">
        <ele>4.9</ele>
        <time>2018-09-20T16:17:21.000Z</time>
      </trkpt>
      <trkpt lat="46.72487" lon="-2.34931">
        <ele>4.9</ele>
        <time>2018-09-20T16:17:22.000Z</time>
      </trkpt>
      <trkpt lat="46.72487" lon="-2.34931">
        <ele>4.9</ele>
        <time>2018-09-20T16:17:23.000Z</time>
      </trkpt>
      <trkpt lat="46.72487" lon="-2.34931">
        <ele>4.9</ele>
        <time>2018-09-20T16:17:24.000Z</time>
      </trkpt>
      <trkpt lat="46.72487" lon="-2.34931">
        <ele>4.9</ele>
        <time>2018-09-20T16:17:25.000Z</time>
      </trkpt>
      <trkpt lat="46.72487" lon="-2.34931">
        <ele>4.9</ele>
        <time>2018-09-20T16:17:26.000Z</time>
      </trkpt>
      <trkpt lat="46.72487" lon="-2.34931">
        <ele>4.9</ele>
        <time>2018-09-20T16:17:27.000Z</time>
      </trkpt>
      <trkpt lat="46.72487" lon="-2.34931">
        <ele>4.9</ele>
        <time>2018-09-20T16:17:28.000Z</time>
      </trkpt>
      <trkpt lat="46.72487" lon="-2.34931">
        <ele>4.9</ele>
        <time>2018-09-20T16:17:29.000Z</time>
      </trkpt>
      <trkpt lat="46.72487" lon="-2.34931">
        <ele>4.9</ele>
        <time>2018-09-20T16:17:30.000Z</time>
      </trkpt>
      <trkpt lat="46.72487" lon="-2.34931">
        <ele>4.9</ele>
        <time>2018-09-20T16:17:31.000Z</time>
      </trkpt>
      <trkpt lat="46.72487" lon="-2.34931">
        <ele>4.9</ele>
        <time>2018-09-20T16:17:32.000Z</time>
      </trkpt>
      <trkpt lat="46.72487" lon="-2.34931">
        <ele>4.9</ele>
        <time>2018-09-20T16:17:33.000Z</time>
      </trkpt>
      <trkpt lat="46.72487" lon="-2.34931">
        <ele>4.9</ele>
        <time>2018-09-20T16:17:34.000Z</time>
      </trkpt>
      <trkpt lat="46.72487" lon="-2.34931">
        <ele>4.9</ele>
        <time>2018-09-20T16:17:35.000Z</time>
      </trkpt>
      <trkpt lat="46.72487" lon="-2.34931">
        <ele>4.9</ele>
        <time>2018-09-20T16:17:36.000Z</time>
      </trkpt>
      <trkpt lat="46.72487" lon="-2.34931">
        <ele>4.9</ele>
        <time>2018-09-20T16:17:37.000Z</time>
      </trkpt>
      <trkpt lat="46.72487" lon="-2.34931">
        <ele>4.9</ele>
        <time>2018-09-20T16:17:38.000Z</time>
      </trkpt>
      <trkpt lat="46.72487" lon="-2.34931">
        <ele>4.9</ele>
        <time>2018-09-20T16:17:39.000Z</time>
      </trkpt>
      <trkpt lat="46.72488" lon="-2.34931">
        <ele>4.9</ele>
        <time>2018-09-20T16:17:40.000Z</time>
      </trkpt>
      <trkpt lat="46.72488" lon="-2.34931">
        <ele>4.9</ele>
        <time>2018-09-20T16:17:41.000Z</time>
      </trkpt>
      <trkpt lat="46.72488" lon="-2.34931">
        <ele>4.9</ele>
        <time>2018-09-20T16:17:42.000Z</time>
      </trkpt>
      <trkpt lat="46.72488" lon="-2.34931">
        <ele>4.9</ele>
        <time>2018-09-20T16:17:43.000Z</time>
      </trkpt>
      <trkpt lat="46.72489" lon="-2.3493">
        <ele>4.8</ele>
        <time>2018-09-20T16:17:44.000Z</time>
      </trkpt>
      <trkpt lat="46.72492" lon="-2.34927">
        <ele>4.7</ele>
        <time>2018-09-20T16:17:45.000Z</time>
      </trkpt>
      <trkpt lat="46.72494" lon="-2.34926">
        <ele>4.5</ele>
        <time>2018-09-20T16:17:46.000Z</time>
      </trkpt>
      <trkpt lat="46.72495" lon="-2.34925">
        <ele>4.5</ele>
        <time>2018-09-20T16:17:47.000Z</time>
      </trkpt>
      <trkpt lat="46.72495" lon="-2.34925">
        <ele>4.4</ele>
        <time>2018-09-20T16:17:48.000Z</time>
      </trkpt>
      <trkpt lat="46.72495" lon="-2.34925">
        <ele>4.4</ele>
        <time>2018-09-20T16:17:49.000Z</time>
      </trkpt>
      <trkpt lat="46.72495" lon="-2.34925">
        <ele>4.4</ele>
        <time>2018-09-20T16:17:50.000Z</time>
      </trkpt>
      <trkpt lat="46.72495" lon="-2.34925">
        <ele>4.4</ele>
        <time>2018-09-20T16:17:51.000Z</time>
      </trkpt>
      <trkpt lat="46.72495" lon="-2.34925">
        <ele>4.4</ele>
        <time>2018-09-20T16:17:52.000Z</time>
      </trkpt>
      <trkpt lat="46.72495" lon="-2.34925">
        <ele>4.4</ele>
        <time>2018-09-20T16:17:53.000Z</time>
      </trkpt>
      <trkpt lat="46.72495" lon="-2.34925">
        <ele>4.4</ele>
        <time>2018-09-20T16:17:54.000Z</time>
      </trkpt>
      <trkpt lat="46.72495" lon="-2.34925">
        <ele>4.4</ele>
        <time>2018-09-20T16:17:55.000Z</time>
      </trkpt>
      <trkpt lat="46.72495" lon="-2.34925">
        <ele>4.4</ele>
        <time>2018-09-20T16:17:56.000Z</time>
      </trkpt>
      <trkpt lat="46.72495" lon="-2.34925">
        <ele>4.4</ele>
        <time>2018-09-20T16:17:57.000Z</time>
      </trkpt>
      <trkpt lat="46.72495" lon="-2.34925">
        <ele>4.4</ele>
        <time>2018-09-20T16:17:58.000Z</time>
      </trkpt>
      <trkpt lat="46.72495" lon="-2.34925">
        <ele>4.4</ele>
        <time>2018-09-20T16:17:59.000Z</time>
      </trkpt>
      <trkpt lat="46.72495" lon="-2.34925">
        <ele>4.4</ele>
        <time>2018-09-20T16:18:00.000Z</time>
      </trkpt>
      <trkpt lat="46.72495" lon="-2.34925">
        <ele>4.4</ele>
        <time>2018-09-20T16:18:01.000Z</time>
      </trkpt>
      <trkpt lat="46.72495" lon="-2.34925">
        <ele>4.4</ele>
        <time>2018-09-20T16:18:02.000Z</time>
      </trkpt>
      <trkpt lat="46.72495" lon="-2.34925">
        <ele>4.4</ele>
        <time>2018-09-20T16:18:03.000Z</time>
      </trkpt>
      <trkpt lat="46.72495" lon="-2.34925">
        <ele>4.4</ele>
        <time>2018-09-20T16:18:04.000Z</time>
      </trkpt>
      <trkpt lat="46.72495" lon="-2.34925">
        <ele>4.4</ele>
        <time>2018-09-20T16:18:05.000Z</time>
      </trkpt>
      <trkpt lat="46.72495" lon="-2.34925">
        <ele>4.4</ele>
        <time>2018-09-20T16:18:06.000Z</time>
      </trkpt>
      <trkpt lat="46.72495" lon="-2.34925">
        <ele>4.4</ele>
        <time>2018-09-20T16:18:07.000Z</time>
      </trkpt>
      <trkpt lat="46.72495" lon="-2.34925">
        <ele>4.4</ele>
        <time>2018-09-20T16:18:08.000Z</time>
      </trkpt>
      <trkpt lat="46.72495" lon="-2.34925">
        <ele>4.4</ele>
        <time>2018-09-20T16:18:09.000Z</time>
      </trkpt>
      <trkpt lat="46.72495" lon="-2.34925">
        <ele>4.4</ele>
        <time>2018-09-20T16:18:10.000Z</time>
      </trkpt>
      <trkpt lat="46.72495" lon="-2.34925">
        <ele>4.4</ele>
        <time>2018-09-20T16:18:11.000Z</time>
      </trkpt>
      <trkpt lat="46.72495" lon="-2.34925">
        <ele>4.4</ele>
        <time>2018-09-20T16:18:12.000Z</time>
      </trkpt>
      <trkpt lat="46.72495" lon="-2.34925">
        <ele>4.4</ele>
        <time>2018-09-20T16:18:13.000Z</time>
      </trkpt>
      <trkpt lat="46.72495" lon="-2.34925">
        <ele>4.4</ele>
        <time>2018-09-20T16:18:14.000Z</time>
      </trkpt>
      <trkpt lat="46.72495" lon="-2.34925">
        <ele>4.4</ele>
        <time>2018-09-20T16:18:15.000Z</time>
      </trkpt>
      <trkpt lat="46.72495" lon="-2.34925">
        <ele>4.4</ele>
        <time>2018-09-20T16:18:16.000Z</time>
      </trkpt>
      <trkpt lat="46.72495" lon="-2.34925">
        <ele>4.4</ele>
        <time>2018-09-20T16:18:17.000Z</time>
      </trkpt>
      <trkpt lat="46.72495" lon="-2.34926">
        <ele>4.4</ele>
        <time>2018-09-20T16:18:18.000Z</time>
      </trkpt>
      <trkpt lat="46.72497" lon="-2.34928">
        <ele>4.4</ele>
        <time>2018-09-20T16:18:19.000Z</time>
      </trkpt>
      <trkpt lat="46.72498" lon="-2.34929">
        <ele>4.4</ele>
        <time>2018-09-20T16:18:20.000Z</time>
      </trkpt>
      <trkpt lat="46.72498" lon="-2.3493">
        <ele>4.4</ele>
        <time>2018-09-20T16:18:21.000Z</time>
      </trkpt>
      <trkpt lat="46.72499" lon="-2.34929">
        <ele>4.4</ele>
        <time>2018-09-20T16:18:22.000Z</time>
      </trkpt>
      <trkpt lat="46.72499" lon="-2.3493">
        <ele>4.4</ele>
        <time>2018-09-20T16:18:23.000Z</time>
      </trkpt>
      <trkpt lat="46.72499" lon="-2.3493">
        <ele>4.4</ele>
        <time>2018-09-20T16:18:24.000Z</time>
      </trkpt>
      <trkpt lat="46.725" lon="-2.3493">
        <ele>4.3</ele>
        <time>2018-09-20T16:18:25.000Z</time>
      </trkpt>
      <trkpt lat="46.725" lon="-2.34931">
        <ele>4.3</ele>
        <time>2018-09-20T16:18:26.000Z</time>
      </trkpt>
      <trkpt lat="46.72501" lon="-2.34932">
        <ele>4.3</ele>
        <time>2018-09-20T16:18:27.000Z</time>
      </trkpt>
      <trkpt lat="46.72501" lon="-2.34933">
        <ele>4.3</ele>
        <time>2018-09-20T16:18:28.000Z</time>
      </trkpt>
      <trkpt lat="46.72502" lon="-2.34934">
        <ele>4.4</ele>
        <time>2018-09-20T16:18:29.000Z</time>
      </trkpt>
      <trkpt lat="46.72502" lon="-2.34936">
        <ele>4.4</ele>
        <time>2018-09-20T16:18:30.000Z</time>
      </trkpt>
      <trkpt lat="46.72503" lon="-2.34937">
        <ele>4.4</ele>
        <time>2018-09-20T16:18:31.000Z</time>
      </trkpt>
      <trkpt lat="46.72503" lon="-2.34938">
        <ele>4.4</ele>
        <time>2018-09-20T16:18:32.000Z</time>
      </trkpt>
      <trkpt lat="46.72504" lon="-2.3494">
        <ele>4.4</ele>
        <time>2018-09-20T16:18:33.000Z</time>
      </trkpt>
      <trkpt lat="46.72504" lon="-2.34941">
        <ele>4.4</ele>
        <time>2018-09-20T16:18:34.000Z</time>
      </trkpt>
      <trkpt lat="46.72505" lon="-2.34942">
        <ele>4.5</ele>
        <time>2018-09-20T16:18:35.000Z</time>
      </trkpt>
      <trkpt lat="46.72505" lon="-2.34944">
        <ele>4.5</ele>
        <time>2018-09-20T16:18:36.000Z</time>
      </trkpt>
      <trkpt lat="46.72505" lon="-2.34945">
        <ele>4.5</ele>
        <time>2018-09-20T16:18:37.000Z</time>
      </trkpt>
      <trkpt lat="46.72506" lon="-2.34946">
        <ele>4.5</ele>
        <time>2018-09-20T16:18:38.000Z</time>
      </trkpt>
      <trkpt lat="46.72506" lon="-2.34947">
        <ele>4.6</ele>
        <time>2018-09-20T16:18:39.000Z</time>
      </trkpt>
      <trkpt lat="46.72506" lon="-2.34948">
        <ele>4.6</ele>
        <time>2018-09-20T16:18:40.000Z</time>
      </trkpt>
      <trkpt lat="46.72506" lon="-2.34949">
        <ele>4.6</ele>
        <time>2018-09-20T16:18:41.000Z</time>
      </trkpt>
      <trkpt lat="46.72506" lon="-2.3495">
        <ele>4.6</ele>
        <time>2018-09-20T16:18:42.000Z</time>
      </trkpt>
      <trkpt lat="46.72507" lon="-2.34951">
        <ele>4.6</ele>
        <time>2018-09-20T16:18:43.000Z</time>
      </trkpt>
      <trkpt lat="46.72507" lon="-2.34952">
        <ele>4.6</ele>
        <time>2018-09-20T16:18:44.000Z</time>
      </trkpt>
      <trkpt lat="46.72507" lon="-2.34952">
        <ele>4.6</ele>
        <time>2018-09-20T16:18:45.000Z</time>
      </trkpt>
      <trkpt lat="46.72507" lon="-2.34953">
        <ele>4.7</ele>
        <time>2018-09-20T16:18:46.000Z</time>
      </trkpt>
      <trkpt lat="46.72507" lon="-2.34953">
        <ele>4.7</ele>
        <time>2018-09-20T16:18:47.000Z</time>
      </trkpt>
      <trkpt lat="46.72507" lon="-2.34954">
        <ele>4.7</ele>
        <time>2018-09-20T16:18:48.000Z</time>
      </trkpt>
      <trkpt lat="46.72507" lon="-2.34954">
        <ele>4.7</ele>
        <time>2018-09-20T16:18:49.000Z</time>
      </trkpt>
      <trkpt lat="46.72507" lon="-2.34954">
        <ele>4.7</ele>
        <time>2018-09-20T16:18:50.000Z</time>
      </trkpt>
      <trkpt lat="46.72507" lon="-2.34955">
        <ele>4.7</ele>
        <time>2018-09-20T16:18:51.000Z</time>
      </trkpt>
      <trkpt lat="46.72507" lon="-2.34955">
        <ele>4.7</ele>
        <time>2018-09-20T16:18:52.000Z</time>
      </trkpt>
      <trkpt lat="46.72507" lon="-2.34955">
        <ele>4.7</ele>
        <time>2018-09-20T16:18:53.000Z</time>
      </trkpt>
      <trkpt lat="46.72507" lon="-2.34955">
        <ele>4.7</ele>
        <time>2018-09-20T16:18:54.000Z</time>
      </trkpt>
      <trkpt lat="46.72507" lon="-2.34955">
        <ele>4.7</ele>
        <time>2018-09-20T16:18:55.000Z</time>
      </trkpt>
      <trkpt lat="46.72507" lon="-2.34955">
        <ele>4.7</ele>
        <time>2018-09-20T16:18:56.000Z</time>
      </trkpt>
      <trkpt lat="46.72507" lon="-2.34955">
        <ele>4.7</ele>
        <time>2018-09-20T16:18:57.000Z</time>
      </trkpt>
      <trkpt lat="46.72507" lon="-2.34955">
        <ele>4.7</ele>
        <time>2018-09-20T16:18:58.000Z</time>
      </trkpt>
      <trkpt lat="46.72507" lon="-2.34955">
        <ele>4.7</ele>
        <time>2018-09-20T16:18:59.000Z</time>
      </trkpt>
      <trkpt lat="46.72507" lon="-2.34955">
        <ele>4.7</ele>
        <time>2018-09-20T16:19:00.000Z</time>
      </trkpt>
      <trkpt lat="46.72507" lon="-2.34955">
        <ele>4.7</ele>
        <time>2018-09-20T16:19:01.000Z</time>
      </trkpt>
      <trkpt lat="46.72507" lon="-2.34955">
        <ele>4.7</ele>
        <time>2018-09-20T16:19:02.000Z</time>
      </trkpt>
      <trkpt lat="46.72507" lon="-2.34955">
        <ele>4.7</ele>
        <time>2018-09-20T16:19:03.000Z</time>
      </trkpt>
      <trkpt lat="46.72507" lon="-2.34955">
        <ele>4.7</ele>
        <time>2018-09-20T16:19:04.000Z</time>
      </trkpt>
      <trkpt lat="46.72507" lon="-2.34955">
        <ele>4.7</ele>
        <time>2018-09-20T16:19:05.000Z</time>
      </trkpt>
      <trkpt lat="46.72507" lon="-2.34955">
        <ele>4.7</ele>
        <time>2018-09-20T16:19:06.000Z</time>
      </trkpt>
      <trkpt lat="46.72507" lon="-2.34955">
        <ele>4.7</ele>
        <time>2018-09-20T16:19:07.000Z</time>
      </trkpt>
      <trkpt lat="46.72507" lon="-2.34955">
        <ele>4.7</ele>
        <time>2018-09-20T16:19:08.000Z</time>
      </trkpt>
      <trkpt lat="46.72507" lon="-2.34955">
        <ele>4.7</ele>
        <time>2018-09-20T16:19:09.000Z</time>
      </trkpt>
      <trkpt lat="46.72507" lon="-2.34955">
        <ele>4.7</ele>
        <time>2018-09-20T16:19:10.000Z</time>
      </trkpt>
      <trkpt lat="46.72507" lon="-2.34956">
        <ele>4.7</ele>
        <time>2018-09-20T16:19:11.000Z</time>
      </trkpt>
      <trkpt lat="46.72507" lon="-2.34956">
        <ele>4.7</ele>
        <time>2018-09-20T16:19:12.000Z</time>
      </trkpt>
      <trkpt lat="46.72507" lon="-2.34956">
        <ele>4.7</ele>
        <time>2018-09-20T16:19:13.000Z</time>
      </trkpt>
      <trkpt lat="46.72508" lon="-2.34957">
        <ele>4.7</ele>
        <time>2018-09-20T16:19:14.000Z</time>
      </trkpt>
      <trkpt lat="46.72508" lon="-2.34958">
        <ele>4.7</ele>
        <time>2018-09-20T16:19:15.000Z</time>
      </trkpt>
      <trkpt lat="46.72508" lon="-2.34959">
        <ele>4.8</ele>
        <time>2018-09-20T16:19:16.000Z</time>
      </trkpt>
      <trkpt lat="46.72509" lon="-2.3496">
        <ele>4.8</ele>
        <time>2018-09-20T16:19:17.000Z</time>
      </trkpt>
      <trkpt lat="46.7251" lon="-2.34961">
        <ele>4.8</ele>
        <time>2018-09-20T16:19:18.000Z</time>
      </trkpt>
      <trkpt lat="46.7251" lon="-2.34962">
        <ele>4.8</ele>
        <time>2018-09-20T16:19:19.000Z</time>
      </trkpt>
      <trkpt lat="46.7251" lon="-2.34963">
        <ele>4.8</ele>
        <time>2018-09-20T16:19:20.000Z</time>
      </trkpt>
      <trkpt lat="46.72511" lon="-2.34964">
        <ele>4.8</ele>
        <time>2018-09-20T16:19:21.000Z</time>
      </trkpt>
      <trkpt lat="46.72511" lon="-2.34964">
        <ele>4.8</ele>
        <time>2018-09-20T16:19:22.000Z</time>
      </trkpt>
      <trkpt lat="46.72511" lon="-2.34964">
        <ele>4.8</ele>
        <time>2018-09-20T16:19:23.000Z</time>
      </trkpt>
      <trkpt lat="46.72511" lon="-2.34965">
        <ele>4.8</ele>
        <time>2018-09-20T16:19:24.000Z</time>
      </trkpt>
      <trkpt lat="46.72511" lon="-2.34965">
        <ele>4.8</ele>
        <time>2018-09-20T16:19:25.000Z</time>
      </trkpt>
      <trkpt lat="46.72511" lon="-2.34966">
        <ele>4.9</ele>
        <time>2018-09-20T16:19:26.000Z</time>
      </trkpt>
      <trkpt lat="46.72511" lon="-2.34966">
        <ele>4.9</ele>
        <time>2018-09-20T16:19:27.000Z</time>
      </trkpt>
      <trkpt lat="46.72512" lon="-2.34967">
        <ele>4.9</ele>
        <time>2018-09-20T16:19:28.000Z</time>
      </trkpt>
      <trkpt lat="46.72512" lon="-2.34968">
        <ele>4.9</ele>
        <time>2018-09-20T16:19:29.000Z</time>
      </trkpt>
      <trkpt lat="46.72513" lon="-2.34968">
        <ele>4.9</ele>
        <time>2018-09-20T16:19:30.000Z</time>
      </trkpt>
      <trkpt lat="46.72513" lon="-2.34969">
        <ele>4.9</ele>
        <time>2018-09-20T16:19:31.000Z</time>
      </trkpt>
      <trkpt lat="46.72514" lon="-2.3497">
        <ele>4.9</ele>
        <time>2018-09-20T16:19:32.000Z</time>
      </trkpt>
      <trkpt lat="46.72515" lon="-2.3497">
        <ele>4.9</ele>
        <time>2018-09-20T16:19:33.000Z</time>
      </trkpt>
      <trkpt lat="46.72515" lon="-2.34971">
        <ele>4.9</ele>
        <time>2018-09-20T16:19:34.000Z</time>
      </trkpt>
      <trkpt lat="46.72516" lon="-2.34971">
        <ele>4.9</ele>
        <time>2018-09-20T16:19:35.000Z</time>
      </trkpt>
      <trkpt lat="46.72517" lon="-2.34972">
        <ele>4.9</ele>
        <time>2018-09-20T16:19:36.000Z</time>
      </trkpt>
      <trkpt lat="46.72518" lon="-2.34973">
        <ele>4.9</ele>
        <time>2018-09-20T16:19:37.000Z</time>
      </trkpt>
      <trkpt lat="46.72518" lon="-2.34973">
        <ele>4.8</ele>
        <time>2018-09-20T16:19:38.000Z</time>
      </trkpt>
      <trkpt lat="46.72519" lon="-2.34974">
        <ele>4.8</ele>
        <time>2018-09-20T16:19:39.000Z</time>
      </trkpt>
      <trkpt lat="46.72519" lon="-2.34974">
        <ele>4.8</ele>
        <time>2018-09-20T16:19:40.000Z</time>
      </trkpt>
      <trkpt lat="46.7252" lon="-2.34975">
        <ele>4.8</ele>
        <time>2018-09-20T16:19:41.000Z</time>
      </trkpt>
      <trkpt lat="46.7252" lon="-2.34976">
        <ele>4.9</ele>
        <time>2018-09-20T16:19:42.000Z</time>
      </trkpt>
      <trkpt lat="46.72521" lon="-2.34976">
        <ele>4.8</ele>
        <time>2018-09-20T16:19:43.000Z</time>
      </trkpt>
      <trkpt lat="46.72522" lon="-2.34977">
        <ele>4.8</ele>
        <time>2018-09-20T16:19:44.000Z</time>
      </trkpt>
      <trkpt lat="46.72522" lon="-2.34977">
        <ele>4.8</ele>
        <time>2018-09-20T16:19:45.000Z</time>
      </trkpt>
      <trkpt lat="46.72523" lon="-2.34978">
        <ele>4.8</ele>
        <time>2018-09-20T16:19:46.000Z</time>
      </trkpt>
      <trkpt lat="46.72523" lon="-2.34978">
        <ele>4.8</ele>
        <time>2018-09-20T16:19:47.000Z</time>
      </trkpt>
      <trkpt lat="46.72524" lon="-2.34978">
        <ele>4.8</ele>
        <time>2018-09-20T16:19:48.000Z</time>
      </trkpt>
      <trkpt lat="46.72524" lon="-2.34979">
        <ele>4.8</ele>
        <time>2018-09-20T16:19:49.000Z</time>
      </trkpt>
      <trkpt lat="46.72525" lon="-2.34979">
        <ele>4.8</ele>
        <time>2018-09-20T16:19:50.000Z</time>
      </trkpt>
      <trkpt lat="46.72526" lon="-2.3498">
        <ele>4.8</ele>
        <time>2018-09-20T16:19:51.000Z</time>
      </trkpt>
      <trkpt lat="46.72526" lon="-2.3498">
        <ele>4.8</ele>
        <time>2018-09-20T16:19:52.000Z</time>
      </trkpt>
      <trkpt lat="46.72527" lon="-2.3498">
        <ele>4.8</ele>
        <time>2018-09-20T16:19:53.000Z</time>
      </trkpt>
      <trkpt lat="46.72528" lon="-2.34981">
        <ele>4.8</ele>
        <time>2018-09-20T16:19:54.000Z</time>
      </trkpt>
      <trkpt lat="46.72529" lon="-2.34981">
        <ele>4.8</ele>
        <time>2018-09-20T16:19:55.000Z</time>
      </trkpt>
      <trkpt lat="46.7253" lon="-2.34981">
        <ele>4.8</ele>
        <time>2018-09-20T16:19:56.000Z</time>
      </trkpt>
      <trkpt lat="46.72531" lon="-2.34982">
        <ele>4.7</ele>
        <time>2018-09-20T16:19:57.000Z</time>
      </trkpt>
      <trkpt lat="46.72532" lon="-2.34982">
        <ele>4.7</ele>
        <time>2018-09-20T16:19:58.000Z</time>
      </trkpt>
      <trkpt lat="46.72533" lon="-2.34983">
        <ele>4.7</ele>
        <time>2018-09-20T16:19:59.000Z</time>
      </trkpt>
      <trkpt lat="46.72534" lon="-2.34983">
        <ele>4.7</ele>
        <time>2018-09-20T16:20:00.000Z</time>
      </trkpt>
      <trkpt lat="46.72535" lon="-2.34984">
        <ele>4.7</ele>
        <time>2018-09-20T16:20:01.000Z</time>
      </trkpt>
      <trkpt lat="46.72536" lon="-2.34984">
        <ele>4.7</ele>
        <time>2018-09-20T16:20:02.000Z</time>
      </trkpt>
      <trkpt lat="46.72538" lon="-2.34985">
        <ele>4.7</ele>
        <time>2018-09-20T16:20:03.000Z</time>
      </trkpt>
      <trkpt lat="46.72539" lon="-2.34986">
        <ele>4.6</ele>
        <time>2018-09-20T16:20:04.000Z</time>
      </trkpt>
      <trkpt lat="46.7254" lon="-2.34986">
        <ele>4.6</ele>
        <time>2018-09-20T16:20:05.000Z</time>
      </trkpt>
      <trkpt lat="46.72541" lon="-2.34987">
        <ele>4.6</ele>
        <time>2018-09-20T16:20:06.000Z</time>
      </trkpt>
      <trkpt lat="46.72543" lon="-2.34988">
        <ele>4.6</ele>
        <time>2018-09-20T16:20:07.000Z</time>
      </trkpt>
      <trkpt lat="46.72544" lon="-2.34989">
        <ele>4.6</ele>
        <time>2018-09-20T16:20:08.000Z</time>
      </trkpt>
      <trkpt lat="46.72545" lon="-2.34989">
        <ele>4.6</ele>
        <time>2018-09-20T16:20:09.000Z</time>
      </trkpt>
      <trkpt lat="46.72546" lon="-2.3499">
        <ele>4.6</ele>
        <time>2018-09-20T16:20:10.000Z</time>
      </trkpt>
      <trkpt lat="46.72546" lon="-2.34991">
        <ele>4.6</ele>
        <time>2018-09-20T16:20:11.000Z</time>
      </trkpt>
      <trkpt lat="46.72547" lon="-2.34991">
        <ele>4.6</ele>
        <time>2018-09-20T16:20:12.000Z</time>
      </trkpt>
      <trkpt lat="46.72547" lon="-2.34992">
        <ele>4.6</ele>
        <time>2018-09-20T16:20:13.000Z</time>
      </trkpt>
      <trkpt lat="46.72548" lon="-2.34992">
        <ele>4.6</ele>
        <time>2018-09-20T16:20:14.000Z</time>
      </trkpt>
      <trkpt lat="46.72548" lon="-2.34993">
        <ele>4.6</ele>
        <time>2018-09-20T16:20:15.000Z</time>
      </trkpt>
      <trkpt lat="46.72548" lon="-2.34993">
        <ele>4.6</ele>
        <time>2018-09-20T16:20:16.000Z</time>
      </trkpt>
      <trkpt lat="46.72549" lon="-2.34993">
        <ele>4.6</ele>
        <time>2018-09-20T16:20:17.000Z</time>
      </trkpt>
      <trkpt lat="46.72549" lon="-2.34994">
        <ele>4.6</ele>
        <time>2018-09-20T16:20:18.000Z</time>
      </trkpt>
      <trkpt lat="46.7255" lon="-2.34994">
        <ele>4.6</ele>
        <time>2018-09-20T16:20:19.000Z</time>
      </trkpt>
      <trkpt lat="46.72551" lon="-2.34994">
        <ele>4.6</ele>
        <time>2018-09-20T16:20:20.000Z</time>
      </trkpt>
      <trkpt lat="46.72552" lon="-2.34994">
        <ele>4.6</ele>
        <time>2018-09-20T16:20:21.000Z</time>
      </trkpt>
      <trkpt lat="46.72553" lon="-2.34994">
        <ele>4.6</ele>
        <time>2018-09-20T16:20:22.000Z</time>
      </trkpt>
      <trkpt lat="46.72554" lon="-2.34995">
        <ele>4.5</ele>
        <time>2018-09-20T16:20:23.000Z</time>
      </trkpt>
      <trkpt lat="46.72555" lon="-2.34995">
        <ele>4.5</ele>
        <time>2018-09-20T16:20:24.000Z</time>
      </trkpt>
      <trkpt lat="46.72556" lon="-2.34995">
        <ele>4.5</ele>
        <time>2018-09-20T16:20:25.000Z</time>
      </trkpt>
      <trkpt lat="46.72557" lon="-2.34995">
        <ele>4.5</ele>
        <time>2018-09-20T16:20:26.000Z</time>
      </trkpt>
      <trkpt lat="46.72558" lon="-2.34995">
        <ele>4.4</ele>
        <time>2018-09-20T16:20:27.000Z</time>
      </trkpt>
      <trkpt lat="46.72559" lon="-2.34995">
        <ele>4.4</ele>
        <time>2018-09-20T16:20:28.000Z</time>
      </trkpt>
      <trkpt lat="46.7256" lon="-2.34995">
        <ele>4.4</ele>
        <time>2018-09-20T16:20:29.000Z</time>
      </trkpt>
      <trkpt lat="46.72561" lon="-2.34996">
        <ele>4.4</ele>
        <time>2018-09-20T16:20:30.000Z</time>
      </trkpt>
      <trkpt lat="46.72562" lon="-2.34996">
        <ele>4.4</ele>
        <time>2018-09-20T16:20:31.000Z</time>
      </trkpt>
      <trkpt lat="46.72563" lon="-2.34997">
        <ele>4.4</ele>
        <time>2018-09-20T16:20:32.000Z</time>
      </trkpt>
      <trkpt lat="46.72564" lon="-2.34997">
        <ele>4.4</ele>
        <time>2018-09-20T16:20:33.000Z</time>
      </trkpt>
      <trkpt lat="46.72565" lon="-2.34997">
        <ele>4.4</ele>
        <time>2018-09-20T16:20:34.000Z</time>
      </trkpt>
      <trkpt lat="46.72566" lon="-2.34998">
        <ele>4.3</ele>
        <time>2018-09-20T16:20:35.000Z</time>
      </trkpt>
      <trkpt lat="46.72566" lon="-2.34998">
        <ele>4.3</ele>
        <time>2018-09-20T16:20:36.000Z</time>
      </trkpt>
      <trkpt lat="46.72567" lon="-2.34998">
        <ele>4.3</ele>
        <time>2018-09-20T16:20:37.000Z</time>
      </trkpt>
      <trkpt lat="46.72568" lon="-2.34998">
        <ele>4.3</ele>
        <time>2018-09-20T16:20:38.000Z</time>
      </trkpt>
      <trkpt lat="46.72569" lon="-2.34998">
        <ele>4.3</ele>
        <time>2018-09-20T16:20:39.000Z</time>
      </trkpt>
      <trkpt lat="46.72571" lon="-2.34998">
        <ele>4.2</ele>
        <time>2018-09-20T16:20:40.000Z</time>
      </trkpt>
      <trkpt lat="46.72572" lon="-2.34999">
        <ele>4.2</ele>
        <time>2018-09-20T16:20:41.000Z</time>
      </trkpt>
      <trkpt lat="46.72574" lon="-2.34999">
        <ele>4.2</ele>
        <time>2018-09-20T16:20:42.000Z</time>
      </trkpt>
      <trkpt lat="46.72575" lon="-2.34999">
        <ele>4.2</ele>
        <time>2018-09-20T16:20:43.000Z</time>
      </trkpt>
      <trkpt lat="46.72576" lon="-2.34999">
        <ele>4.1</ele>
        <time>2018-09-20T16:20:44.000Z</time>
      </trkpt>
      <trkpt lat="46.72578" lon="-2.34999">
        <ele>4.1</ele>
        <time>2018-09-20T16:20:45.000Z</time>
      </trkpt>
      <trkpt lat="46.72579" lon="-2.34999">
        <ele>4.1</ele>
        <time>2018-09-20T16:20:46.000Z</time>
      </trkpt>
      <trkpt lat="46.7258" lon="-2.35">
        <ele>4.1</ele>
        <time>2018-09-20T16:20:47.000Z</time>
      </trkpt>
      <trkpt lat="46.72582" lon="-2.35">
        <ele>4</ele>
        <time>2018-09-20T16:20:48.000Z</time>
      </trkpt>
      <trkpt lat="46.72583" lon="-2.35">
        <ele>4</ele>
        <time>2018-09-20T16:20:49.000Z</time>
      </trkpt>
      <trkpt lat="46.72583" lon="-2.35">
        <ele>4</ele>
        <time>2018-09-20T16:20:50.000Z</time>
      </trkpt>
      <trkpt lat="46.72584" lon="-2.35">
        <ele>4</ele>
        <time>2018-09-20T16:20:51.000Z</time>
      </trkpt>
      <trkpt lat="46.72585" lon="-2.35">
        <ele>4</ele>
        <time>2018-09-20T16:20:52.000Z</time>
      </trkpt>
      <trkpt lat="46.72586" lon="-2.35">
        <ele>4</ele>
        <time>2018-09-20T16:20:53.000Z</time>
      </trkpt>
      <trkpt lat="46.72587" lon="-2.35">
        <ele>4</ele>
        <time>2018-09-20T16:20:54.000Z</time>
      </trkpt>
      <trkpt lat="46.72587" lon="-2.35">
        <ele>4</ele>
        <time>2018-09-20T16:20:55.000Z</time>
      </trkpt>
      <trkpt lat="46.72588" lon="-2.35">
        <ele>3.9</ele>
        <time>2018-09-20T16:20:56.000Z</time>
      </trkpt>
      <trkpt lat="46.72589" lon="-2.35">
        <ele>3.9</ele>
        <time>2018-09-20T16:20:57.000Z</time>
      </trkpt>
      <trkpt lat="46.7259" lon="-2.35">
        <ele>3.9</ele>
        <time>2018-09-20T16:20:58.000Z</time>
      </trkpt>
      <trkpt lat="46.72591" lon="-2.35">
        <ele>3.9</ele>
        <time>2018-09-20T16:20:59.000Z</time>
      </trkpt>
      <trkpt lat="46.72592" lon="-2.35">
        <ele>3.9</ele>
        <time>2018-09-20T16:21:00.000Z</time>
      </trkpt>
      <trkpt lat="46.72593" lon="-2.35">
        <ele>3.9</ele>
        <time>2018-09-20T16:21:01.000Z</time>
      </trkpt>
      <trkpt lat="46.72594" lon="-2.35">
        <ele>3.9</ele>
        <time>2018-09-20T16:21:02.000Z</time>
      </trkpt>
      <trkpt lat="46.72594" lon="-2.35">
        <ele>3.9</ele>
        <time>2018-09-20T16:21:03.000Z</time>
      </trkpt>
      <trkpt lat="46.72595" lon="-2.35">
        <ele>3.8</ele>
        <time>2018-09-20T16:21:04.000Z</time>
      </trkpt>
      <trkpt lat="46.72596" lon="-2.35">
        <ele>3.8</ele>
        <time>2018-09-20T16:21:05.000Z</time>
      </trkpt>
      <trkpt lat="46.726" lon="-2.35001">
        <ele>3.8</ele>
        <time>2018-09-20T16:21:42.000Z</time>
      </trkpt>
      <trkpt lat="46.726" lon="-2.35">
        <ele>3.8</ele>
        <time>2018-09-20T16:21:41.000Z</time>
      </trkpt>
      <trkpt lat="46.726" lon="-2.35">
        <ele>3.8</ele>
        <time>2018-09-20T16:21:40.000Z</time>
      </trkpt>
      <trkpt lat="46.726" lon="-2.35">
        <ele>3.8</ele>
        <time>2018-09-20T16:21:39.000Z</time>
      </trkpt>
      <trkpt lat="46.726" lon="-2.35">
        <ele>3.8</ele>
        <time>2018-09-20T16:21:38.000Z</time>
      </trkpt>
      <trkpt lat="46.726" lon="-2.35">
        <ele>3.8</ele>
        <time>2018-09-20T16:21:37.000Z</time>
      </trkpt>
      <trkpt lat="46.726" lon="-2.35">
        <ele>3.8</ele>
        <time>2018-09-20T16:21:36.000Z</time>
      </trkpt>
      <trkpt lat="46.726" lon="-2.35">
        <ele>3.8</ele>
        <time>2018-09-20T16:21:35.000Z</time>
      </trkpt>
      <trkpt lat="46.726" lon="-2.35">
        <ele>3.8</ele>
        <time>2018-09-20T16:21:34.000Z</time>
      </trkpt>
      <trkpt lat="46.726" lon="-2.35">
        <ele>3.8</ele>
        <time>2018-09-20T16:21:33.000Z</time>
      </trkpt>
      <trkpt lat="46.726" lon="-2.35">
        <ele>3.8</ele>
        <time>2018-09-20T16:21:32.000Z</time>
      </trkpt>
      <trkpt lat="46.726" lon="-2.35">
        <ele>3.8</ele>
        <time>2018-09-20T16:21:31.000Z</time>
      </trkpt>
      <trkpt lat="46.726" lon="-2.35">
        <ele>3.8</ele>
        <time>2018-09-20T16:21:30.000Z</time>
      </trkpt>
      <trkpt lat="46.726" lon="-2.35">
        <ele>3.8</ele>
        <time>2018-09-20T16:21:29.000Z</time>
      </trkpt>
      <trkpt lat="46.726" lon="-2.35">
        <ele>3.8</ele>
        <time>2018-09-20T16:21:28.000Z</time>
      </trkpt>
      <trkpt lat="46.726" lon="-2.35">
        <ele>3.8</ele>
        <time>2018-09-20T16:21:27.000Z</time>
      </trkpt>
      <trkpt lat="46.726" lon="-2.35">
        <ele>3.8</ele>
        <time>2018-09-20T16:21:26.000Z</time>
      </trkpt>
      <trkpt lat="46.726" lon="-2.35">
        <ele>3.8</ele>
        <time>2018-09-20T16:21:25.000Z</time>
      </trkpt>
      <trkpt lat="46.726" lon="-2.35">
        <ele>3.8</ele>
        <time>2018-09-20T16:21:24.000Z</time>
      </trkpt>
      <trkpt lat="46.726" lon="-2.35">
        <ele>3.8</ele>
        <time>2018-09-20T16:21:23.000Z</time>
      </trkpt>
      <trkpt lat="46.726" lon="-2.35">
        <ele>3.8</ele>
        <time>2018-09-20T16:21:22.000Z</time>
      </trkpt>
      <trkpt lat="46.726" lon="-2.35">
        <ele>3.8</ele>
        <time>2018-09-20T16:21:21.000Z</time>
      </trkpt>
      <trkpt lat="46.726" lon="-2.35">
        <ele>3.8</ele>
        <time>2018-09-20T16:21:20.000Z</time>
      </trkpt>
      <trkpt lat="46.726" lon="-2.35">
        <ele>3.8</ele>
        <time>2018-09-20T16:21:19.000Z</time>
      </trkpt>
      <trkpt lat="46.726" lon="-2.35">
        <ele>3.8</ele>
        <time>2018-09-20T16:21:18.000Z</time>
      </trkpt>
      <trkpt lat="46.726" lon="-2.35">
        <ele>3.8</ele>
        <time>2018-09-20T16:21:17.000Z</time>
      </trkpt>
      <trkpt lat="46.726" lon="-2.35">
        <ele>3.8</ele>
        <time>2018-09-20T16:21:16.000Z</time>
      </trkpt>
      <trkpt lat="46.726" lon="-2.35">
        <ele>3.8</ele>
        <time>2018-09-20T16:21:15.000Z</time>
      </trkpt>
      <trkpt lat="46.726" lon="-2.35">
        <ele>3.8</ele>
        <time>2018-09-20T16:21:14.000Z</time>
      </trkpt>
      <trkpt lat="46.726" lon="-2.35">
        <ele>3.8</ele>
        <time>2018-09-20T16:21:13.000Z</time>
      </trkpt>
      <trkpt lat="46.72599" lon="-2.35">
        <ele>3.8</ele>
        <time>2018-09-20T16:21:12.000Z</time>
      </trkpt>
      <trkpt lat="46.72599" lon="-2.34999">
        <ele>3.8</ele>
        <time>2018-09-20T16:21:11.000Z</time>
      </trkpt>
      <trkpt lat="46.72599" lon="-2.34999">
        <ele>3.8</ele>
        <time>2018-09-20T16:21:10.000Z</time>
      </trkpt>
      <trkpt lat="46.72598" lon="-2.34999">
        <ele>3.8</ele>
        <time>2018-09-20T16:21:09.000Z</time>
      </trkpt>
      <trkpt lat="46.72598" lon="-2.35">
        <ele>3.8</ele>
        <time>2018-09-20T16:21:08.000Z</time>
      </trkpt>
      <trkpt lat="46.72597" lon="-2.35">
        <ele>3.8</ele>
        <time>2018-09-20T16:21:07.000Z</time>
      </trkpt>
      <trkpt lat="46.72597" lon="-2.35">
        <ele>3.8</ele>
        <time>2018-09-20T16:21:06.000Z</time>
      </trkpt>
      <trkpt lat="46.72596" lon="-2.35">
        <ele>3.8</ele>
        <time>2018-09-20T16:21:05.000Z</time>
      </trkpt>
      <trkpt lat="46.72584" lon="-2.34987">
        <ele>3.5</ele>
        <time>2018-09-20T16:41:04.000Z</time>
      </trkpt>
      <trkpt lat="46.72584" lon="-2.34987">
        <ele>3.5</ele>
        <time>2018-09-20T16:41:04.000Z</time>
      </trkpt>
      <trkpt lat="46.72584" lon="-2.34987">
        <ele>3.5</ele>
        <time>2018-09-20T16:41:05.000Z</time>
      </trkpt>
      <trkpt lat="46.72583" lon="-2.34988">
        <ele>3.6</ele>
        <time>2018-09-20T16:41:06.000Z</time>
      </trkpt>
      <trkpt lat="46.72583" lon="-2.34989">
        <ele>3.6</ele>
        <time>2018-09-20T16:41:07.000Z</time>
      </trkpt>
      <trkpt lat="46.72582" lon="-2.34989">
        <ele>3.6</ele>
        <time>2018-09-20T16:41:08.000Z</time>
      </trkpt>
      <trkpt lat="46.72581" lon="-2.3499">
        <ele>3.7</ele>
        <time>2018-09-20T16:41:09.000Z</time>
      </trkpt>
      <trkpt lat="46.72581" lon="-2.3499">
        <ele>3.7</ele>
        <time>2018-09-20T16:41:10.000Z</time>
      </trkpt>
      <trkpt lat="46.7258" lon="-2.34991">
        <ele>3.7</ele>
        <time>2018-09-20T16:41:11.000Z</time>
      </trkpt>
      <trkpt lat="46.72579" lon="-2.34991">
        <ele>3.8</ele>
        <time>2018-09-20T16:41:12.000Z</time>
      </trkpt>
      <trkpt lat="46.72579" lon="-2.34991">
        <ele>3.8</ele>
        <time>2018-09-20T16:41:13.000Z</time>
      </trkpt>
      <trkpt lat="46.72578" lon="-2.34992">
        <ele>3.8</ele>
        <time>2018-09-20T16:41:14.000Z</time>
      </trkpt>
      <trkpt lat="46.72577" lon="-2.34992">
        <ele>3.9</ele>
        <time>2018-09-20T16:41:15.000Z</time>
      </trkpt>
      <trkpt lat="46.72576" lon="-2.34992">
        <ele>3.9</ele>
        <time>2018-09-20T16:41:16.000Z</time>
      </trkpt>
      <trkpt lat="46.72576" lon="-2.34992">
        <ele>3.9</ele>
        <time>2018-09-20T16:41:17.000Z</time>
      </trkpt>
      <trkpt lat="46.72575" lon="-2.34993">
        <ele>3.9</ele>
        <time>2018-09-20T16:41:18.000Z</time>
      </trkpt>
      <trkpt lat="46.72574" lon="-2.34993">
        <ele>4</ele>
        <time>2018-09-20T16:41:19.000Z</time>
      </trkpt>
      <trkpt lat="46.72573" lon="-2.34993">
        <ele>4</ele>
        <time>2018-09-20T16:41:20.000Z</time>
      </trkpt>
      <trkpt lat="46.72572" lon="-2.34993">
        <ele>4</ele>
        <time>2018-09-20T16:41:21.000Z</time>
      </trkpt>
      <trkpt lat="46.72571" lon="-2.34993">
        <ele>4</ele>
        <time>2018-09-20T16:41:22.000Z</time>
      </trkpt>
      <trkpt lat="46.72571" lon="-2.34993">
        <ele>4.1</ele>
        <time>2018-09-20T16:41:23.000Z</time>
      </trkpt>
      <trkpt lat="46.7257" lon="-2.34993">
        <ele>4.1</ele>
        <time>2018-09-20T16:41:24.000Z</time>
      </trkpt>
      <trkpt lat="46.72569" lon="-2.34993">
        <ele>4.1</ele>
        <time>2018-09-20T16:41:25.000Z</time>
      </trkpt>
      <trkpt lat="46.72568" lon="-2.34993">
        <ele>4.1</ele>
        <time>2018-09-20T16:41:26.000Z</time>
      </trkpt>
      <trkpt lat="46.72567" lon="-2.34993">
        <ele>4.1</ele>
        <time>2018-09-20T16:41:27.000Z</time>
      </trkpt>
      <trkpt lat="46.72566" lon="-2.34993">
        <ele>4.2</ele>
        <time>2018-09-20T16:41:28.000Z</time>
      </trkpt>
      <trkpt lat="46.72565" lon="-2.34993">
        <ele>4.2</ele>
        <time>2018-09-20T16:41:29.000Z</time>
      </trkpt>
      <trkpt lat="46.72564" lon="-2.34993">
        <ele>4.2</ele>
        <time>2018-09-20T16:41:30.000Z</time>
      </trkpt>
      <trkpt lat="46.72563" lon="-2.34992">
        <ele>4.2</ele>
        <time>2018-09-20T16:41:31.000Z</time>
      </trkpt>
      <trkpt lat="46.72563" lon="-2.34992">
        <ele>4.2</ele>
        <time>2018-09-20T16:41:32.000Z</time>
      </trkpt>
      <trkpt lat="46.72562" lon="-2.34992">
        <ele>4.3</ele>
        <time>2018-09-20T16:41:33.000Z</time>
      </trkpt>
      <trkpt lat="46.72561" lon="-2.34992">
        <ele>4.3</ele>
        <time>2018-09-20T16:41:34.000Z</time>
      </trkpt>
      <trkpt lat="46.7256" lon="-2.34992">
        <ele>4.3</ele>
        <time>2018-09-20T16:41:35.000Z</time>
      </trkpt>
      <trkpt lat="46.72559" lon="-2.34992">
        <ele>4.3</ele>
        <time>2018-09-20T16:41:36.000Z</time>
      </trkpt>
      <trkpt lat="46.72558" lon="-2.34992">
        <ele>4.3</ele>
        <time>2018-09-20T16:41:37.000Z</time>
      </trkpt>
      <trkpt lat="46.72557" lon="-2.34992">
        <ele>4.4</ele>
        <time>2018-09-20T16:41:38.000Z</time>
      </trkpt>
      <trkpt lat="46.72557" lon="-2.34992">
        <ele>4.4</ele>
        <time>2018-09-20T16:41:39.000Z</time>
      </trkpt>
      <trkpt lat="46.72556" lon="-2.34991">
        <ele>4.4</ele>
        <time>2018-09-20T16:41:40.000Z</time>
      </trkpt>
      <trkpt lat="46.72555" lon="-2.34991">
        <ele>4.4</ele>
        <time>2018-09-20T16:41:41.000Z</time>
      </trkpt>
      <trkpt lat="46.72554" lon="-2.34991">
        <ele>4.4</ele>
        <time>2018-09-20T16:41:42.000Z</time>
      </trkpt>
      <trkpt lat="46.72554" lon="-2.34991">
        <ele>4.4</ele>
        <time>2018-09-20T16:41:43.000Z</time>
      </trkpt>
      <trkpt lat="46.72553" lon="-2.34991">
        <ele>4.5</ele>
        <time>2018-09-20T16:41:44.000Z</time>
      </trkpt>
      <trkpt lat="46.72552" lon="-2.34991">
        <ele>4.5</ele>
        <time>2018-09-20T16:41:45.000Z</time>
      </trkpt>
      <trkpt lat="46.72551" lon="-2.34991">
        <ele>4.5</ele>
        <time>2018-09-20T16:41:46.000Z</time>
      </trkpt>
      <trkpt lat="46.72551" lon="-2.34991">
        <ele>4.5</ele>
        <time>2018-09-20T16:41:47.000Z</time>
      </trkpt>
      <trkpt lat="46.7255" lon="-2.34991">
        <ele>4.5</ele>
        <time>2018-09-20T16:41:48.000Z</time>
      </trkpt>
      <trkpt lat="46.7255" lon="-2.34991">
        <ele>4.5</ele>
        <time>2018-09-20T16:41:49.000Z</time>
      </trkpt>
      <trkpt lat="46.72549" lon="-2.34991">
        <ele>4.6</ele>
        <time>2018-09-20T16:41:50.000Z</time>
      </trkpt>
      <trkpt lat="46.72549" lon="-2.34992">
        <ele>4.6</ele>
        <time>2018-09-20T16:41:51.000Z</time>
      </trkpt>
      <trkpt lat="46.72548" lon="-2.34992">
        <ele>4.6</ele>
        <time>2018-09-20T16:41:52.000Z</time>
      </trkpt>
      <trkpt lat="46.72548" lon="-2.34992">
        <ele>4.6</ele>
        <time>2018-09-20T16:41:53.000Z</time>
      </trkpt>
      <trkpt lat="46.72547" lon="-2.34992">
        <ele>4.6</ele>
        <time>2018-09-20T16:41:54.000Z</time>
      </trkpt>
      <trkpt lat="46.72547" lon="-2.34993">
        <ele>4.6</ele>
        <time>2018-09-20T16:41:55.000Z</time>
      </trkpt>
      <trkpt lat="46.72547" lon="-2.34993">
        <ele>4.7</ele>
        <time>2018-09-20T16:41:56.000Z</time>
      </trkpt>
      <trkpt lat="46.72546" lon="-2.34994">
        <ele>4.7</ele>
        <time>2018-09-20T16:41:57.000Z</time>
      </trkpt>
      <trkpt lat="46.72546" lon="-2.34995">
        <ele>4.7</ele>
        <time>2018-09-20T16:41:58.000Z</time>
      </trkpt>
      <trkpt lat="46.72546" lon="-2.34996">
        <ele>4.8</ele>
        <time>2018-09-20T16:41:59.000Z</time>
      </trkpt>
      <trkpt lat="46.72545" lon="-2.34997">
        <ele>4.8</ele>
        <time>2018-09-20T16:42:00.000Z</time>
      </trkpt>
      <trkpt lat="46.72545" lon="-2.34998">
        <ele>4.8</ele>
        <time>2018-09-20T16:42:01.000Z</time>
      </trkpt>
      <trkpt lat="46.72545" lon="-2.34999">
        <ele>4.9</ele>
        <time>2018-09-20T16:42:02.000Z</time>
      </trkpt>
      <trkpt lat="46.72545" lon="-2.35001">
        <ele>4.9</ele>
        <time>2018-09-20T16:42:03.000Z</time>
      </trkpt>
      <trkpt lat="46.72545" lon="-2.35002">
        <ele>5</ele>
        <time>2018-09-20T16:42:04.000Z</time>
      </trkpt>
      <trkpt lat="46.72545" lon="-2.35004">
        <ele>5</ele>
        <time>2018-09-20T16:42:05.000Z</time>
      </trkpt>
      <trkpt lat="46.72545" lon="-2.35006">
        <ele>5</ele>
        <time>2018-09-20T16:42:06.000Z</time>
      </trkpt>
      <trkpt lat="46.72544" lon="-2.35007">
        <ele>5</ele>
        <time>2018-09-20T16:42:07.000Z</time>
      </trkpt>
      <trkpt lat="46.72544" lon="-2.35009">
        <ele>5</ele>
        <time>2018-09-20T16:42:08.000Z</time>
      </trkpt>
      <trkpt lat="46.72544" lon="-2.35011">
        <ele>5.1</ele>
        <time>2018-09-20T16:42:09.000Z</time>
      </trkpt>
      <trkpt lat="46.72544" lon="-2.35012">
        <ele>5.1</ele>
        <time>2018-09-20T16:42:10.000Z</time>
      </trkpt>
      <trkpt lat="46.72544" lon="-2.35014">
        <ele>5.1</ele>
        <time>2018-09-20T16:42:11.000Z</time>
      </trkpt>
      <trkpt lat="46.72543" lon="-2.35015">
        <ele>5.1</ele>
        <time>2018-09-20T16:42:12.000Z</time>
      </trkpt>
      <trkpt lat="46.72543" lon="-2.35016">
        <ele>5.2</ele>
        <time>2018-09-20T16:42:13.000Z</time>
      </trkpt>
      <trkpt lat="46.72543" lon="-2.35017">
        <ele>5.2</ele>
        <time>2018-09-20T16:42:14.000Z</time>
      </trkpt>
      <trkpt lat="46.72542" lon="-2.35018">
        <ele>5.2</ele>
        <time>2018-09-20T16:42:15.000Z</time>
      </trkpt>
      <trkpt lat="46.72542" lon="-2.35019">
        <ele>5.2</ele>
        <time>2018-09-20T16:42:16.000Z</time>
      </trkpt>
      <trkpt lat="46.72541" lon="-2.35019">
        <ele>5.2</ele>
        <time>2018-09-20T16:42:17.000Z</time>
      </trkpt>
      <trkpt lat="46.72541" lon="-2.3502">
        <ele>5.3</ele>
        <time>2018-09-20T16:42:18.000Z</time>
      </trkpt>
      <trkpt lat="46.7254" lon="-2.35021">
        <ele>5.3</ele>
        <time>2018-09-20T16:42:19.000Z</time>
      </trkpt>
      <trkpt lat="46.7254" lon="-2.35021">
        <ele>5.3</ele>
        <time>2018-09-20T16:42:20.000Z</time>
      </trkpt>
      <trkpt lat="46.72539" lon="-2.35022">
        <ele>5.3</ele>
        <time>2018-09-20T16:42:21.000Z</time>
      </trkpt>
      <trkpt lat="46.72539" lon="-2.35023">
        <ele>5.3</ele>
        <time>2018-09-20T16:42:22.000Z</time>
      </trkpt>
      <trkpt lat="46.72539" lon="-2.35024">
        <ele>5.4</ele>
        <time>2018-09-20T16:42:23.000Z</time>
      </trkpt>
      <trkpt lat="46.72538" lon="-2.35024">
        <ele>5.4</ele>
        <time>2018-09-20T16:42:24.000Z</time>
      </trkpt>
      <trkpt lat="46.72538" lon="-2.35025">
        <ele>5.4</ele>
        <time>2018-09-20T16:42:25.000Z</time>
      </trkpt>
      <trkpt lat="46.72538" lon="-2.35026">
        <ele>5.4</ele>
        <time>2018-09-20T16:42:26.000Z</time>
      </trkpt>
      <trkpt lat="46.72537" lon="-2.35027">
        <ele>5.4</ele>
        <time>2018-09-20T16:42:27.000Z</time>
      </trkpt>
      <trkpt lat="46.72537" lon="-2.35029">
        <ele>5.5</ele>
        <time>2018-09-20T16:42:28.000Z</time>
      </trkpt>
      <trkpt lat="46.72537" lon="-2.3503">
        <ele>5.5</ele>
        <time>2018-09-20T16:42:29.000Z</time>
      </trkpt>
      <trkpt lat="46.72536" lon="-2.35031">
        <ele>5.5</ele>
        <time>2018-09-20T16:42:30.000Z</time>
      </trkpt>
      <trkpt lat="46.72536" lon="-2.35032">
        <ele>5.5</ele>
        <time>2018-09-20T16:42:31.000Z</time>
      </trkpt>
      <trkpt lat="46.72536" lon="-2.35034">
        <ele>5.5</ele>
        <time>2018-09-20T16:42:32.000Z</time>
      </trkpt>
      <trkpt lat="46.72536" lon="-2.35035">
        <ele>5.6</ele>
        <time>2018-09-20T16:42:33.000Z</time>
      </trkpt>
      <trkpt lat="46.72535" lon="-2.35036">
        <ele>5.6</ele>
        <time>2018-09-20T16:42:34.000Z</time>
      </trkpt>
      <trkpt lat="46.72535" lon="-2.35038">
        <ele>5.6</ele>
        <time>2018-09-20T16:42:35.000Z</time>
      </trkpt>
      <trkpt lat="46.72535" lon="-2.35039">
        <ele>5.6</ele>
        <time>2018-09-20T16:42:36.000Z</time>
      </trkpt>
      <trkpt lat="46.72534" lon="-2.35041">
        <ele>5.7</ele>
        <time>2018-09-20T16:42:37.000Z</time>
      </trkpt>
      <trkpt lat="46.72534" lon="-2.35042">
        <ele>5.7</ele>
        <time>2018-09-20T16:42:38.000Z</time>
      </trkpt>
      <trkpt lat="46.72534" lon="-2.35043">
        <ele>5.7</ele>
        <time>2018-09-20T16:42:39.000Z</time>
      </trkpt>
      <trkpt lat="46.72533" lon="-2.35045">
        <ele>5.7</ele>
        <time>2018-09-20T16:42:40.000Z</time>
      </trkpt>
      <trkpt lat="46.72533" lon="-2.35046">
        <ele>5.8</ele>
        <time>2018-09-20T16:42:41.000Z</time>
      </trkpt>
      <trkpt lat="46.72532" lon="-2.35047">
        <ele>5.8</ele>
        <time>2018-09-20T16:42:42.000Z</time>
      </trkpt>
      <trkpt lat="46.72532" lon="-2.35048">
        <ele>5.8</ele>
        <time>2018-09-20T16:42:43.000Z</time>
      </trkpt>
      <trkpt lat="46.72532" lon="-2.3505">
        <ele>5.8</ele>
        <time>2018-09-20T16:42:44.000Z</time>
      </trkpt>
      <trkpt lat="46.72531" lon="-2.35051">
        <ele>5.9</ele>
        <time>2018-09-20T16:42:45.000Z</time>
      </trkpt>
      <trkpt lat="46.7253" lon="-2.35052">
        <ele>5.9</ele>
        <time>2018-09-20T16:42:46.000Z</time>
      </trkpt>
      <trkpt lat="46.7253" lon="-2.35053">
        <ele>5.9</ele>
        <time>2018-09-20T16:42:47.000Z</time>
      </trkpt>
      <trkpt lat="46.72529" lon="-2.35054">
        <ele>5.9</ele>
        <time>2018-09-20T16:42:48.000Z</time>
      </trkpt>
      <trkpt lat="46.72529" lon="-2.35055">
        <ele>6</ele>
        <time>2018-09-20T16:42:49.000Z</time>
      </trkpt>
      <trkpt lat="46.72528" lon="-2.35056">
        <ele>6</ele>
        <time>2018-09-20T16:42:50.000Z</time>
      </trkpt>
      <trkpt lat="46.72527" lon="-2.35057">
        <ele>6</ele>
        <time>2018-09-20T16:42:51.000Z</time>
      </trkpt>
      <trkpt lat="46.72527" lon="-2.35058">
        <ele>6.1</ele>
        <time>2018-09-20T16:42:52.000Z</time>
      </trkpt>
      <trkpt lat="46.72526" lon="-2.35059">
        <ele>6.1</ele>
        <time>2018-09-20T16:42:53.000Z</time>
      </trkpt>
      <trkpt lat="46.72525" lon="-2.3506">
        <ele>6.1</ele>
        <time>2018-09-20T16:42:54.000Z</time>
      </trkpt>
      <trkpt lat="46.72525" lon="-2.35061">
        <ele>6.1</ele>
        <time>2018-09-20T16:42:55.000Z</time>
      </trkpt>
      <trkpt lat="46.72524" lon="-2.35062">
        <ele>6.2</ele>
        <time>2018-09-20T16:42:56.000Z</time>
      </trkpt>
      <trkpt lat="46.72524" lon="-2.35063">
        <ele>6.2</ele>
        <time>2018-09-20T16:42:57.000Z</time>
      </trkpt>
      <trkpt lat="46.72523" lon="-2.35065">
        <ele>6.2</ele>
        <time>2018-09-20T16:42:58.000Z</time>
      </trkpt>
      <trkpt lat="46.72523" lon="-2.35066">
        <ele>6.2</ele>
        <time>2018-09-20T16:42:59.000Z</time>
      </trkpt>
      <trkpt lat="46.72523" lon="-2.35068">
        <ele>6.3</ele>
        <time>2018-09-20T16:43:00.000Z</time>
      </trkpt>
      <trkpt lat="46.72522" lon="-2.35069">
        <ele>6.3</ele>
        <time>2018-09-20T16:43:01.000Z</time>
      </trkpt>
      <trkpt lat="46.72522" lon="-2.3507">
        <ele>6.3</ele>
        <time>2018-09-20T16:43:02.000Z</time>
      </trkpt>
      <trkpt lat="46.72522" lon="-2.35072">
        <ele>6.3</ele>
        <time>2018-09-20T16:43:03.000Z</time>
      </trkpt>
      <trkpt lat="46.72521" lon="-2.35073">
        <ele>6.4</ele>
        <time>2018-09-20T16:43:04.000Z</time>
      </trkpt>
      <trkpt lat="46.72521" lon="-2.35074">
        <ele>6.4</ele>
        <time>2018-09-20T16:43:05.000Z</time>
      </trkpt>
      <trkpt lat="46.7252" lon="-2.35075">
        <ele>6.4</ele>
        <time>2018-09-20T16:43:06.000Z</time>
      </trkpt>
      <trkpt lat="46.7252" lon="-2.35076">
        <ele>6.4</ele>
        <time>2018-09-20T16:43:07.000Z</time>
      </trkpt>
      <trkpt lat="46.72519" lon="-2.35077">
        <ele>6.5</ele>
        <time>2018-09-20T16:43:08.000Z</time>
      </trkpt>
      <trkpt lat="46.72519" lon="-2.35079">
        <ele>6.5</ele>
        <time>2018-09-20T16:43:09.000Z</time>
      </trkpt>
      <trkpt lat="46.72518" lon="-2.3508">
        <ele>6.5</ele>
        <time>2018-09-20T16:43:10.000Z</time>
      </trkpt>
      <trkpt lat="46.72518" lon="-2.35081">
        <ele>6.5</ele>
        <time>2018-09-20T16:43:11.000Z</time>
      </trkpt>
      <trkpt lat="46.72517" lon="-2.35082">
        <ele>6.6</ele>
        <time>2018-09-20T16:43:12.000Z</time>
      </trkpt>
      <trkpt lat="46.72517" lon="-2.35083">
        <ele>6.6</ele>
        <time>2018-09-20T16:43:13.000Z</time>
      </trkpt>
      <trkpt lat="46.72517" lon="-2.35084">
        <ele>6.6</ele>
        <time>2018-09-20T16:43:14.000Z</time>
      </trkpt>
      <trkpt lat="46.72516" lon="-2.35085">
        <ele>6.6</ele>
        <time>2018-09-20T16:43:15.000Z</time>
      </trkpt>
      <trkpt lat="46.72516" lon="-2.35085">
        <ele>6.6</ele>
        <time>2018-09-20T16:43:16.000Z</time>
      </trkpt>
      <trkpt lat="46.72516" lon="-2.35086">
        <ele>6.6</ele>
        <time>2018-09-20T16:43:17.000Z</time>
      </trkpt>
      <trkpt lat="46.72516" lon="-2.35086">
        <ele>6.6</ele>
        <time>2018-09-20T16:43:18.000Z</time>
      </trkpt>
      <trkpt lat="46.72516" lon="-2.35086">
        <ele>6.7</ele>
        <time>2018-09-20T16:43:19.000Z</time>
      </trkpt>
      <trkpt lat="46.72516" lon="-2.35086">
        <ele>6.7</ele>
        <time>2018-09-20T16:43:20.000Z</time>
      </trkpt>
      <trkpt lat="46.72516" lon="-2.35087">
        <ele>6.7</ele>
        <time>2018-09-20T16:43:21.000Z</time>
      </trkpt>
      <trkpt lat="46.72515" lon="-2.35087">
        <ele>6.7</ele>
        <time>2018-09-20T16:43:22.000Z</time>
      </trkpt>
      <trkpt lat="46.72515" lon="-2.35088">
        <ele>6.7</ele>
        <time>2018-09-20T16:43:23.000Z</time>
      </trkpt>
      <trkpt lat="46.72514" lon="-2.35089">
        <ele>6.7</ele>
        <time>2018-09-20T16:43:24.000Z</time>
      </trkpt>
      <trkpt lat="46.72514" lon="-2.3509">
        <ele>6.7</ele>
        <time>2018-09-20T16:43:25.000Z</time>
      </trkpt>
      <trkpt lat="46.72513" lon="-2.35091">
        <ele>6.8</ele>
        <time>2018-09-20T16:43:26.000Z</time>
      </trkpt>
      <trkpt lat="46.72513" lon="-2.35091">
        <ele>6.8</ele>
        <time>2018-09-20T16:43:27.000Z</time>
      </trkpt>
      <trkpt lat="46.72514" lon="-2.35092">
        <ele>6.8</ele>
        <time>2018-09-20T16:43:28.000Z</time>
      </trkpt>
      <trkpt lat="46.72514" lon="-2.35093">
        <ele>6.8</ele>
        <time>2018-09-20T16:43:29.000Z</time>
      </trkpt>
      <trkpt lat="46.72514" lon="-2.35094">
        <ele>6.8</ele>
        <time>2018-09-20T16:43:30.000Z</time>
      </trkpt>
      <trkpt lat="46.72515" lon="-2.35094">
        <ele>6.8</ele>
        <time>2018-09-20T16:43:31.000Z</time>
      </trkpt>
      <trkpt lat="46.72515" lon="-2.35095">
        <ele>6.8</ele>
        <time>2018-09-20T16:43:32.000Z</time>
      </trkpt>
      <trkpt lat="46.72516" lon="-2.35096">
        <ele>6.8</ele>
        <time>2018-09-20T16:43:33.000Z</time>
      </trkpt>
      <trkpt lat="46.72516" lon="-2.35097">
        <ele>6.8</ele>
        <time>2018-09-20T16:43:34.000Z</time>
      </trkpt>
      <trkpt lat="46.72516" lon="-2.35098">
        <ele>6.7</ele>
        <time>2018-09-20T16:43:35.000Z</time>
      </trkpt>
      <trkpt lat="46.72517" lon="-2.35099">
        <ele>6.7</ele>
        <time>2018-09-20T16:43:36.000Z</time>
      </trkpt>
      <trkpt lat="46.72517" lon="-2.351">
        <ele>6.7</ele>
        <time>2018-09-20T16:43:37.000Z</time>
      </trkpt>
      <trkpt lat="46.72518" lon="-2.35101">
        <ele>6.7</ele>
        <time>2018-09-20T16:43:38.000Z</time>
      </trkpt>
      <trkpt lat="46.72518" lon="-2.35102">
        <ele>6.7</ele>
        <time>2018-09-20T16:43:39.000Z</time>
      </trkpt>
      <trkpt lat="46.72519" lon="-2.35103">
        <ele>6.7</ele>
        <time>2018-09-20T16:43:40.000Z</time>
      </trkpt>
      <trkpt lat="46.72519" lon="-2.35104">
        <ele>6.7</ele>
        <time>2018-09-20T16:43:41.000Z</time>
      </trkpt>
      <trkpt lat="46.72519" lon="-2.35106">
        <ele>6.7</ele>
        <time>2018-09-20T16:43:42.000Z</time>
      </trkpt>
      <trkpt lat="46.7252" lon="-2.35107">
        <ele>6.7</ele>
        <time>2018-09-20T16:43:43.000Z</time>
      </trkpt>
      <trkpt lat="46.7252" lon="-2.35108">
        <ele>6.8</ele>
        <time>2018-09-20T16:43:44.000Z</time>
      </trkpt>
      <trkpt lat="46.7252" lon="-2.35109">
        <ele>6.8</ele>
        <time>2018-09-20T16:43:45.000Z</time>
      </trkpt>
      <trkpt lat="46.7252" lon="-2.35111">
        <ele>6.8</ele>
        <time>2018-09-20T16:43:46.000Z</time>
      </trkpt>
      <trkpt lat="46.7252" lon="-2.35112">
        <ele>6.8</ele>
        <time>2018-09-20T16:43:47.000Z</time>
      </trkpt>
      <trkpt lat="46.72521" lon="-2.35113">
        <ele>6.8</ele>
        <time>2018-09-20T16:43:48.000Z</time>
      </trkpt>
      <trkpt lat="46.72521" lon="-2.35114">
        <ele>6.8</ele>
        <time>2018-09-20T16:43:49.000Z</time>
      </trkpt>
      <trkpt lat="46.72521" lon="-2.35116">
        <ele>6.8</ele>
        <time>2018-09-20T16:43:50.000Z</time>
      </trkpt>
      <trkpt lat="46.72521" lon="-2.35117">
        <ele>6.8</ele>
        <time>2018-09-20T16:43:51.000Z</time>
      </trkpt>
      <trkpt lat="46.72521" lon="-2.35118">
        <ele>6.8</ele>
        <time>2018-09-20T16:43:52.000Z</time>
      </trkpt>
      <trkpt lat="46.72521" lon="-2.35119">
        <ele>6.8</ele>
        <time>2018-09-20T16:43:53.000Z</time>
      </trkpt>
      <trkpt lat="46.72522" lon="-2.3512">
        <ele>6.8</ele>
        <time>2018-09-20T16:43:54.000Z</time>
      </trkpt>
      <trkpt lat="46.72522" lon="-2.35121">
        <ele>6.8</ele>
        <time>2018-09-20T16:43:55.000Z</time>
      </trkpt>
      <trkpt lat="46.72522" lon="-2.35122">
        <ele>6.8</ele>
        <time>2018-09-20T16:43:56.000Z</time>
      </trkpt>
      <trkpt lat="46.72523" lon="-2.35123">
        <ele>6.8</ele>
        <time>2018-09-20T16:43:57.000Z</time>
      </trkpt>
      <trkpt lat="46.72523" lon="-2.35124">
        <ele>6.8</ele>
        <time>2018-09-20T16:43:58.000Z</time>
      </trkpt>
      <trkpt lat="46.72523" lon="-2.35125">
        <ele>6.8</ele>
        <time>2018-09-20T16:43:59.000Z</time>
      </trkpt>
      <trkpt lat="46.72523" lon="-2.35126">
        <ele>6.8</ele>
        <time>2018-09-20T16:44:00.000Z</time>
      </trkpt>
      <trkpt lat="46.72524" lon="-2.35127">
        <ele>6.8</ele>
        <time>2018-09-20T16:44:01.000Z</time>
      </trkpt>
      <trkpt lat="46.72524" lon="-2.35128">
        <ele>6.8</ele>
        <time>2018-09-20T16:44:02.000Z</time>
      </trkpt>
      <trkpt lat="46.72524" lon="-2.35129">
        <ele>6.8</ele>
        <time>2018-09-20T16:44:03.000Z</time>
      </trkpt>
      <trkpt lat="46.72524" lon="-2.3513">
        <ele>6.8</ele>
        <time>2018-09-20T16:44:04.000Z</time>
      </trkpt>
      <trkpt lat="46.72524" lon="-2.35131">
        <ele>6.8</ele>
        <time>2018-09-20T16:44:05.000Z</time>
      </trkpt>
      <trkpt lat="46.72524" lon="-2.35132">
        <ele>6.8</ele>
        <time>2018-09-20T16:44:06.000Z</time>
      </trkpt>
      <trkpt lat="46.72524" lon="-2.35134">
        <ele>6.9</ele>
        <time>2018-09-20T16:44:07.000Z</time>
      </trkpt>
      <trkpt lat="46.72524" lon="-2.35135">
        <ele>6.9</ele>
        <time>2018-09-20T16:44:08.000Z</time>
      </trkpt>
      <trkpt lat="46.72523" lon="-2.35136">
        <ele>6.9</ele>
        <time>2018-09-20T16:44:09.000Z</time>
      </trkpt>
      <trkpt lat="46.72523" lon="-2.35137">
        <ele>6.9</ele>
        <time>2018-09-20T16:44:10.000Z</time>
      </trkpt>
      <trkpt lat="46.72522" lon="-2.35138">
        <ele>7</ele>
        <time>2018-09-20T16:44:11.000Z</time>
      </trkpt>
      <trkpt lat="46.72521" lon="-2.35139">
        <ele>7</ele>
        <time>2018-09-20T16:44:12.000Z</time>
      </trkpt>
      <trkpt lat="46.7252" lon="-2.3514">
        <ele>7</ele>
        <time>2018-09-20T16:44:13.000Z</time>
      </trkpt>
      <trkpt lat="46.72519" lon="-2.35141">
        <ele>7.1</ele>
        <time>2018-09-20T16:44:14.000Z</time>
      </trkpt>
      <trkpt lat="46.72518" lon="-2.35142">
        <ele>7.1</ele>
        <time>2018-09-20T16:44:15.000Z</time>
      </trkpt>
      <trkpt lat="46.72516" lon="-2.35143">
        <ele>7.2</ele>
        <time>2018-09-20T16:44:16.000Z</time>
      </trkpt>
      <trkpt lat="46.72515" lon="-2.35144">
        <ele>7.2</ele>
        <time>2018-09-20T16:44:17.000Z</time>
      </trkpt>
      <trkpt lat="46.72515" lon="-2.35145">
        <ele>7.3</ele>
        <time>2018-09-20T16:44:18.000Z</time>
      </trkpt>
      <trkpt lat="46.72514" lon="-2.35146">
        <ele>7.3</ele>
        <time>2018-09-20T16:44:19.000Z</time>
      </trkpt>
      <trkpt lat="46.72513" lon="-2.35146">
        <ele>7.3</ele>
        <time>2018-09-20T16:44:20.000Z</time>
      </trkpt>
      <trkpt lat="46.72512" lon="-2.35147">
        <ele>7.4</ele>
        <time>2018-09-20T16:44:21.000Z</time>
      </trkpt>
      <trkpt lat="46.72512" lon="-2.35148">
        <ele>7.4</ele>
        <time>2018-09-20T16:44:22.000Z</time>
      </trkpt>
      <trkpt lat="46.72511" lon="-2.35148">
        <ele>7.4</ele>
        <time>2018-09-20T16:44:23.000Z</time>
      </trkpt>
      <trkpt lat="46.7251" lon="-2.35149">
        <ele>7.4</ele>
        <time>2018-09-20T16:44:24.000Z</time>
      </trkpt>
      <trkpt lat="46.7251" lon="-2.3515">
        <ele>7.5</ele>
        <time>2018-09-20T16:44:25.000Z</time>
      </trkpt>
      <trkpt lat="46.72509" lon="-2.3515">
        <ele>7.5</ele>
        <time>2018-09-20T16:44:26.000Z</time>
      </trkpt>
      <trkpt lat="46.72509" lon="-2.35151">
        <ele>7.5</ele>
        <time>2018-09-20T16:44:27.000Z</time>
      </trkpt>
      <trkpt lat="46.72508" lon="-2.35152">
        <ele>7.6</ele>
        <time>2018-09-20T16:44:28.000Z</time>
      </trkpt>
      <trkpt lat="46.72507" lon="-2.35152">
        <ele>7.6</ele>
        <time>2018-09-20T16:44:29.000Z</time>
      </trkpt>
      <trkpt lat="46.72507" lon="-2.35153">
        <ele>7.6</ele>
        <time>2018-09-20T16:44:30.000Z</time>
      </trkpt>
      <trkpt lat="46.72506" lon="-2.35154">
        <ele>7.6</ele>
        <time>2018-09-20T16:44:31.000Z</time>
      </trkpt>
      <trkpt lat="46.72505" lon="-2.35155">
        <ele>7.7</ele>
        <time>2018-09-20T16:44:32.000Z</time>
      </trkpt>
      <trkpt lat="46.72504" lon="-2.35155">
        <ele>7.7</ele>
        <time>2018-09-20T16:44:33.000Z</time>
      </trkpt>
      <trkpt lat="46.72503" lon="-2.35156">
        <ele>7.8</ele>
        <time>2018-09-20T16:44:34.000Z</time>
      </trkpt>
      <trkpt lat="46.72503" lon="-2.35157">
        <ele>7.8</ele>
        <time>2018-09-20T16:44:35.000Z</time>
      </trkpt>
      <trkpt lat="46.72502" lon="-2.35158">
        <ele>7.8</ele>
        <time>2018-09-20T16:44:36.000Z</time>
      </trkpt>
      <trkpt lat="46.72501" lon="-2.35159">
        <ele>7.9</ele>
        <time>2018-09-20T16:44:37.000Z</time>
      </trkpt>
      <trkpt lat="46.725" lon="-2.35159">
        <ele>7.9</ele>
        <time>2018-09-20T16:44:38.000Z</time>
      </trkpt>
      <trkpt lat="46.72499" lon="-2.3516">
        <ele>8</ele>
        <time>2018-09-20T16:44:39.000Z</time>
      </trkpt>
      <trkpt lat="46.72499" lon="-2.35161">
        <ele>8</ele>
        <time>2018-09-20T16:44:40.000Z</time>
      </trkpt>
      <trkpt lat="46.72498" lon="-2.35162">
        <ele>8</ele>
        <time>2018-09-20T16:44:41.000Z</time>
      </trkpt>
      <trkpt lat="46.72497" lon="-2.35163">
        <ele>8.1</ele>
        <time>2018-09-20T16:44:42.000Z</time>
      </trkpt>
      <trkpt lat="46.72496" lon="-2.35165">
        <ele>8.1</ele>
        <time>2018-09-20T16:44:43.000Z</time>
      </trkpt>
      <trkpt lat="46.72495" lon="-2.35166">
        <ele>8.2</ele>
        <time>2018-09-20T16:44:44.000Z</time>
      </trkpt>
      <trkpt lat="46.72495" lon="-2.35167">
        <ele>8.2</ele>
        <time>2018-09-20T16:44:45.000Z</time>
      </trkpt>
      <trkpt lat="46.72494" lon="-2.35168">
        <ele>8.2</ele>
        <time>2018-09-20T16:44:46.000Z</time>
      </trkpt>
      <trkpt lat="46.72493" lon="-2.35169">
        <ele>8.2</ele>
        <time>2018-09-20T16:44:47.000Z</time>
      </trkpt>
      <trkpt lat="46.72492" lon="-2.3517">
        <ele>8.2</ele>
        <time>2018-09-20T16:44:48.000Z</time>
      </trkpt>
      <trkpt lat="46.72491" lon="-2.35171">
        <ele>8.2</ele>
        <time>2018-09-20T16:44:49.000Z</time>
      </trkpt>
      <trkpt lat="46.72491" lon="-2.35172">
        <ele>8.2</ele>
        <time>2018-09-20T16:44:50.000Z</time>
      </trkpt>
      <trkpt lat="46.7249" lon="-2.35173">
        <ele>8.2</ele>
        <time>2018-09-20T16:44:51.000Z</time>
      </trkpt>
      <trkpt lat="46.72489" lon="-2.35174">
        <ele>8.2</ele>
        <time>2018-09-20T16:44:52.000Z</time>
      </trkpt>
      <trkpt lat="46.72488" lon="-2.35175">
        <ele>8.2</ele>
        <time>2018-09-20T16:44:53.000Z</time>
      </trkpt>
      <trkpt lat="46.72487" lon="-2.35176">
        <ele>8.2</ele>
        <time>2018-09-20T16:44:54.000Z</time>
      </trkpt>
      <trkpt lat="46.72486" lon="-2.35177">
        <ele>8.3</ele>
        <time>2018-09-20T16:44:55.000Z</time>
      </trkpt>
      <trkpt lat="46.72485" lon="-2.35178">
        <ele>8.3</ele>
        <time>2018-09-20T16:44:56.000Z</time>
      </trkpt>
      <trkpt lat="46.72484" lon="-2.35179">
        <ele>8.3</ele>
        <time>2018-09-20T16:44:57.000Z</time>
      </trkpt>
      <trkpt lat="46.72483" lon="-2.3518">
        <ele>8.3</ele>
        <time>2018-09-20T16:44:58.000Z</time>
      </trkpt>
      <trkpt lat="46.72482" lon="-2.35181">
        <ele>8.3</ele>
        <time>2018-09-20T16:44:59.000Z</time>
      </trkpt>
      <trkpt lat="46.72481" lon="-2.35181">
        <ele>8.3</ele>
        <time>2018-09-20T16:45:00.000Z</time>
      </trkpt>
      <trkpt lat="46.7248" lon="-2.35182">
        <ele>8.3</ele>
        <time>2018-09-20T16:45:01.000Z</time>
      </trkpt>
      <trkpt lat="46.72479" lon="-2.35183">
        <ele>8.4</ele>
        <time>2018-09-20T16:45:02.000Z</time>
      </trkpt>
      <trkpt lat="46.72478" lon="-2.35184">
        <ele>8.4</ele>
        <time>2018-09-20T16:45:03.000Z</time>
      </trkpt>
      <trkpt lat="46.72477" lon="-2.35185">
        <ele>8.4</ele>
        <time>2018-09-20T16:45:04.000Z</time>
      </trkpt>
      <trkpt lat="46.72476" lon="-2.35186">
        <ele>8.4</ele>
        <time>2018-09-20T16:45:05.000Z</time>
      </trkpt>
      <trkpt lat="46.72475" lon="-2.35187">
        <ele>8.4</ele>
        <time>2018-09-20T16:45:06.000Z</time>
      </trkpt>
      <trkpt lat="46.72474" lon="-2.35187">
        <ele>8.4</ele>
        <time>2018-09-20T16:45:07.000Z</time>
      </trkpt>
      <trkpt lat="46.72473" lon="-2.35188">
        <ele>8.4</ele>
        <time>2018-09-20T16:45:08.000Z</time>
      </trkpt>
      <trkpt lat="46.72473" lon="-2.35189">
        <ele>8.5</ele>
        <time>2018-09-20T16:45:09.000Z</time>
      </trkpt>
      <trkpt lat="46.72472" lon="-2.3519">
        <ele>8.5</ele>
        <time>2018-09-20T16:45:10.000Z</time>
      </trkpt>
      <trkpt lat="46.72471" lon="-2.35191">
        <ele>8.5</ele>
        <time>2018-09-20T16:45:11.000Z</time>
      </trkpt>
      <trkpt lat="46.7247" lon="-2.35191">
        <ele>8.5</ele>
        <time>2018-09-20T16:45:12.000Z</time>
      </trkpt>
      <trkpt lat="46.72469" lon="-2.35192">
        <ele>8.5</ele>
        <time>2018-09-20T16:45:13.000Z</time>
      </trkpt>
      <trkpt lat="46.72468" lon="-2.35193">
        <ele>8.5</ele>
        <time>2018-09-20T16:45:14.000Z</time>
      </trkpt>
      <trkpt lat="46.72467" lon="-2.35194">
        <ele>8.5</ele>
        <time>2018-09-20T16:45:15.000Z</time>
      </trkpt>
      <trkpt lat="46.72466" lon="-2.35195">
        <ele>8.6</ele>
        <time>2018-09-20T16:45:16.000Z</time>
      </trkpt>
      <trkpt lat="46.72465" lon="-2.35195">
        <ele>8.6</ele>
        <time>2018-09-20T16:45:17.000Z</time>
      </trkpt>
      <trkpt lat="46.72464" lon="-2.35196">
        <ele>8.6</ele>
        <time>2018-09-20T16:45:18.000Z</time>
      </trkpt>
      <trkpt lat="46.72463" lon="-2.35197">
        <ele>8.6</ele>
        <time>2018-09-20T16:45:19.000Z</time>
      </trkpt>
      <trkpt lat="46.72462" lon="-2.35198">
        <ele>8.6</ele>
        <time>2018-09-20T16:45:20.000Z</time>
      </trkpt>
      <trkpt lat="46.72461" lon="-2.35199">
        <ele>8.6</ele>
        <time>2018-09-20T16:45:21.000Z</time>
      </trkpt>
      <trkpt lat="46.72461" lon="-2.352">
        <ele>8.6</ele>
        <time>2018-09-20T16:45:22.000Z</time>
      </trkpt>
      <trkpt lat="46.7246" lon="-2.35201">
        <ele>8.6</ele>
        <time>2018-09-20T16:45:23.000Z</time>
      </trkpt>
      <trkpt lat="46.72459" lon="-2.35202">
        <ele>8.6</ele>
        <time>2018-09-20T16:45:24.000Z</time>
      </trkpt>
      <trkpt lat="46.72458" lon="-2.35203">
        <ele>8.6</ele>
        <time>2018-09-20T16:45:25.000Z</time>
      </trkpt>
      <trkpt lat="46.72457" lon="-2.35204">
        <ele>8.6</ele>
        <time>2018-09-20T16:45:26.000Z</time>
      </trkpt>
      <trkpt lat="46.72457" lon="-2.35205">
        <ele>8.6</ele>
        <time>2018-09-20T16:45:27.000Z</time>
      </trkpt>
      <trkpt lat="46.72456" lon="-2.35206">
        <ele>8.6</ele>
        <time>2018-09-20T16:45:28.000Z</time>
      </trkpt>
      <trkpt lat="46.72455" lon="-2.35208">
        <ele>8.6</ele>
        <time>2018-09-20T16:45:29.000Z</time>
      </trkpt>
      <trkpt lat="46.72454" lon="-2.35209">
        <ele>8.6</ele>
        <time>2018-09-20T16:45:30.000Z</time>
      </trkpt>
      <trkpt lat="46.72454" lon="-2.3521">
        <ele>8.6</ele>
        <time>2018-09-20T16:45:31.000Z</time>
      </trkpt>
      <trkpt lat="46.72453" lon="-2.35211">
        <ele>8.6</ele>
        <time>2018-09-20T16:45:32.000Z</time>
      </trkpt>
      <trkpt lat="46.72452" lon="-2.35212">
        <ele>8.6</ele>
        <time>2018-09-20T16:45:33.000Z</time>
      </trkpt>
      <trkpt lat="46.72451" lon="-2.35213">
        <ele>8.6</ele>
        <time>2018-09-20T16:45:34.000Z</time>
      </trkpt>
      <trkpt lat="46.7245" lon="-2.35214">
        <ele>8.6</ele>
        <time>2018-09-20T16:45:35.000Z</time>
      </trkpt>
      <trkpt lat="46.7245" lon="-2.35215">
        <ele>8.6</ele>
        <time>2018-09-20T16:45:36.000Z</time>
      </trkpt>
      <trkpt lat="46.72449" lon="-2.35216">
        <ele>8.7</ele>
        <time>2018-09-20T16:45:37.000Z</time>
      </trkpt>
      <trkpt lat="46.72448" lon="-2.35217">
        <ele>8.7</ele>
        <time>2018-09-20T16:45:38.000Z</time>
      </trkpt>
      <trkpt lat="46.72447" lon="-2.35218">
        <ele>8.7</ele>
        <time>2018-09-20T16:45:39.000Z</time>
      </trkpt>
      <trkpt lat="46.72446" lon="-2.35219">
        <ele>8.7</ele>
        <time>2018-09-20T16:45:40.000Z</time>
      </trkpt>
      <trkpt lat="46.72446" lon="-2.3522">
        <ele>8.7</ele>
        <time>2018-09-20T16:45:41.000Z</time>
      </trkpt>
      <trkpt lat="46.72445" lon="-2.35221">
        <ele>8.7</ele>
        <time>2018-09-20T16:45:42.000Z</time>
      </trkpt>
      <trkpt lat="46.72444" lon="-2.35222">
        <ele>8.7</ele>
        <time>2018-09-20T16:45:43.000Z</time>
      </trkpt>
      <trkpt lat="46.72443" lon="-2.35223">
        <ele>8.7</ele>
        <time>2018-09-20T16:45:44.000Z</time>
      </trkpt>
      <trkpt lat="46.72442" lon="-2.35224">
        <ele>8.7</ele>
        <time>2018-09-20T16:45:45.000Z</time>
      </trkpt>
      <trkpt lat="46.72441" lon="-2.35225">
        <ele>8.7</ele>
        <time>2018-09-20T16:45:46.000Z</time>
      </trkpt>
      <trkpt lat="46.7244" lon="-2.35226">
        <ele>8.7</ele>
        <time>2018-09-20T16:45:47.000Z</time>
      </trkpt>
      <trkpt lat="46.72439" lon="-2.35227">
        <ele>8.7</ele>
        <time>2018-09-20T16:45:48.000Z</time>
      </trkpt>
      <trkpt lat="46.72439" lon="-2.35228">
        <ele>8.7</ele>
        <time>2018-09-20T16:45:49.000Z</time>
      </trkpt>
      <trkpt lat="46.72438" lon="-2.35229">
        <ele>8.8</ele>
        <time>2018-09-20T16:45:50.000Z</time>
      </trkpt>
      <trkpt lat="46.72437" lon="-2.3523">
        <ele>8.8</ele>
        <time>2018-09-20T16:45:51.000Z</time>
      </trkpt>
      <trkpt lat="46.72436" lon="-2.35231">
        <ele>8.8</ele>
        <time>2018-09-20T16:45:52.000Z</time>
      </trkpt>
      <trkpt lat="46.72435" lon="-2.35232">
        <ele>8.8</ele>
        <time>2018-09-20T16:45:53.000Z</time>
      </trkpt>
      <trkpt lat="46.72434" lon="-2.35233">
        <ele>8.8</ele>
        <time>2018-09-20T16:45:54.000Z</time>
      </trkpt>
      <trkpt lat="46.72433" lon="-2.35234">
        <ele>8.8</ele>
        <time>2018-09-20T16:45:55.000Z</time>
      </trkpt>
      <trkpt lat="46.72432" lon="-2.35235">
        <ele>8.8</ele>
        <time>2018-09-20T16:45:56.000Z</time>
      </trkpt>
      <trkpt lat="46.72431" lon="-2.35236">
        <ele>8.8</ele>
        <time>2018-09-20T16:45:57.000Z</time>
      </trkpt>
      <trkpt lat="46.7243" lon="-2.35236">
        <ele>8.8</ele>
        <time>2018-09-20T16:45:58.000Z</time>
      </trkpt>
      <trkpt lat="46.72429" lon="-2.35237">
        <ele>8.9</ele>
        <time>2018-09-20T16:45:59.000Z</time>
      </trkpt>
      <trkpt lat="46.72428" lon="-2.35238">
        <ele>8.9</ele>
        <time>2018-09-20T16:46:00.000Z</time>
      </trkpt>
      <trkpt lat="46.72427" lon="-2.35239">
        <ele>8.9</ele>
        <time>2018-09-20T16:46:01.000Z</time>
      </trkpt>
      <trkpt lat="46.72426" lon="-2.3524">
        <ele>8.9</ele>
        <time>2018-09-20T16:46:02.000Z</time>
      </trkpt>
      <trkpt lat="46.72425" lon="-2.35241">
        <ele>8.9</ele>
        <time>2018-09-20T16:46:03.000Z</time>
      </trkpt>
      <trkpt lat="46.72424" lon="-2.35242">
        <ele>8.9</ele>
        <time>2018-09-20T16:46:04.000Z</time>
      </trkpt>
      <trkpt lat="46.72423" lon="-2.35243">
        <ele>8.9</ele>
        <time>2018-09-20T16:46:05.000Z</time>
      </trkpt>
      <trkpt lat="46.72422" lon="-2.35244">
        <ele>8.9</ele>
        <time>2018-09-20T16:46:06.000Z</time>
      </trkpt>
      <trkpt lat="46.72421" lon="-2.35245">
        <ele>8.9</ele>
        <time>2018-09-20T16:46:07.000Z</time>
      </trkpt>
      <trkpt lat="46.72421" lon="-2.35246">
        <ele>9</ele>
        <time>2018-09-20T16:46:08.000Z</time>
      </trkpt>
      <trkpt lat="46.7242" lon="-2.35247">
        <ele>9</ele>
        <time>2018-09-20T16:46:09.000Z</time>
      </trkpt>
      <trkpt lat="46.72419" lon="-2.35248">
        <ele>9</ele>
        <time>2018-09-20T16:46:10.000Z</time>
      </trkpt>
      <trkpt lat="46.72418" lon="-2.35249">
        <ele>9</ele>
        <time>2018-09-20T16:46:11.000Z</time>
      </trkpt>
      <trkpt lat="46.72418" lon="-2.3525">
        <ele>9</ele>
        <time>2018-09-20T16:46:12.000Z</time>
      </trkpt>
      <trkpt lat="46.72417" lon="-2.35251">
        <ele>9</ele>
        <time>2018-09-20T16:46:13.000Z</time>
      </trkpt>
      <trkpt lat="46.72417" lon="-2.35252">
        <ele>9</ele>
        <time>2018-09-20T16:46:14.000Z</time>
      </trkpt>
      <trkpt lat="46.72416" lon="-2.35254">
        <ele>9.1</ele>
        <time>2018-09-20T16:46:15.000Z</time>
      </trkpt>
      <trkpt lat="46.72415" lon="-2.35255">
        <ele>9.1</ele>
        <time>2018-09-20T16:46:16.000Z</time>
      </trkpt>
      <trkpt lat="46.72415" lon="-2.35256">
        <ele>9.1</ele>
        <time>2018-09-20T16:46:17.000Z</time>
      </trkpt>
      <trkpt lat="46.72414" lon="-2.35257">
        <ele>9.1</ele>
        <time>2018-09-20T16:46:18.000Z</time>
      </trkpt>
      <trkpt lat="46.72413" lon="-2.35258">
        <ele>9.2</ele>
        <time>2018-09-20T16:46:19.000Z</time>
      </trkpt>
      <trkpt lat="46.72413" lon="-2.35259">
        <ele>9.2</ele>
        <time>2018-09-20T16:46:20.000Z</time>
      </trkpt>
      <trkpt lat="46.72412" lon="-2.3526">
        <ele>9.2</ele>
        <time>2018-09-20T16:46:21.000Z</time>
      </trkpt>
      <trkpt lat="46.72411" lon="-2.35261">
        <ele>9.3</ele>
        <time>2018-09-20T16:46:22.000Z</time>
      </trkpt>
      <trkpt lat="46.72411" lon="-2.35262">
        <ele>9.3</ele>
        <time>2018-09-20T16:46:23.000Z</time>
      </trkpt>
      <trkpt lat="46.7241" lon="-2.35262">
        <ele>9.3</ele>
        <time>2018-09-20T16:46:24.000Z</time>
      </trkpt>
      <trkpt lat="46.7241" lon="-2.35263">
        <ele>9.3</ele>
        <time>2018-09-20T16:46:25.000Z</time>
      </trkpt>
      <trkpt lat="46.7241" lon="-2.35264">
        <ele>9.3</ele>
        <time>2018-09-20T16:46:26.000Z</time>
      </trkpt>
      <trkpt lat="46.72409" lon="-2.35265">
        <ele>9.4</ele>
        <time>2018-09-20T16:46:27.000Z</time>
      </trkpt>
      <trkpt lat="46.72408" lon="-2.35266">
        <ele>9.4</ele>
        <time>2018-09-20T16:46:28.000Z</time>
      </trkpt>
      <trkpt lat="46.72408" lon="-2.35268">
        <ele>9.4</ele>
        <time>2018-09-20T16:46:29.000Z</time>
      </trkpt>
      <trkpt lat="46.72407" lon="-2.35269">
        <ele>9.4</ele>
        <time>2018-09-20T16:46:30.000Z</time>
      </trkpt>
      <trkpt lat="46.72406" lon="-2.3527">
        <ele>9.5</ele>
        <time>2018-09-20T16:46:31.000Z</time>
      </trkpt>
      <trkpt lat="46.72406" lon="-2.35271">
        <ele>9.5</ele>
        <time>2018-09-20T16:46:32.000Z</time>
      </trkpt>
      <trkpt lat="46.72405" lon="-2.35273">
        <ele>9.5</ele>
        <time>2018-09-20T16:46:33.000Z</time>
      </trkpt>
      <trkpt lat="46.72404" lon="-2.35274">
        <ele>9.5</ele>
        <time>2018-09-20T16:46:34.000Z</time>
      </trkpt>
      <trkpt lat="46.72403" lon="-2.35275">
        <ele>9.6</ele>
        <time>2018-09-20T16:46:35.000Z</time>
      </trkpt>
      <trkpt lat="46.72403" lon="-2.35276">
        <ele>9.6</ele>
        <time>2018-09-20T16:46:36.000Z</time>
      </trkpt>
      <trkpt lat="46.72402" lon="-2.35277">
        <ele>9.6</ele>
        <time>2018-09-20T16:46:37.000Z</time>
      </trkpt>
      <trkpt lat="46.72401" lon="-2.35278">
        <ele>9.6</ele>
        <time>2018-09-20T16:46:38.000Z</time>
      </trkpt>
      <trkpt lat="46.72401" lon="-2.35279">
        <ele>9.7</ele>
        <time>2018-09-20T16:46:39.000Z</time>
      </trkpt>
      <trkpt lat="46.724" lon="-2.3528">
        <ele>9.7</ele>
        <time>2018-09-20T16:46:40.000Z</time>
      </trkpt>
      <trkpt lat="46.72399" lon="-2.35281">
        <ele>9.7</ele>
        <time>2018-09-20T16:46:41.000Z</time>
      </trkpt>
      <trkpt lat="46.72399" lon="-2.35282">
        <ele>9.7</ele>
        <time>2018-09-20T16:46:42.000Z</time>
      </trkpt>
      <trkpt lat="46.72398" lon="-2.35283">
        <ele>9.8</ele>
        <time>2018-09-20T16:46:43.000Z</time>
      </trkpt>
      <trkpt lat="46.72397" lon="-2.35284">
        <ele>9.8</ele>
        <time>2018-09-20T16:46:44.000Z</time>
      </trkpt>
      <trkpt lat="46.72397" lon="-2.35285">
        <ele>9.8</ele>
        <time>2018-09-20T16:46:45.000Z</time>
      </trkpt>
      <trkpt lat="46.72396" lon="-2.35286">
        <ele>9.8</ele>
        <time>2018-09-20T16:46:46.000Z</time>
      </trkpt>
      <trkpt lat="46.72395" lon="-2.35287">
        <ele>9.8</ele>
        <time>2018-09-20T16:46:47.000Z</time>
      </trkpt>
      <trkpt lat="46.72395" lon="-2.35288">
        <ele>9.9</ele>
        <time>2018-09-20T16:46:48.000Z</time>
      </trkpt>
      <trkpt lat="46.72394" lon="-2.35289">
        <ele>9.9</ele>
        <time>2018-09-20T16:46:49.000Z</time>
      </trkpt>
      <trkpt lat="46.72393" lon="-2.35291">
        <ele>9.9</ele>
        <time>2018-09-20T16:46:50.000Z</time>
      </trkpt>
      <trkpt lat="46.72393" lon="-2.35292">
        <ele>9.9</ele>
        <time>2018-09-20T16:46:51.000Z</time>
      </trkpt>
      <trkpt lat="46.72392" lon="-2.35293">
        <ele>9.9</ele>
        <time>2018-09-20T16:46:52.000Z</time>
      </trkpt>
      <trkpt lat="46.72392" lon="-2.35294">
        <ele>10</ele>
        <time>2018-09-20T16:46:53.000Z</time>
      </trkpt>
      <trkpt lat="46.72392" lon="-2.35296">
        <ele>10</ele>
        <time>2018-09-20T16:46:54.000Z</time>
      </trkpt>
      <trkpt lat="46.72392" lon="-2.35297">
        <ele>10</ele>
        <time>2018-09-20T16:46:55.000Z</time>
      </trkpt>
      <trkpt lat="46.72391" lon="-2.35299">
        <ele>10</ele>
        <time>2018-09-20T16:46:56.000Z</time>
      </trkpt>
      <trkpt lat="46.72391" lon="-2.353">
        <ele>10</ele>
        <time>2018-09-20T16:46:57.000Z</time>
      </trkpt>
      <trkpt lat="46.72391" lon="-2.35301">
        <ele>10</ele>
        <time>2018-09-20T16:46:58.000Z</time>
      </trkpt>
      <trkpt lat="46.72391" lon="-2.35303">
        <ele>10.1</ele>
        <time>2018-09-20T16:46:59.000Z</time>
      </trkpt>
      <trkpt lat="46.72391" lon="-2.35304">
        <ele>10.1</ele>
        <time>2018-09-20T16:47:00.000Z</time>
      </trkpt>
      <trkpt lat="46.72391" lon="-2.35306">
        <ele>10.1</ele>
        <time>2018-09-20T16:47:01.000Z</time>
      </trkpt>
      <trkpt lat="46.72391" lon="-2.35307">
        <ele>10.1</ele>
        <time>2018-09-20T16:47:02.000Z</time>
      </trkpt>
      <trkpt lat="46.72392" lon="-2.35309">
        <ele>10.1</ele>
        <time>2018-09-20T16:47:03.000Z</time>
      </trkpt>
      <trkpt lat="46.72392" lon="-2.3531">
        <ele>10.1</ele>
        <time>2018-09-20T16:47:04.000Z</time>
      </trkpt>
      <trkpt lat="46.72392" lon="-2.35312">
        <ele>10.1</ele>
        <time>2018-09-20T16:47:05.000Z</time>
      </trkpt>
      <trkpt lat="46.72392" lon="-2.35313">
        <ele>10.1</ele>
        <time>2018-09-20T16:47:06.000Z</time>
      </trkpt>
      <trkpt lat="46.72392" lon="-2.35314">
        <ele>10.1</ele>
        <time>2018-09-20T16:47:07.000Z</time>
      </trkpt>
      <trkpt lat="46.72392" lon="-2.35316">
        <ele>10.1</ele>
        <time>2018-09-20T16:47:08.000Z</time>
      </trkpt>
      <trkpt lat="46.72393" lon="-2.35317">
        <ele>10.2</ele>
        <time>2018-09-20T16:47:09.000Z</time>
      </trkpt>
      <trkpt lat="46.72393" lon="-2.35319">
        <ele>10.2</ele>
        <time>2018-09-20T16:47:10.000Z</time>
      </trkpt>
      <trkpt lat="46.72393" lon="-2.3532">
        <ele>10.2</ele>
        <time>2018-09-20T16:47:11.000Z</time>
      </trkpt>
      <trkpt lat="46.72393" lon="-2.35322">
        <ele>10.2</ele>
        <time>2018-09-20T16:47:12.000Z</time>
      </trkpt>
      <trkpt lat="46.72393" lon="-2.35323">
        <ele>10.2</ele>
        <time>2018-09-20T16:47:13.000Z</time>
      </trkpt>
      <trkpt lat="46.72393" lon="-2.35325">
        <ele>10.2</ele>
        <time>2018-09-20T16:47:14.000Z</time>
      </trkpt>
      <trkpt lat="46.72394" lon="-2.35326">
        <ele>10.2</ele>
        <time>2018-09-20T16:47:15.000Z</time>
      </trkpt>
      <trkpt lat="46.72394" lon="-2.35328">
        <ele>10.2</ele>
        <time>2018-09-20T16:47:16.000Z</time>
      </trkpt>
      <trkpt lat="46.72394" lon="-2.35329">
        <ele>10.2</ele>
        <time>2018-09-20T16:47:17.000Z</time>
      </trkpt>
      <trkpt lat="46.72394" lon="-2.3533">
        <ele>10.2</ele>
        <time>2018-09-20T16:47:18.000Z</time>
      </trkpt>
      <trkpt lat="46.72394" lon="-2.35332">
        <ele>10.3</ele>
        <time>2018-09-20T16:47:19.000Z</time>
      </trkpt>
      <trkpt lat="46.72394" lon="-2.35333">
        <ele>10.3</ele>
        <time>2018-09-20T16:47:20.000Z</time>
      </trkpt>
      <trkpt lat="46.72394" lon="-2.35335">
        <ele>10.3</ele>
        <time>2018-09-20T16:47:21.000Z</time>
      </trkpt>
      <trkpt lat="46.72394" lon="-2.35336">
        <ele>10.3</ele>
        <time>2018-09-20T16:47:22.000Z</time>
      </trkpt>
      <trkpt lat="46.72394" lon="-2.35338">
        <ele>10.3</ele>
        <time>2018-09-20T16:47:23.000Z</time>
      </trkpt>
      <trkpt lat="46.72394" lon="-2.35339">
        <ele>10.3</ele>
        <time>2018-09-20T16:47:24.000Z</time>
      </trkpt>
      <trkpt lat="46.72394" lon="-2.35341">
        <ele>10.4</ele>
        <time>2018-09-20T16:47:25.000Z</time>
      </trkpt>
      <trkpt lat="46.72394" lon="-2.35342">
        <ele>10.4</ele>
        <time>2018-09-20T16:47:26.000Z</time>
      </trkpt>
      <trkpt lat="46.72394" lon="-2.35344">
        <ele>10.4</ele>
        <time>2018-09-20T16:47:27.000Z</time>
      </trkpt>
      <trkpt lat="46.72394" lon="-2.35345">
        <ele>10.4</ele>
        <time>2018-09-20T16:47:28.000Z</time>
      </trkpt>
      <trkpt lat="46.72394" lon="-2.35347">
        <ele>10.4</ele>
        <time>2018-09-20T16:47:29.000Z</time>
      </trkpt>
      <trkpt lat="46.72394" lon="-2.35348">
        <ele>10.4</ele>
        <time>2018-09-20T16:47:30.000Z</time>
      </trkpt>
      <trkpt lat="46.72394" lon="-2.3535">
        <ele>10.5</ele>
        <time>2018-09-20T16:47:31.000Z</time>
      </trkpt>
      <trkpt lat="46.72394" lon="-2.35351">
        <ele>10.5</ele>
        <time>2018-09-20T16:47:32.000Z</time>
      </trkpt>
      <trkpt lat="46.72394" lon="-2.35353">
        <ele>10.5</ele>
        <time>2018-09-20T16:47:33.000Z</time>
      </trkpt>
      <trkpt lat="46.72394" lon="-2.35354">
        <ele>10.5</ele>
        <time>2018-09-20T16:47:34.000Z</time>
      </trkpt>
      <trkpt lat="46.72394" lon="-2.35356">
        <ele>10.5</ele>
        <time>2018-09-20T16:47:35.000Z</time>
      </trkpt>
      <trkpt lat="46.72393" lon="-2.35357">
        <ele>10.6</ele>
        <time>2018-09-20T16:47:36.000Z</time>
      </trkpt>
      <trkpt lat="46.72393" lon="-2.35359">
        <ele>10.6</ele>
        <time>2018-09-20T16:47:37.000Z</time>
      </trkpt>
      <trkpt lat="46.72393" lon="-2.35361">
        <ele>10.6</ele>
        <time>2018-09-20T16:47:38.000Z</time>
      </trkpt>
      <trkpt lat="46.72393" lon="-2.35362">
        <ele>10.6</ele>
        <time>2018-09-20T16:47:39.000Z</time>
      </trkpt>
      <trkpt lat="46.72393" lon="-2.35364">
        <ele>10.6</ele>
        <time>2018-09-20T16:47:40.000Z</time>
      </trkpt>
      <trkpt lat="46.72393" lon="-2.35365">
        <ele>10.7</ele>
        <time>2018-09-20T16:47:41.000Z</time>
      </trkpt>
      <trkpt lat="46.72393" lon="-2.35367">
        <ele>10.7</ele>
        <time>2018-09-20T16:47:42.000Z</time>
      </trkpt>
      <trkpt lat="46.72393" lon="-2.35368">
        <ele>10.7</ele>
        <time>2018-09-20T16:47:43.000Z</time>
      </trkpt>
      <trkpt lat="46.72393" lon="-2.3537">
        <ele>10.7</ele>
        <time>2018-09-20T16:47:44.000Z</time>
      </trkpt>
      <trkpt lat="46.72393" lon="-2.35372">
        <ele>10.7</ele>
        <time>2018-09-20T16:47:45.000Z</time>
      </trkpt>
      <trkpt lat="46.72393" lon="-2.35373">
        <ele>10.8</ele>
        <time>2018-09-20T16:47:46.000Z</time>
      </trkpt>
      <trkpt lat="46.72393" lon="-2.35375">
        <ele>10.8</ele>
        <time>2018-09-20T16:47:47.000Z</time>
      </trkpt>
      <trkpt lat="46.72393" lon="-2.35376">
        <ele>10.8</ele>
        <time>2018-09-20T16:47:48.000Z</time>
      </trkpt>
      <trkpt lat="46.72393" lon="-2.35378">
        <ele>10.8</ele>
        <time>2018-09-20T16:47:49.000Z</time>
      </trkpt>
      <trkpt lat="46.72393" lon="-2.35379">
        <ele>10.8</ele>
        <time>2018-09-20T16:47:50.000Z</time>
      </trkpt>
      <trkpt lat="46.72393" lon="-2.35381">
        <ele>10.9</ele>
        <time>2018-09-20T16:47:51.000Z</time>
      </trkpt>
      <trkpt lat="46.72393" lon="-2.35382">
        <ele>10.9</ele>
        <time>2018-09-20T16:47:52.000Z</time>
      </trkpt>
      <trkpt lat="46.72393" lon="-2.35384">
        <ele>10.9</ele>
        <time>2018-09-20T16:47:53.000Z</time>
      </trkpt>
      <trkpt lat="46.72393" lon="-2.35385">
        <ele>10.9</ele>
        <time>2018-09-20T16:47:54.000Z</time>
      </trkpt>
      <trkpt lat="46.72393" lon="-2.35387">
        <ele>10.9</ele>
        <time>2018-09-20T16:47:55.000Z</time>
      </trkpt>
      <trkpt lat="46.72393" lon="-2.35389">
        <ele>10.9</ele>
        <time>2018-09-20T16:47:56.000Z</time>
      </trkpt>
      <trkpt lat="46.72394" lon="-2.3539">
        <ele>11</ele>
        <time>2018-09-20T16:47:57.000Z</time>
      </trkpt>
      <trkpt lat="46.72394" lon="-2.35392">
        <ele>11</ele>
        <time>2018-09-20T16:47:58.000Z</time>
      </trkpt>
      <trkpt lat="46.72394" lon="-2.35393">
        <ele>11</ele>
        <time>2018-09-20T16:47:59.000Z</time>
      </trkpt>
      <trkpt lat="46.72394" lon="-2.35395">
        <ele>11</ele>
        <time>2018-09-20T16:48:00.000Z</time>
      </trkpt>
      <trkpt lat="46.72394" lon="-2.35396">
        <ele>11</ele>
        <time>2018-09-20T16:48:01.000Z</time>
      </trkpt>
      <trkpt lat="46.72394" lon="-2.35398">
        <ele>11</ele>
        <time>2018-09-20T16:48:02.000Z</time>
      </trkpt>
      <trkpt lat="46.72394" lon="-2.354">
        <ele>11.1</ele>
        <time>2018-09-20T16:48:03.000Z</time>
      </trkpt>
      <trkpt lat="46.72394" lon="-2.35402">
        <ele>11.1</ele>
        <time>2018-09-20T16:48:04.000Z</time>
      </trkpt>
      <trkpt lat="46.72394" lon="-2.35403">
        <ele>11.1</ele>
        <time>2018-09-20T16:48:05.000Z</time>
      </trkpt>
      <trkpt lat="46.72395" lon="-2.35405">
        <ele>11.1</ele>
        <time>2018-09-20T16:48:06.000Z</time>
      </trkpt>
      <trkpt lat="46.72395" lon="-2.35407">
        <ele>11.1</ele>
        <time>2018-09-20T16:48:07.000Z</time>
      </trkpt>
      <trkpt lat="46.72395" lon="-2.35408">
        <ele>11.2</ele>
        <time>2018-09-20T16:48:08.000Z</time>
      </trkpt>
      <trkpt lat="46.72395" lon="-2.3541">
        <ele>11.2</ele>
        <time>2018-09-20T16:48:09.000Z</time>
      </trkpt>
      <trkpt lat="46.72395" lon="-2.35412">
        <ele>11.2</ele>
        <time>2018-09-20T16:48:10.000Z</time>
      </trkpt>
      <trkpt lat="46.72395" lon="-2.35413">
        <ele>11.2</ele>
        <time>2018-09-20T16:48:11.000Z</time>
      </trkpt>
      <trkpt lat="46.72395" lon="-2.35415">
        <ele>11.2</ele>
        <time>2018-09-20T16:48:12.000Z</time>
      </trkpt>
      <trkpt lat="46.72395" lon="-2.35416">
        <ele>11.3</ele>
        <time>2018-09-20T16:48:13.000Z</time>
      </trkpt>
      <trkpt lat="46.72395" lon="-2.35418">
        <ele>11.3</ele>
        <time>2018-09-20T16:48:14.000Z</time>
      </trkpt>
      <trkpt lat="46.72395" lon="-2.35419">
        <ele>11.3</ele>
        <time>2018-09-20T16:48:15.000Z</time>
      </trkpt>
      <trkpt lat="46.72395" lon="-2.35421">
        <ele>11.3</ele>
        <time>2018-09-20T16:48:16.000Z</time>
      </trkpt>
      <trkpt lat="46.72395" lon="-2.35422">
        <ele>11.3</ele>
        <time>2018-09-20T16:48:17.000Z</time>
      </trkpt>
      <trkpt lat="46.72395" lon="-2.35423">
        <ele>11.3</ele>
        <time>2018-09-20T16:48:18.000Z</time>
      </trkpt>
      <trkpt lat="46.72395" lon="-2.35425">
        <ele>11.3</ele>
        <time>2018-09-20T16:48:19.000Z</time>
      </trkpt>
      <trkpt lat="46.72395" lon="-2.35426">
        <ele>11.3</ele>
        <time>2018-09-20T16:48:20.000Z</time>
      </trkpt>
      <trkpt lat="46.72395" lon="-2.35427">
        <ele>11.3</ele>
        <time>2018-09-20T16:48:21.000Z</time>
      </trkpt>
      <trkpt lat="46.72395" lon="-2.35429">
        <ele>11.3</ele>
        <time>2018-09-20T16:48:22.000Z</time>
      </trkpt>
      <trkpt lat="46.72395" lon="-2.3543">
        <ele>11.3</ele>
        <time>2018-09-20T16:48:23.000Z</time>
      </trkpt>
      <trkpt lat="46.72395" lon="-2.35432">
        <ele>11.3</ele>
        <time>2018-09-20T16:48:24.000Z</time>
      </trkpt>
      <trkpt lat="46.72396" lon="-2.35434">
        <ele>11.3</ele>
        <time>2018-09-20T16:48:25.000Z</time>
      </trkpt>
      <trkpt lat="46.72396" lon="-2.35435">
        <ele>11.3</ele>
        <time>2018-09-20T16:48:26.000Z</time>
      </trkpt>
      <trkpt lat="46.72396" lon="-2.35437">
        <ele>11.3</ele>
        <time>2018-09-20T16:48:27.000Z</time>
      </trkpt>
      <trkpt lat="46.72396" lon="-2.35439">
        <ele>11.2</ele>
        <time>2018-09-20T16:48:28.000Z</time>
      </trkpt>
      <trkpt lat="46.72396" lon="-2.3544">
        <ele>11.2</ele>
        <time>2018-09-20T16:48:29.000Z</time>
      </trkpt>
      <trkpt lat="46.72397" lon="-2.35442">
        <ele>11.2</ele>
        <time>2018-09-20T16:48:30.000Z</time>
      </trkpt>
      <trkpt lat="46.72397" lon="-2.35444">
        <ele>11.2</ele>
        <time>2018-09-20T16:48:31.000Z</time>
      </trkpt>
      <trkpt lat="46.72397" lon="-2.35446">
        <ele>11.2</ele>
        <time>2018-09-20T16:48:32.000Z</time>
      </trkpt>
      <trkpt lat="46.72398" lon="-2.35447">
        <ele>11.2</ele>
        <time>2018-09-20T16:48:33.000Z</time>
      </trkpt>
      <trkpt lat="46.72398" lon="-2.35449">
        <ele>11.2</ele>
        <time>2018-09-20T16:48:34.000Z</time>
      </trkpt>
      <trkpt lat="46.72399" lon="-2.3545">
        <ele>11.2</ele>
        <time>2018-09-20T16:48:35.000Z</time>
      </trkpt>
      <trkpt lat="46.724" lon="-2.35451">
        <ele>11.2</ele>
        <time>2018-09-20T16:48:36.000Z</time>
      </trkpt>
      <trkpt lat="46.724" lon="-2.35453">
        <ele>11.2</ele>
        <time>2018-09-20T16:48:37.000Z</time>
      </trkpt>
      <trkpt lat="46.72401" lon="-2.35454">
        <ele>11.2</ele>
        <time>2018-09-20T16:48:38.000Z</time>
      </trkpt>
      <trkpt lat="46.72401" lon="-2.35455">
        <ele>11.2</ele>
        <time>2018-09-20T16:48:39.000Z</time>
      </trkpt>
      <trkpt lat="46.72402" lon="-2.35457">
        <ele>11.2</ele>
        <time>2018-09-20T16:48:40.000Z</time>
      </trkpt>
      <trkpt lat="46.72402" lon="-2.35458">
        <ele>11.2</ele>
        <time>2018-09-20T16:48:41.000Z</time>
      </trkpt>
      <trkpt lat="46.72402" lon="-2.35459">
        <ele>11.2</ele>
        <time>2018-09-20T16:48:42.000Z</time>
      </trkpt>
      <trkpt lat="46.72403" lon="-2.35461">
        <ele>11.2</ele>
        <time>2018-09-20T16:48:43.000Z</time>
      </trkpt>
      <trkpt lat="46.72403" lon="-2.35462">
        <ele>11.2</ele>
        <time>2018-09-20T16:48:44.000Z</time>
      </trkpt>
      <trkpt lat="46.72403" lon="-2.35463">
        <ele>11.2</ele>
        <time>2018-09-20T16:48:45.000Z</time>
      </trkpt>
      <trkpt lat="46.72403" lon="-2.35465">
        <ele>11.2</ele>
        <time>2018-09-20T16:48:46.000Z</time>
      </trkpt>
      <trkpt lat="46.72403" lon="-2.35466">
        <ele>11.2</ele>
        <time>2018-09-20T16:48:47.000Z</time>
      </trkpt>
      <trkpt lat="46.72403" lon="-2.35468">
        <ele>11.2</ele>
        <time>2018-09-20T16:48:48.000Z</time>
      </trkpt>
      <trkpt lat="46.72403" lon="-2.35469">
        <ele>11.2</ele>
        <time>2018-09-20T16:48:49.000Z</time>
      </trkpt>
      <trkpt lat="46.72404" lon="-2.3547">
        <ele>11.2</ele>
        <time>2018-09-20T16:48:50.000Z</time>
      </trkpt>
      <trkpt lat="46.72404" lon="-2.35471">
        <ele>11.2</ele>
        <time>2018-09-20T16:48:51.000Z</time>
      </trkpt>
      <trkpt lat="46.72404" lon="-2.35472">
        <ele>11.2</ele>
        <time>2018-09-20T16:48:52.000Z</time>
      </trkpt>
      <trkpt lat="46.72404" lon="-2.35472">
        <ele>11.2</ele>
        <time>2018-09-20T16:48:53.000Z</time>
      </trkpt>
      <trkpt lat="46.72404" lon="-2.35472">
        <ele>11.2</ele>
        <time>2018-09-20T16:48:54.000Z</time>
      </trkpt>
      <trkpt lat="46.72404" lon="-2.35472">
        <ele>11.2</ele>
        <time>2018-09-20T16:48:55.000Z</time>
      </trkpt>
      <trkpt lat="46.72404" lon="-2.35472">
        <ele>11.2</ele>
        <time>2018-09-20T16:48:56.000Z</time>
      </trkpt>
      <trkpt lat="46.72404" lon="-2.35472">
        <ele>11.2</ele>
        <time>2018-09-20T16:48:57.000Z</time>
      </trkpt>
      <trkpt lat="46.72404" lon="-2.35473">
        <ele>11.2</ele>
        <time>2018-09-20T16:48:58.000Z</time>
      </trkpt>
      <trkpt lat="46.72404" lon="-2.35474">
        <ele>11.2</ele>
        <time>2018-09-20T16:48:59.000Z</time>
      </trkpt>
      <trkpt lat="46.72404" lon="-2.35475">
        <ele>11.2</ele>
        <time>2018-09-20T16:49:00.000Z</time>
      </trkpt>
      <trkpt lat="46.72404" lon="-2.35476">
        <ele>11.2</ele>
        <time>2018-09-20T16:49:01.000Z</time>
      </trkpt>
      <trkpt lat="46.72404" lon="-2.35478">
        <ele>11.1</ele>
        <time>2018-09-20T16:49:02.000Z</time>
      </trkpt>
      <trkpt lat="46.72404" lon="-2.3548">
        <ele>11.1</ele>
        <time>2018-09-20T16:49:03.000Z</time>
      </trkpt>
      <trkpt lat="46.72405" lon="-2.35481">
        <ele>11.1</ele>
        <time>2018-09-20T16:49:04.000Z</time>
      </trkpt>
      <trkpt lat="46.72405" lon="-2.35483">
        <ele>11.1</ele>
        <time>2018-09-20T16:49:05.000Z</time>
      </trkpt>
      <trkpt lat="46.72405" lon="-2.35484">
        <ele>11.1</ele>
        <time>2018-09-20T16:49:06.000Z</time>
      </trkpt>
      <trkpt lat="46.72405" lon="-2.35486">
        <ele>11.1</ele>
        <time>2018-09-20T16:49:07.000Z</time>
      </trkpt>
      <trkpt lat="46.72405" lon="-2.35488">
        <ele>11.1</ele>
        <time>2018-09-20T16:49:08.000Z</time>
      </trkpt>
      <trkpt lat="46.72406" lon="-2.35489">
        <ele>11.1</ele>
        <time>2018-09-20T16:49:09.000Z</time>
      </trkpt>
      <trkpt lat="46.72406" lon="-2.35491">
        <ele>11.1</ele>
        <time>2018-09-20T16:49:10.000Z</time>
      </trkpt>
      <trkpt lat="46.72406" lon="-2.35493">
        <ele>11.1</ele>
        <time>2018-09-20T16:49:11.000Z</time>
      </trkpt>
      <trkpt lat="46.72406" lon="-2.35494">
        <ele>11.1</ele>
        <time>2018-09-20T16:49:12.000Z</time>
      </trkpt>
      <trkpt lat="46.72406" lon="-2.35496">
        <ele>11.1</ele>
        <time>2018-09-20T16:49:13.000Z</time>
      </trkpt>
      <trkpt lat="46.72406" lon="-2.35497">
        <ele>11.1</ele>
        <time>2018-09-20T16:49:14.000Z</time>
      </trkpt>
      <trkpt lat="46.72407" lon="-2.35499">
        <ele>11.1</ele>
        <time>2018-09-20T16:49:15.000Z</time>
      </trkpt>
      <trkpt lat="46.72407" lon="-2.35501">
        <ele>11.1</ele>
        <time>2018-09-20T16:49:16.000Z</time>
      </trkpt>
      <trkpt lat="46.72407" lon="-2.35502">
        <ele>11.1</ele>
        <time>2018-09-20T16:49:17.000Z</time>
      </trkpt>
      <trkpt lat="46.72408" lon="-2.35504">
        <ele>11</ele>
        <time>2018-09-20T16:49:18.000Z</time>
      </trkpt>
      <trkpt lat="46.72408" lon="-2.35505">
        <ele>11</ele>
        <time>2018-09-20T16:49:19.000Z</time>
      </trkpt>
      <trkpt lat="46.72408" lon="-2.35507">
        <ele>11</ele>
        <time>2018-09-20T16:49:20.000Z</time>
      </trkpt>
      <trkpt lat="46.72408" lon="-2.35508">
        <ele>10.9</ele>
        <time>2018-09-20T16:49:21.000Z</time>
      </trkpt>
      <trkpt lat="46.72409" lon="-2.35509">
        <ele>10.9</ele>
        <time>2018-09-20T16:49:22.000Z</time>
      </trkpt>
      <trkpt lat="46.72409" lon="-2.3551">
        <ele>10.9</ele>
        <time>2018-09-20T16:49:23.000Z</time>
      </trkpt>
      <trkpt lat="46.7241" lon="-2.35511">
        <ele>10.8</ele>
        <time>2018-09-20T16:49:24.000Z</time>
      </trkpt>
      <trkpt lat="46.7241" lon="-2.35511">
        <ele>10.8</ele>
        <time>2018-09-20T16:49:25.000Z</time>
      </trkpt>
      <trkpt lat="46.72411" lon="-2.35511">
        <ele>10.8</ele>
        <time>2018-09-20T16:49:26.000Z</time>
      </trkpt>
      <trkpt lat="46.72412" lon="-2.35511">
        <ele>10.8</ele>
        <time>2018-09-20T16:49:27.000Z</time>
      </trkpt>
      <trkpt lat="46.72413" lon="-2.35511">
        <ele>10.8</ele>
        <time>2018-09-20T16:49:28.000Z</time>
      </trkpt>
      <trkpt lat="46.72414" lon="-2.3551">
        <ele>10.8</ele>
        <time>2018-09-20T16:49:29.000Z</time>
      </trkpt>
      <trkpt lat="46.72415" lon="-2.3551">
        <ele>10.8</ele>
        <time>2018-09-20T16:49:30.000Z</time>
      </trkpt>
      <trkpt lat="46.72416" lon="-2.35509">
        <ele>10.8</ele>
        <time>2018-09-20T16:49:31.000Z</time>
      </trkpt>
      <trkpt lat="46.72417" lon="-2.35508">
        <ele>10.8</ele>
        <time>2018-09-20T16:49:32.000Z</time>
      </trkpt>
      <trkpt lat="46.72418" lon="-2.35508">
        <ele>10.8</ele>
        <time>2018-09-20T16:49:33.000Z</time>
      </trkpt>
      <trkpt lat="46.72419" lon="-2.35507">
        <ele>10.8</ele>
        <time>2018-09-20T16:49:34.000Z</time>
      </trkpt>
      <trkpt lat="46.7242" lon="-2.35506">
        <ele>10.7</ele>
        <time>2018-09-20T16:49:35.000Z</time>
      </trkpt>
      <trkpt lat="46.72421" lon="-2.35505">
        <ele>10.7</ele>
        <time>2018-09-20T16:49:36.000Z</time>
      </trkpt>
      <trkpt lat="46.72421" lon="-2.35505">
        <ele>10.7</ele>
        <time>2018-09-20T16:49:37.000Z</time>
      </trkpt>
      <trkpt lat="46.72422" lon="-2.35504">
        <ele>10.7</ele>
        <time>2018-09-20T16:49:38.000Z</time>
      </trkpt>
      <trkpt lat="46.72423" lon="-2.35503">
        <ele>10.7</ele>
        <time>2018-09-20T16:49:39.000Z</time>
      </trkpt>
      <trkpt lat="46.72424" lon="-2.35502">
        <ele>10.7</ele>
        <time>2018-09-20T16:49:40.000Z</time>
      </trkpt>
      <trkpt lat="46.72425" lon="-2.35501">
        <ele>10.7</ele>
        <time>2018-09-20T16:49:41.000Z</time>
      </trkpt>
      <trkpt lat="46.72425" lon="-2.35501">
        <ele>10.7</ele>
        <time>2018-09-20T16:49:42.000Z</time>
      </trkpt>
      <trkpt lat="46.72426" lon="-2.355">
        <ele>10.7</ele>
        <time>2018-09-20T16:49:43.000Z</time>
      </trkpt>
      <trkpt lat="46.72427" lon="-2.35499">
        <ele>10.6</ele>
        <time>2018-09-20T16:49:44.000Z</time>
      </trkpt>
      <trkpt lat="46.72428" lon="-2.35498">
        <ele>10.6</ele>
        <time>2018-09-20T16:49:45.000Z</time>
      </trkpt>
      <trkpt lat="46.72429" lon="-2.35498">
        <ele>10.6</ele>
        <time>2018-09-20T16:49:46.000Z</time>
      </trkpt>
      <trkpt lat="46.72429" lon="-2.35497">
        <ele>10.5</ele>
        <time>2018-09-20T16:49:47.000Z</time>
      </trkpt>
      <trkpt lat="46.7243" lon="-2.35497">
        <ele>10.5</ele>
        <time>2018-09-20T16:49:48.000Z</time>
      </trkpt>
      <trkpt lat="46.7243" lon="-2.35497">
        <ele>10.5</ele>
        <time>2018-09-20T16:49:49.000Z</time>
      </trkpt>
      <trkpt lat="46.7243" lon="-2.35497">
        <ele>10.5</ele>
        <time>2018-09-20T16:49:50.000Z</time>
      </trkpt>
      <trkpt lat="46.7243" lon="-2.35497">
        <ele>10.5</ele>
        <time>2018-09-20T16:49:51.000Z</time>
      </trkpt>
      <trkpt lat="46.7243" lon="-2.35497">
        <ele>10.5</ele>
        <time>2018-09-20T16:49:52.000Z</time>
      </trkpt>
      <trkpt lat="46.7243" lon="-2.35497">
        <ele>10.5</ele>
        <time>2018-09-20T16:49:53.000Z</time>
      </trkpt>
      <trkpt lat="46.7243" lon="-2.35497">
        <ele>10.5</ele>
        <time>2018-09-20T16:49:54.000Z</time>
      </trkpt>
      <trkpt lat="46.72431" lon="-2.35497">
        <ele>10.5</ele>
        <time>2018-09-20T16:49:55.000Z</time>
      </trkpt>
      <trkpt lat="46.72431" lon="-2.35496">
        <ele>10.5</ele>
        <time>2018-09-20T16:49:56.000Z</time>
      </trkpt>
      <trkpt lat="46.72432" lon="-2.35496">
        <ele>10.5</ele>
        <time>2018-09-20T16:49:57.000Z</time>
      </trkpt>
      <trkpt lat="46.72432" lon="-2.35496">
        <ele>10.4</ele>
        <time>2018-09-20T16:49:58.000Z</time>
      </trkpt>
      <trkpt lat="46.72433" lon="-2.35496">
        <ele>10.4</ele>
        <time>2018-09-20T16:49:59.000Z</time>
      </trkpt>
      <trkpt lat="46.72434" lon="-2.35495">
        <ele>10.4</ele>
        <time>2018-09-20T16:50:00.000Z</time>
      </trkpt>
      <trkpt lat="46.72435" lon="-2.35495">
        <ele>10.3</ele>
        <time>2018-09-20T16:50:01.000Z</time>
      </trkpt>
      <trkpt lat="46.72436" lon="-2.35494">
        <ele>10.3</ele>
        <time>2018-09-20T16:50:02.000Z</time>
      </trkpt>
      <trkpt lat="46.72436" lon="-2.35494">
        <ele>10.3</ele>
        <time>2018-09-20T16:50:03.000Z</time>
      </trkpt>
      <trkpt lat="46.72437" lon="-2.35493">
        <ele>10.2</ele>
        <time>2018-09-20T16:50:04.000Z</time>
      </trkpt>
      <trkpt lat="46.72438" lon="-2.35492">
        <ele>10.2</ele>
        <time>2018-09-20T16:50:05.000Z</time>
      </trkpt>
      <trkpt lat="46.72439" lon="-2.35492">
        <ele>10.2</ele>
        <time>2018-09-20T16:50:06.000Z</time>
      </trkpt>
      <trkpt lat="46.7244" lon="-2.35491">
        <ele>10.1</ele>
        <time>2018-09-20T16:50:07.000Z</time>
      </trkpt>
      <trkpt lat="46.72441" lon="-2.3549">
        <ele>10.1</ele>
        <time>2018-09-20T16:50:08.000Z</time>
      </trkpt>
      <trkpt lat="46.72442" lon="-2.35489">
        <ele>10</ele>
        <time>2018-09-20T16:50:09.000Z</time>
      </trkpt>
      <trkpt lat="46.72443" lon="-2.35488">
        <ele>10</ele>
        <time>2018-09-20T16:50:10.000Z</time>
      </trkpt>
      <trkpt lat="46.72444" lon="-2.35487">
        <ele>10</ele>
        <time>2018-09-20T16:50:11.000Z</time>
      </trkpt>
      <trkpt lat="46.72445" lon="-2.35486">
        <ele>9.9</ele>
        <time>2018-09-20T16:50:12.000Z</time>
      </trkpt>
      <trkpt lat="46.72446" lon="-2.35486">
        <ele>9.9</ele>
        <time>2018-09-20T16:50:13.000Z</time>
      </trkpt>
      <trkpt lat="46.72447" lon="-2.35485">
        <ele>9.8</ele>
        <time>2018-09-20T16:50:14.000Z</time>
      </trkpt>
      <trkpt lat="46.72448" lon="-2.35484">
        <ele>9.8</ele>
        <time>2018-09-20T16:50:15.000Z</time>
      </trkpt>
      <trkpt lat="46.72449" lon="-2.35484">
        <ele>9.8</ele>
        <time>2018-09-20T16:50:16.000Z</time>
      </trkpt>
      <trkpt lat="46.7245" lon="-2.35483">
        <ele>9.7</ele>
        <time>2018-09-20T16:50:17.000Z</time>
      </trkpt>
      <trkpt lat="46.72451" lon="-2.35483">
        <ele>9.7</ele>
        <time>2018-09-20T16:50:18.000Z</time>
      </trkpt>
      <trkpt lat="46.72452" lon="-2.35482">
        <ele>9.7</ele>
        <time>2018-09-20T16:50:19.000Z</time>
      </trkpt>
      <trkpt lat="46.72453" lon="-2.35482">
        <ele>9.6</ele>
        <time>2018-09-20T16:50:20.000Z</time>
      </trkpt>
      <trkpt lat="46.72453" lon="-2.35482">
        <ele>9.6</ele>
        <time>2018-09-20T16:50:21.000Z</time>
      </trkpt>
      <trkpt lat="46.72454" lon="-2.35482">
        <ele>9.5</ele>
        <time>2018-09-20T16:50:22.000Z</time>
      </trkpt>
      <trkpt lat="46.72455" lon="-2.35481">
        <ele>9.5</ele>
        <time>2018-09-20T16:50:23.000Z</time>
      </trkpt>
      <trkpt lat="46.72456" lon="-2.35481">
        <ele>9.5</ele>
        <time>2018-09-20T16:50:24.000Z</time>
      </trkpt>
      <trkpt lat="46.72457" lon="-2.3548">
        <ele>9.4</ele>
        <time>2018-09-20T16:50:25.000Z</time>
      </trkpt>
      <trkpt lat="46.72458" lon="-2.3548">
        <ele>9.4</ele>
        <time>2018-09-20T16:50:26.000Z</time>
      </trkpt>
      <trkpt lat="46.72459" lon="-2.35479">
        <ele>9.3</ele>
        <time>2018-09-20T16:50:27.000Z</time>
      </trkpt>
      <trkpt lat="46.7246" lon="-2.35479">
        <ele>9.3</ele>
        <time>2018-09-20T16:50:28.000Z</time>
      </trkpt>
      <trkpt lat="46.72461" lon="-2.35478">
        <ele>9.2</ele>
        <time>2018-09-20T16:50:29.000Z</time>
      </trkpt>
      <trkpt lat="46.72463" lon="-2.35477">
        <ele>9.2</ele>
        <time>2018-09-20T16:50:30.000Z</time>
      </trkpt>
      <trkpt lat="46.72464" lon="-2.35476">
        <ele>9.2</ele>
        <time>2018-09-20T16:50:31.000Z</time>
      </trkpt>
      <trkpt lat="46.72465" lon="-2.35476">
        <ele>9.1</ele>
        <time>2018-09-20T16:50:32.000Z</time>
      </trkpt>
      <trkpt lat="46.72466" lon="-2.35475">
        <ele>9.1</ele>
        <time>2018-09-20T16:50:33.000Z</time>
      </trkpt>
      <trkpt lat="46.72467" lon="-2.35474">
        <ele>9</ele>
        <time>2018-09-20T16:50:34.000Z</time>
      </trkpt>
      <trkpt lat="46.72468" lon="-2.35474">
        <ele>9</ele>
        <time>2018-09-20T16:50:35.000Z</time>
      </trkpt>
      <trkpt lat="46.72469" lon="-2.35473">
        <ele>8.9</ele>
        <time>2018-09-20T16:50:36.000Z</time>
      </trkpt>
      <trkpt lat="46.7247" lon="-2.35472">
        <ele>8.9</ele>
        <time>2018-09-20T16:50:37.000Z</time>
      </trkpt>
      <trkpt lat="46.72471" lon="-2.35472">
        <ele>8.8</ele>
        <time>2018-09-20T16:50:38.000Z</time>
      </trkpt>
      <trkpt lat="46.72472" lon="-2.35471">
        <ele>8.8</ele>
        <time>2018-09-20T16:50:39.000Z</time>
      </trkpt>
      <trkpt lat="46.72473" lon="-2.35471">
        <ele>8.7</ele>
        <time>2018-09-20T16:50:40.000Z</time>
      </trkpt>
      <trkpt lat="46.72474" lon="-2.35471">
        <ele>8.7</ele>
        <time>2018-09-20T16:50:41.000Z</time>
      </trkpt>
      <trkpt lat="46.72475" lon="-2.35471">
        <ele>8.7</ele>
        <time>2018-09-20T16:50:42.000Z</time>
      </trkpt>
      <trkpt lat="46.72476" lon="-2.3547">
        <ele>8.6</ele>
        <time>2018-09-20T16:50:43.000Z</time>
      </trkpt>
      <trkpt lat="46.72477" lon="-2.3547">
        <ele>8.6</ele>
        <time>2018-09-20T16:50:44.000Z</time>
      </trkpt>
      <trkpt lat="46.72477" lon="-2.3547">
        <ele>8.6</ele>
        <time>2018-09-20T16:50:45.000Z</time>
      </trkpt>
      <trkpt lat="46.72478" lon="-2.35469">
        <ele>8.5</ele>
        <time>2018-09-20T16:50:46.000Z</time>
      </trkpt>
      <trkpt lat="46.72479" lon="-2.35469">
        <ele>8.5</ele>
        <time>2018-09-20T16:50:47.000Z</time>
      </trkpt>
      <trkpt lat="46.7248" lon="-2.35468">
        <ele>8.4</ele>
        <time>2018-09-20T16:50:48.000Z</time>
      </trkpt>
      <trkpt lat="46.7248" lon="-2.35468">
        <ele>8.4</ele>
        <time>2018-09-20T16:50:49.000Z</time>
      </trkpt>
      <trkpt lat="46.72481" lon="-2.35467">
        <ele>8.4</ele>
        <time>2018-09-20T16:50:50.000Z</time>
      </trkpt>
      <trkpt lat="46.72482" lon="-2.35466">
        <ele>8.3</ele>
        <time>2018-09-20T16:50:51.000Z</time>
      </trkpt>
      <trkpt lat="46.72483" lon="-2.35466">
        <ele>8.3</ele>
        <time>2018-09-20T16:50:52.000Z</time>
      </trkpt>
      <trkpt lat="46.72484" lon="-2.35465">
        <ele>8.2</ele>
        <time>2018-09-20T16:50:53.000Z</time>
      </trkpt>
      <trkpt lat="46.72485" lon="-2.35465">
        <ele>8.2</ele>
        <time>2018-09-20T16:50:54.000Z</time>
      </trkpt>
      <trkpt lat="46.72486" lon="-2.35464">
        <ele>8.1</ele>
        <time>2018-09-20T16:50:55.000Z</time>
      </trkpt>
      <trkpt lat="46.72488" lon="-2.35464">
        <ele>8.1</ele>
        <time>2018-09-20T16:50:56.000Z</time>
      </trkpt>
      <trkpt lat="46.72489" lon="-2.35463">
        <ele>8</ele>
        <time>2018-09-20T16:50:57.000Z</time>
      </trkpt>
      <trkpt lat="46.7249" lon="-2.35463">
        <ele>8</ele>
        <time>2018-09-20T16:50:58.000Z</time>
      </trkpt>
      <trkpt lat="46.72491" lon="-2.35462">
        <ele>7.9</ele>
        <time>2018-09-20T16:50:59.000Z</time>
      </trkpt>
      <trkpt lat="46.72492" lon="-2.35462">
        <ele>7.9</ele>
        <time>2018-09-20T16:51:00.000Z</time>
      </trkpt>
      <trkpt lat="46.72493" lon="-2.35462">
        <ele>7.8</ele>
        <time>2018-09-20T16:51:01.000Z</time>
      </trkpt>
      <trkpt lat="46.72494" lon="-2.35461">
        <ele>7.8</ele>
        <time>2018-09-20T16:51:02.000Z</time>
      </trkpt>
      <trkpt lat="46.72495" lon="-2.35461">
        <ele>7.7</ele>
        <time>2018-09-20T16:51:03.000Z</time>
      </trkpt>
      <trkpt lat="46.72496" lon="-2.35461">
        <ele>7.7</ele>
        <time>2018-09-20T16:51:04.000Z</time>
      </trkpt>
      <trkpt lat="46.72497" lon="-2.35461">
        <ele>7.6</ele>
        <time>2018-09-20T16:51:05.000Z</time>
      </trkpt>
      <trkpt lat="46.72498" lon="-2.35461">
        <ele>7.6</ele>
        <time>2018-09-20T16:51:06.000Z</time>
      </trkpt>
      <trkpt lat="46.725" lon="-2.35461">
        <ele>7.5</ele>
        <time>2018-09-20T16:51:07.000Z</time>
      </trkpt>
      <trkpt lat="46.72501" lon="-2.35461">
        <ele>7.5</ele>
        <time>2018-09-20T16:51:08.000Z</time>
      </trkpt>
      <trkpt lat="46.72502" lon="-2.35461">
        <ele>7.5</ele>
        <time>2018-09-20T16:51:09.000Z</time>
      </trkpt>
      <trkpt lat="46.72503" lon="-2.35461">
        <ele>7.5</ele>
        <time>2018-09-20T16:51:10.000Z</time>
      </trkpt>
      <trkpt lat="46.72504" lon="-2.35461">
        <ele>7.5</ele>
        <time>2018-09-20T16:51:11.000Z</time>
      </trkpt>
      <trkpt lat="46.72505" lon="-2.35462">
        <ele>7.5</ele>
        <time>2018-09-20T16:51:12.000Z</time>
      </trkpt>
      <trkpt lat="46.72506" lon="-2.35462">
        <ele>7.5</ele>
        <time>2018-09-20T16:51:13.000Z</time>
      </trkpt>
      <trkpt lat="46.72507" lon="-2.35463">
        <ele>7.5</ele>
        <time>2018-09-20T16:51:14.000Z</time>
      </trkpt>
      <trkpt lat="46.72508" lon="-2.35464">
        <ele>7.5</ele>
        <time>2018-09-20T16:51:15.000Z</time>
      </trkpt>
      <trkpt lat="46.72509" lon="-2.35464">
        <ele>7.4</ele>
        <time>2018-09-20T16:51:16.000Z</time>
      </trkpt>
      <trkpt lat="46.7251" lon="-2.35465">
        <ele>7.4</ele>
        <time>2018-09-20T16:51:17.000Z</time>
      </trkpt>
      <trkpt lat="46.72511" lon="-2.35466">
        <ele>7.4</ele>
        <time>2018-09-20T16:51:18.000Z</time>
      </trkpt>
      <trkpt lat="46.72512" lon="-2.35467">
        <ele>7.4</ele>
        <time>2018-09-20T16:51:19.000Z</time>
      </trkpt>
      <trkpt lat="46.72513" lon="-2.35468">
        <ele>7.4</ele>
        <time>2018-09-20T16:51:20.000Z</time>
      </trkpt>
      <trkpt lat="46.72514" lon="-2.35468">
        <ele>7.4</ele>
        <time>2018-09-20T16:51:21.000Z</time>
      </trkpt>
      <trkpt lat="46.72515" lon="-2.35469">
        <ele>7.4</ele>
        <time>2018-09-20T16:51:22.000Z</time>
      </trkpt>
      <trkpt lat="46.72516" lon="-2.3547">
        <ele>7.4</ele>
        <time>2018-09-20T16:51:23.000Z</time>
      </trkpt>
      <trkpt lat="46.72517" lon="-2.35471">
        <ele>7.4</ele>
        <time>2018-09-20T16:51:24.000Z</time>
      </trkpt>
      <trkpt lat="46.72518" lon="-2.35472">
        <ele>7.4</ele>
        <time>2018-09-20T16:51:25.000Z</time>
      </trkpt>
      <trkpt lat="46.72518" lon="-2.35473">
        <ele>7.4</ele>
        <time>2018-09-20T16:51:26.000Z</time>
      </trkpt>
      <trkpt lat="46.72519" lon="-2.35474">
        <ele>7.4</ele>
        <time>2018-09-20T16:51:27.000Z</time>
      </trkpt>
      <trkpt lat="46.7252" lon="-2.35474">
        <ele>7.4</ele>
        <time>2018-09-20T16:51:28.000Z</time>
      </trkpt>
      <trkpt lat="46.72521" lon="-2.35475">
        <ele>7.3</ele>
        <time>2018-09-20T16:51:29.000Z</time>
      </trkpt>
      <trkpt lat="46.72522" lon="-2.35476">
        <ele>7.3</ele>
        <time>2018-09-20T16:51:30.000Z</time>
      </trkpt>
      <trkpt lat="46.72523" lon="-2.35477">
        <ele>7.3</ele>
        <time>2018-09-20T16:51:31.000Z</time>
      </trkpt>
      <trkpt lat="46.72523" lon="-2.35478">
        <ele>7.3</ele>
        <time>2018-09-20T16:51:32.000Z</time>
      </trkpt>
      <trkpt lat="46.72524" lon="-2.35479">
        <ele>7.3</ele>
        <time>2018-09-20T16:51:33.000Z</time>
      </trkpt>
      <trkpt lat="46.72525" lon="-2.3548">
        <ele>7.3</ele>
        <time>2018-09-20T16:51:34.000Z</time>
      </trkpt>
      <trkpt lat="46.72526" lon="-2.35481">
        <ele>7.3</ele>
        <time>2018-09-20T16:51:35.000Z</time>
      </trkpt>
      <trkpt lat="46.72527" lon="-2.35482">
        <ele>7.3</ele>
        <time>2018-09-20T16:51:36.000Z</time>
      </trkpt>
      <trkpt lat="46.72527" lon="-2.35483">
        <ele>7.3</ele>
        <time>2018-09-20T16:51:37.000Z</time>
      </trkpt>
      <trkpt lat="46.72528" lon="-2.35484">
        <ele>7.3</ele>
        <time>2018-09-20T16:51:38.000Z</time>
      </trkpt>
      <trkpt lat="46.72529" lon="-2.35485">
        <ele>7.3</ele>
        <time>2018-09-20T16:51:39.000Z</time>
      </trkpt>
      <trkpt lat="46.7253" lon="-2.35486">
        <ele>7.2</ele>
        <time>2018-09-20T16:51:40.000Z</time>
      </trkpt>
      <trkpt lat="46.7253" lon="-2.35488">
        <ele>7.2</ele>
        <time>2018-09-20T16:51:41.000Z</time>
      </trkpt>
      <trkpt lat="46.72531" lon="-2.35489">
        <ele>7.2</ele>
        <time>2018-09-20T16:51:42.000Z</time>
      </trkpt>
      <trkpt lat="46.72532" lon="-2.3549">
        <ele>7.2</ele>
        <time>2018-09-20T16:51:43.000Z</time>
      </trkpt>
      <trkpt lat="46.72533" lon="-2.35491">
        <ele>7.2</ele>
        <time>2018-09-20T16:51:44.000Z</time>
      </trkpt>
      <trkpt lat="46.72534" lon="-2.35492">
        <ele>7.2</ele>
        <time>2018-09-20T16:51:45.000Z</time>
      </trkpt>
      <trkpt lat="46.72535" lon="-2.35493">
        <ele>7.2</ele>
        <time>2018-09-20T16:51:46.000Z</time>
      </trkpt>
      <trkpt lat="46.72535" lon="-2.35494">
        <ele>7.1</ele>
        <time>2018-09-20T16:51:47.000Z</time>
      </trkpt>
      <trkpt lat="46.72536" lon="-2.35495">
        <ele>7.1</ele>
        <time>2018-09-20T16:51:48.000Z</time>
      </trkpt>
      <trkpt lat="46.72537" lon="-2.35496">
        <ele>7.1</ele>
        <time>2018-09-20T16:51:49.000Z</time>
      </trkpt>
      <trkpt lat="46.72538" lon="-2.35497">
        <ele>7.1</ele>
        <time>2018-09-20T16:51:50.000Z</time>
      </trkpt>
      <trkpt lat="46.72539" lon="-2.35498">
        <ele>7.1</ele>
        <time>2018-09-20T16:51:51.000Z</time>
      </trkpt>
      <trkpt lat="46.7254" lon="-2.35499">
        <ele>7</ele>
        <time>2018-09-20T16:51:52.000Z</time>
      </trkpt>
      <trkpt lat="46.72541" lon="-2.355">
        <ele>7</ele>
        <time>2018-09-20T16:51:53.000Z</time>
      </trkpt>
      <trkpt lat="46.72542" lon="-2.35501">
        <ele>7</ele>
        <time>2018-09-20T16:51:54.000Z</time>
      </trkpt>
      <trkpt lat="46.72543" lon="-2.35502">
        <ele>7</ele>
        <time>2018-09-20T16:51:55.000Z</time>
      </trkpt>
      <trkpt lat="46.72544" lon="-2.35503">
        <ele>7</ele>
        <time>2018-09-20T16:51:56.000Z</time>
      </trkpt>
      <trkpt lat="46.72544" lon="-2.35504">
        <ele>6.9</ele>
        <time>2018-09-20T16:51:57.000Z</time>
      </trkpt>
      <trkpt lat="46.72545" lon="-2.35505">
        <ele>6.9</ele>
        <time>2018-09-20T16:51:58.000Z</time>
      </trkpt>
      <trkpt lat="46.72546" lon="-2.35506">
        <ele>6.9</ele>
        <time>2018-09-20T16:51:59.000Z</time>
      </trkpt>
      <trkpt lat="46.72547" lon="-2.35507">
        <ele>6.9</ele>
        <time>2018-09-20T16:52:00.000Z</time>
      </trkpt>
      <trkpt lat="46.72548" lon="-2.35508">
        <ele>6.9</ele>
        <time>2018-09-20T16:52:01.000Z</time>
      </trkpt>
      <trkpt lat="46.72549" lon="-2.35509">
        <ele>6.8</ele>
        <time>2018-09-20T16:52:02.000Z</time>
      </trkpt>
      <trkpt lat="46.72549" lon="-2.3551">
        <ele>6.8</ele>
        <time>2018-09-20T16:52:03.000Z</time>
      </trkpt>
      <trkpt lat="46.7255" lon="-2.35512">
        <ele>6.8</ele>
        <time>2018-09-20T16:52:04.000Z</time>
      </trkpt>
      <trkpt lat="46.72551" lon="-2.35512">
        <ele>6.8</ele>
        <time>2018-09-20T16:52:05.000Z</time>
      </trkpt>
      <trkpt lat="46.72552" lon="-2.35513">
        <ele>6.8</ele>
        <time>2018-09-20T16:52:06.000Z</time>
      </trkpt>
      <trkpt lat="46.72553" lon="-2.35514">
        <ele>6.7</ele>
        <time>2018-09-20T16:52:07.000Z</time>
      </trkpt>
      <trkpt lat="46.72554" lon="-2.35515">
        <ele>6.7</ele>
        <time>2018-09-20T16:52:08.000Z</time>
      </trkpt>
      <trkpt lat="46.72554" lon="-2.35516">
        <ele>6.7</ele>
        <time>2018-09-20T16:52:09.000Z</time>
      </trkpt>
      <trkpt lat="46.72555" lon="-2.35516">
        <ele>6.7</ele>
        <time>2018-09-20T16:52:10.000Z</time>
      </trkpt>
      <trkpt lat="46.72556" lon="-2.35517">
        <ele>6.7</ele>
        <time>2018-09-20T16:52:11.000Z</time>
      </trkpt>
      <trkpt lat="46.72557" lon="-2.35518">
        <ele>6.6</ele>
        <time>2018-09-20T16:52:12.000Z</time>
      </trkpt>
      <trkpt lat="46.72558" lon="-2.35518">
        <ele>6.6</ele>
        <time>2018-09-20T16:52:13.000Z</time>
      </trkpt>
      <trkpt lat="46.72559" lon="-2.35519">
        <ele>6.6</ele>
        <time>2018-09-20T16:52:14.000Z</time>
      </trkpt>
      <trkpt lat="46.7256" lon="-2.35519">
        <ele>6.6</ele>
        <time>2018-09-20T16:52:15.000Z</time>
      </trkpt>
      <trkpt lat="46.72561" lon="-2.3552">
        <ele>6.5</ele>
        <time>2018-09-20T16:52:16.000Z</time>
      </trkpt>
      <trkpt lat="46.72562" lon="-2.35521">
        <ele>6.5</ele>
        <time>2018-09-20T16:52:17.000Z</time>
      </trkpt>
      <trkpt lat="46.72563" lon="-2.35521">
        <ele>6.5</ele>
        <time>2018-09-20T16:52:18.000Z</time>
      </trkpt>
      <trkpt lat="46.72564" lon="-2.35522">
        <ele>6.5</ele>
        <time>2018-09-20T16:52:19.000Z</time>
      </trkpt>
      <trkpt lat="46.72565" lon="-2.35523">
        <ele>6.4</ele>
        <time>2018-09-20T16:52:20.000Z</time>
      </trkpt>
      <trkpt lat="46.72566" lon="-2.35524">
        <ele>6.4</ele>
        <time>2018-09-20T16:52:21.000Z</time>
      </trkpt>
      <trkpt lat="46.72567" lon="-2.35525">
        <ele>6.4</ele>
        <time>2018-09-20T16:52:22.000Z</time>
      </trkpt>
      <trkpt lat="46.72567" lon="-2.35526">
        <ele>6.4</ele>
        <time>2018-09-20T16:52:23.000Z</time>
      </trkpt>
      <trkpt lat="46.72568" lon="-2.35527">
        <ele>6.4</ele>
        <time>2018-09-20T16:52:24.000Z</time>
      </trkpt>
      <trkpt lat="46.72569" lon="-2.35528">
        <ele>6.3</ele>
        <time>2018-09-20T16:52:25.000Z</time>
      </trkpt>
      <trkpt lat="46.7257" lon="-2.35529">
        <ele>6.3</ele>
        <time>2018-09-20T16:52:26.000Z</time>
      </trkpt>
      <trkpt lat="46.72571" lon="-2.35531">
        <ele>6.3</ele>
        <time>2018-09-20T16:52:27.000Z</time>
      </trkpt>
      <trkpt lat="46.72572" lon="-2.35532">
        <ele>6.3</ele>
        <time>2018-09-20T16:52:28.000Z</time>
      </trkpt>
      <trkpt lat="46.72572" lon="-2.35533">
        <ele>6.3</ele>
        <time>2018-09-20T16:52:29.000Z</time>
      </trkpt>
      <trkpt lat="46.72573" lon="-2.35535">
        <ele>6.3</ele>
        <time>2018-09-20T16:52:30.000Z</time>
      </trkpt>
      <trkpt lat="46.72574" lon="-2.35536">
        <ele>6.2</ele>
        <time>2018-09-20T16:52:31.000Z</time>
      </trkpt>
      <trkpt lat="46.72574" lon="-2.35537">
        <ele>6.2</ele>
        <time>2018-09-20T16:52:32.000Z</time>
      </trkpt>
      <trkpt lat="46.72575" lon="-2.35539">
        <ele>6.2</ele>
        <time>2018-09-20T16:52:33.000Z</time>
      </trkpt>
      <trkpt lat="46.72575" lon="-2.3554">
        <ele>6.2</ele>
        <time>2018-09-20T16:52:34.000Z</time>
      </trkpt>
      <trkpt lat="46.72576" lon="-2.35541">
        <ele>6.2</ele>
        <time>2018-09-20T16:52:35.000Z</time>
      </trkpt>
      <trkpt lat="46.72576" lon="-2.35543">
        <ele>6.2</ele>
        <time>2018-09-20T16:52:36.000Z</time>
      </trkpt>
      <trkpt lat="46.72576" lon="-2.35544">
        <ele>6.2</ele>
        <time>2018-09-20T16:52:37.000Z</time>
      </trkpt>
      <trkpt lat="46.72577" lon="-2.35546">
        <ele>6.2</ele>
        <time>2018-09-20T16:52:38.000Z</time>
      </trkpt>
      <trkpt lat="46.72577" lon="-2.35547">
        <ele>6.2</ele>
        <time>2018-09-20T16:52:39.000Z</time>
      </trkpt>
      <trkpt lat="46.72577" lon="-2.35549">
        <ele>6.1</ele>
        <time>2018-09-20T16:52:40.000Z</time>
      </trkpt>
      <trkpt lat="46.72577" lon="-2.3555">
        <ele>6.1</ele>
        <time>2018-09-20T16:52:41.000Z</time>
      </trkpt>
      <trkpt lat="46.72578" lon="-2.35552">
        <ele>6.1</ele>
        <time>2018-09-20T16:52:42.000Z</time>
      </trkpt>
      <trkpt lat="46.72578" lon="-2.35554">
        <ele>6.1</ele>
        <time>2018-09-20T16:52:43.000Z</time>
      </trkpt>
      <trkpt lat="46.72578" lon="-2.35555">
        <ele>6.1</ele>
        <time>2018-09-20T16:52:44.000Z</time>
      </trkpt>
      <trkpt lat="46.72578" lon="-2.35557">
        <ele>6.1</ele>
        <time>2018-09-20T16:52:45.000Z</time>
      </trkpt>
      <trkpt lat="46.72578" lon="-2.35559">
        <ele>6.1</ele>
        <time>2018-09-20T16:52:46.000Z</time>
      </trkpt>
      <trkpt lat="46.72578" lon="-2.35561">
        <ele>6.1</ele>
        <time>2018-09-20T16:52:47.000Z</time>
      </trkpt>
      <trkpt lat="46.72578" lon="-2.35562">
        <ele>6.1</ele>
        <time>2018-09-20T16:52:48.000Z</time>
      </trkpt>
      <trkpt lat="46.72578" lon="-2.35564">
        <ele>6.1</ele>
        <time>2018-09-20T16:52:49.000Z</time>
      </trkpt>
      <trkpt lat="46.72578" lon="-2.35566">
        <ele>6.1</ele>
        <time>2018-09-20T16:52:50.000Z</time>
      </trkpt>
      <trkpt lat="46.72578" lon="-2.35567">
        <ele>6.1</ele>
        <time>2018-09-20T16:52:51.000Z</time>
      </trkpt>
      <trkpt lat="46.72578" lon="-2.35569">
        <ele>6.1</ele>
        <time>2018-09-20T16:52:52.000Z</time>
      </trkpt>
      <trkpt lat="46.72578" lon="-2.35571">
        <ele>6.1</ele>
        <time>2018-09-20T16:52:53.000Z</time>
      </trkpt>
      <trkpt lat="46.72578" lon="-2.35572">
        <ele>6.1</ele>
        <time>2018-09-20T16:52:54.000Z</time>
      </trkpt>
      <trkpt lat="46.72578" lon="-2.35574">
        <ele>6.1</ele>
        <time>2018-09-20T16:52:55.000Z</time>
      </trkpt>
      <trkpt lat="46.72578" lon="-2.35575">
        <ele>6.1</ele>
        <time>2018-09-20T16:52:56.000Z</time>
      </trkpt>
      <trkpt lat="46.72579" lon="-2.35577">
        <ele>6.1</ele>
        <time>2018-09-20T16:52:57.000Z</time>
      </trkpt>
      <trkpt lat="46.72579" lon="-2.35578">
        <ele>6.1</ele>
        <time>2018-09-20T16:52:58.000Z</time>
      </trkpt>
      <trkpt lat="46.72579" lon="-2.35579">
        <ele>6.1</ele>
        <time>2018-09-20T16:52:59.000Z</time>
      </trkpt>
      <trkpt lat="46.72579" lon="-2.3558">
        <ele>6.1</ele>
        <time>2018-09-20T16:53:00.000Z</time>
      </trkpt>
      <trkpt lat="46.72579" lon="-2.35581">
        <ele>6.1</ele>
        <time>2018-09-20T16:53:01.000Z</time>
      </trkpt>
      <trkpt lat="46.7258" lon="-2.35582">
        <ele>6.1</ele>
        <time>2018-09-20T16:53:02.000Z</time>
      </trkpt>
      <trkpt lat="46.7258" lon="-2.35582">
        <ele>6.1</ele>
        <time>2018-09-20T16:53:03.000Z</time>
      </trkpt>
      <trkpt lat="46.7258" lon="-2.35583">
        <ele>6.1</ele>
        <time>2018-09-20T16:53:04.000Z</time>
      </trkpt>
    </trkseg>
  </trk>
</gpx>